<?xml version='1.0' encoding='UTF-8'?><gpx version="1.1" creator="JPX - https://github.com/jenetics/jpx" xmlns="http://www.topografix.com/GPX/1/1"><trk><trkseg><trkpt lat="41.1785767" lon="16.667265"><ele>22.0</ele><time>2026-04-12T06:46:40.636Z</time></trkpt><trkpt lat="41.1785967" lon="16.6671833"><ele>22.0</ele><time>2026-04-12T06:46:41.634Z</time></trkpt><trkpt lat="41.1786183" lon="16.6670867"><ele>22.0</ele><time>2026-04-12T06:46:42.635Z</time></trkpt><trkpt lat="41.1786467" lon="16.6669717"><ele>22.0</ele><time>2026-04-12T06:46:43.635Z</time></trkpt><trkpt lat="41.17868" lon="16.66684"><ele>22.0</ele><time>2026-04-12T06:46:44.635Z</time></trkpt><trkpt lat="41.1787183" lon="16.6666833"><ele>22.0</ele><time>2026-04-12T06:46:45.636Z</time></trkpt><trkpt lat="41.1787567" lon="16.6665133"><ele>22.0</ele><time>2026-04-12T06:46:46.634Z</time></trkpt><trkpt lat="41.1787967" lon="16.66633"><ele>22.0</ele><time>2026-04-12T06:46:47.635Z</time></trkpt><trkpt lat="41.1788383" lon="16.6661533"><ele>22.0</ele><time>2026-04-12T06:46:48.636Z</time></trkpt><trkpt lat="41.1788783" lon="16.6659933"><ele>22.0</ele><time>2026-04-12T06:46:49.637Z</time></trkpt><trkpt lat="41.1789183" lon="16.6658467"><ele>22.0</ele><time>2026-04-12T06:46:50.635Z</time></trkpt><trkpt lat="41.1789667" lon="16.6657167"><ele>22.0</ele><time>2026-04-12T06:46:51.635Z</time></trkpt><trkpt lat="41.1790267" lon="16.6656117"><ele>22.0</ele><time>2026-04-12T06:46:52.634Z</time></trkpt><trkpt lat="41.1790983" lon="16.6655217"><ele>22.0</ele><time>2026-04-12T06:46:53.635Z</time></trkpt><trkpt lat="41.1791683" lon="16.6654533"><ele>21.8</ele><time>2026-04-12T06:46:54.634Z</time></trkpt><trkpt lat="41.17923" lon="16.665395"><ele>21.6</ele><time>2026-04-12T06:46:55.635Z</time></trkpt><trkpt lat="41.17928" lon="16.66534"><ele>21.400000000000002</ele><time>2026-04-12T06:46:56.638Z</time></trkpt><trkpt lat="41.1792433" lon="16.6651817"><ele>21.200000000000003</ele><time>2026-04-12T06:46:59.635Z</time></trkpt><trkpt lat="41.1791933" lon="16.6650733"><ele>21.0</ele><time>2026-04-12T06:47:00.638Z</time></trkpt><trkpt lat="41.1791783" lon="16.664955"><ele>21.0</ele><time>2026-04-12T06:47:01.635Z</time></trkpt><trkpt lat="41.179175" lon="16.664795"><ele>21.0</ele><time>2026-04-12T06:47:02.635Z</time></trkpt><trkpt lat="41.179195" lon="16.6646183"><ele>21.0</ele><time>2026-04-12T06:47:03.634Z</time></trkpt><trkpt lat="41.179225" lon="16.664425"><ele>21.0</ele><time>2026-04-12T06:47:04.634Z</time></trkpt><trkpt lat="41.1792617" lon="16.6642117"><ele>21.666666666666668</ele><time>2026-04-12T06:47:05.637Z</time></trkpt><trkpt lat="41.1793067" lon="16.6639883"><ele>22.333333333333336</ele><time>2026-04-12T06:47:06.634Z</time></trkpt><trkpt lat="41.1793567" lon="16.6637717"><ele>23.0</ele><time>2026-04-12T06:47:07.636Z</time></trkpt><trkpt lat="41.179405" lon="16.663595"><ele>23.0</ele><time>2026-04-12T06:47:08.635Z</time></trkpt><trkpt lat="41.1794283" lon="16.66346"><ele>23.0</ele><time>2026-04-12T06:47:09.634Z</time></trkpt><trkpt lat="41.1794333" lon="16.6633467"><ele>23.0</ele><time>2026-04-12T06:47:10.636Z</time></trkpt><trkpt lat="41.1794217" lon="16.6632467"><ele>23.0</ele><time>2026-04-12T06:47:11.636Z</time></trkpt><trkpt lat="41.1793833" lon="16.6631617"><ele>23.0</ele><time>2026-04-12T06:47:12.634Z</time></trkpt><trkpt lat="41.1793233" lon="16.6630817"><ele>23.0</ele><time>2026-04-12T06:47:13.635Z</time></trkpt><trkpt lat="41.1792333" lon="16.663005"><ele>23.0</ele><time>2026-04-12T06:47:14.636Z</time></trkpt><trkpt lat="41.17912" lon="16.6629233"><ele>23.0</ele><time>2026-04-12T06:47:15.634Z</time></trkpt><trkpt lat="41.1789967" lon="16.662835"><ele>23.0</ele><time>2026-04-12T06:47:16.635Z</time></trkpt><trkpt lat="41.1788733" lon="16.6627267"><ele>23.0</ele><time>2026-04-12T06:47:17.634Z</time></trkpt><trkpt lat="41.1787483" lon="16.6626033"><ele>23.666666666666668</ele><time>2026-04-12T06:47:18.636Z</time></trkpt><trkpt lat="41.17862" lon="16.66247"><ele>24.333333333333336</ele><time>2026-04-12T06:47:19.636Z</time></trkpt><trkpt lat="41.1784883" lon="16.662315"><ele>25.0</ele><time>2026-04-12T06:47:20.637Z</time></trkpt><trkpt lat="41.17835" lon="16.662145"><ele>25.0</ele><time>2026-04-12T06:47:21.634Z</time></trkpt><trkpt lat="41.1781967" lon="16.6619667"><ele>25.0</ele><time>2026-04-12T06:47:22.634Z</time></trkpt><trkpt lat="41.1780367" lon="16.6617783"><ele>25.0</ele><time>2026-04-12T06:47:23.635Z</time></trkpt><trkpt lat="41.1778817" lon="16.6615767"><ele>26.333333333333336</ele><time>2026-04-12T06:47:24.636Z</time></trkpt><trkpt lat="41.1777283" lon="16.6613633"><ele>27.666666666666664</ele><time>2026-04-12T06:47:25.635Z</time></trkpt><trkpt lat="41.1775833" lon="16.66114"><ele>29.0</ele><time>2026-04-12T06:47:26.634Z</time></trkpt><trkpt lat="41.17744" lon="16.6609083"><ele>30.0</ele><time>2026-04-12T06:47:27.634Z</time></trkpt><trkpt lat="41.177295" lon="16.6606717"><ele>31.0</ele><time>2026-04-12T06:47:28.634Z</time></trkpt><trkpt lat="41.1771417" lon="16.66044"><ele>32.0</ele><time>2026-04-12T06:47:29.636Z</time></trkpt><trkpt lat="41.176985" lon="16.6602117"><ele>33.0</ele><time>2026-04-12T06:47:30.635Z</time></trkpt><trkpt lat="41.1768217" lon="16.65999"><ele>33.0</ele><time>2026-04-12T06:47:31.636Z</time></trkpt><trkpt lat="41.1766617" lon="16.6597867"><ele>33.0</ele><time>2026-04-12T06:47:32.635Z</time></trkpt><trkpt lat="41.17651" lon="16.6596083"><ele>33.0</ele><time>2026-04-12T06:47:33.633Z</time></trkpt><trkpt lat="41.1763683" lon="16.6594467"><ele>33.0</ele><time>2026-04-12T06:47:34.644Z</time></trkpt><trkpt lat="41.176245" lon="16.659295"><ele>33.0</ele><time>2026-04-12T06:47:35.635Z</time></trkpt><trkpt lat="41.1761317" lon="16.6591567"><ele>33.0</ele><time>2026-04-12T06:47:36.634Z</time></trkpt><trkpt lat="41.1760317" lon="16.65904"><ele>33.0</ele><time>2026-04-12T06:47:37.635Z</time></trkpt><trkpt lat="41.1759533" lon="16.6589483"><ele>33.0</ele><time>2026-04-12T06:47:38.637Z</time></trkpt><trkpt lat="41.17589" lon="16.6588817"><ele>33.0</ele><time>2026-04-12T06:47:39.634Z</time></trkpt><trkpt lat="41.17583" lon="16.658845"><ele>33.0</ele><time>2026-04-12T06:47:40.634Z</time></trkpt><trkpt lat="41.175725" lon="16.6588783"><ele>33.0</ele><time>2026-04-12T06:47:42.634Z</time></trkpt><trkpt lat="41.1756733" lon="16.65895"><ele>33.0</ele><time>2026-04-12T06:47:43.635Z</time></trkpt><trkpt lat="41.1756133" lon="16.6590633"><ele>33.25</ele><time>2026-04-12T06:47:44.637Z</time></trkpt><trkpt lat="41.1755467" lon="16.6591917"><ele>33.5</ele><time>2026-04-12T06:47:45.633Z</time></trkpt><trkpt lat="41.175475" lon="16.6593233"><ele>33.75</ele><time>2026-04-12T06:47:46.634Z</time></trkpt><trkpt lat="41.1754017" lon="16.659445"><ele>34.0</ele><time>2026-04-12T06:47:47.634Z</time></trkpt><trkpt lat="41.17533" lon="16.6595533"><ele>33.6</ele><time>2026-04-12T06:47:48.634Z</time></trkpt><trkpt lat="41.1752583" lon="16.6596417"><ele>33.2</ele><time>2026-04-12T06:47:49.635Z</time></trkpt><trkpt lat="41.1751817" lon="16.6597017"><ele>32.800000000000004</ele><time>2026-04-12T06:47:50.635Z</time></trkpt><trkpt lat="41.1750983" lon="16.65973"><ele>32.4</ele><time>2026-04-12T06:47:51.636Z</time></trkpt><trkpt lat="41.17501" lon="16.6597283"><ele>32.0</ele><time>2026-04-12T06:47:52.634Z</time></trkpt><trkpt lat="41.1749233" lon="16.6596983"><ele>33.0</ele><time>2026-04-12T06:47:53.638Z</time></trkpt><trkpt lat="41.174845" lon="16.6596417"><ele>34.0</ele><time>2026-04-12T06:47:54.635Z</time></trkpt><trkpt lat="41.1747817" lon="16.6595517"><ele>35.0</ele><time>2026-04-12T06:47:55.634Z</time></trkpt><trkpt lat="41.1747383" lon="16.6594283"><ele>36.0</ele><time>2026-04-12T06:47:56.634Z</time></trkpt><trkpt lat="41.1747167" lon="16.6592917"><ele>37.0</ele><time>2026-04-12T06:47:57.633Z</time></trkpt><trkpt lat="41.17472" lon="16.659145"><ele>37.0</ele><time>2026-04-12T06:47:58.634Z</time></trkpt><trkpt lat="41.1747483" lon="16.658985"><ele>37.0</ele><time>2026-04-12T06:47:59.634Z</time></trkpt><trkpt lat="41.17479" lon="16.6588117"><ele>37.0</ele><time>2026-04-12T06:48:00.634Z</time></trkpt><trkpt lat="41.1748433" lon="16.65862"><ele>37.0</ele><time>2026-04-12T06:48:01.634Z</time></trkpt><trkpt lat="41.1748983" lon="16.6584133"><ele>37.0</ele><time>2026-04-12T06:48:02.634Z</time></trkpt><trkpt lat="41.1749567" lon="16.658195"><ele>37.0</ele><time>2026-04-12T06:48:03.634Z</time></trkpt><trkpt lat="41.1750217" lon="16.657965"><ele>37.0</ele><time>2026-04-12T06:48:04.634Z</time></trkpt><trkpt lat="41.1751033" lon="16.6577167"><ele>36.66666666666667</ele><time>2026-04-12T06:48:05.635Z</time></trkpt><trkpt lat="41.1751983" lon="16.6574617"><ele>36.333333333333336</ele><time>2026-04-12T06:48:06.635Z</time></trkpt><trkpt lat="41.175305" lon="16.6572083"><ele>36.0</ele><time>2026-04-12T06:48:07.636Z</time></trkpt><trkpt lat="41.17542" lon="16.6569567"><ele>36.0</ele><time>2026-04-12T06:48:08.635Z</time></trkpt><trkpt lat="41.1755417" lon="16.6567017"><ele>36.0</ele><time>2026-04-12T06:48:09.637Z</time></trkpt><trkpt lat="41.17567" lon="16.6564483"><ele>35.5</ele><time>2026-04-12T06:48:10.634Z</time></trkpt><trkpt lat="41.1758033" lon="16.65619"><ele>35.0</ele><time>2026-04-12T06:48:11.634Z</time></trkpt><trkpt lat="41.1759367" lon="16.6559233"><ele>35.0</ele><time>2026-04-12T06:48:12.634Z</time></trkpt><trkpt lat="41.1760717" lon="16.65565"><ele>35.0</ele><time>2026-04-12T06:48:13.636Z</time></trkpt><trkpt lat="41.1762083" lon="16.6553733"><ele>34.5</ele><time>2026-04-12T06:48:14.635Z</time></trkpt><trkpt lat="41.1763483" lon="16.65509"><ele>34.0</ele><time>2026-04-12T06:48:15.633Z</time></trkpt><trkpt lat="41.1764883" lon="16.6548033"><ele>33.5</ele><time>2026-04-12T06:48:16.634Z</time></trkpt><trkpt lat="41.1766317" lon="16.654515"><ele>33.0</ele><time>2026-04-12T06:48:17.637Z</time></trkpt><trkpt lat="41.17678" lon="16.6542183"><ele>32.5</ele><time>2026-04-12T06:48:18.635Z</time></trkpt><trkpt lat="41.17693" lon="16.65392"><ele>32.0</ele><time>2026-04-12T06:48:19.636Z</time></trkpt><trkpt lat="41.1770783" lon="16.65362"><ele>32.5</ele><time>2026-04-12T06:48:20.636Z</time></trkpt><trkpt lat="41.17723" lon="16.6533183"><ele>33.0</ele><time>2026-04-12T06:48:21.635Z</time></trkpt><trkpt lat="41.1773667" lon="16.6530167"><ele>32.0</ele><time>2026-04-12T06:48:22.634Z</time></trkpt><trkpt lat="41.1775083" lon="16.6527117"><ele>31.0</ele><time>2026-04-12T06:48:23.636Z</time></trkpt><trkpt lat="41.1776667" lon="16.6524017"><ele>31.0</ele><time>2026-04-12T06:48:24.634Z</time></trkpt><trkpt lat="41.177825" lon="16.65209"><ele>31.0</ele><time>2026-04-12T06:48:25.634Z</time></trkpt><trkpt lat="41.177985" lon="16.6517717"><ele>30.5</ele><time>2026-04-12T06:48:26.635Z</time></trkpt><trkpt lat="41.1781467" lon="16.65145"><ele>30.0</ele><time>2026-04-12T06:48:27.634Z</time></trkpt><trkpt lat="41.1783083" lon="16.651125"><ele>30.5</ele><time>2026-04-12T06:48:28.633Z</time></trkpt><trkpt lat="41.1784683" lon="16.6508017"><ele>31.0</ele><time>2026-04-12T06:48:29.635Z</time></trkpt><trkpt lat="41.17863" lon="16.6504783"><ele>32.0</ele><time>2026-04-12T06:48:30.634Z</time></trkpt><trkpt lat="41.1787917" lon="16.6501567"><ele>33.0</ele><time>2026-04-12T06:48:31.634Z</time></trkpt><trkpt lat="41.1789533" lon="16.649835"><ele>32.0</ele><time>2026-04-12T06:48:32.635Z</time></trkpt><trkpt lat="41.179115" lon="16.6495133"><ele>31.0</ele><time>2026-04-12T06:48:33.634Z</time></trkpt><trkpt lat="41.1792783" lon="16.6491933"><ele>31.0</ele><time>2026-04-12T06:48:34.636Z</time></trkpt><trkpt lat="41.17944" lon="16.6488733"><ele>31.0</ele><time>2026-04-12T06:48:35.634Z</time></trkpt><trkpt lat="41.1796017" lon="16.648555"><ele>31.0</ele><time>2026-04-12T06:48:36.634Z</time></trkpt><trkpt lat="41.1797633" lon="16.648235"><ele>31.0</ele><time>2026-04-12T06:48:37.633Z</time></trkpt><trkpt lat="41.1799267" lon="16.6479133"><ele>30.0</ele><time>2026-04-12T06:48:38.634Z</time></trkpt><trkpt lat="41.1800917" lon="16.6475917"><ele>29.0</ele><time>2026-04-12T06:48:39.635Z</time></trkpt><trkpt lat="41.180255" lon="16.6472683"><ele>29.5</ele><time>2026-04-12T06:48:40.634Z</time></trkpt><trkpt lat="41.180415" lon="16.6469417"><ele>30.0</ele><time>2026-04-12T06:48:41.636Z</time></trkpt><trkpt lat="41.1805767" lon="16.6466167"><ele>29.5</ele><time>2026-04-12T06:48:42.634Z</time></trkpt><trkpt lat="41.1807383" lon="16.6462917"><ele>29.0</ele><time>2026-04-12T06:48:43.635Z</time></trkpt><trkpt lat="41.1809" lon="16.6459667"><ele>29.0</ele><time>2026-04-12T06:48:44.635Z</time></trkpt><trkpt lat="41.1810617" lon="16.6456417"><ele>29.0</ele><time>2026-04-12T06:48:45.633Z</time></trkpt><trkpt lat="41.1812217" lon="16.645315"><ele>29.0</ele><time>2026-04-12T06:48:46.634Z</time></trkpt><trkpt lat="41.18138" lon="16.6449883"><ele>29.0</ele><time>2026-04-12T06:48:47.635Z</time></trkpt><trkpt lat="41.18154" lon="16.64466"><ele>28.0</ele><time>2026-04-12T06:48:48.633Z</time></trkpt><trkpt lat="41.1817017" lon="16.6443333"><ele>27.0</ele><time>2026-04-12T06:48:49.635Z</time></trkpt><trkpt lat="41.181865" lon="16.6440117"><ele>27.0</ele><time>2026-04-12T06:48:50.636Z</time></trkpt><trkpt lat="41.1820267" lon="16.64369"><ele>27.0</ele><time>2026-04-12T06:48:51.634Z</time></trkpt><trkpt lat="41.18219" lon="16.64337"><ele>25.5</ele><time>2026-04-12T06:48:52.635Z</time></trkpt><trkpt lat="41.1823533" lon="16.6430483"><ele>24.0</ele><time>2026-04-12T06:48:53.636Z</time></trkpt><trkpt lat="41.1825133" lon="16.6427283"><ele>23.5</ele><time>2026-04-12T06:48:54.634Z</time></trkpt><trkpt lat="41.1826717" lon="16.6424067"><ele>23.0</ele><time>2026-04-12T06:48:55.634Z</time></trkpt><trkpt lat="41.1828283" lon="16.6420817"><ele>23.5</ele><time>2026-04-12T06:48:56.635Z</time></trkpt><trkpt lat="41.1829833" lon="16.6417617"><ele>24.0</ele><time>2026-04-12T06:48:57.633Z</time></trkpt><trkpt lat="41.1831333" lon="16.64144"><ele>24.5</ele><time>2026-04-12T06:48:58.634Z</time></trkpt><trkpt lat="41.1832767" lon="16.6411167"><ele>25.0</ele><time>2026-04-12T06:48:59.633Z</time></trkpt><trkpt lat="41.18341" lon="16.6407917"><ele>25.0</ele><time>2026-04-12T06:49:00.635Z</time></trkpt><trkpt lat="41.1835333" lon="16.6404683"><ele>25.0</ele><time>2026-04-12T06:49:01.634Z</time></trkpt><trkpt lat="41.1836417" lon="16.64014"><ele>24.5</ele><time>2026-04-12T06:49:02.636Z</time></trkpt><trkpt lat="41.1837367" lon="16.6398017"><ele>24.0</ele><time>2026-04-12T06:49:03.634Z</time></trkpt><trkpt lat="41.1838217" lon="16.6394567"><ele>23.5</ele><time>2026-04-12T06:49:04.634Z</time></trkpt><trkpt lat="41.1839067" lon="16.6391083"><ele>23.0</ele><time>2026-04-12T06:49:05.635Z</time></trkpt><trkpt lat="41.1839933" lon="16.6387567"><ele>22.5</ele><time>2026-04-12T06:49:06.637Z</time></trkpt><trkpt lat="41.1840767" lon="16.6384033"><ele>22.0</ele><time>2026-04-12T06:49:07.635Z</time></trkpt><trkpt lat="41.1841617" lon="16.63805"><ele>22.0</ele><time>2026-04-12T06:49:08.634Z</time></trkpt><trkpt lat="41.184245" lon="16.6376983"><ele>22.0</ele><time>2026-04-12T06:49:09.634Z</time></trkpt><trkpt lat="41.1843283" lon="16.6373467"><ele>22.0</ele><time>2026-04-12T06:49:10.633Z</time></trkpt><trkpt lat="41.1844117" lon="16.6369967"><ele>22.0</ele><time>2026-04-12T06:49:11.634Z</time></trkpt><trkpt lat="41.1844967" lon="16.63665"><ele>22.5</ele><time>2026-04-12T06:49:12.633Z</time></trkpt><trkpt lat="41.1845783" lon="16.6363033"><ele>23.0</ele><time>2026-04-12T06:49:13.634Z</time></trkpt><trkpt lat="41.1846583" lon="16.6359567"><ele>23.0</ele><time>2026-04-12T06:49:14.634Z</time></trkpt><trkpt lat="41.1847367" lon="16.6356133"><ele>23.0</ele><time>2026-04-12T06:49:15.634Z</time></trkpt><trkpt lat="41.1848133" lon="16.6352733"><ele>23.0</ele><time>2026-04-12T06:49:16.637Z</time></trkpt><trkpt lat="41.184895" lon="16.6349333"><ele>23.0</ele><time>2026-04-12T06:49:17.635Z</time></trkpt><trkpt lat="41.1849733" lon="16.6345933"><ele>23.0</ele><time>2026-04-12T06:49:18.635Z</time></trkpt><trkpt lat="41.185055" lon="16.6342483"><ele>23.0</ele><time>2026-04-12T06:49:19.634Z</time></trkpt><trkpt lat="41.1851333" lon="16.6339"><ele>23.0</ele><time>2026-04-12T06:49:20.641Z</time></trkpt><trkpt lat="41.1852117" lon="16.63355"><ele>23.0</ele><time>2026-04-12T06:49:21.634Z</time></trkpt><trkpt lat="41.1852917" lon="16.6331983"><ele>23.0</ele><time>2026-04-12T06:49:22.635Z</time></trkpt><trkpt lat="41.1853783" lon="16.6328433"><ele>23.0</ele><time>2026-04-12T06:49:23.635Z</time></trkpt><trkpt lat="41.1854683" lon="16.63249"><ele>23.0</ele><time>2026-04-12T06:49:24.634Z</time></trkpt><trkpt lat="41.1855617" lon="16.6321383"><ele>23.0</ele><time>2026-04-12T06:49:25.634Z</time></trkpt><trkpt lat="41.185655" lon="16.63178"><ele>21.5</ele><time>2026-04-12T06:49:26.635Z</time></trkpt><trkpt lat="41.1857467" lon="16.63142"><ele>20.0</ele><time>2026-04-12T06:49:27.635Z</time></trkpt><trkpt lat="41.1858333" lon="16.6310567"><ele>20.0</ele><time>2026-04-12T06:49:28.635Z</time></trkpt><trkpt lat="41.1859167" lon="16.6306917"><ele>20.0</ele><time>2026-04-12T06:49:29.634Z</time></trkpt><trkpt lat="41.186" lon="16.630325"><ele>19.5</ele><time>2026-04-12T06:49:30.633Z</time></trkpt><trkpt lat="41.1860833" lon="16.6299583"><ele>19.0</ele><time>2026-04-12T06:49:31.634Z</time></trkpt><trkpt lat="41.1861683" lon="16.6295917"><ele>19.5</ele><time>2026-04-12T06:49:32.636Z</time></trkpt><trkpt lat="41.1862517" lon="16.629225"><ele>20.0</ele><time>2026-04-12T06:49:33.634Z</time></trkpt><trkpt lat="41.1863383" lon="16.62886"><ele>20.0</ele><time>2026-04-12T06:49:34.633Z</time></trkpt><trkpt lat="41.1864283" lon="16.6284933"><ele>20.0</ele><time>2026-04-12T06:49:35.637Z</time></trkpt><trkpt lat="41.1865183" lon="16.6281233"><ele>19.5</ele><time>2026-04-12T06:49:36.637Z</time></trkpt><trkpt lat="41.1866033" lon="16.6277533"><ele>19.0</ele><time>2026-04-12T06:49:37.634Z</time></trkpt><trkpt lat="41.1866883" lon="16.6273833"><ele>19.0</ele><time>2026-04-12T06:49:38.634Z</time></trkpt><trkpt lat="41.1867717" lon="16.6270133"><ele>19.0</ele><time>2026-04-12T06:49:39.633Z</time></trkpt><trkpt lat="41.1868583" lon="16.6266433"><ele>19.0</ele><time>2026-04-12T06:49:40.634Z</time></trkpt><trkpt lat="41.186945" lon="16.6262717"><ele>19.0</ele><time>2026-04-12T06:49:41.641Z</time></trkpt><trkpt lat="41.1870317" lon="16.6259"><ele>19.0</ele><time>2026-04-12T06:49:42.635Z</time></trkpt><trkpt lat="41.1871217" lon="16.6255267"><ele>19.0</ele><time>2026-04-12T06:49:43.634Z</time></trkpt><trkpt lat="41.18721" lon="16.625155"><ele>19.5</ele><time>2026-04-12T06:49:44.634Z</time></trkpt><trkpt lat="41.1872933" lon="16.624785"><ele>20.0</ele><time>2026-04-12T06:49:45.634Z</time></trkpt><trkpt lat="41.1873767" lon="16.624415"><ele>20.0</ele><time>2026-04-12T06:49:46.634Z</time></trkpt><trkpt lat="41.18746" lon="16.624045"><ele>20.0</ele><time>2026-04-12T06:49:47.633Z</time></trkpt><trkpt lat="41.1875417" lon="16.6236817"><ele>20.5</ele><time>2026-04-12T06:49:48.633Z</time></trkpt><trkpt lat="41.1876233" lon="16.62332"><ele>21.0</ele><time>2026-04-12T06:49:49.633Z</time></trkpt><trkpt lat="41.1877067" lon="16.6229583"><ele>21.0</ele><time>2026-04-12T06:49:50.638Z</time></trkpt><trkpt lat="41.1877917" lon="16.6225933"><ele>21.0</ele><time>2026-04-12T06:49:51.636Z</time></trkpt><trkpt lat="41.1878767" lon="16.6222267"><ele>22.5</ele><time>2026-04-12T06:49:52.634Z</time></trkpt><trkpt lat="41.187965" lon="16.6218617"><ele>24.0</ele><time>2026-04-12T06:49:53.634Z</time></trkpt><trkpt lat="41.1880517" lon="16.6214933"><ele>23.5</ele><time>2026-04-12T06:49:54.637Z</time></trkpt><trkpt lat="41.188135" lon="16.6211233"><ele>23.0</ele><time>2026-04-12T06:49:55.634Z</time></trkpt><trkpt lat="41.1882183" lon="16.6207517"><ele>23.0</ele><time>2026-04-12T06:49:56.634Z</time></trkpt><trkpt lat="41.1882933" lon="16.6203767"><ele>23.0</ele><time>2026-04-12T06:49:57.633Z</time></trkpt><trkpt lat="41.188355" lon="16.62"><ele>22.5</ele><time>2026-04-12T06:49:58.634Z</time></trkpt><trkpt lat="41.1884083" lon="16.6196267"><ele>22.0</ele><time>2026-04-12T06:49:59.634Z</time></trkpt><trkpt lat="41.1884533" lon="16.6192533"><ele>23.0</ele><time>2026-04-12T06:50:00.634Z</time></trkpt><trkpt lat="41.1884933" lon="16.6188817"><ele>24.0</ele><time>2026-04-12T06:50:01.635Z</time></trkpt><trkpt lat="41.188525" lon="16.6185133"><ele>24.0</ele><time>2026-04-12T06:50:02.634Z</time></trkpt><trkpt lat="41.188545" lon="16.61814"><ele>24.0</ele><time>2026-04-12T06:50:03.634Z</time></trkpt><trkpt lat="41.188555" lon="16.6177683"><ele>25.0</ele><time>2026-04-12T06:50:04.634Z</time></trkpt><trkpt lat="41.1885583" lon="16.6173967"><ele>26.0</ele><time>2026-04-12T06:50:05.634Z</time></trkpt><trkpt lat="41.1885517" lon="16.6170217"><ele>26.5</ele><time>2026-04-12T06:50:06.634Z</time></trkpt><trkpt lat="41.1885383" lon="16.6166483"><ele>27.0</ele><time>2026-04-12T06:50:07.634Z</time></trkpt><trkpt lat="41.1885183" lon="16.616275"><ele>26.0</ele><time>2026-04-12T06:50:08.639Z</time></trkpt><trkpt lat="41.188485" lon="16.6159017"><ele>25.0</ele><time>2026-04-12T06:50:09.634Z</time></trkpt><trkpt lat="41.1884417" lon="16.61553"><ele>25.5</ele><time>2026-04-12T06:50:10.634Z</time></trkpt><trkpt lat="41.1883917" lon="16.61516"><ele>26.0</ele><time>2026-04-12T06:50:11.635Z</time></trkpt><trkpt lat="41.1883317" lon="16.6147983"><ele>26.0</ele><time>2026-04-12T06:50:12.633Z</time></trkpt><trkpt lat="41.1882633" lon="16.6144567"><ele>26.0</ele><time>2026-04-12T06:50:13.634Z</time></trkpt><trkpt lat="41.188195" lon="16.6141333"><ele>27.5</ele><time>2026-04-12T06:50:14.636Z</time></trkpt><trkpt lat="41.188125" lon="16.6138383"><ele>29.0</ele><time>2026-04-12T06:50:15.636Z</time></trkpt><trkpt lat="41.18805" lon="16.6135567"><ele>29.333333333333332</ele><time>2026-04-12T06:50:16.634Z</time></trkpt><trkpt lat="41.187975" lon="16.6132867"><ele>29.666666666666664</ele><time>2026-04-12T06:50:17.634Z</time></trkpt><trkpt lat="41.187905" lon="16.6130417"><ele>30.0</ele><time>2026-04-12T06:50:18.634Z</time></trkpt><trkpt lat="41.1878333" lon="16.6128083"><ele>30.0</ele><time>2026-04-12T06:50:19.633Z</time></trkpt><trkpt lat="41.1877517" lon="16.6125683"><ele>30.0</ele><time>2026-04-12T06:50:20.635Z</time></trkpt><trkpt lat="41.1876517" lon="16.6123133"><ele>30.0</ele><time>2026-04-12T06:50:21.634Z</time></trkpt><trkpt lat="41.1875433" lon="16.6120433"><ele>30.5</ele><time>2026-04-12T06:50:22.633Z</time></trkpt><trkpt lat="41.1874333" lon="16.6117583"><ele>31.0</ele><time>2026-04-12T06:50:23.633Z</time></trkpt><trkpt lat="41.187325" lon="16.6114583"><ele>32.0</ele><time>2026-04-12T06:50:24.638Z</time></trkpt><trkpt lat="41.1872117" lon="16.6111517"><ele>33.0</ele><time>2026-04-12T06:50:25.634Z</time></trkpt><trkpt lat="41.187095" lon="16.6108483"><ele>33.0</ele><time>2026-04-12T06:50:26.634Z</time></trkpt><trkpt lat="41.186975" lon="16.6105433"><ele>33.0</ele><time>2026-04-12T06:50:27.634Z</time></trkpt><trkpt lat="41.1868533" lon="16.610235"><ele>33.5</ele><time>2026-04-12T06:50:28.634Z</time></trkpt><trkpt lat="41.1867317" lon="16.6099183"><ele>34.0</ele><time>2026-04-12T06:50:29.637Z</time></trkpt><trkpt lat="41.1866067" lon="16.6096"><ele>35.5</ele><time>2026-04-12T06:50:30.635Z</time></trkpt><trkpt lat="41.1864817" lon="16.6092833"><ele>37.0</ele><time>2026-04-12T06:50:31.634Z</time></trkpt><trkpt lat="41.1863583" lon="16.6089683"><ele>37.5</ele><time>2026-04-12T06:50:32.634Z</time></trkpt><trkpt lat="41.186235" lon="16.6086533"><ele>38.0</ele><time>2026-04-12T06:50:33.633Z</time></trkpt><trkpt lat="41.1861133" lon="16.60834"><ele>38.0</ele><time>2026-04-12T06:50:34.634Z</time></trkpt><trkpt lat="41.1860033" lon="16.608025"><ele>38.0</ele><time>2026-04-12T06:50:35.637Z</time></trkpt><trkpt lat="41.1858883" lon="16.6077117"><ele>38.5</ele><time>2026-04-12T06:50:36.634Z</time></trkpt><trkpt lat="41.185765" lon="16.607405"><ele>39.0</ele><time>2026-04-12T06:50:37.634Z</time></trkpt><trkpt lat="41.18564" lon="16.6070967"><ele>40.5</ele><time>2026-04-12T06:50:38.636Z</time></trkpt><trkpt lat="41.1855133" lon="16.6067867"><ele>42.0</ele><time>2026-04-12T06:50:39.635Z</time></trkpt><trkpt lat="41.1853867" lon="16.6064733"><ele>42.0</ele><time>2026-04-12T06:50:40.635Z</time></trkpt><trkpt lat="41.18526" lon="16.6061533"><ele>42.0</ele><time>2026-04-12T06:50:41.634Z</time></trkpt><trkpt lat="41.18514" lon="16.6058283"><ele>42.0</ele><time>2026-04-12T06:50:42.634Z</time></trkpt><trkpt lat="41.1850267" lon="16.605495"><ele>42.0</ele><time>2026-04-12T06:50:43.633Z</time></trkpt><trkpt lat="41.1849233" lon="16.605155"><ele>43.0</ele><time>2026-04-12T06:50:44.635Z</time></trkpt><trkpt lat="41.184825" lon="16.604805"><ele>44.0</ele><time>2026-04-12T06:50:45.634Z</time></trkpt><trkpt lat="41.1847367" lon="16.6044467"><ele>44.0</ele><time>2026-04-12T06:50:46.634Z</time></trkpt><trkpt lat="41.1846517" lon="16.604085"><ele>44.0</ele><time>2026-04-12T06:50:47.634Z</time></trkpt><trkpt lat="41.1845783" lon="16.603725"><ele>44.5</ele><time>2026-04-12T06:50:48.636Z</time></trkpt><trkpt lat="41.184515" lon="16.6033783"><ele>45.0</ele><time>2026-04-12T06:50:49.636Z</time></trkpt><trkpt lat="41.1844633" lon="16.6030333"><ele>46.0</ele><time>2026-04-12T06:50:50.634Z</time></trkpt><trkpt lat="41.1844167" lon="16.6026883"><ele>47.0</ele><time>2026-04-12T06:50:51.633Z</time></trkpt><trkpt lat="41.1843817" lon="16.602335"><ele>47.5</ele><time>2026-04-12T06:50:52.634Z</time></trkpt><trkpt lat="41.1843583" lon="16.601975"><ele>48.0</ele><time>2026-04-12T06:50:53.633Z</time></trkpt><trkpt lat="41.1843433" lon="16.60161"><ele>48.0</ele><time>2026-04-12T06:50:54.633Z</time></trkpt><trkpt lat="41.184335" lon="16.60124"><ele>48.0</ele><time>2026-04-12T06:50:55.634Z</time></trkpt><trkpt lat="41.184325" lon="16.60087"><ele>48.0</ele><time>2026-04-12T06:50:56.635Z</time></trkpt><trkpt lat="41.1843283" lon="16.6004933"><ele>48.0</ele><time>2026-04-12T06:50:57.633Z</time></trkpt><trkpt lat="41.1843433" lon="16.6001167"><ele>48.0</ele><time>2026-04-12T06:50:58.635Z</time></trkpt><trkpt lat="41.1843683" lon="16.5997417"><ele>48.0</ele><time>2026-04-12T06:50:59.634Z</time></trkpt><trkpt lat="41.1844083" lon="16.5993633"><ele>48.5</ele><time>2026-04-12T06:51:00.633Z</time></trkpt><trkpt lat="41.1844517" lon="16.5989833"><ele>49.0</ele><time>2026-04-12T06:51:01.633Z</time></trkpt><trkpt lat="41.1844933" lon="16.5986017"><ele>49.0</ele><time>2026-04-12T06:51:02.642Z</time></trkpt><trkpt lat="41.184535" lon="16.5982183"><ele>49.0</ele><time>2026-04-12T06:51:03.634Z</time></trkpt><trkpt lat="41.184575" lon="16.5978317"><ele>49.0</ele><time>2026-04-12T06:51:04.634Z</time></trkpt><trkpt lat="41.184615" lon="16.5974533"><ele>49.0</ele><time>2026-04-12T06:51:05.636Z</time></trkpt><trkpt lat="41.184655" lon="16.59709"><ele>49.0</ele><time>2026-04-12T06:51:06.634Z</time></trkpt><trkpt lat="41.1846933" lon="16.5967283"><ele>49.0</ele><time>2026-04-12T06:51:07.633Z</time></trkpt><trkpt lat="41.1847333" lon="16.5963667"><ele>49.0</ele><time>2026-04-12T06:51:08.636Z</time></trkpt><trkpt lat="41.18477" lon="16.596"><ele>49.0</ele><time>2026-04-12T06:51:09.635Z</time></trkpt><trkpt lat="41.184805" lon="16.59563"><ele>49.0</ele><time>2026-04-12T06:51:10.636Z</time></trkpt><trkpt lat="41.18484" lon="16.5952567"><ele>49.0</ele><time>2026-04-12T06:51:11.635Z</time></trkpt><trkpt lat="41.1848767" lon="16.5948833"><ele>49.0</ele><time>2026-04-12T06:51:12.634Z</time></trkpt><trkpt lat="41.1849167" lon="16.59451"><ele>49.0</ele><time>2026-04-12T06:51:13.635Z</time></trkpt><trkpt lat="41.1849617" lon="16.5941367"><ele>49.0</ele><time>2026-04-12T06:51:14.635Z</time></trkpt><trkpt lat="41.1850067" lon="16.5937583"><ele>49.0</ele><time>2026-04-12T06:51:15.634Z</time></trkpt><trkpt lat="41.185055" lon="16.59338"><ele>47.5</ele><time>2026-04-12T06:51:16.635Z</time></trkpt><trkpt lat="41.185105" lon="16.5930033"><ele>46.0</ele><time>2026-04-12T06:51:17.637Z</time></trkpt><trkpt lat="41.1851533" lon="16.5926267"><ele>45.5</ele><time>2026-04-12T06:51:18.635Z</time></trkpt><trkpt lat="41.1852" lon="16.5922567"><ele>45.0</ele><time>2026-04-12T06:51:19.634Z</time></trkpt><trkpt lat="41.185245" lon="16.5918867"><ele>46.5</ele><time>2026-04-12T06:51:20.636Z</time></trkpt><trkpt lat="41.18529" lon="16.5915217"><ele>48.0</ele><time>2026-04-12T06:51:21.635Z</time></trkpt><trkpt lat="41.185335" lon="16.5911617"><ele>48.5</ele><time>2026-04-12T06:51:22.634Z</time></trkpt><trkpt lat="41.1853783" lon="16.590815"><ele>49.0</ele><time>2026-04-12T06:51:23.635Z</time></trkpt><trkpt lat="41.1854267" lon="16.5904883"><ele>49.0</ele><time>2026-04-12T06:51:24.633Z</time></trkpt><trkpt lat="41.1854817" lon="16.5901717"><ele>49.0</ele><time>2026-04-12T06:51:25.634Z</time></trkpt><trkpt lat="41.1855467" lon="16.5898567"><ele>49.0</ele><time>2026-04-12T06:51:26.634Z</time></trkpt><trkpt lat="41.1856183" lon="16.5895417"><ele>49.0</ele><time>2026-04-12T06:51:27.636Z</time></trkpt><trkpt lat="41.185695" lon="16.5892267"><ele>48.5</ele><time>2026-04-12T06:51:28.634Z</time></trkpt><trkpt lat="41.1857783" lon="16.588915"><ele>48.0</ele><time>2026-04-12T06:51:29.634Z</time></trkpt><trkpt lat="41.18587" lon="16.5886083"><ele>48.0</ele><time>2026-04-12T06:51:30.634Z</time></trkpt><trkpt lat="41.1859717" lon="16.5883"><ele>48.0</ele><time>2026-04-12T06:51:31.634Z</time></trkpt><trkpt lat="41.18608" lon="16.5880017"><ele>48.0</ele><time>2026-04-12T06:51:32.634Z</time></trkpt><trkpt lat="41.1861917" lon="16.58771"><ele>48.0</ele><time>2026-04-12T06:51:33.633Z</time></trkpt><trkpt lat="41.1863067" lon="16.5874283"><ele>48.0</ele><time>2026-04-12T06:51:34.635Z</time></trkpt><trkpt lat="41.18655" lon="16.586865"><ele>48.0</ele><time>2026-04-12T06:51:36.633Z</time></trkpt><trkpt lat="41.186685" lon="16.5865767"><ele>48.0</ele><time>2026-04-12T06:51:37.635Z</time></trkpt><trkpt lat="41.1868267" lon="16.5862917"><ele>47.5</ele><time>2026-04-12T06:51:38.636Z</time></trkpt><trkpt lat="41.1869817" lon="16.5860233"><ele>47.0</ele><time>2026-04-12T06:51:39.635Z</time></trkpt><trkpt lat="41.1871433" lon="16.58576"><ele>47.0</ele><time>2026-04-12T06:51:40.634Z</time></trkpt><trkpt lat="41.18732" lon="16.5855017"><ele>47.0</ele><time>2026-04-12T06:51:41.634Z</time></trkpt><trkpt lat="41.1875067" lon="16.58524"><ele>47.5</ele><time>2026-04-12T06:51:42.634Z</time></trkpt><trkpt lat="41.1877033" lon="16.5849817"><ele>48.0</ele><time>2026-04-12T06:51:43.634Z</time></trkpt><trkpt lat="41.1879083" lon="16.584725"><ele>46.0</ele><time>2026-04-12T06:51:44.634Z</time></trkpt><trkpt lat="41.18812" lon="16.5844783"><ele>44.0</ele><time>2026-04-12T06:51:45.634Z</time></trkpt><trkpt lat="41.1883467" lon="16.5842383"><ele>42.0</ele><time>2026-04-12T06:51:46.633Z</time></trkpt><trkpt lat="41.18858" lon="16.5840017"><ele>40.0</ele><time>2026-04-12T06:51:47.634Z</time></trkpt><trkpt lat="41.1888183" lon="16.5837717"><ele>37.5</ele><time>2026-04-12T06:51:48.634Z</time></trkpt><trkpt lat="41.1890583" lon="16.583555"><ele>35.0</ele><time>2026-04-12T06:51:49.634Z</time></trkpt><trkpt lat="41.1893017" lon="16.5833533"><ele>35.0</ele><time>2026-04-12T06:51:50.635Z</time></trkpt><trkpt lat="41.1895467" lon="16.5831633"><ele>35.0</ele><time>2026-04-12T06:51:51.634Z</time></trkpt><trkpt lat="41.189795" lon="16.58298"><ele>36.5</ele><time>2026-04-12T06:51:52.636Z</time></trkpt><trkpt lat="41.1900567" lon="16.5828"><ele>38.0</ele><time>2026-04-12T06:51:53.634Z</time></trkpt><trkpt lat="41.1903117" lon="16.582645"><ele>38.0</ele><time>2026-04-12T06:51:54.635Z</time></trkpt><trkpt lat="41.1905617" lon="16.5824933"><ele>38.0</ele><time>2026-04-12T06:51:55.634Z</time></trkpt><trkpt lat="41.1908167" lon="16.58235"><ele>39.5</ele><time>2026-04-12T06:51:56.639Z</time></trkpt><trkpt lat="41.1910717" lon="16.58222"><ele>41.0</ele><time>2026-04-12T06:51:57.634Z</time></trkpt><trkpt lat="41.1913283" lon="16.5821017"><ele>41.0</ele><time>2026-04-12T06:51:58.64Z</time></trkpt><trkpt lat="41.1915983" lon="16.5819967"><ele>41.0</ele><time>2026-04-12T06:51:59.634Z</time></trkpt><trkpt lat="41.191865" lon="16.581895"><ele>41.0</ele><time>2026-04-12T06:52:00.634Z</time></trkpt><trkpt lat="41.1921167" lon="16.5817933"><ele>41.0</ele><time>2026-04-12T06:52:01.634Z</time></trkpt><trkpt lat="41.1923683" lon="16.5816983"><ele>39.0</ele><time>2026-04-12T06:52:02.635Z</time></trkpt><trkpt lat="41.19262" lon="16.5816083"><ele>37.0</ele><time>2026-04-12T06:52:03.633Z</time></trkpt><trkpt lat="41.1928733" lon="16.5815183"><ele>37.0</ele><time>2026-04-12T06:52:04.633Z</time></trkpt><trkpt lat="41.19313" lon="16.5814283"><ele>37.0</ele><time>2026-04-12T06:52:05.634Z</time></trkpt><trkpt lat="41.1933883" lon="16.5813317"><ele>36.5</ele><time>2026-04-12T06:52:06.639Z</time></trkpt><trkpt lat="41.1936483" lon="16.5812317"><ele>36.0</ele><time>2026-04-12T06:52:07.634Z</time></trkpt><trkpt lat="41.1939117" lon="16.581125"><ele>34.0</ele><time>2026-04-12T06:52:08.634Z</time></trkpt><trkpt lat="41.1941767" lon="16.58101"><ele>32.0</ele><time>2026-04-12T06:52:09.634Z</time></trkpt><trkpt lat="41.19444" lon="16.5808833"><ele>32.0</ele><time>2026-04-12T06:52:10.634Z</time></trkpt><trkpt lat="41.1947" lon="16.5807533"><ele>32.0</ele><time>2026-04-12T06:52:11.634Z</time></trkpt><trkpt lat="41.1949517" lon="16.58062"><ele>32.0</ele><time>2026-04-12T06:52:12.633Z</time></trkpt><trkpt lat="41.1952" lon="16.5804817"><ele>32.0</ele><time>2026-04-12T06:52:13.637Z</time></trkpt><trkpt lat="41.1954433" lon="16.5803333"><ele>31.5</ele><time>2026-04-12T06:52:14.634Z</time></trkpt><trkpt lat="41.195685" lon="16.5801867"><ele>31.0</ele><time>2026-04-12T06:52:15.634Z</time></trkpt><trkpt lat="41.195925" lon="16.5800217"><ele>31.0</ele><time>2026-04-12T06:52:16.639Z</time></trkpt><trkpt lat="41.196165" lon="16.579845"><ele>31.0</ele><time>2026-04-12T06:52:17.635Z</time></trkpt><trkpt lat="41.1964017" lon="16.579665"><ele>29.5</ele><time>2026-04-12T06:52:18.634Z</time></trkpt><trkpt lat="41.19663" lon="16.5794833"><ele>28.0</ele><time>2026-04-12T06:52:19.634Z</time></trkpt><trkpt lat="41.19685" lon="16.5792983"><ele>28.0</ele><time>2026-04-12T06:52:20.636Z</time></trkpt><trkpt lat="41.1970683" lon="16.57911"><ele>28.0</ele><time>2026-04-12T06:52:21.635Z</time></trkpt><trkpt lat="41.1972867" lon="16.5789133"><ele>27.5</ele><time>2026-04-12T06:52:22.633Z</time></trkpt><trkpt lat="41.197505" lon="16.5787067"><ele>27.0</ele><time>2026-04-12T06:52:23.635Z</time></trkpt><trkpt lat="41.1977167" lon="16.5785"><ele>27.0</ele><time>2026-04-12T06:52:24.634Z</time></trkpt><trkpt lat="41.1979167" lon="16.5783033"><ele>27.0</ele><time>2026-04-12T06:52:25.639Z</time></trkpt><trkpt lat="41.1981083" lon="16.57812"><ele>26.666666666666664</ele><time>2026-04-12T06:52:26.634Z</time></trkpt><trkpt lat="41.198295" lon="16.5779433"><ele>26.333333333333332</ele><time>2026-04-12T06:52:27.635Z</time></trkpt><trkpt lat="41.1984733" lon="16.5777833"><ele>26.0</ele><time>2026-04-12T06:52:28.635Z</time></trkpt><trkpt lat="41.1986367" lon="16.5776367"><ele>26.0</ele><time>2026-04-12T06:52:29.636Z</time></trkpt><trkpt lat="41.19878" lon="16.5775033"><ele>26.0</ele><time>2026-04-12T06:52:30.635Z</time></trkpt><trkpt lat="41.1989" lon="16.5773867"><ele>26.0</ele><time>2026-04-12T06:52:31.635Z</time></trkpt><trkpt lat="41.1990133" lon="16.5772767"><ele>26.166666666666664</ele><time>2026-04-12T06:52:32.636Z</time></trkpt><trkpt lat="41.1991083" lon="16.5771933"><ele>26.333333333333332</ele><time>2026-04-12T06:52:33.634Z</time></trkpt><trkpt lat="41.1991883" lon="16.57714"><ele>26.5</ele><time>2026-04-12T06:52:34.643Z</time></trkpt><trkpt lat="41.199265" lon="16.5771183"><ele>26.666666666666664</ele><time>2026-04-12T06:52:35.634Z</time></trkpt><trkpt lat="41.1993267" lon="16.5771383"><ele>26.833333333333332</ele><time>2026-04-12T06:52:36.634Z</time></trkpt><trkpt lat="41.1993883" lon="16.5771883"><ele>27.0</ele><time>2026-04-12T06:52:37.636Z</time></trkpt><trkpt lat="41.1994417" lon="16.5772717"><ele>27.0</ele><time>2026-04-12T06:52:38.635Z</time></trkpt><trkpt lat="41.1994783" lon="16.57736"><ele>27.0</ele><time>2026-04-12T06:52:39.635Z</time></trkpt><trkpt lat="41.19948" lon="16.5774683"><ele>27.0</ele><time>2026-04-12T06:52:40.64Z</time></trkpt><trkpt lat="41.1994467" lon="16.5775733"><ele>27.0</ele><time>2026-04-12T06:52:41.635Z</time></trkpt><trkpt lat="41.1993967" lon="16.5776483"><ele>27.0</ele><time>2026-04-12T06:52:42.634Z</time></trkpt><trkpt lat="41.1993317" lon="16.5776967"><ele>27.0</ele><time>2026-04-12T06:52:43.634Z</time></trkpt><trkpt lat="41.199245" lon="16.57773"><ele>27.0</ele><time>2026-04-12T06:52:44.635Z</time></trkpt><trkpt lat="41.1991417" lon="16.5777583"><ele>27.0</ele><time>2026-04-12T06:52:45.636Z</time></trkpt><trkpt lat="41.1990217" lon="16.5777933"><ele>27.0</ele><time>2026-04-12T06:52:46.635Z</time></trkpt><trkpt lat="41.19889" lon="16.577825"><ele>27.0</ele><time>2026-04-12T06:52:47.637Z</time></trkpt><trkpt lat="41.19875" lon="16.5778567"><ele>26.75</ele><time>2026-04-12T06:52:48.634Z</time></trkpt><trkpt lat="41.1986083" lon="16.5779133"><ele>26.5</ele><time>2026-04-12T06:52:49.639Z</time></trkpt><trkpt lat="41.1984733" lon="16.5779867"><ele>26.25</ele><time>2026-04-12T06:52:50.636Z</time></trkpt><trkpt lat="41.1983383" lon="16.578075"><ele>26.0</ele><time>2026-04-12T06:52:51.636Z</time></trkpt><trkpt lat="41.198205" lon="16.5781883"><ele>26.333333333333332</ele><time>2026-04-12T06:52:52.636Z</time></trkpt><trkpt lat="41.1980733" lon="16.5783183"><ele>26.666666666666664</ele><time>2026-04-12T06:52:53.637Z</time></trkpt><trkpt lat="41.197935" lon="16.5784583"><ele>27.0</ele><time>2026-04-12T06:52:54.636Z</time></trkpt><trkpt lat="41.197785" lon="16.57861"><ele>26.666666666666664</ele><time>2026-04-12T06:52:55.635Z</time></trkpt><trkpt lat="41.1976233" lon="16.5787617"><ele>26.333333333333332</ele><time>2026-04-12T06:52:56.635Z</time></trkpt><trkpt lat="41.1974583" lon="16.5789083"><ele>26.0</ele><time>2026-04-12T06:52:57.635Z</time></trkpt><trkpt lat="41.1972983" lon="16.5790533"><ele>26.666666666666664</ele><time>2026-04-12T06:52:58.634Z</time></trkpt><trkpt lat="41.1971383" lon="16.5791967"><ele>27.333333333333336</ele><time>2026-04-12T06:52:59.637Z</time></trkpt><trkpt lat="41.1969883" lon="16.5793317"><ele>28.0</ele><time>2026-04-12T06:53:00.634Z</time></trkpt><trkpt lat="41.1968533" lon="16.5794433"><ele>28.25</ele><time>2026-04-12T06:53:01.635Z</time></trkpt><trkpt lat="41.1967317" lon="16.5795383"><ele>28.5</ele><time>2026-04-12T06:53:02.636Z</time></trkpt><trkpt lat="41.19662" lon="16.5796233"><ele>28.75</ele><time>2026-04-12T06:53:03.634Z</time></trkpt><trkpt lat="41.1965117" lon="16.5797067"><ele>29.0</ele><time>2026-04-12T06:53:04.635Z</time></trkpt><trkpt lat="41.1963983" lon="16.5798033"><ele>29.666666666666664</ele><time>2026-04-12T06:53:05.637Z</time></trkpt><trkpt lat="41.1962683" lon="16.57991"><ele>30.333333333333336</ele><time>2026-04-12T06:53:06.635Z</time></trkpt><trkpt lat="41.196125" lon="16.580015"><ele>31.0</ele><time>2026-04-12T06:53:07.636Z</time></trkpt><trkpt lat="41.1959733" lon="16.5801167"><ele>31.0</ele><time>2026-04-12T06:53:08.636Z</time></trkpt><trkpt lat="41.1958267" lon="16.5802117"><ele>31.0</ele><time>2026-04-12T06:53:09.636Z</time></trkpt><trkpt lat="41.19569" lon="16.580295"><ele>31.0</ele><time>2026-04-12T06:53:10.635Z</time></trkpt><trkpt lat="41.19556" lon="16.58038"><ele>30.75</ele><time>2026-04-12T06:53:11.634Z</time></trkpt><trkpt lat="41.1954367" lon="16.5804483"><ele>30.5</ele><time>2026-04-12T06:53:12.635Z</time></trkpt><trkpt lat="41.1953233" lon="16.58051"><ele>30.25</ele><time>2026-04-12T06:53:13.635Z</time></trkpt><trkpt lat="41.1952233" lon="16.5805617"><ele>30.0</ele><time>2026-04-12T06:53:14.636Z</time></trkpt><trkpt lat="41.1951433" lon="16.58061"><ele>30.0</ele><time>2026-04-12T06:53:15.635Z</time></trkpt><trkpt lat="41.1950817" lon="16.58066"><ele>30.0</ele><time>2026-04-12T06:53:16.634Z</time></trkpt><trkpt lat="41.1950233" lon="16.5807733"><ele>30.0</ele><time>2026-04-12T06:53:18.636Z</time></trkpt><trkpt lat="41.195045" lon="16.5809"><ele>30.0</ele><time>2026-04-12T06:53:20.635Z</time></trkpt><trkpt lat="41.195085" lon="16.5809683"><ele>30.0</ele><time>2026-04-12T06:53:21.635Z</time></trkpt><trkpt lat="41.1951383" lon="16.5810367"><ele>30.0</ele><time>2026-04-12T06:53:22.635Z</time></trkpt><trkpt lat="41.19521" lon="16.5811117"><ele>30.0</ele><time>2026-04-12T06:53:23.637Z</time></trkpt><trkpt lat="41.1952867" lon="16.5811833"><ele>30.0</ele><time>2026-04-12T06:53:24.636Z</time></trkpt><trkpt lat="41.19536" lon="16.58125"><ele>30.0</ele><time>2026-04-12T06:53:25.635Z</time></trkpt><trkpt lat="41.19544" lon="16.5813233"><ele>30.0</ele><time>2026-04-12T06:53:26.635Z</time></trkpt><trkpt lat="41.1955283" lon="16.5814083"><ele>30.0</ele><time>2026-04-12T06:53:27.634Z</time></trkpt><trkpt lat="41.1956283" lon="16.581505"><ele>29.5</ele><time>2026-04-12T06:53:28.635Z</time></trkpt><trkpt lat="41.1957433" lon="16.5816083"><ele>29.0</ele><time>2026-04-12T06:53:29.635Z</time></trkpt><trkpt lat="41.1958567" lon="16.5817083"><ele>28.5</ele><time>2026-04-12T06:53:30.636Z</time></trkpt><trkpt lat="41.1959567" lon="16.581795"><ele>28.0</ele><time>2026-04-12T06:53:31.634Z</time></trkpt><trkpt lat="41.1960367" lon="16.581865"><ele>28.0</ele><time>2026-04-12T06:53:32.636Z</time></trkpt><trkpt lat="41.1961017" lon="16.5819167"><ele>27.999999999999996</ele><time>2026-04-12T06:53:33.635Z</time></trkpt><trkpt lat="41.1961933" lon="16.5819733"><ele>27.999999999999996</ele><time>2026-04-12T06:53:35.635Z</time></trkpt><trkpt lat="41.1962733" lon="16.581955"><ele>28.0</ele><time>2026-04-12T06:53:37.635Z</time></trkpt><trkpt lat="41.1963283" lon="16.5818617"><ele>28.0</ele><time>2026-04-12T06:53:40.634Z</time></trkpt><trkpt lat="41.1963183" lon="16.5816933"><ele>28.0</ele><time>2026-04-12T06:53:42.634Z</time></trkpt><trkpt lat="41.196295" lon="16.58158"><ele>27.999999999999996</ele><time>2026-04-12T06:53:43.635Z</time></trkpt><trkpt lat="41.1962683" lon="16.5814433"><ele>27.999999999999996</ele><time>2026-04-12T06:53:44.636Z</time></trkpt><trkpt lat="41.1962433" lon="16.581295"><ele>28.0</ele><time>2026-04-12T06:53:45.636Z</time></trkpt><trkpt lat="41.1962083" lon="16.5811367"><ele>28.0</ele><time>2026-04-12T06:53:46.634Z</time></trkpt><trkpt lat="41.1961517" lon="16.5809717"><ele>29.0</ele><time>2026-04-12T06:53:47.636Z</time></trkpt><trkpt lat="41.1960667" lon="16.580805"><ele>30.0</ele><time>2026-04-12T06:53:48.635Z</time></trkpt><trkpt lat="41.1959567" lon="16.5806433"><ele>31.0</ele><time>2026-04-12T06:53:49.635Z</time></trkpt><trkpt lat="41.1958317" lon="16.5804867"><ele>31.0</ele><time>2026-04-12T06:53:50.636Z</time></trkpt><trkpt lat="41.1956983" lon="16.58032"><ele>31.0</ele><time>2026-04-12T06:53:51.634Z</time></trkpt><trkpt lat="41.1955683" lon="16.5801517"><ele>31.0</ele><time>2026-04-12T06:53:52.635Z</time></trkpt><trkpt lat="41.195445" lon="16.5799933"><ele>31.333333333333336</ele><time>2026-04-12T06:53:53.636Z</time></trkpt><trkpt lat="41.195325" lon="16.579845"><ele>31.666666666666664</ele><time>2026-04-12T06:53:54.635Z</time></trkpt><trkpt lat="41.195205" lon="16.57971"><ele>32.0</ele><time>2026-04-12T06:53:55.635Z</time></trkpt><trkpt lat="41.1950767" lon="16.579585"><ele>31.5</ele><time>2026-04-12T06:53:56.637Z</time></trkpt><trkpt lat="41.1949233" lon="16.5794733"><ele>31.0</ele><time>2026-04-12T06:53:57.639Z</time></trkpt><trkpt lat="41.19457" lon="16.5793"><ele>32.333333333333336</ele><time>2026-04-12T06:53:59.634Z</time></trkpt><trkpt lat="41.19438" lon="16.5792"><ele>33.666666666666664</ele><time>2026-04-12T06:54:00.635Z</time></trkpt><trkpt lat="41.19419" lon="16.5790783"><ele>35.0</ele><time>2026-04-12T06:54:01.634Z</time></trkpt><trkpt lat="41.1940083" lon="16.57894"><ele>36.0</ele><time>2026-04-12T06:54:02.636Z</time></trkpt><trkpt lat="41.1938283" lon="16.578795"><ele>37.0</ele><time>2026-04-12T06:54:03.636Z</time></trkpt><trkpt lat="41.1936483" lon="16.5786333"><ele>38.0</ele><time>2026-04-12T06:54:04.634Z</time></trkpt><trkpt lat="41.1934733" lon="16.57845"><ele>39.0</ele><time>2026-04-12T06:54:05.635Z</time></trkpt><trkpt lat="41.1932933" lon="16.5782567"><ele>40.0</ele><time>2026-04-12T06:54:06.634Z</time></trkpt><trkpt lat="41.1931183" lon="16.5780633"><ele>41.0</ele><time>2026-04-12T06:54:07.634Z</time></trkpt><trkpt lat="41.1929583" lon="16.577885"><ele>42.0</ele><time>2026-04-12T06:54:08.639Z</time></trkpt><trkpt lat="41.1928083" lon="16.5777217"><ele>43.0</ele><time>2026-04-12T06:54:09.634Z</time></trkpt><trkpt lat="41.1926683" lon="16.57757"><ele>43.333333333333336</ele><time>2026-04-12T06:54:10.635Z</time></trkpt><trkpt lat="41.1925317" lon="16.5774233"><ele>43.666666666666664</ele><time>2026-04-12T06:54:11.634Z</time></trkpt><trkpt lat="41.192395" lon="16.57728"><ele>44.0</ele><time>2026-04-12T06:54:12.634Z</time></trkpt><trkpt lat="41.192265" lon="16.5771417"><ele>44.666666666666664</ele><time>2026-04-12T06:54:13.638Z</time></trkpt><trkpt lat="41.1921483" lon="16.5770033"><ele>45.333333333333336</ele><time>2026-04-12T06:54:14.634Z</time></trkpt><trkpt lat="41.19204" lon="16.5768667"><ele>46.0</ele><time>2026-04-12T06:54:15.634Z</time></trkpt><trkpt lat="41.1919417" lon="16.5767217"><ele>46.0</ele><time>2026-04-12T06:54:16.635Z</time></trkpt><trkpt lat="41.1918533" lon="16.5765683"><ele>46.0</ele><time>2026-04-12T06:54:17.634Z</time></trkpt><trkpt lat="41.191765" lon="16.5763967"><ele>46.0</ele><time>2026-04-12T06:54:18.636Z</time></trkpt><trkpt lat="41.191675" lon="16.5762133"><ele>45.66666666666667</ele><time>2026-04-12T06:54:19.636Z</time></trkpt><trkpt lat="41.1915833" lon="16.57602"><ele>45.333333333333336</ele><time>2026-04-12T06:54:20.635Z</time></trkpt><trkpt lat="41.191495" lon="16.5758367"><ele>45.0</ele><time>2026-04-12T06:54:21.635Z</time></trkpt><trkpt lat="41.191415" lon="16.575665"><ele>45.0</ele><time>2026-04-12T06:54:22.637Z</time></trkpt><trkpt lat="41.1913383" lon="16.5755017"><ele>45.0</ele><time>2026-04-12T06:54:23.638Z</time></trkpt><trkpt lat="41.1912617" lon="16.5753467"><ele>45.0</ele><time>2026-04-12T06:54:24.634Z</time></trkpt><trkpt lat="41.191185" lon="16.5751883"><ele>45.0</ele><time>2026-04-12T06:54:25.634Z</time></trkpt><trkpt lat="41.1911067" lon="16.575035"><ele>45.0</ele><time>2026-04-12T06:54:26.635Z</time></trkpt><trkpt lat="41.1910383" lon="16.574885"><ele>45.0</ele><time>2026-04-12T06:54:27.635Z</time></trkpt><trkpt lat="41.190975" lon="16.5747433"><ele>45.0</ele><time>2026-04-12T06:54:28.635Z</time></trkpt><trkpt lat="41.1909133" lon="16.5746017"><ele>45.0</ele><time>2026-04-12T06:54:29.634Z</time></trkpt><trkpt lat="41.1908533" lon="16.5744533"><ele>45.0</ele><time>2026-04-12T06:54:30.634Z</time></trkpt><trkpt lat="41.1908017" lon="16.574305"><ele>45.0</ele><time>2026-04-12T06:54:31.637Z</time></trkpt><trkpt lat="41.1907583" lon="16.5741517"><ele>45.0</ele><time>2026-04-12T06:54:32.635Z</time></trkpt><trkpt lat="41.190715" lon="16.5739983"><ele>45.0</ele><time>2026-04-12T06:54:33.636Z</time></trkpt><trkpt lat="41.1906717" lon="16.5738433"><ele>45.666666666666664</ele><time>2026-04-12T06:54:34.634Z</time></trkpt><trkpt lat="41.1906233" lon="16.57368"><ele>46.33333333333333</ele><time>2026-04-12T06:54:35.635Z</time></trkpt><trkpt lat="41.190565" lon="16.5734967"><ele>47.0</ele><time>2026-04-12T06:54:36.635Z</time></trkpt><trkpt lat="41.190495" lon="16.5732883"><ele>47.0</ele><time>2026-04-12T06:54:37.637Z</time></trkpt><trkpt lat="41.1904267" lon="16.5730667"><ele>47.0</ele><time>2026-04-12T06:54:38.635Z</time></trkpt><trkpt lat="41.1903633" lon="16.5728417"><ele>47.0</ele><time>2026-04-12T06:54:39.635Z</time></trkpt><trkpt lat="41.1902983" lon="16.57261"><ele>47.0</ele><time>2026-04-12T06:54:40.634Z</time></trkpt><trkpt lat="41.19022" lon="16.5723733"><ele>47.0</ele><time>2026-04-12T06:54:41.634Z</time></trkpt><trkpt lat="41.190135" lon="16.5721317"><ele>47.0</ele><time>2026-04-12T06:54:42.635Z</time></trkpt><trkpt lat="41.1900517" lon="16.5718733"><ele>47.5</ele><time>2026-04-12T06:54:43.636Z</time></trkpt><trkpt lat="41.1899733" lon="16.571595"><ele>48.0</ele><time>2026-04-12T06:54:44.634Z</time></trkpt><trkpt lat="41.1899017" lon="16.57131"><ele>49.33333333333333</ele><time>2026-04-12T06:54:45.634Z</time></trkpt><trkpt lat="41.18983" lon="16.5710267"><ele>50.666666666666664</ele><time>2026-04-12T06:54:46.634Z</time></trkpt><trkpt lat="41.18976" lon="16.5707517"><ele>52.0</ele><time>2026-04-12T06:54:47.636Z</time></trkpt><trkpt lat="41.1896917" lon="16.570485"><ele>52.0</ele><time>2026-04-12T06:54:48.635Z</time></trkpt><trkpt lat="41.1896267" lon="16.5702167"><ele>52.0</ele><time>2026-04-12T06:54:49.634Z</time></trkpt><trkpt lat="41.18957" lon="16.569945"><ele>52.0</ele><time>2026-04-12T06:54:50.635Z</time></trkpt><trkpt lat="41.18952" lon="16.56967"><ele>52.666666666666664</ele><time>2026-04-12T06:54:51.635Z</time></trkpt><trkpt lat="41.189475" lon="16.5694067"><ele>53.33333333333333</ele><time>2026-04-12T06:54:52.636Z</time></trkpt><trkpt lat="41.1894317" lon="16.5691617"><ele>54.0</ele><time>2026-04-12T06:54:53.634Z</time></trkpt><trkpt lat="41.1893867" lon="16.5689317"><ele>54.0</ele><time>2026-04-12T06:54:54.635Z</time></trkpt><trkpt lat="41.189335" lon="16.5687083"><ele>54.0</ele><time>2026-04-12T06:54:55.634Z</time></trkpt><trkpt lat="41.18927" lon="16.5684817"><ele>54.0</ele><time>2026-04-12T06:54:56.636Z</time></trkpt><trkpt lat="41.1890983" lon="16.5680033"><ele>54.33333333333333</ele><time>2026-04-12T06:54:58.635Z</time></trkpt><trkpt lat="41.1890067" lon="16.5677583"><ele>54.666666666666664</ele><time>2026-04-12T06:54:59.634Z</time></trkpt><trkpt lat="41.188915" lon="16.56753"><ele>55.0</ele><time>2026-04-12T06:55:00.635Z</time></trkpt><trkpt lat="41.18882" lon="16.5673233"><ele>55.0</ele><time>2026-04-12T06:55:01.636Z</time></trkpt><trkpt lat="41.1887217" lon="16.5671233"><ele>55.0</ele><time>2026-04-12T06:55:02.635Z</time></trkpt><trkpt lat="41.18861" lon="16.566925"><ele>55.0</ele><time>2026-04-12T06:55:03.634Z</time></trkpt><trkpt lat="41.1884867" lon="16.5667367"><ele>54.666666666666664</ele><time>2026-04-12T06:55:04.634Z</time></trkpt><trkpt lat="41.18835" lon="16.566545"><ele>54.33333333333333</ele><time>2026-04-12T06:55:05.634Z</time></trkpt><trkpt lat="41.18821" lon="16.5663417"><ele>54.0</ele><time>2026-04-12T06:55:06.635Z</time></trkpt><trkpt lat="41.1880733" lon="16.56612"><ele>54.66666666666667</ele><time>2026-04-12T06:55:07.635Z</time></trkpt><trkpt lat="41.18794" lon="16.5658867"><ele>55.333333333333336</ele><time>2026-04-12T06:55:08.636Z</time></trkpt><trkpt lat="41.1878083" lon="16.5656483"><ele>56.0</ele><time>2026-04-12T06:55:09.637Z</time></trkpt><trkpt lat="41.1876783" lon="16.5654"><ele>56.5</ele><time>2026-04-12T06:55:10.639Z</time></trkpt><trkpt lat="41.18755" lon="16.565145"><ele>57.0</ele><time>2026-04-12T06:55:11.634Z</time></trkpt><trkpt lat="41.187425" lon="16.5648933"><ele>56.66666666666667</ele><time>2026-04-12T06:55:12.634Z</time></trkpt><trkpt lat="41.1873033" lon="16.56465"><ele>56.333333333333336</ele><time>2026-04-12T06:55:13.635Z</time></trkpt><trkpt lat="41.18718" lon="16.56442"><ele>56.0</ele><time>2026-04-12T06:55:14.634Z</time></trkpt><trkpt lat="41.18706" lon="16.5641817"><ele>56.66666666666667</ele><time>2026-04-12T06:55:15.634Z</time></trkpt><trkpt lat="41.18694" lon="16.563935"><ele>57.33333333333333</ele><time>2026-04-12T06:55:16.634Z</time></trkpt><trkpt lat="41.186815" lon="16.563685"><ele>58.0</ele><time>2026-04-12T06:55:17.637Z</time></trkpt><trkpt lat="41.1866867" lon="16.56343"><ele>58.0</ele><time>2026-04-12T06:55:18.634Z</time></trkpt><trkpt lat="41.18655" lon="16.5631783"><ele>58.0</ele><time>2026-04-12T06:55:19.635Z</time></trkpt><trkpt lat="41.18641" lon="16.5629317"><ele>58.666666666666664</ele><time>2026-04-12T06:55:20.635Z</time></trkpt><trkpt lat="41.18627" lon="16.5626967"><ele>59.33333333333333</ele><time>2026-04-12T06:55:21.635Z</time></trkpt><trkpt lat="41.1861383" lon="16.5624817"><ele>60.0</ele><time>2026-04-12T06:55:22.634Z</time></trkpt><trkpt lat="41.1860183" lon="16.5622933"><ele>60.0</ele><time>2026-04-12T06:55:23.636Z</time></trkpt><trkpt lat="41.1859133" lon="16.5621283"><ele>60.0</ele><time>2026-04-12T06:55:24.634Z</time></trkpt><trkpt lat="41.18581" lon="16.5619867"><ele>60.0</ele><time>2026-04-12T06:55:25.641Z</time></trkpt><trkpt lat="41.1856883" lon="16.5618567"><ele>61.33333333333333</ele><time>2026-04-12T06:55:26.635Z</time></trkpt><trkpt lat="41.185545" lon="16.5617367"><ele>62.666666666666664</ele><time>2026-04-12T06:55:27.634Z</time></trkpt><trkpt lat="41.18538" lon="16.561615"><ele>64.0</ele><time>2026-04-12T06:55:28.634Z</time></trkpt><trkpt lat="41.1852067" lon="16.5614833"><ele>64.0</ele><time>2026-04-12T06:55:29.634Z</time></trkpt><trkpt lat="41.1850383" lon="16.5613533"><ele>64.0</ele><time>2026-04-12T06:55:30.639Z</time></trkpt><trkpt lat="41.1848883" lon="16.56123"><ele>64.0</ele><time>2026-04-12T06:55:31.635Z</time></trkpt><trkpt lat="41.1847567" lon="16.561115"><ele>64.5</ele><time>2026-04-12T06:55:32.635Z</time></trkpt><trkpt lat="41.1846433" lon="16.5609917"><ele>65.0</ele><time>2026-04-12T06:55:33.635Z</time></trkpt><trkpt lat="41.18455" lon="16.5608583"><ele>65.5</ele><time>2026-04-12T06:55:34.635Z</time></trkpt><trkpt lat="41.1844717" lon="16.560705"><ele>66.0</ele><time>2026-04-12T06:55:35.634Z</time></trkpt><trkpt lat="41.1843933" lon="16.56052"><ele>66.0</ele><time>2026-04-12T06:55:36.638Z</time></trkpt><trkpt lat="41.1843083" lon="16.5603117"><ele>66.0</ele><time>2026-04-12T06:55:37.635Z</time></trkpt><trkpt lat="41.1842133" lon="16.5600883"><ele>66.0</ele><time>2026-04-12T06:55:38.634Z</time></trkpt><trkpt lat="41.1841183" lon="16.559855"><ele>66.0</ele><time>2026-04-12T06:55:39.634Z</time></trkpt><trkpt lat="41.1840267" lon="16.5596133"><ele>66.0</ele><time>2026-04-12T06:55:40.634Z</time></trkpt><trkpt lat="41.1839367" lon="16.5593633"><ele>66.0</ele><time>2026-04-12T06:55:41.634Z</time></trkpt><trkpt lat="41.1838417" lon="16.55911"><ele>66.0</ele><time>2026-04-12T06:55:42.634Z</time></trkpt><trkpt lat="41.1837467" lon="16.5588483"><ele>66.0</ele><time>2026-04-12T06:55:43.634Z</time></trkpt><trkpt lat="41.1836483" lon="16.5585867"><ele>66.0</ele><time>2026-04-12T06:55:44.634Z</time></trkpt><trkpt lat="41.183545" lon="16.5583167"><ele>65.66666666666667</ele><time>2026-04-12T06:55:45.634Z</time></trkpt><trkpt lat="41.18344" lon="16.5580483"><ele>65.33333333333334</ele><time>2026-04-12T06:55:46.634Z</time></trkpt><trkpt lat="41.1833433" lon="16.5577967"><ele>65.0</ele><time>2026-04-12T06:55:47.634Z</time></trkpt><trkpt lat="41.1832517" lon="16.5575617"><ele>65.0</ele><time>2026-04-12T06:55:48.634Z</time></trkpt><trkpt lat="41.183165" lon="16.5573417"><ele>65.0</ele><time>2026-04-12T06:55:49.635Z</time></trkpt><trkpt lat="41.183085" lon="16.557135"><ele>65.0</ele><time>2026-04-12T06:55:50.636Z</time></trkpt><trkpt lat="41.183005" lon="16.55694"><ele>65.0</ele><time>2026-04-12T06:55:51.634Z</time></trkpt><trkpt lat="41.182925" lon="16.5567633"><ele>65.0</ele><time>2026-04-12T06:55:52.635Z</time></trkpt><trkpt lat="41.1828383" lon="16.5566017"><ele>65.0</ele><time>2026-04-12T06:55:53.634Z</time></trkpt><trkpt lat="41.18274" lon="16.5564533"><ele>65.0</ele><time>2026-04-12T06:55:54.634Z</time></trkpt><trkpt lat="41.1826217" lon="16.5563233"><ele>65.0</ele><time>2026-04-12T06:55:55.635Z</time></trkpt><trkpt lat="41.182485" lon="16.5562067"><ele>65.0</ele><time>2026-04-12T06:55:56.635Z</time></trkpt><trkpt lat="41.182335" lon="16.5561017"><ele>65.5</ele><time>2026-04-12T06:55:57.634Z</time></trkpt><trkpt lat="41.182015" lon="16.5559217"><ele>66.0</ele><time>2026-04-12T06:55:59.635Z</time></trkpt><trkpt lat="41.1818583" lon="16.5558333"><ele>66.0</ele><time>2026-04-12T06:56:00.634Z</time></trkpt><trkpt lat="41.1817033" lon="16.5557317"><ele>66.0</ele><time>2026-04-12T06:56:01.635Z</time></trkpt><trkpt lat="41.181555" lon="16.555615"><ele>66.0</ele><time>2026-04-12T06:56:02.634Z</time></trkpt><trkpt lat="41.18141" lon="16.5554767"><ele>67.33333333333333</ele><time>2026-04-12T06:56:03.635Z</time></trkpt><trkpt lat="41.1812667" lon="16.5553183"><ele>68.66666666666666</ele><time>2026-04-12T06:56:04.634Z</time></trkpt><trkpt lat="41.1811267" lon="16.5551367"><ele>70.0</ele><time>2026-04-12T06:56:05.634Z</time></trkpt><trkpt lat="41.180985" lon="16.5549483"><ele>70.0</ele><time>2026-04-12T06:56:06.634Z</time></trkpt><trkpt lat="41.1808317" lon="16.55475"><ele>70.0</ele><time>2026-04-12T06:56:07.634Z</time></trkpt><trkpt lat="41.180675" lon="16.554545"><ele>70.0</ele><time>2026-04-12T06:56:08.634Z</time></trkpt><trkpt lat="41.1805183" lon="16.554335"><ele>71.5</ele><time>2026-04-12T06:56:09.639Z</time></trkpt><trkpt lat="41.1803617" lon="16.5541167"><ele>73.0</ele><time>2026-04-12T06:56:10.635Z</time></trkpt><trkpt lat="41.1802083" lon="16.5538933"><ele>73.0</ele><time>2026-04-12T06:56:11.634Z</time></trkpt><trkpt lat="41.18006" lon="16.5536617"><ele>73.0</ele><time>2026-04-12T06:56:12.635Z</time></trkpt><trkpt lat="41.1799167" lon="16.5534333"><ele>73.66666666666666</ele><time>2026-04-12T06:56:13.634Z</time></trkpt><trkpt lat="41.179785" lon="16.55322"><ele>74.33333333333333</ele><time>2026-04-12T06:56:14.635Z</time></trkpt><trkpt lat="41.17966" lon="16.553015"><ele>75.0</ele><time>2026-04-12T06:56:15.634Z</time></trkpt><trkpt lat="41.1795333" lon="16.5528083"><ele>75.0</ele><time>2026-04-12T06:56:16.634Z</time></trkpt><trkpt lat="41.1794033" lon="16.552595"><ele>75.0</ele><time>2026-04-12T06:56:17.634Z</time></trkpt><trkpt lat="41.1792683" lon="16.5523717"><ele>75.0</ele><time>2026-04-12T06:56:18.634Z</time></trkpt><trkpt lat="41.1791283" lon="16.5521367"><ele>75.5</ele><time>2026-04-12T06:56:19.634Z</time></trkpt><trkpt lat="41.1789867" lon="16.5518883"><ele>76.0</ele><time>2026-04-12T06:56:20.634Z</time></trkpt><trkpt lat="41.1788433" lon="16.5516317"><ele>76.0</ele><time>2026-04-12T06:56:21.635Z</time></trkpt><trkpt lat="41.1787" lon="16.5513633"><ele>76.0</ele><time>2026-04-12T06:56:22.634Z</time></trkpt><trkpt lat="41.17856" lon="16.5510983"><ele>76.0</ele><time>2026-04-12T06:56:23.634Z</time></trkpt><trkpt lat="41.1784283" lon="16.5508483"><ele>76.0</ele><time>2026-04-12T06:56:24.634Z</time></trkpt><trkpt lat="41.1783033" lon="16.5506183"><ele>76.0</ele><time>2026-04-12T06:56:25.634Z</time></trkpt><trkpt lat="41.178185" lon="16.550405"><ele>76.66666666666666</ele><time>2026-04-12T06:56:26.635Z</time></trkpt><trkpt lat="41.1780667" lon="16.5502083"><ele>77.33333333333333</ele><time>2026-04-12T06:56:27.634Z</time></trkpt><trkpt lat="41.17794" lon="16.5500283"><ele>78.0</ele><time>2026-04-12T06:56:28.634Z</time></trkpt><trkpt lat="41.1778017" lon="16.5498567"><ele>78.0</ele><time>2026-04-12T06:56:29.635Z</time></trkpt><trkpt lat="41.1776533" lon="16.54969"><ele>78.0</ele><time>2026-04-12T06:56:30.635Z</time></trkpt><trkpt lat="41.177495" lon="16.549525"><ele>78.0</ele><time>2026-04-12T06:56:31.634Z</time></trkpt><trkpt lat="41.1773267" lon="16.5493683"><ele>78.66666666666667</ele><time>2026-04-12T06:56:32.635Z</time></trkpt><trkpt lat="41.1771567" lon="16.5492233"><ele>79.33333333333334</ele><time>2026-04-12T06:56:33.634Z</time></trkpt><trkpt lat="41.1769933" lon="16.5490933"><ele>80.0</ele><time>2026-04-12T06:56:34.636Z</time></trkpt><trkpt lat="41.1768383" lon="16.54897"><ele>80.0</ele><time>2026-04-12T06:56:35.635Z</time></trkpt><trkpt lat="41.17669" lon="16.5488467"><ele>80.0</ele><time>2026-04-12T06:56:36.634Z</time></trkpt><trkpt lat="41.1765383" lon="16.5487183"><ele>80.0</ele><time>2026-04-12T06:56:37.635Z</time></trkpt><trkpt lat="41.1763883" lon="16.5485767"><ele>81.0</ele><time>2026-04-12T06:56:38.635Z</time></trkpt><trkpt lat="41.1762417" lon="16.5484233"><ele>82.0</ele><time>2026-04-12T06:56:39.634Z</time></trkpt><trkpt lat="41.1760867" lon="16.5482733"><ele>83.0</ele><time>2026-04-12T06:56:40.634Z</time></trkpt><trkpt lat="41.1759233" lon="16.548135"><ele>83.0</ele><time>2026-04-12T06:56:41.634Z</time></trkpt><trkpt lat="41.1757433" lon="16.54801"><ele>83.0</ele><time>2026-04-12T06:56:42.652Z</time></trkpt><trkpt lat="41.1755583" lon="16.5478883"><ele>83.0</ele><time>2026-04-12T06:56:43.637Z</time></trkpt><trkpt lat="41.1753783" lon="16.5477483"><ele>84.0</ele><time>2026-04-12T06:56:44.634Z</time></trkpt><trkpt lat="41.17522" lon="16.5475883"><ele>85.0</ele><time>2026-04-12T06:56:45.635Z</time></trkpt><trkpt lat="41.175075" lon="16.5474133"><ele>86.0</ele><time>2026-04-12T06:56:46.636Z</time></trkpt><trkpt lat="41.174935" lon="16.5472183"><ele>86.0</ele><time>2026-04-12T06:56:47.634Z</time></trkpt><trkpt lat="41.1748" lon="16.547005"><ele>86.0</ele><time>2026-04-12T06:56:48.637Z</time></trkpt><trkpt lat="41.1746667" lon="16.5467817"><ele>86.0</ele><time>2026-04-12T06:56:49.637Z</time></trkpt><trkpt lat="41.1745367" lon="16.5465517"><ele>86.0</ele><time>2026-04-12T06:56:50.635Z</time></trkpt><trkpt lat="41.1744067" lon="16.54632"><ele>86.0</ele><time>2026-04-12T06:56:51.634Z</time></trkpt><trkpt lat="41.1742667" lon="16.5460933"><ele>86.0</ele><time>2026-04-12T06:56:52.636Z</time></trkpt><trkpt lat="41.1741083" lon="16.545875"><ele>87.0</ele><time>2026-04-12T06:56:53.635Z</time></trkpt><trkpt lat="41.1739467" lon="16.5456683"><ele>88.0</ele><time>2026-04-12T06:56:54.634Z</time></trkpt><trkpt lat="41.1737933" lon="16.5454783"><ele>89.0</ele><time>2026-04-12T06:56:55.634Z</time></trkpt><trkpt lat="41.1736383" lon="16.5453067"><ele>90.0</ele><time>2026-04-12T06:56:56.635Z</time></trkpt><trkpt lat="41.17347" lon="16.545155"><ele>91.0</ele><time>2026-04-12T06:56:57.633Z</time></trkpt><trkpt lat="41.173285" lon="16.54501"><ele>92.0</ele><time>2026-04-12T06:56:58.633Z</time></trkpt><trkpt lat="41.1730867" lon="16.54487"><ele>92.0</ele><time>2026-04-12T06:56:59.634Z</time></trkpt><trkpt lat="41.172875" lon="16.5447433"><ele>92.0</ele><time>2026-04-12T06:57:00.635Z</time></trkpt><trkpt lat="41.1726667" lon="16.54463"><ele>92.33333333333334</ele><time>2026-04-12T06:57:01.633Z</time></trkpt><trkpt lat="41.17247" lon="16.5445183"><ele>92.66666666666667</ele><time>2026-04-12T06:57:02.634Z</time></trkpt><trkpt lat="41.1722783" lon="16.5443917"><ele>93.0</ele><time>2026-04-12T06:57:03.635Z</time></trkpt><trkpt lat="41.1720883" lon="16.5442367"><ele>93.0</ele><time>2026-04-12T06:57:04.636Z</time></trkpt><trkpt lat="41.1719033" lon="16.5440633"><ele>93.0</ele><time>2026-04-12T06:57:05.634Z</time></trkpt><trkpt lat="41.1717267" lon="16.5438883"><ele>93.0</ele><time>2026-04-12T06:57:06.634Z</time></trkpt><trkpt lat="41.1715417" lon="16.5437317"><ele>94.0</ele><time>2026-04-12T06:57:07.634Z</time></trkpt><trkpt lat="41.1713417" lon="16.5435867"><ele>95.0</ele><time>2026-04-12T06:57:08.637Z</time></trkpt><trkpt lat="41.1711233" lon="16.5434667"><ele>95.0</ele><time>2026-04-12T06:57:09.634Z</time></trkpt><trkpt lat="41.17089" lon="16.5433583"><ele>95.0</ele><time>2026-04-12T06:57:10.634Z</time></trkpt><trkpt lat="41.1706517" lon="16.5432467"><ele>96.5</ele><time>2026-04-12T06:57:11.634Z</time></trkpt><trkpt lat="41.1704167" lon="16.543135"><ele>98.0</ele><time>2026-04-12T06:57:12.636Z</time></trkpt><trkpt lat="41.1701867" lon="16.543025"><ele>98.0</ele><time>2026-04-12T06:57:13.634Z</time></trkpt><trkpt lat="41.16996" lon="16.5429167"><ele>98.0</ele><time>2026-04-12T06:57:14.636Z</time></trkpt><trkpt lat="41.169735" lon="16.5427983"><ele>99.0</ele><time>2026-04-12T06:57:15.634Z</time></trkpt><trkpt lat="41.1695217" lon="16.54267"><ele>100.0</ele><time>2026-04-12T06:57:16.634Z</time></trkpt><trkpt lat="41.1693267" lon="16.54254"><ele>100.0</ele><time>2026-04-12T06:57:17.635Z</time></trkpt><trkpt lat="41.1691533" lon="16.5424017"><ele>100.0</ele><time>2026-04-12T06:57:18.634Z</time></trkpt><trkpt lat="41.168995" lon="16.54224"><ele>100.0</ele><time>2026-04-12T06:57:19.635Z</time></trkpt><trkpt lat="41.168845" lon="16.542055"><ele>100.66666666666667</ele><time>2026-04-12T06:57:20.634Z</time></trkpt><trkpt lat="41.1687" lon="16.5418533"><ele>101.33333333333334</ele><time>2026-04-12T06:57:21.635Z</time></trkpt><trkpt lat="41.1685483" lon="16.5416417"><ele>102.0</ele><time>2026-04-12T06:57:22.634Z</time></trkpt><trkpt lat="41.168385" lon="16.54143"><ele>102.0</ele><time>2026-04-12T06:57:23.635Z</time></trkpt><trkpt lat="41.1682167" lon="16.5412217"><ele>102.0</ele><time>2026-04-12T06:57:24.633Z</time></trkpt><trkpt lat="41.1680417" lon="16.54101"><ele>102.5</ele><time>2026-04-12T06:57:25.634Z</time></trkpt><trkpt lat="41.1678667" lon="16.5407967"><ele>103.0</ele><time>2026-04-12T06:57:26.637Z</time></trkpt><trkpt lat="41.1676867" lon="16.5405783"><ele>103.0</ele><time>2026-04-12T06:57:27.636Z</time></trkpt><trkpt lat="41.167515" lon="16.5403633"><ele>103.0</ele><time>2026-04-12T06:57:28.634Z</time></trkpt><trkpt lat="41.1673567" lon="16.5401583"><ele>103.66666666666667</ele><time>2026-04-12T06:57:29.634Z</time></trkpt><trkpt lat="41.1672133" lon="16.5399767"><ele>104.33333333333334</ele><time>2026-04-12T06:57:30.633Z</time></trkpt><trkpt lat="41.16707" lon="16.5398133"><ele>105.0</ele><time>2026-04-12T06:57:31.634Z</time></trkpt><trkpt lat="41.1669133" lon="16.5396617"><ele>105.33333333333334</ele><time>2026-04-12T06:57:32.636Z</time></trkpt><trkpt lat="41.1667517" lon="16.5395267"><ele>105.66666666666667</ele><time>2026-04-12T06:57:33.634Z</time></trkpt><trkpt lat="41.1665833" lon="16.5394"><ele>106.0</ele><time>2026-04-12T06:57:34.634Z</time></trkpt><trkpt lat="41.166405" lon="16.5392733"><ele>106.66666666666667</ele><time>2026-04-12T06:57:35.634Z</time></trkpt><trkpt lat="41.1662217" lon="16.539145"><ele>107.33333333333334</ele><time>2026-04-12T06:57:36.634Z</time></trkpt><trkpt lat="41.1660317" lon="16.53901"><ele>108.0</ele><time>2026-04-12T06:57:37.634Z</time></trkpt><trkpt lat="41.1658383" lon="16.5388733"><ele>108.5</ele><time>2026-04-12T06:57:38.639Z</time></trkpt><trkpt lat="41.1656383" lon="16.5387383"><ele>109.0</ele><time>2026-04-12T06:57:39.634Z</time></trkpt><trkpt lat="41.1654333" lon="16.5386"><ele>109.0</ele><time>2026-04-12T06:57:40.634Z</time></trkpt><trkpt lat="41.165225" lon="16.5384583"><ele>109.0</ele><time>2026-04-12T06:57:41.633Z</time></trkpt><trkpt lat="41.165015" lon="16.53831"><ele>110.0</ele><time>2026-04-12T06:57:42.634Z</time></trkpt><trkpt lat="41.164805" lon="16.5381583"><ele>111.0</ele><time>2026-04-12T06:57:43.633Z</time></trkpt><trkpt lat="41.164595" lon="16.5380017"><ele>111.0</ele><time>2026-04-12T06:57:44.636Z</time></trkpt><trkpt lat="41.1643817" lon="16.5378533"><ele>111.0</ele><time>2026-04-12T06:57:45.634Z</time></trkpt><trkpt lat="41.1641633" lon="16.53771"><ele>111.5</ele><time>2026-04-12T06:57:46.635Z</time></trkpt><trkpt lat="41.1639417" lon="16.5375667"><ele>112.0</ele><time>2026-04-12T06:57:47.635Z</time></trkpt><trkpt lat="41.16372" lon="16.53743"><ele>112.0</ele><time>2026-04-12T06:57:48.634Z</time></trkpt><trkpt lat="41.1635067" lon="16.537295"><ele>112.0</ele><time>2026-04-12T06:57:49.635Z</time></trkpt><trkpt lat="41.16331" lon="16.53717"><ele>112.66666666666667</ele><time>2026-04-12T06:57:50.638Z</time></trkpt><trkpt lat="41.1631183" lon="16.5370483"><ele>113.33333333333334</ele><time>2026-04-12T06:57:51.638Z</time></trkpt><trkpt lat="41.1629283" lon="16.53692"><ele>114.0</ele><time>2026-04-12T06:57:52.636Z</time></trkpt><trkpt lat="41.1627383" lon="16.5367817"><ele>114.0</ele><time>2026-04-12T06:57:53.635Z</time></trkpt><trkpt lat="41.1625483" lon="16.536625"><ele>114.0</ele><time>2026-04-12T06:57:54.634Z</time></trkpt><trkpt lat="41.1623583" lon="16.5364533"><ele>114.0</ele><time>2026-04-12T06:57:55.635Z</time></trkpt><trkpt lat="41.1621667" lon="16.5362733"><ele>114.0</ele><time>2026-04-12T06:57:56.636Z</time></trkpt><trkpt lat="41.16197" lon="16.5360917"><ele>115.0</ele><time>2026-04-12T06:57:57.635Z</time></trkpt><trkpt lat="41.1617717" lon="16.53591"><ele>116.0</ele><time>2026-04-12T06:57:58.634Z</time></trkpt><trkpt lat="41.1615733" lon="16.5357283"><ele>117.0</ele><time>2026-04-12T06:57:59.634Z</time></trkpt><trkpt lat="41.1613817" lon="16.5355517"><ele>118.0</ele><time>2026-04-12T06:58:00.634Z</time></trkpt><trkpt lat="41.161195" lon="16.5353867"><ele>118.0</ele><time>2026-04-12T06:58:01.636Z</time></trkpt><trkpt lat="41.1610167" lon="16.535225"><ele>118.0</ele><time>2026-04-12T06:58:02.635Z</time></trkpt><trkpt lat="41.16084" lon="16.535065"><ele>118.0</ele><time>2026-04-12T06:58:03.635Z</time></trkpt><trkpt lat="41.160665" lon="16.5349083"><ele>118.33333333333334</ele><time>2026-04-12T06:58:04.633Z</time></trkpt><trkpt lat="41.1604933" lon="16.5347467"><ele>118.66666666666666</ele><time>2026-04-12T06:58:05.634Z</time></trkpt><trkpt lat="41.1603283" lon="16.534575"><ele>119.0</ele><time>2026-04-12T06:58:06.636Z</time></trkpt><trkpt lat="41.1601667" lon="16.5343817"><ele>119.66666666666666</ele><time>2026-04-12T06:58:07.635Z</time></trkpt><trkpt lat="41.1600183" lon="16.5341617"><ele>120.33333333333334</ele><time>2026-04-12T06:58:08.634Z</time></trkpt><trkpt lat="41.1598817" lon="16.5339267"><ele>121.0</ele><time>2026-04-12T06:58:09.635Z</time></trkpt><trkpt lat="41.1597617" lon="16.5336933"><ele>121.33333333333334</ele><time>2026-04-12T06:58:10.634Z</time></trkpt><trkpt lat="41.15964" lon="16.5334717"><ele>121.66666666666666</ele><time>2026-04-12T06:58:11.634Z</time></trkpt><trkpt lat="41.1595033" lon="16.5332583"><ele>122.0</ele><time>2026-04-12T06:58:12.634Z</time></trkpt><trkpt lat="41.159345" lon="16.5330583"><ele>122.5</ele><time>2026-04-12T06:58:13.634Z</time></trkpt><trkpt lat="41.159165" lon="16.5328667"><ele>123.0</ele><time>2026-04-12T06:58:14.634Z</time></trkpt><trkpt lat="41.1589783" lon="16.5326717"><ele>124.5</ele><time>2026-04-12T06:58:15.634Z</time></trkpt><trkpt lat="41.158795" lon="16.5324717"><ele>126.0</ele><time>2026-04-12T06:58:16.636Z</time></trkpt><trkpt lat="41.1586233" lon="16.5322733"><ele>126.0</ele><time>2026-04-12T06:58:17.638Z</time></trkpt><trkpt lat="41.1584583" lon="16.5320667"><ele>126.0</ele><time>2026-04-12T06:58:18.635Z</time></trkpt><trkpt lat="41.1582983" lon="16.5318417"><ele>127.0</ele><time>2026-04-12T06:58:19.635Z</time></trkpt><trkpt lat="41.1581467" lon="16.531605"><ele>128.0</ele><time>2026-04-12T06:58:20.634Z</time></trkpt><trkpt lat="41.158" lon="16.5313567"><ele>128.0</ele><time>2026-04-12T06:58:21.635Z</time></trkpt><trkpt lat="41.1578567" lon="16.5311067"><ele>128.0</ele><time>2026-04-12T06:58:22.637Z</time></trkpt><trkpt lat="41.157715" lon="16.5308733"><ele>128.0</ele><time>2026-04-12T06:58:23.635Z</time></trkpt><trkpt lat="41.1575767" lon="16.5306567"><ele>128.0</ele><time>2026-04-12T06:58:24.635Z</time></trkpt><trkpt lat="41.15731" lon="16.5302267"><ele>128.33333333333331</ele><time>2026-04-12T06:58:26.636Z</time></trkpt><trkpt lat="41.1571683" lon="16.5300083"><ele>128.66666666666666</ele><time>2026-04-12T06:58:27.634Z</time></trkpt><trkpt lat="41.1570117" lon="16.5297917"><ele>129.0</ele><time>2026-04-12T06:58:28.634Z</time></trkpt><trkpt lat="41.1568483" lon="16.529575"><ele>129.0</ele><time>2026-04-12T06:58:29.635Z</time></trkpt><trkpt lat="41.15668" lon="16.52935"><ele>129.0</ele><time>2026-04-12T06:58:30.635Z</time></trkpt><trkpt lat="41.15651" lon="16.529115"><ele>129.0</ele><time>2026-04-12T06:58:31.634Z</time></trkpt><trkpt lat="41.1563383" lon="16.5288833"><ele>129.0</ele><time>2026-04-12T06:58:32.634Z</time></trkpt><trkpt lat="41.1561667" lon="16.5286517"><ele>129.5</ele><time>2026-04-12T06:58:33.633Z</time></trkpt><trkpt lat="41.1559983" lon="16.5284233"><ele>130.0</ele><time>2026-04-12T06:58:34.635Z</time></trkpt><trkpt lat="41.1558317" lon="16.528195"><ele>130.5</ele><time>2026-04-12T06:58:35.635Z</time></trkpt><trkpt lat="41.1556633" lon="16.5279683"><ele>131.0</ele><time>2026-04-12T06:58:36.633Z</time></trkpt><trkpt lat="41.1554967" lon="16.52774"><ele>131.0</ele><time>2026-04-12T06:58:37.634Z</time></trkpt><trkpt lat="41.1553317" lon="16.5275117"><ele>131.0</ele><time>2026-04-12T06:58:38.635Z</time></trkpt><trkpt lat="41.1551733" lon="16.527285"><ele>131.0</ele><time>2026-04-12T06:58:39.634Z</time></trkpt><trkpt lat="41.1550267" lon="16.5270733"><ele>131.0</ele><time>2026-04-12T06:58:40.635Z</time></trkpt><trkpt lat="41.15489" lon="16.5268767"><ele>131.0</ele><time>2026-04-12T06:58:41.635Z</time></trkpt><trkpt lat="41.154765" lon="16.5266833"><ele>131.66666666666666</ele><time>2026-04-12T06:58:42.633Z</time></trkpt><trkpt lat="41.1546567" lon="16.5264817"><ele>132.33333333333334</ele><time>2026-04-12T06:58:43.644Z</time></trkpt><trkpt lat="41.1545533" lon="16.5262833"><ele>133.0</ele><time>2026-04-12T06:58:44.637Z</time></trkpt><trkpt lat="41.1544333" lon="16.526095"><ele>134.0</ele><time>2026-04-12T06:58:45.634Z</time></trkpt><trkpt lat="41.1542933" lon="16.5259183"><ele>135.0</ele><time>2026-04-12T06:58:46.635Z</time></trkpt><trkpt lat="41.1541317" lon="16.5257517"><ele>136.0</ele><time>2026-04-12T06:58:47.635Z</time></trkpt><trkpt lat="41.15396" lon="16.5255883"><ele>136.0</ele><time>2026-04-12T06:58:48.635Z</time></trkpt><trkpt lat="41.1537817" lon="16.5254183"><ele>136.0</ele><time>2026-04-12T06:58:49.642Z</time></trkpt><trkpt lat="41.153605" lon="16.5252383"><ele>136.0</ele><time>2026-04-12T06:58:50.637Z</time></trkpt><trkpt lat="41.1534283" lon="16.5250617"><ele>137.0</ele><time>2026-04-12T06:58:51.634Z</time></trkpt><trkpt lat="41.1532483" lon="16.52489"><ele>138.0</ele><time>2026-04-12T06:58:52.635Z</time></trkpt><trkpt lat="41.15306" lon="16.5247267"><ele>139.0</ele><time>2026-04-12T06:58:53.635Z</time></trkpt><trkpt lat="41.152865" lon="16.5245733"><ele>141.5</ele><time>2026-04-12T06:58:54.634Z</time></trkpt><trkpt lat="41.1526667" lon="16.5244283"><ele>144.0</ele><time>2026-04-12T06:58:55.636Z</time></trkpt><trkpt lat="41.15246" lon="16.5242867"><ele>145.0</ele><time>2026-04-12T06:58:56.637Z</time></trkpt><trkpt lat="41.1522483" lon="16.524155"><ele>146.0</ele><time>2026-04-12T06:58:57.634Z</time></trkpt><trkpt lat="41.1520317" lon="16.524025"><ele>146.0</ele><time>2026-04-12T06:58:58.633Z</time></trkpt><trkpt lat="41.1518083" lon="16.5239017"><ele>146.0</ele><time>2026-04-12T06:58:59.635Z</time></trkpt><trkpt lat="41.1515833" lon="16.523775"><ele>149.0</ele><time>2026-04-12T06:59:00.633Z</time></trkpt><trkpt lat="41.151355" lon="16.5236417"><ele>152.0</ele><time>2026-04-12T06:59:01.634Z</time></trkpt><trkpt lat="41.1511267" lon="16.523505"><ele>152.0</ele><time>2026-04-12T06:59:02.636Z</time></trkpt><trkpt lat="41.150895" lon="16.5233717"><ele>152.0</ele><time>2026-04-12T06:59:03.634Z</time></trkpt><trkpt lat="41.1506633" lon="16.523235"><ele>152.5</ele><time>2026-04-12T06:59:04.635Z</time></trkpt><trkpt lat="41.1504317" lon="16.5230967"><ele>153.0</ele><time>2026-04-12T06:59:05.635Z</time></trkpt><trkpt lat="41.1502017" lon="16.5229517"><ele>154.5</ele><time>2026-04-12T06:59:06.634Z</time></trkpt><trkpt lat="41.1499767" lon="16.5227967"><ele>156.0</ele><time>2026-04-12T06:59:07.634Z</time></trkpt><trkpt lat="41.1497567" lon="16.522635"><ele>156.5</ele><time>2026-04-12T06:59:08.634Z</time></trkpt><trkpt lat="41.149535" lon="16.5224717"><ele>157.0</ele><time>2026-04-12T06:59:09.635Z</time></trkpt><trkpt lat="41.1493133" lon="16.5223067"><ele>157.0</ele><time>2026-04-12T06:59:10.633Z</time></trkpt><trkpt lat="41.14909" lon="16.5221483"><ele>157.0</ele><time>2026-04-12T06:59:11.634Z</time></trkpt><trkpt lat="41.1488633" lon="16.5219967"><ele>158.0</ele><time>2026-04-12T06:59:12.725Z</time></trkpt><trkpt lat="41.1486383" lon="16.5218567"><ele>159.0</ele><time>2026-04-12T06:59:13.637Z</time></trkpt><trkpt lat="41.148415" lon="16.52173"><ele>160.0</ele><time>2026-04-12T06:59:14.637Z</time></trkpt><trkpt lat="41.1481967" lon="16.5216133"><ele>161.0</ele><time>2026-04-12T06:59:15.633Z</time></trkpt><trkpt lat="41.14798" lon="16.5214983"><ele>161.0</ele><time>2026-04-12T06:59:16.636Z</time></trkpt><trkpt lat="41.147765" lon="16.52137"><ele>161.0</ele><time>2026-04-12T06:59:17.634Z</time></trkpt><trkpt lat="41.14755" lon="16.5212333"><ele>162.5</ele><time>2026-04-12T06:59:18.635Z</time></trkpt><trkpt lat="41.147335" lon="16.5210867"><ele>164.0</ele><time>2026-04-12T06:59:19.635Z</time></trkpt><trkpt lat="41.14712" lon="16.52093"><ele>164.0</ele><time>2026-04-12T06:59:20.634Z</time></trkpt><trkpt lat="41.146905" lon="16.5207633"><ele>164.0</ele><time>2026-04-12T06:59:21.634Z</time></trkpt><trkpt lat="41.1466917" lon="16.5205917"><ele>165.0</ele><time>2026-04-12T06:59:22.634Z</time></trkpt><trkpt lat="41.1464783" lon="16.5204183"><ele>166.0</ele><time>2026-04-12T06:59:23.638Z</time></trkpt><trkpt lat="41.1462683" lon="16.5202417"><ele>167.5</ele><time>2026-04-12T06:59:24.634Z</time></trkpt><trkpt lat="41.1460633" lon="16.5200567"><ele>169.0</ele><time>2026-04-12T06:59:25.634Z</time></trkpt><trkpt lat="41.1458633" lon="16.5198617"><ele>169.0</ele><time>2026-04-12T06:59:26.634Z</time></trkpt><trkpt lat="41.1456683" lon="16.519655"><ele>169.0</ele><time>2026-04-12T06:59:27.633Z</time></trkpt><trkpt lat="41.1454733" lon="16.5194367"><ele>171.5</ele><time>2026-04-12T06:59:28.634Z</time></trkpt><trkpt lat="41.145275" lon="16.519225"><ele>174.0</ele><time>2026-04-12T06:59:29.634Z</time></trkpt><trkpt lat="41.1450717" lon="16.5190233"><ele>175.0</ele><time>2026-04-12T06:59:30.635Z</time></trkpt><trkpt lat="41.1448767" lon="16.518845"><ele>176.0</ele><time>2026-04-12T06:59:31.634Z</time></trkpt><trkpt lat="41.144695" lon="16.5186867"><ele>176.66666666666666</ele><time>2026-04-12T06:59:32.634Z</time></trkpt><trkpt lat="41.14452" lon="16.51853"><ele>177.33333333333334</ele><time>2026-04-12T06:59:33.635Z</time></trkpt><trkpt lat="41.1443533" lon="16.518355"><ele>178.0</ele><time>2026-04-12T06:59:34.635Z</time></trkpt><trkpt lat="41.1441917" lon="16.51817"><ele>178.66666666666669</ele><time>2026-04-12T06:59:35.635Z</time></trkpt><trkpt lat="41.1440333" lon="16.5179717"><ele>179.33333333333334</ele><time>2026-04-12T06:59:36.634Z</time></trkpt><trkpt lat="41.1438733" lon="16.5177667"><ele>180.0</ele><time>2026-04-12T06:59:37.634Z</time></trkpt><trkpt lat="41.14371" lon="16.5175583"><ele>180.5</ele><time>2026-04-12T06:59:38.637Z</time></trkpt><trkpt lat="41.1435433" lon="16.5173517"><ele>181.0</ele><time>2026-04-12T06:59:39.637Z</time></trkpt><trkpt lat="41.1433667" lon="16.5171467"><ele>182.5</ele><time>2026-04-12T06:59:40.634Z</time></trkpt><trkpt lat="41.1431867" lon="16.5169533"><ele>184.0</ele><time>2026-04-12T06:59:41.634Z</time></trkpt><trkpt lat="41.1430117" lon="16.5167667"><ele>184.0</ele><time>2026-04-12T06:59:42.633Z</time></trkpt><trkpt lat="41.14284" lon="16.516565"><ele>184.0</ele><time>2026-04-12T06:59:43.633Z</time></trkpt><trkpt lat="41.1426667" lon="16.5163417"><ele>184.0</ele><time>2026-04-12T06:59:44.635Z</time></trkpt><trkpt lat="41.14249" lon="16.51611"><ele>184.0</ele><time>2026-04-12T06:59:45.636Z</time></trkpt><trkpt lat="41.1423017" lon="16.5158783"><ele>183.5</ele><time>2026-04-12T06:59:46.634Z</time></trkpt><trkpt lat="41.1421083" lon="16.5156433"><ele>183.0</ele><time>2026-04-12T06:59:47.638Z</time></trkpt><trkpt lat="41.1419133" lon="16.5154083"><ele>183.5</ele><time>2026-04-12T06:59:48.634Z</time></trkpt><trkpt lat="41.141725" lon="16.5151783"><ele>184.0</ele><time>2026-04-12T06:59:49.634Z</time></trkpt><trkpt lat="41.1415483" lon="16.5149583"><ele>184.0</ele><time>2026-04-12T06:59:50.635Z</time></trkpt><trkpt lat="41.1413783" lon="16.5147417"><ele>184.0</ele><time>2026-04-12T06:59:51.633Z</time></trkpt><trkpt lat="41.14121" lon="16.5145217"><ele>183.5</ele><time>2026-04-12T06:59:52.634Z</time></trkpt><trkpt lat="41.1410433" lon="16.5142983"><ele>183.0</ele><time>2026-04-12T06:59:53.637Z</time></trkpt><trkpt lat="41.1408767" lon="16.5140717"><ele>182.5</ele><time>2026-04-12T06:59:54.634Z</time></trkpt><trkpt lat="41.140715" lon="16.51384"><ele>182.0</ele><time>2026-04-12T06:59:55.634Z</time></trkpt><trkpt lat="41.140555" lon="16.5136083"><ele>183.5</ele><time>2026-04-12T06:59:56.634Z</time></trkpt><trkpt lat="41.1404" lon="16.513385"><ele>185.0</ele><time>2026-04-12T06:59:57.633Z</time></trkpt><trkpt lat="41.14025" lon="16.5131667"><ele>185.0</ele><time>2026-04-12T06:59:58.635Z</time></trkpt><trkpt lat="41.14011" lon="16.512945"><ele>185.0</ele><time>2026-04-12T06:59:59.634Z</time></trkpt><trkpt lat="41.139975" lon="16.5127117"><ele>185.0</ele><time>2026-04-12T07:00:00.634Z</time></trkpt><trkpt lat="41.1398433" lon="16.5124683"><ele>186.0</ele><time>2026-04-12T07:00:01.634Z</time></trkpt><trkpt lat="41.1397183" lon="16.51221"><ele>187.0</ele><time>2026-04-12T07:00:02.635Z</time></trkpt><trkpt lat="41.1395883" lon="16.5119617"><ele>188.0</ele><time>2026-04-12T07:00:03.634Z</time></trkpt><trkpt lat="41.1394667" lon="16.5117183"><ele>189.0</ele><time>2026-04-12T07:00:04.636Z</time></trkpt><trkpt lat="41.1393417" lon="16.5114817"><ele>190.0</ele><time>2026-04-12T07:00:05.634Z</time></trkpt><trkpt lat="41.1391983" lon="16.51125"><ele>190.0</ele><time>2026-04-12T07:00:06.634Z</time></trkpt><trkpt lat="41.1390533" lon="16.5110317"><ele>190.0</ele><time>2026-04-12T07:00:07.634Z</time></trkpt><trkpt lat="41.1389167" lon="16.5108233"><ele>190.0</ele><time>2026-04-12T07:00:08.637Z</time></trkpt><trkpt lat="41.1387883" lon="16.5106033"><ele>191.0</ele><time>2026-04-12T07:00:09.635Z</time></trkpt><trkpt lat="41.1386633" lon="16.5103583"><ele>192.0</ele><time>2026-04-12T07:00:10.634Z</time></trkpt><trkpt lat="41.1385433" lon="16.510095"><ele>192.0</ele><time>2026-04-12T07:00:11.634Z</time></trkpt><trkpt lat="41.13842" lon="16.50982"><ele>192.0</ele><time>2026-04-12T07:00:12.64Z</time></trkpt><trkpt lat="41.1382867" lon="16.5095383"><ele>192.5</ele><time>2026-04-12T07:00:13.635Z</time></trkpt><trkpt lat="41.1381483" lon="16.5092433"><ele>193.0</ele><time>2026-04-12T07:00:14.635Z</time></trkpt><trkpt lat="41.138005" lon="16.5089483"><ele>194.5</ele><time>2026-04-12T07:00:15.634Z</time></trkpt><trkpt lat="41.1378583" lon="16.5086517"><ele>196.0</ele><time>2026-04-12T07:00:16.634Z</time></trkpt><trkpt lat="41.1377117" lon="16.5083567"><ele>196.0</ele><time>2026-04-12T07:00:17.634Z</time></trkpt><trkpt lat="41.1375717" lon="16.5080767"><ele>196.0</ele><time>2026-04-12T07:00:18.634Z</time></trkpt><trkpt lat="41.137445" lon="16.5078167"><ele>196.66666666666666</ele><time>2026-04-12T07:00:19.635Z</time></trkpt><trkpt lat="41.1373283" lon="16.5075717"><ele>197.33333333333331</ele><time>2026-04-12T07:00:20.635Z</time></trkpt><trkpt lat="41.1372233" lon="16.5073383"><ele>198.0</ele><time>2026-04-12T07:00:21.635Z</time></trkpt><trkpt lat="41.1371183" lon="16.507115"><ele>198.0</ele><time>2026-04-12T07:00:22.634Z</time></trkpt><trkpt lat="41.137015" lon="16.5069017"><ele>198.0</ele><time>2026-04-12T07:00:23.635Z</time></trkpt><trkpt lat="41.136915" lon="16.506695"><ele>198.0</ele><time>2026-04-12T07:00:24.634Z</time></trkpt><trkpt lat="41.1368017" lon="16.5065017"><ele>198.0</ele><time>2026-04-12T07:00:25.634Z</time></trkpt><trkpt lat="41.1366633" lon="16.506315"><ele>198.0</ele><time>2026-04-12T07:00:26.635Z</time></trkpt><trkpt lat="41.1364933" lon="16.50614"><ele>198.0</ele><time>2026-04-12T07:00:27.634Z</time></trkpt><trkpt lat="41.1363033" lon="16.5059733"><ele>199.0</ele><time>2026-04-12T07:00:28.636Z</time></trkpt><trkpt lat="41.136105" lon="16.50581"><ele>200.0</ele><time>2026-04-12T07:00:29.635Z</time></trkpt><trkpt lat="41.1358983" lon="16.5056433"><ele>200.0</ele><time>2026-04-12T07:00:30.634Z</time></trkpt><trkpt lat="41.1356883" lon="16.5054783"><ele>200.0</ele><time>2026-04-12T07:00:31.634Z</time></trkpt><trkpt lat="41.1354883" lon="16.50532"><ele>199.5</ele><time>2026-04-12T07:00:32.635Z</time></trkpt><trkpt lat="41.1352917" lon="16.5051717"><ele>199.0</ele><time>2026-04-12T07:00:33.634Z</time></trkpt><trkpt lat="41.135095" lon="16.5050283"><ele>199.0</ele><time>2026-04-12T07:00:34.634Z</time></trkpt><trkpt lat="41.1348917" lon="16.504885"><ele>199.0</ele><time>2026-04-12T07:00:35.634Z</time></trkpt><trkpt lat="41.13468" lon="16.504745"><ele>198.5</ele><time>2026-04-12T07:00:36.64Z</time></trkpt><trkpt lat="41.1344633" lon="16.5046133"><ele>198.0</ele><time>2026-04-12T07:00:37.635Z</time></trkpt><trkpt lat="41.1342567" lon="16.5044883"><ele>198.0</ele><time>2026-04-12T07:00:38.634Z</time></trkpt><trkpt lat="41.1340617" lon="16.50437"><ele>198.0</ele><time>2026-04-12T07:00:39.633Z</time></trkpt><trkpt lat="41.13388" lon="16.504255"><ele>198.0</ele><time>2026-04-12T07:00:40.633Z</time></trkpt><trkpt lat="41.1337183" lon="16.5041317"><ele>198.66666666666669</ele><time>2026-04-12T07:00:41.633Z</time></trkpt><trkpt lat="41.1335717" lon="16.5039917"><ele>199.33333333333334</ele><time>2026-04-12T07:00:42.636Z</time></trkpt><trkpt lat="41.1334333" lon="16.50382"><ele>200.0</ele><time>2026-04-12T07:00:43.634Z</time></trkpt><trkpt lat="41.1332967" lon="16.5036233"><ele>200.33333333333334</ele><time>2026-04-12T07:00:44.634Z</time></trkpt><trkpt lat="41.1331533" lon="16.50342"><ele>200.66666666666669</ele><time>2026-04-12T07:00:45.635Z</time></trkpt><trkpt lat="41.1330033" lon="16.503215"><ele>201.0</ele><time>2026-04-12T07:00:46.635Z</time></trkpt><trkpt lat="41.1328483" lon="16.5030067"><ele>201.33333333333331</ele><time>2026-04-12T07:00:47.637Z</time></trkpt><trkpt lat="41.132695" lon="16.5027933"><ele>201.66666666666666</ele><time>2026-04-12T07:00:48.634Z</time></trkpt><trkpt lat="41.1325433" lon="16.50258"><ele>202.0</ele><time>2026-04-12T07:00:49.635Z</time></trkpt><trkpt lat="41.1323933" lon="16.50237"><ele>202.66666666666666</ele><time>2026-04-12T07:00:50.636Z</time></trkpt><trkpt lat="41.1322433" lon="16.5021633"><ele>203.33333333333331</ele><time>2026-04-12T07:00:51.635Z</time></trkpt><trkpt lat="41.1320917" lon="16.5019617"><ele>204.0</ele><time>2026-04-12T07:00:52.635Z</time></trkpt><trkpt lat="41.1319417" lon="16.501765"><ele>204.0</ele><time>2026-04-12T07:00:53.634Z</time></trkpt><trkpt lat="41.1317933" lon="16.5015667"><ele>204.0</ele><time>2026-04-12T07:00:54.634Z</time></trkpt><trkpt lat="41.1316467" lon="16.5013717"><ele>204.0</ele><time>2026-04-12T07:00:55.634Z</time></trkpt><trkpt lat="41.1315033" lon="16.5011833"><ele>205.0</ele><time>2026-04-12T07:00:56.634Z</time></trkpt><trkpt lat="41.1313633" lon="16.5010067"><ele>206.0</ele><time>2026-04-12T07:00:57.635Z</time></trkpt><trkpt lat="41.1312317" lon="16.5008433"><ele>207.0</ele><time>2026-04-12T07:00:58.634Z</time></trkpt><trkpt lat="41.131105" lon="16.500685"><ele>207.0</ele><time>2026-04-12T07:00:59.634Z</time></trkpt><trkpt lat="41.13098" lon="16.50053"><ele>207.0</ele><time>2026-04-12T07:01:00.634Z</time></trkpt><trkpt lat="41.1308533" lon="16.50038"><ele>207.0</ele><time>2026-04-12T07:01:01.636Z</time></trkpt><trkpt lat="41.1307267" lon="16.5002317"><ele>207.66666666666669</ele><time>2026-04-12T07:01:02.634Z</time></trkpt><trkpt lat="41.1306033" lon="16.50008"><ele>208.33333333333334</ele><time>2026-04-12T07:01:03.634Z</time></trkpt><trkpt lat="41.1304783" lon="16.499925"><ele>209.0</ele><time>2026-04-12T07:01:04.634Z</time></trkpt><trkpt lat="41.130345" lon="16.49976"><ele>209.0</ele><time>2026-04-12T07:01:05.634Z</time></trkpt><trkpt lat="41.1302083" lon="16.4995917"><ele>209.0</ele><time>2026-04-12T07:01:06.638Z</time></trkpt><trkpt lat="41.1300683" lon="16.4994133"><ele>209.0</ele><time>2026-04-12T07:01:07.635Z</time></trkpt><trkpt lat="41.12992" lon="16.49923"><ele>209.33333333333334</ele><time>2026-04-12T07:01:08.634Z</time></trkpt><trkpt lat="41.1297683" lon="16.4990433"><ele>209.66666666666669</ele><time>2026-04-12T07:01:09.633Z</time></trkpt><trkpt lat="41.1296133" lon="16.49885"><ele>210.0</ele><time>2026-04-12T07:01:10.633Z</time></trkpt><trkpt lat="41.129455" lon="16.4986517"><ele>210.0</ele><time>2026-04-12T07:01:11.634Z</time></trkpt><trkpt lat="41.1292933" lon="16.4984533"><ele>210.0</ele><time>2026-04-12T07:01:12.633Z</time></trkpt><trkpt lat="41.12913" lon="16.4982533"><ele>210.0</ele><time>2026-04-12T07:01:13.634Z</time></trkpt><trkpt lat="41.128965" lon="16.4980483"><ele>211.5</ele><time>2026-04-12T07:01:14.634Z</time></trkpt><trkpt lat="41.1288033" lon="16.49784"><ele>213.0</ele><time>2026-04-12T07:01:15.633Z</time></trkpt><trkpt lat="41.1286383" lon="16.4976283"><ele>213.0</ele><time>2026-04-12T07:01:16.635Z</time></trkpt><trkpt lat="41.1284683" lon="16.4974117"><ele>213.0</ele><time>2026-04-12T07:01:17.637Z</time></trkpt><trkpt lat="41.1282983" lon="16.4971917"><ele>213.0</ele><time>2026-04-12T07:01:18.634Z</time></trkpt><trkpt lat="41.1281267" lon="16.4969733"><ele>213.0</ele><time>2026-04-12T07:01:19.634Z</time></trkpt><trkpt lat="41.1279567" lon="16.4967567"><ele>213.0</ele><time>2026-04-12T07:01:20.635Z</time></trkpt><trkpt lat="41.1277817" lon="16.4965383"><ele>213.0</ele><time>2026-04-12T07:01:21.633Z</time></trkpt><trkpt lat="41.1276033" lon="16.49632"><ele>213.5</ele><time>2026-04-12T07:01:22.634Z</time></trkpt><trkpt lat="41.1274267" lon="16.4960967"><ele>214.0</ele><time>2026-04-12T07:01:23.634Z</time></trkpt><trkpt lat="41.1272483" lon="16.4958683"><ele>214.5</ele><time>2026-04-12T07:01:24.634Z</time></trkpt><trkpt lat="41.1270683" lon="16.49563"><ele>215.0</ele><time>2026-04-12T07:01:25.634Z</time></trkpt><trkpt lat="41.1268833" lon="16.4953883"><ele>215.5</ele><time>2026-04-12T07:01:26.635Z</time></trkpt><trkpt lat="41.126695" lon="16.4951433"><ele>216.0</ele><time>2026-04-12T07:01:27.633Z</time></trkpt><trkpt lat="41.126505" lon="16.4948983"><ele>216.5</ele><time>2026-04-12T07:01:28.634Z</time></trkpt><trkpt lat="41.1263117" lon="16.4946533"><ele>217.0</ele><time>2026-04-12T07:01:29.634Z</time></trkpt><trkpt lat="41.1261167" lon="16.4944067"><ele>218.0</ele><time>2026-04-12T07:01:30.634Z</time></trkpt><trkpt lat="41.1259217" lon="16.494155"><ele>219.0</ele><time>2026-04-12T07:01:31.636Z</time></trkpt><trkpt lat="41.125725" lon="16.4938983"><ele>220.0</ele><time>2026-04-12T07:01:32.635Z</time></trkpt><trkpt lat="41.1255283" lon="16.4936417"><ele>221.0</ele><time>2026-04-12T07:01:33.634Z</time></trkpt><trkpt lat="41.1253283" lon="16.493385"><ele>221.0</ele><time>2026-04-12T07:01:34.633Z</time></trkpt><trkpt lat="41.1251267" lon="16.4931283"><ele>221.0</ele><time>2026-04-12T07:01:35.634Z</time></trkpt><trkpt lat="41.1249283" lon="16.4928733"><ele>222.0</ele><time>2026-04-12T07:01:36.634Z</time></trkpt><trkpt lat="41.12473" lon="16.4926183"><ele>223.0</ele><time>2026-04-12T07:01:37.634Z</time></trkpt><trkpt lat="41.1245383" lon="16.49237"><ele>223.0</ele><time>2026-04-12T07:01:38.634Z</time></trkpt><trkpt lat="41.1243583" lon="16.4921367"><ele>223.0</ele><time>2026-04-12T07:01:39.633Z</time></trkpt><trkpt lat="41.1241883" lon="16.49191"><ele>225.0</ele><time>2026-04-12T07:01:40.635Z</time></trkpt><trkpt lat="41.1240233" lon="16.491685"><ele>227.0</ele><time>2026-04-12T07:01:41.633Z</time></trkpt><trkpt lat="41.123865" lon="16.4914667"><ele>227.0</ele><time>2026-04-12T07:01:42.633Z</time></trkpt><trkpt lat="41.123715" lon="16.4912633"><ele>227.0</ele><time>2026-04-12T07:01:43.634Z</time></trkpt><trkpt lat="41.123575" lon="16.4910767"><ele>227.0</ele><time>2026-04-12T07:01:44.635Z</time></trkpt><trkpt lat="41.1234433" lon="16.4909067"><ele>227.75</ele><time>2026-04-12T07:01:45.634Z</time></trkpt><trkpt lat="41.12332" lon="16.490745"><ele>228.5</ele><time>2026-04-12T07:01:46.633Z</time></trkpt><trkpt lat="41.12321" lon="16.4905983"><ele>229.25</ele><time>2026-04-12T07:01:47.634Z</time></trkpt><trkpt lat="41.1231317" lon="16.49049"><ele>230.0</ele><time>2026-04-12T07:01:48.633Z</time></trkpt><trkpt lat="41.1230867" lon="16.4904117"><ele>231.8</ele><time>2026-04-12T07:01:49.633Z</time></trkpt><trkpt lat="41.1230317" lon="16.4902717"><ele>233.6</ele><time>2026-04-12T07:01:51.634Z</time></trkpt><trkpt lat="41.1229367" lon="16.49017"><ele>235.39999999999998</ele><time>2026-04-12T07:01:53.634Z</time></trkpt><trkpt lat="41.1228817" lon="16.4901133"><ele>237.2</ele><time>2026-04-12T07:01:54.634Z</time></trkpt><trkpt lat="41.1228283" lon="16.4900433"><ele>239.0</ele><time>2026-04-12T07:01:55.635Z</time></trkpt><trkpt lat="41.1227733" lon="16.4899517"><ele>239.00000000000003</ele><time>2026-04-12T07:01:56.634Z</time></trkpt><trkpt lat="41.1227333" lon="16.489845"><ele>239.0</ele><time>2026-04-12T07:01:57.633Z</time></trkpt><trkpt lat="41.1227167" lon="16.4897333"><ele>239.0</ele><time>2026-04-12T07:01:58.633Z</time></trkpt><trkpt lat="41.1227283" lon="16.48963"><ele>239.0</ele><time>2026-04-12T07:01:59.633Z</time></trkpt><trkpt lat="41.122765" lon="16.4895233"><ele>239.00000000000003</ele><time>2026-04-12T07:02:00.633Z</time></trkpt><trkpt lat="41.1228217" lon="16.4894133"><ele>239.0</ele><time>2026-04-12T07:02:01.634Z</time></trkpt><trkpt lat="41.1228867" lon="16.48931"><ele>240.0</ele><time>2026-04-12T07:02:02.634Z</time></trkpt><trkpt lat="41.1229517" lon="16.4892183"><ele>240.99999999999997</ele><time>2026-04-12T07:02:03.633Z</time></trkpt><trkpt lat="41.12301" lon="16.4891267"><ele>241.99999999999997</ele><time>2026-04-12T07:02:04.634Z</time></trkpt><trkpt lat="41.123065" lon="16.4890317"><ele>243.0</ele><time>2026-04-12T07:02:05.634Z</time></trkpt><trkpt lat="41.123125" lon="16.4889267"><ele>244.0</ele><time>2026-04-12T07:02:06.633Z</time></trkpt><trkpt lat="41.1231867" lon="16.4888133"><ele>243.5</ele><time>2026-04-12T07:02:07.633Z</time></trkpt><trkpt lat="41.1232683" lon="16.4887"><ele>243.0</ele><time>2026-04-12T07:02:08.635Z</time></trkpt><trkpt lat="41.12335" lon="16.488585"><ele>242.5</ele><time>2026-04-12T07:02:09.636Z</time></trkpt><trkpt lat="41.1234267" lon="16.4884617"><ele>242.0</ele><time>2026-04-12T07:02:10.635Z</time></trkpt><trkpt lat="41.1235033" lon="16.4883283"><ele>242.0</ele><time>2026-04-12T07:02:11.634Z</time></trkpt><trkpt lat="41.1235933" lon="16.4881783"><ele>242.0</ele><time>2026-04-12T07:02:12.634Z</time></trkpt><trkpt lat="41.1236917" lon="16.4880167"><ele>242.0</ele><time>2026-04-12T07:02:13.633Z</time></trkpt><trkpt lat="41.1237883" lon="16.4878467"><ele>243.0</ele><time>2026-04-12T07:02:14.634Z</time></trkpt><trkpt lat="41.1238733" lon="16.4876783"><ele>244.0</ele><time>2026-04-12T07:02:15.634Z</time></trkpt><trkpt lat="41.123945" lon="16.487515"><ele>245.0</ele><time>2026-04-12T07:02:16.633Z</time></trkpt><trkpt lat="41.12401" lon="16.487345"><ele>246.0</ele><time>2026-04-12T07:02:17.633Z</time></trkpt><trkpt lat="41.1240817" lon="16.48716"><ele>245.66666666666669</ele><time>2026-04-12T07:02:18.635Z</time></trkpt><trkpt lat="41.124165" lon="16.48696"><ele>245.33333333333334</ele><time>2026-04-12T07:02:19.633Z</time></trkpt><trkpt lat="41.124255" lon="16.486755"><ele>245.0</ele><time>2026-04-12T07:02:20.635Z</time></trkpt><trkpt lat="41.1243517" lon="16.48655"><ele>245.0</ele><time>2026-04-12T07:02:21.634Z</time></trkpt><trkpt lat="41.1244383" lon="16.4863417"><ele>245.0</ele><time>2026-04-12T07:02:22.635Z</time></trkpt><trkpt lat="41.1245133" lon="16.486145"><ele>245.0</ele><time>2026-04-12T07:02:23.636Z</time></trkpt><trkpt lat="41.1245767" lon="16.4859517"><ele>246.66666666666669</ele><time>2026-04-12T07:02:24.636Z</time></trkpt><trkpt lat="41.124625" lon="16.485745"><ele>248.33333333333331</ele><time>2026-04-12T07:02:25.634Z</time></trkpt><trkpt lat="41.1246583" lon="16.48552"><ele>250.0</ele><time>2026-04-12T07:02:26.635Z</time></trkpt><trkpt lat="41.1246833" lon="16.4852783"><ele>250.33333333333331</ele><time>2026-04-12T07:02:27.635Z</time></trkpt><trkpt lat="41.1247017" lon="16.48504"><ele>250.66666666666669</ele><time>2026-04-12T07:02:28.635Z</time></trkpt><trkpt lat="41.1247233" lon="16.4848083"><ele>251.0</ele><time>2026-04-12T07:02:29.637Z</time></trkpt><trkpt lat="41.1247367" lon="16.484575"><ele>251.0</ele><time>2026-04-12T07:02:30.634Z</time></trkpt><trkpt lat="41.1247417" lon="16.484345"><ele>251.0</ele><time>2026-04-12T07:02:31.635Z</time></trkpt><trkpt lat="41.1247433" lon="16.484125"><ele>251.0</ele><time>2026-04-12T07:02:32.635Z</time></trkpt><trkpt lat="41.1247467" lon="16.4839233"><ele>251.0</ele><time>2026-04-12T07:02:33.634Z</time></trkpt><trkpt lat="41.1247533" lon="16.4837367"><ele>251.0</ele><time>2026-04-12T07:02:34.635Z</time></trkpt><trkpt lat="41.1247617" lon="16.4835517"><ele>251.0</ele><time>2026-04-12T07:02:35.634Z</time></trkpt><trkpt lat="41.1247733" lon="16.4833567"><ele>251.0</ele><time>2026-04-12T07:02:36.635Z</time></trkpt><trkpt lat="41.1247817" lon="16.4831617"><ele>251.0</ele><time>2026-04-12T07:02:37.635Z</time></trkpt><trkpt lat="41.12479" lon="16.4829833"><ele>251.0</ele><time>2026-04-12T07:02:38.638Z</time></trkpt><trkpt lat="41.1248017" lon="16.482825"><ele>251.0</ele><time>2026-04-12T07:02:39.635Z</time></trkpt><trkpt lat="41.1248183" lon="16.4826833"><ele>251.0</ele><time>2026-04-12T07:02:40.635Z</time></trkpt><trkpt lat="41.1248367" lon="16.482535"><ele>251.25</ele><time>2026-04-12T07:02:41.635Z</time></trkpt><trkpt lat="41.124855" lon="16.482375"><ele>251.5</ele><time>2026-04-12T07:02:42.635Z</time></trkpt><trkpt lat="41.1248733" lon="16.482205"><ele>251.75</ele><time>2026-04-12T07:02:43.636Z</time></trkpt><trkpt lat="41.124885" lon="16.4820233"><ele>252.0</ele><time>2026-04-12T07:02:44.637Z</time></trkpt><trkpt lat="41.12489" lon="16.4818283"><ele>252.33333333333331</ele><time>2026-04-12T07:02:45.636Z</time></trkpt><trkpt lat="41.1248933" lon="16.48163"><ele>252.66666666666666</ele><time>2026-04-12T07:02:46.635Z</time></trkpt><trkpt lat="41.1248783" lon="16.4814317"><ele>253.0</ele><time>2026-04-12T07:02:47.635Z</time></trkpt><trkpt lat="41.12484" lon="16.481225"><ele>253.0</ele><time>2026-04-12T07:02:48.634Z</time></trkpt><trkpt lat="41.124785" lon="16.48101"><ele>253.0</ele><time>2026-04-12T07:02:49.636Z</time></trkpt><trkpt lat="41.12471" lon="16.480795"><ele>253.0</ele><time>2026-04-12T07:02:50.636Z</time></trkpt><trkpt lat="41.1246283" lon="16.4805967"><ele>252.5</ele><time>2026-04-12T07:02:51.636Z</time></trkpt><trkpt lat="41.1245483" lon="16.48042"><ele>252.0</ele><time>2026-04-12T07:02:52.634Z</time></trkpt><trkpt lat="41.12447" lon="16.4802617"><ele>251.5</ele><time>2026-04-12T07:02:53.636Z</time></trkpt><trkpt lat="41.1243967" lon="16.48012"><ele>251.0</ele><time>2026-04-12T07:02:54.634Z</time></trkpt><trkpt lat="41.12432" lon="16.4799833"><ele>251.0</ele><time>2026-04-12T07:02:55.634Z</time></trkpt><trkpt lat="41.1241783" lon="16.479725"><ele>251.0</ele><time>2026-04-12T07:02:57.635Z</time></trkpt><trkpt lat="41.1241167" lon="16.4795933"><ele>251.0</ele><time>2026-04-12T07:02:58.635Z</time></trkpt><trkpt lat="41.1240483" lon="16.47945"><ele>251.0</ele><time>2026-04-12T07:02:59.635Z</time></trkpt><trkpt lat="41.1239717" lon="16.4792983"><ele>251.0</ele><time>2026-04-12T07:03:00.634Z</time></trkpt><trkpt lat="41.1238867" lon="16.47914"><ele>251.0</ele><time>2026-04-12T07:03:01.635Z</time></trkpt><trkpt lat="41.123805" lon="16.478985"><ele>251.0</ele><time>2026-04-12T07:03:02.634Z</time></trkpt><trkpt lat="41.1237333" lon="16.4788367"><ele>251.0</ele><time>2026-04-12T07:03:03.639Z</time></trkpt><trkpt lat="41.123665" lon="16.4786933"><ele>251.0</ele><time>2026-04-12T07:03:04.635Z</time></trkpt><trkpt lat="41.1235967" lon="16.478555"><ele>251.0</ele><time>2026-04-12T07:03:05.637Z</time></trkpt><trkpt lat="41.1235283" lon="16.4784133"><ele>251.0</ele><time>2026-04-12T07:03:06.636Z</time></trkpt><trkpt lat="41.1234583" lon="16.47827"><ele>251.0</ele><time>2026-04-12T07:03:07.636Z</time></trkpt><trkpt lat="41.12339" lon="16.4781383"><ele>251.0</ele><time>2026-04-12T07:03:08.635Z</time></trkpt><trkpt lat="41.1233267" lon="16.478015"><ele>251.0</ele><time>2026-04-12T07:03:09.634Z</time></trkpt><trkpt lat="41.1232633" lon="16.4778967"><ele>251.0</ele><time>2026-04-12T07:03:10.635Z</time></trkpt><trkpt lat="41.1232033" lon="16.47777"><ele>251.4</ele><time>2026-04-12T07:03:11.634Z</time></trkpt><trkpt lat="41.1231367" lon="16.477645"><ele>251.8</ele><time>2026-04-12T07:03:12.634Z</time></trkpt><trkpt lat="41.1230767" lon="16.4775167"><ele>252.20000000000002</ele><time>2026-04-12T07:03:13.634Z</time></trkpt><trkpt lat="41.123015" lon="16.4774017"><ele>252.60000000000002</ele><time>2026-04-12T07:03:14.635Z</time></trkpt><trkpt lat="41.1229617" lon="16.4772933"><ele>253.0</ele><time>2026-04-12T07:03:15.634Z</time></trkpt><trkpt lat="41.12292" lon="16.4771933"><ele>252.75</ele><time>2026-04-12T07:03:16.634Z</time></trkpt><trkpt lat="41.12288" lon="16.4770983"><ele>252.5</ele><time>2026-04-12T07:03:17.634Z</time></trkpt><trkpt lat="41.1228267" lon="16.4769917"><ele>252.25</ele><time>2026-04-12T07:03:18.634Z</time></trkpt><trkpt lat="41.12275" lon="16.4768533"><ele>252.0</ele><time>2026-04-12T07:03:19.636Z</time></trkpt><trkpt lat="41.1226617" lon="16.4766883"><ele>252.0</ele><time>2026-04-12T07:03:20.635Z</time></trkpt><trkpt lat="41.12257" lon="16.4765117"><ele>252.0</ele><time>2026-04-12T07:03:21.636Z</time></trkpt><trkpt lat="41.1224883" lon="16.47634"><ele>252.0</ele><time>2026-04-12T07:03:22.64Z</time></trkpt><trkpt lat="41.1224083" lon="16.4761667"><ele>251.75</ele><time>2026-04-12T07:03:23.635Z</time></trkpt><trkpt lat="41.122335" lon="16.4759833"><ele>251.5</ele><time>2026-04-12T07:03:24.634Z</time></trkpt><trkpt lat="41.1222683" lon="16.4758083"><ele>251.25</ele><time>2026-04-12T07:03:25.635Z</time></trkpt><trkpt lat="41.12221" lon="16.4756417"><ele>251.0</ele><time>2026-04-12T07:03:26.636Z</time></trkpt><trkpt lat="41.1221533" lon="16.47549"><ele>251.0</ele><time>2026-04-12T07:03:27.635Z</time></trkpt><trkpt lat="41.1220917" lon="16.4753533"><ele>251.00000000000003</ele><time>2026-04-12T07:03:28.636Z</time></trkpt><trkpt lat="41.1220267" lon="16.4752333"><ele>251.00000000000003</ele><time>2026-04-12T07:03:29.635Z</time></trkpt><trkpt lat="41.12197" lon="16.4751367"><ele>251.0</ele><time>2026-04-12T07:03:30.635Z</time></trkpt><trkpt lat="41.1219183" lon="16.4750667"><ele>251.0</ele><time>2026-04-12T07:03:31.638Z</time></trkpt><trkpt lat="41.1218417" lon="16.4750233"><ele>251.0</ele><time>2026-04-12T07:04:20.64Z</time></trkpt><trkpt lat="41.121745" lon="16.4750817"><ele>251.00000000000003</ele><time>2026-04-12T07:04:22.634Z</time></trkpt><trkpt lat="41.121685" lon="16.4751617"><ele>251.00000000000003</ele><time>2026-04-12T07:04:23.635Z</time></trkpt><trkpt lat="41.12162" lon="16.4752867"><ele>251.0</ele><time>2026-04-12T07:04:24.634Z</time></trkpt><trkpt lat="41.12155" lon="16.4754167"><ele>251.0</ele><time>2026-04-12T07:04:25.635Z</time></trkpt><trkpt lat="41.12147" lon="16.4755667"><ele>251.0</ele><time>2026-04-12T07:04:26.635Z</time></trkpt><trkpt lat="41.1213833" lon="16.4757317"><ele>251.0</ele><time>2026-04-12T07:04:27.634Z</time></trkpt><trkpt lat="41.1213" lon="16.4758983"><ele>251.0</ele><time>2026-04-12T07:04:28.634Z</time></trkpt><trkpt lat="41.1212183" lon="16.4760567"><ele>251.0</ele><time>2026-04-12T07:04:29.639Z</time></trkpt><trkpt lat="41.121135" lon="16.4762183"><ele>251.33333333333334</ele><time>2026-04-12T07:04:30.634Z</time></trkpt><trkpt lat="41.1210433" lon="16.4763917"><ele>251.66666666666669</ele><time>2026-04-12T07:04:31.634Z</time></trkpt><trkpt lat="41.1209583" lon="16.4765583"><ele>252.0</ele><time>2026-04-12T07:04:32.635Z</time></trkpt><trkpt lat="41.12088" lon="16.4767167"><ele>252.0</ele><time>2026-04-12T07:04:33.634Z</time></trkpt><trkpt lat="41.1208017" lon="16.4768683"><ele>252.0</ele><time>2026-04-12T07:04:34.635Z</time></trkpt><trkpt lat="41.1207267" lon="16.4770167"><ele>252.0</ele><time>2026-04-12T07:04:35.64Z</time></trkpt><trkpt lat="41.1206533" lon="16.4771567"><ele>252.0</ele><time>2026-04-12T07:04:36.634Z</time></trkpt><trkpt lat="41.1205883" lon="16.47728"><ele>251.39999999999998</ele><time>2026-04-12T07:04:37.635Z</time></trkpt><trkpt lat="41.1205283" lon="16.4773967"><ele>250.79999999999998</ele><time>2026-04-12T07:04:38.635Z</time></trkpt><trkpt lat="41.1204683" lon="16.4775083"><ele>250.2</ele><time>2026-04-12T07:04:39.635Z</time></trkpt><trkpt lat="41.1204017" lon="16.4776233"><ele>249.6</ele><time>2026-04-12T07:04:40.636Z</time></trkpt><trkpt lat="41.1203117" lon="16.4777367"><ele>249.0</ele><time>2026-04-12T07:04:41.635Z</time></trkpt><trkpt lat="41.120195" lon="16.4778317"><ele>249.0</ele><time>2026-04-12T07:04:42.635Z</time></trkpt><trkpt lat="41.1200717" lon="16.477905"><ele>249.0</ele><time>2026-04-12T07:04:43.635Z</time></trkpt><trkpt lat="41.11995" lon="16.4779583"><ele>249.0</ele><time>2026-04-12T07:04:44.635Z</time></trkpt><trkpt lat="41.1198217" lon="16.4779867"><ele>249.0</ele><time>2026-04-12T07:04:45.634Z</time></trkpt><trkpt lat="41.119685" lon="16.4779867"><ele>248.75</ele><time>2026-04-12T07:04:46.634Z</time></trkpt><trkpt lat="41.1195533" lon="16.4779633"><ele>248.5</ele><time>2026-04-12T07:04:47.637Z</time></trkpt><trkpt lat="41.11943" lon="16.4779317"><ele>248.25</ele><time>2026-04-12T07:04:48.634Z</time></trkpt><trkpt lat="41.1193167" lon="16.4778867"><ele>248.0</ele><time>2026-04-12T07:04:49.64Z</time></trkpt><trkpt lat="41.1192217" lon="16.4778333"><ele>247.8</ele><time>2026-04-12T07:04:50.635Z</time></trkpt><trkpt lat="41.1191417" lon="16.4777883"><ele>247.60000000000002</ele><time>2026-04-12T07:04:51.634Z</time></trkpt><trkpt lat="41.11905" lon="16.477755"><ele>247.39999999999998</ele><time>2026-04-12T07:04:52.634Z</time></trkpt><trkpt lat="41.11895" lon="16.477715"><ele>247.2</ele><time>2026-04-12T07:04:53.635Z</time></trkpt><trkpt lat="41.1188367" lon="16.4776617"><ele>247.0</ele><time>2026-04-12T07:04:54.634Z</time></trkpt><trkpt lat="41.118715" lon="16.4776067"><ele>245.75</ele><time>2026-04-12T07:04:55.636Z</time></trkpt><trkpt lat="41.118585" lon="16.4775517"><ele>244.5</ele><time>2026-04-12T07:04:56.635Z</time></trkpt><trkpt lat="41.118465" lon="16.4774967"><ele>243.25</ele><time>2026-04-12T07:04:57.634Z</time></trkpt><trkpt lat="41.11835" lon="16.47745"><ele>242.0</ele><time>2026-04-12T07:04:58.635Z</time></trkpt><trkpt lat="41.118245" lon="16.4774067"><ele>242.0</ele><time>2026-04-12T07:04:59.636Z</time></trkpt><trkpt lat="41.1181483" lon="16.477365"><ele>242.0</ele><time>2026-04-12T07:05:00.635Z</time></trkpt><trkpt lat="41.1180517" lon="16.4773233"><ele>242.0</ele><time>2026-04-12T07:05:01.635Z</time></trkpt><trkpt lat="41.117945" lon="16.47728"><ele>242.0</ele><time>2026-04-12T07:05:02.635Z</time></trkpt><trkpt lat="41.117825" lon="16.4772333"><ele>242.0</ele><time>2026-04-12T07:05:03.636Z</time></trkpt><trkpt lat="41.117705" lon="16.477185"><ele>242.00000000000003</ele><time>2026-04-12T07:05:04.635Z</time></trkpt><trkpt lat="41.1176017" lon="16.47714"><ele>242.0</ele><time>2026-04-12T07:05:05.636Z</time></trkpt><trkpt lat="41.11752" lon="16.4771017"><ele>242.0</ele><time>2026-04-12T07:05:06.635Z</time></trkpt><trkpt lat="41.117445" lon="16.47707"><ele>242.0</ele><time>2026-04-12T07:05:07.634Z</time></trkpt><trkpt lat="41.1173767" lon="16.4770417"><ele>242.00000000000003</ele><time>2026-04-12T07:05:08.636Z</time></trkpt><trkpt lat="41.1173117" lon="16.4770133"><ele>242.0</ele><time>2026-04-12T07:05:09.635Z</time></trkpt><trkpt lat="41.1172533" lon="16.476965"><ele>241.7142857142857</ele><time>2026-04-12T07:05:10.634Z</time></trkpt><trkpt lat="41.117195" lon="16.47691"><ele>241.4285714285714</ele><time>2026-04-12T07:05:11.634Z</time></trkpt><trkpt lat="41.1171383" lon="16.47685"><ele>241.14285714285714</ele><time>2026-04-12T07:05:12.634Z</time></trkpt><trkpt lat="41.1170817" lon="16.4767883"><ele>240.85714285714283</ele><time>2026-04-12T07:05:13.634Z</time></trkpt><trkpt lat="41.1170233" lon="16.47673"><ele>240.57142857142856</ele><time>2026-04-12T07:05:14.635Z</time></trkpt><trkpt lat="41.1169683" lon="16.47667"><ele>240.28571428571428</ele><time>2026-04-12T07:05:15.634Z</time></trkpt><trkpt lat="41.116915" lon="16.47661"><ele>240.0</ele><time>2026-04-12T07:05:16.634Z</time></trkpt><trkpt lat="41.1168633" lon="16.47655"><ele>240.0</ele><time>2026-04-12T07:05:17.636Z</time></trkpt><trkpt lat="41.1168133" lon="16.4764933"><ele>240.0</ele><time>2026-04-12T07:05:18.635Z</time></trkpt><trkpt lat="41.1167233" lon="16.4763967"><ele>240.0</ele><time>2026-04-12T07:05:20.635Z</time></trkpt><trkpt lat="41.1166417" lon="16.4763133"><ele>240.0</ele><time>2026-04-12T07:05:22.635Z</time></trkpt><trkpt lat="41.1165683" lon="16.476225"><ele>240.0</ele><time>2026-04-12T07:05:24.64Z</time></trkpt><trkpt lat="41.1164817" lon="16.4761133"><ele>239.0</ele><time>2026-04-12T07:05:26.634Z</time></trkpt><trkpt lat="41.1164317" lon="16.4760317"><ele>238.0</ele><time>2026-04-12T07:05:27.634Z</time></trkpt><trkpt lat="41.11637" lon="16.47594"><ele>237.0</ele><time>2026-04-12T07:05:28.637Z</time></trkpt><trkpt lat="41.1162983" lon="16.4758367"><ele>236.0</ele><time>2026-04-12T07:05:29.637Z</time></trkpt><trkpt lat="41.11622" lon="16.4757217"><ele>235.0</ele><time>2026-04-12T07:05:30.636Z</time></trkpt><trkpt lat="41.1161433" lon="16.47561"><ele>235.0</ele><time>2026-04-12T07:05:31.634Z</time></trkpt><trkpt lat="41.1160733" lon="16.4755117"><ele>235.0</ele><time>2026-04-12T07:05:32.635Z</time></trkpt><trkpt lat="41.1160017" lon="16.4754267"><ele>235.0</ele><time>2026-04-12T07:05:33.635Z</time></trkpt><trkpt lat="41.1159233" lon="16.475355"><ele>235.0</ele><time>2026-04-12T07:05:34.634Z</time></trkpt><trkpt lat="41.11584" lon="16.4752883"><ele>235.0</ele><time>2026-04-12T07:05:35.634Z</time></trkpt><trkpt lat="41.1157583" lon="16.4752317"><ele>234.4</ele><time>2026-04-12T07:05:36.634Z</time></trkpt><trkpt lat="41.11567" lon="16.4751867"><ele>233.8</ele><time>2026-04-12T07:05:37.635Z</time></trkpt><trkpt lat="41.1155767" lon="16.475155"><ele>233.2</ele><time>2026-04-12T07:05:38.635Z</time></trkpt><trkpt lat="41.1154833" lon="16.475135"><ele>232.6</ele><time>2026-04-12T07:05:39.634Z</time></trkpt><trkpt lat="41.1153817" lon="16.4751217"><ele>232.0</ele><time>2026-04-12T07:05:40.634Z</time></trkpt><trkpt lat="41.1152733" lon="16.47511"><ele>232.0</ele><time>2026-04-12T07:05:41.634Z</time></trkpt><trkpt lat="41.115155" lon="16.4750983"><ele>232.0</ele><time>2026-04-12T07:05:42.634Z</time></trkpt><trkpt lat="41.1150283" lon="16.4750883"><ele>232.0</ele><time>2026-04-12T07:05:43.637Z</time></trkpt><trkpt lat="41.114895" lon="16.4750833"><ele>232.0</ele><time>2026-04-12T07:05:44.634Z</time></trkpt><trkpt lat="41.1147583" lon="16.4750833"><ele>232.0</ele><time>2026-04-12T07:05:45.634Z</time></trkpt><trkpt lat="41.114625" lon="16.4750833"><ele>232.0</ele><time>2026-04-12T07:05:46.634Z</time></trkpt><trkpt lat="41.1144933" lon="16.4750817"><ele>232.0</ele><time>2026-04-12T07:05:47.635Z</time></trkpt><trkpt lat="41.1143567" lon="16.4750767"><ele>232.0</ele><time>2026-04-12T07:05:48.636Z</time></trkpt><trkpt lat="41.114225" lon="16.47507"><ele>232.0</ele><time>2026-04-12T07:05:49.636Z</time></trkpt><trkpt lat="41.1141017" lon="16.4750517"><ele>232.0</ele><time>2026-04-12T07:05:50.635Z</time></trkpt><trkpt lat="41.1139817" lon="16.47502"><ele>232.0</ele><time>2026-04-12T07:05:51.636Z</time></trkpt><trkpt lat="41.1138633" lon="16.47498"><ele>232.0</ele><time>2026-04-12T07:05:52.64Z</time></trkpt><trkpt lat="41.1137533" lon="16.47494"><ele>231.8</ele><time>2026-04-12T07:05:53.636Z</time></trkpt><trkpt lat="41.1136517" lon="16.4748933"><ele>231.6</ele><time>2026-04-12T07:05:54.634Z</time></trkpt><trkpt lat="41.1135583" lon="16.4748517"><ele>231.40000000000003</ele><time>2026-04-12T07:05:55.634Z</time></trkpt><trkpt lat="41.1134733" lon="16.4748333"><ele>231.20000000000002</ele><time>2026-04-12T07:05:56.636Z</time></trkpt><trkpt lat="41.1133817" lon="16.4748283"><ele>231.0</ele><time>2026-04-12T07:05:57.635Z</time></trkpt><trkpt lat="41.1132817" lon="16.47484"><ele>231.0</ele><time>2026-04-12T07:05:58.634Z</time></trkpt><trkpt lat="41.1131733" lon="16.4748617"><ele>231.0</ele><time>2026-04-12T07:05:59.635Z</time></trkpt><trkpt lat="41.113045" lon="16.4748933"><ele>231.0</ele><time>2026-04-12T07:06:00.634Z</time></trkpt><trkpt lat="41.1129017" lon="16.474935"><ele>231.0</ele><time>2026-04-12T07:06:01.635Z</time></trkpt><trkpt lat="41.1127567" lon="16.47497"><ele>231.0</ele><time>2026-04-12T07:06:02.635Z</time></trkpt><trkpt lat="41.11262" lon="16.47499"><ele>231.00000000000003</ele><time>2026-04-12T07:06:03.636Z</time></trkpt><trkpt lat="41.1125017" lon="16.4750033"><ele>231.00000000000003</ele><time>2026-04-12T07:06:04.635Z</time></trkpt><trkpt lat="41.112405" lon="16.4750117"><ele>231.0</ele><time>2026-04-12T07:06:05.634Z</time></trkpt><trkpt lat="41.1123233" lon="16.47501"><ele>231.0</ele><time>2026-04-12T07:06:06.635Z</time></trkpt><trkpt lat="41.11225" lon="16.47499"><ele>231.16666666666666</ele><time>2026-04-12T07:06:07.635Z</time></trkpt><trkpt lat="41.112175" lon="16.47495"><ele>231.33333333333331</ele><time>2026-04-12T07:06:08.636Z</time></trkpt><trkpt lat="41.1121033" lon="16.4749067"><ele>231.5</ele><time>2026-04-12T07:06:09.634Z</time></trkpt><trkpt lat="41.1120433" lon="16.47487"><ele>231.66666666666666</ele><time>2026-04-12T07:06:10.635Z</time></trkpt><trkpt lat="41.11195" lon="16.4748117"><ele>231.83333333333331</ele><time>2026-04-12T07:06:12.635Z</time></trkpt><trkpt lat="41.11187" lon="16.47478"><ele>232.0</ele><time>2026-04-12T07:06:14.638Z</time></trkpt><trkpt lat="41.1118067" lon="16.4747467"><ele>232.0</ele><time>2026-04-12T07:06:16.634Z</time></trkpt><trkpt lat="41.1117633" lon="16.474655"><ele>232.0</ele><time>2026-04-12T07:06:19.634Z</time></trkpt><trkpt lat="41.11176" lon="16.4744917"><ele>232.0</ele><time>2026-04-12T07:06:21.641Z</time></trkpt><trkpt lat="41.1117633" lon="16.4743833"><ele>232.0</ele><time>2026-04-12T07:06:22.634Z</time></trkpt><trkpt lat="41.11176" lon="16.4742633"><ele>232.0</ele><time>2026-04-12T07:06:23.634Z</time></trkpt><trkpt lat="41.1117567" lon="16.4741383"><ele>231.99999999999997</ele><time>2026-04-12T07:06:24.634Z</time></trkpt><trkpt lat="41.111755" lon="16.4740383"><ele>232.0</ele><time>2026-04-12T07:06:25.634Z</time></trkpt><trkpt lat="41.1117533" lon="16.4739317"><ele>232.0</ele><time>2026-04-12T07:06:26.636Z</time></trkpt><trkpt lat="41.1117533" lon="16.4738233"><ele>232.0</ele><time>2026-04-12T07:06:27.638Z</time></trkpt><trkpt lat="41.1117533" lon="16.473705"><ele>231.99999999999997</ele><time>2026-04-12T07:06:28.636Z</time></trkpt><trkpt lat="41.11175" lon="16.47357"><ele>232.0</ele><time>2026-04-12T07:06:29.634Z</time></trkpt><trkpt lat="41.111745" lon="16.4734217"><ele>232.0</ele><time>2026-04-12T07:06:30.634Z</time></trkpt><trkpt lat="41.1117417" lon="16.4732567"><ele>232.0</ele><time>2026-04-12T07:06:31.634Z</time></trkpt><trkpt lat="41.11174" lon="16.4730833"><ele>232.0</ele><time>2026-04-12T07:06:32.635Z</time></trkpt><trkpt lat="41.111745" lon="16.472905"><ele>232.0</ele><time>2026-04-12T07:06:33.634Z</time></trkpt><trkpt lat="41.1117533" lon="16.472745"><ele>232.39999999999998</ele><time>2026-04-12T07:06:34.635Z</time></trkpt><trkpt lat="41.1117717" lon="16.4726033"><ele>232.79999999999998</ele><time>2026-04-12T07:06:35.636Z</time></trkpt><trkpt lat="41.1117933" lon="16.4724733"><ele>233.2</ele><time>2026-04-12T07:06:36.634Z</time></trkpt><trkpt lat="41.1118217" lon="16.4723483"><ele>233.6</ele><time>2026-04-12T07:06:37.634Z</time></trkpt><trkpt lat="41.1118517" lon="16.4721883"><ele>234.0</ele><time>2026-04-12T07:06:38.635Z</time></trkpt><trkpt lat="41.1118867" lon="16.4720067"><ele>234.0</ele><time>2026-04-12T07:06:39.634Z</time></trkpt><trkpt lat="41.111925" lon="16.4718117"><ele>234.0</ele><time>2026-04-12T07:06:40.635Z</time></trkpt><trkpt lat="41.1119667" lon="16.4716033"><ele>234.0</ele><time>2026-04-12T07:06:41.635Z</time></trkpt><trkpt lat="41.1120083" lon="16.4713817"><ele>233.66666666666669</ele><time>2026-04-12T07:06:42.634Z</time></trkpt><trkpt lat="41.1120583" lon="16.4711417"><ele>233.33333333333334</ele><time>2026-04-12T07:06:43.634Z</time></trkpt><trkpt lat="41.112105" lon="16.4708917"><ele>233.0</ele><time>2026-04-12T07:06:44.634Z</time></trkpt><trkpt lat="41.112155" lon="16.47064"><ele>234.0</ele><time>2026-04-12T07:06:45.634Z</time></trkpt><trkpt lat="41.1122033" lon="16.470395"><ele>235.0</ele><time>2026-04-12T07:06:46.636Z</time></trkpt><trkpt lat="41.112245" lon="16.47016"><ele>236.0</ele><time>2026-04-12T07:06:47.634Z</time></trkpt><trkpt lat="41.11228" lon="16.4699217"><ele>236.0</ele><time>2026-04-12T07:06:48.634Z</time></trkpt><trkpt lat="41.1123033" lon="16.4696683"><ele>236.0</ele><time>2026-04-12T07:06:49.637Z</time></trkpt><trkpt lat="41.112325" lon="16.469405"><ele>236.0</ele><time>2026-04-12T07:06:50.635Z</time></trkpt><trkpt lat="41.1123483" lon="16.4691317"><ele>236.66666666666669</ele><time>2026-04-12T07:06:51.634Z</time></trkpt><trkpt lat="41.1123667" lon="16.4688483"><ele>237.33333333333331</ele><time>2026-04-12T07:06:52.634Z</time></trkpt><trkpt lat="41.1123783" lon="16.46857"><ele>238.0</ele><time>2026-04-12T07:06:53.634Z</time></trkpt><trkpt lat="41.1123833" lon="16.46831"><ele>238.66666666666666</ele><time>2026-04-12T07:06:54.634Z</time></trkpt><trkpt lat="41.112385" lon="16.46807"><ele>239.33333333333331</ele><time>2026-04-12T07:06:55.634Z</time></trkpt><trkpt lat="41.1123783" lon="16.467855"><ele>240.0</ele><time>2026-04-12T07:06:56.635Z</time></trkpt><trkpt lat="41.1123567" lon="16.4676633"><ele>240.0</ele><time>2026-04-12T07:06:57.635Z</time></trkpt><trkpt lat="41.1123233" lon="16.4674817"><ele>240.0</ele><time>2026-04-12T07:06:58.634Z</time></trkpt><trkpt lat="41.1122783" lon="16.467305"><ele>240.0</ele><time>2026-04-12T07:06:59.634Z</time></trkpt><trkpt lat="41.112225" lon="16.4671267"><ele>240.0</ele><time>2026-04-12T07:07:00.634Z</time></trkpt><trkpt lat="41.112155" lon="16.4669517"><ele>240.66666666666669</ele><time>2026-04-12T07:07:01.634Z</time></trkpt><trkpt lat="41.1120667" lon="16.4667767"><ele>241.33333333333334</ele><time>2026-04-12T07:07:02.635Z</time></trkpt><trkpt lat="41.1119617" lon="16.4665983"><ele>242.0</ele><time>2026-04-12T07:07:03.634Z</time></trkpt><trkpt lat="41.11184" lon="16.4664167"><ele>242.33333333333334</ele><time>2026-04-12T07:07:04.634Z</time></trkpt><trkpt lat="41.111695" lon="16.46624"><ele>242.66666666666669</ele><time>2026-04-12T07:07:05.633Z</time></trkpt><trkpt lat="41.11154" lon="16.4660667"><ele>243.0</ele><time>2026-04-12T07:07:06.634Z</time></trkpt><trkpt lat="41.11138" lon="16.465885"><ele>243.33333333333331</ele><time>2026-04-12T07:07:07.637Z</time></trkpt><trkpt lat="41.1112233" lon="16.4657067"><ele>243.66666666666666</ele><time>2026-04-12T07:07:08.635Z</time></trkpt><trkpt lat="41.1110783" lon="16.46554"><ele>244.0</ele><time>2026-04-12T07:07:09.636Z</time></trkpt><trkpt lat="41.1109433" lon="16.4653883"><ele>244.33333333333331</ele><time>2026-04-12T07:07:10.635Z</time></trkpt><trkpt lat="41.1108" lon="16.4652533"><ele>244.66666666666669</ele><time>2026-04-12T07:07:11.634Z</time></trkpt><trkpt lat="41.11063" lon="16.46514"><ele>245.0</ele><time>2026-04-12T07:07:12.635Z</time></trkpt><trkpt lat="41.1104433" lon="16.465045"><ele>245.0</ele><time>2026-04-12T07:07:13.636Z</time></trkpt><trkpt lat="41.110245" lon="16.4649567"><ele>245.0</ele><time>2026-04-12T07:07:14.635Z</time></trkpt><trkpt lat="41.11004" lon="16.4648683"><ele>245.0</ele><time>2026-04-12T07:07:15.634Z</time></trkpt><trkpt lat="41.1098383" lon="16.464775"><ele>245.0</ele><time>2026-04-12T07:07:16.636Z</time></trkpt><trkpt lat="41.1096483" lon="16.4646883"><ele>245.0</ele><time>2026-04-12T07:07:17.634Z</time></trkpt><trkpt lat="41.1094733" lon="16.4646083"><ele>245.0</ele><time>2026-04-12T07:07:18.634Z</time></trkpt><trkpt lat="41.1093133" lon="16.464535"><ele>245.5</ele><time>2026-04-12T07:07:19.634Z</time></trkpt><trkpt lat="41.1091717" lon="16.464465"><ele>246.0</ele><time>2026-04-12T07:07:20.634Z</time></trkpt><trkpt lat="41.1090483" lon="16.4643967"><ele>246.5</ele><time>2026-04-12T07:07:21.634Z</time></trkpt><trkpt lat="41.1089383" lon="16.4643317"><ele>247.0</ele><time>2026-04-12T07:07:22.634Z</time></trkpt><trkpt lat="41.10884" lon="16.464265"><ele>247.0</ele><time>2026-04-12T07:07:23.635Z</time></trkpt><trkpt lat="41.1087467" lon="16.464185"><ele>247.0</ele><time>2026-04-12T07:07:24.634Z</time></trkpt><trkpt lat="41.1086567" lon="16.4640767"><ele>247.0</ele><time>2026-04-12T07:07:25.635Z</time></trkpt><trkpt lat="41.1085717" lon="16.4639383"><ele>247.0</ele><time>2026-04-12T07:07:26.635Z</time></trkpt><trkpt lat="41.10849" lon="16.46378"><ele>247.33333333333331</ele><time>2026-04-12T07:07:27.634Z</time></trkpt><trkpt lat="41.1084167" lon="16.4635983"><ele>247.66666666666669</ele><time>2026-04-12T07:07:28.634Z</time></trkpt><trkpt lat="41.1083467" lon="16.4633983"><ele>248.0</ele><time>2026-04-12T07:07:29.634Z</time></trkpt><trkpt lat="41.1082833" lon="16.463185"><ele>248.33333333333334</ele><time>2026-04-12T07:07:30.635Z</time></trkpt><trkpt lat="41.1082233" lon="16.4629583"><ele>248.66666666666669</ele><time>2026-04-12T07:07:31.634Z</time></trkpt><trkpt lat="41.108155" lon="16.4627233"><ele>249.0</ele><time>2026-04-12T07:07:32.635Z</time></trkpt><trkpt lat="41.1080767" lon="16.4624883"><ele>249.66666666666669</ele><time>2026-04-12T07:07:33.637Z</time></trkpt><trkpt lat="41.1079883" lon="16.462255"><ele>250.33333333333334</ele><time>2026-04-12T07:07:34.634Z</time></trkpt><trkpt lat="41.107895" lon="16.46202"><ele>251.0</ele><time>2026-04-12T07:07:35.635Z</time></trkpt><trkpt lat="41.1077967" lon="16.4617817"><ele>251.0</ele><time>2026-04-12T07:07:36.635Z</time></trkpt><trkpt lat="41.1077017" lon="16.4615417"><ele>251.0</ele><time>2026-04-12T07:07:37.635Z</time></trkpt><trkpt lat="41.1076083" lon="16.461315"><ele>251.0</ele><time>2026-04-12T07:07:38.636Z</time></trkpt><trkpt lat="41.1075233" lon="16.4611017"><ele>251.66666666666669</ele><time>2026-04-12T07:07:39.637Z</time></trkpt><trkpt lat="41.1074417" lon="16.4608983"><ele>252.33333333333331</ele><time>2026-04-12T07:07:40.634Z</time></trkpt><trkpt lat="41.1073533" lon="16.4607"><ele>253.0</ele><time>2026-04-12T07:07:41.634Z</time></trkpt><trkpt lat="41.1072667" lon="16.4604933"><ele>254.0</ele><time>2026-04-12T07:07:42.634Z</time></trkpt><trkpt lat="41.1071817" lon="16.4602917"><ele>255.0</ele><time>2026-04-12T07:07:43.634Z</time></trkpt><trkpt lat="41.1071067" lon="16.4601033"><ele>256.0</ele><time>2026-04-12T07:07:44.635Z</time></trkpt><trkpt lat="41.1070317" lon="16.459925"><ele>256.0</ele><time>2026-04-12T07:07:45.637Z</time></trkpt><trkpt lat="41.1069533" lon="16.4597417"><ele>256.0</ele><time>2026-04-12T07:07:46.635Z</time></trkpt><trkpt lat="41.1068783" lon="16.4595533"><ele>256.0</ele><time>2026-04-12T07:07:47.635Z</time></trkpt><trkpt lat="41.1068067" lon="16.4593767"><ele>256.0</ele><time>2026-04-12T07:07:48.635Z</time></trkpt><trkpt lat="41.1067417" lon="16.4592033"><ele>256.0</ele><time>2026-04-12T07:07:49.635Z</time></trkpt><trkpt lat="41.1066783" lon="16.4590367"><ele>256.0</ele><time>2026-04-12T07:07:50.634Z</time></trkpt><trkpt lat="41.1066233" lon="16.4588733"><ele>256.0</ele><time>2026-04-12T07:07:51.634Z</time></trkpt><trkpt lat="41.10657" lon="16.4587133"><ele>256.5</ele><time>2026-04-12T07:07:52.634Z</time></trkpt><trkpt lat="41.1065183" lon="16.4585517"><ele>257.0</ele><time>2026-04-12T07:07:53.634Z</time></trkpt><trkpt lat="41.1064633" lon="16.4583833"><ele>257.5</ele><time>2026-04-12T07:07:54.635Z</time></trkpt><trkpt lat="41.10641" lon="16.4582217"><ele>258.0</ele><time>2026-04-12T07:07:55.634Z</time></trkpt><trkpt lat="41.1063617" lon="16.458065"><ele>258.75</ele><time>2026-04-12T07:07:56.636Z</time></trkpt><trkpt lat="41.1063217" lon="16.4579083"><ele>259.5</ele><time>2026-04-12T07:07:57.634Z</time></trkpt><trkpt lat="41.10628" lon="16.4577417"><ele>260.25</ele><time>2026-04-12T07:07:58.635Z</time></trkpt><trkpt lat="41.106235" lon="16.457575"><ele>261.0</ele><time>2026-04-12T07:07:59.633Z</time></trkpt><trkpt lat="41.1061883" lon="16.4574183"><ele>261.0</ele><time>2026-04-12T07:08:00.635Z</time></trkpt><trkpt lat="41.1061433" lon="16.45726"><ele>261.0</ele><time>2026-04-12T07:08:01.634Z</time></trkpt><trkpt lat="41.1060983" lon="16.457095"><ele>261.0</ele><time>2026-04-12T07:08:02.634Z</time></trkpt><trkpt lat="41.106055" lon="16.456935"><ele>261.0</ele><time>2026-04-12T07:08:03.634Z</time></trkpt><trkpt lat="41.1060183" lon="16.4567833"><ele>260.75</ele><time>2026-04-12T07:08:04.634Z</time></trkpt><trkpt lat="41.1059817" lon="16.45663"><ele>260.5</ele><time>2026-04-12T07:08:05.634Z</time></trkpt><trkpt lat="41.1059467" lon="16.4564733"><ele>260.25</ele><time>2026-04-12T07:08:06.634Z</time></trkpt><trkpt lat="41.1059167" lon="16.4563217"><ele>260.0</ele><time>2026-04-12T07:08:07.635Z</time></trkpt><trkpt lat="41.1058867" lon="16.456165"><ele>261.0</ele><time>2026-04-12T07:08:08.636Z</time></trkpt><trkpt lat="41.1058633" lon="16.4560067"><ele>262.0</ele><time>2026-04-12T07:08:09.633Z</time></trkpt><trkpt lat="41.1058433" lon="16.455845"><ele>263.0</ele><time>2026-04-12T07:08:10.634Z</time></trkpt><trkpt lat="41.1058267" lon="16.4556833"><ele>264.0</ele><time>2026-04-12T07:08:11.634Z</time></trkpt><trkpt lat="41.10581" lon="16.455515"><ele>263.75</ele><time>2026-04-12T07:08:12.634Z</time></trkpt><trkpt lat="41.1057967" lon="16.4553367"><ele>263.5</ele><time>2026-04-12T07:08:13.637Z</time></trkpt><trkpt lat="41.1057833" lon="16.4551583"><ele>263.25</ele><time>2026-04-12T07:08:14.635Z</time></trkpt><trkpt lat="41.1057717" lon="16.4549867"><ele>263.0</ele><time>2026-04-12T07:08:15.634Z</time></trkpt><trkpt lat="41.1057633" lon="16.454825"><ele>263.0</ele><time>2026-04-12T07:08:16.634Z</time></trkpt><trkpt lat="41.10576" lon="16.454675"><ele>263.0</ele><time>2026-04-12T07:08:17.634Z</time></trkpt><trkpt lat="41.1057567" lon="16.4545383"><ele>263.0</ele><time>2026-04-12T07:08:18.634Z</time></trkpt><trkpt lat="41.1057517" lon="16.4544117"><ele>263.0</ele><time>2026-04-12T07:08:19.637Z</time></trkpt><trkpt lat="41.1057483" lon="16.454295"><ele>263.0</ele><time>2026-04-12T07:08:20.634Z</time></trkpt><trkpt lat="41.105745" lon="16.45418"><ele>263.5</ele><time>2026-04-12T07:08:21.634Z</time></trkpt><trkpt lat="41.1057433" lon="16.4540417"><ele>264.0</ele><time>2026-04-12T07:08:22.635Z</time></trkpt><trkpt lat="41.1057367" lon="16.4538733"><ele>264.5</ele><time>2026-04-12T07:08:23.638Z</time></trkpt><trkpt lat="41.10573" lon="16.4536817"><ele>265.0</ele><time>2026-04-12T07:08:24.634Z</time></trkpt><trkpt lat="41.1057217" lon="16.4534733"><ele>266.3333333333333</ele><time>2026-04-12T07:08:25.633Z</time></trkpt><trkpt lat="41.1057167" lon="16.4532467"><ele>267.6666666666667</ele><time>2026-04-12T07:08:26.635Z</time></trkpt><trkpt lat="41.1057133" lon="16.453005"><ele>269.0</ele><time>2026-04-12T07:08:27.635Z</time></trkpt><trkpt lat="41.1057083" lon="16.45275"><ele>270.0</ele><time>2026-04-12T07:08:28.636Z</time></trkpt><trkpt lat="41.105705" lon="16.4524867"><ele>271.0</ele><time>2026-04-12T07:08:29.634Z</time></trkpt><trkpt lat="41.1057" lon="16.4522167"><ele>272.0</ele><time>2026-04-12T07:08:30.635Z</time></trkpt><trkpt lat="41.1056917" lon="16.4519383"><ele>273.0</ele><time>2026-04-12T07:08:31.635Z</time></trkpt><trkpt lat="41.1056833" lon="16.4516483"><ele>274.0</ele><time>2026-04-12T07:08:32.636Z</time></trkpt><trkpt lat="41.105675" lon="16.4513467"><ele>275.0</ele><time>2026-04-12T07:08:33.636Z</time></trkpt><trkpt lat="41.1056667" lon="16.4510367"><ele>277.5</ele><time>2026-04-12T07:08:34.634Z</time></trkpt><trkpt lat="41.1056617" lon="16.45072"><ele>280.0</ele><time>2026-04-12T07:08:35.637Z</time></trkpt><trkpt lat="41.1056583" lon="16.4503983"><ele>280.5</ele><time>2026-04-12T07:08:36.635Z</time></trkpt><trkpt lat="41.105655" lon="16.4500733"><ele>281.0</ele><time>2026-04-12T07:08:37.634Z</time></trkpt><trkpt lat="41.10565" lon="16.4497417"><ele>281.5</ele><time>2026-04-12T07:08:38.635Z</time></trkpt><trkpt lat="41.1056433" lon="16.449405"><ele>282.0</ele><time>2026-04-12T07:08:39.634Z</time></trkpt><trkpt lat="41.1056367" lon="16.4490633"><ele>282.5</ele><time>2026-04-12T07:08:40.635Z</time></trkpt><trkpt lat="41.1056317" lon="16.4487167"><ele>283.0</ele><time>2026-04-12T07:08:41.634Z</time></trkpt><trkpt lat="41.1056217" lon="16.4483683"><ele>283.0</ele><time>2026-04-12T07:08:42.633Z</time></trkpt><trkpt lat="41.1056117" lon="16.4480183"><ele>283.0</ele><time>2026-04-12T07:08:43.634Z</time></trkpt><trkpt lat="41.1056033" lon="16.44767"><ele>284.0</ele><time>2026-04-12T07:08:44.634Z</time></trkpt><trkpt lat="41.105595" lon="16.4473267"><ele>285.0</ele><time>2026-04-12T07:08:45.634Z</time></trkpt><trkpt lat="41.105585" lon="16.446995"><ele>285.0</ele><time>2026-04-12T07:08:46.634Z</time></trkpt><trkpt lat="41.105575" lon="16.446685"><ele>285.0</ele><time>2026-04-12T07:08:47.634Z</time></trkpt><trkpt lat="41.105565" lon="16.4464033"><ele>285.0</ele><time>2026-04-12T07:08:48.634Z</time></trkpt><trkpt lat="41.10556" lon="16.4461533"><ele>285.0</ele><time>2026-04-12T07:08:49.635Z</time></trkpt><trkpt lat="41.1055583" lon="16.4459183"><ele>285.0</ele><time>2026-04-12T07:08:50.634Z</time></trkpt><trkpt lat="41.1055533" lon="16.4456983"><ele>285.0</ele><time>2026-04-12T07:08:51.634Z</time></trkpt><trkpt lat="41.1055483" lon="16.4454867"><ele>285.0</ele><time>2026-04-12T07:08:52.635Z</time></trkpt><trkpt lat="41.105545" lon="16.4452883"><ele>285.0</ele><time>2026-04-12T07:08:53.634Z</time></trkpt><trkpt lat="41.10554" lon="16.445105"><ele>285.0</ele><time>2026-04-12T07:08:54.634Z</time></trkpt><trkpt lat="41.1055367" lon="16.44493"><ele>285.0</ele><time>2026-04-12T07:08:55.636Z</time></trkpt><trkpt lat="41.1055317" lon="16.4447517"><ele>284.0</ele><time>2026-04-12T07:08:56.637Z</time></trkpt><trkpt lat="41.105525" lon="16.4445517"><ele>283.0</ele><time>2026-04-12T07:08:57.634Z</time></trkpt><trkpt lat="41.1055117" lon="16.44433"><ele>282.0</ele><time>2026-04-12T07:08:58.634Z</time></trkpt><trkpt lat="41.1055033" lon="16.4440883"><ele>282.0</ele><time>2026-04-12T07:08:59.634Z</time></trkpt><trkpt lat="41.1055" lon="16.4438267"><ele>282.0</ele><time>2026-04-12T07:09:00.634Z</time></trkpt><trkpt lat="41.1054983" lon="16.4435467"><ele>282.0</ele><time>2026-04-12T07:09:01.634Z</time></trkpt><trkpt lat="41.105495" lon="16.443255"><ele>281.0</ele><time>2026-04-12T07:09:02.635Z</time></trkpt><trkpt lat="41.1054917" lon="16.442955"><ele>280.0</ele><time>2026-04-12T07:09:03.634Z</time></trkpt><trkpt lat="41.1054867" lon="16.44264"><ele>280.0</ele><time>2026-04-12T07:09:04.635Z</time></trkpt><trkpt lat="41.10548" lon="16.4423133"><ele>280.0</ele><time>2026-04-12T07:09:05.634Z</time></trkpt><trkpt lat="41.1054733" lon="16.441985"><ele>279.5</ele><time>2026-04-12T07:09:06.634Z</time></trkpt><trkpt lat="41.105465" lon="16.4416517"><ele>279.0</ele><time>2026-04-12T07:09:07.639Z</time></trkpt><trkpt lat="41.1054567" lon="16.441315"><ele>279.5</ele><time>2026-04-12T07:09:08.634Z</time></trkpt><trkpt lat="41.1054483" lon="16.440975"><ele>280.0</ele><time>2026-04-12T07:09:09.634Z</time></trkpt><trkpt lat="41.1054417" lon="16.4406317"><ele>280.5</ele><time>2026-04-12T07:09:10.634Z</time></trkpt><trkpt lat="41.1054317" lon="16.440285"><ele>281.0</ele><time>2026-04-12T07:09:11.635Z</time></trkpt><trkpt lat="41.1054233" lon="16.4399383"><ele>282.5</ele><time>2026-04-12T07:09:12.634Z</time></trkpt><trkpt lat="41.1054133" lon="16.4395933"><ele>284.0</ele><time>2026-04-12T07:09:13.633Z</time></trkpt><trkpt lat="41.1054083" lon="16.4392467"><ele>284.0</ele><time>2026-04-12T07:09:14.636Z</time></trkpt><trkpt lat="41.1054033" lon="16.4388933"><ele>284.0</ele><time>2026-04-12T07:09:15.637Z</time></trkpt><trkpt lat="41.1053933" lon="16.4385333"><ele>284.5</ele><time>2026-04-12T07:09:16.634Z</time></trkpt><trkpt lat="41.1053817" lon="16.4381717"><ele>285.0</ele><time>2026-04-12T07:09:17.634Z</time></trkpt><trkpt lat="41.10537" lon="16.4378083"><ele>285.5</ele><time>2026-04-12T07:09:18.633Z</time></trkpt><trkpt lat="41.10536" lon="16.43744"><ele>286.0</ele><time>2026-04-12T07:09:19.634Z</time></trkpt><trkpt lat="41.1053517" lon="16.4370717"><ele>286.0</ele><time>2026-04-12T07:09:20.634Z</time></trkpt><trkpt lat="41.105345" lon="16.4367033"><ele>286.0</ele><time>2026-04-12T07:09:21.633Z</time></trkpt><trkpt lat="41.10534" lon="16.436335"><ele>287.0</ele><time>2026-04-12T07:09:22.634Z</time></trkpt><trkpt lat="41.105335" lon="16.43597"><ele>288.0</ele><time>2026-04-12T07:09:23.634Z</time></trkpt><trkpt lat="41.10533" lon="16.4356083"><ele>288.5</ele><time>2026-04-12T07:09:24.634Z</time></trkpt><trkpt lat="41.1053217" lon="16.4352483"><ele>289.0</ele><time>2026-04-12T07:09:25.634Z</time></trkpt><trkpt lat="41.1053167" lon="16.4348917"><ele>289.0</ele><time>2026-04-12T07:09:26.634Z</time></trkpt><trkpt lat="41.10531" lon="16.4345433"><ele>289.0</ele><time>2026-04-12T07:09:27.634Z</time></trkpt><trkpt lat="41.1053033" lon="16.4341983"><ele>289.0</ele><time>2026-04-12T07:09:28.633Z</time></trkpt><trkpt lat="41.1052967" lon="16.4338533"><ele>289.0</ele><time>2026-04-12T07:09:29.634Z</time></trkpt><trkpt lat="41.10529" lon="16.43351"><ele>290.0</ele><time>2026-04-12T07:09:30.634Z</time></trkpt><trkpt lat="41.10528" lon="16.4331733"><ele>291.0</ele><time>2026-04-12T07:09:31.638Z</time></trkpt><trkpt lat="41.1052733" lon="16.4328533"><ele>291.6666666666667</ele><time>2026-04-12T07:09:32.639Z</time></trkpt><trkpt lat="41.105265" lon="16.432555"><ele>292.33333333333337</ele><time>2026-04-12T07:09:33.634Z</time></trkpt><trkpt lat="41.1052583" lon="16.4322683"><ele>293.0</ele><time>2026-04-12T07:09:34.634Z</time></trkpt><trkpt lat="41.1052583" lon="16.4319817"><ele>294.0</ele><time>2026-04-12T07:09:35.635Z</time></trkpt><trkpt lat="41.10527" lon="16.4316883"><ele>295.0</ele><time>2026-04-12T07:09:36.64Z</time></trkpt><trkpt lat="41.1052933" lon="16.431385"><ele>296.5</ele><time>2026-04-12T07:09:37.633Z</time></trkpt><trkpt lat="41.105325" lon="16.4310767"><ele>298.0</ele><time>2026-04-12T07:09:38.635Z</time></trkpt><trkpt lat="41.105365" lon="16.430765"><ele>300.0</ele><time>2026-04-12T07:09:39.633Z</time></trkpt><trkpt lat="41.105415" lon="16.4304467"><ele>302.0</ele><time>2026-04-12T07:09:40.634Z</time></trkpt><trkpt lat="41.1054717" lon="16.4301267"><ele>302.0</ele><time>2026-04-12T07:09:41.634Z</time></trkpt><trkpt lat="41.1055317" lon="16.4298033"><ele>302.0</ele><time>2026-04-12T07:09:42.634Z</time></trkpt><trkpt lat="41.1055917" lon="16.4294783"><ele>304.0</ele><time>2026-04-12T07:09:43.634Z</time></trkpt><trkpt lat="41.1056467" lon="16.4291583"><ele>306.0</ele><time>2026-04-12T07:09:44.634Z</time></trkpt><trkpt lat="41.1056933" lon="16.42886"><ele>305.6666666666667</ele><time>2026-04-12T07:09:45.634Z</time></trkpt><trkpt lat="41.1057267" lon="16.428595"><ele>305.33333333333337</ele><time>2026-04-12T07:09:46.634Z</time></trkpt><trkpt lat="41.1057467" lon="16.428355"><ele>305.0</ele><time>2026-04-12T07:09:47.634Z</time></trkpt><trkpt lat="41.1057533" lon="16.4281283"><ele>306.6666666666667</ele><time>2026-04-12T07:09:48.635Z</time></trkpt><trkpt lat="41.1057433" lon="16.4278983"><ele>308.3333333333333</ele><time>2026-04-12T07:09:49.636Z</time></trkpt><trkpt lat="41.1057183" lon="16.4276517"><ele>310.0</ele><time>2026-04-12T07:09:50.64Z</time></trkpt><trkpt lat="41.105675" lon="16.4273917"><ele>309.66666666666663</ele><time>2026-04-12T07:09:51.635Z</time></trkpt><trkpt lat="41.1056183" lon="16.4271133"><ele>309.3333333333333</ele><time>2026-04-12T07:09:52.634Z</time></trkpt><trkpt lat="41.10555" lon="16.4268283"><ele>309.0</ele><time>2026-04-12T07:09:53.634Z</time></trkpt><trkpt lat="41.1054783" lon="16.42654"><ele>307.5</ele><time>2026-04-12T07:09:54.634Z</time></trkpt><trkpt lat="41.105405" lon="16.4262467"><ele>306.0</ele><time>2026-04-12T07:09:55.635Z</time></trkpt><trkpt lat="41.10533" lon="16.425945"><ele>306.0</ele><time>2026-04-12T07:09:56.638Z</time></trkpt><trkpt lat="41.105255" lon="16.425635"><ele>306.0</ele><time>2026-04-12T07:09:57.634Z</time></trkpt><trkpt lat="41.10518" lon="16.4253267"><ele>304.5</ele><time>2026-04-12T07:09:58.633Z</time></trkpt><trkpt lat="41.1051033" lon="16.4250117"><ele>303.0</ele><time>2026-04-12T07:09:59.634Z</time></trkpt><trkpt lat="41.1050267" lon="16.424695"><ele>302.0</ele><time>2026-04-12T07:10:00.633Z</time></trkpt><trkpt lat="41.10495" lon="16.4243717"><ele>301.0</ele><time>2026-04-12T07:10:01.634Z</time></trkpt><trkpt lat="41.104875" lon="16.4240417"><ele>302.0</ele><time>2026-04-12T07:10:02.634Z</time></trkpt><trkpt lat="41.1047983" lon="16.4237117"><ele>303.0</ele><time>2026-04-12T07:10:03.635Z</time></trkpt><trkpt lat="41.1047167" lon="16.4233783"><ele>303.0</ele><time>2026-04-12T07:10:04.634Z</time></trkpt><trkpt lat="41.1046333" lon="16.423045"><ele>303.0</ele><time>2026-04-12T07:10:05.634Z</time></trkpt><trkpt lat="41.1045467" lon="16.4227117"><ele>302.5</ele><time>2026-04-12T07:10:06.633Z</time></trkpt><trkpt lat="41.1044617" lon="16.4223767"><ele>302.0</ele><time>2026-04-12T07:10:07.634Z</time></trkpt><trkpt lat="41.1043783" lon="16.4220417"><ele>302.0</ele><time>2026-04-12T07:10:08.637Z</time></trkpt><trkpt lat="41.104295" lon="16.4217083"><ele>302.0</ele><time>2026-04-12T07:10:09.634Z</time></trkpt><trkpt lat="41.1042133" lon="16.4213717"><ele>302.0</ele><time>2026-04-12T07:10:10.635Z</time></trkpt><trkpt lat="41.104135" lon="16.4210383"><ele>302.0</ele><time>2026-04-12T07:10:11.634Z</time></trkpt><trkpt lat="41.1040567" lon="16.4207083"><ele>303.0</ele><time>2026-04-12T07:10:12.633Z</time></trkpt><trkpt lat="41.1039767" lon="16.4203817"><ele>304.0</ele><time>2026-04-12T07:10:13.634Z</time></trkpt><trkpt lat="41.103895" lon="16.4200567"><ele>304.0</ele><time>2026-04-12T07:10:14.635Z</time></trkpt><trkpt lat="41.1038167" lon="16.4197317"><ele>304.0</ele><time>2026-04-12T07:10:15.634Z</time></trkpt><trkpt lat="41.1037367" lon="16.4194083"><ele>303.0</ele><time>2026-04-12T07:10:16.634Z</time></trkpt><trkpt lat="41.1036567" lon="16.4190867"><ele>302.0</ele><time>2026-04-12T07:10:17.638Z</time></trkpt><trkpt lat="41.1035783" lon="16.4187633"><ele>301.0</ele><time>2026-04-12T07:10:18.635Z</time></trkpt><trkpt lat="41.1035" lon="16.418445"><ele>300.0</ele><time>2026-04-12T07:10:19.634Z</time></trkpt><trkpt lat="41.1034233" lon="16.41813"><ele>301.5</ele><time>2026-04-12T07:10:20.637Z</time></trkpt><trkpt lat="41.1033483" lon="16.4178183"><ele>303.0</ele><time>2026-04-12T07:10:21.634Z</time></trkpt><trkpt lat="41.1032733" lon="16.41751"><ele>303.5</ele><time>2026-04-12T07:10:22.634Z</time></trkpt><trkpt lat="41.1032" lon="16.4172083"><ele>304.0</ele><time>2026-04-12T07:10:23.635Z</time></trkpt><trkpt lat="41.103125" lon="16.41691"><ele>306.0</ele><time>2026-04-12T07:10:24.635Z</time></trkpt><trkpt lat="41.1030517" lon="16.4166117"><ele>308.0</ele><time>2026-04-12T07:10:25.634Z</time></trkpt><trkpt lat="41.102975" lon="16.41632"><ele>309.5</ele><time>2026-04-12T07:10:26.634Z</time></trkpt><trkpt lat="41.1029017" lon="16.4160217"><ele>311.0</ele><time>2026-04-12T07:10:27.634Z</time></trkpt><trkpt lat="41.1028233" lon="16.4157233"><ele>311.5</ele><time>2026-04-12T07:10:28.634Z</time></trkpt><trkpt lat="41.1027467" lon="16.4154183"><ele>312.0</ele><time>2026-04-12T07:10:29.634Z</time></trkpt><trkpt lat="41.1026733" lon="16.4151117"><ele>312.0</ele><time>2026-04-12T07:10:30.633Z</time></trkpt><trkpt lat="41.1026083" lon="16.414795"><ele>312.0</ele><time>2026-04-12T07:10:31.634Z</time></trkpt><trkpt lat="41.1025483" lon="16.41447"><ele>312.0</ele><time>2026-04-12T07:10:32.635Z</time></trkpt><trkpt lat="41.1024983" lon="16.4141383"><ele>312.0</ele><time>2026-04-12T07:10:33.634Z</time></trkpt><trkpt lat="41.1024583" lon="16.4138017"><ele>314.5</ele><time>2026-04-12T07:10:34.633Z</time></trkpt><trkpt lat="41.1024183" lon="16.4134683"><ele>317.0</ele><time>2026-04-12T07:10:35.633Z</time></trkpt><trkpt lat="41.1023767" lon="16.4131483"><ele>321.5</ele><time>2026-04-12T07:10:36.635Z</time></trkpt><trkpt lat="41.1023383" lon="16.4128467"><ele>326.0</ele><time>2026-04-12T07:10:37.635Z</time></trkpt><trkpt lat="41.1022983" lon="16.4125533"><ele>326.0</ele><time>2026-04-12T07:10:38.636Z</time></trkpt><trkpt lat="41.1022617" lon="16.41226"><ele>326.0</ele><time>2026-04-12T07:10:39.634Z</time></trkpt><trkpt lat="41.1022283" lon="16.4119683"><ele>326.0</ele><time>2026-04-12T07:10:40.634Z</time></trkpt><trkpt lat="41.1021933" lon="16.41168"><ele>326.0</ele><time>2026-04-12T07:10:41.634Z</time></trkpt><trkpt lat="41.1021567" lon="16.4114067"><ele>326.0</ele><time>2026-04-12T07:10:42.633Z</time></trkpt><trkpt lat="41.102125" lon="16.411155"><ele>326.0</ele><time>2026-04-12T07:10:43.633Z</time></trkpt><trkpt lat="41.102095" lon="16.4109367"><ele>326.25</ele><time>2026-04-12T07:10:44.634Z</time></trkpt><trkpt lat="41.10207" lon="16.41074"><ele>326.5</ele><time>2026-04-12T07:10:45.633Z</time></trkpt><trkpt lat="41.102055" lon="16.410565"><ele>326.75</ele><time>2026-04-12T07:10:46.635Z</time></trkpt><trkpt lat="41.102045" lon="16.41041"><ele>327.0</ele><time>2026-04-12T07:10:47.634Z</time></trkpt><trkpt lat="41.1020433" lon="16.410265"><ele>327.5</ele><time>2026-04-12T07:10:48.638Z</time></trkpt><trkpt lat="41.10204" lon="16.4101217"><ele>328.0</ele><time>2026-04-12T07:10:49.634Z</time></trkpt><trkpt lat="41.1020433" lon="16.410015"><ele>328.5</ele><time>2026-04-12T07:10:50.635Z</time></trkpt><trkpt lat="41.1020483" lon="16.4099083"><ele>329.0</ele><time>2026-04-12T07:10:51.635Z</time></trkpt><trkpt lat="41.1020383" lon="16.4098033"><ele>329.5</ele><time>2026-04-12T07:10:52.634Z</time></trkpt><trkpt lat="41.1020033" lon="16.4097017"><ele>330.0</ele><time>2026-04-12T07:10:53.634Z</time></trkpt><trkpt lat="41.101945" lon="16.409585"><ele>330.0</ele><time>2026-04-12T07:10:54.633Z</time></trkpt><trkpt lat="41.1018717" lon="16.4094533"><ele>330.0</ele><time>2026-04-12T07:10:55.634Z</time></trkpt><trkpt lat="41.1018" lon="16.4092933"><ele>330.0</ele><time>2026-04-12T07:10:56.637Z</time></trkpt><trkpt lat="41.1017317" lon="16.4091183"><ele>330.0</ele><time>2026-04-12T07:10:57.634Z</time></trkpt><trkpt lat="41.1016667" lon="16.408915"><ele>330.0</ele><time>2026-04-12T07:10:58.635Z</time></trkpt><trkpt lat="41.1015883" lon="16.4087"><ele>330.0</ele><time>2026-04-12T07:10:59.634Z</time></trkpt><trkpt lat="41.101505" lon="16.40847"><ele>330.0</ele><time>2026-04-12T07:11:00.634Z</time></trkpt><trkpt lat="41.10142" lon="16.40822"><ele>330.0</ele><time>2026-04-12T07:11:01.634Z</time></trkpt><trkpt lat="41.1013333" lon="16.4079583"><ele>330.0</ele><time>2026-04-12T07:11:02.634Z</time></trkpt><trkpt lat="41.1012433" lon="16.4076833"><ele>330.0</ele><time>2026-04-12T07:11:03.633Z</time></trkpt><trkpt lat="41.10115" lon="16.4073967"><ele>330.0</ele><time>2026-04-12T07:11:04.634Z</time></trkpt><trkpt lat="41.101055" lon="16.4070917"><ele>330.0</ele><time>2026-04-12T07:11:05.638Z</time></trkpt><trkpt lat="41.1009533" lon="16.406775"><ele>330.0</ele><time>2026-04-12T07:11:06.634Z</time></trkpt><trkpt lat="41.1008517" lon="16.40645"><ele>330.0</ele><time>2026-04-12T07:11:07.634Z</time></trkpt><trkpt lat="41.1007417" lon="16.4061117"><ele>328.5</ele><time>2026-04-12T07:11:08.636Z</time></trkpt><trkpt lat="41.1006317" lon="16.40577"><ele>327.0</ele><time>2026-04-12T07:11:09.637Z</time></trkpt><trkpt lat="41.10052" lon="16.405425"><ele>326.5</ele><time>2026-04-12T07:11:10.636Z</time></trkpt><trkpt lat="41.10041" lon="16.4050833"><ele>326.0</ele><time>2026-04-12T07:11:11.635Z</time></trkpt><trkpt lat="41.100305" lon="16.4047533"><ele>327.0</ele><time>2026-04-12T07:11:12.636Z</time></trkpt><trkpt lat="41.1002017" lon="16.4044433"><ele>328.0</ele><time>2026-04-12T07:11:13.634Z</time></trkpt><trkpt lat="41.1001067" lon="16.4041517"><ele>328.0</ele><time>2026-04-12T07:11:14.635Z</time></trkpt><trkpt lat="41.1000217" lon="16.4038667"><ele>328.0</ele><time>2026-04-12T07:11:15.634Z</time></trkpt><trkpt lat="41.09995" lon="16.4035717"><ele>328.5</ele><time>2026-04-12T07:11:16.633Z</time></trkpt><trkpt lat="41.0998933" lon="16.4032583"><ele>329.0</ele><time>2026-04-12T07:11:17.634Z</time></trkpt><trkpt lat="41.09985" lon="16.4029333"><ele>329.0</ele><time>2026-04-12T07:11:18.633Z</time></trkpt><trkpt lat="41.0998167" lon="16.4026"><ele>329.0</ele><time>2026-04-12T07:11:19.635Z</time></trkpt><trkpt lat="41.0997883" lon="16.4022617"><ele>330.0</ele><time>2026-04-12T07:11:20.634Z</time></trkpt><trkpt lat="41.0997633" lon="16.401915"><ele>331.0</ele><time>2026-04-12T07:11:21.633Z</time></trkpt><trkpt lat="41.09974" lon="16.401565"><ele>332.5</ele><time>2026-04-12T07:11:22.634Z</time></trkpt><trkpt lat="41.099715" lon="16.401215"><ele>334.0</ele><time>2026-04-12T07:11:23.636Z</time></trkpt><trkpt lat="41.0996883" lon="16.4008633"><ele>334.0</ele><time>2026-04-12T07:11:24.634Z</time></trkpt><trkpt lat="41.0996617" lon="16.4005133"><ele>334.0</ele><time>2026-04-12T07:11:25.633Z</time></trkpt><trkpt lat="41.0996367" lon="16.4001633"><ele>333.5</ele><time>2026-04-12T07:11:26.634Z</time></trkpt><trkpt lat="41.09961" lon="16.399815"><ele>333.0</ele><time>2026-04-12T07:11:27.634Z</time></trkpt><trkpt lat="41.0995833" lon="16.3994633"><ele>333.0</ele><time>2026-04-12T07:11:28.633Z</time></trkpt><trkpt lat="41.0995583" lon="16.3991117"><ele>333.0</ele><time>2026-04-12T07:11:29.634Z</time></trkpt><trkpt lat="41.099535" lon="16.39876"><ele>333.0</ele><time>2026-04-12T07:11:30.635Z</time></trkpt><trkpt lat="41.09951" lon="16.3984133"><ele>333.0</ele><time>2026-04-12T07:11:31.633Z</time></trkpt><trkpt lat="41.099485" lon="16.3980683"><ele>330.5</ele><time>2026-04-12T07:11:32.639Z</time></trkpt><trkpt lat="41.0994583" lon="16.397725"><ele>328.0</ele><time>2026-04-12T07:11:33.634Z</time></trkpt><trkpt lat="41.099435" lon="16.39738"><ele>327.5</ele><time>2026-04-12T07:11:34.634Z</time></trkpt><trkpt lat="41.09941" lon="16.3970317"><ele>327.0</ele><time>2026-04-12T07:11:35.634Z</time></trkpt><trkpt lat="41.0993833" lon="16.3966833"><ele>326.5</ele><time>2026-04-12T07:11:36.634Z</time></trkpt><trkpt lat="41.0993567" lon="16.396335"><ele>326.0</ele><time>2026-04-12T07:11:37.634Z</time></trkpt><trkpt lat="41.09933" lon="16.39599"><ele>326.0</ele><time>2026-04-12T07:11:38.636Z</time></trkpt><trkpt lat="41.099305" lon="16.395645"><ele>326.0</ele><time>2026-04-12T07:11:39.633Z</time></trkpt><trkpt lat="41.09928" lon="16.3953"><ele>326.0</ele><time>2026-04-12T07:11:40.633Z</time></trkpt><trkpt lat="41.0992533" lon="16.3949533"><ele>326.0</ele><time>2026-04-12T07:11:41.634Z</time></trkpt><trkpt lat="41.0992283" lon="16.3946067"><ele>326.0</ele><time>2026-04-12T07:11:42.639Z</time></trkpt><trkpt lat="41.0992033" lon="16.3942567"><ele>326.0</ele><time>2026-04-12T07:11:43.635Z</time></trkpt><trkpt lat="41.0991783" lon="16.3939033"><ele>326.0</ele><time>2026-04-12T07:11:44.636Z</time></trkpt><trkpt lat="41.0991533" lon="16.3935533"><ele>326.0</ele><time>2026-04-12T07:11:45.635Z</time></trkpt><trkpt lat="41.09913" lon="16.3932"><ele>326.5</ele><time>2026-04-12T07:11:46.636Z</time></trkpt><trkpt lat="41.0991067" lon="16.3928433"><ele>327.0</ele><time>2026-04-12T07:11:47.635Z</time></trkpt><trkpt lat="41.0990817" lon="16.3924817"><ele>327.5</ele><time>2026-04-12T07:11:48.635Z</time></trkpt><trkpt lat="41.09905" lon="16.3921217"><ele>328.0</ele><time>2026-04-12T07:11:49.637Z</time></trkpt><trkpt lat="41.0990217" lon="16.3917567"><ele>328.0</ele><time>2026-04-12T07:11:50.638Z</time></trkpt><trkpt lat="41.098995" lon="16.3913933"><ele>328.0</ele><time>2026-04-12T07:11:51.636Z</time></trkpt><trkpt lat="41.0989683" lon="16.3910267"><ele>327.5</ele><time>2026-04-12T07:11:52.636Z</time></trkpt><trkpt lat="41.0989417" lon="16.3906617"><ele>327.0</ele><time>2026-04-12T07:11:53.637Z</time></trkpt><trkpt lat="41.098915" lon="16.3902933"><ele>326.5</ele><time>2026-04-12T07:11:54.637Z</time></trkpt><trkpt lat="41.09889" lon="16.3899267"><ele>326.0</ele><time>2026-04-12T07:11:55.635Z</time></trkpt><trkpt lat="41.0988617" lon="16.3895617"><ele>327.5</ele><time>2026-04-12T07:11:56.635Z</time></trkpt><trkpt lat="41.098835" lon="16.3891983"><ele>329.0</ele><time>2026-04-12T07:11:57.635Z</time></trkpt><trkpt lat="41.0988083" lon="16.3888367"><ele>329.5</ele><time>2026-04-12T07:11:58.634Z</time></trkpt><trkpt lat="41.098785" lon="16.3884883"><ele>330.0</ele><time>2026-04-12T07:11:59.635Z</time></trkpt><trkpt lat="41.09876" lon="16.3881633"><ele>330.5</ele><time>2026-04-12T07:12:00.635Z</time></trkpt><trkpt lat="41.098735" lon="16.387845"><ele>331.0</ele><time>2026-04-12T07:12:01.634Z</time></trkpt><trkpt lat="41.09871" lon="16.3875183"><ele>331.0</ele><time>2026-04-12T07:12:02.636Z</time></trkpt><trkpt lat="41.098685" lon="16.3871833"><ele>331.0</ele><time>2026-04-12T07:12:03.635Z</time></trkpt><trkpt lat="41.0986633" lon="16.3868467"><ele>331.0</ele><time>2026-04-12T07:12:04.635Z</time></trkpt><trkpt lat="41.09864" lon="16.3865067"><ele>331.0</ele><time>2026-04-12T07:12:05.635Z</time></trkpt><trkpt lat="41.0986117" lon="16.38616"><ele>331.0</ele><time>2026-04-12T07:12:06.635Z</time></trkpt><trkpt lat="41.0985867" lon="16.38581"><ele>331.0</ele><time>2026-04-12T07:12:07.634Z</time></trkpt><trkpt lat="41.0985567" lon="16.385455"><ele>330.5</ele><time>2026-04-12T07:12:08.635Z</time></trkpt><trkpt lat="41.09853" lon="16.3851017"><ele>330.0</ele><time>2026-04-12T07:12:09.634Z</time></trkpt><trkpt lat="41.0985017" lon="16.3847483"><ele>329.5</ele><time>2026-04-12T07:12:10.635Z</time></trkpt><trkpt lat="41.0984733" lon="16.3843967"><ele>329.0</ele><time>2026-04-12T07:12:11.634Z</time></trkpt><trkpt lat="41.098445" lon="16.3840467"><ele>328.5</ele><time>2026-04-12T07:12:12.634Z</time></trkpt><trkpt lat="41.09842" lon="16.383695"><ele>328.0</ele><time>2026-04-12T07:12:13.634Z</time></trkpt><trkpt lat="41.0983933" lon="16.3833433"><ele>328.5</ele><time>2026-04-12T07:12:14.635Z</time></trkpt><trkpt lat="41.09837" lon="16.38299"><ele>329.0</ele><time>2026-04-12T07:12:15.635Z</time></trkpt><trkpt lat="41.098345" lon="16.3826433"><ele>329.0</ele><time>2026-04-12T07:12:16.634Z</time></trkpt><trkpt lat="41.09832" lon="16.3823033"><ele>329.0</ele><time>2026-04-12T07:12:17.636Z</time></trkpt><trkpt lat="41.0982917" lon="16.381965"><ele>329.0</ele><time>2026-04-12T07:12:18.634Z</time></trkpt><trkpt lat="41.09826" lon="16.38164"><ele>329.0</ele><time>2026-04-12T07:12:19.636Z</time></trkpt><trkpt lat="41.09823" lon="16.381315"><ele>329.0</ele><time>2026-04-12T07:12:20.636Z</time></trkpt><trkpt lat="41.0982083" lon="16.3809783"><ele>329.0</ele><time>2026-04-12T07:12:21.637Z</time></trkpt><trkpt lat="41.0981883" lon="16.3806517"><ele>330.0</ele><time>2026-04-12T07:12:22.635Z</time></trkpt><trkpt lat="41.09817" lon="16.3803467"><ele>331.0</ele><time>2026-04-12T07:12:23.637Z</time></trkpt><trkpt lat="41.09815" lon="16.380055"><ele>331.0</ele><time>2026-04-12T07:12:24.635Z</time></trkpt><trkpt lat="41.09813" lon="16.3797833"><ele>331.0</ele><time>2026-04-12T07:12:25.635Z</time></trkpt><trkpt lat="41.0981117" lon="16.3795283"><ele>331.0</ele><time>2026-04-12T07:12:26.635Z</time></trkpt><trkpt lat="41.0980967" lon="16.3792867"><ele>331.3333333333333</ele><time>2026-04-12T07:12:27.635Z</time></trkpt><trkpt lat="41.0980833" lon="16.3790617"><ele>331.6666666666667</ele><time>2026-04-12T07:12:28.634Z</time></trkpt><trkpt lat="41.09807" lon="16.3788483"><ele>332.0</ele><time>2026-04-12T07:12:29.634Z</time></trkpt><trkpt lat="41.0980583" lon="16.3786467"><ele>332.5</ele><time>2026-04-12T07:12:30.634Z</time></trkpt><trkpt lat="41.0980467" lon="16.3784517"><ele>333.0</ele><time>2026-04-12T07:12:31.636Z</time></trkpt><trkpt lat="41.098035" lon="16.3782717"><ele>333.5</ele><time>2026-04-12T07:12:32.635Z</time></trkpt><trkpt lat="41.098025" lon="16.3781067"><ele>334.0</ele><time>2026-04-12T07:12:33.634Z</time></trkpt><trkpt lat="41.098025" lon="16.3779517"><ele>334.2</ele><time>2026-04-12T07:12:34.634Z</time></trkpt><trkpt lat="41.09804" lon="16.377815"><ele>334.4</ele><time>2026-04-12T07:12:35.634Z</time></trkpt><trkpt lat="41.09806" lon="16.3777"><ele>334.6</ele><time>2026-04-12T07:12:36.636Z</time></trkpt><trkpt lat="41.0980767" lon="16.3776017"><ele>334.8</ele><time>2026-04-12T07:12:37.636Z</time></trkpt><trkpt lat="41.0980817" lon="16.37745"><ele>335.0</ele><time>2026-04-12T07:12:39.634Z</time></trkpt><trkpt lat="41.0979967" lon="16.3773667"><ele>335.0</ele><time>2026-04-12T07:12:41.637Z</time></trkpt><trkpt lat="41.0978683" lon="16.3773817"><ele>335.0</ele><time>2026-04-12T07:12:43.634Z</time></trkpt><trkpt lat="41.0977817" lon="16.37743"><ele>335.0</ele><time>2026-04-12T07:12:44.635Z</time></trkpt><trkpt lat="41.09768" lon="16.3774767"><ele>335.0</ele><time>2026-04-12T07:12:45.635Z</time></trkpt><trkpt lat="41.0975433" lon="16.377515"><ele>335.6666666666667</ele><time>2026-04-12T07:12:46.634Z</time></trkpt><trkpt lat="41.0973883" lon="16.3775233"><ele>336.3333333333333</ele><time>2026-04-12T07:12:47.636Z</time></trkpt><trkpt lat="41.0972233" lon="16.3775233"><ele>337.0</ele><time>2026-04-12T07:12:48.635Z</time></trkpt><trkpt lat="41.097055" lon="16.3775217"><ele>337.0</ele><time>2026-04-12T07:12:49.636Z</time></trkpt><trkpt lat="41.0968783" lon="16.3775183"><ele>337.0</ele><time>2026-04-12T07:12:50.635Z</time></trkpt><trkpt lat="41.0966933" lon="16.3775167"><ele>337.0</ele><time>2026-04-12T07:12:51.635Z</time></trkpt><trkpt lat="41.0964983" lon="16.3775133"><ele>337.3333333333333</ele><time>2026-04-12T07:12:52.635Z</time></trkpt><trkpt lat="41.0962883" lon="16.3775067"><ele>337.6666666666667</ele><time>2026-04-12T07:12:53.636Z</time></trkpt><trkpt lat="41.0960717" lon="16.3774983"><ele>338.0</ele><time>2026-04-12T07:12:54.635Z</time></trkpt><trkpt lat="41.0958567" lon="16.3774933"><ele>338.6666666666667</ele><time>2026-04-12T07:12:55.635Z</time></trkpt><trkpt lat="41.0956383" lon="16.3774883"><ele>339.3333333333333</ele><time>2026-04-12T07:12:56.634Z</time></trkpt><trkpt lat="41.09542" lon="16.377485"><ele>340.0</ele><time>2026-04-12T07:12:57.634Z</time></trkpt><trkpt lat="41.0952033" lon="16.37748"><ele>340.0</ele><time>2026-04-12T07:12:58.635Z</time></trkpt><trkpt lat="41.094995" lon="16.377475"><ele>340.0</ele><time>2026-04-12T07:12:59.636Z</time></trkpt><trkpt lat="41.0947967" lon="16.3774667"><ele>340.0</ele><time>2026-04-12T07:13:00.634Z</time></trkpt><trkpt lat="41.09461" lon="16.37746"><ele>340.3333333333333</ele><time>2026-04-12T07:13:01.635Z</time></trkpt><trkpt lat="41.0944317" lon="16.3774567"><ele>340.6666666666667</ele><time>2026-04-12T07:13:02.635Z</time></trkpt><trkpt lat="41.0942533" lon="16.377455"><ele>341.0</ele><time>2026-04-12T07:13:03.634Z</time></trkpt><trkpt lat="41.0940883" lon="16.37745"><ele>341.6666666666667</ele><time>2026-04-12T07:13:04.634Z</time></trkpt><trkpt lat="41.0939267" lon="16.37745"><ele>342.3333333333333</ele><time>2026-04-12T07:13:05.638Z</time></trkpt><trkpt lat="41.0937667" lon="16.3774483"><ele>343.0</ele><time>2026-04-12T07:13:06.635Z</time></trkpt><trkpt lat="41.0936017" lon="16.37745"><ele>343.0</ele><time>2026-04-12T07:13:07.636Z</time></trkpt><trkpt lat="41.0934283" lon="16.3774483"><ele>343.0</ele><time>2026-04-12T07:13:08.635Z</time></trkpt><trkpt lat="41.093255" lon="16.3774467"><ele>343.0</ele><time>2026-04-12T07:13:09.635Z</time></trkpt><trkpt lat="41.093085" lon="16.3774417"><ele>342.66666666666663</ele><time>2026-04-12T07:13:10.635Z</time></trkpt><trkpt lat="41.09292" lon="16.3774367"><ele>342.3333333333333</ele><time>2026-04-12T07:13:11.635Z</time></trkpt><trkpt lat="41.0927467" lon="16.377435"><ele>342.0</ele><time>2026-04-12T07:13:12.638Z</time></trkpt><trkpt lat="41.09257" lon="16.37744"><ele>343.0</ele><time>2026-04-12T07:13:13.635Z</time></trkpt><trkpt lat="41.0923867" lon="16.377445"><ele>344.0</ele><time>2026-04-12T07:13:14.635Z</time></trkpt><trkpt lat="41.0921983" lon="16.3774517"><ele>345.0</ele><time>2026-04-12T07:13:15.634Z</time></trkpt><trkpt lat="41.092005" lon="16.3774583"><ele>345.0</ele><time>2026-04-12T07:13:16.635Z</time></trkpt><trkpt lat="41.09181" lon="16.3774617"><ele>345.0</ele><time>2026-04-12T07:13:17.636Z</time></trkpt><trkpt lat="41.0916117" lon="16.3774617"><ele>345.0</ele><time>2026-04-12T07:13:18.637Z</time></trkpt><trkpt lat="41.0914133" lon="16.3774633"><ele>346.6666666666667</ele><time>2026-04-12T07:13:19.642Z</time></trkpt><trkpt lat="41.0912183" lon="16.3774667"><ele>348.33333333333337</ele><time>2026-04-12T07:13:20.636Z</time></trkpt><trkpt lat="41.0910233" lon="16.377465"><ele>350.0</ele><time>2026-04-12T07:13:21.637Z</time></trkpt><trkpt lat="41.09083" lon="16.37746"><ele>351.6666666666667</ele><time>2026-04-12T07:13:22.636Z</time></trkpt><trkpt lat="41.090635" lon="16.37746"><ele>353.3333333333333</ele><time>2026-04-12T07:13:23.643Z</time></trkpt><trkpt lat="41.0904383" lon="16.377465"><ele>355.0</ele><time>2026-04-12T07:13:24.635Z</time></trkpt><trkpt lat="41.0902417" lon="16.37747"><ele>355.0</ele><time>2026-04-12T07:13:25.635Z</time></trkpt><trkpt lat="41.0900433" lon="16.37747"><ele>355.0</ele><time>2026-04-12T07:13:26.635Z</time></trkpt><trkpt lat="41.0898467" lon="16.3774717"><ele>355.0</ele><time>2026-04-12T07:13:27.634Z</time></trkpt><trkpt lat="41.08965" lon="16.3774717"><ele>356.3333333333333</ele><time>2026-04-12T07:13:28.635Z</time></trkpt><trkpt lat="41.0894667" lon="16.3774767"><ele>357.6666666666667</ele><time>2026-04-12T07:13:29.636Z</time></trkpt><trkpt lat="41.0892933" lon="16.3774783"><ele>359.0</ele><time>2026-04-12T07:13:30.634Z</time></trkpt><trkpt lat="41.0891183" lon="16.37748"><ele>360.0</ele><time>2026-04-12T07:13:31.634Z</time></trkpt><trkpt lat="41.0889417" lon="16.3774783"><ele>361.0</ele><time>2026-04-12T07:13:32.636Z</time></trkpt><trkpt lat="41.0887583" lon="16.377475"><ele>362.0</ele><time>2026-04-12T07:13:33.635Z</time></trkpt><trkpt lat="41.08857" lon="16.3774717"><ele>362.0</ele><time>2026-04-12T07:13:34.636Z</time></trkpt><trkpt lat="41.08839" lon="16.37747"><ele>362.0</ele><time>2026-04-12T07:13:35.634Z</time></trkpt><trkpt lat="41.0882333" lon="16.3774717"><ele>362.0</ele><time>2026-04-12T07:13:36.635Z</time></trkpt><trkpt lat="41.0880917" lon="16.377465"><ele>362.33333333333337</ele><time>2026-04-12T07:13:37.635Z</time></trkpt><trkpt lat="41.08795" lon="16.3774367"><ele>362.6666666666667</ele><time>2026-04-12T07:13:38.635Z</time></trkpt><trkpt lat="41.087795" lon="16.3773783"><ele>363.0</ele><time>2026-04-12T07:13:39.635Z</time></trkpt><trkpt lat="41.0876417" lon="16.3773067"><ele>363.0</ele><time>2026-04-12T07:13:40.634Z</time></trkpt><trkpt lat="41.0875" lon="16.3772333"><ele>363.0</ele><time>2026-04-12T07:13:41.636Z</time></trkpt><trkpt lat="41.0873583" lon="16.37717"><ele>363.0</ele><time>2026-04-12T07:13:42.638Z</time></trkpt><trkpt lat="41.08721" lon="16.3771033"><ele>362.0</ele><time>2026-04-12T07:13:43.635Z</time></trkpt><trkpt lat="41.0870533" lon="16.37703"><ele>361.0</ele><time>2026-04-12T07:13:44.636Z</time></trkpt><trkpt lat="41.0868817" lon="16.3769533"><ele>360.0</ele><time>2026-04-12T07:13:45.634Z</time></trkpt><trkpt lat="41.086695" lon="16.3768683"><ele>359.3333333333333</ele><time>2026-04-12T07:13:46.634Z</time></trkpt><trkpt lat="41.0865" lon="16.3767817"><ele>358.66666666666663</ele><time>2026-04-12T07:13:47.635Z</time></trkpt><trkpt lat="41.0863" lon="16.3766967"><ele>358.0</ele><time>2026-04-12T07:13:48.64Z</time></trkpt><trkpt lat="41.0861" lon="16.3766083"><ele>358.0</ele><time>2026-04-12T07:13:49.635Z</time></trkpt><trkpt lat="41.0858983" lon="16.3765167"><ele>358.0</ele><time>2026-04-12T07:13:50.635Z</time></trkpt><trkpt lat="41.0856933" lon="16.3764217"><ele>358.0</ele><time>2026-04-12T07:13:51.634Z</time></trkpt><trkpt lat="41.0854833" lon="16.3763267"><ele>357.0</ele><time>2026-04-12T07:13:52.633Z</time></trkpt><trkpt lat="41.0852683" lon="16.37623"><ele>356.0</ele><time>2026-04-12T07:13:53.636Z</time></trkpt><trkpt lat="41.085055" lon="16.376135"><ele>355.0</ele><time>2026-04-12T07:13:54.635Z</time></trkpt><trkpt lat="41.0848417" lon="16.3760417"><ele>354.0</ele><time>2026-04-12T07:13:55.634Z</time></trkpt><trkpt lat="41.0846233" lon="16.375945"><ele>354.0</ele><time>2026-04-12T07:13:56.635Z</time></trkpt><trkpt lat="41.0844017" lon="16.3758467"><ele>354.0</ele><time>2026-04-12T07:13:57.634Z</time></trkpt><trkpt lat="41.0841767" lon="16.3757483"><ele>353.5</ele><time>2026-04-12T07:13:58.64Z</time></trkpt><trkpt lat="41.08395" lon="16.3756467"><ele>353.0</ele><time>2026-04-12T07:13:59.635Z</time></trkpt><trkpt lat="41.08372" lon="16.375545"><ele>353.6666666666667</ele><time>2026-04-12T07:14:00.635Z</time></trkpt><trkpt lat="41.0835017" lon="16.37545"><ele>354.3333333333333</ele><time>2026-04-12T07:14:01.637Z</time></trkpt><trkpt lat="41.083295" lon="16.3753617"><ele>355.0</ele><time>2026-04-12T07:14:02.638Z</time></trkpt><trkpt lat="41.0831033" lon="16.3752717"><ele>355.0</ele><time>2026-04-12T07:14:03.639Z</time></trkpt><trkpt lat="41.0829133" lon="16.3752417"><ele>355.0</ele><time>2026-04-12T07:14:04.636Z</time></trkpt><trkpt lat="41.0827167" lon="16.3751667"><ele>355.0</ele><time>2026-04-12T07:14:05.635Z</time></trkpt><trkpt lat="41.08251" lon="16.3750933"><ele>354.66666666666663</ele><time>2026-04-12T07:14:06.635Z</time></trkpt><trkpt lat="41.0823117" lon="16.37501"><ele>354.3333333333333</ele><time>2026-04-12T07:14:07.635Z</time></trkpt><trkpt lat="41.0821183" lon="16.3749117"><ele>354.0</ele><time>2026-04-12T07:14:08.637Z</time></trkpt><trkpt lat="41.0819217" lon="16.3748083"><ele>354.0</ele><time>2026-04-12T07:14:09.635Z</time></trkpt><trkpt lat="41.0817217" lon="16.3746983"><ele>354.0</ele><time>2026-04-12T07:14:10.635Z</time></trkpt><trkpt lat="41.081515" lon="16.3746017"><ele>354.0</ele><time>2026-04-12T07:14:11.634Z</time></trkpt><trkpt lat="41.081305" lon="16.3745033"><ele>353.0</ele><time>2026-04-12T07:14:12.635Z</time></trkpt><trkpt lat="41.0810967" lon="16.374405"><ele>352.0</ele><time>2026-04-12T07:14:13.635Z</time></trkpt><trkpt lat="41.080885" lon="16.3743"><ele>351.0</ele><time>2026-04-12T07:14:14.635Z</time></trkpt><trkpt lat="41.0806733" lon="16.37419"><ele>350.5</ele><time>2026-04-12T07:14:15.635Z</time></trkpt><trkpt lat="41.0804633" lon="16.3740783"><ele>350.0</ele><time>2026-04-12T07:14:16.635Z</time></trkpt><trkpt lat="41.080255" lon="16.373965"><ele>349.33333333333337</ele><time>2026-04-12T07:14:17.635Z</time></trkpt><trkpt lat="41.0800517" lon="16.3738533"><ele>348.6666666666667</ele><time>2026-04-12T07:14:18.634Z</time></trkpt><trkpt lat="41.0798617" lon="16.373745"><ele>348.0</ele><time>2026-04-12T07:14:19.634Z</time></trkpt><trkpt lat="41.0796867" lon="16.3736483"><ele>348.0</ele><time>2026-04-12T07:14:20.635Z</time></trkpt><trkpt lat="41.0795233" lon="16.3735617"><ele>348.0</ele><time>2026-04-12T07:14:21.635Z</time></trkpt><trkpt lat="41.07937" lon="16.3734833"><ele>348.0</ele><time>2026-04-12T07:14:22.634Z</time></trkpt><trkpt lat="41.079225" lon="16.37341"><ele>347.6666666666667</ele><time>2026-04-12T07:14:23.635Z</time></trkpt><trkpt lat="41.0790733" lon="16.3733433"><ele>347.33333333333337</ele><time>2026-04-12T07:14:24.634Z</time></trkpt><trkpt lat="41.0789117" lon="16.3732733"><ele>347.0</ele><time>2026-04-12T07:14:25.637Z</time></trkpt><trkpt lat="41.07874" lon="16.3731867"><ele>347.0</ele><time>2026-04-12T07:14:26.635Z</time></trkpt><trkpt lat="41.07856" lon="16.3730817"><ele>347.0</ele><time>2026-04-12T07:14:27.634Z</time></trkpt><trkpt lat="41.0783683" lon="16.3729717"><ele>347.0</ele><time>2026-04-12T07:14:28.634Z</time></trkpt><trkpt lat="41.078175" lon="16.37286"><ele>346.6666666666667</ele><time>2026-04-12T07:14:29.634Z</time></trkpt><trkpt lat="41.07798" lon="16.3727417"><ele>346.3333333333333</ele><time>2026-04-12T07:14:30.634Z</time></trkpt><trkpt lat="41.0777817" lon="16.3726217"><ele>346.0</ele><time>2026-04-12T07:14:31.634Z</time></trkpt><trkpt lat="41.0775817" lon="16.3724983"><ele>346.0</ele><time>2026-04-12T07:14:32.634Z</time></trkpt><trkpt lat="41.07738" lon="16.3723683"><ele>346.0</ele><time>2026-04-12T07:14:33.634Z</time></trkpt><trkpt lat="41.077175" lon="16.37224"><ele>346.0</ele><time>2026-04-12T07:14:34.634Z</time></trkpt><trkpt lat="41.0769667" lon="16.372115"><ele>346.0</ele><time>2026-04-12T07:14:35.635Z</time></trkpt><trkpt lat="41.0767567" lon="16.3719917"><ele>346.3333333333333</ele><time>2026-04-12T07:14:36.634Z</time></trkpt><trkpt lat="41.07655" lon="16.371865"><ele>346.6666666666667</ele><time>2026-04-12T07:14:37.639Z</time></trkpt><trkpt lat="41.07635" lon="16.3717433"><ele>347.0</ele><time>2026-04-12T07:14:38.639Z</time></trkpt><trkpt lat="41.0761567" lon="16.371625"><ele>347.0</ele><time>2026-04-12T07:14:39.634Z</time></trkpt><trkpt lat="41.07596" lon="16.3715083"><ele>347.0</ele><time>2026-04-12T07:14:40.634Z</time></trkpt><trkpt lat="41.0757633" lon="16.37139"><ele>347.0</ele><time>2026-04-12T07:14:41.634Z</time></trkpt><trkpt lat="41.0755667" lon="16.37127"><ele>347.0</ele><time>2026-04-12T07:14:42.633Z</time></trkpt><trkpt lat="41.07537" lon="16.37115"><ele>347.0</ele><time>2026-04-12T07:14:43.635Z</time></trkpt><trkpt lat="41.0751733" lon="16.371035"><ele>347.0</ele><time>2026-04-12T07:14:44.635Z</time></trkpt><trkpt lat="41.07498" lon="16.3709217"><ele>348.0</ele><time>2026-04-12T07:14:45.635Z</time></trkpt><trkpt lat="41.07479" lon="16.37081"><ele>349.0</ele><time>2026-04-12T07:14:46.635Z</time></trkpt><trkpt lat="41.0746033" lon="16.3706983"><ele>350.0</ele><time>2026-04-12T07:14:47.635Z</time></trkpt><trkpt lat="41.0744183" lon="16.37059"><ele>350.0</ele><time>2026-04-12T07:14:48.635Z</time></trkpt><trkpt lat="41.0742333" lon="16.3704817"><ele>350.0</ele><time>2026-04-12T07:14:49.636Z</time></trkpt><trkpt lat="41.0740533" lon="16.3703767"><ele>350.0</ele><time>2026-04-12T07:14:50.638Z</time></trkpt><trkpt lat="41.0738867" lon="16.370275"><ele>350.33333333333337</ele><time>2026-04-12T07:14:51.64Z</time></trkpt><trkpt lat="41.07373" lon="16.3701833"><ele>350.6666666666667</ele><time>2026-04-12T07:14:52.635Z</time></trkpt><trkpt lat="41.0735833" lon="16.370095"><ele>351.0</ele><time>2026-04-12T07:14:53.635Z</time></trkpt><trkpt lat="41.07344" lon="16.37"><ele>351.0</ele><time>2026-04-12T07:14:54.635Z</time></trkpt><trkpt lat="41.0733033" lon="16.369895"><ele>351.0</ele><time>2026-04-12T07:14:55.635Z</time></trkpt><trkpt lat="41.0731717" lon="16.369775"><ele>351.0</ele><time>2026-04-12T07:14:56.636Z</time></trkpt><trkpt lat="41.07304" lon="16.3696383"><ele>352.3333333333333</ele><time>2026-04-12T07:14:57.636Z</time></trkpt><trkpt lat="41.0729033" lon="16.3694933"><ele>353.66666666666663</ele><time>2026-04-12T07:14:58.634Z</time></trkpt><trkpt lat="41.0727583" lon="16.369345"><ele>355.0</ele><time>2026-04-12T07:14:59.634Z</time></trkpt><trkpt lat="41.0726067" lon="16.369195"><ele>355.0</ele><time>2026-04-12T07:15:00.633Z</time></trkpt><trkpt lat="41.0724483" lon="16.36904"><ele>355.0</ele><time>2026-04-12T07:15:01.634Z</time></trkpt><trkpt lat="41.072295" lon="16.3688917"><ele>355.0</ele><time>2026-04-12T07:15:02.635Z</time></trkpt><trkpt lat="41.0721533" lon="16.3687517"><ele>356.0</ele><time>2026-04-12T07:15:03.634Z</time></trkpt><trkpt lat="41.0720267" lon="16.36863"><ele>357.0</ele><time>2026-04-12T07:15:04.634Z</time></trkpt><trkpt lat="41.07192" lon="16.3685317"><ele>358.0</ele><time>2026-04-12T07:15:05.634Z</time></trkpt><trkpt lat="41.071835" lon="16.3684533"><ele>359.0</ele><time>2026-04-12T07:15:06.635Z</time></trkpt><trkpt lat="41.0717617" lon="16.3683817"><ele>359.0</ele><time>2026-04-12T07:15:07.634Z</time></trkpt><trkpt lat="41.07169" lon="16.3683167"><ele>359.0</ele><time>2026-04-12T07:15:08.634Z</time></trkpt><trkpt lat="41.0716117" lon="16.3682517"><ele>359.0</ele><time>2026-04-12T07:15:09.634Z</time></trkpt><trkpt lat="41.0715317" lon="16.3681783"><ele>359.0</ele><time>2026-04-12T07:15:10.642Z</time></trkpt><trkpt lat="41.071445" lon="16.3680783"><ele>359.0</ele><time>2026-04-12T07:15:11.633Z</time></trkpt><trkpt lat="41.0713417" lon="16.36797"><ele>360.25</ele><time>2026-04-12T07:15:12.635Z</time></trkpt><trkpt lat="41.0712233" lon="16.3678617"><ele>361.5</ele><time>2026-04-12T07:15:13.633Z</time></trkpt><trkpt lat="41.0711017" lon="16.3677517"><ele>362.75</ele><time>2026-04-12T07:15:14.634Z</time></trkpt><trkpt lat="41.0709733" lon="16.36764"><ele>364.0</ele><time>2026-04-12T07:15:15.634Z</time></trkpt><trkpt lat="41.070845" lon="16.36753"><ele>365.0</ele><time>2026-04-12T07:15:16.637Z</time></trkpt><trkpt lat="41.0707167" lon="16.3674317"><ele>366.0</ele><time>2026-04-12T07:15:17.634Z</time></trkpt><trkpt lat="41.0705967" lon="16.36734"><ele>367.0</ele><time>2026-04-12T07:15:18.635Z</time></trkpt><trkpt lat="41.070485" lon="16.3672533"><ele>368.0</ele><time>2026-04-12T07:15:19.635Z</time></trkpt><trkpt lat="41.0703783" lon="16.3671717"><ele>368.5</ele><time>2026-04-12T07:15:20.635Z</time></trkpt><trkpt lat="41.0702733" lon="16.3670933"><ele>369.0</ele><time>2026-04-12T07:15:21.635Z</time></trkpt><trkpt lat="41.070175" lon="16.367025"><ele>369.5</ele><time>2026-04-12T07:15:22.635Z</time></trkpt><trkpt lat="41.0700783" lon="16.3669567"><ele>370.0</ele><time>2026-04-12T07:15:23.635Z</time></trkpt><trkpt lat="41.0699733" lon="16.3668833"><ele>371.0</ele><time>2026-04-12T07:15:24.635Z</time></trkpt><trkpt lat="41.0698583" lon="16.3668"><ele>372.0</ele><time>2026-04-12T07:15:25.636Z</time></trkpt><trkpt lat="41.0697383" lon="16.3666983"><ele>373.0</ele><time>2026-04-12T07:15:26.635Z</time></trkpt><trkpt lat="41.0695983" lon="16.3665883"><ele>374.0</ele><time>2026-04-12T07:15:27.635Z</time></trkpt><trkpt lat="41.06945" lon="16.3664817"><ele>374.0</ele><time>2026-04-12T07:15:28.634Z</time></trkpt><trkpt lat="41.0692967" lon="16.3663917"><ele>374.0</ele><time>2026-04-12T07:15:29.634Z</time></trkpt><trkpt lat="41.0691383" lon="16.3663117"><ele>374.0</ele><time>2026-04-12T07:15:30.635Z</time></trkpt><trkpt lat="41.0689867" lon="16.3662483"><ele>375.75</ele><time>2026-04-12T07:15:31.635Z</time></trkpt><trkpt lat="41.0688517" lon="16.3661983"><ele>377.5</ele><time>2026-04-12T07:15:32.635Z</time></trkpt><trkpt lat="41.0687383" lon="16.3661517"><ele>379.25</ele><time>2026-04-12T07:15:33.634Z</time></trkpt><trkpt lat="41.068635" lon="16.36611"><ele>381.0</ele><time>2026-04-12T07:15:34.634Z</time></trkpt><trkpt lat="41.0685267" lon="16.36607"><ele>381.0</ele><time>2026-04-12T07:15:35.634Z</time></trkpt><trkpt lat="41.068415" lon="16.3660367"><ele>381.0</ele><time>2026-04-12T07:15:36.634Z</time></trkpt><trkpt lat="41.0683017" lon="16.3660067"><ele>381.0</ele><time>2026-04-12T07:15:37.634Z</time></trkpt><trkpt lat="41.0681833" lon="16.3659767"><ele>381.0</ele><time>2026-04-12T07:15:38.634Z</time></trkpt><trkpt lat="41.068055" lon="16.365945"><ele>383.0</ele><time>2026-04-12T07:15:39.633Z</time></trkpt><trkpt lat="41.0679117" lon="16.3659117"><ele>385.0</ele><time>2026-04-12T07:15:40.634Z</time></trkpt><trkpt lat="41.067755" lon="16.3658767"><ele>387.0</ele><time>2026-04-12T07:15:41.634Z</time></trkpt><trkpt lat="41.0675917" lon="16.3658383"><ele>388.66666666666663</ele><time>2026-04-12T07:15:42.633Z</time></trkpt><trkpt lat="41.0674233" lon="16.3658033"><ele>390.3333333333333</ele><time>2026-04-12T07:15:43.634Z</time></trkpt><trkpt lat="41.0672533" lon="16.365765"><ele>392.0</ele><time>2026-04-12T07:15:44.635Z</time></trkpt><trkpt lat="41.0671" lon="16.3657183"><ele>392.0</ele><time>2026-04-12T07:15:45.634Z</time></trkpt><trkpt lat="41.0669517" lon="16.36566"><ele>392.0</ele><time>2026-04-12T07:15:46.634Z</time></trkpt><trkpt lat="41.0668083" lon="16.365585"><ele>392.0</ele><time>2026-04-12T07:15:47.634Z</time></trkpt><trkpt lat="41.066665" lon="16.3654933"><ele>394.3333333333333</ele><time>2026-04-12T07:15:48.633Z</time></trkpt><trkpt lat="41.06652" lon="16.365385"><ele>396.66666666666663</ele><time>2026-04-12T07:15:49.634Z</time></trkpt><trkpt lat="41.0663717" lon="16.3652567"><ele>399.0</ele><time>2026-04-12T07:15:50.64Z</time></trkpt><trkpt lat="41.0662183" lon="16.3651217"><ele>399.0</ele><time>2026-04-12T07:15:51.634Z</time></trkpt><trkpt lat="41.0660517" lon="16.3649833"><ele>399.0</ele><time>2026-04-12T07:15:52.634Z</time></trkpt><trkpt lat="41.0658833" lon="16.3648417"><ele>399.0</ele><time>2026-04-12T07:15:53.634Z</time></trkpt><trkpt lat="41.0657133" lon="16.364695"><ele>401.33333333333337</ele><time>2026-04-12T07:15:54.634Z</time></trkpt><trkpt lat="41.0655467" lon="16.3645433"><ele>403.6666666666667</ele><time>2026-04-12T07:15:55.64Z</time></trkpt><trkpt lat="41.06538" lon="16.3643817"><ele>406.0</ele><time>2026-04-12T07:15:56.634Z</time></trkpt><trkpt lat="41.0652117" lon="16.3642133"><ele>406.0</ele><time>2026-04-12T07:15:57.634Z</time></trkpt><trkpt lat="41.065045" lon="16.3640317"><ele>406.0</ele><time>2026-04-12T07:15:58.634Z</time></trkpt><trkpt lat="41.0648717" lon="16.3638533"><ele>406.0</ele><time>2026-04-12T07:15:59.635Z</time></trkpt><trkpt lat="41.0646933" lon="16.3636767"><ele>409.0</ele><time>2026-04-12T07:16:00.634Z</time></trkpt><trkpt lat="41.0645117" lon="16.3635"><ele>412.0</ele><time>2026-04-12T07:16:01.634Z</time></trkpt><trkpt lat="41.0643283" lon="16.3633183"><ele>412.0</ele><time>2026-04-12T07:16:02.635Z</time></trkpt><trkpt lat="41.064155" lon="16.3631317"><ele>412.0</ele><time>2026-04-12T07:16:03.635Z</time></trkpt><trkpt lat="41.0639967" lon="16.3629533"><ele>412.0</ele><time>2026-04-12T07:16:04.633Z</time></trkpt><trkpt lat="41.0638517" lon="16.36279"><ele>414.0</ele><time>2026-04-12T07:16:05.635Z</time></trkpt><trkpt lat="41.06371" lon="16.3626333"><ele>416.0</ele><time>2026-04-12T07:16:06.634Z</time></trkpt><trkpt lat="41.0635633" lon="16.3624783"><ele>418.0</ele><time>2026-04-12T07:16:07.634Z</time></trkpt><trkpt lat="41.06341" lon="16.362325"><ele>420.0</ele><time>2026-04-12T07:16:08.634Z</time></trkpt><trkpt lat="41.0632467" lon="16.3621917"><ele>422.0</ele><time>2026-04-12T07:16:09.634Z</time></trkpt><trkpt lat="41.063075" lon="16.362075"><ele>424.0</ele><time>2026-04-12T07:16:10.634Z</time></trkpt><trkpt lat="41.0629" lon="16.361955"><ele>424.0</ele><time>2026-04-12T07:16:11.633Z</time></trkpt><trkpt lat="41.0627267" lon="16.3618333"><ele>424.0</ele><time>2026-04-12T07:16:12.634Z</time></trkpt><trkpt lat="41.0625567" lon="16.3616917"><ele>424.0</ele><time>2026-04-12T07:16:13.635Z</time></trkpt><trkpt lat="41.0623883" lon="16.3615383"><ele>425.33333333333337</ele><time>2026-04-12T07:16:14.634Z</time></trkpt><trkpt lat="41.0622067" lon="16.36139"><ele>426.66666666666663</ele><time>2026-04-12T07:16:15.634Z</time></trkpt><trkpt lat="41.0620167" lon="16.36126"><ele>428.0</ele><time>2026-04-12T07:16:16.633Z</time></trkpt><trkpt lat="41.0618367" lon="16.3611483"><ele>428.0</ele><time>2026-04-12T07:16:17.634Z</time></trkpt><trkpt lat="41.0616717" lon="16.36104"><ele>428.0</ele><time>2026-04-12T07:16:18.633Z</time></trkpt><trkpt lat="41.0615217" lon="16.3609133"><ele>428.0</ele><time>2026-04-12T07:16:19.636Z</time></trkpt><trkpt lat="41.0613733" lon="16.3607583"><ele>430.66666666666663</ele><time>2026-04-12T07:16:20.634Z</time></trkpt><trkpt lat="41.0612267" lon="16.3605817"><ele>433.33333333333337</ele><time>2026-04-12T07:16:21.633Z</time></trkpt><trkpt lat="41.0610867" lon="16.3604067"><ele>436.0</ele><time>2026-04-12T07:16:22.634Z</time></trkpt><trkpt lat="41.0609633" lon="16.3602383"><ele>436.0</ele><time>2026-04-12T07:16:23.634Z</time></trkpt><trkpt lat="41.06085" lon="16.360075"><ele>436.0</ele><time>2026-04-12T07:16:24.633Z</time></trkpt><trkpt lat="41.06072" lon="16.3599217"><ele>436.0</ele><time>2026-04-12T07:16:25.634Z</time></trkpt><trkpt lat="41.0605783" lon="16.3597783"><ele>439.33333333333337</ele><time>2026-04-12T07:16:26.635Z</time></trkpt><trkpt lat="41.0604333" lon="16.3596517"><ele>442.66666666666663</ele><time>2026-04-12T07:16:27.633Z</time></trkpt><trkpt lat="41.0602817" lon="16.3595433"><ele>446.0</ele><time>2026-04-12T07:16:28.634Z</time></trkpt><trkpt lat="41.06012" lon="16.3594417"><ele>448.0</ele><time>2026-04-12T07:16:29.635Z</time></trkpt><trkpt lat="41.059945" lon="16.3593433"><ele>450.0</ele><time>2026-04-12T07:16:30.634Z</time></trkpt><trkpt lat="41.0597683" lon="16.35924"><ele>452.0</ele><time>2026-04-12T07:16:31.635Z</time></trkpt><trkpt lat="41.0595917" lon="16.3591267"><ele>452.0</ele><time>2026-04-12T07:16:32.636Z</time></trkpt><trkpt lat="41.0594167" lon="16.3590017"><ele>452.0</ele><time>2026-04-12T07:16:33.635Z</time></trkpt><trkpt lat="41.059255" lon="16.3588567"><ele>452.0</ele><time>2026-04-12T07:16:34.634Z</time></trkpt><trkpt lat="41.059095" lon="16.3587067"><ele>455.3333333333333</ele><time>2026-04-12T07:16:35.634Z</time></trkpt><trkpt lat="41.0589417" lon="16.35854"><ele>458.66666666666663</ele><time>2026-04-12T07:16:36.634Z</time></trkpt><trkpt lat="41.0587983" lon="16.35836"><ele>462.0</ele><time>2026-04-12T07:16:37.633Z</time></trkpt><trkpt lat="41.05867" lon="16.3581883"><ele>462.0</ele><time>2026-04-12T07:16:38.636Z</time></trkpt><trkpt lat="41.05855" lon="16.3580367"><ele>462.0</ele><time>2026-04-12T07:16:39.634Z</time></trkpt><trkpt lat="41.05844" lon="16.35791"><ele>462.0</ele><time>2026-04-12T07:16:40.634Z</time></trkpt><trkpt lat="41.05833" lon="16.3577983"><ele>463.66666666666663</ele><time>2026-04-12T07:16:41.633Z</time></trkpt><trkpt lat="41.0581967" lon="16.35771"><ele>465.3333333333333</ele><time>2026-04-12T07:16:42.633Z</time></trkpt><trkpt lat="41.0580417" lon="16.3576267"><ele>467.0</ele><time>2026-04-12T07:16:43.634Z</time></trkpt><trkpt lat="41.05787" lon="16.3575367"><ele>467.0</ele><time>2026-04-12T07:16:44.635Z</time></trkpt><trkpt lat="41.05769" lon="16.35744"><ele>467.0</ele><time>2026-04-12T07:16:45.634Z</time></trkpt><trkpt lat="41.057505" lon="16.3573367"><ele>467.0</ele><time>2026-04-12T07:16:46.634Z</time></trkpt><trkpt lat="41.057315" lon="16.3572333"><ele>467.66666666666663</ele><time>2026-04-12T07:16:47.637Z</time></trkpt><trkpt lat="41.057125" lon="16.357125"><ele>468.33333333333337</ele><time>2026-04-12T07:16:48.634Z</time></trkpt><trkpt lat="41.0569317" lon="16.3570183"><ele>469.0</ele><time>2026-04-12T07:16:49.635Z</time></trkpt><trkpt lat="41.0567383" lon="16.3569083"><ele>468.0</ele><time>2026-04-12T07:16:50.635Z</time></trkpt><trkpt lat="41.0565417" lon="16.3567983"><ele>467.0</ele><time>2026-04-12T07:16:51.634Z</time></trkpt><trkpt lat="41.0563433" lon="16.3566867"><ele>466.0</ele><time>2026-04-12T07:16:52.634Z</time></trkpt><trkpt lat="41.05614" lon="16.3565717"><ele>466.0</ele><time>2026-04-12T07:16:53.635Z</time></trkpt><trkpt lat="41.0559333" lon="16.356455"><ele>466.0</ele><time>2026-04-12T07:16:54.634Z</time></trkpt><trkpt lat="41.055725" lon="16.3563333"><ele>468.0</ele><time>2026-04-12T07:16:55.635Z</time></trkpt><trkpt lat="41.0555133" lon="16.3562117"><ele>470.0</ele><time>2026-04-12T07:16:56.635Z</time></trkpt><trkpt lat="41.05531" lon="16.3560967"><ele>470.0</ele><time>2026-04-12T07:16:57.634Z</time></trkpt><trkpt lat="41.0551217" lon="16.3559933"><ele>470.0</ele><time>2026-04-12T07:16:58.634Z</time></trkpt><trkpt lat="41.0549583" lon="16.3559083"><ele>470.0</ele><time>2026-04-12T07:16:59.635Z</time></trkpt><trkpt lat="41.0548167" lon="16.3558217"><ele>470.66666666666663</ele><time>2026-04-12T07:17:00.634Z</time></trkpt><trkpt lat="41.0546833" lon="16.3557167"><ele>471.33333333333337</ele><time>2026-04-12T07:17:01.636Z</time></trkpt><trkpt lat="41.054545" lon="16.35559"><ele>472.0</ele><time>2026-04-12T07:17:02.636Z</time></trkpt><trkpt lat="41.0544017" lon="16.355445"><ele>473.0</ele><time>2026-04-12T07:17:03.635Z</time></trkpt><trkpt lat="41.0542483" lon="16.3552967"><ele>474.0</ele><time>2026-04-12T07:17:04.636Z</time></trkpt><trkpt lat="41.054085" lon="16.3551433"><ele>475.0</ele><time>2026-04-12T07:17:05.635Z</time></trkpt><trkpt lat="41.05392" lon="16.354985"><ele>475.0</ele><time>2026-04-12T07:17:06.634Z</time></trkpt><trkpt lat="41.05375" lon="16.354825"><ele>475.0</ele><time>2026-04-12T07:17:07.641Z</time></trkpt><trkpt lat="41.05359" lon="16.3546683"><ele>475.0</ele><time>2026-04-12T07:17:08.638Z</time></trkpt><trkpt lat="41.0534517" lon="16.35452"><ele>474.6666666666667</ele><time>2026-04-12T07:17:09.634Z</time></trkpt><trkpt lat="41.0533283" lon="16.3543833"><ele>474.33333333333337</ele><time>2026-04-12T07:17:10.634Z</time></trkpt><trkpt lat="41.0532167" lon="16.3542567"><ele>474.0</ele><time>2026-04-12T07:17:11.636Z</time></trkpt><trkpt lat="41.053105" lon="16.3541283"><ele>474.0</ele><time>2026-04-12T07:17:12.634Z</time></trkpt><trkpt lat="41.052985" lon="16.353995"><ele>474.0</ele><time>2026-04-12T07:17:13.635Z</time></trkpt><trkpt lat="41.0528567" lon="16.3538533"><ele>474.0</ele><time>2026-04-12T07:17:14.634Z</time></trkpt><trkpt lat="41.05272" lon="16.3537133"><ele>474.0</ele><time>2026-04-12T07:17:15.634Z</time></trkpt><trkpt lat="41.0525883" lon="16.3535783"><ele>474.0</ele><time>2026-04-12T07:17:16.634Z</time></trkpt><trkpt lat="41.0524567" lon="16.3534483"><ele>474.0</ele><time>2026-04-12T07:17:17.634Z</time></trkpt><trkpt lat="41.0523217" lon="16.3533217"><ele>474.0</ele><time>2026-04-12T07:17:18.635Z</time></trkpt><trkpt lat="41.0521867" lon="16.3531967"><ele>474.0</ele><time>2026-04-12T07:17:19.635Z</time></trkpt><trkpt lat="41.0520583" lon="16.3530817"><ele>474.0</ele><time>2026-04-12T07:17:20.636Z</time></trkpt><trkpt lat="41.0519317" lon="16.352985"><ele>474.0</ele><time>2026-04-12T07:17:21.635Z</time></trkpt><trkpt lat="41.051795" lon="16.3529017"><ele>474.0</ele><time>2026-04-12T07:17:22.639Z</time></trkpt><trkpt lat="41.0516517" lon="16.3528383"><ele>474.0</ele><time>2026-04-12T07:17:23.635Z</time></trkpt><trkpt lat="41.0515083" lon="16.3527933"><ele>474.0</ele><time>2026-04-12T07:17:24.635Z</time></trkpt><trkpt lat="41.0513717" lon="16.35275"><ele>473.25</ele><time>2026-04-12T07:17:25.634Z</time></trkpt><trkpt lat="41.0512433" lon="16.352705"><ele>472.5</ele><time>2026-04-12T07:17:26.633Z</time></trkpt><trkpt lat="41.0511167" lon="16.3526367"><ele>471.75</ele><time>2026-04-12T07:17:27.634Z</time></trkpt><trkpt lat="41.0509817" lon="16.3525417"><ele>471.0</ele><time>2026-04-12T07:17:28.634Z</time></trkpt><trkpt lat="41.0508467" lon="16.3524367"><ele>470.33333333333337</ele><time>2026-04-12T07:17:29.634Z</time></trkpt><trkpt lat="41.0507217" lon="16.3523267"><ele>469.6666666666667</ele><time>2026-04-12T07:17:30.634Z</time></trkpt><trkpt lat="41.0506" lon="16.3522033"><ele>469.0</ele><time>2026-04-12T07:17:31.633Z</time></trkpt><trkpt lat="41.050475" lon="16.3520633"><ele>469.0</ele><time>2026-04-12T07:17:32.635Z</time></trkpt><trkpt lat="41.050345" lon="16.3519117"><ele>469.0</ele><time>2026-04-12T07:17:33.634Z</time></trkpt><trkpt lat="41.05021" lon="16.35175"><ele>469.0</ele><time>2026-04-12T07:17:34.634Z</time></trkpt><trkpt lat="41.0500733" lon="16.3515783"><ele>469.6666666666667</ele><time>2026-04-12T07:17:35.634Z</time></trkpt><trkpt lat="41.049935" lon="16.3513983"><ele>470.33333333333337</ele><time>2026-04-12T07:17:36.634Z</time></trkpt><trkpt lat="41.0497933" lon="16.3512167"><ele>471.0</ele><time>2026-04-12T07:17:37.634Z</time></trkpt><trkpt lat="41.04965" lon="16.3510333"><ele>471.33333333333337</ele><time>2026-04-12T07:17:38.634Z</time></trkpt><trkpt lat="41.0495033" lon="16.3508483"><ele>471.6666666666667</ele><time>2026-04-12T07:17:39.634Z</time></trkpt><trkpt lat="41.04936" lon="16.3506733"><ele>472.0</ele><time>2026-04-12T07:17:40.635Z</time></trkpt><trkpt lat="41.0492267" lon="16.3505067"><ele>472.33333333333337</ele><time>2026-04-12T07:17:41.633Z</time></trkpt><trkpt lat="41.0490883" lon="16.3503433"><ele>472.66666666666663</ele><time>2026-04-12T07:17:42.634Z</time></trkpt><trkpt lat="41.0489417" lon="16.3501833"><ele>473.0</ele><time>2026-04-12T07:17:43.634Z</time></trkpt><trkpt lat="41.0487867" lon="16.3500283"><ele>473.0</ele><time>2026-04-12T07:17:44.634Z</time></trkpt><trkpt lat="41.0486217" lon="16.3498733"><ele>473.0</ele><time>2026-04-12T07:17:45.634Z</time></trkpt><trkpt lat="41.0484517" lon="16.3497167"><ele>473.0</ele><time>2026-04-12T07:17:46.635Z</time></trkpt><trkpt lat="41.04828" lon="16.3495617"><ele>472.3333333333333</ele><time>2026-04-12T07:17:47.634Z</time></trkpt><trkpt lat="41.048105" lon="16.34941"><ele>471.66666666666663</ele><time>2026-04-12T07:17:48.635Z</time></trkpt><trkpt lat="41.04793" lon="16.3492567"><ele>471.0</ele><time>2026-04-12T07:17:49.635Z</time></trkpt><trkpt lat="41.0477567" lon="16.3491033"><ele>471.0</ele><time>2026-04-12T07:17:50.635Z</time></trkpt><trkpt lat="41.047585" lon="16.3489483"><ele>471.0</ele><time>2026-04-12T07:17:51.635Z</time></trkpt><trkpt lat="41.04741" lon="16.348795"><ele>471.0</ele><time>2026-04-12T07:17:52.634Z</time></trkpt><trkpt lat="41.0472333" lon="16.348635"><ele>470.66666666666663</ele><time>2026-04-12T07:17:53.635Z</time></trkpt><trkpt lat="41.047055" lon="16.348475"><ele>470.3333333333333</ele><time>2026-04-12T07:17:54.634Z</time></trkpt><trkpt lat="41.0468767" lon="16.3483117"><ele>470.0</ele><time>2026-04-12T07:17:55.634Z</time></trkpt><trkpt lat="41.046695" lon="16.348145"><ele>470.3333333333333</ele><time>2026-04-12T07:17:56.639Z</time></trkpt><trkpt lat="41.0465117" lon="16.3479767"><ele>470.66666666666663</ele><time>2026-04-12T07:17:57.634Z</time></trkpt><trkpt lat="41.0463333" lon="16.34781"><ele>471.0</ele><time>2026-04-12T07:17:58.635Z</time></trkpt><trkpt lat="41.0461617" lon="16.347655"><ele>471.0</ele><time>2026-04-12T07:17:59.634Z</time></trkpt><trkpt lat="41.045995" lon="16.3475083"><ele>471.0</ele><time>2026-04-12T07:18:00.634Z</time></trkpt><trkpt lat="41.0458317" lon="16.347365"><ele>471.0</ele><time>2026-04-12T07:18:01.634Z</time></trkpt><trkpt lat="41.045675" lon="16.3472233"><ele>470.33333333333337</ele><time>2026-04-12T07:18:02.635Z</time></trkpt><trkpt lat="41.04552" lon="16.3470817"><ele>469.6666666666667</ele><time>2026-04-12T07:18:03.634Z</time></trkpt><trkpt lat="41.0453583" lon="16.34694"><ele>469.0</ele><time>2026-04-12T07:18:04.634Z</time></trkpt><trkpt lat="41.045195" lon="16.3467917"><ele>469.0</ele><time>2026-04-12T07:18:05.636Z</time></trkpt><trkpt lat="41.04503" lon="16.34664"><ele>469.0</ele><time>2026-04-12T07:18:06.635Z</time></trkpt><trkpt lat="41.0448667" lon="16.346495"><ele>469.0</ele><time>2026-04-12T07:18:07.634Z</time></trkpt><trkpt lat="41.0447083" lon="16.3463583"><ele>468.33333333333337</ele><time>2026-04-12T07:18:08.635Z</time></trkpt><trkpt lat="41.0445483" lon="16.3462167"><ele>467.66666666666663</ele><time>2026-04-12T07:18:09.633Z</time></trkpt><trkpt lat="41.04439" lon="16.346075"><ele>467.0</ele><time>2026-04-12T07:18:10.634Z</time></trkpt><trkpt lat="41.044235" lon="16.3459333"><ele>466.66666666666663</ele><time>2026-04-12T07:18:11.635Z</time></trkpt><trkpt lat="41.044085" lon="16.3458"><ele>466.33333333333337</ele><time>2026-04-12T07:18:12.634Z</time></trkpt><trkpt lat="41.0439367" lon="16.3456717"><ele>466.0</ele><time>2026-04-12T07:18:13.633Z</time></trkpt><trkpt lat="41.04378" lon="16.34554"><ele>466.0</ele><time>2026-04-12T07:18:14.634Z</time></trkpt><trkpt lat="41.04362" lon="16.3453967"><ele>466.0</ele><time>2026-04-12T07:18:15.633Z</time></trkpt><trkpt lat="41.0434633" lon="16.34524"><ele>466.0</ele><time>2026-04-12T07:18:16.635Z</time></trkpt><trkpt lat="41.0433017" lon="16.34508"><ele>466.33333333333337</ele><time>2026-04-12T07:18:17.633Z</time></trkpt><trkpt lat="41.04314" lon="16.3449217"><ele>466.66666666666663</ele><time>2026-04-12T07:18:18.634Z</time></trkpt><trkpt lat="41.0429883" lon="16.3447717"><ele>467.0</ele><time>2026-04-12T07:18:19.634Z</time></trkpt><trkpt lat="41.042845" lon="16.3446317"><ele>467.0</ele><time>2026-04-12T07:18:20.634Z</time></trkpt><trkpt lat="41.0427" lon="16.3445"><ele>467.0</ele><time>2026-04-12T07:18:21.634Z</time></trkpt><trkpt lat="41.0425417" lon="16.3443717"><ele>467.0</ele><time>2026-04-12T07:18:22.634Z</time></trkpt><trkpt lat="41.0423783" lon="16.3442483"><ele>467.66666666666663</ele><time>2026-04-12T07:18:23.634Z</time></trkpt><trkpt lat="41.0422183" lon="16.3441333"><ele>468.33333333333337</ele><time>2026-04-12T07:18:24.634Z</time></trkpt><trkpt lat="41.0420717" lon="16.3440317"><ele>469.0</ele><time>2026-04-12T07:18:25.634Z</time></trkpt><trkpt lat="41.0419317" lon="16.343945"><ele>468.0</ele><time>2026-04-12T07:18:26.636Z</time></trkpt><trkpt lat="41.0417917" lon="16.3438783"><ele>467.0</ele><time>2026-04-12T07:18:27.634Z</time></trkpt><trkpt lat="41.04164" lon="16.3438333"><ele>466.0</ele><time>2026-04-12T07:18:28.634Z</time></trkpt><trkpt lat="41.0414733" lon="16.3438017"><ele>466.0</ele><time>2026-04-12T07:18:29.634Z</time></trkpt><trkpt lat="41.0412917" lon="16.3437717"><ele>466.0</ele><time>2026-04-12T07:18:30.633Z</time></trkpt><trkpt lat="41.0411" lon="16.34374"><ele>466.0</ele><time>2026-04-12T07:18:31.634Z</time></trkpt><trkpt lat="41.0409133" lon="16.3437083"><ele>465.6666666666667</ele><time>2026-04-12T07:18:32.634Z</time></trkpt><trkpt lat="41.0407383" lon="16.34368"><ele>465.33333333333337</ele><time>2026-04-12T07:18:33.634Z</time></trkpt><trkpt lat="41.04058" lon="16.343655"><ele>465.0</ele><time>2026-04-12T07:18:34.634Z</time></trkpt><trkpt lat="41.0404417" lon="16.34363"><ele>465.0</ele><time>2026-04-12T07:18:35.638Z</time></trkpt><trkpt lat="41.0403167" lon="16.34361"><ele>465.0</ele><time>2026-04-12T07:18:36.634Z</time></trkpt><trkpt lat="41.0402" lon="16.3436083"><ele>465.0</ele><time>2026-04-12T07:18:37.634Z</time></trkpt><trkpt lat="41.040085" lon="16.3436283"><ele>465.0</ele><time>2026-04-12T07:18:38.634Z</time></trkpt><trkpt lat="41.0399667" lon="16.3436783"><ele>465.0</ele><time>2026-04-12T07:18:39.635Z</time></trkpt><trkpt lat="41.039855" lon="16.343755"><ele>465.0</ele><time>2026-04-12T07:18:40.633Z</time></trkpt><trkpt lat="41.03975" lon="16.3438583"><ele>465.0</ele><time>2026-04-12T07:18:41.633Z</time></trkpt><trkpt lat="41.0396583" lon="16.3439817"><ele>465.0</ele><time>2026-04-12T07:18:42.634Z</time></trkpt><trkpt lat="41.0395817" lon="16.3440883"><ele>465.2</ele><time>2026-04-12T07:18:43.634Z</time></trkpt><trkpt lat="41.0395017" lon="16.3441617"><ele>465.4</ele><time>2026-04-12T07:18:44.634Z</time></trkpt><trkpt lat="41.0394033" lon="16.34422"><ele>465.6</ele><time>2026-04-12T07:18:45.635Z</time></trkpt><trkpt lat="41.03929" lon="16.34426"><ele>465.8</ele><time>2026-04-12T07:18:46.633Z</time></trkpt><trkpt lat="41.0391683" lon="16.3442817"><ele>466.0</ele><time>2026-04-12T07:18:47.633Z</time></trkpt><trkpt lat="41.039055" lon="16.3442817"><ele>466.0</ele><time>2026-04-12T07:18:48.634Z</time></trkpt><trkpt lat="41.038955" lon="16.3442567"><ele>466.0</ele><time>2026-04-12T07:18:49.637Z</time></trkpt><trkpt lat="41.0388633" lon="16.344215"><ele>466.0</ele><time>2026-04-12T07:18:50.636Z</time></trkpt><trkpt lat="41.0387717" lon="16.3441517"><ele>466.0</ele><time>2026-04-12T07:18:51.633Z</time></trkpt><trkpt lat="41.0386867" lon="16.3440667"><ele>466.0</ele><time>2026-04-12T07:18:52.635Z</time></trkpt><trkpt lat="41.038615" lon="16.3439633"><ele>465.75</ele><time>2026-04-12T07:18:53.633Z</time></trkpt><trkpt lat="41.03856" lon="16.3438283"><ele>465.5</ele><time>2026-04-12T07:18:54.633Z</time></trkpt><trkpt lat="41.03852" lon="16.343665"><ele>465.25</ele><time>2026-04-12T07:18:55.633Z</time></trkpt><trkpt lat="41.0384833" lon="16.3434833"><ele>465.0</ele><time>2026-04-12T07:18:56.636Z</time></trkpt><trkpt lat="41.0384517" lon="16.3432933"><ele>465.0</ele><time>2026-04-12T07:18:57.633Z</time></trkpt><trkpt lat="41.038425" lon="16.3431"><ele>465.0</ele><time>2026-04-12T07:18:58.633Z</time></trkpt><trkpt lat="41.038415" lon="16.3429083"><ele>465.0</ele><time>2026-04-12T07:18:59.635Z</time></trkpt><trkpt lat="41.0384117" lon="16.3427367"><ele>465.0</ele><time>2026-04-12T07:19:00.634Z</time></trkpt><trkpt lat="41.0383983" lon="16.3425767"><ele>465.4</ele><time>2026-04-12T07:19:01.633Z</time></trkpt><trkpt lat="41.0383783" lon="16.3424183"><ele>465.8</ele><time>2026-04-12T07:19:02.634Z</time></trkpt><trkpt lat="41.038355" lon="16.3422733"><ele>466.20000000000005</ele><time>2026-04-12T07:19:03.634Z</time></trkpt><trkpt lat="41.0383267" lon="16.34216"><ele>466.6</ele><time>2026-04-12T07:19:04.637Z</time></trkpt><trkpt lat="41.0383" lon="16.3420817"><ele>467.0</ele><time>2026-04-12T07:19:05.635Z</time></trkpt><trkpt lat="41.0382417" lon="16.342045"><ele>466.99999999999994</ele><time>2026-04-12T07:19:08.637Z</time></trkpt><trkpt lat="41.0381517" lon="16.3420717"><ele>467.0</ele><time>2026-04-12T07:19:11.637Z</time></trkpt><trkpt lat="41.038095" lon="16.3421317"><ele>467.0</ele><time>2026-04-12T07:19:12.636Z</time></trkpt><trkpt lat="41.0380267" lon="16.3422117"><ele>467.0</ele><time>2026-04-12T07:19:13.635Z</time></trkpt><trkpt lat="41.0379567" lon="16.3422733"><ele>466.99999999999994</ele><time>2026-04-12T07:19:14.636Z</time></trkpt><trkpt lat="41.03788" lon="16.3422983"><ele>467.0</ele><time>2026-04-12T07:19:15.635Z</time></trkpt><trkpt lat="41.0377917" lon="16.34228"><ele>467.0</ele><time>2026-04-12T07:19:16.634Z</time></trkpt><trkpt lat="41.0376917" lon="16.3422367"><ele>467.0</ele><time>2026-04-12T07:19:17.636Z</time></trkpt><trkpt lat="41.0375783" lon="16.3421667"><ele>467.0</ele><time>2026-04-12T07:19:18.636Z</time></trkpt><trkpt lat="41.03746" lon="16.3420817"><ele>467.0</ele><time>2026-04-12T07:19:19.637Z</time></trkpt><trkpt lat="41.0373283" lon="16.3419817"><ele>467.3333333333333</ele><time>2026-04-12T07:19:20.635Z</time></trkpt><trkpt lat="41.0371917" lon="16.3418733"><ele>467.66666666666663</ele><time>2026-04-12T07:19:21.635Z</time></trkpt><trkpt lat="41.0370433" lon="16.3417633"><ele>468.0</ele><time>2026-04-12T07:19:22.635Z</time></trkpt><trkpt lat="41.0368867" lon="16.3416517"><ele>468.0</ele><time>2026-04-12T07:19:23.64Z</time></trkpt><trkpt lat="41.0367217" lon="16.3415367"><ele>468.0</ele><time>2026-04-12T07:19:24.635Z</time></trkpt><trkpt lat="41.0365467" lon="16.341425"><ele>468.0</ele><time>2026-04-12T07:19:25.634Z</time></trkpt><trkpt lat="41.03637" lon="16.341315"><ele>468.0</ele><time>2026-04-12T07:19:26.635Z</time></trkpt><trkpt lat="41.0361933" lon="16.3411917"><ele>468.0</ele><time>2026-04-12T07:19:27.634Z</time></trkpt><trkpt lat="41.0360167" lon="16.3410483"><ele>468.0</ele><time>2026-04-12T07:19:28.635Z</time></trkpt><trkpt lat="41.0358383" lon="16.3408883"><ele>468.33333333333337</ele><time>2026-04-12T07:19:29.64Z</time></trkpt><trkpt lat="41.035655" lon="16.340725"><ele>468.6666666666667</ele><time>2026-04-12T07:19:30.634Z</time></trkpt><trkpt lat="41.0354667" lon="16.3405533"><ele>469.0</ele><time>2026-04-12T07:19:31.635Z</time></trkpt><trkpt lat="41.0352767" lon="16.3403733"><ele>469.0</ele><time>2026-04-12T07:19:32.636Z</time></trkpt><trkpt lat="41.0350883" lon="16.340185"><ele>469.0</ele><time>2026-04-12T07:19:33.634Z</time></trkpt><trkpt lat="41.0349017" lon="16.3400017"><ele>469.0</ele><time>2026-04-12T07:19:34.635Z</time></trkpt><trkpt lat="41.034725" lon="16.3398317"><ele>469.0</ele><time>2026-04-12T07:19:35.635Z</time></trkpt><trkpt lat="41.0345567" lon="16.3396767"><ele>469.0</ele><time>2026-04-12T07:19:36.635Z</time></trkpt><trkpt lat="41.0343983" lon="16.339535"><ele>468.6666666666667</ele><time>2026-04-12T07:19:37.635Z</time></trkpt><trkpt lat="41.03425" lon="16.339405"><ele>468.33333333333337</ele><time>2026-04-12T07:19:38.636Z</time></trkpt><trkpt lat="41.034105" lon="16.33929"><ele>468.0</ele><time>2026-04-12T07:19:39.634Z</time></trkpt><trkpt lat="41.033955" lon="16.33919"><ele>468.75</ele><time>2026-04-12T07:19:40.635Z</time></trkpt><trkpt lat="41.0338033" lon="16.3391167"><ele>469.5</ele><time>2026-04-12T07:19:41.634Z</time></trkpt><trkpt lat="41.0336667" lon="16.3390617"><ele>470.25</ele><time>2026-04-12T07:19:42.635Z</time></trkpt><trkpt lat="41.0335467" lon="16.3390017"><ele>471.0</ele><time>2026-04-12T07:19:43.635Z</time></trkpt><trkpt lat="41.033435" lon="16.338905"><ele>470.66666666666663</ele><time>2026-04-12T07:19:44.638Z</time></trkpt><trkpt lat="41.0333233" lon="16.338765"><ele>470.3333333333333</ele><time>2026-04-12T07:19:45.635Z</time></trkpt><trkpt lat="41.0332167" lon="16.338595"><ele>470.0</ele><time>2026-04-12T07:19:46.636Z</time></trkpt><trkpt lat="41.0331167" lon="16.3384183"><ele>470.66666666666663</ele><time>2026-04-12T07:19:47.635Z</time></trkpt><trkpt lat="41.0330283" lon="16.3382517"><ele>471.33333333333337</ele><time>2026-04-12T07:19:48.635Z</time></trkpt><trkpt lat="41.032935" lon="16.3381033"><ele>472.0</ele><time>2026-04-12T07:19:49.636Z</time></trkpt><trkpt lat="41.0328217" lon="16.3379717"><ele>472.0</ele><time>2026-04-12T07:19:50.635Z</time></trkpt><trkpt lat="41.032705" lon="16.3378483"><ele>472.0</ele><time>2026-04-12T07:19:51.634Z</time></trkpt><trkpt lat="41.0325917" lon="16.3377083"><ele>472.0</ele><time>2026-04-12T07:19:52.635Z</time></trkpt><trkpt lat="41.03249" lon="16.33753"><ele>473.0</ele><time>2026-04-12T07:19:53.637Z</time></trkpt><trkpt lat="41.0323933" lon="16.3373467"><ele>474.0</ele><time>2026-04-12T07:19:54.634Z</time></trkpt><trkpt lat="41.0322983" lon="16.337185"><ele>475.0</ele><time>2026-04-12T07:19:55.634Z</time></trkpt><trkpt lat="41.0321967" lon="16.3370417"><ele>475.0</ele><time>2026-04-12T07:19:56.636Z</time></trkpt><trkpt lat="41.0320817" lon="16.3369183"><ele>475.0</ele><time>2026-04-12T07:19:57.635Z</time></trkpt><trkpt lat="41.0319483" lon="16.336815"><ele>475.0</ele><time>2026-04-12T07:19:58.636Z</time></trkpt><trkpt lat="41.0317983" lon="16.3367167"><ele>475.0</ele><time>2026-04-12T07:19:59.634Z</time></trkpt><trkpt lat="41.031635" lon="16.3366133"><ele>475.0</ele><time>2026-04-12T07:20:00.634Z</time></trkpt><trkpt lat="41.0314683" lon="16.336485"><ele>475.0</ele><time>2026-04-12T07:20:01.636Z</time></trkpt><trkpt lat="41.0313017" lon="16.3363383"><ele>475.6666666666667</ele><time>2026-04-12T07:20:02.634Z</time></trkpt><trkpt lat="41.0311283" lon="16.3361917"><ele>476.33333333333337</ele><time>2026-04-12T07:20:03.641Z</time></trkpt><trkpt lat="41.0309567" lon="16.336055"><ele>477.0</ele><time>2026-04-12T07:20:04.634Z</time></trkpt><trkpt lat="41.0308" lon="16.3359283"><ele>477.0</ele><time>2026-04-12T07:20:05.634Z</time></trkpt><trkpt lat="41.030655" lon="16.3358083"><ele>477.0</ele><time>2026-04-12T07:20:06.635Z</time></trkpt><trkpt lat="41.0305233" lon="16.3356867"><ele>477.0</ele><time>2026-04-12T07:20:07.634Z</time></trkpt><trkpt lat="41.0304" lon="16.3355467"><ele>477.33333333333337</ele><time>2026-04-12T07:20:08.635Z</time></trkpt><trkpt lat="41.0302783" lon="16.335395"><ele>477.6666666666667</ele><time>2026-04-12T07:20:09.634Z</time></trkpt><trkpt lat="41.0301617" lon="16.3352383"><ele>478.0</ele><time>2026-04-12T07:20:10.634Z</time></trkpt><trkpt lat="41.0300367" lon="16.3350967"><ele>478.0</ele><time>2026-04-12T07:20:11.636Z</time></trkpt><trkpt lat="41.0298933" lon="16.33497"><ele>478.0</ele><time>2026-04-12T07:20:12.634Z</time></trkpt><trkpt lat="41.0297367" lon="16.3348483"><ele>478.0</ele><time>2026-04-12T07:20:13.635Z</time></trkpt><trkpt lat="41.029565" lon="16.3347183"><ele>478.0</ele><time>2026-04-12T07:20:14.637Z</time></trkpt><trkpt lat="41.0293917" lon="16.3345783"><ele>478.0</ele><time>2026-04-12T07:20:15.636Z</time></trkpt><trkpt lat="41.0292133" lon="16.33443"><ele>478.0</ele><time>2026-04-12T07:20:16.634Z</time></trkpt><trkpt lat="41.0290333" lon="16.33427"><ele>478.33333333333337</ele><time>2026-04-12T07:20:17.635Z</time></trkpt><trkpt lat="41.028855" lon="16.3341083"><ele>478.66666666666663</ele><time>2026-04-12T07:20:18.635Z</time></trkpt><trkpt lat="41.0286867" lon="16.333955"><ele>479.0</ele><time>2026-04-12T07:20:19.634Z</time></trkpt><trkpt lat="41.0285283" lon="16.3338183"><ele>479.3333333333333</ele><time>2026-04-12T07:20:20.635Z</time></trkpt><trkpt lat="41.028375" lon="16.333705"><ele>479.66666666666663</ele><time>2026-04-12T07:20:21.634Z</time></trkpt><trkpt lat="41.0282267" lon="16.333605"><ele>480.0</ele><time>2026-04-12T07:20:22.635Z</time></trkpt><trkpt lat="41.028095" lon="16.33349"><ele>480.75</ele><time>2026-04-12T07:20:23.634Z</time></trkpt><trkpt lat="41.02798" lon="16.3333583"><ele>481.5</ele><time>2026-04-12T07:20:24.635Z</time></trkpt><trkpt lat="41.02787" lon="16.333235"><ele>482.25</ele><time>2026-04-12T07:20:25.635Z</time></trkpt><trkpt lat="41.0277467" lon="16.3331267"><ele>483.0</ele><time>2026-04-12T07:20:26.635Z</time></trkpt><trkpt lat="41.0276033" lon="16.3330367"><ele>483.66666666666663</ele><time>2026-04-12T07:20:27.634Z</time></trkpt><trkpt lat="41.0274433" lon="16.3329633"><ele>484.3333333333333</ele><time>2026-04-12T07:20:28.634Z</time></trkpt><trkpt lat="41.0272717" lon="16.3329017"><ele>485.0</ele><time>2026-04-12T07:20:29.636Z</time></trkpt><trkpt lat="41.0271" lon="16.3328467"><ele>485.0</ele><time>2026-04-12T07:20:30.634Z</time></trkpt><trkpt lat="41.0269517" lon="16.3327883"><ele>485.0</ele><time>2026-04-12T07:20:31.636Z</time></trkpt><trkpt lat="41.0268183" lon="16.33272"><ele>485.0</ele><time>2026-04-12T07:20:32.635Z</time></trkpt><trkpt lat="41.0266917" lon="16.3326217"><ele>485.0</ele><time>2026-04-12T07:20:33.634Z</time></trkpt><trkpt lat="41.0265617" lon="16.332505"><ele>486.3333333333333</ele><time>2026-04-12T07:20:34.634Z</time></trkpt><trkpt lat="41.0264167" lon="16.3323917"><ele>487.66666666666663</ele><time>2026-04-12T07:20:35.635Z</time></trkpt><trkpt lat="41.0262533" lon="16.3322883"><ele>489.0</ele><time>2026-04-12T07:20:36.636Z</time></trkpt><trkpt lat="41.0260867" lon="16.33217"><ele>489.0</ele><time>2026-04-12T07:20:37.635Z</time></trkpt><trkpt lat="41.0259267" lon="16.3320217"><ele>489.0</ele><time>2026-04-12T07:20:38.635Z</time></trkpt><trkpt lat="41.0257767" lon="16.3318667"><ele>489.0</ele><time>2026-04-12T07:20:39.634Z</time></trkpt><trkpt lat="41.0256383" lon="16.3317283"><ele>490.66666666666663</ele><time>2026-04-12T07:20:40.634Z</time></trkpt><trkpt lat="41.0255083" lon="16.3316083"><ele>492.3333333333333</ele><time>2026-04-12T07:20:41.635Z</time></trkpt><trkpt lat="41.02538" lon="16.3315117"><ele>494.0</ele><time>2026-04-12T07:20:42.635Z</time></trkpt><trkpt lat="41.0252433" lon="16.3314433"><ele>494.0</ele><time>2026-04-12T07:20:43.635Z</time></trkpt><trkpt lat="41.0250883" lon="16.3314"><ele>494.0</ele><time>2026-04-12T07:20:44.635Z</time></trkpt><trkpt lat="41.024925" lon="16.3313717"><ele>494.0</ele><time>2026-04-12T07:20:45.634Z</time></trkpt><trkpt lat="41.0247683" lon="16.33134"><ele>494.3333333333333</ele><time>2026-04-12T07:20:46.634Z</time></trkpt><trkpt lat="41.0246217" lon="16.3312867"><ele>494.66666666666663</ele><time>2026-04-12T07:20:47.634Z</time></trkpt><trkpt lat="41.0244717" lon="16.33121"><ele>495.0</ele><time>2026-04-12T07:20:48.635Z</time></trkpt><trkpt lat="41.0243167" lon="16.3311133"><ele>495.0</ele><time>2026-04-12T07:20:49.635Z</time></trkpt><trkpt lat="41.0241633" lon="16.3310083"><ele>495.0</ele><time>2026-04-12T07:20:50.636Z</time></trkpt><trkpt lat="41.0240167" lon="16.33091"><ele>495.0</ele><time>2026-04-12T07:20:51.639Z</time></trkpt><trkpt lat="41.023885" lon="16.330825"><ele>495.75</ele><time>2026-04-12T07:20:52.641Z</time></trkpt><trkpt lat="41.02376" lon="16.3307633"><ele>496.5</ele><time>2026-04-12T07:20:53.634Z</time></trkpt><trkpt lat="41.0236267" lon="16.3307267"><ele>497.25</ele><time>2026-04-12T07:20:54.634Z</time></trkpt><trkpt lat="41.0234717" lon="16.3307217"><ele>498.0</ele><time>2026-04-12T07:20:55.634Z</time></trkpt><trkpt lat="41.0233" lon="16.3307317"><ele>499.33333333333337</ele><time>2026-04-12T07:20:56.635Z</time></trkpt><trkpt lat="41.023115" lon="16.3307383"><ele>500.6666666666667</ele><time>2026-04-12T07:20:57.634Z</time></trkpt><trkpt lat="41.02292" lon="16.33074"><ele>502.0</ele><time>2026-04-12T07:20:58.634Z</time></trkpt><trkpt lat="41.0227183" lon="16.3307417"><ele>502.0</ele><time>2026-04-12T07:20:59.635Z</time></trkpt><trkpt lat="41.0225167" lon="16.3307483"><ele>502.0</ele><time>2026-04-12T07:21:00.635Z</time></trkpt><trkpt lat="41.02231" lon="16.330755"><ele>502.0</ele><time>2026-04-12T07:21:01.634Z</time></trkpt><trkpt lat="41.0221017" lon="16.33076"><ele>503.6666666666667</ele><time>2026-04-12T07:21:02.634Z</time></trkpt><trkpt lat="41.0219" lon="16.3307633"><ele>505.33333333333337</ele><time>2026-04-12T07:21:03.634Z</time></trkpt><trkpt lat="41.0217133" lon="16.33076"><ele>507.0</ele><time>2026-04-12T07:21:04.635Z</time></trkpt><trkpt lat="41.0215333" lon="16.330745"><ele>508.33333333333337</ele><time>2026-04-12T07:21:05.636Z</time></trkpt><trkpt lat="41.0213533" lon="16.330705"><ele>509.6666666666667</ele><time>2026-04-12T07:21:06.634Z</time></trkpt><trkpt lat="41.0211733" lon="16.3306433"><ele>511.0</ele><time>2026-04-12T07:21:07.634Z</time></trkpt><trkpt lat="41.0209883" lon="16.3305517"><ele>513.3333333333334</ele><time>2026-04-12T07:21:08.634Z</time></trkpt><trkpt lat="41.020805" lon="16.33044"><ele>515.6666666666666</ele><time>2026-04-12T07:21:09.636Z</time></trkpt><trkpt lat="41.0206383" lon="16.330335"><ele>518.0</ele><time>2026-04-12T07:21:10.635Z</time></trkpt><trkpt lat="41.0205017" lon="16.3302483"><ele>518.0</ele><time>2026-04-12T07:21:11.634Z</time></trkpt><trkpt lat="41.0203817" lon="16.330185"><ele>518.0</ele><time>2026-04-12T07:21:12.635Z</time></trkpt><trkpt lat="41.0202583" lon="16.330145"><ele>518.0</ele><time>2026-04-12T07:21:13.634Z</time></trkpt><trkpt lat="41.0201167" lon="16.3301233"><ele>518.0</ele><time>2026-04-12T07:21:14.634Z</time></trkpt><trkpt lat="41.0199617" lon="16.3301267"><ele>519.6666666666666</ele><time>2026-04-12T07:21:15.634Z</time></trkpt><trkpt lat="41.0197983" lon="16.33014"><ele>521.3333333333334</ele><time>2026-04-12T07:21:16.634Z</time></trkpt><trkpt lat="41.0196283" lon="16.3301467"><ele>523.0</ele><time>2026-04-12T07:21:17.634Z</time></trkpt><trkpt lat="41.0194567" lon="16.33014"><ele>523.0</ele><time>2026-04-12T07:21:18.634Z</time></trkpt><trkpt lat="41.0192867" lon="16.3301083"><ele>523.0</ele><time>2026-04-12T07:21:19.634Z</time></trkpt><trkpt lat="41.0191217" lon="16.330045"><ele>523.0</ele><time>2026-04-12T07:21:20.639Z</time></trkpt><trkpt lat="41.0189567" lon="16.32996"><ele>525.0</ele><time>2026-04-12T07:21:21.634Z</time></trkpt><trkpt lat="41.0187983" lon="16.3298567"><ele>527.0</ele><time>2026-04-12T07:21:22.634Z</time></trkpt><trkpt lat="41.0186567" lon="16.3297533"><ele>529.0</ele><time>2026-04-12T07:21:23.634Z</time></trkpt><trkpt lat="41.0185333" lon="16.3296533"><ele>529.6666666666667</ele><time>2026-04-12T07:21:24.634Z</time></trkpt><trkpt lat="41.0184217" lon="16.3295283"><ele>530.3333333333334</ele><time>2026-04-12T07:21:25.635Z</time></trkpt><trkpt lat="41.0183167" lon="16.329375"><ele>531.0</ele><time>2026-04-12T07:21:26.634Z</time></trkpt><trkpt lat="41.0182167" lon="16.3292"><ele>532.6666666666666</ele><time>2026-04-12T07:21:27.634Z</time></trkpt><trkpt lat="41.0181183" lon="16.3290133"><ele>534.3333333333333</ele><time>2026-04-12T07:21:28.635Z</time></trkpt><trkpt lat="41.0180133" lon="16.32884"><ele>536.0</ele><time>2026-04-12T07:21:29.634Z</time></trkpt><trkpt lat="41.0178917" lon="16.3286833"><ele>536.0</ele><time>2026-04-12T07:21:30.634Z</time></trkpt><trkpt lat="41.0177567" lon="16.3285367"><ele>536.0</ele><time>2026-04-12T07:21:31.634Z</time></trkpt><trkpt lat="41.0176083" lon="16.32839"><ele>536.0</ele><time>2026-04-12T07:21:32.634Z</time></trkpt><trkpt lat="41.0174517" lon="16.3282467"><ele>537.3333333333333</ele><time>2026-04-12T07:21:33.634Z</time></trkpt><trkpt lat="41.0172867" lon="16.3281083"><ele>538.6666666666666</ele><time>2026-04-12T07:21:34.635Z</time></trkpt><trkpt lat="41.0171133" lon="16.3279767"><ele>540.0</ele><time>2026-04-12T07:21:35.634Z</time></trkpt><trkpt lat="41.0169333" lon="16.3278567"><ele>540.0</ele><time>2026-04-12T07:21:36.634Z</time></trkpt><trkpt lat="41.0167467" lon="16.32773"><ele>540.0</ele><time>2026-04-12T07:21:37.636Z</time></trkpt><trkpt lat="41.01657" lon="16.3275867"><ele>540.0</ele><time>2026-04-12T07:21:38.635Z</time></trkpt><trkpt lat="41.0164133" lon="16.3274433"><ele>540.75</ele><time>2026-04-12T07:21:39.636Z</time></trkpt><trkpt lat="41.0162817" lon="16.327325"><ele>541.5</ele><time>2026-04-12T07:21:40.634Z</time></trkpt><trkpt lat="41.0161767" lon="16.32722"><ele>542.25</ele><time>2026-04-12T07:21:41.634Z</time></trkpt><trkpt lat="41.0160883" lon="16.3271033"><ele>543.0</ele><time>2026-04-12T07:21:42.635Z</time></trkpt><trkpt lat="41.0160017" lon="16.326955"><ele>543.5</ele><time>2026-04-12T07:21:43.634Z</time></trkpt><trkpt lat="41.0159233" lon="16.3267917"><ele>544.0</ele><time>2026-04-12T07:21:44.634Z</time></trkpt><trkpt lat="41.0158433" lon="16.3266283"><ele>544.5</ele><time>2026-04-12T07:21:45.636Z</time></trkpt><trkpt lat="41.01574" lon="16.3264767"><ele>545.0</ele><time>2026-04-12T07:21:46.634Z</time></trkpt><trkpt lat="41.0156083" lon="16.3263367"><ele>546.3333333333333</ele><time>2026-04-12T07:21:47.635Z</time></trkpt><trkpt lat="41.015465" lon="16.3262017"><ele>547.6666666666666</ele><time>2026-04-12T07:21:48.634Z</time></trkpt><trkpt lat="41.0153183" lon="16.3260583"><ele>549.0</ele><time>2026-04-12T07:21:49.636Z</time></trkpt><trkpt lat="41.0151683" lon="16.325905"><ele>549.0</ele><time>2026-04-12T07:21:50.635Z</time></trkpt><trkpt lat="41.015015" lon="16.3257483"><ele>549.0</ele><time>2026-04-12T07:21:51.635Z</time></trkpt><trkpt lat="41.014855" lon="16.3255917"><ele>549.0</ele><time>2026-04-12T07:21:52.634Z</time></trkpt><trkpt lat="41.0146933" lon="16.3254383"><ele>550.6666666666666</ele><time>2026-04-12T07:21:53.636Z</time></trkpt><trkpt lat="41.0145283" lon="16.3252833"><ele>552.3333333333333</ele><time>2026-04-12T07:21:54.638Z</time></trkpt><trkpt lat="41.0143567" lon="16.325125"><ele>554.0</ele><time>2026-04-12T07:21:55.634Z</time></trkpt><trkpt lat="41.01418" lon="16.32497"><ele>555.0</ele><time>2026-04-12T07:21:56.634Z</time></trkpt><trkpt lat="41.0139967" lon="16.3248217"><ele>556.0</ele><time>2026-04-12T07:21:57.635Z</time></trkpt><trkpt lat="41.0138033" lon="16.3246817"><ele>557.0</ele><time>2026-04-12T07:21:58.634Z</time></trkpt><trkpt lat="41.0136167" lon="16.3245517"><ele>559.3333333333333</ele><time>2026-04-12T07:21:59.636Z</time></trkpt><trkpt lat="41.013445" lon="16.3244333"><ele>561.6666666666666</ele><time>2026-04-12T07:22:00.634Z</time></trkpt><trkpt lat="41.0132833" lon="16.324305"><ele>564.0</ele><time>2026-04-12T07:22:01.635Z</time></trkpt><trkpt lat="41.0131283" lon="16.324155"><ele>565.0</ele><time>2026-04-12T07:22:02.634Z</time></trkpt><trkpt lat="41.0129717" lon="16.3239867"><ele>566.0</ele><time>2026-04-12T07:22:03.634Z</time></trkpt><trkpt lat="41.0128117" lon="16.323805"><ele>567.0</ele><time>2026-04-12T07:22:04.634Z</time></trkpt><trkpt lat="41.012645" lon="16.3236167"><ele>569.0</ele><time>2026-04-12T07:22:05.634Z</time></trkpt><trkpt lat="41.012475" lon="16.3234267"><ele>571.0</ele><time>2026-04-12T07:22:06.634Z</time></trkpt><trkpt lat="41.012305" lon="16.3232433"><ele>573.0</ele><time>2026-04-12T07:22:07.634Z</time></trkpt><trkpt lat="41.012145" lon="16.3230717"><ele>572.6666666666666</ele><time>2026-04-12T07:22:08.636Z</time></trkpt><trkpt lat="41.0120017" lon="16.3229217"><ele>572.3333333333333</ele><time>2026-04-12T07:22:09.635Z</time></trkpt><trkpt lat="41.011865" lon="16.3227783"><ele>572.0</ele><time>2026-04-12T07:22:10.634Z</time></trkpt><trkpt lat="41.0117267" lon="16.3226367"><ele>573.5</ele><time>2026-04-12T07:22:11.634Z</time></trkpt><trkpt lat="41.0115767" lon="16.3225033"><ele>575.0</ele><time>2026-04-12T07:22:12.636Z</time></trkpt><trkpt lat="41.0112283" lon="16.3222467"><ele>575.0</ele><time>2026-04-12T07:22:14.636Z</time></trkpt><trkpt lat="41.01104" lon="16.3221167"><ele>575.0</ele><time>2026-04-12T07:22:15.634Z</time></trkpt><trkpt lat="41.010845" lon="16.3219817"><ele>575.0</ele><time>2026-04-12T07:22:16.634Z</time></trkpt><trkpt lat="41.010645" lon="16.3218467"><ele>575.0</ele><time>2026-04-12T07:22:17.635Z</time></trkpt><trkpt lat="41.01044" lon="16.32171"><ele>575.0</ele><time>2026-04-12T07:22:18.635Z</time></trkpt><trkpt lat="41.0102333" lon="16.3215717"><ele>575.0</ele><time>2026-04-12T07:22:19.635Z</time></trkpt><trkpt lat="41.010025" lon="16.32143"><ele>575.0</ele><time>2026-04-12T07:22:20.635Z</time></trkpt><trkpt lat="41.00982" lon="16.32129"><ele>575.3333333333333</ele><time>2026-04-12T07:22:21.635Z</time></trkpt><trkpt lat="41.00962" lon="16.3211517"><ele>575.6666666666666</ele><time>2026-04-12T07:22:22.635Z</time></trkpt><trkpt lat="41.00943" lon="16.3210233"><ele>576.0</ele><time>2026-04-12T07:22:23.64Z</time></trkpt><trkpt lat="41.0092517" lon="16.320905"><ele>576.3333333333334</ele><time>2026-04-12T07:22:24.635Z</time></trkpt><trkpt lat="41.0090767" lon="16.3207867"><ele>576.6666666666667</ele><time>2026-04-12T07:22:25.634Z</time></trkpt><trkpt lat="41.0089" lon="16.320665"><ele>577.0</ele><time>2026-04-12T07:22:26.635Z</time></trkpt><trkpt lat="41.0087233" lon="16.3205417"><ele>577.0</ele><time>2026-04-12T07:22:27.634Z</time></trkpt><trkpt lat="41.008545" lon="16.3204183"><ele>577.0</ele><time>2026-04-12T07:22:28.634Z</time></trkpt><trkpt lat="41.00837" lon="16.3202933"><ele>577.0</ele><time>2026-04-12T07:22:29.634Z</time></trkpt><trkpt lat="41.0081933" lon="16.32017"><ele>576.6666666666667</ele><time>2026-04-12T07:22:30.634Z</time></trkpt><trkpt lat="41.0080117" lon="16.3200483"><ele>576.3333333333334</ele><time>2026-04-12T07:22:31.634Z</time></trkpt><trkpt lat="41.00783" lon="16.3199267"><ele>576.0</ele><time>2026-04-12T07:22:32.635Z</time></trkpt><trkpt lat="41.0076467" lon="16.319805"><ele>576.0</ele><time>2026-04-12T07:22:33.634Z</time></trkpt><trkpt lat="41.0074633" lon="16.3196783"><ele>576.0</ele><time>2026-04-12T07:22:34.634Z</time></trkpt><trkpt lat="41.0072733" lon="16.3195467"><ele>576.0</ele><time>2026-04-12T07:22:35.634Z</time></trkpt><trkpt lat="41.0070817" lon="16.3194117"><ele>576.0</ele><time>2026-04-12T07:22:36.634Z</time></trkpt><trkpt lat="41.00689" lon="16.3192783"><ele>576.0</ele><time>2026-04-12T07:22:37.639Z</time></trkpt><trkpt lat="41.0067017" lon="16.3191433"><ele>576.0</ele><time>2026-04-12T07:22:38.635Z</time></trkpt><trkpt lat="41.0065117" lon="16.31901"><ele>577.3333333333334</ele><time>2026-04-12T07:22:39.636Z</time></trkpt><trkpt lat="41.00632" lon="16.31888"><ele>578.6666666666667</ele><time>2026-04-12T07:22:40.634Z</time></trkpt><trkpt lat="41.0061267" lon="16.3187517"><ele>580.0</ele><time>2026-04-12T07:22:41.634Z</time></trkpt><trkpt lat="41.0059383" lon="16.3186217"><ele>582.0</ele><time>2026-04-12T07:22:42.635Z</time></trkpt><trkpt lat="41.00575" lon="16.3184883"><ele>584.0</ele><time>2026-04-12T07:22:43.634Z</time></trkpt><trkpt lat="41.0055567" lon="16.3183533"><ele>586.0</ele><time>2026-04-12T07:22:44.635Z</time></trkpt><trkpt lat="41.0053683" lon="16.3182267"><ele>586.0</ele><time>2026-04-12T07:22:45.635Z</time></trkpt><trkpt lat="41.005205" lon="16.3181217"><ele>586.0</ele><time>2026-04-12T07:22:46.636Z</time></trkpt><trkpt lat="41.0050767" lon="16.318035"><ele>586.0</ele><time>2026-04-12T07:22:47.634Z</time></trkpt><trkpt lat="41.0049767" lon="16.3179583"><ele>586.0</ele><time>2026-04-12T07:22:48.634Z</time></trkpt><trkpt lat="41.0048917" lon="16.3178633"><ele>586.5</ele><time>2026-04-12T07:22:49.636Z</time></trkpt><trkpt lat="41.0048117" lon="16.3177317"><ele>587.0</ele><time>2026-04-12T07:22:50.635Z</time></trkpt><trkpt lat="41.00474" lon="16.3175717"><ele>587.5</ele><time>2026-04-12T07:22:51.634Z</time></trkpt><trkpt lat="41.0046717" lon="16.3173983"><ele>588.0</ele><time>2026-04-12T07:22:52.634Z</time></trkpt><trkpt lat="41.0045917" lon="16.3172067"><ele>588.3333333333334</ele><time>2026-04-12T07:22:53.636Z</time></trkpt><trkpt lat="41.0044967" lon="16.3170083"><ele>588.6666666666667</ele><time>2026-04-12T07:22:54.634Z</time></trkpt><trkpt lat="41.0043983" lon="16.3168017"><ele>589.0</ele><time>2026-04-12T07:22:55.634Z</time></trkpt><trkpt lat="41.004295" lon="16.31659"><ele>589.3333333333334</ele><time>2026-04-12T07:22:56.635Z</time></trkpt><trkpt lat="41.004195" lon="16.316375"><ele>589.6666666666666</ele><time>2026-04-12T07:22:57.634Z</time></trkpt><trkpt lat="41.0040883" lon="16.3161567"><ele>590.0</ele><time>2026-04-12T07:22:58.636Z</time></trkpt><trkpt lat="41.0039817" lon="16.315935"><ele>591.0</ele><time>2026-04-12T07:22:59.634Z</time></trkpt><trkpt lat="41.0038767" lon="16.3157117"><ele>592.0</ele><time>2026-04-12T07:23:00.634Z</time></trkpt><trkpt lat="41.003775" lon="16.315495"><ele>593.0</ele><time>2026-04-12T07:23:01.634Z</time></trkpt><trkpt lat="41.0036817" lon="16.3152917"><ele>593.25</ele><time>2026-04-12T07:23:02.635Z</time></trkpt><trkpt lat="41.0036033" lon="16.315125"><ele>593.5</ele><time>2026-04-12T07:23:03.634Z</time></trkpt><trkpt lat="41.0035417" lon="16.314995"><ele>593.75</ele><time>2026-04-12T07:23:04.634Z</time></trkpt><trkpt lat="41.0034933" lon="16.3148883"><ele>594.0</ele><time>2026-04-12T07:23:05.634Z</time></trkpt><trkpt lat="41.003455" lon="16.3147717"><ele>594.75</ele><time>2026-04-12T07:23:06.634Z</time></trkpt><trkpt lat="41.0034183" lon="16.31464"><ele>595.5</ele><time>2026-04-12T07:23:07.634Z</time></trkpt><trkpt lat="41.0033783" lon="16.314495"><ele>596.25</ele><time>2026-04-12T07:23:08.635Z</time></trkpt><trkpt lat="41.0033317" lon="16.3143433"><ele>597.0</ele><time>2026-04-12T07:23:09.634Z</time></trkpt><trkpt lat="41.003285" lon="16.3141817"><ele>597.25</ele><time>2026-04-12T07:23:10.634Z</time></trkpt><trkpt lat="41.00324" lon="16.3140267"><ele>597.5</ele><time>2026-04-12T07:23:11.634Z</time></trkpt><trkpt lat="41.0032" lon="16.3138833"><ele>597.75</ele><time>2026-04-12T07:23:12.634Z</time></trkpt><trkpt lat="41.0031517" lon="16.313745"><ele>598.0</ele><time>2026-04-12T07:23:13.634Z</time></trkpt><trkpt lat="41.00309" lon="16.3136117"><ele>598.0</ele><time>2026-04-12T07:23:14.634Z</time></trkpt><trkpt lat="41.00301" lon="16.3134867"><ele>598.0</ele><time>2026-04-12T07:23:15.635Z</time></trkpt><trkpt lat="41.0029083" lon="16.3133717"><ele>598.0</ele><time>2026-04-12T07:23:16.635Z</time></trkpt><trkpt lat="41.0027917" lon="16.313255"><ele>598.0</ele><time>2026-04-12T07:23:17.634Z</time></trkpt><trkpt lat="41.002665" lon="16.3131333"><ele>598.6666666666667</ele><time>2026-04-12T07:23:18.634Z</time></trkpt><trkpt lat="41.00253" lon="16.31301"><ele>599.3333333333334</ele><time>2026-04-12T07:23:19.635Z</time></trkpt><trkpt lat="41.00239" lon="16.3128833"><ele>600.0</ele><time>2026-04-12T07:23:20.635Z</time></trkpt><trkpt lat="41.0022467" lon="16.31275"><ele>600.0</ele><time>2026-04-12T07:23:21.635Z</time></trkpt><trkpt lat="41.0021017" lon="16.3126083"><ele>600.0</ele><time>2026-04-12T07:23:22.635Z</time></trkpt><trkpt lat="41.0019517" lon="16.3124633"><ele>600.0</ele><time>2026-04-12T07:23:23.635Z</time></trkpt><trkpt lat="41.001795" lon="16.31232"><ele>600.3333333333334</ele><time>2026-04-12T07:23:24.634Z</time></trkpt><trkpt lat="41.0016367" lon="16.3121767"><ele>600.6666666666667</ele><time>2026-04-12T07:23:25.634Z</time></trkpt><trkpt lat="41.001485" lon="16.3120383"><ele>601.0</ele><time>2026-04-12T07:23:26.636Z</time></trkpt><trkpt lat="41.0013467" lon="16.3119117"><ele>601.0</ele><time>2026-04-12T07:23:27.638Z</time></trkpt><trkpt lat="41.00122" lon="16.31179"><ele>601.0</ele><time>2026-04-12T07:23:28.634Z</time></trkpt><trkpt lat="41.001095" lon="16.31167"><ele>601.0</ele><time>2026-04-12T07:23:29.634Z</time></trkpt><trkpt lat="41.0009783" lon="16.3115517"><ele>601.0</ele><time>2026-04-12T07:23:30.634Z</time></trkpt><trkpt lat="41.0008783" lon="16.311425"><ele>601.0</ele><time>2026-04-12T07:23:31.634Z</time></trkpt><trkpt lat="41.0007933" lon="16.31128"><ele>601.0</ele><time>2026-04-12T07:23:32.635Z</time></trkpt><trkpt lat="41.0007267" lon="16.3111167"><ele>601.0</ele><time>2026-04-12T07:23:33.634Z</time></trkpt><trkpt lat="41.0006717" lon="16.3109467"><ele>600.8</ele><time>2026-04-12T07:23:34.634Z</time></trkpt><trkpt lat="41.0006217" lon="16.3107867"><ele>600.6</ele><time>2026-04-12T07:23:35.634Z</time></trkpt><trkpt lat="41.0005733" lon="16.31066"><ele>600.4</ele><time>2026-04-12T07:23:36.635Z</time></trkpt><trkpt lat="41.0005283" lon="16.310555"><ele>600.2</ele><time>2026-04-12T07:23:37.634Z</time></trkpt><trkpt lat="41.0004733" lon="16.3104717"><ele>600.0</ele><time>2026-04-12T07:23:38.634Z</time></trkpt><trkpt lat="41.0004067" lon="16.3103933"><ele>600.0</ele><time>2026-04-12T07:23:39.635Z</time></trkpt><trkpt lat="41.0003233" lon="16.3103083"><ele>600.0</ele><time>2026-04-12T07:23:40.634Z</time></trkpt><trkpt lat="41.0002233" lon="16.3102217"><ele>600.0</ele><time>2026-04-12T07:23:41.639Z</time></trkpt><trkpt lat="41.0001133" lon="16.3101517"><ele>600.0</ele><time>2026-04-12T07:23:42.634Z</time></trkpt><trkpt lat="41.0" lon="16.3101083"><ele>600.0</ele><time>2026-04-12T07:23:43.634Z</time></trkpt><trkpt lat="40.9998783" lon="16.3100983"><ele>600.0</ele><time>2026-04-12T07:23:44.634Z</time></trkpt><trkpt lat="40.9997583" lon="16.310095"><ele>600.0</ele><time>2026-04-12T07:23:45.636Z</time></trkpt><trkpt lat="40.9996417" lon="16.3100717"><ele>600.0</ele><time>2026-04-12T07:23:46.634Z</time></trkpt><trkpt lat="40.9995217" lon="16.3100067"><ele>600.0</ele><time>2026-04-12T07:23:47.635Z</time></trkpt><trkpt lat="40.9994" lon="16.3099033"><ele>600.0</ele><time>2026-04-12T07:23:48.634Z</time></trkpt><trkpt lat="40.999275" lon="16.3097767"><ele>600.0</ele><time>2026-04-12T07:23:49.635Z</time></trkpt><trkpt lat="40.9991483" lon="16.3096367"><ele>600.3333333333334</ele><time>2026-04-12T07:23:50.635Z</time></trkpt><trkpt lat="40.9990167" lon="16.3094967"><ele>600.6666666666667</ele><time>2026-04-12T07:23:51.635Z</time></trkpt><trkpt lat="40.9988817" lon="16.3093517"><ele>601.0</ele><time>2026-04-12T07:23:52.634Z</time></trkpt><trkpt lat="40.998745" lon="16.3092"><ele>601.0</ele><time>2026-04-12T07:23:53.635Z</time></trkpt><trkpt lat="40.9986067" lon="16.309045"><ele>601.0</ele><time>2026-04-12T07:23:54.635Z</time></trkpt><trkpt lat="40.9984633" lon="16.30889"><ele>601.0</ele><time>2026-04-12T07:23:55.634Z</time></trkpt><trkpt lat="40.9983233" lon="16.3087333"><ele>602.3333333333334</ele><time>2026-04-12T07:23:56.634Z</time></trkpt><trkpt lat="40.9981933" lon="16.3085867"><ele>603.6666666666666</ele><time>2026-04-12T07:23:57.635Z</time></trkpt><trkpt lat="40.998075" lon="16.3084517"><ele>605.0</ele><time>2026-04-12T07:23:58.634Z</time></trkpt><trkpt lat="40.9979683" lon="16.308325"><ele>605.0</ele><time>2026-04-12T07:23:59.636Z</time></trkpt><trkpt lat="40.9978817" lon="16.3082033"><ele>605.0</ele><time>2026-04-12T07:24:00.635Z</time></trkpt><trkpt lat="40.9978133" lon="16.3080717"><ele>605.0</ele><time>2026-04-12T07:24:01.634Z</time></trkpt><trkpt lat="40.99776" lon="16.3079333"><ele>605.0</ele><time>2026-04-12T07:24:02.635Z</time></trkpt><trkpt lat="40.9977133" lon="16.307795"><ele>604.6</ele><time>2026-04-12T07:24:03.634Z</time></trkpt><trkpt lat="40.997675" lon="16.3076567"><ele>604.2</ele><time>2026-04-12T07:24:04.634Z</time></trkpt><trkpt lat="40.9976383" lon="16.3075217"><ele>603.8</ele><time>2026-04-12T07:24:05.634Z</time></trkpt><trkpt lat="40.9976017" lon="16.30739"><ele>603.4</ele><time>2026-04-12T07:24:06.634Z</time></trkpt><trkpt lat="40.9975617" lon="16.30728"><ele>603.0</ele><time>2026-04-12T07:24:07.634Z</time></trkpt><trkpt lat="40.9975133" lon="16.3071783"><ele>602.0</ele><time>2026-04-12T07:24:08.634Z</time></trkpt><trkpt lat="40.9974533" lon="16.3070917"><ele>601.0</ele><time>2026-04-12T07:24:09.633Z</time></trkpt><trkpt lat="40.9973817" lon="16.30702"><ele>600.0</ele><time>2026-04-12T07:24:10.634Z</time></trkpt><trkpt lat="40.997295" lon="16.3069683"><ele>599.0</ele><time>2026-04-12T07:24:11.637Z</time></trkpt><trkpt lat="40.9971917" lon="16.3069417"><ele>598.0</ele><time>2026-04-12T07:24:12.634Z</time></trkpt><trkpt lat="40.9970783" lon="16.3069367"><ele>598.0</ele><time>2026-04-12T07:24:13.635Z</time></trkpt><trkpt lat="40.9969617" lon="16.3069333"><ele>598.0</ele><time>2026-04-12T07:24:14.637Z</time></trkpt><trkpt lat="40.9968533" lon="16.3069183"><ele>598.0</ele><time>2026-04-12T07:24:15.639Z</time></trkpt><trkpt lat="40.9967617" lon="16.3068767"><ele>598.0</ele><time>2026-04-12T07:24:16.634Z</time></trkpt><trkpt lat="40.9966783" lon="16.3068083"><ele>598.0</ele><time>2026-04-12T07:24:17.635Z</time></trkpt><trkpt lat="40.99661" lon="16.3067033"><ele>597.5</ele><time>2026-04-12T07:24:18.634Z</time></trkpt><trkpt lat="40.99655" lon="16.3065733"><ele>597.0</ele><time>2026-04-12T07:24:19.642Z</time></trkpt><trkpt lat="40.9964917" lon="16.3064183"><ele>596.5</ele><time>2026-04-12T07:24:20.634Z</time></trkpt><trkpt lat="40.9964333" lon="16.3062417"><ele>596.0</ele><time>2026-04-12T07:24:21.634Z</time></trkpt><trkpt lat="40.9963733" lon="16.3060517"><ele>596.0</ele><time>2026-04-12T07:24:22.634Z</time></trkpt><trkpt lat="40.9963117" lon="16.3058517"><ele>596.0</ele><time>2026-04-12T07:24:23.634Z</time></trkpt><trkpt lat="40.996245" lon="16.305645"><ele>596.0</ele><time>2026-04-12T07:24:24.634Z</time></trkpt><trkpt lat="40.996175" lon="16.3054317"><ele>596.0</ele><time>2026-04-12T07:24:25.634Z</time></trkpt><trkpt lat="40.9961067" lon="16.3052283"><ele>596.0</ele><time>2026-04-12T07:24:26.635Z</time></trkpt><trkpt lat="40.9960433" lon="16.305045"><ele>596.0</ele><time>2026-04-12T07:24:27.635Z</time></trkpt><trkpt lat="40.9959833" lon="16.304875"><ele>596.5</ele><time>2026-04-12T07:24:28.634Z</time></trkpt><trkpt lat="40.9959233" lon="16.3047183"><ele>597.0</ele><time>2026-04-12T07:24:29.634Z</time></trkpt><trkpt lat="40.995865" lon="16.3045567"><ele>597.5</ele><time>2026-04-12T07:24:30.634Z</time></trkpt><trkpt lat="40.9958083" lon="16.3043883"><ele>598.0</ele><time>2026-04-12T07:24:31.635Z</time></trkpt><trkpt lat="40.99575" lon="16.3042167"><ele>598.0</ele><time>2026-04-12T07:24:32.634Z</time></trkpt><trkpt lat="40.995685" lon="16.3040633"><ele>598.0</ele><time>2026-04-12T07:24:33.634Z</time></trkpt><trkpt lat="40.9956117" lon="16.3039383"><ele>598.0</ele><time>2026-04-12T07:24:34.635Z</time></trkpt><trkpt lat="40.995535" lon="16.3038417"><ele>598.0</ele><time>2026-04-12T07:24:35.635Z</time></trkpt><trkpt lat="40.99546" lon="16.303755"><ele>597.8333333333334</ele><time>2026-04-12T07:24:36.634Z</time></trkpt><trkpt lat="40.9953917" lon="16.3036817"><ele>597.6666666666667</ele><time>2026-04-12T07:24:37.634Z</time></trkpt><trkpt lat="40.9953333" lon="16.3036167"><ele>597.5</ele><time>2026-04-12T07:24:38.634Z</time></trkpt><trkpt lat="40.9953033" lon="16.303535"><ele>597.3333333333334</ele><time>2026-04-12T07:24:39.634Z</time></trkpt><trkpt lat="40.9952783" lon="16.3034433"><ele>597.1666666666666</ele><time>2026-04-12T07:24:40.635Z</time></trkpt><trkpt lat="40.9952483" lon="16.30335"><ele>597.0</ele><time>2026-04-12T07:24:41.633Z</time></trkpt><trkpt lat="40.9952233" lon="16.30326"><ele>597.0000000000001</ele><time>2026-04-12T07:24:42.633Z</time></trkpt><trkpt lat="40.9952067" lon="16.3031733"><ele>597.0</ele><time>2026-04-12T07:24:43.634Z</time></trkpt><trkpt lat="40.9952" lon="16.30309"><ele>597.0</ele><time>2026-04-12T07:24:44.635Z</time></trkpt><trkpt lat="40.9952017" lon="16.303"><ele>597.0</ele><time>2026-04-12T07:24:45.634Z</time></trkpt><trkpt lat="40.995215" lon="16.3029033"><ele>597.0</ele><time>2026-04-12T07:24:46.634Z</time></trkpt><trkpt lat="40.99524" lon="16.3028083"><ele>597.0000000000001</ele><time>2026-04-12T07:24:47.634Z</time></trkpt><trkpt lat="40.9952817" lon="16.30272"><ele>597.0</ele><time>2026-04-12T07:24:48.636Z</time></trkpt><trkpt lat="40.9953367" lon="16.3026433"><ele>596.6666666666666</ele><time>2026-04-12T07:24:49.635Z</time></trkpt><trkpt lat="40.9954017" lon="16.30258"><ele>596.3333333333334</ele><time>2026-04-12T07:24:50.635Z</time></trkpt><trkpt lat="40.9954717" lon="16.3025333"><ele>596.0</ele><time>2026-04-12T07:24:51.634Z</time></trkpt><trkpt lat="40.9955467" lon="16.3025033"><ele>595.6666666666667</ele><time>2026-04-12T07:24:52.634Z</time></trkpt><trkpt lat="40.9956267" lon="16.3024883"><ele>595.3333333333334</ele><time>2026-04-12T07:24:53.635Z</time></trkpt><trkpt lat="40.99572" lon="16.3024967"><ele>595.0</ele><time>2026-04-12T07:24:54.634Z</time></trkpt><trkpt lat="40.99582" lon="16.3025183"><ele>595.0</ele><time>2026-04-12T07:24:55.634Z</time></trkpt><trkpt lat="40.9959233" lon="16.302535"><ele>595.0</ele><time>2026-04-12T07:24:56.635Z</time></trkpt><trkpt lat="40.99603" lon="16.30255"><ele>595.0</ele><time>2026-04-12T07:24:57.634Z</time></trkpt><trkpt lat="40.99614" lon="16.3025567"><ele>595.0</ele><time>2026-04-12T07:24:58.634Z</time></trkpt><trkpt lat="40.9962617" lon="16.30256"><ele>595.0</ele><time>2026-04-12T07:24:59.634Z</time></trkpt><trkpt lat="40.99639" lon="16.3025617"><ele>595.0</ele><time>2026-04-12T07:25:00.635Z</time></trkpt><trkpt lat="40.996525" lon="16.3025633"><ele>595.0</ele><time>2026-04-12T07:25:01.634Z</time></trkpt><trkpt lat="40.9966567" lon="16.3025683"><ele>595.0</ele><time>2026-04-12T07:25:02.634Z</time></trkpt><trkpt lat="40.9967867" lon="16.30257"><ele>595.0</ele><time>2026-04-12T07:25:03.634Z</time></trkpt><trkpt lat="40.996915" lon="16.3025733"><ele>595.5</ele><time>2026-04-12T07:25:04.639Z</time></trkpt><trkpt lat="40.9970433" lon="16.30257"><ele>596.0</ele><time>2026-04-12T07:25:05.634Z</time></trkpt><trkpt lat="40.997175" lon="16.3025517"><ele>596.5</ele><time>2026-04-12T07:25:06.633Z</time></trkpt><trkpt lat="40.9973" lon="16.3025117"><ele>597.0</ele><time>2026-04-12T07:25:07.633Z</time></trkpt><trkpt lat="40.9974167" lon="16.3024583"><ele>597.0</ele><time>2026-04-12T07:25:08.635Z</time></trkpt><trkpt lat="40.9975217" lon="16.3023917"><ele>597.0</ele><time>2026-04-12T07:25:09.633Z</time></trkpt><trkpt lat="40.9976133" lon="16.3023067"><ele>597.0</ele><time>2026-04-12T07:25:10.634Z</time></trkpt><trkpt lat="40.997695" lon="16.3022"><ele>597.0</ele><time>2026-04-12T07:25:11.634Z</time></trkpt><trkpt lat="40.9977733" lon="16.3020783"><ele>597.0</ele><time>2026-04-12T07:25:12.633Z</time></trkpt><trkpt lat="40.9978567" lon="16.30195"><ele>597.0</ele><time>2026-04-12T07:25:13.634Z</time></trkpt><trkpt lat="40.9979417" lon="16.3018167"><ele>597.0</ele><time>2026-04-12T07:25:14.637Z</time></trkpt><trkpt lat="40.998025" lon="16.3016833"><ele>597.0</ele><time>2026-04-12T07:25:15.635Z</time></trkpt><trkpt lat="40.998105" lon="16.30155"><ele>596.75</ele><time>2026-04-12T07:25:16.634Z</time></trkpt><trkpt lat="40.99819" lon="16.30141"><ele>596.5</ele><time>2026-04-12T07:25:17.634Z</time></trkpt><trkpt lat="40.9982817" lon="16.3012683"><ele>596.25</ele><time>2026-04-12T07:25:18.636Z</time></trkpt><trkpt lat="40.99837" lon="16.3011233"><ele>596.0</ele><time>2026-04-12T07:25:19.634Z</time></trkpt><trkpt lat="40.9984567" lon="16.3009817"><ele>596.0</ele><time>2026-04-12T07:25:20.634Z</time></trkpt><trkpt lat="40.9985433" lon="16.3008417"><ele>596.0</ele><time>2026-04-12T07:25:21.633Z</time></trkpt><trkpt lat="40.99863" lon="16.3007017"><ele>596.0</ele><time>2026-04-12T07:25:22.634Z</time></trkpt><trkpt lat="40.9987167" lon="16.3005583"><ele>596.0</ele><time>2026-04-12T07:25:23.634Z</time></trkpt><trkpt lat="40.9988033" lon="16.3004167"><ele>596.0</ele><time>2026-04-12T07:25:24.634Z</time></trkpt><trkpt lat="40.99889" lon="16.3002717"><ele>596.0</ele><time>2026-04-12T07:25:25.634Z</time></trkpt><trkpt lat="40.9989683" lon="16.300135"><ele>596.0</ele><time>2026-04-12T07:25:26.634Z</time></trkpt><trkpt lat="40.9990433" lon="16.3000017"><ele>596.0</ele><time>2026-04-12T07:25:27.634Z</time></trkpt><trkpt lat="40.9991217" lon="16.29987"><ele>596.25</ele><time>2026-04-12T07:25:28.634Z</time></trkpt><trkpt lat="40.9992117" lon="16.2997533"><ele>596.5</ele><time>2026-04-12T07:25:29.633Z</time></trkpt><trkpt lat="40.999315" lon="16.299645"><ele>596.75</ele><time>2026-04-12T07:25:30.634Z</time></trkpt><trkpt lat="40.9994267" lon="16.2995433"><ele>597.0</ele><time>2026-04-12T07:25:31.634Z</time></trkpt><trkpt lat="40.99954" lon="16.2994517"><ele>597.0</ele><time>2026-04-12T07:25:32.636Z</time></trkpt><trkpt lat="40.9996483" lon="16.299365"><ele>597.0</ele><time>2026-04-12T07:25:33.634Z</time></trkpt><trkpt lat="40.9997583" lon="16.2992817"><ele>597.0</ele><time>2026-04-12T07:25:34.633Z</time></trkpt><trkpt lat="40.9998633" lon="16.2991967"><ele>597.0</ele><time>2026-04-12T07:25:35.634Z</time></trkpt><trkpt lat="40.9999667" lon="16.29911"><ele>597.0</ele><time>2026-04-12T07:25:36.633Z</time></trkpt><trkpt lat="41.0000767" lon="16.2990283"><ele>597.0</ele><time>2026-04-12T07:25:37.641Z</time></trkpt><trkpt lat="41.0001967" lon="16.2989517"><ele>597.0</ele><time>2026-04-12T07:25:38.635Z</time></trkpt><trkpt lat="41.0003217" lon="16.298875"><ele>597.0</ele><time>2026-04-12T07:25:39.635Z</time></trkpt><trkpt lat="41.0004533" lon="16.2987933"><ele>597.25</ele><time>2026-04-12T07:25:40.634Z</time></trkpt><trkpt lat="41.000585" lon="16.298715"><ele>597.5</ele><time>2026-04-12T07:25:41.635Z</time></trkpt><trkpt lat="41.00071" lon="16.2986517"><ele>597.75</ele><time>2026-04-12T07:25:42.635Z</time></trkpt><trkpt lat="41.0008317" lon="16.2986033"><ele>598.0</ele><time>2026-04-12T07:25:43.635Z</time></trkpt><trkpt lat="41.0009567" lon="16.29857"><ele>598.25</ele><time>2026-04-12T07:25:44.635Z</time></trkpt><trkpt lat="41.0010933" lon="16.2985483"><ele>598.5</ele><time>2026-04-12T07:25:45.635Z</time></trkpt><trkpt lat="41.0012267" lon="16.298535"><ele>598.75</ele><time>2026-04-12T07:25:46.635Z</time></trkpt><trkpt lat="41.0013467" lon="16.2985267"><ele>599.0</ele><time>2026-04-12T07:25:47.635Z</time></trkpt><trkpt lat="41.0014617" lon="16.29852"><ele>599.0</ele><time>2026-04-12T07:25:48.638Z</time></trkpt><trkpt lat="41.0015633" lon="16.2985217"><ele>599.0</ele><time>2026-04-12T07:25:49.634Z</time></trkpt><trkpt lat="41.0016617" lon="16.298525"><ele>599.0</ele><time>2026-04-12T07:25:50.635Z</time></trkpt><trkpt lat="41.0017517" lon="16.298535"><ele>599.0</ele><time>2026-04-12T07:25:51.635Z</time></trkpt><trkpt lat="41.001825" lon="16.2985483"><ele>599.0</ele><time>2026-04-12T07:25:52.635Z</time></trkpt><trkpt lat="41.0018883" lon="16.298565"><ele>599.0</ele><time>2026-04-12T07:25:54.634Z</time></trkpt><trkpt lat="41.00199" lon="16.29861"><ele>599.5</ele><time>2026-04-12T07:27:17.635Z</time></trkpt><trkpt lat="41.00207" lon="16.2986333"><ele>600.0</ele><time>2026-04-12T07:27:18.635Z</time></trkpt><trkpt lat="41.0021533" lon="16.298665"><ele>600.5</ele><time>2026-04-12T07:27:19.635Z</time></trkpt><trkpt lat="41.0022417" lon="16.2986917"><ele>601.0</ele><time>2026-04-12T07:27:20.635Z</time></trkpt><trkpt lat="41.0023283" lon="16.2987117"><ele>601.5</ele><time>2026-04-12T07:27:21.634Z</time></trkpt><trkpt lat="41.0024117" lon="16.2987267"><ele>602.0</ele><time>2026-04-12T07:27:22.636Z</time></trkpt><trkpt lat="41.0024983" lon="16.2987367"><ele>602.4</ele><time>2026-04-12T07:27:23.637Z</time></trkpt><trkpt lat="41.0025933" lon="16.2987433"><ele>602.8000000000001</ele><time>2026-04-12T07:27:24.635Z</time></trkpt><trkpt lat="41.0026967" lon="16.298745"><ele>603.2</ele><time>2026-04-12T07:27:25.635Z</time></trkpt><trkpt lat="41.0028117" lon="16.2987433"><ele>603.6</ele><time>2026-04-12T07:27:26.635Z</time></trkpt><trkpt lat="41.002925" lon="16.2987417"><ele>604.0</ele><time>2026-04-12T07:27:27.635Z</time></trkpt><trkpt lat="41.0030333" lon="16.2987317"><ele>604.0</ele><time>2026-04-12T07:27:28.634Z</time></trkpt><trkpt lat="41.00314" lon="16.298715"><ele>604.0</ele><time>2026-04-12T07:27:29.635Z</time></trkpt><trkpt lat="41.0032467" lon="16.2986967"><ele>604.0</ele><time>2026-04-12T07:27:30.636Z</time></trkpt><trkpt lat="41.003355" lon="16.2986733"><ele>604.0</ele><time>2026-04-12T07:27:31.634Z</time></trkpt><trkpt lat="41.0034717" lon="16.2986417"><ele>604.0</ele><time>2026-04-12T07:27:32.635Z</time></trkpt><trkpt lat="41.0035983" lon="16.29861"><ele>603.75</ele><time>2026-04-12T07:27:33.635Z</time></trkpt><trkpt lat="41.0037317" lon="16.2985783"><ele>603.5</ele><time>2026-04-12T07:27:34.637Z</time></trkpt><trkpt lat="41.003865" lon="16.29855"><ele>603.25</ele><time>2026-04-12T07:27:35.635Z</time></trkpt><trkpt lat="41.0039883" lon="16.2985167"><ele>603.0</ele><time>2026-04-12T07:27:36.634Z</time></trkpt><trkpt lat="41.004115" lon="16.2984867"><ele>602.25</ele><time>2026-04-12T07:27:37.634Z</time></trkpt><trkpt lat="41.0042467" lon="16.298465"><ele>601.5</ele><time>2026-04-12T07:27:38.635Z</time></trkpt><trkpt lat="41.00438" lon="16.29845"><ele>600.75</ele><time>2026-04-12T07:27:39.635Z</time></trkpt><trkpt lat="41.0045133" lon="16.29844"><ele>600.0</ele><time>2026-04-12T07:27:40.635Z</time></trkpt><trkpt lat="41.0046433" lon="16.29843"><ele>600.0</ele><time>2026-04-12T07:27:41.634Z</time></trkpt><trkpt lat="41.0047683" lon="16.29842"><ele>600.0</ele><time>2026-04-12T07:27:42.635Z</time></trkpt><trkpt lat="41.0048983" lon="16.2984033"><ele>600.0</ele><time>2026-04-12T07:27:43.635Z</time></trkpt><trkpt lat="41.0050333" lon="16.2983833"><ele>600.0</ele><time>2026-04-12T07:27:44.64Z</time></trkpt><trkpt lat="41.0051683" lon="16.2983583"><ele>599.5</ele><time>2026-04-12T07:27:45.635Z</time></trkpt><trkpt lat="41.0053017" lon="16.29833"><ele>599.0</ele><time>2026-04-12T07:27:46.634Z</time></trkpt><trkpt lat="41.00544" lon="16.2983033"><ele>598.5</ele><time>2026-04-12T07:27:47.635Z</time></trkpt><trkpt lat="41.0055817" lon="16.2982767"><ele>598.0</ele><time>2026-04-12T07:27:48.634Z</time></trkpt><trkpt lat="41.0057283" lon="16.298245"><ele>596.6666666666667</ele><time>2026-04-12T07:27:49.635Z</time></trkpt><trkpt lat="41.0058767" lon="16.2982133"><ele>595.3333333333334</ele><time>2026-04-12T07:27:50.635Z</time></trkpt><trkpt lat="41.006025" lon="16.2981833"><ele>594.0</ele><time>2026-04-12T07:27:51.635Z</time></trkpt><trkpt lat="41.0061767" lon="16.2981533"><ele>594.0</ele><time>2026-04-12T07:27:52.634Z</time></trkpt><trkpt lat="41.0063333" lon="16.29812"><ele>594.0</ele><time>2026-04-12T07:27:53.635Z</time></trkpt><trkpt lat="41.0064883" lon="16.29809"><ele>594.0</ele><time>2026-04-12T07:27:54.634Z</time></trkpt><trkpt lat="41.0066383" lon="16.2980633"><ele>593.25</ele><time>2026-04-12T07:27:55.635Z</time></trkpt><trkpt lat="41.0067817" lon="16.2980367"><ele>592.5</ele><time>2026-04-12T07:27:56.634Z</time></trkpt><trkpt lat="41.0069183" lon="16.29801"><ele>591.75</ele><time>2026-04-12T07:27:57.634Z</time></trkpt><trkpt lat="41.00705" lon="16.2979833"><ele>591.0</ele><time>2026-04-12T07:27:58.634Z</time></trkpt><trkpt lat="41.00718" lon="16.2979617"><ele>591.0</ele><time>2026-04-12T07:27:59.635Z</time></trkpt><trkpt lat="41.007305" lon="16.2979417"><ele>591.0</ele><time>2026-04-12T07:28:00.635Z</time></trkpt><trkpt lat="41.007425" lon="16.297925"><ele>591.0</ele><time>2026-04-12T07:28:01.634Z</time></trkpt><trkpt lat="41.0075317" lon="16.2979083"><ele>591.0</ele><time>2026-04-12T07:28:02.635Z</time></trkpt><trkpt lat="41.0076217" lon="16.2978933"><ele>591.0</ele><time>2026-04-12T07:28:03.634Z</time></trkpt><trkpt lat="41.0076983" lon="16.297875"><ele>590.6</ele><time>2026-04-12T07:28:04.635Z</time></trkpt><trkpt lat="41.00776" lon="16.2978383"><ele>590.2</ele><time>2026-04-12T07:28:05.732Z</time></trkpt><trkpt lat="41.0078517" lon="16.297755"><ele>589.8</ele><time>2026-04-12T07:28:07.635Z</time></trkpt><trkpt lat="41.007925" lon="16.2976567"><ele>589.4</ele><time>2026-04-12T07:28:09.634Z</time></trkpt><trkpt lat="41.00786" lon="16.2977117"><ele>589.0</ele><time>2026-04-12T07:29:26.635Z</time></trkpt><trkpt lat="41.0077883" lon="16.297795"><ele>589.0</ele><time>2026-04-12T07:29:28.635Z</time></trkpt><trkpt lat="41.0077117" lon="16.2978517"><ele>589.0</ele><time>2026-04-12T07:29:30.636Z</time></trkpt><trkpt lat="41.0076133" lon="16.29789"><ele>589.0</ele><time>2026-04-12T07:29:32.635Z</time></trkpt><trkpt lat="41.007495" lon="16.2979133"><ele>589.0</ele><time>2026-04-12T07:29:34.635Z</time></trkpt><trkpt lat="41.0074267" lon="16.29792"><ele>589.0</ele><time>2026-04-12T07:29:35.636Z</time></trkpt><trkpt lat="41.0073517" lon="16.29793"><ele>589.2857142857142</ele><time>2026-04-12T07:29:36.635Z</time></trkpt><trkpt lat="41.007275" lon="16.2979433"><ele>589.5714285714286</ele><time>2026-04-12T07:29:37.635Z</time></trkpt><trkpt lat="41.0072017" lon="16.2979583"><ele>589.8571428571429</ele><time>2026-04-12T07:29:38.635Z</time></trkpt><trkpt lat="41.0071283" lon="16.29797"><ele>590.1428571428571</ele><time>2026-04-12T07:29:39.634Z</time></trkpt><trkpt lat="41.0070583" lon="16.2979817"><ele>590.4285714285714</ele><time>2026-04-12T07:29:40.634Z</time></trkpt><trkpt lat="41.0069883" lon="16.29799"><ele>590.7142857142857</ele><time>2026-04-12T07:29:41.637Z</time></trkpt><trkpt lat="41.006915" lon="16.298005"><ele>591.0</ele><time>2026-04-12T07:29:42.634Z</time></trkpt><trkpt lat="41.0068367" lon="16.2980217"><ele>591.0</ele><time>2026-04-12T07:29:43.636Z</time></trkpt><trkpt lat="41.0067533" lon="16.29804"><ele>591.0</ele><time>2026-04-12T07:29:44.634Z</time></trkpt><trkpt lat="41.0066683" lon="16.2980567"><ele>591.0</ele><time>2026-04-12T07:29:45.634Z</time></trkpt><trkpt lat="41.0065817" lon="16.2980733"><ele>591.0</ele><time>2026-04-12T07:29:46.637Z</time></trkpt><trkpt lat="41.0064933" lon="16.2980917"><ele>591.0</ele><time>2026-04-12T07:29:47.634Z</time></trkpt><trkpt lat="41.0064033" lon="16.2981067"><ele>591.0</ele><time>2026-04-12T07:29:48.634Z</time></trkpt><trkpt lat="41.0063133" lon="16.2981217"><ele>591.6</ele><time>2026-04-12T07:29:49.635Z</time></trkpt><trkpt lat="41.0062217" lon="16.2981383"><ele>592.2</ele><time>2026-04-12T07:29:50.636Z</time></trkpt><trkpt lat="41.006125" lon="16.29816"><ele>592.8</ele><time>2026-04-12T07:29:51.635Z</time></trkpt><trkpt lat="41.0060217" lon="16.2981817"><ele>593.4</ele><time>2026-04-12T07:29:52.635Z</time></trkpt><trkpt lat="41.0059133" lon="16.2982067"><ele>594.0</ele><time>2026-04-12T07:29:53.637Z</time></trkpt><trkpt lat="41.0058017" lon="16.2982283"><ele>594.8</ele><time>2026-04-12T07:29:54.634Z</time></trkpt><trkpt lat="41.005695" lon="16.29825"><ele>595.5999999999999</ele><time>2026-04-12T07:29:55.634Z</time></trkpt><trkpt lat="41.0055917" lon="16.2982717"><ele>596.4</ele><time>2026-04-12T07:29:56.637Z</time></trkpt><trkpt lat="41.005485" lon="16.2982933"><ele>597.1999999999999</ele><time>2026-04-12T07:29:57.634Z</time></trkpt><trkpt lat="41.005375" lon="16.2983133"><ele>598.0</ele><time>2026-04-12T07:29:58.635Z</time></trkpt><trkpt lat="41.0052683" lon="16.2983317"><ele>598.0</ele><time>2026-04-12T07:29:59.635Z</time></trkpt><trkpt lat="41.0051617" lon="16.29835"><ele>598.0</ele><time>2026-04-12T07:30:00.634Z</time></trkpt><trkpt lat="41.005055" lon="16.298365"><ele>598.0</ele><time>2026-04-12T07:30:01.634Z</time></trkpt><trkpt lat="41.0049483" lon="16.2983783"><ele>598.0</ele><time>2026-04-12T07:30:02.634Z</time></trkpt><trkpt lat="41.0048417" lon="16.2983917"><ele>598.0</ele><time>2026-04-12T07:30:03.634Z</time></trkpt><trkpt lat="41.00473" lon="16.2984033"><ele>598.4</ele><time>2026-04-12T07:30:04.636Z</time></trkpt><trkpt lat="41.0046183" lon="16.298415"><ele>598.8</ele><time>2026-04-12T07:30:05.634Z</time></trkpt><trkpt lat="41.0045083" lon="16.29843"><ele>599.2</ele><time>2026-04-12T07:30:06.634Z</time></trkpt><trkpt lat="41.0044017" lon="16.2984417"><ele>599.6</ele><time>2026-04-12T07:30:07.635Z</time></trkpt><trkpt lat="41.0042933" lon="16.2984517"><ele>600.0</ele><time>2026-04-12T07:30:08.635Z</time></trkpt><trkpt lat="41.0041883" lon="16.298465"><ele>600.6</ele><time>2026-04-12T07:30:09.634Z</time></trkpt><trkpt lat="41.0040817" lon="16.298485"><ele>601.2</ele><time>2026-04-12T07:30:10.636Z</time></trkpt><trkpt lat="41.0039767" lon="16.2985033"><ele>601.8</ele><time>2026-04-12T07:30:11.634Z</time></trkpt><trkpt lat="41.0038683" lon="16.298525"><ele>602.4</ele><time>2026-04-12T07:30:12.634Z</time></trkpt><trkpt lat="41.00376" lon="16.2985517"><ele>603.0</ele><time>2026-04-12T07:30:13.635Z</time></trkpt><trkpt lat="41.0036517" lon="16.29858"><ele>603.0</ele><time>2026-04-12T07:30:14.635Z</time></trkpt><trkpt lat="41.0035383" lon="16.29861"><ele>603.0</ele><time>2026-04-12T07:30:15.638Z</time></trkpt><trkpt lat="41.00342" lon="16.2986417"><ele>603.0</ele><time>2026-04-12T07:30:16.635Z</time></trkpt><trkpt lat="41.0032967" lon="16.29867"><ele>603.0</ele><time>2026-04-12T07:30:17.635Z</time></trkpt><trkpt lat="41.0031667" lon="16.298695"><ele>603.25</ele><time>2026-04-12T07:30:18.636Z</time></trkpt><trkpt lat="41.0030333" lon="16.2987183"><ele>603.5</ele><time>2026-04-12T07:30:19.635Z</time></trkpt><trkpt lat="41.0029033" lon="16.298735"><ele>603.75</ele><time>2026-04-12T07:30:20.635Z</time></trkpt><trkpt lat="41.0027833" lon="16.298745"><ele>604.0</ele><time>2026-04-12T07:30:21.634Z</time></trkpt><trkpt lat="41.002675" lon="16.2987517"><ele>604.0</ele><time>2026-04-12T07:30:22.634Z</time></trkpt><trkpt lat="41.00257" lon="16.2987483"><ele>604.0</ele><time>2026-04-12T07:30:23.634Z</time></trkpt><trkpt lat="41.0024767" lon="16.298735"><ele>604.0</ele><time>2026-04-12T07:30:24.635Z</time></trkpt><trkpt lat="41.0023933" lon="16.2987217"><ele>604.0</ele><time>2026-04-12T07:30:25.635Z</time></trkpt><trkpt lat="41.0023217" lon="16.29871"><ele>604.0</ele><time>2026-04-12T07:30:26.635Z</time></trkpt><trkpt lat="41.002245" lon="16.2986933"><ele>604.0</ele><time>2026-04-12T07:30:27.634Z</time></trkpt><trkpt lat="41.0021583" lon="16.2986667"><ele>603.6</ele><time>2026-04-12T07:30:28.634Z</time></trkpt><trkpt lat="41.00206" lon="16.29863"><ele>603.2</ele><time>2026-04-12T07:30:29.635Z</time></trkpt><trkpt lat="41.0019517" lon="16.2985933"><ele>602.8000000000001</ele><time>2026-04-12T07:30:30.634Z</time></trkpt><trkpt lat="41.0018383" lon="16.2985617"><ele>602.4</ele><time>2026-04-12T07:30:31.635Z</time></trkpt><trkpt lat="41.0017217" lon="16.2985383"><ele>602.0</ele><time>2026-04-12T07:30:32.635Z</time></trkpt><trkpt lat="41.001605" lon="16.298525"><ele>601.25</ele><time>2026-04-12T07:30:33.634Z</time></trkpt><trkpt lat="41.0014917" lon="16.2985217"><ele>600.5</ele><time>2026-04-12T07:30:34.634Z</time></trkpt><trkpt lat="41.0013817" lon="16.29852"><ele>599.75</ele><time>2026-04-12T07:30:35.635Z</time></trkpt><trkpt lat="41.00127" lon="16.2985267"><ele>599.0</ele><time>2026-04-12T07:30:36.634Z</time></trkpt><trkpt lat="41.0011533" lon="16.29854"><ele>599.0</ele><time>2026-04-12T07:30:37.635Z</time></trkpt><trkpt lat="41.0010367" lon="16.2985583"><ele>599.0</ele><time>2026-04-12T07:30:38.638Z</time></trkpt><trkpt lat="41.0009233" lon="16.2985817"><ele>599.0</ele><time>2026-04-12T07:30:39.634Z</time></trkpt><trkpt lat="41.0008183" lon="16.2986083"><ele>599.0</ele><time>2026-04-12T07:30:40.634Z</time></trkpt><trkpt lat="41.0007167" lon="16.2986483"><ele>599.0</ele><time>2026-04-12T07:30:41.635Z</time></trkpt><trkpt lat="41.000615" lon="16.2986983"><ele>598.75</ele><time>2026-04-12T07:30:42.634Z</time></trkpt><trkpt lat="41.0005117" lon="16.2987567"><ele>598.5</ele><time>2026-04-12T07:30:43.634Z</time></trkpt><trkpt lat="41.0004033" lon="16.2988183"><ele>598.25</ele><time>2026-04-12T07:30:44.635Z</time></trkpt><trkpt lat="41.00029" lon="16.298885"><ele>598.0</ele><time>2026-04-12T07:30:45.634Z</time></trkpt><trkpt lat="41.0001717" lon="16.2989583"><ele>597.75</ele><time>2026-04-12T07:30:46.636Z</time></trkpt><trkpt lat="41.00005" lon="16.2990433"><ele>597.5</ele><time>2026-04-12T07:30:47.634Z</time></trkpt><trkpt lat="40.9999283" lon="16.2991317"><ele>597.25</ele><time>2026-04-12T07:30:48.636Z</time></trkpt><trkpt lat="40.9998117" lon="16.2992267"><ele>597.0</ele><time>2026-04-12T07:30:49.635Z</time></trkpt><trkpt lat="40.999695" lon="16.2993233"><ele>597.0</ele><time>2026-04-12T07:30:50.634Z</time></trkpt><trkpt lat="40.9995783" lon="16.2994167"><ele>597.0</ele><time>2026-04-12T07:30:51.635Z</time></trkpt><trkpt lat="40.99947" lon="16.2995033"><ele>597.0</ele><time>2026-04-12T07:30:52.634Z</time></trkpt><trkpt lat="40.9993667" lon="16.29959"><ele>597.0</ele><time>2026-04-12T07:30:53.636Z</time></trkpt><trkpt lat="40.9992683" lon="16.2996867"><ele>596.75</ele><time>2026-04-12T07:30:54.634Z</time></trkpt><trkpt lat="40.99918" lon="16.2997883"><ele>596.5</ele><time>2026-04-12T07:30:55.634Z</time></trkpt><trkpt lat="40.9990983" lon="16.2999033"><ele>596.25</ele><time>2026-04-12T07:30:56.635Z</time></trkpt><trkpt lat="40.9990183" lon="16.3000283"><ele>596.0</ele><time>2026-04-12T07:30:57.634Z</time></trkpt><trkpt lat="40.9989383" lon="16.300165"><ele>596.0</ele><time>2026-04-12T07:30:58.635Z</time></trkpt><trkpt lat="40.998855" lon="16.30031"><ele>596.0</ele><time>2026-04-12T07:30:59.636Z</time></trkpt><trkpt lat="40.9987633" lon="16.3004683"><ele>596.0</ele><time>2026-04-12T07:31:00.634Z</time></trkpt><trkpt lat="40.998665" lon="16.3006333"><ele>596.0</ele><time>2026-04-12T07:31:01.636Z</time></trkpt><trkpt lat="40.998565" lon="16.300795"><ele>596.0</ele><time>2026-04-12T07:31:02.636Z</time></trkpt><trkpt lat="40.9984667" lon="16.30095"><ele>596.0</ele><time>2026-04-12T07:31:03.639Z</time></trkpt><trkpt lat="40.99837" lon="16.301105"><ele>596.0</ele><time>2026-04-12T07:31:04.637Z</time></trkpt><trkpt lat="40.9982717" lon="16.301265"><ele>596.3333333333333</ele><time>2026-04-12T07:31:05.635Z</time></trkpt><trkpt lat="40.99817" lon="16.3014317"><ele>596.6666666666666</ele><time>2026-04-12T07:31:06.634Z</time></trkpt><trkpt lat="40.9980617" lon="16.3016083"><ele>597.0</ele><time>2026-04-12T07:31:07.635Z</time></trkpt><trkpt lat="40.9979533" lon="16.3017817"><ele>597.0</ele><time>2026-04-12T07:31:08.635Z</time></trkpt><trkpt lat="40.9978567" lon="16.301935"><ele>597.0</ele><time>2026-04-12T07:31:09.634Z</time></trkpt><trkpt lat="40.99777" lon="16.30207"><ele>597.0</ele><time>2026-04-12T07:31:10.635Z</time></trkpt><trkpt lat="40.9976883" lon="16.3021883"><ele>597.0</ele><time>2026-04-12T07:31:11.635Z</time></trkpt><trkpt lat="40.997605" lon="16.3022933"><ele>597.0</ele><time>2026-04-12T07:31:12.634Z</time></trkpt><trkpt lat="40.9975133" lon="16.3023817"><ele>597.0</ele><time>2026-04-12T07:31:13.634Z</time></trkpt><trkpt lat="40.9974067" lon="16.3024533"><ele>597.0</ele><time>2026-04-12T07:31:14.635Z</time></trkpt><trkpt lat="40.9972867" lon="16.30251"><ele>597.0</ele><time>2026-04-12T07:31:15.634Z</time></trkpt><trkpt lat="40.9971533" lon="16.3025467"><ele>597.0</ele><time>2026-04-12T07:31:16.634Z</time></trkpt><trkpt lat="40.9970067" lon="16.3025683"><ele>597.0</ele><time>2026-04-12T07:31:17.634Z</time></trkpt><trkpt lat="40.9968483" lon="16.3025733"><ele>597.0</ele><time>2026-04-12T07:31:18.634Z</time></trkpt><trkpt lat="40.996695" lon="16.302565"><ele>596.5</ele><time>2026-04-12T07:31:19.64Z</time></trkpt><trkpt lat="40.99655" lon="16.3025667"><ele>596.0</ele><time>2026-04-12T07:31:20.635Z</time></trkpt><trkpt lat="40.996415" lon="16.3025733"><ele>595.5</ele><time>2026-04-12T07:31:21.635Z</time></trkpt><trkpt lat="40.9962917" lon="16.3025733"><ele>595.0</ele><time>2026-04-12T07:31:22.634Z</time></trkpt><trkpt lat="40.9961733" lon="16.3025667"><ele>595.0</ele><time>2026-04-12T07:31:23.635Z</time></trkpt><trkpt lat="40.9960567" lon="16.30256"><ele>595.0</ele><time>2026-04-12T07:31:24.636Z</time></trkpt><trkpt lat="40.9959417" lon="16.3025483"><ele>595.0</ele><time>2026-04-12T07:31:25.634Z</time></trkpt><trkpt lat="40.99583" lon="16.3025317"><ele>595.0</ele><time>2026-04-12T07:31:26.634Z</time></trkpt><trkpt lat="40.9957283" lon="16.3025133"><ele>595.0</ele><time>2026-04-12T07:31:27.634Z</time></trkpt><trkpt lat="40.995635" lon="16.3025033"><ele>595.0</ele><time>2026-04-12T07:31:28.634Z</time></trkpt><trkpt lat="40.99555" lon="16.302505"><ele>595.0</ele><time>2026-04-12T07:31:29.635Z</time></trkpt><trkpt lat="40.9954783" lon="16.302525"><ele>595.0</ele><time>2026-04-12T07:31:30.634Z</time></trkpt><trkpt lat="40.99541" lon="16.302565"><ele>595.0</ele><time>2026-04-12T07:31:31.634Z</time></trkpt><trkpt lat="40.995345" lon="16.3026267"><ele>595.0</ele><time>2026-04-12T07:31:32.636Z</time></trkpt><trkpt lat="40.995285" lon="16.302705"><ele>595.0</ele><time>2026-04-12T07:31:33.64Z</time></trkpt><trkpt lat="40.9952383" lon="16.3027933"><ele>595.0</ele><time>2026-04-12T07:31:34.634Z</time></trkpt><trkpt lat="40.9952067" lon="16.3028833"><ele>595.0</ele><time>2026-04-12T07:31:35.635Z</time></trkpt><trkpt lat="40.9951783" lon="16.3029717"><ele>595.0</ele><time>2026-04-12T07:31:36.634Z</time></trkpt><trkpt lat="40.99515" lon="16.3030617"><ele>595.0</ele><time>2026-04-12T07:31:37.637Z</time></trkpt><trkpt lat="40.9951183" lon="16.3031567"><ele>595.0</ele><time>2026-04-12T07:31:38.735Z</time></trkpt><trkpt lat="40.99508" lon="16.3032617"><ele>595.0</ele><time>2026-04-12T07:31:39.634Z</time></trkpt><trkpt lat="40.995045" lon="16.3033817"><ele>595.3333333333334</ele><time>2026-04-12T07:31:40.634Z</time></trkpt><trkpt lat="40.9950183" lon="16.3034983"><ele>595.6666666666667</ele><time>2026-04-12T07:31:41.634Z</time></trkpt><trkpt lat="40.9950017" lon="16.3036033"><ele>596.0</ele><time>2026-04-12T07:31:42.638Z</time></trkpt><trkpt lat="40.9949817" lon="16.303705"><ele>596.3333333333334</ele><time>2026-04-12T07:31:43.635Z</time></trkpt><trkpt lat="40.9949533" lon="16.3037917"><ele>596.6666666666666</ele><time>2026-04-12T07:31:44.635Z</time></trkpt><trkpt lat="40.9949133" lon="16.30386"><ele>597.0</ele><time>2026-04-12T07:31:45.634Z</time></trkpt><trkpt lat="40.9948617" lon="16.30392"><ele>597.6</ele><time>2026-04-12T07:31:46.634Z</time></trkpt><trkpt lat="40.994795" lon="16.3039817"><ele>598.2</ele><time>2026-04-12T07:31:47.635Z</time></trkpt><trkpt lat="40.9947083" lon="16.3040483"><ele>598.8</ele><time>2026-04-12T07:31:48.634Z</time></trkpt><trkpt lat="40.9946133" lon="16.3041133"><ele>599.4</ele><time>2026-04-12T07:31:49.634Z</time></trkpt><trkpt lat="40.99451" lon="16.3041767"><ele>600.0</ele><time>2026-04-12T07:31:50.634Z</time></trkpt><trkpt lat="40.9944017" lon="16.3042417"><ele>600.0</ele><time>2026-04-12T07:31:51.634Z</time></trkpt><trkpt lat="40.9942817" lon="16.3043283"><ele>600.0</ele><time>2026-04-12T07:31:52.634Z</time></trkpt><trkpt lat="40.9941517" lon="16.3044183"><ele>600.0</ele><time>2026-04-12T07:31:53.634Z</time></trkpt><trkpt lat="40.9940067" lon="16.3045167"><ele>600.0</ele><time>2026-04-12T07:31:54.637Z</time></trkpt><trkpt lat="40.9938517" lon="16.30462"><ele>600.6666666666666</ele><time>2026-04-12T07:31:55.634Z</time></trkpt><trkpt lat="40.9936967" lon="16.30474"><ele>601.3333333333333</ele><time>2026-04-12T07:31:56.641Z</time></trkpt><trkpt lat="40.99354" lon="16.3048833"><ele>602.0</ele><time>2026-04-12T07:31:57.638Z</time></trkpt><trkpt lat="40.9933833" lon="16.3050483"><ele>603.3333333333333</ele><time>2026-04-12T07:31:58.635Z</time></trkpt><trkpt lat="40.9932317" lon="16.3052217"><ele>604.6666666666666</ele><time>2026-04-12T07:31:59.635Z</time></trkpt><trkpt lat="40.9930933" lon="16.3053867"><ele>606.0</ele><time>2026-04-12T07:32:00.633Z</time></trkpt><trkpt lat="40.99297" lon="16.3055267"><ele>605.8</ele><time>2026-04-12T07:32:01.635Z</time></trkpt><trkpt lat="40.9928733" lon="16.305635"><ele>605.6</ele><time>2026-04-12T07:32:02.635Z</time></trkpt><trkpt lat="40.9927583" lon="16.3057433"><ele>605.4</ele><time>2026-04-12T07:32:04.634Z</time></trkpt><trkpt lat="40.9926567" lon="16.30573"><ele>605.2</ele><time>2026-04-12T07:32:06.636Z</time></trkpt><trkpt lat="40.9925983" lon="16.305675"><ele>605.0</ele><time>2026-04-12T07:32:07.634Z</time></trkpt><trkpt lat="40.9925283" lon="16.3055933"><ele>605.5</ele><time>2026-04-12T07:32:08.636Z</time></trkpt><trkpt lat="40.992445" lon="16.3054967"><ele>606.0</ele><time>2026-04-12T07:32:09.634Z</time></trkpt><trkpt lat="40.9923467" lon="16.30539"><ele>606.5</ele><time>2026-04-12T07:32:10.634Z</time></trkpt><trkpt lat="40.9922367" lon="16.3052767"><ele>607.0</ele><time>2026-04-12T07:32:11.64Z</time></trkpt><trkpt lat="40.9921167" lon="16.30515"><ele>607.0</ele><time>2026-04-12T07:32:12.633Z</time></trkpt><trkpt lat="40.9919933" lon="16.3050167"><ele>607.0</ele><time>2026-04-12T07:32:13.635Z</time></trkpt><trkpt lat="40.9918717" lon="16.3048933"><ele>607.0</ele><time>2026-04-12T07:32:14.634Z</time></trkpt><trkpt lat="40.9917567" lon="16.3047783"><ele>605.5</ele><time>2026-04-12T07:32:15.633Z</time></trkpt><trkpt lat="40.9916417" lon="16.3046733"><ele>604.0</ele><time>2026-04-12T07:32:16.635Z</time></trkpt><trkpt lat="40.9915217" lon="16.3045783"><ele>602.5</ele><time>2026-04-12T07:32:17.635Z</time></trkpt><trkpt lat="40.9913917" lon="16.3044867"><ele>601.0</ele><time>2026-04-12T07:32:18.633Z</time></trkpt><trkpt lat="40.9912517" lon="16.3043983"><ele>601.0</ele><time>2026-04-12T07:32:19.634Z</time></trkpt><trkpt lat="40.9911033" lon="16.30431"><ele>601.0</ele><time>2026-04-12T07:32:20.634Z</time></trkpt><trkpt lat="40.990955" lon="16.304225"><ele>601.0</ele><time>2026-04-12T07:32:21.635Z</time></trkpt><trkpt lat="40.9908017" lon="16.3041567"><ele>599.6666666666667</ele><time>2026-04-12T07:32:22.634Z</time></trkpt><trkpt lat="40.9906417" lon="16.3041083"><ele>598.3333333333334</ele><time>2026-04-12T07:32:23.633Z</time></trkpt><trkpt lat="40.9904783" lon="16.3040783"><ele>597.0</ele><time>2026-04-12T07:32:24.635Z</time></trkpt><trkpt lat="40.9903083" lon="16.30407"><ele>597.0</ele><time>2026-04-12T07:32:25.635Z</time></trkpt><trkpt lat="40.99013" lon="16.3040767"><ele>597.0</ele><time>2026-04-12T07:32:26.636Z</time></trkpt><trkpt lat="40.9899483" lon="16.3041"><ele>597.0</ele><time>2026-04-12T07:32:27.636Z</time></trkpt><trkpt lat="40.9897667" lon="16.304145"><ele>595.6666666666666</ele><time>2026-04-12T07:32:28.634Z</time></trkpt><trkpt lat="40.9895817" lon="16.3042183"><ele>594.3333333333333</ele><time>2026-04-12T07:32:29.634Z</time></trkpt><trkpt lat="40.989395" lon="16.30431"><ele>593.0</ele><time>2026-04-12T07:32:30.635Z</time></trkpt><trkpt lat="40.9892033" lon="16.3044033"><ele>593.0</ele><time>2026-04-12T07:32:31.642Z</time></trkpt><trkpt lat="40.9890067" lon="16.3044983"><ele>593.0</ele><time>2026-04-12T07:32:32.637Z</time></trkpt><trkpt lat="40.988805" lon="16.3045933"><ele>593.0</ele><time>2026-04-12T07:32:33.635Z</time></trkpt><trkpt lat="40.988595" lon="16.3046933"><ele>592.5</ele><time>2026-04-12T07:32:34.634Z</time></trkpt><trkpt lat="40.9883817" lon="16.30479"><ele>592.0</ele><time>2026-04-12T07:32:35.636Z</time></trkpt><trkpt lat="40.9881667" lon="16.3048917"><ele>591.3333333333334</ele><time>2026-04-12T07:32:36.64Z</time></trkpt><trkpt lat="40.9879533" lon="16.30499"><ele>590.6666666666666</ele><time>2026-04-12T07:32:37.636Z</time></trkpt><trkpt lat="40.9877517" lon="16.3050817"><ele>590.0</ele><time>2026-04-12T07:32:38.636Z</time></trkpt><trkpt lat="40.987565" lon="16.3051683"><ele>589.3333333333333</ele><time>2026-04-12T07:32:39.636Z</time></trkpt><trkpt lat="40.9873917" lon="16.3052433"><ele>588.6666666666666</ele><time>2026-04-12T07:32:40.636Z</time></trkpt><trkpt lat="40.987225" lon="16.30531"><ele>588.0</ele><time>2026-04-12T07:32:41.637Z</time></trkpt><trkpt lat="40.9870567" lon="16.3053767"><ele>588.0</ele><time>2026-04-12T07:32:42.634Z</time></trkpt><trkpt lat="40.9868833" lon="16.30544"><ele>588.0</ele><time>2026-04-12T07:32:43.634Z</time></trkpt><trkpt lat="40.9867033" lon="16.3055017"><ele>588.0</ele><time>2026-04-12T07:32:44.637Z</time></trkpt><trkpt lat="40.986515" lon="16.3055617"><ele>589.6666666666666</ele><time>2026-04-12T07:32:45.635Z</time></trkpt><trkpt lat="40.9863233" lon="16.305625"><ele>591.3333333333333</ele><time>2026-04-12T07:32:46.634Z</time></trkpt><trkpt lat="40.9861267" lon="16.3056933"><ele>593.0</ele><time>2026-04-12T07:32:47.636Z</time></trkpt><trkpt lat="40.9859267" lon="16.30576"><ele>592.6666666666666</ele><time>2026-04-12T07:32:48.635Z</time></trkpt><trkpt lat="40.985715" lon="16.3058283"><ele>592.3333333333334</ele><time>2026-04-12T07:32:49.634Z</time></trkpt><trkpt lat="40.9854983" lon="16.305895"><ele>592.0</ele><time>2026-04-12T07:32:50.635Z</time></trkpt><trkpt lat="40.9852783" lon="16.305965"><ele>592.0</ele><time>2026-04-12T07:32:51.636Z</time></trkpt><trkpt lat="40.9850533" lon="16.3060383"><ele>592.0</ele><time>2026-04-12T07:32:52.635Z</time></trkpt><trkpt lat="40.984825" lon="16.306115"><ele>592.3333333333334</ele><time>2026-04-12T07:32:53.635Z</time></trkpt><trkpt lat="40.9846017" lon="16.306185"><ele>592.6666666666666</ele><time>2026-04-12T07:32:54.635Z</time></trkpt><trkpt lat="40.9843933" lon="16.30625"><ele>593.0</ele><time>2026-04-12T07:32:55.634Z</time></trkpt><trkpt lat="40.984195" lon="16.3063117"><ele>593.0</ele><time>2026-04-12T07:32:56.638Z</time></trkpt><trkpt lat="40.9839933" lon="16.306375"><ele>593.0</ele><time>2026-04-12T07:32:57.634Z</time></trkpt><trkpt lat="40.9837883" lon="16.3064483"><ele>593.0</ele><time>2026-04-12T07:32:58.635Z</time></trkpt><trkpt lat="40.98358" lon="16.3065367"><ele>593.0</ele><time>2026-04-12T07:32:59.635Z</time></trkpt><trkpt lat="40.9833717" lon="16.3066417"><ele>593.0</ele><time>2026-04-12T07:33:00.634Z</time></trkpt><trkpt lat="40.983165" lon="16.306755"><ele>593.0</ele><time>2026-04-12T07:33:01.635Z</time></trkpt><trkpt lat="40.9829533" lon="16.3068817"><ele>592.5</ele><time>2026-04-12T07:33:02.637Z</time></trkpt><trkpt lat="40.9827333" lon="16.3070183"><ele>592.0</ele><time>2026-04-12T07:33:03.636Z</time></trkpt><trkpt lat="40.9825133" lon="16.3071533"><ele>591.3333333333334</ele><time>2026-04-12T07:33:04.634Z</time></trkpt><trkpt lat="40.9823017" lon="16.3072817"><ele>590.6666666666666</ele><time>2026-04-12T07:33:05.634Z</time></trkpt><trkpt lat="40.982105" lon="16.3074017"><ele>590.0</ele><time>2026-04-12T07:33:06.635Z</time></trkpt><trkpt lat="40.9819217" lon="16.307515"><ele>590.0</ele><time>2026-04-12T07:33:07.634Z</time></trkpt><trkpt lat="40.981755" lon="16.3076167"><ele>590.0</ele><time>2026-04-12T07:33:08.635Z</time></trkpt><trkpt lat="40.9816117" lon="16.3077"><ele>590.0</ele><time>2026-04-12T07:33:09.634Z</time></trkpt><trkpt lat="40.981495" lon="16.307765"><ele>590.0</ele><time>2026-04-12T07:33:10.638Z</time></trkpt><trkpt lat="40.9813883" lon="16.3078133"><ele>590.0</ele><time>2026-04-12T07:33:11.634Z</time></trkpt><trkpt lat="40.9812833" lon="16.3078383"><ele>590.0</ele><time>2026-04-12T07:33:12.634Z</time></trkpt><trkpt lat="40.9811633" lon="16.3078317"><ele>590.0</ele><time>2026-04-12T07:33:13.634Z</time></trkpt><trkpt lat="40.981035" lon="16.3077917"><ele>590.0</ele><time>2026-04-12T07:33:14.635Z</time></trkpt><trkpt lat="40.9808967" lon="16.3077283"><ele>590.0</ele><time>2026-04-12T07:33:15.634Z</time></trkpt><trkpt lat="40.9807417" lon="16.3076517"><ele>590.0</ele><time>2026-04-12T07:33:16.635Z</time></trkpt><trkpt lat="40.9805667" lon="16.307575"><ele>590.6666666666666</ele><time>2026-04-12T07:33:17.634Z</time></trkpt><trkpt lat="40.9803883" lon="16.3074933"><ele>591.3333333333334</ele><time>2026-04-12T07:33:18.635Z</time></trkpt><trkpt lat="40.9802217" lon="16.3074117"><ele>592.0</ele><time>2026-04-12T07:33:19.636Z</time></trkpt><trkpt lat="40.9800667" lon="16.3073383"><ele>592.3333333333334</ele><time>2026-04-12T07:33:20.635Z</time></trkpt><trkpt lat="40.97991" lon="16.30728"><ele>592.6666666666666</ele><time>2026-04-12T07:33:21.635Z</time></trkpt><trkpt lat="40.9797417" lon="16.30724"><ele>593.0</ele><time>2026-04-12T07:33:22.635Z</time></trkpt><trkpt lat="40.9795617" lon="16.3072167"><ele>592.3333333333333</ele><time>2026-04-12T07:33:23.635Z</time></trkpt><trkpt lat="40.979365" lon="16.3072183"><ele>591.6666666666666</ele><time>2026-04-12T07:33:24.634Z</time></trkpt><trkpt lat="40.9791567" lon="16.3072183"><ele>591.0</ele><time>2026-04-12T07:33:25.635Z</time></trkpt><trkpt lat="40.9789383" lon="16.307215"><ele>591.0</ele><time>2026-04-12T07:33:26.635Z</time></trkpt><trkpt lat="40.9787117" lon="16.3072083"><ele>591.0</ele><time>2026-04-12T07:33:27.634Z</time></trkpt><trkpt lat="40.9784817" lon="16.3072033"><ele>592.0</ele><time>2026-04-12T07:33:28.635Z</time></trkpt><trkpt lat="40.9782517" lon="16.3071967"><ele>593.0</ele><time>2026-04-12T07:33:29.641Z</time></trkpt><trkpt lat="40.9780183" lon="16.3071817"><ele>593.0</ele><time>2026-04-12T07:33:30.639Z</time></trkpt><trkpt lat="40.9777783" lon="16.30716"><ele>593.0</ele><time>2026-04-12T07:33:31.634Z</time></trkpt><trkpt lat="40.9775367" lon="16.307135"><ele>593.0</ele><time>2026-04-12T07:33:32.635Z</time></trkpt><trkpt lat="40.97729" lon="16.3071067"><ele>593.0</ele><time>2026-04-12T07:33:33.635Z</time></trkpt><trkpt lat="40.97704" lon="16.3070683"><ele>593.0</ele><time>2026-04-12T07:33:34.635Z</time></trkpt><trkpt lat="40.9768017" lon="16.3070317"><ele>593.0</ele><time>2026-04-12T07:33:35.635Z</time></trkpt><trkpt lat="40.9765717" lon="16.3070033"><ele>593.0</ele><time>2026-04-12T07:33:36.634Z</time></trkpt><trkpt lat="40.9763483" lon="16.3069733"><ele>593.0</ele><time>2026-04-12T07:33:37.636Z</time></trkpt><trkpt lat="40.9761317" lon="16.306945"><ele>593.0</ele><time>2026-04-12T07:33:38.635Z</time></trkpt><trkpt lat="40.97593" lon="16.306915"><ele>593.3333333333333</ele><time>2026-04-12T07:33:39.635Z</time></trkpt><trkpt lat="40.97574" lon="16.3068817"><ele>593.6666666666666</ele><time>2026-04-12T07:33:40.635Z</time></trkpt><trkpt lat="40.97556" lon="16.3068483"><ele>594.0</ele><time>2026-04-12T07:33:41.636Z</time></trkpt><trkpt lat="40.9753817" lon="16.306805"><ele>594.0</ele><time>2026-04-12T07:33:42.635Z</time></trkpt><trkpt lat="40.97521" lon="16.3067583"><ele>594.0</ele><time>2026-04-12T07:33:43.635Z</time></trkpt><trkpt lat="40.975055" lon="16.3067083"><ele>594.0</ele><time>2026-04-12T07:33:44.636Z</time></trkpt><trkpt lat="40.9749183" lon="16.3066567"><ele>593.5</ele><time>2026-04-12T07:33:45.635Z</time></trkpt><trkpt lat="40.9747867" lon="16.3066083"><ele>593.0</ele><time>2026-04-12T07:33:46.635Z</time></trkpt><trkpt lat="40.9746517" lon="16.3065617"><ele>592.5</ele><time>2026-04-12T07:33:47.634Z</time></trkpt><trkpt lat="40.9745067" lon="16.3065217"><ele>592.0</ele><time>2026-04-12T07:33:48.636Z</time></trkpt><trkpt lat="40.9743483" lon="16.306495"><ele>591.3333333333334</ele><time>2026-04-12T07:33:49.636Z</time></trkpt><trkpt lat="40.9741867" lon="16.3064867"><ele>590.6666666666666</ele><time>2026-04-12T07:33:50.635Z</time></trkpt><trkpt lat="40.9740233" lon="16.3064933"><ele>590.0</ele><time>2026-04-12T07:33:51.635Z</time></trkpt><trkpt lat="40.9738583" lon="16.30651"><ele>590.0</ele><time>2026-04-12T07:33:52.634Z</time></trkpt><trkpt lat="40.9737" lon="16.3065333"><ele>590.0</ele><time>2026-04-12T07:33:53.635Z</time></trkpt><trkpt lat="40.9735633" lon="16.30656"><ele>590.0</ele><time>2026-04-12T07:33:54.635Z</time></trkpt><trkpt lat="40.9734533" lon="16.306575"><ele>590.0</ele><time>2026-04-12T07:33:55.634Z</time></trkpt><trkpt lat="40.9733717" lon="16.3065717"><ele>590.1666666666666</ele><time>2026-04-12T07:33:56.635Z</time></trkpt><trkpt lat="40.9733083" lon="16.30655"><ele>590.3333333333333</ele><time>2026-04-12T07:33:57.634Z</time></trkpt><trkpt lat="40.9732183" lon="16.3064583"><ele>590.5</ele><time>2026-04-12T07:33:59.637Z</time></trkpt><trkpt lat="40.97318" lon="16.3063733"><ele>590.6666666666666</ele><time>2026-04-12T07:34:00.634Z</time></trkpt><trkpt lat="40.97315" lon="16.306265"><ele>590.8333333333334</ele><time>2026-04-12T07:34:01.634Z</time></trkpt><trkpt lat="40.9731167" lon="16.306145"><ele>591.0</ele><time>2026-04-12T07:34:02.635Z</time></trkpt><trkpt lat="40.973075" lon="16.3060033"><ele>591.0</ele><time>2026-04-12T07:34:03.634Z</time></trkpt><trkpt lat="40.9730317" lon="16.30586"><ele>591.0</ele><time>2026-04-12T07:34:04.635Z</time></trkpt><trkpt lat="40.9729933" lon="16.3057267"><ele>591.0</ele><time>2026-04-12T07:34:05.634Z</time></trkpt><trkpt lat="40.9729583" lon="16.305605"><ele>591.0</ele><time>2026-04-12T07:34:06.634Z</time></trkpt><trkpt lat="40.97292" lon="16.305495"><ele>591.0</ele><time>2026-04-12T07:34:07.636Z</time></trkpt><trkpt lat="40.9728833" lon="16.3053867"><ele>591.4</ele><time>2026-04-12T07:34:08.635Z</time></trkpt><trkpt lat="40.9728483" lon="16.3052717"><ele>591.8</ele><time>2026-04-12T07:34:09.635Z</time></trkpt><trkpt lat="40.97281" lon="16.305145"><ele>592.1999999999999</ele><time>2026-04-12T07:34:10.634Z</time></trkpt><trkpt lat="40.97277" lon="16.3050133"><ele>592.6</ele><time>2026-04-12T07:34:11.634Z</time></trkpt><trkpt lat="40.97273" lon="16.304875"><ele>593.0</ele><time>2026-04-12T07:34:12.634Z</time></trkpt><trkpt lat="40.97269" lon="16.3047317"><ele>592.8</ele><time>2026-04-12T07:34:13.634Z</time></trkpt><trkpt lat="40.97265" lon="16.3045967"><ele>592.5999999999999</ele><time>2026-04-12T07:34:14.634Z</time></trkpt><trkpt lat="40.97261" lon="16.304475"><ele>592.4000000000001</ele><time>2026-04-12T07:34:15.634Z</time></trkpt><trkpt lat="40.9725733" lon="16.3043633"><ele>592.2</ele><time>2026-04-12T07:34:16.634Z</time></trkpt><trkpt lat="40.9725417" lon="16.30426"><ele>592.0</ele><time>2026-04-12T07:34:17.635Z</time></trkpt><trkpt lat="40.972515" lon="16.304165"><ele>592.0</ele><time>2026-04-12T07:34:18.634Z</time></trkpt><trkpt lat="40.9724867" lon="16.3040667"><ele>592.0</ele><time>2026-04-12T07:34:19.634Z</time></trkpt><trkpt lat="40.9724583" lon="16.3039567"><ele>592.0</ele><time>2026-04-12T07:34:20.636Z</time></trkpt><trkpt lat="40.9724283" lon="16.303835"><ele>592.0</ele><time>2026-04-12T07:34:21.634Z</time></trkpt><trkpt lat="40.9724017" lon="16.3037"><ele>592.0</ele><time>2026-04-12T07:34:22.635Z</time></trkpt><trkpt lat="40.9723783" lon="16.303555"><ele>591.5</ele><time>2026-04-12T07:34:23.637Z</time></trkpt><trkpt lat="40.972355" lon="16.3033917"><ele>591.0</ele><time>2026-04-12T07:34:24.635Z</time></trkpt><trkpt lat="40.9723317" lon="16.3032083"><ele>590.5</ele><time>2026-04-12T07:34:25.634Z</time></trkpt><trkpt lat="40.972315" lon="16.3030117"><ele>590.0</ele><time>2026-04-12T07:34:26.635Z</time></trkpt><trkpt lat="40.9723033" lon="16.3027967"><ele>590.0</ele><time>2026-04-12T07:34:27.634Z</time></trkpt><trkpt lat="40.9722933" lon="16.30257"><ele>590.0</ele><time>2026-04-12T07:34:28.636Z</time></trkpt><trkpt lat="40.97228" lon="16.3023367"><ele>590.0</ele><time>2026-04-12T07:34:29.635Z</time></trkpt><trkpt lat="40.97227" lon="16.3020983"><ele>590.3333333333333</ele><time>2026-04-12T07:34:30.635Z</time></trkpt><trkpt lat="40.9722617" lon="16.301855"><ele>590.6666666666666</ele><time>2026-04-12T07:34:31.635Z</time></trkpt><trkpt lat="40.972255" lon="16.3016117"><ele>591.0</ele><time>2026-04-12T07:34:32.636Z</time></trkpt><trkpt lat="40.97225" lon="16.30138"><ele>590.3333333333334</ele><time>2026-04-12T07:34:33.634Z</time></trkpt><trkpt lat="40.9722583" lon="16.301155"><ele>589.6666666666667</ele><time>2026-04-12T07:34:34.635Z</time></trkpt><trkpt lat="40.972285" lon="16.300925"><ele>589.0</ele><time>2026-04-12T07:34:35.636Z</time></trkpt><trkpt lat="40.9723283" lon="16.3006867"><ele>588.3333333333334</ele><time>2026-04-12T07:34:36.634Z</time></trkpt><trkpt lat="40.9723867" lon="16.3004533"><ele>587.6666666666666</ele><time>2026-04-12T07:34:37.634Z</time></trkpt><trkpt lat="40.9724483" lon="16.300235"><ele>587.0</ele><time>2026-04-12T07:34:38.635Z</time></trkpt><trkpt lat="40.9725" lon="16.3000267"><ele>587.25</ele><time>2026-04-12T07:34:39.634Z</time></trkpt><trkpt lat="40.9725317" lon="16.29983"><ele>587.5</ele><time>2026-04-12T07:34:40.634Z</time></trkpt><trkpt lat="40.9725467" lon="16.2996383"><ele>587.75</ele><time>2026-04-12T07:34:41.634Z</time></trkpt><trkpt lat="40.9725383" lon="16.2994517"><ele>588.0</ele><time>2026-04-12T07:34:42.634Z</time></trkpt><trkpt lat="40.9725133" lon="16.2992683"><ele>586.6666666666666</ele><time>2026-04-12T07:34:43.635Z</time></trkpt><trkpt lat="40.9724683" lon="16.299085"><ele>585.3333333333333</ele><time>2026-04-12T07:34:44.634Z</time></trkpt><trkpt lat="40.9724" lon="16.2989033"><ele>584.0</ele><time>2026-04-12T07:34:45.636Z</time></trkpt><trkpt lat="40.9723083" lon="16.298725"><ele>583.6666666666666</ele><time>2026-04-12T07:34:46.634Z</time></trkpt><trkpt lat="40.9721933" lon="16.2985467"><ele>583.3333333333334</ele><time>2026-04-12T07:34:47.635Z</time></trkpt><trkpt lat="40.97206" lon="16.2983683"><ele>583.0</ele><time>2026-04-12T07:34:48.637Z</time></trkpt><trkpt lat="40.9719233" lon="16.2981833"><ele>582.0</ele><time>2026-04-12T07:34:49.635Z</time></trkpt><trkpt lat="40.9717817" lon="16.2979933"><ele>581.0</ele><time>2026-04-12T07:34:50.637Z</time></trkpt><trkpt lat="40.9716367" lon="16.2978"><ele>580.0</ele><time>2026-04-12T07:34:51.634Z</time></trkpt><trkpt lat="40.9714867" lon="16.2976017"><ele>580.0</ele><time>2026-04-12T07:34:52.634Z</time></trkpt><trkpt lat="40.9713333" lon="16.2973917"><ele>580.0</ele><time>2026-04-12T07:34:53.635Z</time></trkpt><trkpt lat="40.97118" lon="16.2971767"><ele>580.0</ele><time>2026-04-12T07:34:54.634Z</time></trkpt><trkpt lat="40.97102" lon="16.2969583"><ele>580.0</ele><time>2026-04-12T07:34:55.635Z</time></trkpt><trkpt lat="40.9708583" lon="16.2967433"><ele>580.0</ele><time>2026-04-12T07:34:56.636Z</time></trkpt><trkpt lat="40.970695" lon="16.2965283"><ele>583.5</ele><time>2026-04-12T07:34:57.635Z</time></trkpt><trkpt lat="40.9705367" lon="16.2963117"><ele>587.0</ele><time>2026-04-12T07:34:58.633Z</time></trkpt><trkpt lat="40.97038" lon="16.2960967"><ele>587.0</ele><time>2026-04-12T07:34:59.634Z</time></trkpt><trkpt lat="40.9702317" lon="16.295895"><ele>587.0</ele><time>2026-04-12T07:35:00.633Z</time></trkpt><trkpt lat="40.9700933" lon="16.295705"><ele>587.0</ele><time>2026-04-12T07:35:01.638Z</time></trkpt><trkpt lat="40.969965" lon="16.29552"><ele>585.0</ele><time>2026-04-12T07:35:02.636Z</time></trkpt><trkpt lat="40.969845" lon="16.2953333"><ele>583.0</ele><time>2026-04-12T07:35:03.635Z</time></trkpt><trkpt lat="40.9697367" lon="16.2951233"><ele>581.0</ele><time>2026-04-12T07:35:04.634Z</time></trkpt><trkpt lat="40.969635" lon="16.2948883"><ele>581.6666666666666</ele><time>2026-04-12T07:35:05.639Z</time></trkpt><trkpt lat="40.9695383" lon="16.29463"><ele>582.3333333333334</ele><time>2026-04-12T07:35:06.637Z</time></trkpt><trkpt lat="40.9694467" lon="16.2943617"><ele>583.0</ele><time>2026-04-12T07:35:07.635Z</time></trkpt><trkpt lat="40.9693583" lon="16.294105"><ele>582.3333333333334</ele><time>2026-04-12T07:35:08.634Z</time></trkpt><trkpt lat="40.9692717" lon="16.2938667"><ele>581.6666666666666</ele><time>2026-04-12T07:35:09.634Z</time></trkpt><trkpt lat="40.96918" lon="16.2936417"><ele>581.0</ele><time>2026-04-12T07:35:10.634Z</time></trkpt><trkpt lat="40.9690733" lon="16.2934283"><ele>580.0</ele><time>2026-04-12T07:35:11.636Z</time></trkpt><trkpt lat="40.96895" lon="16.2932233"><ele>579.0</ele><time>2026-04-12T07:35:12.634Z</time></trkpt><trkpt lat="40.9688167" lon="16.2930183"><ele>578.0</ele><time>2026-04-12T07:35:13.634Z</time></trkpt><trkpt lat="40.9686783" lon="16.2928133"><ele>578.0</ele><time>2026-04-12T07:35:14.637Z</time></trkpt><trkpt lat="40.968535" lon="16.2926083"><ele>578.0</ele><time>2026-04-12T07:35:15.634Z</time></trkpt><trkpt lat="40.96839" lon="16.2923967"><ele>578.0</ele><time>2026-04-12T07:35:16.633Z</time></trkpt><trkpt lat="40.968245" lon="16.2921767"><ele>575.6666666666666</ele><time>2026-04-12T07:35:17.637Z</time></trkpt><trkpt lat="40.968095" lon="16.2919617"><ele>573.3333333333334</ele><time>2026-04-12T07:35:18.634Z</time></trkpt><trkpt lat="40.9679483" lon="16.2917483"><ele>571.0</ele><time>2026-04-12T07:35:19.635Z</time></trkpt><trkpt lat="40.967805" lon="16.2915483"><ele>572.0</ele><time>2026-04-12T07:35:20.637Z</time></trkpt><trkpt lat="40.9676667" lon="16.291355"><ele>573.0</ele><time>2026-04-12T07:35:21.641Z</time></trkpt><trkpt lat="40.9675333" lon="16.29116"><ele>574.0</ele><time>2026-04-12T07:35:22.638Z</time></trkpt><trkpt lat="40.9674" lon="16.29097"><ele>571.0</ele><time>2026-04-12T07:35:23.636Z</time></trkpt><trkpt lat="40.9672767" lon="16.2907817"><ele>568.0</ele><time>2026-04-12T07:35:24.634Z</time></trkpt><trkpt lat="40.9671633" lon="16.290615"><ele>565.0</ele><time>2026-04-12T07:35:25.634Z</time></trkpt><trkpt lat="40.9670583" lon="16.290465"><ele>565.0</ele><time>2026-04-12T07:35:26.636Z</time></trkpt><trkpt lat="40.9669533" lon="16.2903333"><ele>565.0</ele><time>2026-04-12T07:35:27.635Z</time></trkpt><trkpt lat="40.96683" lon="16.2902167"><ele>565.0</ele><time>2026-04-12T07:35:28.635Z</time></trkpt><trkpt lat="40.9666917" lon="16.2901083"><ele>565.0</ele><time>2026-04-12T07:35:29.634Z</time></trkpt><trkpt lat="40.9665367" lon="16.2900033"><ele>565.0</ele><time>2026-04-12T07:35:30.634Z</time></trkpt><trkpt lat="40.966375" lon="16.2898933"><ele>565.0</ele><time>2026-04-12T07:35:31.634Z</time></trkpt><trkpt lat="40.9662167" lon="16.2897717"><ele>564.0</ele><time>2026-04-12T07:35:32.635Z</time></trkpt><trkpt lat="40.966065" lon="16.28963"><ele>563.0</ele><time>2026-04-12T07:35:33.634Z</time></trkpt><trkpt lat="40.9659183" lon="16.2894633"><ele>562.0</ele><time>2026-04-12T07:35:34.634Z</time></trkpt><trkpt lat="40.9657767" lon="16.2892817"><ele>562.0</ele><time>2026-04-12T07:35:35.634Z</time></trkpt><trkpt lat="40.965635" lon="16.2890917"><ele>562.0</ele><time>2026-04-12T07:35:36.634Z</time></trkpt><trkpt lat="40.96549" lon="16.2889033"><ele>562.0</ele><time>2026-04-12T07:35:37.633Z</time></trkpt><trkpt lat="40.9653533" lon="16.28873"><ele>561.6666666666667</ele><time>2026-04-12T07:35:38.634Z</time></trkpt><trkpt lat="40.965225" lon="16.2885817"><ele>561.3333333333334</ele><time>2026-04-12T07:35:39.634Z</time></trkpt><trkpt lat="40.9650967" lon="16.2884583"><ele>561.0</ele><time>2026-04-12T07:35:40.637Z</time></trkpt><trkpt lat="40.9649667" lon="16.2883517"><ele>559.6666666666666</ele><time>2026-04-12T07:35:41.635Z</time></trkpt><trkpt lat="40.96483" lon="16.2882567"><ele>558.3333333333333</ele><time>2026-04-12T07:35:42.636Z</time></trkpt><trkpt lat="40.9646783" lon="16.28817"><ele>557.0</ele><time>2026-04-12T07:35:43.634Z</time></trkpt><trkpt lat="40.964515" lon="16.2880933"><ele>557.3333333333333</ele><time>2026-04-12T07:35:44.634Z</time></trkpt><trkpt lat="40.9643367" lon="16.28802"><ele>557.6666666666666</ele><time>2026-04-12T07:35:45.636Z</time></trkpt><trkpt lat="40.964145" lon="16.287945"><ele>558.0</ele><time>2026-04-12T07:35:46.634Z</time></trkpt><trkpt lat="40.96395" lon="16.28786"><ele>558.0</ele><time>2026-04-12T07:35:47.635Z</time></trkpt><trkpt lat="40.9637517" lon="16.28777"><ele>558.0</ele><time>2026-04-12T07:35:48.634Z</time></trkpt><trkpt lat="40.96355" lon="16.287685"><ele>558.0</ele><time>2026-04-12T07:35:49.635Z</time></trkpt><trkpt lat="40.963345" lon="16.2876"><ele>556.6666666666666</ele><time>2026-04-12T07:35:50.636Z</time></trkpt><trkpt lat="40.9631383" lon="16.2875133"><ele>555.3333333333333</ele><time>2026-04-12T07:35:51.634Z</time></trkpt><trkpt lat="40.96293" lon="16.287425"><ele>554.0</ele><time>2026-04-12T07:35:52.635Z</time></trkpt><trkpt lat="40.9627233" lon="16.2873367"><ele>553.3333333333333</ele><time>2026-04-12T07:35:53.634Z</time></trkpt><trkpt lat="40.9625233" lon="16.2872483"><ele>552.6666666666666</ele><time>2026-04-12T07:35:54.638Z</time></trkpt><trkpt lat="40.9623383" lon="16.28717"><ele>552.0</ele><time>2026-04-12T07:35:55.634Z</time></trkpt><trkpt lat="40.96216" lon="16.2871017"><ele>552.0</ele><time>2026-04-12T07:35:56.636Z</time></trkpt><trkpt lat="40.9619833" lon="16.2870433"><ele>552.0</ele><time>2026-04-12T07:35:57.634Z</time></trkpt><trkpt lat="40.9618" lon="16.2869983"><ele>552.0</ele><time>2026-04-12T07:35:58.634Z</time></trkpt><trkpt lat="40.9616133" lon="16.2869667"><ele>550.6666666666666</ele><time>2026-04-12T07:35:59.634Z</time></trkpt><trkpt lat="40.96142" lon="16.2869383"><ele>549.3333333333333</ele><time>2026-04-12T07:36:00.633Z</time></trkpt><trkpt lat="40.961225" lon="16.2869133"><ele>548.0</ele><time>2026-04-12T07:36:01.636Z</time></trkpt><trkpt lat="40.96103" lon="16.2868883"><ele>548.0</ele><time>2026-04-12T07:36:02.635Z</time></trkpt><trkpt lat="40.960845" lon="16.28686"><ele>548.0</ele><time>2026-04-12T07:36:03.634Z</time></trkpt><trkpt lat="40.9606717" lon="16.2868267"><ele>548.0</ele><time>2026-04-12T07:36:04.633Z</time></trkpt><trkpt lat="40.960505" lon="16.2867833"><ele>548.0</ele><time>2026-04-12T07:36:05.636Z</time></trkpt><trkpt lat="40.9603433" lon="16.2867117"><ele>548.0</ele><time>2026-04-12T07:36:06.634Z</time></trkpt><trkpt lat="40.9601783" lon="16.2866033"><ele>548.0</ele><time>2026-04-12T07:36:07.635Z</time></trkpt><trkpt lat="40.960015" lon="16.2864683"><ele>548.3333333333333</ele><time>2026-04-12T07:36:08.634Z</time></trkpt><trkpt lat="40.9598367" lon="16.2863217"><ele>548.6666666666666</ele><time>2026-04-12T07:36:09.634Z</time></trkpt><trkpt lat="40.95965" lon="16.2861667"><ele>549.0</ele><time>2026-04-12T07:36:10.635Z</time></trkpt><trkpt lat="40.95945" lon="16.2860083"><ele>549.0</ele><time>2026-04-12T07:36:11.634Z</time></trkpt><trkpt lat="40.9592433" lon="16.2858467"><ele>549.0</ele><time>2026-04-12T07:36:12.634Z</time></trkpt><trkpt lat="40.9590467" lon="16.2856867"><ele>550.6666666666666</ele><time>2026-04-12T07:36:13.634Z</time></trkpt><trkpt lat="40.9588617" lon="16.2855367"><ele>552.3333333333333</ele><time>2026-04-12T07:36:14.635Z</time></trkpt><trkpt lat="40.9586883" lon="16.285395"><ele>554.0</ele><time>2026-04-12T07:36:15.633Z</time></trkpt><trkpt lat="40.9585267" lon="16.2852633"><ele>554.0</ele><time>2026-04-12T07:36:16.636Z</time></trkpt><trkpt lat="40.9583783" lon="16.285135"><ele>554.0</ele><time>2026-04-12T07:36:17.634Z</time></trkpt><trkpt lat="40.9582417" lon="16.2850017"><ele>554.0</ele><time>2026-04-12T07:36:18.633Z</time></trkpt><trkpt lat="40.9581217" lon="16.2848633"><ele>552.0</ele><time>2026-04-12T07:36:19.64Z</time></trkpt><trkpt lat="40.9580183" lon="16.2847033"><ele>550.0</ele><time>2026-04-12T07:36:20.636Z</time></trkpt><trkpt lat="40.95792" lon="16.28451"><ele>548.0</ele><time>2026-04-12T07:36:21.633Z</time></trkpt><trkpt lat="40.957825" lon="16.28429"><ele>548.0</ele><time>2026-04-12T07:36:22.634Z</time></trkpt><trkpt lat="40.9577317" lon="16.2840483"><ele>548.0</ele><time>2026-04-12T07:36:23.635Z</time></trkpt><trkpt lat="40.9576367" lon="16.2837917"><ele>548.0</ele><time>2026-04-12T07:36:24.639Z</time></trkpt><trkpt lat="40.957545" lon="16.283555"><ele>547.5</ele><time>2026-04-12T07:36:25.636Z</time></trkpt><trkpt lat="40.9574617" lon="16.2833667"><ele>547.0</ele><time>2026-04-12T07:36:26.636Z</time></trkpt><trkpt lat="40.957385" lon="16.2832167"><ele>546.5</ele><time>2026-04-12T07:36:27.635Z</time></trkpt><trkpt lat="40.9573" lon="16.2830933"><ele>546.0</ele><time>2026-04-12T07:36:28.634Z</time></trkpt><trkpt lat="40.957205" lon="16.28299"><ele>546.0</ele><time>2026-04-12T07:36:29.633Z</time></trkpt><trkpt lat="40.9570933" lon="16.2829017"><ele>546.0</ele><time>2026-04-12T07:36:30.634Z</time></trkpt><trkpt lat="40.9569617" lon="16.28283"><ele>546.0</ele><time>2026-04-12T07:36:31.634Z</time></trkpt><trkpt lat="40.95681" lon="16.2827683"><ele>546.0</ele><time>2026-04-12T07:36:32.634Z</time></trkpt><trkpt lat="40.9566483" lon="16.2827017"><ele>543.6666666666666</ele><time>2026-04-12T07:36:33.637Z</time></trkpt><trkpt lat="40.9564867" lon="16.2826283"><ele>541.3333333333333</ele><time>2026-04-12T07:36:34.635Z</time></trkpt><trkpt lat="40.956315" lon="16.2825533"><ele>539.0</ele><time>2026-04-12T07:36:35.637Z</time></trkpt><trkpt lat="40.9561383" lon="16.2824767"><ele>539.0</ele><time>2026-04-12T07:36:36.638Z</time></trkpt><trkpt lat="40.9559583" lon="16.2824"><ele>539.0</ele><time>2026-04-12T07:36:37.635Z</time></trkpt><trkpt lat="40.955785" lon="16.2823183"><ele>539.0</ele><time>2026-04-12T07:36:38.639Z</time></trkpt><trkpt lat="40.9556233" lon="16.2822283"><ele>536.3333333333333</ele><time>2026-04-12T07:36:39.633Z</time></trkpt><trkpt lat="40.95547" lon="16.282115"><ele>533.6666666666666</ele><time>2026-04-12T07:36:40.636Z</time></trkpt><trkpt lat="40.9553233" lon="16.2819767"><ele>531.0</ele><time>2026-04-12T07:36:41.636Z</time></trkpt><trkpt lat="40.9551833" lon="16.2818133"><ele>531.0</ele><time>2026-04-12T07:36:42.633Z</time></trkpt><trkpt lat="40.95505" lon="16.281635"><ele>531.0</ele><time>2026-04-12T07:36:43.635Z</time></trkpt><trkpt lat="40.954915" lon="16.2814483"><ele>531.0</ele><time>2026-04-12T07:36:44.636Z</time></trkpt><trkpt lat="40.9547817" lon="16.2812617"><ele>530.0</ele><time>2026-04-12T07:36:45.634Z</time></trkpt><trkpt lat="40.9546467" lon="16.2810867"><ele>529.0</ele><time>2026-04-12T07:36:46.634Z</time></trkpt><trkpt lat="40.9545267" lon="16.28092"><ele>528.0</ele><time>2026-04-12T07:36:47.634Z</time></trkpt><trkpt lat="40.95442" lon="16.280745"><ele>527.0</ele><time>2026-04-12T07:36:48.635Z</time></trkpt><trkpt lat="40.9543333" lon="16.280555"><ele>526.0</ele><time>2026-04-12T07:36:49.636Z</time></trkpt><trkpt lat="40.9542467" lon="16.280355"><ele>525.0</ele><time>2026-04-12T07:36:50.636Z</time></trkpt><trkpt lat="40.9541617" lon="16.280145"><ele>525.0</ele><time>2026-04-12T07:36:51.634Z</time></trkpt><trkpt lat="40.9540717" lon="16.2799283"><ele>525.0</ele><time>2026-04-12T07:36:52.635Z</time></trkpt><trkpt lat="40.9539817" lon="16.2797067"><ele>525.0</ele><time>2026-04-12T07:36:53.634Z</time></trkpt><trkpt lat="40.9538833" lon="16.2794767"><ele>525.0</ele><time>2026-04-12T07:36:54.634Z</time></trkpt><trkpt lat="40.9537883" lon="16.2792517"><ele>525.0</ele><time>2026-04-12T07:36:55.649Z</time></trkpt><trkpt lat="40.953695" lon="16.27903"><ele>525.0</ele><time>2026-04-12T07:36:56.635Z</time></trkpt><trkpt lat="40.9535983" lon="16.27881"><ele>526.3333333333334</ele><time>2026-04-12T07:36:57.638Z</time></trkpt><trkpt lat="40.9535017" lon="16.27858"><ele>527.6666666666667</ele><time>2026-04-12T07:36:58.639Z</time></trkpt><trkpt lat="40.9534" lon="16.2783383"><ele>529.0</ele><time>2026-04-12T07:36:59.636Z</time></trkpt><trkpt lat="40.9532967" lon="16.2780917"><ele>526.0</ele><time>2026-04-12T07:37:00.634Z</time></trkpt><trkpt lat="40.9531967" lon="16.2778533"><ele>523.0</ele><time>2026-04-12T07:37:01.635Z</time></trkpt><trkpt lat="40.9531" lon="16.2776233"><ele>520.0</ele><time>2026-04-12T07:37:02.635Z</time></trkpt><trkpt lat="40.9530067" lon="16.277395"><ele>520.6666666666667</ele><time>2026-04-12T07:37:03.635Z</time></trkpt><trkpt lat="40.95291" lon="16.2771683"><ele>521.3333333333334</ele><time>2026-04-12T07:37:04.636Z</time></trkpt><trkpt lat="40.9528183" lon="16.27695"><ele>522.0</ele><time>2026-04-12T07:37:05.634Z</time></trkpt><trkpt lat="40.9527317" lon="16.276745"><ele>522.0</ele><time>2026-04-12T07:37:06.634Z</time></trkpt><trkpt lat="40.9526517" lon="16.2765517"><ele>522.0</ele><time>2026-04-12T07:37:07.635Z</time></trkpt><trkpt lat="40.952575" lon="16.2763667"><ele>522.0</ele><time>2026-04-12T07:37:08.635Z</time></trkpt><trkpt lat="40.9524917" lon="16.276185"><ele>520.0</ele><time>2026-04-12T07:37:09.633Z</time></trkpt><trkpt lat="40.9524017" lon="16.2760117"><ele>518.0</ele><time>2026-04-12T07:37:10.633Z</time></trkpt><trkpt lat="40.9523017" lon="16.2758517"><ele>516.0</ele><time>2026-04-12T07:37:11.634Z</time></trkpt><trkpt lat="40.9521867" lon="16.2756983"><ele>518.3333333333334</ele><time>2026-04-12T07:37:12.636Z</time></trkpt><trkpt lat="40.9520567" lon="16.2755533"><ele>520.6666666666667</ele><time>2026-04-12T07:37:13.634Z</time></trkpt><trkpt lat="40.9519217" lon="16.2754217"><ele>523.0</ele><time>2026-04-12T07:37:14.634Z</time></trkpt><trkpt lat="40.95177" lon="16.2753183"><ele>520.3333333333334</ele><time>2026-04-12T07:37:15.633Z</time></trkpt><trkpt lat="40.9516033" lon="16.2752233"><ele>517.6666666666666</ele><time>2026-04-12T07:37:16.634Z</time></trkpt><trkpt lat="40.9514183" lon="16.2751683"><ele>515.0</ele><time>2026-04-12T07:37:17.635Z</time></trkpt><trkpt lat="40.9512167" lon="16.2751433"><ele>515.0</ele><time>2026-04-12T07:37:18.634Z</time></trkpt><trkpt lat="40.9510033" lon="16.27513"><ele>515.0</ele><time>2026-04-12T07:37:19.634Z</time></trkpt><trkpt lat="40.9507817" lon="16.2751317"><ele>515.0</ele><time>2026-04-12T07:37:20.635Z</time></trkpt><trkpt lat="40.9505567" lon="16.2751317"><ele>513.5</ele><time>2026-04-12T07:37:21.635Z</time></trkpt><trkpt lat="40.9503333" lon="16.2751267"><ele>512.0</ele><time>2026-04-12T07:37:22.635Z</time></trkpt><trkpt lat="40.9501067" lon="16.2751283"><ele>511.0</ele><time>2026-04-12T07:37:23.635Z</time></trkpt><trkpt lat="40.949895" lon="16.275125"><ele>510.0</ele><time>2026-04-12T07:37:24.634Z</time></trkpt><trkpt lat="40.9496967" lon="16.2751233"><ele>509.0</ele><time>2026-04-12T07:37:25.633Z</time></trkpt><trkpt lat="40.9495083" lon="16.27511"><ele>509.0</ele><time>2026-04-12T07:37:26.635Z</time></trkpt><trkpt lat="40.9493267" lon="16.27507"><ele>509.0</ele><time>2026-04-12T07:37:27.635Z</time></trkpt><trkpt lat="40.94914" lon="16.2750083"><ele>509.0</ele><time>2026-04-12T07:37:28.633Z</time></trkpt><trkpt lat="40.9489533" lon="16.2749217"><ele>508.66666666666663</ele><time>2026-04-12T07:37:29.634Z</time></trkpt><trkpt lat="40.9487667" lon="16.274815"><ele>508.33333333333337</ele><time>2026-04-12T07:37:30.634Z</time></trkpt><trkpt lat="40.9485767" lon="16.2747033"><ele>508.0</ele><time>2026-04-12T07:37:31.634Z</time></trkpt><trkpt lat="40.9483817" lon="16.2745917"><ele>506.33333333333337</ele><time>2026-04-12T07:37:32.633Z</time></trkpt><trkpt lat="40.9481867" lon="16.2744783"><ele>504.66666666666663</ele><time>2026-04-12T07:37:33.634Z</time></trkpt><trkpt lat="40.947995" lon="16.2743633"><ele>503.0</ele><time>2026-04-12T07:37:34.633Z</time></trkpt><trkpt lat="40.9477967" lon="16.2742467"><ele>503.0</ele><time>2026-04-12T07:37:35.635Z</time></trkpt><trkpt lat="40.947595" lon="16.27413"><ele>503.0</ele><time>2026-04-12T07:37:36.633Z</time></trkpt><trkpt lat="40.9473917" lon="16.2740083"><ele>503.0</ele><time>2026-04-12T07:37:37.634Z</time></trkpt><trkpt lat="40.9471883" lon="16.2738833"><ele>502.5</ele><time>2026-04-12T07:37:38.636Z</time></trkpt><trkpt lat="40.9469817" lon="16.27376"><ele>502.0</ele><time>2026-04-12T07:37:39.635Z</time></trkpt><trkpt lat="40.9467717" lon="16.2736383"><ele>499.0</ele><time>2026-04-12T07:37:40.634Z</time></trkpt><trkpt lat="40.94656" lon="16.273515"><ele>496.0</ele><time>2026-04-12T07:37:41.636Z</time></trkpt><trkpt lat="40.9463467" lon="16.27339"><ele>496.0</ele><time>2026-04-12T07:37:42.633Z</time></trkpt><trkpt lat="40.9461317" lon="16.2732667"><ele>496.0</ele><time>2026-04-12T07:37:43.635Z</time></trkpt><trkpt lat="40.9459167" lon="16.2731417"><ele>493.5</ele><time>2026-04-12T07:37:44.635Z</time></trkpt><trkpt lat="40.9457017" lon="16.2730217"><ele>491.0</ele><time>2026-04-12T07:37:45.634Z</time></trkpt><trkpt lat="40.9454867" lon="16.272915"><ele>491.0</ele><time>2026-04-12T07:37:46.633Z</time></trkpt><trkpt lat="40.9452683" lon="16.2728217"><ele>491.0</ele><time>2026-04-12T07:37:47.633Z</time></trkpt><trkpt lat="40.9450483" lon="16.2727267"><ele>491.5</ele><time>2026-04-12T07:37:48.633Z</time></trkpt><trkpt lat="40.9448283" lon="16.27264"><ele>492.0</ele><time>2026-04-12T07:37:49.634Z</time></trkpt><trkpt lat="40.94461" lon="16.272555"><ele>492.0</ele><time>2026-04-12T07:37:50.634Z</time></trkpt><trkpt lat="40.9444017" lon="16.2724683"><ele>492.0</ele><time>2026-04-12T07:37:51.634Z</time></trkpt><trkpt lat="40.944205" lon="16.2723883"><ele>492.0</ele><time>2026-04-12T07:37:52.635Z</time></trkpt><trkpt lat="40.9440133" lon="16.2723083"><ele>490.0</ele><time>2026-04-12T07:37:53.634Z</time></trkpt><trkpt lat="40.9438283" lon="16.27223"><ele>488.0</ele><time>2026-04-12T07:37:54.633Z</time></trkpt><trkpt lat="40.943645" lon="16.2721533"><ele>486.0</ele><time>2026-04-12T07:37:55.633Z</time></trkpt><trkpt lat="40.9434583" lon="16.272075"><ele>485.33333333333337</ele><time>2026-04-12T07:37:56.636Z</time></trkpt><trkpt lat="40.9432667" lon="16.2719933"><ele>484.6666666666667</ele><time>2026-04-12T07:37:57.635Z</time></trkpt><trkpt lat="40.94307" lon="16.271915"><ele>484.0</ele><time>2026-04-12T07:37:58.633Z</time></trkpt><trkpt lat="40.9428683" lon="16.2718317"><ele>484.0</ele><time>2026-04-12T07:37:59.634Z</time></trkpt><trkpt lat="40.9426633" lon="16.271745"><ele>484.0</ele><time>2026-04-12T07:38:00.634Z</time></trkpt><trkpt lat="40.9424583" lon="16.2716583"><ele>484.0</ele><time>2026-04-12T07:38:01.634Z</time></trkpt><trkpt lat="40.9422533" lon="16.27157"><ele>483.0</ele><time>2026-04-12T07:38:02.635Z</time></trkpt><trkpt lat="40.942045" lon="16.2714833"><ele>482.0</ele><time>2026-04-12T07:38:03.634Z</time></trkpt><trkpt lat="40.9418333" lon="16.2713967"><ele>481.0</ele><time>2026-04-12T07:38:04.633Z</time></trkpt><trkpt lat="40.9416183" lon="16.2713067"><ele>480.0</ele><time>2026-04-12T07:38:05.633Z</time></trkpt><trkpt lat="40.941405" lon="16.2712183"><ele>479.0</ele><time>2026-04-12T07:38:06.634Z</time></trkpt><trkpt lat="40.9411917" lon="16.2711283"><ele>478.0</ele><time>2026-04-12T07:38:07.633Z</time></trkpt><trkpt lat="40.9409783" lon="16.2710383"><ele>477.0</ele><time>2026-04-12T07:38:08.634Z</time></trkpt><trkpt lat="40.9407633" lon="16.2709467"><ele>476.0</ele><time>2026-04-12T07:38:09.634Z</time></trkpt><trkpt lat="40.9405467" lon="16.2708533"><ele>476.0</ele><time>2026-04-12T07:38:10.634Z</time></trkpt><trkpt lat="40.9403317" lon="16.2707633"><ele>476.0</ele><time>2026-04-12T07:38:11.633Z</time></trkpt><trkpt lat="40.9401133" lon="16.270675"><ele>474.0</ele><time>2026-04-12T07:38:12.638Z</time></trkpt><trkpt lat="40.9398967" lon="16.2705833"><ele>472.0</ele><time>2026-04-12T07:38:13.633Z</time></trkpt><trkpt lat="40.9396783" lon="16.2704917"><ele>472.0</ele><time>2026-04-12T07:38:14.637Z</time></trkpt><trkpt lat="40.9394583" lon="16.2704"><ele>472.0</ele><time>2026-04-12T07:38:15.634Z</time></trkpt><trkpt lat="40.939235" lon="16.2703067"><ele>470.0</ele><time>2026-04-12T07:38:16.634Z</time></trkpt><trkpt lat="40.9390067" lon="16.2702117"><ele>468.0</ele><time>2026-04-12T07:38:17.634Z</time></trkpt><trkpt lat="40.9387767" lon="16.270115"><ele>468.0</ele><time>2026-04-12T07:38:18.635Z</time></trkpt><trkpt lat="40.9385517" lon="16.27002"><ele>468.0</ele><time>2026-04-12T07:38:19.635Z</time></trkpt><trkpt lat="40.9383283" lon="16.269925"><ele>467.5</ele><time>2026-04-12T07:38:20.635Z</time></trkpt><trkpt lat="40.9381067" lon="16.269835"><ele>467.0</ele><time>2026-04-12T07:38:21.636Z</time></trkpt><trkpt lat="40.937895" lon="16.2697483"><ele>466.66666666666663</ele><time>2026-04-12T07:38:22.634Z</time></trkpt><trkpt lat="40.9376983" lon="16.2696667"><ele>466.33333333333337</ele><time>2026-04-12T07:38:23.635Z</time></trkpt><trkpt lat="40.937505" lon="16.2695867"><ele>466.0</ele><time>2026-04-12T07:38:24.634Z</time></trkpt><trkpt lat="40.9373217" lon="16.2695067"><ele>465.33333333333337</ele><time>2026-04-12T07:38:25.637Z</time></trkpt><trkpt lat="40.9371333" lon="16.26943"><ele>464.66666666666663</ele><time>2026-04-12T07:38:26.637Z</time></trkpt><trkpt lat="40.93694" lon="16.269355"><ele>464.0</ele><time>2026-04-12T07:38:27.635Z</time></trkpt><trkpt lat="40.93675" lon="16.2692783"><ele>463.3333333333333</ele><time>2026-04-12T07:38:28.634Z</time></trkpt><trkpt lat="40.936565" lon="16.2692017"><ele>462.66666666666663</ele><time>2026-04-12T07:38:29.635Z</time></trkpt><trkpt lat="40.9363867" lon="16.269125"><ele>462.0</ele><time>2026-04-12T07:38:30.635Z</time></trkpt><trkpt lat="40.9362183" lon="16.2690517"><ele>462.0</ele><time>2026-04-12T07:38:31.634Z</time></trkpt><trkpt lat="40.9360567" lon="16.268985"><ele>462.0</ele><time>2026-04-12T07:38:32.635Z</time></trkpt><trkpt lat="40.9359017" lon="16.26893"><ele>462.0</ele><time>2026-04-12T07:38:33.634Z</time></trkpt><trkpt lat="40.9357533" lon="16.268885"><ele>460.75</ele><time>2026-04-12T07:38:34.634Z</time></trkpt><trkpt lat="40.9356083" lon="16.2688567"><ele>459.5</ele><time>2026-04-12T07:38:35.639Z</time></trkpt><trkpt lat="40.9354583" lon="16.2688467"><ele>458.25</ele><time>2026-04-12T07:38:36.635Z</time></trkpt><trkpt lat="40.9353067" lon="16.2688417"><ele>457.0</ele><time>2026-04-12T07:38:37.635Z</time></trkpt><trkpt lat="40.9351633" lon="16.2688333"><ele>456.6</ele><time>2026-04-12T07:38:38.637Z</time></trkpt><trkpt lat="40.9350333" lon="16.2688133"><ele>456.20000000000005</ele><time>2026-04-12T07:38:39.635Z</time></trkpt><trkpt lat="40.93492" lon="16.2687767"><ele>455.8</ele><time>2026-04-12T07:38:40.646Z</time></trkpt><trkpt lat="40.9348183" lon="16.2687267"><ele>455.4</ele><time>2026-04-12T07:38:41.634Z</time></trkpt><trkpt lat="40.9347417" lon="16.2686733"><ele>455.0</ele><time>2026-04-12T07:38:42.635Z</time></trkpt><trkpt lat="40.9346867" lon="16.2686133"><ele>455.0</ele><time>2026-04-12T07:38:44.635Z</time></trkpt><trkpt lat="40.93474" lon="16.2685183"><ele>455.0</ele><time>2026-04-12T07:38:57.634Z</time></trkpt><trkpt lat="40.93483" lon="16.2682983"><ele>455.0</ele><time>2026-04-12T07:39:00.635Z</time></trkpt><trkpt lat="40.9348633" lon="16.2682017"><ele>455.0</ele><time>2026-04-12T07:39:01.635Z</time></trkpt><trkpt lat="40.9348933" lon="16.2681067"><ele>455.0</ele><time>2026-04-12T07:39:02.635Z</time></trkpt><trkpt lat="40.9349233" lon="16.2680117"><ele>454.99999999999994</ele><time>2026-04-12T07:39:03.634Z</time></trkpt><trkpt lat="40.93496" lon="16.2679083"><ele>455.0</ele><time>2026-04-12T07:39:04.638Z</time></trkpt><trkpt lat="40.9349967" lon="16.2678083"><ele>455.0</ele><time>2026-04-12T07:39:05.636Z</time></trkpt><trkpt lat="40.93503" lon="16.2677183"><ele>455.0</ele><time>2026-04-12T07:39:06.638Z</time></trkpt><trkpt lat="40.9350667" lon="16.2676283"><ele>454.99999999999994</ele><time>2026-04-12T07:39:07.634Z</time></trkpt><trkpt lat="40.9351033" lon="16.2675317"><ele>455.0</ele><time>2026-04-12T07:39:08.635Z</time></trkpt><trkpt lat="40.9351417" lon="16.267425"><ele>455.4</ele><time>2026-04-12T07:39:09.635Z</time></trkpt><trkpt lat="40.9351833" lon="16.2673133"><ele>455.8</ele><time>2026-04-12T07:39:10.638Z</time></trkpt><trkpt lat="40.9352283" lon="16.2672"><ele>456.20000000000005</ele><time>2026-04-12T07:39:11.635Z</time></trkpt><trkpt lat="40.9352683" lon="16.2670917"><ele>456.6</ele><time>2026-04-12T07:39:12.636Z</time></trkpt><trkpt lat="40.93531" lon="16.2669817"><ele>457.0</ele><time>2026-04-12T07:39:13.637Z</time></trkpt><trkpt lat="40.9353583" lon="16.2668667"><ele>457.0</ele><time>2026-04-12T07:39:14.635Z</time></trkpt><trkpt lat="40.9354083" lon="16.2667417"><ele>457.0</ele><time>2026-04-12T07:39:15.636Z</time></trkpt><trkpt lat="40.93546" lon="16.2666033"><ele>457.0</ele><time>2026-04-12T07:39:16.634Z</time></trkpt><trkpt lat="40.935515" lon="16.26646"><ele>457.0</ele><time>2026-04-12T07:39:17.635Z</time></trkpt><trkpt lat="40.935565" lon="16.2663183"><ele>456.8</ele><time>2026-04-12T07:39:18.634Z</time></trkpt><trkpt lat="40.9356133" lon="16.2661817"><ele>456.6</ele><time>2026-04-12T07:39:19.637Z</time></trkpt><trkpt lat="40.9356617" lon="16.26605"><ele>456.40000000000003</ele><time>2026-04-12T07:39:20.637Z</time></trkpt><trkpt lat="40.9357033" lon="16.2659367"><ele>456.20000000000005</ele><time>2026-04-12T07:39:21.635Z</time></trkpt><trkpt lat="40.9357367" lon="16.2658467"><ele>456.0</ele><time>2026-04-12T07:39:22.635Z</time></trkpt><trkpt lat="40.9357683" lon="16.2657667"><ele>456.0</ele><time>2026-04-12T07:39:23.636Z</time></trkpt><trkpt lat="40.93583" lon="16.26563"><ele>456.0</ele><time>2026-04-12T07:39:25.635Z</time></trkpt><trkpt lat="40.9358867" lon="16.2655117"><ele>456.0</ele><time>2026-04-12T07:39:27.634Z</time></trkpt><trkpt lat="40.935925" lon="16.2654433"><ele>456.0</ele><time>2026-04-12T07:39:28.635Z</time></trkpt><trkpt lat="40.9359833" lon="16.265375"><ele>456.0</ele><time>2026-04-12T07:39:29.637Z</time></trkpt><trkpt lat="40.9360483" lon="16.26532"><ele>456.0</ele><time>2026-04-12T07:39:30.636Z</time></trkpt><trkpt lat="40.93612" lon="16.2652833"><ele>456.3333333333333</ele><time>2026-04-12T07:39:31.635Z</time></trkpt><trkpt lat="40.9361983" lon="16.265265"><ele>456.66666666666663</ele><time>2026-04-12T07:39:32.636Z</time></trkpt><trkpt lat="40.9362817" lon="16.2652567"><ele>457.0</ele><time>2026-04-12T07:39:33.635Z</time></trkpt><trkpt lat="40.9363683" lon="16.265255"><ele>457.3333333333333</ele><time>2026-04-12T07:39:34.638Z</time></trkpt><trkpt lat="40.936465" lon="16.26526"><ele>457.66666666666663</ele><time>2026-04-12T07:39:35.637Z</time></trkpt><trkpt lat="40.9365633" lon="16.265255"><ele>458.0</ele><time>2026-04-12T07:39:36.636Z</time></trkpt><trkpt lat="40.9366617" lon="16.2652483"><ele>458.59999999999997</ele><time>2026-04-12T07:39:37.637Z</time></trkpt><trkpt lat="40.93676" lon="16.2652367"><ele>459.19999999999993</ele><time>2026-04-12T07:39:38.636Z</time></trkpt><trkpt lat="40.936865" lon="16.265215"><ele>459.8</ele><time>2026-04-12T07:39:39.635Z</time></trkpt><trkpt lat="40.936965" lon="16.2651883"><ele>460.4</ele><time>2026-04-12T07:39:40.635Z</time></trkpt><trkpt lat="40.937065" lon="16.26516"><ele>461.0</ele><time>2026-04-12T07:39:41.634Z</time></trkpt><trkpt lat="40.9371683" lon="16.265135"><ele>461.0</ele><time>2026-04-12T07:39:42.636Z</time></trkpt><trkpt lat="40.9372733" lon="16.2651183"><ele>461.0</ele><time>2026-04-12T07:39:43.637Z</time></trkpt><trkpt lat="40.9373733" lon="16.26511"><ele>461.0</ele><time>2026-04-12T07:39:44.635Z</time></trkpt><trkpt lat="40.9374767" lon="16.2651017"><ele>461.0</ele><time>2026-04-12T07:39:45.634Z</time></trkpt><trkpt lat="40.9375817" lon="16.2650967"><ele>461.0</ele><time>2026-04-12T07:39:46.634Z</time></trkpt><trkpt lat="40.9376917" lon="16.2650917"><ele>461.75</ele><time>2026-04-12T07:39:47.634Z</time></trkpt><trkpt lat="40.9378033" lon="16.2650833"><ele>462.5</ele><time>2026-04-12T07:39:48.637Z</time></trkpt><trkpt lat="40.937915" lon="16.2650683"><ele>463.25</ele><time>2026-04-12T07:39:49.636Z</time></trkpt><trkpt lat="40.9380283" lon="16.265045"><ele>464.0</ele><time>2026-04-12T07:39:50.636Z</time></trkpt><trkpt lat="40.9381383" lon="16.2650133"><ele>463.99999999999994</ele><time>2026-04-12T07:39:51.635Z</time></trkpt><trkpt lat="40.9382367" lon="16.26498"><ele>464.0</ele><time>2026-04-12T07:39:52.644Z</time></trkpt><trkpt lat="40.938325" lon="16.264945"><ele>464.0</ele><time>2026-04-12T07:39:53.639Z</time></trkpt><trkpt lat="40.9384033" lon="16.2649083"><ele>464.0</ele><time>2026-04-12T07:39:54.636Z</time></trkpt><trkpt lat="40.938475" lon="16.2648733"><ele>463.99999999999994</ele><time>2026-04-12T07:39:55.639Z</time></trkpt><trkpt lat="40.9385417" lon="16.2648467"><ele>464.0</ele><time>2026-04-12T07:39:56.636Z</time></trkpt><trkpt lat="40.9386067" lon="16.26482"><ele>464.16666666666663</ele><time>2026-04-12T07:39:57.635Z</time></trkpt><trkpt lat="40.9386717" lon="16.264795"><ele>464.3333333333333</ele><time>2026-04-12T07:39:58.637Z</time></trkpt><trkpt lat="40.9387367" lon="16.2647683"><ele>464.5</ele><time>2026-04-12T07:39:59.634Z</time></trkpt><trkpt lat="40.9388167" lon="16.26473"><ele>464.66666666666663</ele><time>2026-04-12T07:40:00.634Z</time></trkpt><trkpt lat="40.9389067" lon="16.2646917"><ele>464.8333333333333</ele><time>2026-04-12T07:40:01.635Z</time></trkpt><trkpt lat="40.939" lon="16.2646517"><ele>465.0</ele><time>2026-04-12T07:40:02.637Z</time></trkpt><trkpt lat="40.9390867" lon="16.2646183"><ele>464.8333333333333</ele><time>2026-04-12T07:40:03.635Z</time></trkpt><trkpt lat="40.939165" lon="16.264585"><ele>464.66666666666663</ele><time>2026-04-12T07:40:04.635Z</time></trkpt><trkpt lat="40.939235" lon="16.2645517"><ele>464.5</ele><time>2026-04-12T07:40:05.637Z</time></trkpt><trkpt lat="40.9392983" lon="16.26452"><ele>464.3333333333333</ele><time>2026-04-12T07:40:06.634Z</time></trkpt><trkpt lat="40.9393617" lon="16.264495"><ele>464.16666666666663</ele><time>2026-04-12T07:40:07.638Z</time></trkpt><trkpt lat="40.9394833" lon="16.264445"><ele>464.0</ele><time>2026-04-12T07:40:09.634Z</time></trkpt><trkpt lat="40.93955" lon="16.2644067"><ele>463.99999999999994</ele><time>2026-04-12T07:40:10.634Z</time></trkpt><trkpt lat="40.9396217" lon="16.26437"><ele>464.0</ele><time>2026-04-12T07:40:11.635Z</time></trkpt><trkpt lat="40.9396983" lon="16.2643333"><ele>464.0</ele><time>2026-04-12T07:40:12.634Z</time></trkpt><trkpt lat="40.93978" lon="16.2642933"><ele>464.0</ele><time>2026-04-12T07:40:13.636Z</time></trkpt><trkpt lat="40.9398583" lon="16.264255"><ele>463.99999999999994</ele><time>2026-04-12T07:40:14.636Z</time></trkpt><trkpt lat="40.9399333" lon="16.2642183"><ele>464.0</ele><time>2026-04-12T07:40:15.634Z</time></trkpt><trkpt lat="40.9400067" lon="16.2641867"><ele>464.49999999999994</ele><time>2026-04-12T07:40:16.635Z</time></trkpt><trkpt lat="40.9400817" lon="16.26415"><ele>465.0</ele><time>2026-04-12T07:40:17.634Z</time></trkpt><trkpt lat="40.9401617" lon="16.2641067"><ele>465.5</ele><time>2026-04-12T07:40:18.634Z</time></trkpt><trkpt lat="40.94024" lon="16.26406"><ele>466.0</ele><time>2026-04-12T07:40:19.635Z</time></trkpt><trkpt lat="40.94032" lon="16.264015"><ele>466.49999999999994</ele><time>2026-04-12T07:40:20.635Z</time></trkpt><trkpt lat="40.940395" lon="16.263975"><ele>467.0</ele><time>2026-04-12T07:40:21.634Z</time></trkpt><trkpt lat="40.9404683" lon="16.2639383"><ele>466.99999999999994</ele><time>2026-04-12T07:40:22.635Z</time></trkpt><trkpt lat="40.94054" lon="16.2639"><ele>467.0</ele><time>2026-04-12T07:40:23.635Z</time></trkpt><trkpt lat="40.940615" lon="16.2638583"><ele>467.0</ele><time>2026-04-12T07:40:24.636Z</time></trkpt><trkpt lat="40.9406917" lon="16.263815"><ele>467.0</ele><time>2026-04-12T07:40:25.635Z</time></trkpt><trkpt lat="40.9407617" lon="16.26377"><ele>466.99999999999994</ele><time>2026-04-12T07:40:26.636Z</time></trkpt><trkpt lat="40.9408317" lon="16.2637233"><ele>467.0</ele><time>2026-04-12T07:40:27.635Z</time></trkpt><trkpt lat="40.9409033" lon="16.2636733"><ele>466.99999999999994</ele><time>2026-04-12T07:40:28.634Z</time></trkpt><trkpt lat="40.9409767" lon="16.2636267"><ele>467.0</ele><time>2026-04-12T07:40:29.635Z</time></trkpt><trkpt lat="40.9410433" lon="16.2635833"><ele>467.0</ele><time>2026-04-12T07:40:30.636Z</time></trkpt><trkpt lat="40.9411067" lon="16.26354"><ele>467.0</ele><time>2026-04-12T07:40:31.634Z</time></trkpt><trkpt lat="40.941175" lon="16.2634967"><ele>466.99999999999994</ele><time>2026-04-12T07:40:32.638Z</time></trkpt><trkpt lat="40.94125" lon="16.2634517"><ele>467.0</ele><time>2026-04-12T07:40:33.634Z</time></trkpt><trkpt lat="40.941325" lon="16.263405"><ele>466.99999999999994</ele><time>2026-04-12T07:40:34.634Z</time></trkpt><trkpt lat="40.9413983" lon="16.263365"><ele>467.0</ele><time>2026-04-12T07:40:35.635Z</time></trkpt><trkpt lat="40.9414633" lon="16.2633267"><ele>466.99999999999994</ele><time>2026-04-12T07:40:36.634Z</time></trkpt><trkpt lat="40.9415267" lon="16.2632817"><ele>466.99999999999994</ele><time>2026-04-12T07:40:37.635Z</time></trkpt><trkpt lat="40.941585" lon="16.263235"><ele>467.0</ele><time>2026-04-12T07:40:38.638Z</time></trkpt><trkpt lat="40.9416417" lon="16.2631867"><ele>466.99999999999994</ele><time>2026-04-12T07:40:39.636Z</time></trkpt><trkpt lat="40.941705" lon="16.2631367"><ele>466.99999999999994</ele><time>2026-04-12T07:40:40.638Z</time></trkpt><trkpt lat="40.9417683" lon="16.2630917"><ele>467.16666666666663</ele><time>2026-04-12T07:40:41.634Z</time></trkpt><trkpt lat="40.941835" lon="16.2630467"><ele>467.3333333333333</ele><time>2026-04-12T07:40:42.634Z</time></trkpt><trkpt lat="40.9419033" lon="16.263"><ele>467.5</ele><time>2026-04-12T07:40:43.634Z</time></trkpt><trkpt lat="40.9419767" lon="16.2629483"><ele>467.66666666666663</ele><time>2026-04-12T07:40:44.635Z</time></trkpt><trkpt lat="40.94205" lon="16.2628967"><ele>467.8333333333333</ele><time>2026-04-12T07:40:45.634Z</time></trkpt><trkpt lat="40.9421233" lon="16.2628467"><ele>468.0</ele><time>2026-04-12T07:40:46.636Z</time></trkpt><trkpt lat="40.9421983" lon="16.2628017"><ele>468.0</ele><time>2026-04-12T07:40:47.634Z</time></trkpt><trkpt lat="40.9422767" lon="16.2627583"><ele>468.0</ele><time>2026-04-12T07:40:48.635Z</time></trkpt><trkpt lat="40.94236" lon="16.2627217"><ele>468.0</ele><time>2026-04-12T07:40:49.634Z</time></trkpt><trkpt lat="40.9424417" lon="16.2626917"><ele>468.0</ele><time>2026-04-12T07:40:50.635Z</time></trkpt><trkpt lat="40.94252" lon="16.2626667"><ele>468.0</ele><time>2026-04-12T07:40:51.634Z</time></trkpt><trkpt lat="40.9425983" lon="16.262635"><ele>468.0</ele><time>2026-04-12T07:40:52.636Z</time></trkpt><trkpt lat="40.94268" lon="16.2625917"><ele>468.0</ele><time>2026-04-12T07:40:53.635Z</time></trkpt><trkpt lat="40.94276" lon="16.2625433"><ele>468.0</ele><time>2026-04-12T07:40:54.636Z</time></trkpt><trkpt lat="40.9428383" lon="16.262495"><ele>468.0</ele><time>2026-04-12T07:40:55.636Z</time></trkpt><trkpt lat="40.942915" lon="16.262445"><ele>468.0</ele><time>2026-04-12T07:40:56.636Z</time></trkpt><trkpt lat="40.942985" lon="16.2623933"><ele>468.0</ele><time>2026-04-12T07:40:57.637Z</time></trkpt><trkpt lat="40.94305" lon="16.2623433"><ele>468.0</ele><time>2026-04-12T07:40:58.637Z</time></trkpt><trkpt lat="40.9431083" lon="16.2622933"><ele>467.6666666666667</ele><time>2026-04-12T07:40:59.634Z</time></trkpt><trkpt lat="40.9431733" lon="16.262245"><ele>467.33333333333337</ele><time>2026-04-12T07:41:00.634Z</time></trkpt><trkpt lat="40.9432467" lon="16.2621983"><ele>467.0</ele><time>2026-04-12T07:41:01.637Z</time></trkpt><trkpt lat="40.9433283" lon="16.2621517"><ele>466.6666666666667</ele><time>2026-04-12T07:41:02.638Z</time></trkpt><trkpt lat="40.943415" lon="16.2621033"><ele>466.33333333333337</ele><time>2026-04-12T07:41:03.634Z</time></trkpt><trkpt lat="40.943505" lon="16.26206"><ele>466.0</ele><time>2026-04-12T07:41:04.635Z</time></trkpt><trkpt lat="40.943595" lon="16.2620217"><ele>466.8</ele><time>2026-04-12T07:41:05.64Z</time></trkpt><trkpt lat="40.94369" lon="16.2619883"><ele>467.6</ele><time>2026-04-12T07:41:06.635Z</time></trkpt><trkpt lat="40.94379" lon="16.2619633"><ele>468.4</ele><time>2026-04-12T07:41:07.635Z</time></trkpt><trkpt lat="40.9438883" lon="16.2619483"><ele>469.2</ele><time>2026-04-12T07:41:08.635Z</time></trkpt><trkpt lat="40.9439867" lon="16.2619367"><ele>470.0</ele><time>2026-04-12T07:41:09.634Z</time></trkpt><trkpt lat="40.9440883" lon="16.2619233"><ele>470.0</ele><time>2026-04-12T07:41:10.635Z</time></trkpt><trkpt lat="40.9441917" lon="16.2619067"><ele>470.0</ele><time>2026-04-12T07:41:11.634Z</time></trkpt><trkpt lat="40.94429" lon="16.261885"><ele>470.0</ele><time>2026-04-12T07:41:12.634Z</time></trkpt><trkpt lat="40.9443817" lon="16.2618583"><ele>470.0</ele><time>2026-04-12T07:41:13.635Z</time></trkpt><trkpt lat="40.9444767" lon="16.2618317"><ele>470.0</ele><time>2026-04-12T07:41:14.634Z</time></trkpt><trkpt lat="40.9445733" lon="16.2618033"><ele>470.2</ele><time>2026-04-12T07:41:15.637Z</time></trkpt><trkpt lat="40.944675" lon="16.2617717"><ele>470.4</ele><time>2026-04-12T07:41:16.634Z</time></trkpt><trkpt lat="40.9447717" lon="16.2617367"><ele>470.6</ele><time>2026-04-12T07:41:17.634Z</time></trkpt><trkpt lat="40.9448567" lon="16.261705"><ele>470.8</ele><time>2026-04-12T07:41:18.634Z</time></trkpt><trkpt lat="40.944935" lon="16.2616717"><ele>471.0</ele><time>2026-04-12T07:41:19.64Z</time></trkpt><trkpt lat="40.94502" lon="16.2616367"><ele>471.20000000000005</ele><time>2026-04-12T07:41:20.636Z</time></trkpt><trkpt lat="40.9451117" lon="16.2615967"><ele>471.40000000000003</ele><time>2026-04-12T07:41:21.634Z</time></trkpt><trkpt lat="40.9452117" lon="16.2615517"><ele>471.6</ele><time>2026-04-12T07:41:22.635Z</time></trkpt><trkpt lat="40.9453183" lon="16.2615067"><ele>471.8</ele><time>2026-04-12T07:41:23.637Z</time></trkpt><trkpt lat="40.9454283" lon="16.261465"><ele>472.0</ele><time>2026-04-12T07:41:24.634Z</time></trkpt><trkpt lat="40.9455333" lon="16.2614217"><ele>472.00000000000006</ele><time>2026-04-12T07:41:25.634Z</time></trkpt><trkpt lat="40.9456283" lon="16.2613833"><ele>472.0</ele><time>2026-04-12T07:41:26.635Z</time></trkpt><trkpt lat="40.9457167" lon="16.2613467"><ele>472.0</ele><time>2026-04-12T07:41:27.634Z</time></trkpt><trkpt lat="40.9458" lon="16.2613183"><ele>472.0</ele><time>2026-04-12T07:41:28.636Z</time></trkpt><trkpt lat="40.9458783" lon="16.2613017"><ele>472.00000000000006</ele><time>2026-04-12T07:41:29.635Z</time></trkpt><trkpt lat="40.9459567" lon="16.2612983"><ele>472.0</ele><time>2026-04-12T07:41:30.635Z</time></trkpt><trkpt lat="40.9460317" lon="16.2613017"><ele>472.00000000000006</ele><time>2026-04-12T07:41:31.634Z</time></trkpt><trkpt lat="40.9461067" lon="16.261305"><ele>472.0</ele><time>2026-04-12T07:41:32.635Z</time></trkpt><trkpt lat="40.9461833" lon="16.2613083"><ele>472.0</ele><time>2026-04-12T07:41:33.634Z</time></trkpt><trkpt lat="40.9462567" lon="16.261325"><ele>472.0</ele><time>2026-04-12T07:41:34.638Z</time></trkpt><trkpt lat="40.9463217" lon="16.2613517"><ele>472.00000000000006</ele><time>2026-04-12T07:41:35.638Z</time></trkpt><trkpt lat="40.94643" lon="16.2613783"><ele>472.0</ele><time>2026-04-12T07:41:37.634Z</time></trkpt><trkpt lat="40.9465367" lon="16.26136"><ele>472.00000000000006</ele><time>2026-04-12T07:41:39.635Z</time></trkpt><trkpt lat="40.946595" lon="16.2613217"><ele>472.0</ele><time>2026-04-12T07:41:40.634Z</time></trkpt><trkpt lat="40.9466583" lon="16.2612567"><ele>472.0</ele><time>2026-04-12T07:41:41.634Z</time></trkpt><trkpt lat="40.9467217" lon="16.2611733"><ele>472.0</ele><time>2026-04-12T07:41:42.635Z</time></trkpt><trkpt lat="40.9467933" lon="16.2610817"><ele>472.00000000000006</ele><time>2026-04-12T07:41:43.634Z</time></trkpt><trkpt lat="40.946865" lon="16.2609933"><ele>472.0</ele><time>2026-04-12T07:41:44.644Z</time></trkpt><trkpt lat="40.9469433" lon="16.26091"><ele>472.25</ele><time>2026-04-12T07:41:45.635Z</time></trkpt><trkpt lat="40.947035" lon="16.260825"><ele>472.5</ele><time>2026-04-12T07:41:46.635Z</time></trkpt><trkpt lat="40.9471333" lon="16.2607383"><ele>472.75</ele><time>2026-04-12T07:41:47.634Z</time></trkpt><trkpt lat="40.9472383" lon="16.2606517"><ele>473.0</ele><time>2026-04-12T07:41:48.634Z</time></trkpt><trkpt lat="40.9473417" lon="16.2605617"><ele>472.25</ele><time>2026-04-12T07:41:49.636Z</time></trkpt><trkpt lat="40.94745" lon="16.2604717"><ele>471.5</ele><time>2026-04-12T07:41:50.635Z</time></trkpt><trkpt lat="40.9475617" lon="16.2603767"><ele>470.75</ele><time>2026-04-12T07:41:51.634Z</time></trkpt><trkpt lat="40.947675" lon="16.2602783"><ele>470.0</ele><time>2026-04-12T07:41:52.635Z</time></trkpt><trkpt lat="40.9477883" lon="16.2601867"><ele>469.75</ele><time>2026-04-12T07:41:53.634Z</time></trkpt><trkpt lat="40.9478917" lon="16.2601"><ele>469.5</ele><time>2026-04-12T07:41:54.635Z</time></trkpt><trkpt lat="40.9479883" lon="16.260015"><ele>469.25</ele><time>2026-04-12T07:41:55.634Z</time></trkpt><trkpt lat="40.94808" lon="16.2599367"><ele>469.0</ele><time>2026-04-12T07:41:56.635Z</time></trkpt><trkpt lat="40.948175" lon="16.25986"><ele>469.0</ele><time>2026-04-12T07:41:57.634Z</time></trkpt><trkpt lat="40.9482733" lon="16.2597817"><ele>469.0</ele><time>2026-04-12T07:41:58.634Z</time></trkpt><trkpt lat="40.94837" lon="16.2597017"><ele>469.0</ele><time>2026-04-12T07:41:59.638Z</time></trkpt><trkpt lat="40.9484683" lon="16.2596267"><ele>469.0</ele><time>2026-04-12T07:42:00.636Z</time></trkpt><trkpt lat="40.94857" lon="16.25955"><ele>468.79999999999995</ele><time>2026-04-12T07:42:01.639Z</time></trkpt><trkpt lat="40.94867" lon="16.2594767"><ele>468.59999999999997</ele><time>2026-04-12T07:42:02.638Z</time></trkpt><trkpt lat="40.9487717" lon="16.2594067"><ele>468.4</ele><time>2026-04-12T07:42:03.635Z</time></trkpt><trkpt lat="40.94887" lon="16.2593333"><ele>468.2</ele><time>2026-04-12T07:42:04.634Z</time></trkpt><trkpt lat="40.948955" lon="16.2592567"><ele>468.0</ele><time>2026-04-12T07:42:05.637Z</time></trkpt><trkpt lat="40.9490283" lon="16.259185"><ele>468.0</ele><time>2026-04-12T07:42:06.635Z</time></trkpt><trkpt lat="40.9490917" lon="16.25913"><ele>467.99999999999994</ele><time>2026-04-12T07:42:07.635Z</time></trkpt><trkpt lat="40.9492017" lon="16.259075"><ele>467.99999999999994</ele><time>2026-04-12T07:42:09.634Z</time></trkpt><trkpt lat="40.9493117" lon="16.2590717"><ele>468.0</ele><time>2026-04-12T07:42:11.637Z</time></trkpt><trkpt lat="40.9493983" lon="16.2590367"><ele>468.0</ele><time>2026-04-12T07:42:13.638Z</time></trkpt><trkpt lat="40.9494833" lon="16.25895"><ele>467.7142857142857</ele><time>2026-04-12T07:42:15.635Z</time></trkpt><trkpt lat="40.9495417" lon="16.2589017"><ele>467.42857142857144</ele><time>2026-04-12T07:42:16.634Z</time></trkpt><trkpt lat="40.949595" lon="16.2588533"><ele>467.14285714285717</ele><time>2026-04-12T07:42:17.636Z</time></trkpt><trkpt lat="40.94965" lon="16.2588017"><ele>466.8571428571429</ele><time>2026-04-12T07:42:18.634Z</time></trkpt><trkpt lat="40.9497117" lon="16.2587433"><ele>466.57142857142856</ele><time>2026-04-12T07:42:19.634Z</time></trkpt><trkpt lat="40.94977" lon="16.2586917"><ele>466.28571428571433</ele><time>2026-04-12T07:42:20.635Z</time></trkpt><trkpt lat="40.9498233" lon="16.25864"><ele>466.0</ele><time>2026-04-12T07:42:21.634Z</time></trkpt><trkpt lat="40.949875" lon="16.2585833"><ele>466.0</ele><time>2026-04-12T07:42:22.633Z</time></trkpt><trkpt lat="40.949975" lon="16.2584933"><ele>466.0</ele><time>2026-04-12T07:42:24.638Z</time></trkpt><trkpt lat="40.9500817" lon="16.258395"><ele>466.0</ele><time>2026-04-12T07:42:26.636Z</time></trkpt><trkpt lat="40.950135" lon="16.258345"><ele>466.0</ele><time>2026-04-12T07:42:27.634Z</time></trkpt><trkpt lat="40.95019" lon="16.2582983"><ele>466.0</ele><time>2026-04-12T07:42:28.637Z</time></trkpt><trkpt lat="40.950245" lon="16.2582433"><ele>466.0</ele><time>2026-04-12T07:42:29.641Z</time></trkpt><trkpt lat="40.9502983" lon="16.258185"><ele>466.0</ele><time>2026-04-12T07:42:30.634Z</time></trkpt><trkpt lat="40.9503483" lon="16.2581317"><ele>466.0</ele><time>2026-04-12T07:42:31.634Z</time></trkpt><trkpt lat="40.9504017" lon="16.2580867"><ele>466.0</ele><time>2026-04-12T07:42:32.635Z</time></trkpt><trkpt lat="40.95046" lon="16.2580367"><ele>466.0</ele><time>2026-04-12T07:42:33.635Z</time></trkpt><trkpt lat="40.9505233" lon="16.2579733"><ele>466.0</ele><time>2026-04-12T07:42:34.634Z</time></trkpt><trkpt lat="40.95059" lon="16.25791"><ele>466.0</ele><time>2026-04-12T07:42:35.635Z</time></trkpt><trkpt lat="40.95066" lon="16.2578433"><ele>466.00000000000006</ele><time>2026-04-12T07:42:36.636Z</time></trkpt><trkpt lat="40.950725" lon="16.2577733"><ele>466.0</ele><time>2026-04-12T07:42:37.636Z</time></trkpt><trkpt lat="40.9507917" lon="16.2577017"><ele>466.0</ele><time>2026-04-12T07:42:38.636Z</time></trkpt><trkpt lat="40.9508583" lon="16.2576317"><ele>466.0</ele><time>2026-04-12T07:42:39.634Z</time></trkpt><trkpt lat="40.95092" lon="16.2575617"><ele>466.00000000000006</ele><time>2026-04-12T07:42:40.634Z</time></trkpt><trkpt lat="40.95098" lon="16.2574983"><ele>466.0</ele><time>2026-04-12T07:42:41.634Z</time></trkpt><trkpt lat="40.9510367" lon="16.2574383"><ele>466.33333333333337</ele><time>2026-04-12T07:42:42.635Z</time></trkpt><trkpt lat="40.9511" lon="16.2573817"><ele>466.6666666666667</ele><time>2026-04-12T07:42:43.634Z</time></trkpt><trkpt lat="40.9511633" lon="16.257325"><ele>467.0</ele><time>2026-04-12T07:42:44.641Z</time></trkpt><trkpt lat="40.9512233" lon="16.257265"><ele>467.33333333333337</ele><time>2026-04-12T07:42:45.634Z</time></trkpt><trkpt lat="40.9512833" lon="16.2572083"><ele>467.6666666666667</ele><time>2026-04-12T07:42:46.635Z</time></trkpt><trkpt lat="40.9513467" lon="16.25715"><ele>468.0</ele><time>2026-04-12T07:42:47.635Z</time></trkpt><trkpt lat="40.9514133" lon="16.257085"><ele>468.0</ele><time>2026-04-12T07:42:48.635Z</time></trkpt><trkpt lat="40.9514817" lon="16.257015"><ele>468.0</ele><time>2026-04-12T07:42:49.634Z</time></trkpt><trkpt lat="40.9515467" lon="16.2569467"><ele>468.0</ele><time>2026-04-12T07:42:50.634Z</time></trkpt><trkpt lat="40.951605" lon="16.256885"><ele>468.0</ele><time>2026-04-12T07:42:51.633Z</time></trkpt><trkpt lat="40.9516633" lon="16.2568333"><ele>468.0</ele><time>2026-04-12T07:42:52.635Z</time></trkpt><trkpt lat="40.9517167" lon="16.2567867"><ele>468.0</ele><time>2026-04-12T07:42:53.634Z</time></trkpt><trkpt lat="40.9518167" lon="16.25668"><ele>468.42857142857144</ele><time>2026-04-12T07:42:55.635Z</time></trkpt><trkpt lat="40.95187" lon="16.2566217"><ele>468.8571428571429</ele><time>2026-04-12T07:42:56.634Z</time></trkpt><trkpt lat="40.951925" lon="16.256575"><ele>469.28571428571433</ele><time>2026-04-12T07:42:57.634Z</time></trkpt><trkpt lat="40.9519817" lon="16.2565267"><ele>469.7142857142858</ele><time>2026-04-12T07:42:58.635Z</time></trkpt><trkpt lat="40.9520383" lon="16.2564667"><ele>470.14285714285717</ele><time>2026-04-12T07:42:59.635Z</time></trkpt><trkpt lat="40.9520983" lon="16.2563983"><ele>470.57142857142867</ele><time>2026-04-12T07:43:00.634Z</time></trkpt><trkpt lat="40.9521583" lon="16.2563317"><ele>471.00000000000006</ele><time>2026-04-12T07:43:01.634Z</time></trkpt><trkpt lat="40.952215" lon="16.25627"><ele>471.0</ele><time>2026-04-12T07:43:02.635Z</time></trkpt><trkpt lat="40.9522667" lon="16.2562083"><ele>471.0</ele><time>2026-04-12T07:43:03.636Z</time></trkpt><trkpt lat="40.9523167" lon="16.2561483"><ele>471.0</ele><time>2026-04-12T07:43:04.634Z</time></trkpt><trkpt lat="40.9523683" lon="16.2560867"><ele>471.0</ele><time>2026-04-12T07:43:05.636Z</time></trkpt><trkpt lat="40.9524217" lon="16.256025"><ele>471.0</ele><time>2026-04-12T07:43:06.636Z</time></trkpt><trkpt lat="40.952505" lon="16.2559167"><ele>471.0</ele><time>2026-04-12T07:43:08.634Z</time></trkpt><trkpt lat="40.9525817" lon="16.2557983"><ele>471.00000000000006</ele><time>2026-04-12T07:43:10.633Z</time></trkpt><trkpt lat="40.9526267" lon="16.255735"><ele>471.0</ele><time>2026-04-12T07:43:11.634Z</time></trkpt><trkpt lat="40.952675" lon="16.2556733"><ele>471.00000000000006</ele><time>2026-04-12T07:43:12.634Z</time></trkpt><trkpt lat="40.9527233" lon="16.2556117"><ele>471.00000000000006</ele><time>2026-04-12T07:43:13.635Z</time></trkpt><trkpt lat="40.9527717" lon="16.2555467"><ele>471.0</ele><time>2026-04-12T07:43:14.634Z</time></trkpt><trkpt lat="40.952825" lon="16.2554767"><ele>471.00000000000006</ele><time>2026-04-12T07:43:15.635Z</time></trkpt><trkpt lat="40.952885" lon="16.2554083"><ele>471.00000000000006</ele><time>2026-04-12T07:43:16.634Z</time></trkpt><trkpt lat="40.95295" lon="16.255345"><ele>471.0</ele><time>2026-04-12T07:43:17.635Z</time></trkpt><trkpt lat="40.9530117" lon="16.25528"><ele>471.0</ele><time>2026-04-12T07:43:18.634Z</time></trkpt><trkpt lat="40.9530683" lon="16.255215"><ele>471.0</ele><time>2026-04-12T07:43:19.634Z</time></trkpt><trkpt lat="40.9531217" lon="16.2551517"><ele>471.0</ele><time>2026-04-12T07:43:20.634Z</time></trkpt><trkpt lat="40.9532067" lon="16.2550233"><ele>471.0</ele><time>2026-04-12T07:43:22.636Z</time></trkpt><trkpt lat="40.953255" lon="16.254945"><ele>471.0</ele><time>2026-04-12T07:43:23.635Z</time></trkpt><trkpt lat="40.9533117" lon="16.2548617"><ele>471.6</ele><time>2026-04-12T07:43:24.634Z</time></trkpt><trkpt lat="40.95338" lon="16.254775"><ele>472.20000000000005</ele><time>2026-04-12T07:43:25.634Z</time></trkpt><trkpt lat="40.9534533" lon="16.2546817"><ele>472.79999999999995</ele><time>2026-04-12T07:43:26.635Z</time></trkpt><trkpt lat="40.9535317" lon="16.25458"><ele>473.4</ele><time>2026-04-12T07:43:27.634Z</time></trkpt><trkpt lat="40.95361" lon="16.254475"><ele>474.0</ele><time>2026-04-12T07:43:28.635Z</time></trkpt><trkpt lat="40.95369" lon="16.25437"><ele>474.0</ele><time>2026-04-12T07:43:29.636Z</time></trkpt><trkpt lat="40.9537683" lon="16.2542617"><ele>474.0</ele><time>2026-04-12T07:43:30.634Z</time></trkpt><trkpt lat="40.953845" lon="16.2541567"><ele>474.0</ele><time>2026-04-12T07:43:31.636Z</time></trkpt><trkpt lat="40.9539183" lon="16.2540517"><ele>474.0</ele><time>2026-04-12T07:43:32.634Z</time></trkpt><trkpt lat="40.9539917" lon="16.2539567"><ele>474.0</ele><time>2026-04-12T07:43:33.635Z</time></trkpt><trkpt lat="40.9540583" lon="16.25386"><ele>473.6</ele><time>2026-04-12T07:43:34.635Z</time></trkpt><trkpt lat="40.9541267" lon="16.2537683"><ele>473.2</ele><time>2026-04-12T07:43:35.634Z</time></trkpt><trkpt lat="40.954195" lon="16.2536733"><ele>472.80000000000007</ele><time>2026-04-12T07:43:36.637Z</time></trkpt><trkpt lat="40.9542633" lon="16.25358"><ele>472.40000000000003</ele><time>2026-04-12T07:43:37.636Z</time></trkpt><trkpt lat="40.954335" lon="16.25349"><ele>472.0</ele><time>2026-04-12T07:43:38.635Z</time></trkpt><trkpt lat="40.95441" lon="16.2534"><ele>472.8</ele><time>2026-04-12T07:43:39.634Z</time></trkpt><trkpt lat="40.9544833" lon="16.25331"><ele>473.6</ele><time>2026-04-12T07:43:40.634Z</time></trkpt><trkpt lat="40.9545533" lon="16.253215"><ele>474.40000000000003</ele><time>2026-04-12T07:43:41.634Z</time></trkpt><trkpt lat="40.9546233" lon="16.2531267"><ele>475.20000000000005</ele><time>2026-04-12T07:43:42.633Z</time></trkpt><trkpt lat="40.954695" lon="16.25304"><ele>476.0</ele><time>2026-04-12T07:43:43.634Z</time></trkpt><trkpt lat="40.9547667" lon="16.2529567"><ele>475.99999999999994</ele><time>2026-04-12T07:43:44.634Z</time></trkpt><trkpt lat="40.9548367" lon="16.2528767"><ele>476.0</ele><time>2026-04-12T07:43:45.634Z</time></trkpt><trkpt lat="40.9549067" lon="16.2528033"><ele>476.0</ele><time>2026-04-12T07:43:46.637Z</time></trkpt><trkpt lat="40.9549717" lon="16.252725"><ele>476.0</ele><time>2026-04-12T07:43:47.636Z</time></trkpt><trkpt lat="40.9550383" lon="16.25265"><ele>475.99999999999994</ele><time>2026-04-12T07:43:48.634Z</time></trkpt><trkpt lat="40.9551083" lon="16.252575"><ele>476.0</ele><time>2026-04-12T07:43:49.634Z</time></trkpt><trkpt lat="40.955175" lon="16.2525"><ele>476.20000000000005</ele><time>2026-04-12T07:43:50.635Z</time></trkpt><trkpt lat="40.9552433" lon="16.2524183"><ele>476.40000000000003</ele><time>2026-04-12T07:43:51.635Z</time></trkpt><trkpt lat="40.955315" lon="16.2523367"><ele>476.6</ele><time>2026-04-12T07:43:52.634Z</time></trkpt><trkpt lat="40.9553867" lon="16.2522583"><ele>476.8</ele><time>2026-04-12T07:43:53.634Z</time></trkpt><trkpt lat="40.9554533" lon="16.2521767"><ele>477.0</ele><time>2026-04-12T07:43:54.635Z</time></trkpt><trkpt lat="40.9555167" lon="16.2520967"><ele>477.0</ele><time>2026-04-12T07:43:55.634Z</time></trkpt><trkpt lat="40.9555783" lon="16.2520183"><ele>477.0</ele><time>2026-04-12T07:43:56.635Z</time></trkpt><trkpt lat="40.9556383" lon="16.251935"><ele>477.0</ele><time>2026-04-12T07:43:57.637Z</time></trkpt><trkpt lat="40.9556967" lon="16.2518483"><ele>477.0</ele><time>2026-04-12T07:43:58.634Z</time></trkpt><trkpt lat="40.955755" lon="16.2517683"><ele>477.0</ele><time>2026-04-12T07:43:59.635Z</time></trkpt><trkpt lat="40.95581" lon="16.2516917"><ele>477.0</ele><time>2026-04-12T07:44:00.634Z</time></trkpt><trkpt lat="40.9558633" lon="16.251625"><ele>478.0</ele><time>2026-04-12T07:44:01.635Z</time></trkpt><trkpt lat="40.9559483" lon="16.2515217"><ele>479.00000000000006</ele><time>2026-04-12T07:44:03.633Z</time></trkpt><trkpt lat="40.9560233" lon="16.2514383"><ele>480.00000000000006</ele><time>2026-04-12T07:44:05.634Z</time></trkpt><trkpt lat="40.9560967" lon="16.2513417"><ele>481.0</ele><time>2026-04-12T07:44:07.634Z</time></trkpt><trkpt lat="40.9561683" lon="16.2512367"><ele>482.0</ele><time>2026-04-12T07:44:09.634Z</time></trkpt><trkpt lat="40.95625" lon="16.25115"><ele>481.99999999999994</ele><time>2026-04-12T07:44:11.635Z</time></trkpt><trkpt lat="40.9563483" lon="16.2510783"><ele>482.0</ele><time>2026-04-12T07:44:13.634Z</time></trkpt><trkpt lat="40.956405" lon="16.2510333"><ele>482.0</ele><time>2026-04-12T07:44:14.634Z</time></trkpt><trkpt lat="40.9564667" lon="16.2509883"><ele>482.0</ele><time>2026-04-12T07:44:15.635Z</time></trkpt><trkpt lat="40.9565283" lon="16.250935"><ele>481.99999999999994</ele><time>2026-04-12T07:44:16.634Z</time></trkpt><trkpt lat="40.9565917" lon="16.2508633"><ele>482.0</ele><time>2026-04-12T07:44:17.634Z</time></trkpt><trkpt lat="40.9566533" lon="16.2507867"><ele>482.8333333333333</ele><time>2026-04-12T07:44:18.633Z</time></trkpt><trkpt lat="40.9567133" lon="16.2507183"><ele>483.66666666666663</ele><time>2026-04-12T07:44:19.634Z</time></trkpt><trkpt lat="40.9567733" lon="16.2506517"><ele>484.5</ele><time>2026-04-12T07:44:20.634Z</time></trkpt><trkpt lat="40.9568317" lon="16.2505883"><ele>485.33333333333337</ele><time>2026-04-12T07:44:21.635Z</time></trkpt><trkpt lat="40.95689" lon="16.2505317"><ele>486.1666666666667</ele><time>2026-04-12T07:44:22.635Z</time></trkpt><trkpt lat="40.95695" lon="16.2504783"><ele>487.0</ele><time>2026-04-12T07:44:23.633Z</time></trkpt><trkpt lat="40.9570083" lon="16.2504217"><ele>487.1666666666667</ele><time>2026-04-12T07:44:24.633Z</time></trkpt><trkpt lat="40.9570717" lon="16.2503583"><ele>487.33333333333337</ele><time>2026-04-12T07:44:25.634Z</time></trkpt><trkpt lat="40.9571367" lon="16.2502867"><ele>487.5</ele><time>2026-04-12T07:44:26.635Z</time></trkpt><trkpt lat="40.9572017" lon="16.2502133"><ele>487.66666666666663</ele><time>2026-04-12T07:44:27.634Z</time></trkpt><trkpt lat="40.957265" lon="16.25014"><ele>487.8333333333333</ele><time>2026-04-12T07:44:28.633Z</time></trkpt><trkpt lat="40.957325" lon="16.2500683"><ele>488.0</ele><time>2026-04-12T07:44:29.635Z</time></trkpt><trkpt lat="40.9573783" lon="16.2500067"><ele>487.99999999999994</ele><time>2026-04-12T07:44:30.633Z</time></trkpt><trkpt lat="40.9574317" lon="16.2499467"><ele>488.0</ele><time>2026-04-12T07:44:31.634Z</time></trkpt><trkpt lat="40.957485" lon="16.2498883"><ele>487.99999999999994</ele><time>2026-04-12T07:44:32.635Z</time></trkpt><trkpt lat="40.95754" lon="16.24983"><ele>487.99999999999994</ele><time>2026-04-12T07:44:33.634Z</time></trkpt><trkpt lat="40.9575933" lon="16.2497683"><ele>488.0</ele><time>2026-04-12T07:44:34.634Z</time></trkpt><trkpt lat="40.9576483" lon="16.249705"><ele>487.99999999999994</ele><time>2026-04-12T07:44:35.636Z</time></trkpt><trkpt lat="40.9577083" lon="16.2496417"><ele>487.99999999999994</ele><time>2026-04-12T07:44:36.633Z</time></trkpt><trkpt lat="40.9577717" lon="16.2495733"><ele>487.99999999999994</ele><time>2026-04-12T07:44:37.634Z</time></trkpt><trkpt lat="40.9578367" lon="16.2495"><ele>488.0</ele><time>2026-04-12T07:44:38.634Z</time></trkpt><trkpt lat="40.9578983" lon="16.24943"><ele>488.0</ele><time>2026-04-12T07:44:39.633Z</time></trkpt><trkpt lat="40.9579517" lon="16.249365"><ele>488.0</ele><time>2026-04-12T07:44:40.635Z</time></trkpt><trkpt lat="40.958" lon="16.2493067"><ele>487.99999999999994</ele><time>2026-04-12T07:44:41.634Z</time></trkpt><trkpt lat="40.9580533" lon="16.2492617"><ele>488.0</ele><time>2026-04-12T07:44:42.633Z</time></trkpt><trkpt lat="40.9581583" lon="16.2492117"><ele>488.0</ele><time>2026-04-12T07:44:44.634Z</time></trkpt><trkpt lat="40.9582767" lon="16.2491933"><ele>487.99999999999994</ele><time>2026-04-12T07:44:46.633Z</time></trkpt><trkpt lat="40.95834" lon="16.2491867"><ele>487.99999999999994</ele><time>2026-04-12T07:44:47.634Z</time></trkpt><trkpt lat="40.958445" lon="16.2491767"><ele>488.0</ele><time>2026-04-12T07:44:49.634Z</time></trkpt><trkpt lat="40.9583467" lon="16.2491817"><ele>488.0</ele><time>2026-04-12T07:45:15.635Z</time></trkpt><trkpt lat="40.958215" lon="16.2491833"><ele>487.99999999999994</ele><time>2026-04-12T07:45:17.635Z</time></trkpt><trkpt lat="40.95814" lon="16.2491983"><ele>488.0</ele><time>2026-04-12T07:45:18.641Z</time></trkpt><trkpt lat="40.9580733" lon="16.24923"><ele>488.0</ele><time>2026-04-12T07:45:19.636Z</time></trkpt><trkpt lat="40.9580117" lon="16.2492767"><ele>488.0</ele><time>2026-04-12T07:45:20.636Z</time></trkpt><trkpt lat="40.9579467" lon="16.2493417"><ele>487.99999999999994</ele><time>2026-04-12T07:45:21.635Z</time></trkpt><trkpt lat="40.9578833" lon="16.2494167"><ele>488.0</ele><time>2026-04-12T07:45:22.636Z</time></trkpt><trkpt lat="40.957815" lon="16.2494967"><ele>488.0</ele><time>2026-04-12T07:45:23.635Z</time></trkpt><trkpt lat="40.95774" lon="16.2495767"><ele>487.99999999999994</ele><time>2026-04-12T07:45:24.635Z</time></trkpt><trkpt lat="40.9576667" lon="16.2496583"><ele>487.99999999999994</ele><time>2026-04-12T07:45:25.635Z</time></trkpt><trkpt lat="40.9575967" lon="16.2497383"><ele>488.0</ele><time>2026-04-12T07:45:26.635Z</time></trkpt><trkpt lat="40.9575283" lon="16.249815"><ele>488.0</ele><time>2026-04-12T07:45:27.634Z</time></trkpt><trkpt lat="40.957455" lon="16.2498967"><ele>487.99999999999994</ele><time>2026-04-12T07:45:28.635Z</time></trkpt><trkpt lat="40.9573817" lon="16.2499733"><ele>488.0</ele><time>2026-04-12T07:45:29.634Z</time></trkpt><trkpt lat="40.957315" lon="16.2500467"><ele>488.0</ele><time>2026-04-12T07:45:30.635Z</time></trkpt><trkpt lat="40.9572533" lon="16.2501133"><ele>488.0</ele><time>2026-04-12T07:45:31.635Z</time></trkpt><trkpt lat="40.957195" lon="16.2501767"><ele>487.99999999999994</ele><time>2026-04-12T07:45:32.635Z</time></trkpt><trkpt lat="40.9571333" lon="16.2502417"><ele>488.0</ele><time>2026-04-12T07:45:33.636Z</time></trkpt><trkpt lat="40.95707" lon="16.2503067"><ele>487.99999999999994</ele><time>2026-04-12T07:45:34.635Z</time></trkpt><trkpt lat="40.957005" lon="16.2503717"><ele>488.0</ele><time>2026-04-12T07:45:35.635Z</time></trkpt><trkpt lat="40.95694" lon="16.2504383"><ele>488.0</ele><time>2026-04-12T07:45:36.635Z</time></trkpt><trkpt lat="40.9568717" lon="16.25051"><ele>488.0</ele><time>2026-04-12T07:45:37.635Z</time></trkpt><trkpt lat="40.95681" lon="16.25058"><ele>487.99999999999994</ele><time>2026-04-12T07:45:38.635Z</time></trkpt><trkpt lat="40.9567517" lon="16.2506467"><ele>488.0</ele><time>2026-04-12T07:45:39.635Z</time></trkpt><trkpt lat="40.95669" lon="16.2507133"><ele>486.99999999999994</ele><time>2026-04-12T07:45:40.634Z</time></trkpt><trkpt lat="40.9566283" lon="16.25078"><ele>486.0</ele><time>2026-04-12T07:45:41.634Z</time></trkpt><trkpt lat="40.9565717" lon="16.250845"><ele>485.0</ele><time>2026-04-12T07:45:42.634Z</time></trkpt><trkpt lat="40.9565167" lon="16.2509067"><ele>484.0</ele><time>2026-04-12T07:45:43.635Z</time></trkpt><trkpt lat="40.9564583" lon="16.250965"><ele>482.99999999999994</ele><time>2026-04-12T07:45:44.636Z</time></trkpt><trkpt lat="40.9563967" lon="16.2510283"><ele>482.0</ele><time>2026-04-12T07:45:45.634Z</time></trkpt><trkpt lat="40.956335" lon="16.2510883"><ele>482.0</ele><time>2026-04-12T07:45:46.634Z</time></trkpt><trkpt lat="40.9562767" lon="16.2511483"><ele>482.00000000000006</ele><time>2026-04-12T07:45:47.637Z</time></trkpt><trkpt lat="40.9562183" lon="16.251205"><ele>482.0</ele><time>2026-04-12T07:45:48.635Z</time></trkpt><trkpt lat="40.9561633" lon="16.2512667"><ele>482.0</ele><time>2026-04-12T07:45:49.636Z</time></trkpt><trkpt lat="40.956115" lon="16.2513233"><ele>482.00000000000006</ele><time>2026-04-12T07:45:50.636Z</time></trkpt><trkpt lat="40.9560683" lon="16.25141"><ele>482.0</ele><time>2026-04-12T07:45:52.635Z</time></trkpt><trkpt lat="40.9561183" lon="16.251475"><ele>482.0</ele><time>2026-04-12T07:45:55.634Z</time></trkpt><trkpt lat="40.9562133" lon="16.2514767"><ele>482.0</ele><time>2026-04-12T07:45:57.636Z</time></trkpt><trkpt lat="40.9563333" lon="16.2514233"><ele>482.00000000000006</ele><time>2026-04-12T07:45:59.634Z</time></trkpt><trkpt lat="40.9563967" lon="16.2513783"><ele>482.00000000000006</ele><time>2026-04-12T07:46:00.634Z</time></trkpt><trkpt lat="40.9564683" lon="16.2513267"><ele>482.0</ele><time>2026-04-12T07:46:01.635Z</time></trkpt><trkpt lat="40.956545" lon="16.2512683"><ele>482.0</ele><time>2026-04-12T07:46:02.635Z</time></trkpt><trkpt lat="40.9566233" lon="16.2511967"><ele>483.25</ele><time>2026-04-12T07:46:03.636Z</time></trkpt><trkpt lat="40.95671" lon="16.2511033"><ele>484.5</ele><time>2026-04-12T07:46:04.635Z</time></trkpt><trkpt lat="40.9568083" lon="16.251"><ele>485.75</ele><time>2026-04-12T07:46:05.634Z</time></trkpt><trkpt lat="40.9569133" lon="16.2508933"><ele>487.0</ele><time>2026-04-12T07:46:06.742Z</time></trkpt><trkpt lat="40.9571417" lon="16.25066"><ele>487.25</ele><time>2026-04-12T07:46:08.636Z</time></trkpt><trkpt lat="40.9572583" lon="16.2505383"><ele>487.5</ele><time>2026-04-12T07:46:09.635Z</time></trkpt><trkpt lat="40.9573733" lon="16.2504183"><ele>487.75</ele><time>2026-04-12T07:46:10.634Z</time></trkpt><trkpt lat="40.9574883" lon="16.2503017"><ele>488.0</ele><time>2026-04-12T07:46:11.634Z</time></trkpt><trkpt lat="40.9576083" lon="16.2501817"><ele>488.0</ele><time>2026-04-12T07:46:12.634Z</time></trkpt><trkpt lat="40.95773" lon="16.2500567"><ele>488.0</ele><time>2026-04-12T07:46:13.634Z</time></trkpt><trkpt lat="40.9578417" lon="16.2499417"><ele>488.0</ele><time>2026-04-12T07:46:14.635Z</time></trkpt><trkpt lat="40.9579433" lon="16.2498367"><ele>488.0</ele><time>2026-04-12T07:46:15.637Z</time></trkpt><trkpt lat="40.958035" lon="16.24974"><ele>487.99999999999994</ele><time>2026-04-12T07:46:16.638Z</time></trkpt><trkpt lat="40.9581233" lon="16.2496567"><ele>488.0</ele><time>2026-04-12T07:46:17.637Z</time></trkpt><trkpt lat="40.9582083" lon="16.249585"><ele>488.0</ele><time>2026-04-12T07:46:18.634Z</time></trkpt><trkpt lat="40.9582867" lon="16.2495333"><ele>488.0</ele><time>2026-04-12T07:46:19.635Z</time></trkpt><trkpt lat="40.9583583" lon="16.2495083"><ele>487.99999999999994</ele><time>2026-04-12T07:46:20.636Z</time></trkpt><trkpt lat="40.9584233" lon="16.2495083"><ele>488.0</ele><time>2026-04-12T07:46:21.635Z</time></trkpt><trkpt lat="40.9584867" lon="16.2495383"><ele>488.79999999999995</ele><time>2026-04-12T07:46:22.635Z</time></trkpt><trkpt lat="40.95856" lon="16.2495883"><ele>489.59999999999997</ele><time>2026-04-12T07:46:23.637Z</time></trkpt><trkpt lat="40.9586467" lon="16.2496483"><ele>490.40000000000003</ele><time>2026-04-12T07:46:24.635Z</time></trkpt><trkpt lat="40.9587417" lon="16.24972"><ele>491.20000000000005</ele><time>2026-04-12T07:46:25.634Z</time></trkpt><trkpt lat="40.9588417" lon="16.2498"><ele>492.0</ele><time>2026-04-12T07:46:26.634Z</time></trkpt><trkpt lat="40.958955" lon="16.2498817"><ele>492.0</ele><time>2026-04-12T07:46:27.635Z</time></trkpt><trkpt lat="40.9590783" lon="16.2499667"><ele>492.0</ele><time>2026-04-12T07:46:28.635Z</time></trkpt><trkpt lat="40.959195" lon="16.2500467"><ele>492.0</ele><time>2026-04-12T07:46:29.635Z</time></trkpt><trkpt lat="40.9593033" lon="16.250125"><ele>492.0</ele><time>2026-04-12T07:46:30.634Z</time></trkpt><trkpt lat="40.9594133" lon="16.250205"><ele>493.0</ele><time>2026-04-12T07:46:31.635Z</time></trkpt><trkpt lat="40.9595267" lon="16.2502767"><ele>494.0</ele><time>2026-04-12T07:46:32.637Z</time></trkpt><trkpt lat="40.9596383" lon="16.2503317"><ele>495.0</ele><time>2026-04-12T07:46:33.635Z</time></trkpt><trkpt lat="40.9597517" lon="16.2503817"><ele>496.0</ele><time>2026-04-12T07:46:34.634Z</time></trkpt><trkpt lat="40.9598633" lon="16.2504183"><ele>496.0</ele><time>2026-04-12T07:46:35.634Z</time></trkpt><trkpt lat="40.959965" lon="16.2504517"><ele>496.0</ele><time>2026-04-12T07:46:36.635Z</time></trkpt><trkpt lat="40.9600667" lon="16.2504983"><ele>496.0</ele><time>2026-04-12T07:46:37.636Z</time></trkpt><trkpt lat="40.96017" lon="16.250565"><ele>496.0</ele><time>2026-04-12T07:46:38.635Z</time></trkpt><trkpt lat="40.9602767" lon="16.2506483"><ele>497.5</ele><time>2026-04-12T07:46:39.636Z</time></trkpt><trkpt lat="40.9603833" lon="16.2507433"><ele>499.0</ele><time>2026-04-12T07:46:40.636Z</time></trkpt><trkpt lat="40.9604967" lon="16.2508417"><ele>500.5</ele><time>2026-04-12T07:46:41.638Z</time></trkpt><trkpt lat="40.9606217" lon="16.2509533"><ele>502.0</ele><time>2026-04-12T07:46:42.634Z</time></trkpt><trkpt lat="40.9607533" lon="16.2510667"><ele>503.25</ele><time>2026-04-12T07:46:43.635Z</time></trkpt><trkpt lat="40.960875" lon="16.2511733"><ele>504.5</ele><time>2026-04-12T07:46:44.634Z</time></trkpt><trkpt lat="40.9609883" lon="16.2512733"><ele>505.75</ele><time>2026-04-12T07:46:45.634Z</time></trkpt><trkpt lat="40.9611017" lon="16.2513717"><ele>507.0</ele><time>2026-04-12T07:46:46.636Z</time></trkpt><trkpt lat="40.96121" lon="16.2514633"><ele>507.0</ele><time>2026-04-12T07:46:47.635Z</time></trkpt><trkpt lat="40.96131" lon="16.25155"><ele>507.00000000000006</ele><time>2026-04-12T07:46:48.634Z</time></trkpt><trkpt lat="40.9614017" lon="16.25163"><ele>507.00000000000006</ele><time>2026-04-12T07:46:49.635Z</time></trkpt><trkpt lat="40.9614867" lon="16.251695"><ele>507.0</ele><time>2026-04-12T07:46:50.635Z</time></trkpt><trkpt lat="40.9615633" lon="16.2517533"><ele>507.0</ele><time>2026-04-12T07:46:51.634Z</time></trkpt><trkpt lat="40.9616333" lon="16.2518017"><ele>509.5</ele><time>2026-04-12T07:46:52.634Z</time></trkpt><trkpt lat="40.9617067" lon="16.251845"><ele>512.0</ele><time>2026-04-12T07:46:53.635Z</time></trkpt><trkpt lat="40.9617867" lon="16.2518917"><ele>514.5</ele><time>2026-04-12T07:46:54.635Z</time></trkpt><trkpt lat="40.9618683" lon="16.251935"><ele>517.0</ele><time>2026-04-12T07:46:55.643Z</time></trkpt><trkpt lat="40.9619433" lon="16.25197"><ele>519.5</ele><time>2026-04-12T07:46:56.636Z</time></trkpt><trkpt lat="40.9620117" lon="16.2519983"><ele>522.0</ele><time>2026-04-12T07:46:57.634Z</time></trkpt><trkpt lat="40.96208" lon="16.2520217"><ele>522.0</ele><time>2026-04-12T07:46:58.635Z</time></trkpt><trkpt lat="40.962145" lon="16.2520467"><ele>522.0</ele><time>2026-04-12T07:46:59.635Z</time></trkpt><trkpt lat="40.9622133" lon="16.2520867"><ele>522.0</ele><time>2026-04-12T07:47:00.637Z</time></trkpt><trkpt lat="40.9622733" lon="16.2521467"><ele>522.0</ele><time>2026-04-12T07:47:01.634Z</time></trkpt><trkpt lat="40.9623233" lon="16.2522083"><ele>522.0</ele><time>2026-04-12T07:47:02.635Z</time></trkpt><trkpt lat="40.96239" lon="16.25228"><ele>522.0</ele><time>2026-04-12T07:47:04.635Z</time></trkpt><trkpt lat="40.9623532" lon="16.252196"><ele>522.0</ele><time>2026-04-12T07:57:43.634Z</time></trkpt><trkpt lat="40.962255" lon="16.2520983"><ele>522.0</ele><time>2026-04-12T07:57:44.635Z</time></trkpt><trkpt lat="40.9621783" lon="16.2520567"><ele>522.0</ele><time>2026-04-12T07:57:45.633Z</time></trkpt><trkpt lat="40.962105" lon="16.252025"><ele>522.0</ele><time>2026-04-12T07:57:46.634Z</time></trkpt><trkpt lat="40.9620433" lon="16.2519983"><ele>522.0</ele><time>2026-04-12T07:57:47.634Z</time></trkpt><trkpt lat="40.9619333" lon="16.2519567"><ele>522.0</ele><time>2026-04-12T07:57:49.637Z</time></trkpt><trkpt lat="40.9618033" lon="16.2518983"><ele>522.0</ele><time>2026-04-12T07:57:51.634Z</time></trkpt><trkpt lat="40.9617267" lon="16.2518567"><ele>522.0</ele><time>2026-04-12T07:57:52.638Z</time></trkpt><trkpt lat="40.9616567" lon="16.2518133"><ele>522.0</ele><time>2026-04-12T07:57:53.635Z</time></trkpt><trkpt lat="40.96159" lon="16.25177"><ele>522.0</ele><time>2026-04-12T07:57:54.634Z</time></trkpt><trkpt lat="40.9615233" lon="16.25173"><ele>522.0</ele><time>2026-04-12T07:57:55.634Z</time></trkpt><trkpt lat="40.9614633" lon="16.2516833"><ele>522.0</ele><time>2026-04-12T07:57:56.635Z</time></trkpt><trkpt lat="40.961405" lon="16.251635"><ele>522.0</ele><time>2026-04-12T07:57:57.635Z</time></trkpt><trkpt lat="40.961345" lon="16.2515817"><ele>519.4</ele><time>2026-04-12T07:57:58.633Z</time></trkpt><trkpt lat="40.961275" lon="16.2515217"><ele>516.8000000000001</ele><time>2026-04-12T07:57:59.634Z</time></trkpt><trkpt lat="40.961195" lon="16.2514533"><ele>514.2</ele><time>2026-04-12T07:58:00.635Z</time></trkpt><trkpt lat="40.9611117" lon="16.2513867"><ele>511.6</ele><time>2026-04-12T07:58:01.633Z</time></trkpt><trkpt lat="40.9610267" lon="16.25131"><ele>509.0</ele><time>2026-04-12T07:58:02.634Z</time></trkpt><trkpt lat="40.9609267" lon="16.2512233"><ele>507.25</ele><time>2026-04-12T07:58:03.634Z</time></trkpt><trkpt lat="40.9608133" lon="16.2511283"><ele>505.5</ele><time>2026-04-12T07:58:04.635Z</time></trkpt><trkpt lat="40.9606933" lon="16.2510283"><ele>503.75</ele><time>2026-04-12T07:58:05.633Z</time></trkpt><trkpt lat="40.9605717" lon="16.2509267"><ele>502.0</ele><time>2026-04-12T07:58:06.635Z</time></trkpt><trkpt lat="40.9604583" lon="16.2508283"><ele>502.0</ele><time>2026-04-12T07:58:07.634Z</time></trkpt><trkpt lat="40.96035" lon="16.2507383"><ele>502.0</ele><time>2026-04-12T07:58:08.635Z</time></trkpt><trkpt lat="40.96025" lon="16.2506517"><ele>502.0</ele><time>2026-04-12T07:58:09.634Z</time></trkpt><trkpt lat="40.96016" lon="16.2505767"><ele>502.0</ele><time>2026-04-12T07:58:10.634Z</time></trkpt><trkpt lat="40.9600767" lon="16.2505133"><ele>500.8</ele><time>2026-04-12T07:58:11.634Z</time></trkpt><trkpt lat="40.9599967" lon="16.2504667"><ele>499.6</ele><time>2026-04-12T07:58:12.634Z</time></trkpt><trkpt lat="40.9599083" lon="16.2504333"><ele>498.40000000000003</ele><time>2026-04-12T07:58:13.636Z</time></trkpt><trkpt lat="40.9598033" lon="16.2504017"><ele>497.20000000000005</ele><time>2026-04-12T07:58:14.634Z</time></trkpt><trkpt lat="40.95969" lon="16.2503567"><ele>496.0</ele><time>2026-04-12T07:58:15.634Z</time></trkpt><trkpt lat="40.9595767" lon="16.2503"><ele>496.0</ele><time>2026-04-12T07:58:16.634Z</time></trkpt><trkpt lat="40.9594583" lon="16.2502317"><ele>496.0</ele><time>2026-04-12T07:58:17.635Z</time></trkpt><trkpt lat="40.959345" lon="16.2501583"><ele>496.0</ele><time>2026-04-12T07:58:18.64Z</time></trkpt><trkpt lat="40.9592433" lon="16.2500917"><ele>496.0</ele><time>2026-04-12T07:58:19.634Z</time></trkpt><trkpt lat="40.959165" lon="16.2500367"><ele>495.4</ele><time>2026-04-12T07:58:20.635Z</time></trkpt><trkpt lat="40.9590983" lon="16.2499883"><ele>494.8</ele><time>2026-04-12T07:58:21.634Z</time></trkpt><trkpt lat="40.959035" lon="16.2499467"><ele>494.19999999999993</ele><time>2026-04-12T07:58:22.634Z</time></trkpt><trkpt lat="40.9589767" lon="16.2499033"><ele>493.59999999999997</ele><time>2026-04-12T07:58:23.636Z</time></trkpt><trkpt lat="40.95887" lon="16.24983"><ele>493.0</ele><time>2026-04-12T07:58:25.633Z</time></trkpt><trkpt lat="40.9587617" lon="16.2497533"><ele>493.00000000000006</ele><time>2026-04-12T07:58:27.634Z</time></trkpt><trkpt lat="40.9587067" lon="16.24971"><ele>493.0</ele><time>2026-04-12T07:58:28.633Z</time></trkpt><trkpt lat="40.9586033" lon="16.2496283"><ele>493.0</ele><time>2026-04-12T07:58:30.633Z</time></trkpt><trkpt lat="40.9585483" lon="16.2495867"><ele>493.0</ele><time>2026-04-12T07:58:31.635Z</time></trkpt><trkpt lat="40.958435" lon="16.2495233"><ele>493.00000000000006</ele><time>2026-04-12T07:58:33.633Z</time></trkpt><trkpt lat="40.9583717" lon="16.2495133"><ele>493.0</ele><time>2026-04-12T07:58:34.634Z</time></trkpt><trkpt lat="40.9583067" lon="16.24952"><ele>492.4</ele><time>2026-04-12T07:58:35.634Z</time></trkpt><trkpt lat="40.95824" lon="16.2495533"><ele>491.79999999999995</ele><time>2026-04-12T07:58:36.634Z</time></trkpt><trkpt lat="40.9581667" lon="16.2496117"><ele>491.2</ele><time>2026-04-12T07:58:37.634Z</time></trkpt><trkpt lat="40.9580833" lon="16.249685"><ele>490.6</ele><time>2026-04-12T07:58:38.636Z</time></trkpt><trkpt lat="40.9579983" lon="16.24977"><ele>490.0</ele><time>2026-04-12T07:58:39.634Z</time></trkpt><trkpt lat="40.957915" lon="16.2498533"><ele>490.0</ele><time>2026-04-12T07:58:40.635Z</time></trkpt><trkpt lat="40.9578317" lon="16.249935"><ele>490.0</ele><time>2026-04-12T07:58:41.633Z</time></trkpt><trkpt lat="40.9577433" lon="16.25003"><ele>490.0</ele><time>2026-04-12T07:58:42.64Z</time></trkpt><trkpt lat="40.9576533" lon="16.25012"><ele>490.0</ele><time>2026-04-12T07:58:43.636Z</time></trkpt><trkpt lat="40.9575683" lon="16.250205"><ele>490.0</ele><time>2026-04-12T07:58:44.634Z</time></trkpt><trkpt lat="40.9574917" lon="16.2502833"><ele>489.6</ele><time>2026-04-12T07:58:45.635Z</time></trkpt><trkpt lat="40.9574167" lon="16.2503583"><ele>489.2</ele><time>2026-04-12T07:58:46.633Z</time></trkpt><trkpt lat="40.95734" lon="16.2504367"><ele>488.79999999999995</ele><time>2026-04-12T07:58:47.641Z</time></trkpt><trkpt lat="40.9572633" lon="16.250515"><ele>488.4</ele><time>2026-04-12T07:58:48.635Z</time></trkpt><trkpt lat="40.9571867" lon="16.2505933"><ele>488.0</ele><time>2026-04-12T07:58:49.634Z</time></trkpt><trkpt lat="40.9571117" lon="16.25067"><ele>487.79999999999995</ele><time>2026-04-12T07:58:50.635Z</time></trkpt><trkpt lat="40.9570383" lon="16.250745"><ele>487.59999999999997</ele><time>2026-04-12T07:58:51.638Z</time></trkpt><trkpt lat="40.9569633" lon="16.2508217"><ele>487.40000000000003</ele><time>2026-04-12T07:58:52.636Z</time></trkpt><trkpt lat="40.9568833" lon="16.2509"><ele>487.20000000000005</ele><time>2026-04-12T07:58:53.642Z</time></trkpt><trkpt lat="40.9568033" lon="16.2509817"><ele>487.0</ele><time>2026-04-12T07:58:54.634Z</time></trkpt><trkpt lat="40.9567267" lon="16.2510583"><ele>486.1666666666667</ele><time>2026-04-12T07:58:55.634Z</time></trkpt><trkpt lat="40.9566567" lon="16.25113"><ele>485.33333333333337</ele><time>2026-04-12T07:58:56.634Z</time></trkpt><trkpt lat="40.9565883" lon="16.2512"><ele>484.5</ele><time>2026-04-12T07:58:57.638Z</time></trkpt><trkpt lat="40.9565167" lon="16.2512733"><ele>483.66666666666663</ele><time>2026-04-12T07:58:58.635Z</time></trkpt><trkpt lat="40.9564417" lon="16.2513383"><ele>482.8333333333333</ele><time>2026-04-12T07:58:59.634Z</time></trkpt><trkpt lat="40.9563683" lon="16.2513933"><ele>482.0</ele><time>2026-04-12T07:59:00.633Z</time></trkpt><trkpt lat="40.9563033" lon="16.25144"><ele>481.99999999999994</ele><time>2026-04-12T07:59:01.634Z</time></trkpt><trkpt lat="40.956245" lon="16.2514717"><ele>482.0</ele><time>2026-04-12T07:59:02.637Z</time></trkpt><trkpt lat="40.95614" lon="16.2514867"><ele>482.0</ele><time>2026-04-12T07:59:04.634Z</time></trkpt><trkpt lat="40.9560717" lon="16.251455"><ele>482.0</ele><time>2026-04-12T07:59:06.638Z</time></trkpt><trkpt lat="40.9560667" lon="16.251365"><ele>481.99999999999994</ele><time>2026-04-12T07:59:10.634Z</time></trkpt><trkpt lat="40.9561483" lon="16.251305"><ele>482.0</ele><time>2026-04-12T07:59:13.635Z</time></trkpt><trkpt lat="40.9561367" lon="16.25122"><ele>481.99999999999994</ele><time>2026-04-12T07:59:16.635Z</time></trkpt><trkpt lat="40.956075" lon="16.2512017"><ele>482.0</ele><time>2026-04-12T07:59:18.635Z</time></trkpt><trkpt lat="40.955995" lon="16.2512317"><ele>482.0</ele><time>2026-04-12T07:59:20.635Z</time></trkpt><trkpt lat="40.9559183" lon="16.2512867"><ele>482.0</ele><time>2026-04-12T07:59:22.634Z</time></trkpt><trkpt lat="40.9558217" lon="16.2513767"><ele>481.99999999999994</ele><time>2026-04-12T07:59:24.635Z</time></trkpt><trkpt lat="40.95577" lon="16.2514383"><ele>482.0</ele><time>2026-04-12T07:59:25.634Z</time></trkpt><trkpt lat="40.9557117" lon="16.251515"><ele>481.0</ele><time>2026-04-12T07:59:26.635Z</time></trkpt><trkpt lat="40.9556433" lon="16.2516"><ele>480.00000000000006</ele><time>2026-04-12T07:59:27.638Z</time></trkpt><trkpt lat="40.9555667" lon="16.2516917"><ele>479.00000000000006</ele><time>2026-04-12T07:59:28.634Z</time></trkpt><trkpt lat="40.9554833" lon="16.2517933"><ele>478.0</ele><time>2026-04-12T07:59:29.633Z</time></trkpt><trkpt lat="40.9553883" lon="16.25191"><ele>477.0</ele><time>2026-04-12T07:59:30.633Z</time></trkpt><trkpt lat="40.9552833" lon="16.2520317"><ele>477.0</ele><time>2026-04-12T07:59:31.637Z</time></trkpt><trkpt lat="40.9551767" lon="16.2521517"><ele>477.0</ele><time>2026-04-12T07:59:32.635Z</time></trkpt><trkpt lat="40.9550717" lon="16.2522717"><ele>477.0</ele><time>2026-04-12T07:59:33.633Z</time></trkpt><trkpt lat="40.9549667" lon="16.2523917"><ele>477.0</ele><time>2026-04-12T07:59:34.634Z</time></trkpt><trkpt lat="40.9548583" lon="16.252515"><ele>476.66666666666663</ele><time>2026-04-12T07:59:35.635Z</time></trkpt><trkpt lat="40.954745" lon="16.252645"><ele>476.3333333333333</ele><time>2026-04-12T07:59:36.638Z</time></trkpt><trkpt lat="40.9546267" lon="16.2527767"><ele>476.0</ele><time>2026-04-12T07:59:37.634Z</time></trkpt><trkpt lat="40.954505" lon="16.2529133"><ele>476.0</ele><time>2026-04-12T07:59:38.634Z</time></trkpt><trkpt lat="40.9543917" lon="16.253045"><ele>476.0</ele><time>2026-04-12T07:59:39.634Z</time></trkpt><trkpt lat="40.9542833" lon="16.2531733"><ele>476.0</ele><time>2026-04-12T07:59:40.634Z</time></trkpt><trkpt lat="40.9541733" lon="16.2533067"><ele>476.0</ele><time>2026-04-12T07:59:41.634Z</time></trkpt><trkpt lat="40.954065" lon="16.2534433"><ele>475.0</ele><time>2026-04-12T07:59:42.634Z</time></trkpt><trkpt lat="40.9539683" lon="16.253575"><ele>474.0</ele><time>2026-04-12T07:59:43.636Z</time></trkpt><trkpt lat="40.9538767" lon="16.2536967"><ele>473.0</ele><time>2026-04-12T07:59:44.637Z</time></trkpt><trkpt lat="40.9537867" lon="16.253815"><ele>472.0</ele><time>2026-04-12T07:59:45.633Z</time></trkpt><trkpt lat="40.9537" lon="16.25393"><ele>472.5</ele><time>2026-04-12T07:59:46.634Z</time></trkpt><trkpt lat="40.9536117" lon="16.254045"><ele>473.0</ele><time>2026-04-12T07:59:47.635Z</time></trkpt><trkpt lat="40.9535183" lon="16.254165"><ele>473.5</ele><time>2026-04-12T07:59:48.634Z</time></trkpt><trkpt lat="40.9534217" lon="16.254295"><ele>474.0</ele><time>2026-04-12T07:59:49.637Z</time></trkpt><trkpt lat="40.9533183" lon="16.2544283"><ele>473.0</ele><time>2026-04-12T07:59:50.637Z</time></trkpt><trkpt lat="40.9532133" lon="16.25457"><ele>472.0</ele><time>2026-04-12T07:59:51.637Z</time></trkpt><trkpt lat="40.9531067" lon="16.2547133"><ele>471.0</ele><time>2026-04-12T07:59:52.634Z</time></trkpt><trkpt lat="40.952995" lon="16.25486"><ele>471.0</ele><time>2026-04-12T07:59:53.639Z</time></trkpt><trkpt lat="40.952885" lon="16.255"><ele>471.0</ele><time>2026-04-12T07:59:54.635Z</time></trkpt><trkpt lat="40.9527833" lon="16.25513"><ele>471.0</ele><time>2026-04-12T07:59:55.635Z</time></trkpt><trkpt lat="40.9526933" lon="16.2552483"><ele>471.0</ele><time>2026-04-12T07:59:56.64Z</time></trkpt><trkpt lat="40.9526117" lon="16.2553517"><ele>471.0</ele><time>2026-04-12T07:59:57.634Z</time></trkpt><trkpt lat="40.95254" lon="16.2554467"><ele>471.0</ele><time>2026-04-12T07:59:58.637Z</time></trkpt><trkpt lat="40.9524667" lon="16.25554"><ele>471.0</ele><time>2026-04-12T07:59:59.637Z</time></trkpt><trkpt lat="40.9523917" lon="16.25564"><ele>471.0</ele><time>2026-04-12T08:00:00.634Z</time></trkpt><trkpt lat="40.9523133" lon="16.255745"><ele>471.0</ele><time>2026-04-12T08:00:01.636Z</time></trkpt><trkpt lat="40.9522217" lon="16.2558633"><ele>471.0</ele><time>2026-04-12T08:00:02.635Z</time></trkpt><trkpt lat="40.9521217" lon="16.2559967"><ele>471.0</ele><time>2026-04-12T08:00:03.634Z</time></trkpt><trkpt lat="40.9520183" lon="16.256135"><ele>471.0</ele><time>2026-04-12T08:00:04.635Z</time></trkpt><trkpt lat="40.9519067" lon="16.25627"><ele>471.0</ele><time>2026-04-12T08:00:05.638Z</time></trkpt><trkpt lat="40.95179" lon="16.2563983"><ele>470.0</ele><time>2026-04-12T08:00:06.633Z</time></trkpt><trkpt lat="40.9516567" lon="16.25653"><ele>469.0</ele><time>2026-04-12T08:00:07.634Z</time></trkpt><trkpt lat="40.95153" lon="16.25666"><ele>468.0</ele><time>2026-04-12T08:00:08.634Z</time></trkpt><trkpt lat="40.9514133" lon="16.2567783"><ele>468.0</ele><time>2026-04-12T08:00:09.634Z</time></trkpt><trkpt lat="40.951315" lon="16.2568883"><ele>468.0</ele><time>2026-04-12T08:00:10.634Z</time></trkpt><trkpt lat="40.95122" lon="16.2569933"><ele>468.0</ele><time>2026-04-12T08:00:11.633Z</time></trkpt><trkpt lat="40.9511283" lon="16.2570883"><ele>468.0</ele><time>2026-04-12T08:00:12.633Z</time></trkpt><trkpt lat="40.9510383" lon="16.25717"><ele>468.0</ele><time>2026-04-12T08:00:13.634Z</time></trkpt><trkpt lat="40.9509483" lon="16.2572367"><ele>468.0</ele><time>2026-04-12T08:00:14.635Z</time></trkpt><trkpt lat="40.9508667" lon="16.2572783"><ele>468.0</ele><time>2026-04-12T08:00:15.638Z</time></trkpt><trkpt lat="40.9507933" lon="16.2572983"><ele>468.0</ele><time>2026-04-12T08:00:16.633Z</time></trkpt><trkpt lat="40.950725" lon="16.2572917"><ele>468.0</ele><time>2026-04-12T08:00:17.634Z</time></trkpt><trkpt lat="40.95066" lon="16.2572583"><ele>468.0</ele><time>2026-04-12T08:00:18.635Z</time></trkpt><trkpt lat="40.9506017" lon="16.2572017"><ele>467.0</ele><time>2026-04-12T08:00:19.634Z</time></trkpt><trkpt lat="40.9505383" lon="16.2571333"><ele>465.99999999999994</ele><time>2026-04-12T08:00:20.638Z</time></trkpt><trkpt lat="40.9504683" lon="16.2570567"><ele>464.99999999999994</ele><time>2026-04-12T08:00:21.637Z</time></trkpt><trkpt lat="40.9503917" lon="16.25697"><ele>464.0</ele><time>2026-04-12T08:00:22.635Z</time></trkpt><trkpt lat="40.950305" lon="16.256875"><ele>463.0</ele><time>2026-04-12T08:00:23.637Z</time></trkpt><trkpt lat="40.9502117" lon="16.2567717"><ele>463.0</ele><time>2026-04-12T08:00:24.634Z</time></trkpt><trkpt lat="40.950115" lon="16.256665"><ele>463.0</ele><time>2026-04-12T08:00:25.635Z</time></trkpt><trkpt lat="40.9500167" lon="16.2565617"><ele>463.0</ele><time>2026-04-12T08:00:26.634Z</time></trkpt><trkpt lat="40.9499183" lon="16.2564567"><ele>463.0</ele><time>2026-04-12T08:00:27.634Z</time></trkpt><trkpt lat="40.949815" lon="16.256345"><ele>462.0</ele><time>2026-04-12T08:00:28.633Z</time></trkpt><trkpt lat="40.9497083" lon="16.2562283"><ele>461.0</ele><time>2026-04-12T08:00:29.635Z</time></trkpt><trkpt lat="40.949595" lon="16.2561067"><ele>460.0</ele><time>2026-04-12T08:00:30.634Z</time></trkpt><trkpt lat="40.9494783" lon="16.2559767"><ele>459.0</ele><time>2026-04-12T08:00:31.634Z</time></trkpt><trkpt lat="40.9493533" lon="16.2558433"><ele>459.0</ele><time>2026-04-12T08:00:32.635Z</time></trkpt><trkpt lat="40.9492217" lon="16.2556983"><ele>459.0</ele><time>2026-04-12T08:00:33.634Z</time></trkpt><trkpt lat="40.9490933" lon="16.2555533"><ele>459.0</ele><time>2026-04-12T08:00:34.637Z</time></trkpt><trkpt lat="40.9489667" lon="16.2554133"><ele>457.33333333333337</ele><time>2026-04-12T08:00:35.634Z</time></trkpt><trkpt lat="40.9488417" lon="16.2552733"><ele>455.6666666666667</ele><time>2026-04-12T08:00:36.634Z</time></trkpt><trkpt lat="40.948715" lon="16.2551367"><ele>454.0</ele><time>2026-04-12T08:00:37.635Z</time></trkpt><trkpt lat="40.9485933" lon="16.2550033"><ele>454.0</ele><time>2026-04-12T08:00:38.635Z</time></trkpt><trkpt lat="40.948475" lon="16.2548733"><ele>454.0</ele><time>2026-04-12T08:00:39.635Z</time></trkpt><trkpt lat="40.9483583" lon="16.2547417"><ele>454.0</ele><time>2026-04-12T08:00:40.634Z</time></trkpt><trkpt lat="40.9482417" lon="16.2546133"><ele>453.6666666666667</ele><time>2026-04-12T08:00:41.634Z</time></trkpt><trkpt lat="40.9481267" lon="16.254485"><ele>453.33333333333337</ele><time>2026-04-12T08:00:42.634Z</time></trkpt><trkpt lat="40.9480083" lon="16.254355"><ele>453.0</ele><time>2026-04-12T08:00:43.636Z</time></trkpt><trkpt lat="40.9478883" lon="16.2542233"><ele>453.0</ele><time>2026-04-12T08:00:44.635Z</time></trkpt><trkpt lat="40.947765" lon="16.2540883"><ele>453.0</ele><time>2026-04-12T08:00:45.634Z</time></trkpt><trkpt lat="40.9476383" lon="16.2539483"><ele>453.0</ele><time>2026-04-12T08:00:46.633Z</time></trkpt><trkpt lat="40.94751" lon="16.2538067"><ele>452.66666666666663</ele><time>2026-04-12T08:00:47.634Z</time></trkpt><trkpt lat="40.9473817" lon="16.2536633"><ele>452.3333333333333</ele><time>2026-04-12T08:00:48.634Z</time></trkpt><trkpt lat="40.947255" lon="16.2535267"><ele>452.0</ele><time>2026-04-12T08:00:49.636Z</time></trkpt><trkpt lat="40.9471367" lon="16.2533983"><ele>452.0</ele><time>2026-04-12T08:00:50.634Z</time></trkpt><trkpt lat="40.94702" lon="16.253275"><ele>452.0</ele><time>2026-04-12T08:00:51.633Z</time></trkpt><trkpt lat="40.946905" lon="16.2531517"><ele>452.0</ele><time>2026-04-12T08:00:52.633Z</time></trkpt><trkpt lat="40.946785" lon="16.253025"><ele>451.3333333333333</ele><time>2026-04-12T08:00:53.635Z</time></trkpt><trkpt lat="40.9466683" lon="16.252895"><ele>450.66666666666663</ele><time>2026-04-12T08:00:54.635Z</time></trkpt><trkpt lat="40.9465533" lon="16.2527667"><ele>450.0</ele><time>2026-04-12T08:00:55.635Z</time></trkpt><trkpt lat="40.9464367" lon="16.2526383"><ele>450.0</ele><time>2026-04-12T08:00:56.634Z</time></trkpt><trkpt lat="40.9463233" lon="16.25251"><ele>450.0</ele><time>2026-04-12T08:00:57.633Z</time></trkpt><trkpt lat="40.9462133" lon="16.2523883"><ele>450.0</ele><time>2026-04-12T08:00:58.634Z</time></trkpt><trkpt lat="40.9461067" lon="16.25227"><ele>450.0</ele><time>2026-04-12T08:00:59.634Z</time></trkpt><trkpt lat="40.9460067" lon="16.2521617"><ele>450.0</ele><time>2026-04-12T08:01:00.633Z</time></trkpt><trkpt lat="40.9459183" lon="16.2520667"><ele>450.0</ele><time>2026-04-12T08:01:01.634Z</time></trkpt><trkpt lat="40.94584" lon="16.25198"><ele>450.0</ele><time>2026-04-12T08:01:02.634Z</time></trkpt><trkpt lat="40.9457633" lon="16.2518967"><ele>450.0</ele><time>2026-04-12T08:01:03.633Z</time></trkpt><trkpt lat="40.9456883" lon="16.2518133"><ele>450.0</ele><time>2026-04-12T08:01:04.635Z</time></trkpt><trkpt lat="40.9456133" lon="16.2517283"><ele>450.0</ele><time>2026-04-12T08:01:05.635Z</time></trkpt><trkpt lat="40.94553" lon="16.2516333"><ele>450.0</ele><time>2026-04-12T08:01:06.636Z</time></trkpt><trkpt lat="40.9454417" lon="16.2515317"><ele>450.0</ele><time>2026-04-12T08:01:07.635Z</time></trkpt><trkpt lat="40.9453567" lon="16.2514317"><ele>450.0</ele><time>2026-04-12T08:01:08.634Z</time></trkpt><trkpt lat="40.9452667" lon="16.2513317"><ele>449.75</ele><time>2026-04-12T08:01:09.634Z</time></trkpt><trkpt lat="40.9451717" lon="16.2512283"><ele>449.5</ele><time>2026-04-12T08:01:10.635Z</time></trkpt><trkpt lat="40.9450733" lon="16.25112"><ele>449.25</ele><time>2026-04-12T08:01:11.637Z</time></trkpt><trkpt lat="40.9449767" lon="16.251015"><ele>449.0</ele><time>2026-04-12T08:01:12.634Z</time></trkpt><trkpt lat="40.9448817" lon="16.2509117"><ele>448.75</ele><time>2026-04-12T08:01:13.635Z</time></trkpt><trkpt lat="40.9447867" lon="16.25081"><ele>448.5</ele><time>2026-04-12T08:01:14.637Z</time></trkpt><trkpt lat="40.9446933" lon="16.2507033"><ele>448.25</ele><time>2026-04-12T08:01:15.633Z</time></trkpt><trkpt lat="40.9445967" lon="16.2505967"><ele>448.0</ele><time>2026-04-12T08:01:16.633Z</time></trkpt><trkpt lat="40.9445017" lon="16.25049"><ele>448.0</ele><time>2026-04-12T08:01:17.635Z</time></trkpt><trkpt lat="40.9444133" lon="16.2503933"><ele>447.99999999999994</ele><time>2026-04-12T08:01:18.634Z</time></trkpt><trkpt lat="40.9443283" lon="16.2503033"><ele>447.99999999999994</ele><time>2026-04-12T08:01:19.634Z</time></trkpt><trkpt lat="40.94425" lon="16.2502183"><ele>448.0</ele><time>2026-04-12T08:01:20.634Z</time></trkpt><trkpt lat="40.9441783" lon="16.2501417"><ele>448.0</ele><time>2026-04-12T08:01:21.634Z</time></trkpt><trkpt lat="40.9441117" lon="16.25007"><ele>447.83333333333337</ele><time>2026-04-12T08:01:22.633Z</time></trkpt><trkpt lat="40.94405" lon="16.2500017"><ele>447.6666666666667</ele><time>2026-04-12T08:01:23.64Z</time></trkpt><trkpt lat="40.9439917" lon="16.2499417"><ele>447.5</ele><time>2026-04-12T08:01:24.634Z</time></trkpt><trkpt lat="40.9439383" lon="16.2498867"><ele>447.33333333333337</ele><time>2026-04-12T08:01:25.636Z</time></trkpt><trkpt lat="40.9438867" lon="16.2498333"><ele>447.1666666666667</ele><time>2026-04-12T08:01:26.635Z</time></trkpt><trkpt lat="40.94379" lon="16.2497367"><ele>447.0</ele><time>2026-04-12T08:01:28.634Z</time></trkpt><trkpt lat="40.9437167" lon="16.24964"><ele>447.0</ele><time>2026-04-12T08:01:30.634Z</time></trkpt><trkpt lat="40.94366" lon="16.249575"><ele>447.0</ele><time>2026-04-12T08:01:33.637Z</time></trkpt><trkpt lat="40.94372" lon="16.2496717"><ele>447.0</ele><time>2026-04-12T08:01:45.634Z</time></trkpt><trkpt lat="40.9438083" lon="16.2497567"><ele>447.0</ele><time>2026-04-12T08:01:47.636Z</time></trkpt><trkpt lat="40.943865" lon="16.2498167"><ele>447.0</ele><time>2026-04-12T08:01:48.635Z</time></trkpt><trkpt lat="40.94392" lon="16.2498783"><ele>447.0</ele><time>2026-04-12T08:01:49.635Z</time></trkpt><trkpt lat="40.9439717" lon="16.2499333"><ele>447.0</ele><time>2026-04-12T08:01:50.636Z</time></trkpt><trkpt lat="40.944025" lon="16.24999"><ele>447.0</ele><time>2026-04-12T08:01:51.634Z</time></trkpt><trkpt lat="40.944085" lon="16.250055"><ele>447.0</ele><time>2026-04-12T08:01:52.635Z</time></trkpt><trkpt lat="40.944155" lon="16.250125"><ele>447.0</ele><time>2026-04-12T08:01:53.636Z</time></trkpt><trkpt lat="40.9442283" lon="16.2502"><ele>447.0</ele><time>2026-04-12T08:01:54.634Z</time></trkpt><trkpt lat="40.9443067" lon="16.2502817"><ele>447.0</ele><time>2026-04-12T08:01:55.634Z</time></trkpt><trkpt lat="40.94439" lon="16.2503717"><ele>447.25</ele><time>2026-04-12T08:01:56.637Z</time></trkpt><trkpt lat="40.9444783" lon="16.2504683"><ele>447.5</ele><time>2026-04-12T08:01:57.634Z</time></trkpt><trkpt lat="40.9445667" lon="16.250565"><ele>447.75</ele><time>2026-04-12T08:01:58.634Z</time></trkpt><trkpt lat="40.9446533" lon="16.2506617"><ele>448.0</ele><time>2026-04-12T08:01:59.635Z</time></trkpt><trkpt lat="40.9447467" lon="16.250765"><ele>448.0</ele><time>2026-04-12T08:02:00.634Z</time></trkpt><trkpt lat="40.9448467" lon="16.2508767"><ele>448.0</ele><time>2026-04-12T08:02:01.637Z</time></trkpt><trkpt lat="40.944945" lon="16.2509883"><ele>448.0</ele><time>2026-04-12T08:02:02.636Z</time></trkpt><trkpt lat="40.9450367" lon="16.25109"><ele>448.0</ele><time>2026-04-12T08:02:03.634Z</time></trkpt><trkpt lat="40.9451267" lon="16.25119"><ele>448.25</ele><time>2026-04-12T08:02:04.635Z</time></trkpt><trkpt lat="40.9452217" lon="16.2512933"><ele>448.5</ele><time>2026-04-12T08:02:05.634Z</time></trkpt><trkpt lat="40.94532" lon="16.2514033"><ele>448.75</ele><time>2026-04-12T08:02:06.637Z</time></trkpt><trkpt lat="40.9454233" lon="16.2515183"><ele>449.0</ele><time>2026-04-12T08:02:07.635Z</time></trkpt><trkpt lat="40.9455267" lon="16.2516317"><ele>448.99999999999994</ele><time>2026-04-12T08:02:08.636Z</time></trkpt><trkpt lat="40.9456183" lon="16.2517333"><ele>449.0</ele><time>2026-04-12T08:02:09.634Z</time></trkpt><trkpt lat="40.9456933" lon="16.2518183"><ele>449.0</ele><time>2026-04-12T08:02:10.634Z</time></trkpt><trkpt lat="40.9457517" lon="16.251885"><ele>449.0</ele><time>2026-04-12T08:02:11.636Z</time></trkpt><trkpt lat="40.945805" lon="16.251945"><ele>448.99999999999994</ele><time>2026-04-12T08:02:12.634Z</time></trkpt><trkpt lat="40.9458567" lon="16.2520017"><ele>449.0</ele><time>2026-04-12T08:02:13.636Z</time></trkpt><trkpt lat="40.94591" lon="16.25206"><ele>448.99999999999994</ele><time>2026-04-12T08:02:14.636Z</time></trkpt><trkpt lat="40.9459633" lon="16.2521183"><ele>449.0</ele><time>2026-04-12T08:02:15.635Z</time></trkpt><trkpt lat="40.94602" lon="16.25218"><ele>449.0</ele><time>2026-04-12T08:02:16.635Z</time></trkpt><trkpt lat="40.946085" lon="16.25225"><ele>449.0</ele><time>2026-04-12T08:02:17.635Z</time></trkpt><trkpt lat="40.946155" lon="16.2523283"><ele>448.99999999999994</ele><time>2026-04-12T08:02:18.634Z</time></trkpt><trkpt lat="40.9462317" lon="16.2524117"><ele>449.0</ele><time>2026-04-12T08:02:19.634Z</time></trkpt><trkpt lat="40.9463133" lon="16.2525017"><ele>449.25</ele><time>2026-04-12T08:02:20.635Z</time></trkpt><trkpt lat="40.9464033" lon="16.2526017"><ele>449.5</ele><time>2026-04-12T08:02:21.634Z</time></trkpt><trkpt lat="40.9465" lon="16.25271"><ele>449.75</ele><time>2026-04-12T08:02:22.634Z</time></trkpt><trkpt lat="40.946605" lon="16.2528233"><ele>450.0</ele><time>2026-04-12T08:02:23.634Z</time></trkpt><trkpt lat="40.946715" lon="16.252945"><ele>450.33333333333337</ele><time>2026-04-12T08:02:24.634Z</time></trkpt><trkpt lat="40.9468333" lon="16.2530733"><ele>450.6666666666667</ele><time>2026-04-12T08:02:25.637Z</time></trkpt><trkpt lat="40.946955" lon="16.2532033"><ele>451.0</ele><time>2026-04-12T08:02:26.637Z</time></trkpt><trkpt lat="40.94707" lon="16.2533283"><ele>451.25</ele><time>2026-04-12T08:02:27.635Z</time></trkpt><trkpt lat="40.9471767" lon="16.253445"><ele>451.5</ele><time>2026-04-12T08:02:28.635Z</time></trkpt><trkpt lat="40.9472783" lon="16.2535583"><ele>451.75</ele><time>2026-04-12T08:02:29.636Z</time></trkpt><trkpt lat="40.9473817" lon="16.2536717"><ele>452.0</ele><time>2026-04-12T08:02:30.636Z</time></trkpt><trkpt lat="40.947485" lon="16.253785"><ele>452.25</ele><time>2026-04-12T08:02:31.636Z</time></trkpt><trkpt lat="40.9475917" lon="16.2538967"><ele>452.5</ele><time>2026-04-12T08:02:32.636Z</time></trkpt><trkpt lat="40.9476983" lon="16.2540133"><ele>452.75</ele><time>2026-04-12T08:02:33.636Z</time></trkpt><trkpt lat="40.9478067" lon="16.2541317"><ele>453.0</ele><time>2026-04-12T08:02:34.635Z</time></trkpt><trkpt lat="40.94792" lon="16.2542533"><ele>453.0</ele><time>2026-04-12T08:02:35.636Z</time></trkpt><trkpt lat="40.9480333" lon="16.2543767"><ele>453.0</ele><time>2026-04-12T08:02:36.636Z</time></trkpt><trkpt lat="40.94814" lon="16.2544967"><ele>453.0</ele><time>2026-04-12T08:02:37.637Z</time></trkpt><trkpt lat="40.9482467" lon="16.2546133"><ele>453.0</ele><time>2026-04-12T08:02:38.637Z</time></trkpt><trkpt lat="40.94835" lon="16.25473"><ele>453.2</ele><time>2026-04-12T08:02:39.636Z</time></trkpt><trkpt lat="40.9484467" lon="16.2548383"><ele>453.4</ele><time>2026-04-12T08:02:40.638Z</time></trkpt><trkpt lat="40.948535" lon="16.2549333"><ele>453.59999999999997</ele><time>2026-04-12T08:02:41.637Z</time></trkpt><trkpt lat="40.948615" lon="16.2550217"><ele>453.79999999999995</ele><time>2026-04-12T08:02:42.635Z</time></trkpt><trkpt lat="40.9486883" lon="16.2550983"><ele>454.0</ele><time>2026-04-12T08:02:43.636Z</time></trkpt><trkpt lat="40.9487583" lon="16.2551717"><ele>454.0</ele><time>2026-04-12T08:02:44.637Z</time></trkpt><trkpt lat="40.9488267" lon="16.2552433"><ele>454.0</ele><time>2026-04-12T08:02:45.636Z</time></trkpt><trkpt lat="40.9488967" lon="16.25532"><ele>454.0</ele><time>2026-04-12T08:02:46.635Z</time></trkpt><trkpt lat="40.9489733" lon="16.2554083"><ele>454.0</ele><time>2026-04-12T08:02:47.634Z</time></trkpt><trkpt lat="40.9490583" lon="16.255505"><ele>454.0</ele><time>2026-04-12T08:02:48.634Z</time></trkpt><trkpt lat="40.9491517" lon="16.2556067"><ele>455.25</ele><time>2026-04-12T08:02:49.634Z</time></trkpt><trkpt lat="40.9492517" lon="16.25572"><ele>456.5</ele><time>2026-04-12T08:02:50.634Z</time></trkpt><trkpt lat="40.9493617" lon="16.2558433"><ele>457.75</ele><time>2026-04-12T08:02:51.635Z</time></trkpt><trkpt lat="40.94948" lon="16.2559767"><ele>459.0</ele><time>2026-04-12T08:02:52.634Z</time></trkpt><trkpt lat="40.949605" lon="16.256115"><ele>459.0</ele><time>2026-04-12T08:02:53.634Z</time></trkpt><trkpt lat="40.9497317" lon="16.2562517"><ele>459.0</ele><time>2026-04-12T08:02:54.634Z</time></trkpt><trkpt lat="40.9498483" lon="16.2563817"><ele>459.0</ele><time>2026-04-12T08:02:55.635Z</time></trkpt><trkpt lat="40.9499583" lon="16.2565017"><ele>460.0</ele><time>2026-04-12T08:02:56.638Z</time></trkpt><trkpt lat="40.950065" lon="16.2566167"><ele>461.0</ele><time>2026-04-12T08:02:57.634Z</time></trkpt><trkpt lat="40.9501683" lon="16.256725"><ele>462.0</ele><time>2026-04-12T08:02:58.634Z</time></trkpt><trkpt lat="40.950265" lon="16.2568317"><ele>463.0</ele><time>2026-04-12T08:02:59.635Z</time></trkpt><trkpt lat="40.9503633" lon="16.2569317"><ele>463.0</ele><time>2026-04-12T08:03:00.634Z</time></trkpt><trkpt lat="40.9504567" lon="16.2570267"><ele>462.99999999999994</ele><time>2026-04-12T08:03:01.634Z</time></trkpt><trkpt lat="40.9505367" lon="16.25711"><ele>462.99999999999994</ele><time>2026-04-12T08:03:02.635Z</time></trkpt><trkpt lat="40.9506" lon="16.2571733"><ele>463.0</ele><time>2026-04-12T08:03:03.634Z</time></trkpt><trkpt lat="40.9506567" lon="16.2572267"><ele>463.0</ele><time>2026-04-12T08:03:04.636Z</time></trkpt><trkpt lat="40.9507667" lon="16.25729"><ele>464.0</ele><time>2026-04-12T08:03:06.634Z</time></trkpt><trkpt lat="40.9508917" lon="16.2572733"><ele>464.99999999999994</ele><time>2026-04-12T08:03:08.634Z</time></trkpt><trkpt lat="40.9509717" lon="16.2572283"><ele>465.99999999999994</ele><time>2026-04-12T08:03:09.634Z</time></trkpt><trkpt lat="40.95106" lon="16.2571617"><ele>467.0</ele><time>2026-04-12T08:03:10.638Z</time></trkpt><trkpt lat="40.95116" lon="16.2570617"><ele>468.0</ele><time>2026-04-12T08:03:11.636Z</time></trkpt><trkpt lat="40.9512667" lon="16.2569467"><ele>468.0</ele><time>2026-04-12T08:03:12.634Z</time></trkpt><trkpt lat="40.9513817" lon="16.2568233"><ele>468.0</ele><time>2026-04-12T08:03:13.634Z</time></trkpt><trkpt lat="40.9515133" lon="16.2566917"><ele>468.0</ele><time>2026-04-12T08:03:14.636Z</time></trkpt><trkpt lat="40.9516517" lon="16.256555"><ele>469.0</ele><time>2026-04-12T08:03:15.634Z</time></trkpt><trkpt lat="40.9517833" lon="16.2564233"><ele>470.0</ele><time>2026-04-12T08:03:16.635Z</time></trkpt><trkpt lat="40.9519017" lon="16.2562967"><ele>471.0</ele><time>2026-04-12T08:03:17.634Z</time></trkpt><trkpt lat="40.95201" lon="16.2561717"><ele>471.0</ele><time>2026-04-12T08:03:18.633Z</time></trkpt><trkpt lat="40.9521117" lon="16.25605"><ele>471.0</ele><time>2026-04-12T08:03:19.635Z</time></trkpt><trkpt lat="40.9522083" lon="16.2559333"><ele>471.0</ele><time>2026-04-12T08:03:20.636Z</time></trkpt><trkpt lat="40.9522883" lon="16.2558267"><ele>471.0</ele><time>2026-04-12T08:03:21.635Z</time></trkpt><trkpt lat="40.9523583" lon="16.25573"><ele>471.00000000000006</ele><time>2026-04-12T08:03:22.634Z</time></trkpt><trkpt lat="40.9524183" lon="16.2556467"><ele>471.0</ele><time>2026-04-12T08:03:23.635Z</time></trkpt><trkpt lat="40.952465" lon="16.2555833"><ele>471.00000000000006</ele><time>2026-04-12T08:03:24.634Z</time></trkpt><trkpt lat="40.9525233" lon="16.25553"><ele>471.00000000000006</ele><time>2026-04-12T08:03:26.635Z</time></trkpt><trkpt lat="40.9525867" lon="16.255555"><ele>471.0</ele><time>2026-04-12T08:03:30.636Z</time></trkpt><trkpt lat="40.9526167" lon="16.255645"><ele>471.00000000000006</ele><time>2026-04-12T08:03:32.668Z</time></trkpt><trkpt lat="40.9526217" lon="16.25573"><ele>471.00000000000006</ele><time>2026-04-12T08:03:34.637Z</time></trkpt><trkpt lat="40.9525767" lon="16.25582"><ele>471.0</ele><time>2026-04-12T08:03:36.635Z</time></trkpt><trkpt lat="40.95251" lon="16.2559033"><ele>471.0</ele><time>2026-04-12T08:03:38.637Z</time></trkpt><trkpt lat="40.9524617" lon="16.2559617"><ele>471.0</ele><time>2026-04-12T08:03:39.635Z</time></trkpt><trkpt lat="40.9524083" lon="16.2560333"><ele>471.0</ele><time>2026-04-12T08:03:40.635Z</time></trkpt><trkpt lat="40.9523417" lon="16.2561167"><ele>471.0</ele><time>2026-04-12T08:03:41.634Z</time></trkpt><trkpt lat="40.9522633" lon="16.25621"><ele>471.0</ele><time>2026-04-12T08:03:42.637Z</time></trkpt><trkpt lat="40.9521783" lon="16.25631"><ele>471.0</ele><time>2026-04-12T08:03:43.634Z</time></trkpt><trkpt lat="40.9520933" lon="16.2564117"><ele>471.0</ele><time>2026-04-12T08:03:44.636Z</time></trkpt><trkpt lat="40.952005" lon="16.2565133"><ele>471.0</ele><time>2026-04-12T08:03:45.635Z</time></trkpt><trkpt lat="40.95191" lon="16.2566033"><ele>471.0</ele><time>2026-04-12T08:03:46.634Z</time></trkpt><trkpt lat="40.9518217" lon="16.2566867"><ele>471.75</ele><time>2026-04-12T08:03:47.634Z</time></trkpt><trkpt lat="40.9517383" lon="16.256775"><ele>472.5</ele><time>2026-04-12T08:03:48.737Z</time></trkpt><trkpt lat="40.9515717" lon="16.25694"><ele>473.25</ele><time>2026-04-12T08:03:50.636Z</time></trkpt><trkpt lat="40.951485" lon="16.2570283"><ele>474.0</ele><time>2026-04-12T08:03:51.633Z</time></trkpt><trkpt lat="40.951395" lon="16.257125"><ele>473.25</ele><time>2026-04-12T08:03:52.634Z</time></trkpt><trkpt lat="40.9513" lon="16.2572217"><ele>472.5</ele><time>2026-04-12T08:03:53.639Z</time></trkpt><trkpt lat="40.9512" lon="16.2573167"><ele>471.75</ele><time>2026-04-12T08:03:54.635Z</time></trkpt><trkpt lat="40.9510983" lon="16.2574167"><ele>471.0</ele><time>2026-04-12T08:03:55.634Z</time></trkpt><trkpt lat="40.9509967" lon="16.2575183"><ele>471.0</ele><time>2026-04-12T08:03:56.635Z</time></trkpt><trkpt lat="40.950895" lon="16.2576217"><ele>471.0</ele><time>2026-04-12T08:03:57.634Z</time></trkpt><trkpt lat="40.9507933" lon="16.2577267"><ele>471.0</ele><time>2026-04-12T08:03:58.634Z</time></trkpt><trkpt lat="40.95069" lon="16.2578283"><ele>471.0</ele><time>2026-04-12T08:03:59.635Z</time></trkpt><trkpt lat="40.95059" lon="16.257925"><ele>470.8</ele><time>2026-04-12T08:04:00.634Z</time></trkpt><trkpt lat="40.9504967" lon="16.2580167"><ele>470.6</ele><time>2026-04-12T08:04:01.636Z</time></trkpt><trkpt lat="40.95041" lon="16.2580983"><ele>470.4</ele><time>2026-04-12T08:04:02.639Z</time></trkpt><trkpt lat="40.9503317" lon="16.2581667"><ele>470.2</ele><time>2026-04-12T08:04:03.635Z</time></trkpt><trkpt lat="40.9502617" lon="16.2582317"><ele>470.0</ele><time>2026-04-12T08:04:04.636Z</time></trkpt><trkpt lat="40.9501967" lon="16.2582967"><ele>469.99999999999994</ele><time>2026-04-12T08:04:05.635Z</time></trkpt><trkpt lat="40.95013" lon="16.25836"><ele>470.0</ele><time>2026-04-12T08:04:06.634Z</time></trkpt><trkpt lat="40.9500633" lon="16.2584233"><ele>470.0</ele><time>2026-04-12T08:04:07.635Z</time></trkpt><trkpt lat="40.9499917" lon="16.2584917"><ele>470.0</ele><time>2026-04-12T08:04:08.637Z</time></trkpt><trkpt lat="40.9499183" lon="16.2585633"><ele>469.99999999999994</ele><time>2026-04-12T08:04:09.634Z</time></trkpt><trkpt lat="40.9498417" lon="16.2586483"><ele>470.0</ele><time>2026-04-12T08:04:10.635Z</time></trkpt><trkpt lat="40.949775" lon="16.2587233"><ele>469.8333333333333</ele><time>2026-04-12T08:04:11.634Z</time></trkpt><trkpt lat="40.94971" lon="16.25878"><ele>469.66666666666663</ele><time>2026-04-12T08:04:12.634Z</time></trkpt><trkpt lat="40.9496433" lon="16.258835"><ele>469.5</ele><time>2026-04-12T08:04:13.637Z</time></trkpt><trkpt lat="40.9495767" lon="16.25889"><ele>469.33333333333337</ele><time>2026-04-12T08:04:14.636Z</time></trkpt><trkpt lat="40.9495167" lon="16.2589367"><ele>469.1666666666667</ele><time>2026-04-12T08:04:15.634Z</time></trkpt><trkpt lat="40.9494217" lon="16.259015"><ele>469.0</ele><time>2026-04-12T08:04:17.634Z</time></trkpt><trkpt lat="40.949365" lon="16.2590667"><ele>469.0</ele><time>2026-04-12T08:04:20.634Z</time></trkpt><trkpt lat="40.949275" lon="16.2590967"><ele>469.0</ele><time>2026-04-12T08:04:32.635Z</time></trkpt><trkpt lat="40.9491833" lon="16.2590933"><ele>469.0</ele><time>2026-04-12T08:04:34.635Z</time></trkpt><trkpt lat="40.9490967" lon="16.2591433"><ele>469.0</ele><time>2026-04-12T08:04:36.633Z</time></trkpt><trkpt lat="40.9490117" lon="16.2592067"><ele>469.0</ele><time>2026-04-12T08:04:38.635Z</time></trkpt><trkpt lat="40.9489067" lon="16.2592983"><ele>468.83333333333337</ele><time>2026-04-12T08:04:40.634Z</time></trkpt><trkpt lat="40.9488433" lon="16.2593467"><ele>468.6666666666667</ele><time>2026-04-12T08:04:41.637Z</time></trkpt><trkpt lat="40.9487733" lon="16.2594"><ele>468.5</ele><time>2026-04-12T08:04:42.634Z</time></trkpt><trkpt lat="40.9486983" lon="16.2594567"><ele>468.33333333333337</ele><time>2026-04-12T08:04:43.635Z</time></trkpt><trkpt lat="40.9486167" lon="16.259515"><ele>468.1666666666667</ele><time>2026-04-12T08:04:44.634Z</time></trkpt><trkpt lat="40.9485317" lon="16.259575"><ele>468.0</ele><time>2026-04-12T08:04:45.635Z</time></trkpt><trkpt lat="40.948445" lon="16.2596433"><ele>468.2</ele><time>2026-04-12T08:04:46.639Z</time></trkpt><trkpt lat="40.9483583" lon="16.2597117"><ele>468.4</ele><time>2026-04-12T08:04:47.636Z</time></trkpt><trkpt lat="40.948275" lon="16.2597783"><ele>468.59999999999997</ele><time>2026-04-12T08:04:48.634Z</time></trkpt><trkpt lat="40.9481917" lon="16.2598467"><ele>468.79999999999995</ele><time>2026-04-12T08:04:49.635Z</time></trkpt><trkpt lat="40.9481083" lon="16.2599167"><ele>469.0</ele><time>2026-04-12T08:04:50.635Z</time></trkpt><trkpt lat="40.94802" lon="16.2599933"><ele>469.0</ele><time>2026-04-12T08:04:51.634Z</time></trkpt><trkpt lat="40.9479317" lon="16.260065"><ele>469.0</ele><time>2026-04-12T08:04:52.635Z</time></trkpt><trkpt lat="40.9478433" lon="16.260135"><ele>469.0</ele><time>2026-04-12T08:04:53.634Z</time></trkpt><trkpt lat="40.9477533" lon="16.2602067"><ele>469.0</ele><time>2026-04-12T08:04:54.636Z</time></trkpt><trkpt lat="40.9476617" lon="16.2602817"><ele>469.0</ele><time>2026-04-12T08:04:55.635Z</time></trkpt><trkpt lat="40.9475683" lon="16.2603633"><ele>469.25</ele><time>2026-04-12T08:04:56.641Z</time></trkpt><trkpt lat="40.9474717" lon="16.2604467"><ele>469.5</ele><time>2026-04-12T08:04:57.637Z</time></trkpt><trkpt lat="40.947375" lon="16.2605317"><ele>469.75</ele><time>2026-04-12T08:04:58.634Z</time></trkpt><trkpt lat="40.9472783" lon="16.2606167"><ele>470.0</ele><time>2026-04-12T08:04:59.634Z</time></trkpt><trkpt lat="40.94718" lon="16.2607017"><ele>470.75</ele><time>2026-04-12T08:05:00.634Z</time></trkpt><trkpt lat="40.94708" lon="16.2607867"><ele>471.5</ele><time>2026-04-12T08:05:01.635Z</time></trkpt><trkpt lat="40.9469817" lon="16.26088"><ele>472.25</ele><time>2026-04-12T08:05:02.639Z</time></trkpt><trkpt lat="40.9468867" lon="16.2609783"><ele>473.0</ele><time>2026-04-12T08:05:03.634Z</time></trkpt><trkpt lat="40.9468" lon="16.2610817"><ele>472.99999999999994</ele><time>2026-04-12T08:05:04.634Z</time></trkpt><trkpt lat="40.946725" lon="16.2611783"><ele>473.0</ele><time>2026-04-12T08:05:05.641Z</time></trkpt><trkpt lat="40.9466567" lon="16.2612583"><ele>473.0</ele><time>2026-04-12T08:05:06.634Z</time></trkpt><trkpt lat="40.9465917" lon="16.26132"><ele>473.0</ele><time>2026-04-12T08:05:07.637Z</time></trkpt><trkpt lat="40.9465217" lon="16.26136"><ele>472.99999999999994</ele><time>2026-04-12T08:05:08.634Z</time></trkpt><trkpt lat="40.94645" lon="16.2613733"><ele>473.0</ele><time>2026-04-12T08:05:09.634Z</time></trkpt><trkpt lat="40.946385" lon="16.26137"><ele>472.75</ele><time>2026-04-12T08:05:10.634Z</time></trkpt><trkpt lat="40.946275" lon="16.2613483"><ele>472.5</ele><time>2026-04-12T08:05:12.635Z</time></trkpt><trkpt lat="40.9461833" lon="16.2613133"><ele>472.25</ele><time>2026-04-12T08:05:14.634Z</time></trkpt><trkpt lat="40.94607" lon="16.2612633"><ele>472.0</ele><time>2026-04-12T08:05:16.634Z</time></trkpt><trkpt lat="40.9459417" lon="16.261255"><ele>472.00000000000006</ele><time>2026-04-12T08:05:18.634Z</time></trkpt><trkpt lat="40.945875" lon="16.2612733"><ele>472.0</ele><time>2026-04-12T08:05:19.635Z</time></trkpt><trkpt lat="40.9458017" lon="16.2613083"><ele>472.0</ele><time>2026-04-12T08:05:20.635Z</time></trkpt><trkpt lat="40.94572" lon="16.261345"><ele>472.0</ele><time>2026-04-12T08:05:21.635Z</time></trkpt><trkpt lat="40.9456317" lon="16.2613817"><ele>472.00000000000006</ele><time>2026-04-12T08:05:22.634Z</time></trkpt><trkpt lat="40.9455433" lon="16.2614217"><ele>472.0</ele><time>2026-04-12T08:05:23.635Z</time></trkpt><trkpt lat="40.9454633" lon="16.2614533"><ele>472.1666666666667</ele><time>2026-04-12T08:05:24.634Z</time></trkpt><trkpt lat="40.94539" lon="16.26148"><ele>472.33333333333337</ele><time>2026-04-12T08:05:25.634Z</time></trkpt><trkpt lat="40.945315" lon="16.2615033"><ele>472.5</ele><time>2026-04-12T08:05:26.634Z</time></trkpt><trkpt lat="40.9452333" lon="16.2615367"><ele>472.66666666666663</ele><time>2026-04-12T08:05:27.634Z</time></trkpt><trkpt lat="40.94515" lon="16.2615733"><ele>472.8333333333333</ele><time>2026-04-12T08:05:28.635Z</time></trkpt><trkpt lat="40.9450683" lon="16.2616117"><ele>473.0</ele><time>2026-04-12T08:05:29.635Z</time></trkpt><trkpt lat="40.9449817" lon="16.26165"><ele>472.59999999999997</ele><time>2026-04-12T08:05:30.634Z</time></trkpt><trkpt lat="40.9448933" lon="16.261685"><ele>472.19999999999993</ele><time>2026-04-12T08:05:31.635Z</time></trkpt><trkpt lat="40.944805" lon="16.2617217"><ele>471.8</ele><time>2026-04-12T08:05:32.637Z</time></trkpt><trkpt lat="40.944715" lon="16.2617567"><ele>471.4</ele><time>2026-04-12T08:05:33.633Z</time></trkpt><trkpt lat="40.9446217" lon="16.2617867"><ele>471.0</ele><time>2026-04-12T08:05:34.634Z</time></trkpt><trkpt lat="40.9445267" lon="16.261815"><ele>471.0</ele><time>2026-04-12T08:05:35.635Z</time></trkpt><trkpt lat="40.9444267" lon="16.2618433"><ele>471.0</ele><time>2026-04-12T08:05:36.639Z</time></trkpt><trkpt lat="40.9443267" lon="16.26187"><ele>471.0</ele><time>2026-04-12T08:05:37.634Z</time></trkpt><trkpt lat="40.9442267" lon="16.261895"><ele>471.0</ele><time>2026-04-12T08:05:38.634Z</time></trkpt><trkpt lat="40.9441317" lon="16.261915"><ele>471.0</ele><time>2026-04-12T08:05:39.634Z</time></trkpt><trkpt lat="40.94404" lon="16.2619283"><ele>470.8</ele><time>2026-04-12T08:05:40.634Z</time></trkpt><trkpt lat="40.9439517" lon="16.2619367"><ele>470.6</ele><time>2026-04-12T08:05:41.637Z</time></trkpt><trkpt lat="40.94386" lon="16.2619483"><ele>470.4</ele><time>2026-04-12T08:05:42.634Z</time></trkpt><trkpt lat="40.9437633" lon="16.26196"><ele>470.2</ele><time>2026-04-12T08:05:43.636Z</time></trkpt><trkpt lat="40.9436683" lon="16.2619817"><ele>470.0</ele><time>2026-04-12T08:05:44.635Z</time></trkpt><trkpt lat="40.9435717" lon="16.2620133"><ele>470.0</ele><time>2026-04-12T08:05:45.636Z</time></trkpt><trkpt lat="40.9434767" lon="16.262055"><ele>470.0</ele><time>2026-04-12T08:05:46.634Z</time></trkpt><trkpt lat="40.94338" lon="16.2621083"><ele>470.0</ele><time>2026-04-12T08:05:47.634Z</time></trkpt><trkpt lat="40.9432833" lon="16.2621667"><ele>470.0</ele><time>2026-04-12T08:05:48.634Z</time></trkpt><trkpt lat="40.94319" lon="16.2622183"><ele>470.0</ele><time>2026-04-12T08:05:49.634Z</time></trkpt><trkpt lat="40.9431083" lon="16.2622683"><ele>469.66666666666663</ele><time>2026-04-12T08:05:50.635Z</time></trkpt><trkpt lat="40.943035" lon="16.2623233"><ele>469.3333333333333</ele><time>2026-04-12T08:05:51.633Z</time></trkpt><trkpt lat="40.94296" lon="16.262385"><ele>469.0</ele><time>2026-04-12T08:05:52.729Z</time></trkpt><trkpt lat="40.9428817" lon="16.2624483"><ele>468.66666666666663</ele><time>2026-04-12T08:05:53.635Z</time></trkpt><trkpt lat="40.9428017" lon="16.2625017"><ele>468.3333333333333</ele><time>2026-04-12T08:05:54.64Z</time></trkpt><trkpt lat="40.942725" lon="16.2625467"><ele>468.0</ele><time>2026-04-12T08:05:55.634Z</time></trkpt><trkpt lat="40.9426517" lon="16.2625817"><ele>468.0</ele><time>2026-04-12T08:05:56.634Z</time></trkpt><trkpt lat="40.9425867" lon="16.2626117"><ele>468.0</ele><time>2026-04-12T08:05:57.634Z</time></trkpt><trkpt lat="40.9424683" lon="16.2626617"><ele>468.0</ele><time>2026-04-12T08:05:59.635Z</time></trkpt><trkpt lat="40.9424067" lon="16.26269"><ele>468.0</ele><time>2026-04-12T08:06:00.634Z</time></trkpt><trkpt lat="40.9423433" lon="16.2627217"><ele>468.0</ele><time>2026-04-12T08:06:01.634Z</time></trkpt><trkpt lat="40.942275" lon="16.2627617"><ele>468.0</ele><time>2026-04-12T08:06:02.635Z</time></trkpt><trkpt lat="40.9422033" lon="16.26281"><ele>468.0</ele><time>2026-04-12T08:06:03.633Z</time></trkpt><trkpt lat="40.9421283" lon="16.262865"><ele>467.99999999999994</ele><time>2026-04-12T08:06:04.634Z</time></trkpt><trkpt lat="40.9420467" lon="16.262915"><ele>467.99999999999994</ele><time>2026-04-12T08:06:05.635Z</time></trkpt><trkpt lat="40.9419617" lon="16.2629633"><ele>468.0</ele><time>2026-04-12T08:06:06.634Z</time></trkpt><trkpt lat="40.9418767" lon="16.2630167"><ele>468.0</ele><time>2026-04-12T08:06:07.634Z</time></trkpt><trkpt lat="40.9417933" lon="16.2630767"><ele>467.8333333333333</ele><time>2026-04-12T08:06:08.634Z</time></trkpt><trkpt lat="40.9417117" lon="16.2631283"><ele>467.66666666666663</ele><time>2026-04-12T08:06:09.633Z</time></trkpt><trkpt lat="40.9416367" lon="16.2631767"><ele>467.5</ele><time>2026-04-12T08:06:10.636Z</time></trkpt><trkpt lat="40.941565" lon="16.2632283"><ele>467.3333333333333</ele><time>2026-04-12T08:06:11.635Z</time></trkpt><trkpt lat="40.9414867" lon="16.2632833"><ele>467.16666666666663</ele><time>2026-04-12T08:06:12.633Z</time></trkpt><trkpt lat="40.941405" lon="16.2633367"><ele>467.0</ele><time>2026-04-12T08:06:13.634Z</time></trkpt><trkpt lat="40.94133" lon="16.2633883"><ele>466.99999999999994</ele><time>2026-04-12T08:06:14.635Z</time></trkpt><trkpt lat="40.941255" lon="16.26344"><ele>467.0</ele><time>2026-04-12T08:06:15.634Z</time></trkpt><trkpt lat="40.941175" lon="16.2634883"><ele>467.0</ele><time>2026-04-12T08:06:16.634Z</time></trkpt><trkpt lat="40.9410917" lon="16.2635383"><ele>467.0</ele><time>2026-04-12T08:06:17.634Z</time></trkpt><trkpt lat="40.9410117" lon="16.2635867"><ele>466.99999999999994</ele><time>2026-04-12T08:06:18.633Z</time></trkpt><trkpt lat="40.9409383" lon="16.2636333"><ele>467.0</ele><time>2026-04-12T08:06:19.634Z</time></trkpt><trkpt lat="40.9408683" lon="16.2636833"><ele>467.0</ele><time>2026-04-12T08:06:20.635Z</time></trkpt><trkpt lat="40.9407917" lon="16.2637383"><ele>467.00000000000006</ele><time>2026-04-12T08:06:21.634Z</time></trkpt><trkpt lat="40.9407083" lon="16.2637867"><ele>467.00000000000006</ele><time>2026-04-12T08:06:22.634Z</time></trkpt><trkpt lat="40.9406233" lon="16.2638333"><ele>467.0</ele><time>2026-04-12T08:06:23.634Z</time></trkpt><trkpt lat="40.9405417" lon="16.2638817"><ele>467.0</ele><time>2026-04-12T08:06:24.634Z</time></trkpt><trkpt lat="40.9404583" lon="16.26393"><ele>467.20000000000005</ele><time>2026-04-12T08:06:25.633Z</time></trkpt><trkpt lat="40.9403683" lon="16.26398"><ele>467.40000000000003</ele><time>2026-04-12T08:06:26.634Z</time></trkpt><trkpt lat="40.9402767" lon="16.26403"><ele>467.59999999999997</ele><time>2026-04-12T08:06:27.634Z</time></trkpt><trkpt lat="40.9401867" lon="16.2640767"><ele>467.79999999999995</ele><time>2026-04-12T08:06:28.634Z</time></trkpt><trkpt lat="40.94009" lon="16.2641267"><ele>468.0</ele><time>2026-04-12T08:06:29.636Z</time></trkpt><trkpt lat="40.9399833" lon="16.2641783"><ele>467.0</ele><time>2026-04-12T08:06:30.635Z</time></trkpt><trkpt lat="40.9398733" lon="16.26423"><ele>466.0</ele><time>2026-04-12T08:06:31.634Z</time></trkpt><trkpt lat="40.9397667" lon="16.2642817"><ele>465.0</ele><time>2026-04-12T08:06:32.634Z</time></trkpt><trkpt lat="40.93966" lon="16.2643333"><ele>464.0</ele><time>2026-04-12T08:06:33.637Z</time></trkpt><trkpt lat="40.9395517" lon="16.2643833"><ele>463.99999999999994</ele><time>2026-04-12T08:06:34.639Z</time></trkpt><trkpt lat="40.9394533" lon="16.2644317"><ele>464.0</ele><time>2026-04-12T08:06:35.635Z</time></trkpt><trkpt lat="40.9393683" lon="16.264475"><ele>464.0</ele><time>2026-04-12T08:06:36.634Z</time></trkpt><trkpt lat="40.9392867" lon="16.2645167"><ele>464.0</ele><time>2026-04-12T08:06:37.634Z</time></trkpt><trkpt lat="40.9392117" lon="16.2645533"><ele>463.99999999999994</ele><time>2026-04-12T08:06:38.634Z</time></trkpt><trkpt lat="40.9391417" lon="16.2645867"><ele>464.0</ele><time>2026-04-12T08:06:39.635Z</time></trkpt><trkpt lat="40.9390733" lon="16.2646233"><ele>463.79999999999995</ele><time>2026-04-12T08:06:40.635Z</time></trkpt><trkpt lat="40.9389983" lon="16.2646583"><ele>463.59999999999997</ele><time>2026-04-12T08:06:41.634Z</time></trkpt><trkpt lat="40.9389117" lon="16.2646917"><ele>463.4</ele><time>2026-04-12T08:06:42.634Z</time></trkpt><trkpt lat="40.93882" lon="16.2647283"><ele>463.2</ele><time>2026-04-12T08:06:43.634Z</time></trkpt><trkpt lat="40.9387167" lon="16.2647683"><ele>463.0</ele><time>2026-04-12T08:06:44.634Z</time></trkpt><trkpt lat="40.9386017" lon="16.2648133"><ele>463.25</ele><time>2026-04-12T08:06:45.634Z</time></trkpt><trkpt lat="40.93848" lon="16.264865"><ele>463.5</ele><time>2026-04-12T08:06:46.634Z</time></trkpt><trkpt lat="40.9383617" lon="16.26492"><ele>463.75</ele><time>2026-04-12T08:06:47.633Z</time></trkpt><trkpt lat="40.938255" lon="16.2649667"><ele>464.0</ele><time>2026-04-12T08:06:48.633Z</time></trkpt><trkpt lat="40.9381617" lon="16.2650017"><ele>464.0</ele><time>2026-04-12T08:06:49.634Z</time></trkpt><trkpt lat="40.9380717" lon="16.2650267"><ele>464.0</ele><time>2026-04-12T08:06:50.635Z</time></trkpt><trkpt lat="40.9379783" lon="16.2650467"><ele>464.0</ele><time>2026-04-12T08:06:51.636Z</time></trkpt><trkpt lat="40.9378717" lon="16.265065"><ele>464.0</ele><time>2026-04-12T08:06:52.633Z</time></trkpt><trkpt lat="40.9377567" lon="16.2650817"><ele>464.0</ele><time>2026-04-12T08:06:53.633Z</time></trkpt><trkpt lat="40.9376333" lon="16.2650917"><ele>463.25</ele><time>2026-04-12T08:06:54.636Z</time></trkpt><trkpt lat="40.9374983" lon="16.2650983"><ele>462.5</ele><time>2026-04-12T08:06:55.634Z</time></trkpt><trkpt lat="40.9373533" lon="16.265105"><ele>461.75</ele><time>2026-04-12T08:06:56.634Z</time></trkpt><trkpt lat="40.9372067" lon="16.2651117"><ele>461.0</ele><time>2026-04-12T08:06:57.635Z</time></trkpt><trkpt lat="40.9370733" lon="16.2651367"><ele>461.0</ele><time>2026-04-12T08:06:58.635Z</time></trkpt><trkpt lat="40.9369467" lon="16.2651633"><ele>461.0</ele><time>2026-04-12T08:06:59.634Z</time></trkpt><trkpt lat="40.9368117" lon="16.26519"><ele>461.0</ele><time>2026-04-12T08:07:00.633Z</time></trkpt><trkpt lat="40.9366633" lon="16.2652183"><ele>461.0</ele><time>2026-04-12T08:07:01.635Z</time></trkpt><trkpt lat="40.93651" lon="16.2652317"><ele>460.4</ele><time>2026-04-12T08:07:02.635Z</time></trkpt><trkpt lat="40.9363767" lon="16.2652367"><ele>459.8</ele><time>2026-04-12T08:07:03.635Z</time></trkpt><trkpt lat="40.9362733" lon="16.2652367"><ele>459.19999999999993</ele><time>2026-04-12T08:07:04.634Z</time></trkpt><trkpt lat="40.936195" lon="16.2652417"><ele>458.59999999999997</ele><time>2026-04-12T08:07:05.634Z</time></trkpt><trkpt lat="40.9360817" lon="16.265275"><ele>458.0</ele><time>2026-04-12T08:07:07.635Z</time></trkpt><trkpt lat="40.9359683" lon="16.26538"><ele>457.99999999999994</ele><time>2026-04-12T08:07:09.633Z</time></trkpt><trkpt lat="40.9359133" lon="16.2654683"><ele>458.0</ele><time>2026-04-12T08:07:10.634Z</time></trkpt><trkpt lat="40.935865" lon="16.2655633"><ele>458.0</ele><time>2026-04-12T08:07:11.634Z</time></trkpt><trkpt lat="40.935825" lon="16.2656567"><ele>458.0</ele><time>2026-04-12T08:07:12.635Z</time></trkpt><trkpt lat="40.9357883" lon="16.265745"><ele>457.99999999999994</ele><time>2026-04-12T08:07:13.64Z</time></trkpt><trkpt lat="40.9357533" lon="16.2658267"><ele>458.0</ele><time>2026-04-12T08:07:14.637Z</time></trkpt><trkpt lat="40.9357217" lon="16.2659017"><ele>457.8333333333333</ele><time>2026-04-12T08:07:15.634Z</time></trkpt><trkpt lat="40.9356633" lon="16.2660567"><ele>457.66666666666663</ele><time>2026-04-12T08:07:17.635Z</time></trkpt><trkpt lat="40.9356317" lon="16.266145"><ele>457.5</ele><time>2026-04-12T08:07:18.634Z</time></trkpt><trkpt lat="40.9356" lon="16.2662317"><ele>457.33333333333337</ele><time>2026-04-12T08:07:19.633Z</time></trkpt><trkpt lat="40.93557" lon="16.2663167"><ele>457.1666666666667</ele><time>2026-04-12T08:07:20.637Z</time></trkpt><trkpt lat="40.9355417" lon="16.2663967"><ele>457.0</ele><time>2026-04-12T08:07:21.633Z</time></trkpt><trkpt lat="40.9355117" lon="16.26648"><ele>457.00000000000006</ele><time>2026-04-12T08:07:22.634Z</time></trkpt><trkpt lat="40.9354767" lon="16.26657"><ele>457.0</ele><time>2026-04-12T08:07:23.635Z</time></trkpt><trkpt lat="40.9354417" lon="16.266665"><ele>457.0</ele><time>2026-04-12T08:07:24.634Z</time></trkpt><trkpt lat="40.935405" lon="16.26676"><ele>457.0</ele><time>2026-04-12T08:07:25.633Z</time></trkpt><trkpt lat="40.93537" lon="16.26685"><ele>457.00000000000006</ele><time>2026-04-12T08:07:26.637Z</time></trkpt><trkpt lat="40.9353383" lon="16.2669283"><ele>457.0</ele><time>2026-04-12T08:07:27.635Z</time></trkpt><trkpt lat="40.9352867" lon="16.2670483"><ele>457.00000000000006</ele><time>2026-04-12T08:07:29.635Z</time></trkpt><trkpt lat="40.9352533" lon="16.2671267"><ele>457.0</ele><time>2026-04-12T08:07:31.633Z</time></trkpt><trkpt lat="40.9352333" lon="16.2672067"><ele>457.0</ele><time>2026-04-12T08:08:52.644Z</time></trkpt><trkpt lat="40.935195" lon="16.2673333"><ele>457.0</ele><time>2026-04-12T08:08:54.648Z</time></trkpt><trkpt lat="40.9351667" lon="16.2674117"><ele>457.00000000000006</ele><time>2026-04-12T08:08:55.646Z</time></trkpt><trkpt lat="40.9351217" lon="16.26752"><ele>457.0</ele><time>2026-04-12T08:08:56.648Z</time></trkpt><trkpt lat="40.9350783" lon="16.2676333"><ele>456.6666666666667</ele><time>2026-04-12T08:08:57.644Z</time></trkpt><trkpt lat="40.93504" lon="16.2677233"><ele>456.33333333333337</ele><time>2026-04-12T08:08:58.646Z</time></trkpt><trkpt lat="40.9349983" lon="16.267815"><ele>456.0</ele><time>2026-04-12T08:08:59.643Z</time></trkpt><trkpt lat="40.934965" lon="16.2679033"><ele>455.66666666666663</ele><time>2026-04-12T08:09:00.643Z</time></trkpt><trkpt lat="40.934935" lon="16.268"><ele>455.3333333333333</ele><time>2026-04-12T08:09:01.647Z</time></trkpt><trkpt lat="40.9349067" lon="16.2680933"><ele>455.0</ele><time>2026-04-12T08:09:02.649Z</time></trkpt><trkpt lat="40.9348783" lon="16.26819"><ele>454.99999999999994</ele><time>2026-04-12T08:09:03.645Z</time></trkpt><trkpt lat="40.9348467" lon="16.2682767"><ele>455.0</ele><time>2026-04-12T08:09:04.646Z</time></trkpt><trkpt lat="40.9348133" lon="16.26836"><ele>455.0</ele><time>2026-04-12T08:09:05.644Z</time></trkpt><trkpt lat="40.9347817" lon="16.2684383"><ele>455.0</ele><time>2026-04-12T08:09:06.647Z</time></trkpt><trkpt lat="40.9347267" lon="16.268555"><ele>454.99999999999994</ele><time>2026-04-12T08:09:08.65Z</time></trkpt><trkpt lat="40.934645" lon="16.268595"><ele>455.0</ele><time>2026-04-12T08:09:11.643Z</time></trkpt><trkpt lat="40.93454" lon="16.26852"><ele>455.0</ele><time>2026-04-12T08:09:13.647Z</time></trkpt><trkpt lat="40.9344733" lon="16.26846"><ele>455.0</ele><time>2026-04-12T08:09:14.648Z</time></trkpt><trkpt lat="40.9343917" lon="16.2683883"><ele>455.0</ele><time>2026-04-12T08:09:15.647Z</time></trkpt><trkpt lat="40.9342867" lon="16.2683083"><ele>455.0</ele><time>2026-04-12T08:09:16.646Z</time></trkpt><trkpt lat="40.9341783" lon="16.268225"><ele>455.0</ele><time>2026-04-12T08:09:17.646Z</time></trkpt><trkpt lat="40.9340817" lon="16.2681567"><ele>455.0</ele><time>2026-04-12T08:09:18.645Z</time></trkpt><trkpt lat="40.934005" lon="16.2681"><ele>455.0</ele><time>2026-04-12T08:09:19.643Z</time></trkpt><trkpt lat="40.93395" lon="16.2680567"><ele>455.0</ele><time>2026-04-12T08:09:20.647Z</time></trkpt><trkpt lat="40.93389" lon="16.26794"><ele>455.0</ele><time>2026-04-12T08:09:22.643Z</time></trkpt><trkpt lat="40.933905" lon="16.2677783"><ele>455.0</ele><time>2026-04-12T08:09:24.647Z</time></trkpt><trkpt lat="40.93394" lon="16.267675"><ele>455.0</ele><time>2026-04-12T08:09:25.646Z</time></trkpt><trkpt lat="40.933995" lon="16.2675567"><ele>455.0</ele><time>2026-04-12T08:09:26.648Z</time></trkpt><trkpt lat="40.9340567" lon="16.267435"><ele>455.0</ele><time>2026-04-12T08:09:27.646Z</time></trkpt><trkpt lat="40.934115" lon="16.2673317"><ele>455.0</ele><time>2026-04-12T08:09:28.647Z</time></trkpt><trkpt lat="40.9341733" lon="16.2672667"><ele>455.0</ele><time>2026-04-12T08:09:29.645Z</time></trkpt><trkpt lat="40.9342367" lon="16.2672333"><ele>455.16666666666663</ele><time>2026-04-12T08:09:30.643Z</time></trkpt><trkpt lat="40.934305" lon="16.2672"><ele>455.3333333333333</ele><time>2026-04-12T08:09:31.646Z</time></trkpt><trkpt lat="40.9343733" lon="16.2671483"><ele>455.5</ele><time>2026-04-12T08:09:32.647Z</time></trkpt><trkpt lat="40.93443" lon="16.2670933"><ele>455.66666666666663</ele><time>2026-04-12T08:09:33.647Z</time></trkpt><trkpt lat="40.934485" lon="16.2670267"><ele>455.8333333333333</ele><time>2026-04-12T08:09:34.644Z</time></trkpt><trkpt lat="40.9345567" lon="16.2669183"><ele>456.0</ele><time>2026-04-12T08:09:36.644Z</time></trkpt><trkpt lat="40.934615" lon="16.2668783"><ele>456.0</ele><time>2026-04-12T08:09:38.647Z</time></trkpt><trkpt lat="40.93456" lon="16.2669417"><ele>456.0</ele><time>2026-04-12T08:10:27.647Z</time></trkpt><trkpt lat="40.9345483" lon="16.267025"><ele>456.0</ele><time>2026-04-12T08:10:36.648Z</time></trkpt><trkpt lat="40.9344833" lon="16.26705"><ele>456.0</ele><time>2026-04-12T08:10:48.648Z</time></trkpt><trkpt lat="40.9345717" lon="16.2671733"><ele>456.0</ele><time>2026-04-12T08:11:26.637Z</time></trkpt><trkpt lat="40.9345433" lon="16.2670967"><ele>456.0</ele><time>2026-04-12T08:13:05.643Z</time></trkpt><trkpt lat="40.9344767" lon="16.2671283"><ele>456.0</ele><time>2026-04-12T08:14:24.635Z</time></trkpt><trkpt lat="40.9344967" lon="16.2670133"><ele>456.0</ele><time>2026-04-12T08:14:39.644Z</time></trkpt><trkpt lat="40.9345174" lon="16.2669313"><ele>456.0</ele><time>2026-04-12T08:14:47.754Z</time></trkpt><trkpt lat="40.9345673" lon="16.2668726"><ele>456.0</ele><time>2026-04-12T08:14:59.657Z</time></trkpt><trkpt lat="40.934585" lon="16.2667483"><ele>456.0</ele><time>2026-04-12T08:22:50.637Z</time></trkpt><trkpt lat="40.93459" lon="16.2666283"><ele>456.0</ele><time>2026-04-12T08:22:53.634Z</time></trkpt><trkpt lat="40.9346317" lon="16.2664517"><ele>456.0</ele><time>2026-04-12T08:22:55.635Z</time></trkpt><trkpt lat="40.934665" lon="16.2663217"><ele>456.0</ele><time>2026-04-12T08:22:56.634Z</time></trkpt><trkpt lat="40.9347" lon="16.266195"><ele>456.0</ele><time>2026-04-12T08:22:57.634Z</time></trkpt><trkpt lat="40.9347433" lon="16.26607"><ele>456.0</ele><time>2026-04-12T08:22:58.635Z</time></trkpt><trkpt lat="40.9347917" lon="16.2659517"><ele>456.0</ele><time>2026-04-12T08:22:59.634Z</time></trkpt><trkpt lat="40.93485" lon="16.2658217"><ele>456.0</ele><time>2026-04-12T08:23:00.635Z</time></trkpt><trkpt lat="40.9349183" lon="16.265675"><ele>456.0</ele><time>2026-04-12T08:23:01.634Z</time></trkpt><trkpt lat="40.934995" lon="16.2655117"><ele>456.0</ele><time>2026-04-12T08:23:02.634Z</time></trkpt><trkpt lat="40.9350783" lon="16.265335"><ele>456.0</ele><time>2026-04-12T08:23:03.635Z</time></trkpt><trkpt lat="40.93517" lon="16.2651433"><ele>456.0</ele><time>2026-04-12T08:23:04.634Z</time></trkpt><trkpt lat="40.9352717" lon="16.26493"><ele>456.0</ele><time>2026-04-12T08:23:05.634Z</time></trkpt><trkpt lat="40.9353867" lon="16.2647017"><ele>456.0</ele><time>2026-04-12T08:23:06.634Z</time></trkpt><trkpt lat="40.9355067" lon="16.2644633"><ele>456.0</ele><time>2026-04-12T08:23:07.634Z</time></trkpt><trkpt lat="40.9356317" lon="16.2642067"><ele>456.0</ele><time>2026-04-12T08:23:08.634Z</time></trkpt><trkpt lat="40.9357617" lon="16.2639333"><ele>456.5</ele><time>2026-04-12T08:23:09.635Z</time></trkpt><trkpt lat="40.9358983" lon="16.2636483"><ele>457.0</ele><time>2026-04-12T08:23:10.635Z</time></trkpt><trkpt lat="40.93604" lon="16.2633583"><ele>456.5</ele><time>2026-04-12T08:23:11.637Z</time></trkpt><trkpt lat="40.936185" lon="16.2630567"><ele>456.0</ele><time>2026-04-12T08:23:12.633Z</time></trkpt><trkpt lat="40.9363333" lon="16.262745"><ele>456.0</ele><time>2026-04-12T08:23:13.633Z</time></trkpt><trkpt lat="40.936485" lon="16.2624233"><ele>456.0</ele><time>2026-04-12T08:23:14.634Z</time></trkpt><trkpt lat="40.936645" lon="16.2620983"><ele>456.5</ele><time>2026-04-12T08:23:15.635Z</time></trkpt><trkpt lat="40.9368083" lon="16.26177"><ele>457.0</ele><time>2026-04-12T08:23:16.636Z</time></trkpt><trkpt lat="40.9369767" lon="16.261435"><ele>457.0</ele><time>2026-04-12T08:23:17.638Z</time></trkpt><trkpt lat="40.937145" lon="16.2610917"><ele>457.0</ele><time>2026-04-12T08:23:18.635Z</time></trkpt><trkpt lat="40.937315" lon="16.26074"><ele>457.0</ele><time>2026-04-12T08:23:19.635Z</time></trkpt><trkpt lat="40.9374867" lon="16.2603883"><ele>457.0</ele><time>2026-04-12T08:23:20.634Z</time></trkpt><trkpt lat="40.9376617" lon="16.2600333"><ele>456.5</ele><time>2026-04-12T08:23:21.634Z</time></trkpt><trkpt lat="40.9378367" lon="16.259685"><ele>456.0</ele><time>2026-04-12T08:23:22.635Z</time></trkpt><trkpt lat="40.938" lon="16.2593617"><ele>456.0</ele><time>2026-04-12T08:23:23.634Z</time></trkpt><trkpt lat="40.9381533" lon="16.259055"><ele>456.0</ele><time>2026-04-12T08:23:24.634Z</time></trkpt><trkpt lat="40.938295" lon="16.2587583"><ele>456.0</ele><time>2026-04-12T08:23:25.634Z</time></trkpt><trkpt lat="40.9384367" lon="16.2584717"><ele>456.0</ele><time>2026-04-12T08:23:26.634Z</time></trkpt><trkpt lat="40.9385783" lon="16.2581867"><ele>455.5</ele><time>2026-04-12T08:23:27.729Z</time></trkpt><trkpt lat="40.93872" lon="16.257905"><ele>455.0</ele><time>2026-04-12T08:23:28.634Z</time></trkpt><trkpt lat="40.9388633" lon="16.2576183"><ele>455.0</ele><time>2026-04-12T08:23:29.633Z</time></trkpt><trkpt lat="40.9390083" lon="16.2573267"><ele>455.0</ele><time>2026-04-12T08:23:30.634Z</time></trkpt><trkpt lat="40.9391533" lon="16.2570317"><ele>454.0</ele><time>2026-04-12T08:23:31.634Z</time></trkpt><trkpt lat="40.9393" lon="16.2567283"><ele>453.0</ele><time>2026-04-12T08:23:32.635Z</time></trkpt><trkpt lat="40.93945" lon="16.25642"><ele>453.0</ele><time>2026-04-12T08:23:33.634Z</time></trkpt><trkpt lat="40.939605" lon="16.2561067"><ele>453.0</ele><time>2026-04-12T08:23:34.635Z</time></trkpt><trkpt lat="40.9397617" lon="16.2557867"><ele>452.5</ele><time>2026-04-12T08:23:35.634Z</time></trkpt><trkpt lat="40.93992" lon="16.2554633"><ele>452.0</ele><time>2026-04-12T08:23:36.634Z</time></trkpt><trkpt lat="40.94008" lon="16.255135"><ele>452.0</ele><time>2026-04-12T08:23:37.634Z</time></trkpt><trkpt lat="40.9402417" lon="16.254805"><ele>452.0</ele><time>2026-04-12T08:23:38.636Z</time></trkpt><trkpt lat="40.9404033" lon="16.2544733"><ele>452.0</ele><time>2026-04-12T08:23:39.634Z</time></trkpt><trkpt lat="40.9405667" lon="16.25414"><ele>452.0</ele><time>2026-04-12T08:23:40.636Z</time></trkpt><trkpt lat="40.94073" lon="16.253805"><ele>452.0</ele><time>2026-04-12T08:23:41.634Z</time></trkpt><trkpt lat="40.9408967" lon="16.253465"><ele>452.0</ele><time>2026-04-12T08:23:42.634Z</time></trkpt><trkpt lat="40.9410683" lon="16.2531183"><ele>451.5</ele><time>2026-04-12T08:23:43.634Z</time></trkpt><trkpt lat="40.94124" lon="16.252765"><ele>451.0</ele><time>2026-04-12T08:23:44.635Z</time></trkpt><trkpt lat="40.941415" lon="16.2524067"><ele>450.5</ele><time>2026-04-12T08:23:45.633Z</time></trkpt><trkpt lat="40.9415917" lon="16.252045"><ele>450.0</ele><time>2026-04-12T08:23:46.634Z</time></trkpt><trkpt lat="40.9417617" lon="16.2516967"><ele>449.0</ele><time>2026-04-12T08:23:47.636Z</time></trkpt><trkpt lat="40.9419233" lon="16.251365"><ele>448.0</ele><time>2026-04-12T08:23:48.634Z</time></trkpt><trkpt lat="40.9420817" lon="16.2510417"><ele>448.0</ele><time>2026-04-12T08:23:49.634Z</time></trkpt><trkpt lat="40.9422417" lon="16.2507217"><ele>448.0</ele><time>2026-04-12T08:23:50.636Z</time></trkpt><trkpt lat="40.9424" lon="16.2504033"><ele>447.5</ele><time>2026-04-12T08:23:51.634Z</time></trkpt><trkpt lat="40.9425583" lon="16.2500833"><ele>447.0</ele><time>2026-04-12T08:23:52.634Z</time></trkpt><trkpt lat="40.9427167" lon="16.2497583"><ele>446.5</ele><time>2026-04-12T08:23:53.635Z</time></trkpt><trkpt lat="40.942875" lon="16.2494333"><ele>446.0</ele><time>2026-04-12T08:23:54.636Z</time></trkpt><trkpt lat="40.943035" lon="16.2491067"><ele>446.0</ele><time>2026-04-12T08:23:55.634Z</time></trkpt><trkpt lat="40.943195" lon="16.2487817"><ele>446.0</ele><time>2026-04-12T08:23:56.635Z</time></trkpt><trkpt lat="40.9433567" lon="16.248455"><ele>446.0</ele><time>2026-04-12T08:23:57.634Z</time></trkpt><trkpt lat="40.9435183" lon="16.248125"><ele>446.0</ele><time>2026-04-12T08:23:58.634Z</time></trkpt><trkpt lat="40.9436817" lon="16.2477917"><ele>446.0</ele><time>2026-04-12T08:23:59.635Z</time></trkpt><trkpt lat="40.9438467" lon="16.24746"><ele>446.0</ele><time>2026-04-12T08:24:00.635Z</time></trkpt><trkpt lat="40.9440117" lon="16.247125"><ele>446.5</ele><time>2026-04-12T08:24:01.634Z</time></trkpt><trkpt lat="40.9441767" lon="16.2467883"><ele>447.0</ele><time>2026-04-12T08:24:02.634Z</time></trkpt><trkpt lat="40.9443417" lon="16.2464467"><ele>447.5</ele><time>2026-04-12T08:24:03.636Z</time></trkpt><trkpt lat="40.9445083" lon="16.2461033"><ele>448.0</ele><time>2026-04-12T08:24:04.634Z</time></trkpt><trkpt lat="40.94468" lon="16.2457583"><ele>447.5</ele><time>2026-04-12T08:24:05.634Z</time></trkpt><trkpt lat="40.9448517" lon="16.2454133"><ele>447.0</ele><time>2026-04-12T08:24:06.635Z</time></trkpt><trkpt lat="40.945025" lon="16.245065"><ele>448.0</ele><time>2026-04-12T08:24:07.634Z</time></trkpt><trkpt lat="40.9451967" lon="16.24471"><ele>449.0</ele><time>2026-04-12T08:24:08.634Z</time></trkpt><trkpt lat="40.94537" lon="16.2443517"><ele>449.0</ele><time>2026-04-12T08:24:09.634Z</time></trkpt><trkpt lat="40.9455483" lon="16.2439933"><ele>449.0</ele><time>2026-04-12T08:24:10.634Z</time></trkpt><trkpt lat="40.9457283" lon="16.2436333"><ele>449.0</ele><time>2026-04-12T08:24:11.634Z</time></trkpt><trkpt lat="40.9459067" lon="16.2432717"><ele>449.0</ele><time>2026-04-12T08:24:12.634Z</time></trkpt><trkpt lat="40.946085" lon="16.2429067"><ele>448.5</ele><time>2026-04-12T08:24:13.634Z</time></trkpt><trkpt lat="40.94626" lon="16.24254"><ele>448.0</ele><time>2026-04-12T08:24:14.634Z</time></trkpt><trkpt lat="40.9464383" lon="16.2421733"><ele>447.5</ele><time>2026-04-12T08:24:15.634Z</time></trkpt><trkpt lat="40.9466167" lon="16.241805"><ele>447.0</ele><time>2026-04-12T08:24:16.638Z</time></trkpt><trkpt lat="40.9467983" lon="16.2414367"><ele>447.0</ele><time>2026-04-12T08:24:17.634Z</time></trkpt><trkpt lat="40.9469767" lon="16.2410617"><ele>447.0</ele><time>2026-04-12T08:24:18.634Z</time></trkpt><trkpt lat="40.9471583" lon="16.2406867"><ele>447.5</ele><time>2026-04-12T08:24:19.635Z</time></trkpt><trkpt lat="40.9473417" lon="16.2403117"><ele>448.0</ele><time>2026-04-12T08:24:20.634Z</time></trkpt><trkpt lat="40.947525" lon="16.23994"><ele>448.0</ele><time>2026-04-12T08:24:21.633Z</time></trkpt><trkpt lat="40.94771" lon="16.2395667"><ele>448.0</ele><time>2026-04-12T08:24:22.634Z</time></trkpt><trkpt lat="40.9478933" lon="16.2391933"><ele>447.5</ele><time>2026-04-12T08:24:23.637Z</time></trkpt><trkpt lat="40.9480717" lon="16.2388317"><ele>447.0</ele><time>2026-04-12T08:24:24.634Z</time></trkpt><trkpt lat="40.9482417" lon="16.2384883"><ele>448.0</ele><time>2026-04-12T08:24:25.633Z</time></trkpt><trkpt lat="40.94841" lon="16.23815"><ele>449.0</ele><time>2026-04-12T08:24:26.634Z</time></trkpt><trkpt lat="40.9485783" lon="16.2378117"><ele>449.0</ele><time>2026-04-12T08:24:27.634Z</time></trkpt><trkpt lat="40.948745" lon="16.237465"><ele>449.0</ele><time>2026-04-12T08:24:28.636Z</time></trkpt><trkpt lat="40.948915" lon="16.2371167"><ele>449.0</ele><time>2026-04-12T08:24:29.635Z</time></trkpt><trkpt lat="40.9490833" lon="16.236765"><ele>449.0</ele><time>2026-04-12T08:24:30.634Z</time></trkpt><trkpt lat="40.9492533" lon="16.23641"><ele>449.0</ele><time>2026-04-12T08:24:31.634Z</time></trkpt><trkpt lat="40.949425" lon="16.23606"><ele>449.0</ele><time>2026-04-12T08:24:32.636Z</time></trkpt><trkpt lat="40.949595" lon="16.23572"><ele>449.5</ele><time>2026-04-12T08:24:33.636Z</time></trkpt><trkpt lat="40.949765" lon="16.23538"><ele>450.0</ele><time>2026-04-12T08:24:34.634Z</time></trkpt><trkpt lat="40.9499333" lon="16.2350383"><ele>449.5</ele><time>2026-04-12T08:24:35.633Z</time></trkpt><trkpt lat="40.9500933" lon="16.23471"><ele>449.0</ele><time>2026-04-12T08:24:36.634Z</time></trkpt><trkpt lat="40.9502433" lon="16.2344017"><ele>449.0</ele><time>2026-04-12T08:24:37.635Z</time></trkpt><trkpt lat="40.9503867" lon="16.2341067"><ele>449.0</ele><time>2026-04-12T08:24:38.635Z</time></trkpt><trkpt lat="40.9505233" lon="16.2338283"><ele>449.0</ele><time>2026-04-12T08:24:39.635Z</time></trkpt><trkpt lat="40.950655" lon="16.2335617"><ele>449.0</ele><time>2026-04-12T08:24:40.634Z</time></trkpt><trkpt lat="40.9507883" lon="16.2332983"><ele>450.0</ele><time>2026-04-12T08:24:41.634Z</time></trkpt><trkpt lat="40.95092" lon="16.2330333"><ele>451.0</ele><time>2026-04-12T08:24:42.634Z</time></trkpt><trkpt lat="40.9510517" lon="16.23276"><ele>451.0</ele><time>2026-04-12T08:24:43.634Z</time></trkpt><trkpt lat="40.9511788" lon="16.2324926"><ele>451.0</ele><time>2026-04-12T08:24:44.635Z</time></trkpt><trkpt lat="40.9512983" lon="16.2322384"><ele>451.0</ele><time>2026-04-12T08:24:45.634Z</time></trkpt><trkpt lat="40.9514124" lon="16.2319988"><ele>451.0</ele><time>2026-04-12T08:24:46.633Z</time></trkpt><trkpt lat="40.9515195" lon="16.2317737"><ele>451.0</ele><time>2026-04-12T08:24:47.634Z</time></trkpt><trkpt lat="40.9516228" lon="16.2315651"><ele>451.0</ele><time>2026-04-12T08:24:48.636Z</time></trkpt><trkpt lat="40.9517232" lon="16.2313647"><ele>451.0</ele><time>2026-04-12T08:24:49.634Z</time></trkpt><trkpt lat="40.9518222" lon="16.2311588"><ele>451.0</ele><time>2026-04-12T08:24:50.634Z</time></trkpt><trkpt lat="40.951926" lon="16.2309422"><ele>451.0</ele><time>2026-04-12T08:24:51.634Z</time></trkpt><trkpt lat="40.9520363" lon="16.2307148"><ele>451.0</ele><time>2026-04-12T08:24:52.635Z</time></trkpt><trkpt lat="40.9521552" lon="16.2304749"><ele>451.0</ele><time>2026-04-12T08:24:53.635Z</time></trkpt><trkpt lat="40.9522786" lon="16.2302265"><ele>450.6666666666667</ele><time>2026-04-12T08:24:54.635Z</time></trkpt><trkpt lat="40.9523999" lon="16.229981"><ele>450.33333333333337</ele><time>2026-04-12T08:24:55.635Z</time></trkpt><trkpt lat="40.9525119" lon="16.2297503"><ele>450.0</ele><time>2026-04-12T08:24:56.634Z</time></trkpt><trkpt lat="40.9526171" lon="16.2295342"><ele>450.0</ele><time>2026-04-12T08:24:57.635Z</time></trkpt><trkpt lat="40.9527145" lon="16.2293298"><ele>450.0</ele><time>2026-04-12T08:24:58.634Z</time></trkpt><trkpt lat="40.9528063" lon="16.2291378"><ele>450.0</ele><time>2026-04-12T08:24:59.634Z</time></trkpt><trkpt lat="40.9528915" lon="16.2289556"><ele>450.0</ele><time>2026-04-12T08:25:00.635Z</time></trkpt><trkpt lat="40.9529699" lon="16.2287783"><ele>450.0</ele><time>2026-04-12T08:25:01.637Z</time></trkpt><trkpt lat="40.9530423" lon="16.2286042"><ele>450.0</ele><time>2026-04-12T08:25:02.635Z</time></trkpt><trkpt lat="40.953116" lon="16.2284189"><ele>450.0</ele><time>2026-04-12T08:25:03.635Z</time></trkpt><trkpt lat="40.9531963" lon="16.2282093"><ele>450.0</ele><time>2026-04-12T08:25:04.633Z</time></trkpt><trkpt lat="40.9532797" lon="16.2279707"><ele>450.0</ele><time>2026-04-12T08:25:05.634Z</time></trkpt><trkpt lat="40.9533605" lon="16.2277063"><ele>451.0</ele><time>2026-04-12T08:25:06.635Z</time></trkpt><trkpt lat="40.9534406" lon="16.2274249"><ele>452.0</ele><time>2026-04-12T08:25:07.636Z</time></trkpt><trkpt lat="40.9535351" lon="16.2271339"><ele>452.0</ele><time>2026-04-12T08:25:08.634Z</time></trkpt><trkpt lat="40.9536443" lon="16.2268318"><ele>452.0</ele><time>2026-04-12T08:25:09.634Z</time></trkpt><trkpt lat="40.9537634" lon="16.2265215"><ele>451.5</ele><time>2026-04-12T08:25:10.634Z</time></trkpt><trkpt lat="40.9538817" lon="16.2262057"><ele>451.0</ele><time>2026-04-12T08:25:11.636Z</time></trkpt><trkpt lat="40.953995" lon="16.2258795"><ele>451.0</ele><time>2026-04-12T08:25:12.634Z</time></trkpt><trkpt lat="40.9541089" lon="16.2255459"><ele>451.0</ele><time>2026-04-12T08:25:13.635Z</time></trkpt><trkpt lat="40.9542253" lon="16.2252074"><ele>451.0</ele><time>2026-04-12T08:25:14.635Z</time></trkpt><trkpt lat="40.9543414" lon="16.2248624"><ele>451.0</ele><time>2026-04-12T08:25:15.634Z</time></trkpt><trkpt lat="40.9544559" lon="16.2245127"><ele>452.0</ele><time>2026-04-12T08:25:16.638Z</time></trkpt><trkpt lat="40.9546874" lon="16.2238048"><ele>452.0</ele><time>2026-04-12T08:25:18.633Z</time></trkpt><trkpt lat="40.9548056" lon="16.2234475"><ele>452.0</ele><time>2026-04-12T08:25:19.634Z</time></trkpt><trkpt lat="40.9549267" lon="16.2230866"><ele>451.5</ele><time>2026-04-12T08:25:20.634Z</time></trkpt><trkpt lat="40.9550503" lon="16.2227292"><ele>451.0</ele><time>2026-04-12T08:25:21.633Z</time></trkpt><trkpt lat="40.9551691" lon="16.2223781"><ele>451.0</ele><time>2026-04-12T08:25:22.637Z</time></trkpt><trkpt lat="40.9552846" lon="16.2220716"><ele>451.0</ele><time>2026-04-12T08:25:23.635Z</time></trkpt><trkpt lat="40.9553865" lon="16.2217835"><ele>451.0</ele><time>2026-04-12T08:25:24.636Z</time></trkpt><trkpt lat="40.9554699" lon="16.2215222"><ele>451.0</ele><time>2026-04-12T08:25:25.634Z</time></trkpt><trkpt lat="40.9555402" lon="16.2212971"><ele>451.0</ele><time>2026-04-12T08:25:26.634Z</time></trkpt><trkpt lat="40.9556014" lon="16.2211042"><ele>451.25</ele><time>2026-04-12T08:25:27.635Z</time></trkpt><trkpt lat="40.9556572" lon="16.220939"><ele>451.5</ele><time>2026-04-12T08:25:28.633Z</time></trkpt><trkpt lat="40.9557076" lon="16.2207891"><ele>451.75</ele><time>2026-04-12T08:25:29.633Z</time></trkpt><trkpt lat="40.9557583" lon="16.2206464"><ele>452.0</ele><time>2026-04-12T08:25:30.634Z</time></trkpt><trkpt lat="40.9558109" lon="16.220494"><ele>452.5</ele><time>2026-04-12T08:25:31.633Z</time></trkpt><trkpt lat="40.9558682" lon="16.2203228"><ele>453.0</ele><time>2026-04-12T08:25:32.636Z</time></trkpt><trkpt lat="40.956" lon="16.2199458"><ele>453.0</ele><time>2026-04-12T08:25:34.633Z</time></trkpt><trkpt lat="40.9560691" lon="16.2197405"><ele>453.0</ele><time>2026-04-12T08:25:35.635Z</time></trkpt><trkpt lat="40.9561415" lon="16.2195255"><ele>453.0</ele><time>2026-04-12T08:25:36.635Z</time></trkpt><trkpt lat="40.9562181" lon="16.2193005"><ele>453.0</ele><time>2026-04-12T08:25:37.634Z</time></trkpt><trkpt lat="40.9562985" lon="16.2190654"><ele>453.0</ele><time>2026-04-12T08:25:38.634Z</time></trkpt><trkpt lat="40.95638" lon="16.2188234"><ele>453.0</ele><time>2026-04-12T08:25:39.634Z</time></trkpt><trkpt lat="40.9564618" lon="16.2185804"><ele>453.0</ele><time>2026-04-12T08:25:40.633Z</time></trkpt><trkpt lat="40.956544" lon="16.2183337"><ele>453.0</ele><time>2026-04-12T08:25:41.634Z</time></trkpt><trkpt lat="40.9566305" lon="16.2180793"><ele>453.0</ele><time>2026-04-12T08:25:42.638Z</time></trkpt><trkpt lat="40.956717" lon="16.2178177"><ele>452.0</ele><time>2026-04-12T08:25:43.635Z</time></trkpt><trkpt lat="40.956805" lon="16.2175477"><ele>451.0</ele><time>2026-04-12T08:25:44.634Z</time></trkpt><trkpt lat="40.9568967" lon="16.2172712"><ele>450.5</ele><time>2026-04-12T08:25:45.634Z</time></trkpt><trkpt lat="40.9569902" lon="16.2169892"><ele>450.0</ele><time>2026-04-12T08:25:46.634Z</time></trkpt><trkpt lat="40.9570866" lon="16.2167053"><ele>450.0</ele><time>2026-04-12T08:25:47.634Z</time></trkpt><trkpt lat="40.957184" lon="16.2164257"><ele>450.0</ele><time>2026-04-12T08:25:48.634Z</time></trkpt><trkpt lat="40.9572777" lon="16.216159"><ele>450.0</ele><time>2026-04-12T08:25:49.634Z</time></trkpt><trkpt lat="40.9573664" lon="16.2158992"><ele>450.0</ele><time>2026-04-12T08:25:50.634Z</time></trkpt><trkpt lat="40.95745" lon="16.21564"><ele>450.0</ele><time>2026-04-12T08:25:51.633Z</time></trkpt><trkpt lat="40.957535" lon="16.2153783"><ele>449.66666666666663</ele><time>2026-04-12T08:25:52.634Z</time></trkpt><trkpt lat="40.9576267" lon="16.2151183"><ele>449.3333333333333</ele><time>2026-04-12T08:25:53.633Z</time></trkpt><trkpt lat="40.9577283" lon="16.2148633"><ele>449.0</ele><time>2026-04-12T08:25:54.634Z</time></trkpt><trkpt lat="40.957845" lon="16.2146067"><ele>450.0</ele><time>2026-04-12T08:25:55.633Z</time></trkpt><trkpt lat="40.957975" lon="16.21435"><ele>451.0</ele><time>2026-04-12T08:25:56.635Z</time></trkpt><trkpt lat="40.95812" lon="16.214095"><ele>451.0</ele><time>2026-04-12T08:25:57.634Z</time></trkpt><trkpt lat="40.9582783" lon="16.2138433"><ele>451.0</ele><time>2026-04-12T08:25:58.634Z</time></trkpt><trkpt lat="40.95845" lon="16.213595"><ele>451.0</ele><time>2026-04-12T08:25:59.634Z</time></trkpt><trkpt lat="40.9586333" lon="16.21335"><ele>451.0</ele><time>2026-04-12T08:26:00.635Z</time></trkpt><trkpt lat="40.95881" lon="16.2131133"><ele>451.5</ele><time>2026-04-12T08:26:01.634Z</time></trkpt><trkpt lat="40.95898" lon="16.2128783"><ele>452.0</ele><time>2026-04-12T08:26:02.634Z</time></trkpt><trkpt lat="40.95915" lon="16.2126467"><ele>451.5</ele><time>2026-04-12T08:26:03.633Z</time></trkpt><trkpt lat="40.95932" lon="16.2124183"><ele>451.0</ele><time>2026-04-12T08:26:04.634Z</time></trkpt><trkpt lat="40.9594867" lon="16.2121867"><ele>451.0</ele><time>2026-04-12T08:26:05.633Z</time></trkpt><trkpt lat="40.959815" lon="16.2117417"><ele>451.0</ele><time>2026-04-12T08:26:07.634Z</time></trkpt><trkpt lat="40.9599867" lon="16.2115033"><ele>451.0</ele><time>2026-04-12T08:26:08.634Z</time></trkpt><trkpt lat="40.9601583" lon="16.2112517"><ele>449.5</ele><time>2026-04-12T08:26:09.634Z</time></trkpt><trkpt lat="40.96033" lon="16.211005"><ele>448.0</ele><time>2026-04-12T08:26:10.634Z</time></trkpt><trkpt lat="40.9604933" lon="16.210775"><ele>448.5</ele><time>2026-04-12T08:26:11.635Z</time></trkpt><trkpt lat="40.9606517" lon="16.210555"><ele>449.0</ele><time>2026-04-12T08:26:12.633Z</time></trkpt><trkpt lat="40.9608117" lon="16.21033"><ele>447.5</ele><time>2026-04-12T08:26:13.634Z</time></trkpt><trkpt lat="40.9609817" lon="16.210105"><ele>446.0</ele><time>2026-04-12T08:26:14.634Z</time></trkpt><trkpt lat="40.9611533" lon="16.2098617"><ele>447.0</ele><time>2026-04-12T08:26:15.633Z</time></trkpt><trkpt lat="40.9613333" lon="16.209615"><ele>448.0</ele><time>2026-04-12T08:26:16.634Z</time></trkpt><trkpt lat="40.96152" lon="16.2093617"><ele>447.5</ele><time>2026-04-12T08:26:17.634Z</time></trkpt><trkpt lat="40.9617033" lon="16.2091067"><ele>447.0</ele><time>2026-04-12T08:26:18.636Z</time></trkpt><trkpt lat="40.9618917" lon="16.2088467"><ele>447.0</ele><time>2026-04-12T08:26:19.633Z</time></trkpt><trkpt lat="40.9620833" lon="16.2085833"><ele>447.0</ele><time>2026-04-12T08:26:20.635Z</time></trkpt><trkpt lat="40.9622633" lon="16.2083233"><ele>447.0</ele><time>2026-04-12T08:26:21.633Z</time></trkpt><trkpt lat="40.962435" lon="16.208075"><ele>447.0</ele><time>2026-04-12T08:26:22.634Z</time></trkpt><trkpt lat="40.962595" lon="16.20784"><ele>447.0</ele><time>2026-04-12T08:26:23.633Z</time></trkpt><trkpt lat="40.9627467" lon="16.2076267"><ele>447.0</ele><time>2026-04-12T08:26:24.633Z</time></trkpt><trkpt lat="40.9629017" lon="16.20742"><ele>447.0</ele><time>2026-04-12T08:26:25.633Z</time></trkpt><trkpt lat="40.963065" lon="16.2072067"><ele>447.0</ele><time>2026-04-12T08:26:26.731Z</time></trkpt><trkpt lat="40.9632317" lon="16.2069817"><ele>447.0</ele><time>2026-04-12T08:26:27.633Z</time></trkpt><trkpt lat="40.9633967" lon="16.2067483"><ele>445.0</ele><time>2026-04-12T08:26:28.634Z</time></trkpt><trkpt lat="40.9635683" lon="16.20651"><ele>443.0</ele><time>2026-04-12T08:26:29.633Z</time></trkpt><trkpt lat="40.9637433" lon="16.2062667"><ele>442.5</ele><time>2026-04-12T08:26:30.634Z</time></trkpt><trkpt lat="40.9639267" lon="16.2060183"><ele>442.0</ele><time>2026-04-12T08:26:31.634Z</time></trkpt><trkpt lat="40.96411" lon="16.2057617"><ele>440.5</ele><time>2026-04-12T08:26:32.634Z</time></trkpt><trkpt lat="40.964295" lon="16.2055"><ele>439.0</ele><time>2026-04-12T08:26:33.633Z</time></trkpt><trkpt lat="40.9644783" lon="16.205235"><ele>439.0</ele><time>2026-04-12T08:26:34.635Z</time></trkpt><trkpt lat="40.9646617" lon="16.20497"><ele>439.0</ele><time>2026-04-12T08:26:35.635Z</time></trkpt><trkpt lat="40.9648417" lon="16.2047033"><ele>436.0</ele><time>2026-04-12T08:26:36.634Z</time></trkpt><trkpt lat="40.9651867" lon="16.2041967"><ele>435.0</ele><time>2026-04-12T08:26:38.634Z</time></trkpt><trkpt lat="40.9653467" lon="16.2039617"><ele>434.0</ele><time>2026-04-12T08:26:39.633Z</time></trkpt><trkpt lat="40.9654983" lon="16.2037317"><ele>434.0</ele><time>2026-04-12T08:26:40.634Z</time></trkpt><trkpt lat="40.9656467" lon="16.2035133"><ele>434.0</ele><time>2026-04-12T08:26:41.634Z</time></trkpt><trkpt lat="40.965795" lon="16.2032933"><ele>434.0</ele><time>2026-04-12T08:26:42.636Z</time></trkpt><trkpt lat="40.9659467" lon="16.2030683"><ele>431.0</ele><time>2026-04-12T08:26:43.633Z</time></trkpt><trkpt lat="40.9661017" lon="16.2028367"><ele>428.0</ele><time>2026-04-12T08:26:44.637Z</time></trkpt><trkpt lat="40.9662517" lon="16.2026033"><ele>428.0</ele><time>2026-04-12T08:26:45.635Z</time></trkpt><trkpt lat="40.9663883" lon="16.2023833"><ele>428.0</ele><time>2026-04-12T08:26:46.633Z</time></trkpt><trkpt lat="40.966505" lon="16.2021833"><ele>428.0</ele><time>2026-04-12T08:26:47.635Z</time></trkpt><trkpt lat="40.9666083" lon="16.202005"><ele>427.0</ele><time>2026-04-12T08:26:48.635Z</time></trkpt><trkpt lat="40.9667017" lon="16.2018367"><ele>426.0</ele><time>2026-04-12T08:26:49.634Z</time></trkpt><trkpt lat="40.9667833" lon="16.2016733"><ele>425.0</ele><time>2026-04-12T08:26:50.636Z</time></trkpt><trkpt lat="40.9668483" lon="16.201515"><ele>424.0</ele><time>2026-04-12T08:26:51.633Z</time></trkpt><trkpt lat="40.9669017" lon="16.201355"><ele>424.0</ele><time>2026-04-12T08:26:52.634Z</time></trkpt><trkpt lat="40.9669517" lon="16.2011967"><ele>424.0</ele><time>2026-04-12T08:26:53.634Z</time></trkpt><trkpt lat="40.9670017" lon="16.2010417"><ele>424.0</ele><time>2026-04-12T08:26:54.633Z</time></trkpt><trkpt lat="40.96705" lon="16.2008967"><ele>424.0</ele><time>2026-04-12T08:26:55.635Z</time></trkpt><trkpt lat="40.9671033" lon="16.2007567"><ele>424.0</ele><time>2026-04-12T08:26:56.635Z</time></trkpt><trkpt lat="40.9671717" lon="16.2006383"><ele>424.0</ele><time>2026-04-12T08:26:57.634Z</time></trkpt><trkpt lat="40.9672517" lon="16.20054"><ele>424.0</ele><time>2026-04-12T08:26:58.633Z</time></trkpt><trkpt lat="40.9673333" lon="16.200465"><ele>424.0</ele><time>2026-04-12T08:26:59.633Z</time></trkpt><trkpt lat="40.9673967" lon="16.2004017"><ele>424.0</ele><time>2026-04-12T08:27:00.633Z</time></trkpt><trkpt lat="40.9674533" lon="16.2003317"><ele>424.0</ele><time>2026-04-12T08:27:01.635Z</time></trkpt><trkpt lat="40.9674983" lon="16.2002517"><ele>424.0</ele><time>2026-04-12T08:27:02.634Z</time></trkpt><trkpt lat="40.9675183" lon="16.2001183"><ele>424.0</ele><time>2026-04-12T08:27:03.633Z</time></trkpt><trkpt lat="40.9675167" lon="16.19994"><ele>424.0</ele><time>2026-04-12T08:27:04.633Z</time></trkpt><trkpt lat="40.967505" lon="16.1997383"><ele>424.0</ele><time>2026-04-12T08:27:05.634Z</time></trkpt><trkpt lat="40.9675" lon="16.1995183"><ele>424.0</ele><time>2026-04-12T08:27:06.634Z</time></trkpt><trkpt lat="40.967505" lon="16.1992883"><ele>424.0</ele><time>2026-04-12T08:27:07.634Z</time></trkpt><trkpt lat="40.9675283" lon="16.1990567"><ele>423.6666666666667</ele><time>2026-04-12T08:27:08.635Z</time></trkpt><trkpt lat="40.9675767" lon="16.1988167"><ele>423.33333333333337</ele><time>2026-04-12T08:27:09.634Z</time></trkpt><trkpt lat="40.967635" lon="16.198565"><ele>423.0</ele><time>2026-04-12T08:27:10.633Z</time></trkpt><trkpt lat="40.967695" lon="16.1982983"><ele>422.5</ele><time>2026-04-12T08:27:11.634Z</time></trkpt><trkpt lat="40.967755" lon="16.198015"><ele>422.0</ele><time>2026-04-12T08:27:12.634Z</time></trkpt><trkpt lat="40.9678183" lon="16.197725"><ele>422.0</ele><time>2026-04-12T08:27:13.633Z</time></trkpt><trkpt lat="40.9678833" lon="16.197425"><ele>422.0</ele><time>2026-04-12T08:27:14.635Z</time></trkpt><trkpt lat="40.9679533" lon="16.19712"><ele>422.0</ele><time>2026-04-12T08:27:15.634Z</time></trkpt><trkpt lat="40.968025" lon="16.19681"><ele>422.0</ele><time>2026-04-12T08:27:16.634Z</time></trkpt><trkpt lat="40.9680933" lon="16.1964983"><ele>421.5</ele><time>2026-04-12T08:27:17.635Z</time></trkpt><trkpt lat="40.9681583" lon="16.196185"><ele>421.0</ele><time>2026-04-12T08:27:18.633Z</time></trkpt><trkpt lat="40.9682233" lon="16.195875"><ele>421.0</ele><time>2026-04-12T08:27:19.637Z</time></trkpt><trkpt lat="40.9682933" lon="16.1955633"><ele>421.0</ele><time>2026-04-12T08:27:20.634Z</time></trkpt><trkpt lat="40.968365" lon="16.1952533"><ele>421.5</ele><time>2026-04-12T08:27:21.633Z</time></trkpt><trkpt lat="40.9684333" lon="16.194945"><ele>422.0</ele><time>2026-04-12T08:27:22.634Z</time></trkpt><trkpt lat="40.9685017" lon="16.19464"><ele>423.0</ele><time>2026-04-12T08:27:23.634Z</time></trkpt><trkpt lat="40.96857" lon="16.1943383"><ele>424.0</ele><time>2026-04-12T08:27:24.635Z</time></trkpt><trkpt lat="40.9687" lon="16.1937533"><ele>424.0</ele><time>2026-04-12T08:27:26.634Z</time></trkpt><trkpt lat="40.96876" lon="16.1934817"><ele>424.0</ele><time>2026-04-12T08:27:27.633Z</time></trkpt><trkpt lat="40.96882" lon="16.1932133"><ele>424.0</ele><time>2026-04-12T08:27:28.634Z</time></trkpt><trkpt lat="40.9688833" lon="16.19295"><ele>423.33333333333337</ele><time>2026-04-12T08:27:29.634Z</time></trkpt><trkpt lat="40.9689433" lon="16.1926917"><ele>422.66666666666663</ele><time>2026-04-12T08:27:30.634Z</time></trkpt><trkpt lat="40.9689983" lon="16.1924417"><ele>422.0</ele><time>2026-04-12T08:27:31.634Z</time></trkpt><trkpt lat="40.9690467" lon="16.19219"><ele>422.0</ele><time>2026-04-12T08:27:32.635Z</time></trkpt><trkpt lat="40.969095" lon="16.1919267"><ele>422.0</ele><time>2026-04-12T08:27:33.636Z</time></trkpt><trkpt lat="40.9691433" lon="16.1916533"><ele>422.0</ele><time>2026-04-12T08:27:34.636Z</time></trkpt><trkpt lat="40.9691883" lon="16.1913633"><ele>422.5</ele><time>2026-04-12T08:27:35.634Z</time></trkpt><trkpt lat="40.9692333" lon="16.19106"><ele>423.0</ele><time>2026-04-12T08:27:36.634Z</time></trkpt><trkpt lat="40.9692733" lon="16.1907467"><ele>423.0</ele><time>2026-04-12T08:27:37.634Z</time></trkpt><trkpt lat="40.9693067" lon="16.1904333"><ele>423.0</ele><time>2026-04-12T08:27:38.636Z</time></trkpt><trkpt lat="40.9693383" lon="16.1901317"><ele>423.0</ele><time>2026-04-12T08:27:39.633Z</time></trkpt><trkpt lat="40.9693667" lon="16.1898417"><ele>423.0</ele><time>2026-04-12T08:27:40.634Z</time></trkpt><trkpt lat="40.96939" lon="16.1895583"><ele>423.0</ele><time>2026-04-12T08:27:41.633Z</time></trkpt><trkpt lat="40.9694017" lon="16.1892817"><ele>423.0</ele><time>2026-04-12T08:27:42.634Z</time></trkpt><trkpt lat="40.9694067" lon="16.1890267"><ele>423.0</ele><time>2026-04-12T08:27:43.633Z</time></trkpt><trkpt lat="40.9694033" lon="16.1888"><ele>423.0</ele><time>2026-04-12T08:27:44.634Z</time></trkpt><trkpt lat="40.96939" lon="16.188585"><ele>422.66666666666663</ele><time>2026-04-12T08:27:45.737Z</time></trkpt><trkpt lat="40.96937" lon="16.1883783"><ele>422.3333333333333</ele><time>2026-04-12T08:27:46.651Z</time></trkpt><trkpt lat="40.9693517" lon="16.1881767"><ele>422.0</ele><time>2026-04-12T08:27:47.635Z</time></trkpt><trkpt lat="40.969335" lon="16.1879783"><ele>421.0</ele><time>2026-04-12T08:27:48.635Z</time></trkpt><trkpt lat="40.9693167" lon="16.1877833"><ele>420.0</ele><time>2026-04-12T08:27:49.634Z</time></trkpt><trkpt lat="40.9692933" lon="16.1875817"><ele>419.0</ele><time>2026-04-12T08:27:50.634Z</time></trkpt><trkpt lat="40.9692683" lon="16.1873733"><ele>418.66666666666663</ele><time>2026-04-12T08:27:51.633Z</time></trkpt><trkpt lat="40.96924" lon="16.187145"><ele>418.33333333333337</ele><time>2026-04-12T08:27:52.636Z</time></trkpt><trkpt lat="40.9692083" lon="16.1869"><ele>418.0</ele><time>2026-04-12T08:27:53.635Z</time></trkpt><trkpt lat="40.969175" lon="16.186635"><ele>416.6666666666667</ele><time>2026-04-12T08:27:54.633Z</time></trkpt><trkpt lat="40.9691367" lon="16.1863517"><ele>415.33333333333337</ele><time>2026-04-12T08:27:55.636Z</time></trkpt><trkpt lat="40.9690983" lon="16.1860517"><ele>414.0</ele><time>2026-04-12T08:27:56.634Z</time></trkpt><trkpt lat="40.9690567" lon="16.1857383"><ele>414.0</ele><time>2026-04-12T08:27:57.633Z</time></trkpt><trkpt lat="40.969015" lon="16.1854183"><ele>414.0</ele><time>2026-04-12T08:27:58.634Z</time></trkpt><trkpt lat="40.9689717" lon="16.1850917"><ele>413.0</ele><time>2026-04-12T08:27:59.633Z</time></trkpt><trkpt lat="40.968925" lon="16.1847583"><ele>412.0</ele><time>2026-04-12T08:28:00.634Z</time></trkpt><trkpt lat="40.9688783" lon="16.18442"><ele>412.0</ele><time>2026-04-12T08:28:01.634Z</time></trkpt><trkpt lat="40.9688333" lon="16.184075"><ele>412.0</ele><time>2026-04-12T08:28:02.634Z</time></trkpt><trkpt lat="40.9687883" lon="16.183725"><ele>412.0</ele><time>2026-04-12T08:28:03.633Z</time></trkpt><trkpt lat="40.96874" lon="16.1833667"><ele>412.0</ele><time>2026-04-12T08:28:04.633Z</time></trkpt><trkpt lat="40.9686917" lon="16.1830083"><ele>414.0</ele><time>2026-04-12T08:28:05.634Z</time></trkpt><trkpt lat="40.9686017" lon="16.1823367"><ele>414.0</ele><time>2026-04-12T08:28:07.634Z</time></trkpt><trkpt lat="40.9685583" lon="16.182025"><ele>414.0</ele><time>2026-04-12T08:28:08.634Z</time></trkpt><trkpt lat="40.9685183" lon="16.18173"><ele>413.33333333333337</ele><time>2026-04-12T08:28:09.633Z</time></trkpt><trkpt lat="40.9684783" lon="16.1814517"><ele>412.6666666666667</ele><time>2026-04-12T08:28:10.633Z</time></trkpt><trkpt lat="40.9684467" lon="16.1812017"><ele>412.0</ele><time>2026-04-12T08:28:11.633Z</time></trkpt><trkpt lat="40.9684217" lon="16.18098"><ele>412.0</ele><time>2026-04-12T08:28:12.633Z</time></trkpt><trkpt lat="40.9684017" lon="16.1807717"><ele>412.0</ele><time>2026-04-12T08:28:13.634Z</time></trkpt><trkpt lat="40.9683817" lon="16.180575"><ele>412.0</ele><time>2026-04-12T08:28:14.635Z</time></trkpt><trkpt lat="40.9683667" lon="16.1803883"><ele>410.75</ele><time>2026-04-12T08:28:15.634Z</time></trkpt><trkpt lat="40.9683533" lon="16.180205"><ele>409.5</ele><time>2026-04-12T08:28:16.634Z</time></trkpt><trkpt lat="40.9683433" lon="16.1800217"><ele>408.25</ele><time>2026-04-12T08:28:17.634Z</time></trkpt><trkpt lat="40.9683417" lon="16.17986"><ele>407.0</ele><time>2026-04-12T08:28:18.633Z</time></trkpt><trkpt lat="40.968345" lon="16.1797267"><ele>406.99999999999994</ele><time>2026-04-12T08:28:19.634Z</time></trkpt><trkpt lat="40.9683517" lon="16.1796083"><ele>407.0</ele><time>2026-04-12T08:28:20.635Z</time></trkpt><trkpt lat="40.9683583" lon="16.179525"><ele>407.0</ele><time>2026-04-12T08:28:21.633Z</time></trkpt><trkpt lat="40.968385" lon="16.1794467"><ele>407.0</ele><time>2026-04-12T08:28:22.634Z</time></trkpt><trkpt lat="40.9684333" lon="16.1793867"><ele>406.99999999999994</ele><time>2026-04-12T08:28:23.635Z</time></trkpt><trkpt lat="40.9685267" lon="16.179375"><ele>407.0</ele><time>2026-04-12T08:28:24.633Z</time></trkpt><trkpt lat="40.9686433" lon="16.179365"><ele>408.3333333333333</ele><time>2026-04-12T08:28:25.634Z</time></trkpt><trkpt lat="40.96876" lon="16.1793317"><ele>409.66666666666663</ele><time>2026-04-12T08:28:26.634Z</time></trkpt><trkpt lat="40.9688817" lon="16.1792683"><ele>411.0</ele><time>2026-04-12T08:28:27.633Z</time></trkpt><trkpt lat="40.969175" lon="16.179115"><ele>410.66666666666663</ele><time>2026-04-12T08:28:29.633Z</time></trkpt><trkpt lat="40.9693367" lon="16.1790317"><ele>410.3333333333333</ele><time>2026-04-12T08:28:30.633Z</time></trkpt><trkpt lat="40.9695167" lon="16.17894"><ele>410.0</ele><time>2026-04-12T08:28:31.633Z</time></trkpt><trkpt lat="40.9697083" lon="16.1788467"><ele>410.0</ele><time>2026-04-12T08:28:32.633Z</time></trkpt><trkpt lat="40.9699083" lon="16.1787467"><ele>410.0</ele><time>2026-04-12T08:28:33.634Z</time></trkpt><trkpt lat="40.9701133" lon="16.1786383"><ele>410.0</ele><time>2026-04-12T08:28:34.633Z</time></trkpt><trkpt lat="40.9703283" lon="16.1785233"><ele>411.0</ele><time>2026-04-12T08:28:35.633Z</time></trkpt><trkpt lat="40.97055" lon="16.178405"><ele>412.0</ele><time>2026-04-12T08:28:36.635Z</time></trkpt><trkpt lat="40.97078" lon="16.1782833"><ele>411.5</ele><time>2026-04-12T08:28:37.633Z</time></trkpt><trkpt lat="40.97102" lon="16.1781583"><ele>411.0</ele><time>2026-04-12T08:28:38.634Z</time></trkpt><trkpt lat="40.9712667" lon="16.1780317"><ele>411.0</ele><time>2026-04-12T08:28:39.633Z</time></trkpt><trkpt lat="40.971515" lon="16.177905"><ele>411.0</ele><time>2026-04-12T08:28:40.633Z</time></trkpt><trkpt lat="40.9717667" lon="16.1777733"><ele>412.5</ele><time>2026-04-12T08:28:41.635Z</time></trkpt><trkpt lat="40.97202" lon="16.1776417"><ele>414.0</ele><time>2026-04-12T08:28:42.633Z</time></trkpt><trkpt lat="40.9722733" lon="16.17751"><ele>414.0</ele><time>2026-04-12T08:28:43.634Z</time></trkpt><trkpt lat="40.9725167" lon="16.1773867"><ele>414.0</ele><time>2026-04-12T08:28:44.634Z</time></trkpt><trkpt lat="40.9727483" lon="16.17727"><ele>415.5</ele><time>2026-04-12T08:28:45.633Z</time></trkpt><trkpt lat="40.9729717" lon="16.177155"><ele>417.0</ele><time>2026-04-12T08:28:46.633Z</time></trkpt><trkpt lat="40.9731933" lon="16.1770417"><ele>419.5</ele><time>2026-04-12T08:28:47.634Z</time></trkpt><trkpt lat="40.9734133" lon="16.1769267"><ele>422.0</ele><time>2026-04-12T08:28:48.634Z</time></trkpt><trkpt lat="40.9736367" lon="16.1768117"><ele>422.0</ele><time>2026-04-12T08:28:49.635Z</time></trkpt><trkpt lat="40.9738633" lon="16.1766933"><ele>422.0</ele><time>2026-04-12T08:28:50.634Z</time></trkpt><trkpt lat="40.9740933" lon="16.176575"><ele>425.0</ele><time>2026-04-12T08:28:51.633Z</time></trkpt><trkpt lat="40.9745367" lon="16.1763467"><ele>425.0</ele><time>2026-04-12T08:28:53.634Z</time></trkpt><trkpt lat="40.9747383" lon="16.1762467"><ele>425.0</ele><time>2026-04-12T08:28:54.633Z</time></trkpt><trkpt lat="40.9749367" lon="16.1761567"><ele>425.0</ele><time>2026-04-12T08:28:55.634Z</time></trkpt><trkpt lat="40.975135" lon="16.1760767"><ele>426.0</ele><time>2026-04-12T08:28:56.635Z</time></trkpt><trkpt lat="40.975335" lon="16.1760117"><ele>427.0</ele><time>2026-04-12T08:28:57.633Z</time></trkpt><trkpt lat="40.975545" lon="16.1759483"><ele>428.0</ele><time>2026-04-12T08:28:58.633Z</time></trkpt><trkpt lat="40.9757567" lon="16.1758833"><ele>429.3333333333333</ele><time>2026-04-12T08:28:59.633Z</time></trkpt><trkpt lat="40.9759683" lon="16.1758183"><ele>430.66666666666663</ele><time>2026-04-12T08:29:00.633Z</time></trkpt><trkpt lat="40.9761817" lon="16.1757567"><ele>432.0</ele><time>2026-04-12T08:29:01.635Z</time></trkpt><trkpt lat="40.9763967" lon="16.1756917"><ele>431.5</ele><time>2026-04-12T08:29:02.633Z</time></trkpt><trkpt lat="40.9766133" lon="16.175625"><ele>431.0</ele><time>2026-04-12T08:29:03.634Z</time></trkpt><trkpt lat="40.9768367" lon="16.175555"><ele>433.5</ele><time>2026-04-12T08:29:04.634Z</time></trkpt><trkpt lat="40.977065" lon="16.175485"><ele>436.0</ele><time>2026-04-12T08:29:05.633Z</time></trkpt><trkpt lat="40.9772933" lon="16.1754183"><ele>436.0</ele><time>2026-04-12T08:29:06.633Z</time></trkpt><trkpt lat="40.9775167" lon="16.1753533"><ele>436.0</ele><time>2026-04-12T08:29:07.633Z</time></trkpt><trkpt lat="40.9777217" lon="16.1752933"><ele>436.0</ele><time>2026-04-12T08:29:08.634Z</time></trkpt><trkpt lat="40.9779233" lon="16.1752333"><ele>437.33333333333337</ele><time>2026-04-12T08:29:09.633Z</time></trkpt><trkpt lat="40.97813" lon="16.1751733"><ele>438.66666666666663</ele><time>2026-04-12T08:29:10.634Z</time></trkpt><trkpt lat="40.97834" lon="16.1751133"><ele>440.0</ele><time>2026-04-12T08:29:11.633Z</time></trkpt><trkpt lat="40.978555" lon="16.1750517"><ele>442.0</ele><time>2026-04-12T08:29:12.634Z</time></trkpt><trkpt lat="40.978775" lon="16.1749867"><ele>444.0</ele><time>2026-04-12T08:29:13.633Z</time></trkpt><trkpt lat="40.979" lon="16.17492"><ele>446.0</ele><time>2026-04-12T08:29:14.634Z</time></trkpt><trkpt lat="40.97923" lon="16.1748517"><ele>448.0</ele><time>2026-04-12T08:29:15.634Z</time></trkpt><trkpt lat="40.979465" lon="16.1747817"><ele>448.0</ele><time>2026-04-12T08:29:16.637Z</time></trkpt><trkpt lat="40.9797033" lon="16.1747133"><ele>448.0</ele><time>2026-04-12T08:29:17.634Z</time></trkpt><trkpt lat="40.9799417" lon="16.174645"><ele>450.0</ele><time>2026-04-12T08:29:18.633Z</time></trkpt><trkpt lat="40.9801733" lon="16.1745767"><ele>452.0</ele><time>2026-04-12T08:29:19.634Z</time></trkpt><trkpt lat="40.98039" lon="16.1745133"><ele>452.0</ele><time>2026-04-12T08:29:20.634Z</time></trkpt><trkpt lat="40.98059" lon="16.1744567"><ele>452.0</ele><time>2026-04-12T08:29:21.633Z</time></trkpt><trkpt lat="40.9807817" lon="16.1743983"><ele>452.0</ele><time>2026-04-12T08:29:22.634Z</time></trkpt><trkpt lat="40.9809717" lon="16.1743433"><ele>454.3333333333333</ele><time>2026-04-12T08:29:23.635Z</time></trkpt><trkpt lat="40.9811567" lon="16.1742883"><ele>456.66666666666663</ele><time>2026-04-12T08:29:24.633Z</time></trkpt><trkpt lat="40.98134" lon="16.174235"><ele>459.0</ele><time>2026-04-12T08:29:25.634Z</time></trkpt><trkpt lat="40.9815233" lon="16.1741833"><ele>459.66666666666663</ele><time>2026-04-12T08:29:26.634Z</time></trkpt><trkpt lat="40.9817017" lon="16.1741283"><ele>460.3333333333333</ele><time>2026-04-12T08:29:27.634Z</time></trkpt><trkpt lat="40.98189" lon="16.174065"><ele>461.0</ele><time>2026-04-12T08:29:28.634Z</time></trkpt><trkpt lat="40.9820933" lon="16.174"><ele>461.0</ele><time>2026-04-12T08:29:29.634Z</time></trkpt><trkpt lat="40.9823117" lon="16.173935"><ele>461.0</ele><time>2026-04-12T08:29:30.635Z</time></trkpt><trkpt lat="40.9825383" lon="16.1738667"><ele>463.5</ele><time>2026-04-12T08:29:31.634Z</time></trkpt><trkpt lat="40.982785" lon="16.1737933"><ele>466.0</ele><time>2026-04-12T08:29:32.635Z</time></trkpt><trkpt lat="40.9830317" lon="16.173725"><ele>466.0</ele><time>2026-04-12T08:29:33.636Z</time></trkpt><trkpt lat="40.98327" lon="16.17365"><ele>466.0</ele><time>2026-04-12T08:29:34.634Z</time></trkpt><trkpt lat="40.9834917" lon="16.1735783"><ele>467.6666666666667</ele><time>2026-04-12T08:29:35.635Z</time></trkpt><trkpt lat="40.9837067" lon="16.173515"><ele>469.33333333333337</ele><time>2026-04-12T08:29:36.634Z</time></trkpt><trkpt lat="40.9839133" lon="16.1734517"><ele>471.0</ele><time>2026-04-12T08:29:37.634Z</time></trkpt><trkpt lat="40.9841033" lon="16.1733933"><ele>472.0</ele><time>2026-04-12T08:29:38.635Z</time></trkpt><trkpt lat="40.9842733" lon="16.17334"><ele>473.0</ele><time>2026-04-12T08:29:39.637Z</time></trkpt><trkpt lat="40.9844283" lon="16.1732933"><ele>474.0</ele><time>2026-04-12T08:29:40.635Z</time></trkpt><trkpt lat="40.9845617" lon="16.1732533"><ele>474.0</ele><time>2026-04-12T08:29:41.634Z</time></trkpt><trkpt lat="40.9846667" lon="16.1732217"><ele>474.0</ele><time>2026-04-12T08:29:42.634Z</time></trkpt><trkpt lat="40.9847567" lon="16.1732067"><ele>474.0</ele><time>2026-04-12T08:29:43.635Z</time></trkpt><trkpt lat="40.9848383" lon="16.17321"><ele>474.0</ele><time>2026-04-12T08:29:44.635Z</time></trkpt><trkpt lat="40.98491" lon="16.1732283"><ele>474.0</ele><time>2026-04-12T08:29:45.634Z</time></trkpt><trkpt lat="40.98497" lon="16.17326"><ele>474.0</ele><time>2026-04-12T08:29:46.635Z</time></trkpt><trkpt lat="40.9850683" lon="16.1733483"><ele>475.2</ele><time>2026-04-12T08:29:48.634Z</time></trkpt><trkpt lat="40.9851217" lon="16.1734017"><ele>476.4</ele><time>2026-04-12T08:29:49.636Z</time></trkpt><trkpt lat="40.9851833" lon="16.1734733"><ele>477.6</ele><time>2026-04-12T08:29:50.637Z</time></trkpt><trkpt lat="40.9852617" lon="16.1735683"><ele>478.8</ele><time>2026-04-12T08:29:51.634Z</time></trkpt><trkpt lat="40.98535" lon="16.17367"><ele>480.0</ele><time>2026-04-12T08:29:52.636Z</time></trkpt><trkpt lat="40.985445" lon="16.1737717"><ele>480.0</ele><time>2026-04-12T08:29:53.637Z</time></trkpt><trkpt lat="40.98555" lon="16.1738717"><ele>480.0</ele><time>2026-04-12T08:29:54.635Z</time></trkpt><trkpt lat="40.9856667" lon="16.1739667"><ele>480.0</ele><time>2026-04-12T08:29:55.634Z</time></trkpt><trkpt lat="40.9859367" lon="16.1741733"><ele>481.25</ele><time>2026-04-12T08:29:57.634Z</time></trkpt><trkpt lat="40.9860733" lon="16.1742683"><ele>482.5</ele><time>2026-04-12T08:29:58.636Z</time></trkpt><trkpt lat="40.9862017" lon="16.174355"><ele>483.75</ele><time>2026-04-12T08:29:59.635Z</time></trkpt><trkpt lat="40.98633" lon="16.1744433"><ele>485.0</ele><time>2026-04-12T08:30:00.635Z</time></trkpt><trkpt lat="40.9864583" lon="16.17454"><ele>485.0</ele><time>2026-04-12T08:30:01.634Z</time></trkpt><trkpt lat="40.9865817" lon="16.1746467"><ele>485.0</ele><time>2026-04-12T08:30:02.635Z</time></trkpt><trkpt lat="40.986705" lon="16.174765"><ele>485.0</ele><time>2026-04-12T08:30:03.634Z</time></trkpt><trkpt lat="40.98683" lon="16.1749"><ele>488.3333333333333</ele><time>2026-04-12T08:30:04.637Z</time></trkpt><trkpt lat="40.9869617" lon="16.1750467"><ele>491.66666666666663</ele><time>2026-04-12T08:30:05.634Z</time></trkpt><trkpt lat="40.9870983" lon="16.175195"><ele>495.0</ele><time>2026-04-12T08:30:06.634Z</time></trkpt><trkpt lat="40.9872417" lon="16.1753317"><ele>495.0</ele><time>2026-04-12T08:30:07.641Z</time></trkpt><trkpt lat="40.9873867" lon="16.1754417"><ele>495.0</ele><time>2026-04-12T08:30:08.635Z</time></trkpt><trkpt lat="40.98752" lon="16.1755267"><ele>495.0</ele><time>2026-04-12T08:30:09.634Z</time></trkpt><trkpt lat="40.987635" lon="16.1756033"><ele>495.0</ele><time>2026-04-12T08:30:10.636Z</time></trkpt><trkpt lat="40.98774" lon="16.1756783"><ele>496.0</ele><time>2026-04-12T08:30:11.634Z</time></trkpt><trkpt lat="40.9878283" lon="16.17576"><ele>497.0</ele><time>2026-04-12T08:30:12.634Z</time></trkpt><trkpt lat="40.987905" lon="16.1758617"><ele>498.0</ele><time>2026-04-12T08:30:13.634Z</time></trkpt><trkpt lat="40.9879767" lon="16.1759967"><ele>499.0</ele><time>2026-04-12T08:30:14.634Z</time></trkpt><trkpt lat="40.9880533" lon="16.1761633"><ele>499.0</ele><time>2026-04-12T08:30:15.634Z</time></trkpt><trkpt lat="40.98813" lon="16.1763533"><ele>499.0</ele><time>2026-04-12T08:30:16.634Z</time></trkpt><trkpt lat="40.9882167" lon="16.1765567"><ele>499.0</ele><time>2026-04-12T08:30:17.634Z</time></trkpt><trkpt lat="40.9883183" lon="16.1767683"><ele>503.0</ele><time>2026-04-12T08:30:18.635Z</time></trkpt><trkpt lat="40.9884283" lon="16.17698"><ele>507.0</ele><time>2026-04-12T08:30:19.638Z</time></trkpt><trkpt lat="40.9885517" lon="16.1771933"><ele>511.0</ele><time>2026-04-12T08:30:20.635Z</time></trkpt><trkpt lat="40.988675" lon="16.1774033"><ele>511.0</ele><time>2026-04-12T08:30:21.634Z</time></trkpt><trkpt lat="40.9887867" lon="16.1776033"><ele>511.0</ele><time>2026-04-12T08:30:22.633Z</time></trkpt><trkpt lat="40.9888933" lon="16.177805"><ele>511.0</ele><time>2026-04-12T08:30:23.634Z</time></trkpt><trkpt lat="40.9889967" lon="16.178025"><ele>511.6666666666667</ele><time>2026-04-12T08:30:24.634Z</time></trkpt><trkpt lat="40.9890917" lon="16.1782567"><ele>512.3333333333334</ele><time>2026-04-12T08:30:25.634Z</time></trkpt><trkpt lat="40.9891817" lon="16.1784983"><ele>513.0</ele><time>2026-04-12T08:30:26.636Z</time></trkpt><trkpt lat="40.9892667" lon="16.1787317"><ele>517.0</ele><time>2026-04-12T08:30:27.634Z</time></trkpt><trkpt lat="40.98934" lon="16.1789517"><ele>521.0</ele><time>2026-04-12T08:30:28.635Z</time></trkpt><trkpt lat="40.9894067" lon="16.1791517"><ele>525.0</ele><time>2026-04-12T08:30:29.635Z</time></trkpt><trkpt lat="40.98947" lon="16.1793317"><ele>525.0</ele><time>2026-04-12T08:30:30.634Z</time></trkpt><trkpt lat="40.98953" lon="16.1794967"><ele>525.0</ele><time>2026-04-12T08:30:31.635Z</time></trkpt><trkpt lat="40.9895817" lon="16.1796367"><ele>525.0</ele><time>2026-04-12T08:30:32.636Z</time></trkpt><trkpt lat="40.9896317" lon="16.1797433"><ele>525.0</ele><time>2026-04-12T08:30:33.634Z</time></trkpt><trkpt lat="40.989685" lon="16.1798317"><ele>525.0</ele><time>2026-04-12T08:30:34.634Z</time></trkpt><trkpt lat="40.9897517" lon="16.1799017"><ele>524.6</ele><time>2026-04-12T08:30:35.635Z</time></trkpt><trkpt lat="40.989845" lon="16.1799283"><ele>524.2</ele><time>2026-04-12T08:30:36.635Z</time></trkpt><trkpt lat="40.9899617" lon="16.1799217"><ele>523.8</ele><time>2026-04-12T08:30:37.635Z</time></trkpt><trkpt lat="40.99007" lon="16.1798933"><ele>523.4</ele><time>2026-04-12T08:30:38.636Z</time></trkpt><trkpt lat="40.9901683" lon="16.17983"><ele>523.0</ele><time>2026-04-12T08:30:39.634Z</time></trkpt><trkpt lat="40.9902667" lon="16.1797467"><ele>526.3333333333334</ele><time>2026-04-12T08:30:40.635Z</time></trkpt><trkpt lat="40.9905217" lon="16.1796283"><ele>529.6666666666666</ele><time>2026-04-12T08:30:42.635Z</time></trkpt><trkpt lat="40.990675" lon="16.17959"><ele>533.0</ele><time>2026-04-12T08:30:43.634Z</time></trkpt><trkpt lat="40.990835" lon="16.179555"><ele>535.0</ele><time>2026-04-12T08:30:44.634Z</time></trkpt><trkpt lat="40.9909917" lon="16.1795067"><ele>537.0</ele><time>2026-04-12T08:30:45.635Z</time></trkpt><trkpt lat="40.99113" lon="16.1794617"><ele>539.0</ele><time>2026-04-12T08:30:46.635Z</time></trkpt><trkpt lat="40.9912667" lon="16.1794367"><ele>541.0</ele><time>2026-04-12T08:30:47.634Z</time></trkpt><trkpt lat="40.99141" lon="16.1794333"><ele>541.0</ele><time>2026-04-12T08:30:48.635Z</time></trkpt><trkpt lat="40.9915533" lon="16.17946"><ele>541.0</ele><time>2026-04-12T08:30:49.635Z</time></trkpt><trkpt lat="40.991705" lon="16.1795133"><ele>541.0</ele><time>2026-04-12T08:30:50.634Z</time></trkpt><trkpt lat="40.9918667" lon="16.1795633"><ele>542.0</ele><time>2026-04-12T08:30:51.634Z</time></trkpt><trkpt lat="40.9920433" lon="16.1795883"><ele>543.0</ele><time>2026-04-12T08:30:52.634Z</time></trkpt><trkpt lat="40.99222" lon="16.17959"><ele>544.0</ele><time>2026-04-12T08:30:53.636Z</time></trkpt><trkpt lat="40.9923917" lon="16.1795867"><ele>546.3333333333334</ele><time>2026-04-12T08:30:54.634Z</time></trkpt><trkpt lat="40.99253" lon="16.1795883"><ele>548.6666666666666</ele><time>2026-04-12T08:30:55.634Z</time></trkpt><trkpt lat="40.99264" lon="16.1795783"><ele>551.0</ele><time>2026-04-12T08:30:56.635Z</time></trkpt><trkpt lat="40.9928267" lon="16.1794583"><ele>551.0</ele><time>2026-04-12T08:30:58.634Z</time></trkpt><trkpt lat="40.992915" lon="16.17935"><ele>551.0</ele><time>2026-04-12T08:30:59.636Z</time></trkpt><trkpt lat="40.993" lon="16.17924"><ele>551.0</ele><time>2026-04-12T08:31:00.634Z</time></trkpt><trkpt lat="40.993085" lon="16.17915"><ele>551.0</ele><time>2026-04-12T08:31:01.635Z</time></trkpt><trkpt lat="40.993175" lon="16.1791"><ele>551.0</ele><time>2026-04-12T08:31:02.636Z</time></trkpt><trkpt lat="40.9932633" lon="16.1790783"><ele>553.25</ele><time>2026-04-12T08:31:03.634Z</time></trkpt><trkpt lat="40.9933567" lon="16.1790833"><ele>555.5</ele><time>2026-04-12T08:31:04.635Z</time></trkpt><trkpt lat="40.9934533" lon="16.179115"><ele>557.75</ele><time>2026-04-12T08:31:05.636Z</time></trkpt><trkpt lat="40.9935567" lon="16.1792133"><ele>560.0</ele><time>2026-04-12T08:31:06.641Z</time></trkpt><trkpt lat="40.9936817" lon="16.179315"><ele>560.0</ele><time>2026-04-12T08:31:07.635Z</time></trkpt><trkpt lat="40.993835" lon="16.1794033"><ele>560.0</ele><time>2026-04-12T08:31:08.636Z</time></trkpt><trkpt lat="40.9939867" lon="16.17947"><ele>560.0</ele><time>2026-04-12T08:31:09.636Z</time></trkpt><trkpt lat="40.9941217" lon="16.1795267"><ele>561.4</ele><time>2026-04-12T08:31:10.636Z</time></trkpt><trkpt lat="40.994235" lon="16.179565"><ele>562.8</ele><time>2026-04-12T08:31:11.637Z</time></trkpt><trkpt lat="40.9943367" lon="16.17957"><ele>564.2</ele><time>2026-04-12T08:31:12.635Z</time></trkpt><trkpt lat="40.99444" lon="16.1795333"><ele>565.6</ele><time>2026-04-12T08:31:13.635Z</time></trkpt><trkpt lat="40.9945383" lon="16.179455"><ele>567.0</ele><time>2026-04-12T08:31:14.634Z</time></trkpt><trkpt lat="40.9946333" lon="16.1793367"><ele>567.0</ele><time>2026-04-12T08:31:15.635Z</time></trkpt><trkpt lat="40.9947133" lon="16.1791867"><ele>567.0</ele><time>2026-04-12T08:31:16.636Z</time></trkpt><trkpt lat="40.99478" lon="16.1790167"><ele>567.0</ele><time>2026-04-12T08:31:17.635Z</time></trkpt><trkpt lat="40.9948283" lon="16.1788167"><ele>567.0</ele><time>2026-04-12T08:31:18.634Z</time></trkpt><trkpt lat="40.99486" lon="16.1785933"><ele>568.0</ele><time>2026-04-12T08:31:19.634Z</time></trkpt><trkpt lat="40.994885" lon="16.1783667"><ele>569.0</ele><time>2026-04-12T08:31:20.634Z</time></trkpt><trkpt lat="40.9949083" lon="16.1781567"><ele>570.0</ele><time>2026-04-12T08:31:21.635Z</time></trkpt><trkpt lat="40.9949367" lon="16.177965"><ele>571.25</ele><time>2026-04-12T08:31:22.641Z</time></trkpt><trkpt lat="40.9949817" lon="16.1777917"><ele>572.5</ele><time>2026-04-12T08:31:23.634Z</time></trkpt><trkpt lat="40.9950483" lon="16.1776267"><ele>573.75</ele><time>2026-04-12T08:31:24.634Z</time></trkpt><trkpt lat="40.9951367" lon="16.1774617"><ele>575.0</ele><time>2026-04-12T08:31:25.635Z</time></trkpt><trkpt lat="40.9952433" lon="16.1773"><ele>577.0</ele><time>2026-04-12T08:31:26.635Z</time></trkpt><trkpt lat="40.9953483" lon="16.1771467"><ele>579.0</ele><time>2026-04-12T08:31:27.634Z</time></trkpt><trkpt lat="40.995435" lon="16.1769883"><ele>581.0</ele><time>2026-04-12T08:31:28.634Z</time></trkpt><trkpt lat="40.9955117" lon="16.1768167"><ele>581.0</ele><time>2026-04-12T08:31:29.635Z</time></trkpt><trkpt lat="40.9955817" lon="16.1766433"><ele>581.0</ele><time>2026-04-12T08:31:30.636Z</time></trkpt><trkpt lat="40.9956367" lon="16.1764733"><ele>581.0</ele><time>2026-04-12T08:31:31.635Z</time></trkpt><trkpt lat="40.995665" lon="16.1762833"><ele>581.0</ele><time>2026-04-12T08:31:32.639Z</time></trkpt><trkpt lat="40.9956667" lon="16.1760717"><ele>580.6666666666666</ele><time>2026-04-12T08:31:33.634Z</time></trkpt><trkpt lat="40.9956583" lon="16.17587"><ele>580.3333333333334</ele><time>2026-04-12T08:31:34.635Z</time></trkpt><trkpt lat="40.9956767" lon="16.175575"><ele>580.0</ele><time>2026-04-12T08:31:36.638Z</time></trkpt><trkpt lat="40.995725" lon="16.17546"><ele>580.5</ele><time>2026-04-12T08:31:37.634Z</time></trkpt><trkpt lat="40.9958" lon="16.1753517"><ele>581.0</ele><time>2026-04-12T08:31:38.636Z</time></trkpt><trkpt lat="40.995905" lon="16.175245"><ele>581.5</ele><time>2026-04-12T08:31:39.635Z</time></trkpt><trkpt lat="40.9960367" lon="16.1751567"><ele>582.0</ele><time>2026-04-12T08:31:40.636Z</time></trkpt><trkpt lat="40.9961917" lon="16.1750867"><ele>583.0</ele><time>2026-04-12T08:31:41.638Z</time></trkpt><trkpt lat="40.9963633" lon="16.17503"><ele>584.0</ele><time>2026-04-12T08:31:42.634Z</time></trkpt><trkpt lat="40.9965533" lon="16.1749767"><ele>585.0</ele><time>2026-04-12T08:31:43.634Z</time></trkpt><trkpt lat="40.9967533" lon="16.1749217"><ele>585.3333333333334</ele><time>2026-04-12T08:31:44.634Z</time></trkpt><trkpt lat="40.996955" lon="16.1748683"><ele>585.6666666666667</ele><time>2026-04-12T08:31:45.635Z</time></trkpt><trkpt lat="40.99714" lon="16.1748483"><ele>586.0</ele><time>2026-04-12T08:31:46.634Z</time></trkpt><trkpt lat="40.9973317" lon="16.1748533"><ele>586.5</ele><time>2026-04-12T08:31:47.634Z</time></trkpt><trkpt lat="40.9975367" lon="16.1748833"><ele>587.0</ele><time>2026-04-12T08:31:48.633Z</time></trkpt><trkpt lat="40.9981917" lon="16.1750933"><ele>587.0</ele><time>2026-04-12T08:31:51.634Z</time></trkpt><trkpt lat="40.998375" lon="16.1751583"><ele>587.0</ele><time>2026-04-12T08:31:52.635Z</time></trkpt><trkpt lat="40.9985283" lon="16.1752083"><ele>587.0</ele><time>2026-04-12T08:31:53.634Z</time></trkpt><trkpt lat="40.99866" lon="16.1752433"><ele>587.0</ele><time>2026-04-12T08:31:54.635Z</time></trkpt><trkpt lat="40.9987733" lon="16.1752533"><ele>587.0</ele><time>2026-04-12T08:31:55.634Z</time></trkpt><trkpt lat="40.998885" lon="16.1752367"><ele>587.0</ele><time>2026-04-12T08:31:56.637Z</time></trkpt><trkpt lat="40.998995" lon="16.1751817"><ele>587.0</ele><time>2026-04-12T08:31:57.635Z</time></trkpt><trkpt lat="40.9991033" lon="16.175085"><ele>587.0</ele><time>2026-04-12T08:31:58.634Z</time></trkpt><trkpt lat="40.99921" lon="16.1749533"><ele>587.0</ele><time>2026-04-12T08:31:59.635Z</time></trkpt><trkpt lat="40.9993117" lon="16.174795"><ele>587.0</ele><time>2026-04-12T08:32:00.634Z</time></trkpt><trkpt lat="40.9994133" lon="16.17462"><ele>588.6666666666666</ele><time>2026-04-12T08:32:01.634Z</time></trkpt><trkpt lat="40.9995167" lon="16.174435"><ele>590.3333333333334</ele><time>2026-04-12T08:32:02.634Z</time></trkpt><trkpt lat="40.999615" lon="16.174255"><ele>592.0</ele><time>2026-04-12T08:32:03.634Z</time></trkpt><trkpt lat="40.9997" lon="16.17408"><ele>593.6666666666667</ele><time>2026-04-12T08:32:04.635Z</time></trkpt><trkpt lat="40.9997683" lon="16.1739"><ele>595.3333333333334</ele><time>2026-04-12T08:32:05.635Z</time></trkpt><trkpt lat="40.9998233" lon="16.1737017"><ele>597.0</ele><time>2026-04-12T08:32:06.636Z</time></trkpt><trkpt lat="40.9998683" lon="16.173485"><ele>597.0</ele><time>2026-04-12T08:32:07.635Z</time></trkpt><trkpt lat="40.999915" lon="16.1732583"><ele>597.0</ele><time>2026-04-12T08:32:08.637Z</time></trkpt><trkpt lat="40.9999617" lon="16.1730267"><ele>597.0</ele><time>2026-04-12T08:32:09.635Z</time></trkpt><trkpt lat="41.00001" lon="16.172785"><ele>598.0</ele><time>2026-04-12T08:32:10.635Z</time></trkpt><trkpt lat="41.000055" lon="16.1725367"><ele>599.0</ele><time>2026-04-12T08:32:11.634Z</time></trkpt><trkpt lat="41.0000933" lon="16.1722967"><ele>600.0</ele><time>2026-04-12T08:32:12.634Z</time></trkpt><trkpt lat="41.0001283" lon="16.1720767"><ele>600.75</ele><time>2026-04-12T08:32:13.635Z</time></trkpt><trkpt lat="41.000165" lon="16.1718717"><ele>601.5</ele><time>2026-04-12T08:32:14.635Z</time></trkpt><trkpt lat="41.0002" lon="16.171695"><ele>602.25</ele><time>2026-04-12T08:32:15.635Z</time></trkpt><trkpt lat="41.000235" lon="16.1715483"><ele>603.0</ele><time>2026-04-12T08:32:16.634Z</time></trkpt><trkpt lat="41.0002783" lon="16.1714283"><ele>603.6</ele><time>2026-04-12T08:32:17.633Z</time></trkpt><trkpt lat="41.0003383" lon="16.1713233"><ele>604.1999999999999</ele><time>2026-04-12T08:32:18.634Z</time></trkpt><trkpt lat="41.0004133" lon="16.1712367"><ele>604.8</ele><time>2026-04-12T08:32:19.634Z</time></trkpt><trkpt lat="41.00051" lon="16.1711633"><ele>605.4</ele><time>2026-04-12T08:32:20.636Z</time></trkpt><trkpt lat="41.0006117" lon="16.1711083"><ele>606.0</ele><time>2026-04-12T08:32:21.633Z</time></trkpt><trkpt lat="41.00072" lon="16.17107"><ele>605.25</ele><time>2026-04-12T08:32:22.634Z</time></trkpt><trkpt lat="41.0008417" lon="16.1710483"><ele>604.5</ele><time>2026-04-12T08:32:23.635Z</time></trkpt><trkpt lat="41.00098" lon="16.17104"><ele>603.75</ele><time>2026-04-12T08:32:24.634Z</time></trkpt><trkpt lat="41.0011333" lon="16.1710467"><ele>603.0</ele><time>2026-04-12T08:32:25.634Z</time></trkpt><trkpt lat="41.0013017" lon="16.17106"><ele>603.0</ele><time>2026-04-12T08:32:26.634Z</time></trkpt><trkpt lat="41.0014683" lon="16.17107"><ele>603.0</ele><time>2026-04-12T08:32:27.634Z</time></trkpt><trkpt lat="41.001625" lon="16.171075"><ele>603.0</ele><time>2026-04-12T08:32:28.635Z</time></trkpt><trkpt lat="41.0017733" lon="16.17108"><ele>602.5</ele><time>2026-04-12T08:32:29.636Z</time></trkpt><trkpt lat="41.0019133" lon="16.171085"><ele>602.0</ele><time>2026-04-12T08:32:30.635Z</time></trkpt><trkpt lat="41.00204" lon="16.1710867"><ele>601.5</ele><time>2026-04-12T08:32:31.634Z</time></trkpt><trkpt lat="41.002145" lon="16.1710917"><ele>601.0</ele><time>2026-04-12T08:32:32.634Z</time></trkpt><trkpt lat="41.0022317" lon="16.1710967"><ele>601.0</ele><time>2026-04-12T08:32:33.634Z</time></trkpt><trkpt lat="41.0023033" lon="16.1710983"><ele>601.0</ele><time>2026-04-12T08:32:34.634Z</time></trkpt><trkpt lat="41.0024367" lon="16.1710933"><ele>601.0</ele><time>2026-04-12T08:32:36.635Z</time></trkpt><trkpt lat="41.0025267" lon="16.1710917"><ele>601.0</ele><time>2026-04-12T08:32:37.634Z</time></trkpt><trkpt lat="41.0026317" lon="16.1710917"><ele>601.0</ele><time>2026-04-12T08:32:38.637Z</time></trkpt><trkpt lat="41.0027433" lon="16.1710917"><ele>601.0</ele><time>2026-04-12T08:32:39.635Z</time></trkpt><trkpt lat="41.0028667" lon="16.1710917"><ele>601.0</ele><time>2026-04-12T08:32:40.635Z</time></trkpt><trkpt lat="41.0030017" lon="16.1710933"><ele>601.0</ele><time>2026-04-12T08:32:41.636Z</time></trkpt><trkpt lat="41.003135" lon="16.171095"><ele>601.0</ele><time>2026-04-12T08:32:42.634Z</time></trkpt><trkpt lat="41.0032567" lon="16.171105"><ele>600.6</ele><time>2026-04-12T08:32:43.634Z</time></trkpt><trkpt lat="41.00337" lon="16.17113"><ele>600.2</ele><time>2026-04-12T08:32:44.635Z</time></trkpt><trkpt lat="41.0034717" lon="16.171175"><ele>599.8</ele><time>2026-04-12T08:32:45.634Z</time></trkpt><trkpt lat="41.0035667" lon="16.1712417"><ele>599.4</ele><time>2026-04-12T08:32:46.634Z</time></trkpt><trkpt lat="41.0036633" lon="16.1713283"><ele>599.0</ele><time>2026-04-12T08:32:47.634Z</time></trkpt><trkpt lat="41.0037733" lon="16.1714283"><ele>598.6666666666666</ele><time>2026-04-12T08:32:48.636Z</time></trkpt><trkpt lat="41.003895" lon="16.17154"><ele>598.3333333333334</ele><time>2026-04-12T08:32:49.635Z</time></trkpt><trkpt lat="41.0040233" lon="16.1716617"><ele>598.0</ele><time>2026-04-12T08:32:50.634Z</time></trkpt><trkpt lat="41.0041617" lon="16.171795"><ele>597.3333333333334</ele><time>2026-04-12T08:32:51.634Z</time></trkpt><trkpt lat="41.004305" lon="16.1719367"><ele>596.6666666666666</ele><time>2026-04-12T08:32:52.633Z</time></trkpt><trkpt lat="41.0044583" lon="16.1720767"><ele>596.0</ele><time>2026-04-12T08:32:53.634Z</time></trkpt><trkpt lat="41.0046217" lon="16.1722167"><ele>596.0</ele><time>2026-04-12T08:32:54.634Z</time></trkpt><trkpt lat="41.0047933" lon="16.1723567"><ele>596.0</ele><time>2026-04-12T08:32:55.634Z</time></trkpt><trkpt lat="41.0049683" lon="16.1725067"><ele>596.0</ele><time>2026-04-12T08:32:56.637Z</time></trkpt><trkpt lat="41.0051433" lon="16.17266"><ele>596.0</ele><time>2026-04-12T08:32:57.633Z</time></trkpt><trkpt lat="41.0053167" lon="16.17281"><ele>596.0</ele><time>2026-04-12T08:32:58.634Z</time></trkpt><trkpt lat="41.0054917" lon="16.1729567"><ele>596.0</ele><time>2026-04-12T08:32:59.635Z</time></trkpt><trkpt lat="41.0058583" lon="16.1732667"><ele>599.0</ele><time>2026-04-12T08:33:01.635Z</time></trkpt><trkpt lat="41.00605" lon="16.1734283"><ele>602.0</ele><time>2026-04-12T08:33:02.635Z</time></trkpt><trkpt lat="41.0062533" lon="16.1735983"><ele>602.0</ele><time>2026-04-12T08:33:03.636Z</time></trkpt><trkpt lat="41.006465" lon="16.1737767"><ele>602.0</ele><time>2026-04-12T08:33:04.636Z</time></trkpt><trkpt lat="41.006685" lon="16.1739583"><ele>602.0</ele><time>2026-04-12T08:33:05.634Z</time></trkpt><trkpt lat="41.0069117" lon="16.1741417"><ele>602.0</ele><time>2026-04-12T08:33:06.634Z</time></trkpt><trkpt lat="41.0071433" lon="16.17433"><ele>602.0</ele><time>2026-04-12T08:33:07.636Z</time></trkpt><trkpt lat="41.0073783" lon="16.1745267"><ele>602.0</ele><time>2026-04-12T08:33:08.636Z</time></trkpt><trkpt lat="41.0076167" lon="16.1747267"><ele>602.0</ele><time>2026-04-12T08:33:09.635Z</time></trkpt><trkpt lat="41.0078533" lon="16.1749267"><ele>602.0</ele><time>2026-04-12T08:33:10.635Z</time></trkpt><trkpt lat="41.008525" lon="16.1755033"><ele>603.5</ele><time>2026-04-12T08:33:13.635Z</time></trkpt><trkpt lat="41.008745" lon="16.1756933"><ele>605.0</ele><time>2026-04-12T08:33:14.634Z</time></trkpt><trkpt lat="41.0089683" lon="16.175885"><ele>605.0</ele><time>2026-04-12T08:33:15.635Z</time></trkpt><trkpt lat="41.0094267" lon="16.1762717"><ele>605.0</ele><time>2026-04-12T08:33:17.633Z</time></trkpt><trkpt lat="41.0096617" lon="16.17647"><ele>605.0</ele><time>2026-04-12T08:33:18.634Z</time></trkpt><trkpt lat="41.0099" lon="16.17667"><ele>607.0</ele><time>2026-04-12T08:33:19.634Z</time></trkpt><trkpt lat="41.01014" lon="16.17687"><ele>609.0</ele><time>2026-04-12T08:33:20.634Z</time></trkpt><trkpt lat="41.0103717" lon="16.177065"><ele>609.0</ele><time>2026-04-12T08:33:21.634Z</time></trkpt><trkpt lat="41.0105867" lon="16.177245"><ele>609.0</ele><time>2026-04-12T08:33:22.633Z</time></trkpt><trkpt lat="41.0107867" lon="16.177415"><ele>610.3333333333334</ele><time>2026-04-12T08:33:23.633Z</time></trkpt><trkpt lat="41.0109767" lon="16.1775783"><ele>611.6666666666667</ele><time>2026-04-12T08:33:24.634Z</time></trkpt><trkpt lat="41.0111633" lon="16.1777383"><ele>613.0</ele><time>2026-04-12T08:33:25.634Z</time></trkpt><trkpt lat="41.01134" lon="16.1778883"><ele>613.0</ele><time>2026-04-12T08:33:26.634Z</time></trkpt><trkpt lat="41.0115067" lon="16.1780283"><ele>613.0</ele><time>2026-04-12T08:33:27.634Z</time></trkpt><trkpt lat="41.0116667" lon="16.1781533"><ele>613.0</ele><time>2026-04-12T08:33:28.636Z</time></trkpt><trkpt lat="41.011825" lon="16.17827"><ele>614.0</ele><time>2026-04-12T08:33:29.635Z</time></trkpt><trkpt lat="41.0119933" lon="16.1783767"><ele>615.0</ele><time>2026-04-12T08:33:30.635Z</time></trkpt><trkpt lat="41.0121767" lon="16.17847"><ele>616.0</ele><time>2026-04-12T08:33:31.635Z</time></trkpt><trkpt lat="41.0123767" lon="16.1785567"><ele>616.3333333333334</ele><time>2026-04-12T08:33:32.636Z</time></trkpt><trkpt lat="41.0125833" lon="16.1786433"><ele>616.6666666666666</ele><time>2026-04-12T08:33:33.635Z</time></trkpt><trkpt lat="41.0127983" lon="16.178735"><ele>617.0</ele><time>2026-04-12T08:33:34.634Z</time></trkpt><trkpt lat="41.0130183" lon="16.178825"><ele>617.0</ele><time>2026-04-12T08:33:35.634Z</time></trkpt><trkpt lat="41.0132417" lon="16.1789183"><ele>617.0</ele><time>2026-04-12T08:33:36.636Z</time></trkpt><trkpt lat="41.0134733" lon="16.17902"><ele>617.0</ele><time>2026-04-12T08:33:37.634Z</time></trkpt><trkpt lat="41.0137167" lon="16.1791283"><ele>617.0</ele><time>2026-04-12T08:33:38.638Z</time></trkpt><trkpt lat="41.013965" lon="16.1792417"><ele>615.5</ele><time>2026-04-12T08:33:39.634Z</time></trkpt><trkpt lat="41.0142183" lon="16.179355"><ele>614.0</ele><time>2026-04-12T08:33:40.633Z</time></trkpt><trkpt lat="41.01448" lon="16.1794717"><ele>614.0</ele><time>2026-04-12T08:33:41.633Z</time></trkpt><trkpt lat="41.0147467" lon="16.1795933"><ele>614.0</ele><time>2026-04-12T08:33:42.634Z</time></trkpt><trkpt lat="41.0150183" lon="16.1797167"><ele>612.5</ele><time>2026-04-12T08:33:43.634Z</time></trkpt><trkpt lat="41.0152867" lon="16.1798367"><ele>611.0</ele><time>2026-04-12T08:33:44.635Z</time></trkpt><trkpt lat="41.0155433" lon="16.1799517"><ele>610.0</ele><time>2026-04-12T08:33:45.634Z</time></trkpt><trkpt lat="41.0157867" lon="16.1800633"><ele>609.0</ele><time>2026-04-12T08:33:46.634Z</time></trkpt><trkpt lat="41.0160183" lon="16.1801683"><ele>607.5</ele><time>2026-04-12T08:33:47.634Z</time></trkpt><trkpt lat="41.0162383" lon="16.1802683"><ele>606.0</ele><time>2026-04-12T08:33:48.635Z</time></trkpt><trkpt lat="41.016455" lon="16.180365"><ele>606.0</ele><time>2026-04-12T08:33:49.635Z</time></trkpt><trkpt lat="41.0166717" lon="16.1804633"><ele>606.0</ele><time>2026-04-12T08:33:50.635Z</time></trkpt><trkpt lat="41.0168817" lon="16.1805567"><ele>606.0</ele><time>2026-04-12T08:33:51.634Z</time></trkpt><trkpt lat="41.017075" lon="16.1806433"><ele>606.0</ele><time>2026-04-12T08:33:52.637Z</time></trkpt><trkpt lat="41.017255" lon="16.180725"><ele>606.0</ele><time>2026-04-12T08:33:53.635Z</time></trkpt><trkpt lat="41.017425" lon="16.1808033"><ele>605.6666666666666</ele><time>2026-04-12T08:33:54.635Z</time></trkpt><trkpt lat="41.0175867" lon="16.1808833"><ele>605.3333333333333</ele><time>2026-04-12T08:33:55.634Z</time></trkpt><trkpt lat="41.01775" lon="16.1809817"><ele>605.0</ele><time>2026-04-12T08:33:56.635Z</time></trkpt><trkpt lat="41.0179183" lon="16.18111"><ele>605.0</ele><time>2026-04-12T08:33:57.637Z</time></trkpt><trkpt lat="41.0180917" lon="16.1812667"><ele>605.0</ele><time>2026-04-12T08:33:58.635Z</time></trkpt><trkpt lat="41.0182767" lon="16.18145"><ele>605.0</ele><time>2026-04-12T08:33:59.634Z</time></trkpt><trkpt lat="41.0184683" lon="16.1816483"><ele>602.5</ele><time>2026-04-12T08:34:00.634Z</time></trkpt><trkpt lat="41.01867" lon="16.181855"><ele>600.0</ele><time>2026-04-12T08:34:01.634Z</time></trkpt><trkpt lat="41.01888" lon="16.182065"><ele>600.0</ele><time>2026-04-12T08:34:02.637Z</time></trkpt><trkpt lat="41.0190967" lon="16.18228"><ele>600.0</ele><time>2026-04-12T08:34:03.634Z</time></trkpt><trkpt lat="41.0193133" lon="16.1824933"><ele>597.0</ele><time>2026-04-12T08:34:04.635Z</time></trkpt><trkpt lat="41.0195283" lon="16.1827067"><ele>594.0</ele><time>2026-04-12T08:34:05.634Z</time></trkpt><trkpt lat="41.0197417" lon="16.1829217"><ele>594.0</ele><time>2026-04-12T08:34:06.636Z</time></trkpt><trkpt lat="41.0199517" lon="16.1831367"><ele>594.0</ele><time>2026-04-12T08:34:07.638Z</time></trkpt><trkpt lat="41.0201583" lon="16.1833467"><ele>591.5</ele><time>2026-04-12T08:34:08.635Z</time></trkpt><trkpt lat="41.020365" lon="16.1835567"><ele>589.0</ele><time>2026-04-12T08:34:09.635Z</time></trkpt><trkpt lat="41.020575" lon="16.18378"><ele>582.0</ele><time>2026-04-12T08:34:10.634Z</time></trkpt><trkpt lat="41.0211767" lon="16.1845067"><ele>582.0</ele><time>2026-04-12T08:34:13.633Z</time></trkpt><trkpt lat="41.02136" lon="16.1847383"><ele>582.0</ele><time>2026-04-12T08:34:14.634Z</time></trkpt><trkpt lat="41.021535" lon="16.1849617"><ele>580.5</ele><time>2026-04-12T08:34:15.635Z</time></trkpt><trkpt lat="41.0217067" lon="16.1851783"><ele>579.0</ele><time>2026-04-12T08:34:16.633Z</time></trkpt><trkpt lat="41.0218767" lon="16.1853983"><ele>579.0</ele><time>2026-04-12T08:34:17.635Z</time></trkpt><trkpt lat="41.0220483" lon="16.1856133"><ele>579.0</ele><time>2026-04-12T08:34:18.634Z</time></trkpt><trkpt lat="41.022215" lon="16.1858167"><ele>578.3333333333334</ele><time>2026-04-12T08:34:19.634Z</time></trkpt><trkpt lat="41.0223717" lon="16.1860117"><ele>577.6666666666667</ele><time>2026-04-12T08:34:20.639Z</time></trkpt><trkpt lat="41.0225167" lon="16.1862017"><ele>577.0</ele><time>2026-04-12T08:34:21.634Z</time></trkpt><trkpt lat="41.0226567" lon="16.1863833"><ele>577.0</ele><time>2026-04-12T08:34:22.635Z</time></trkpt><trkpt lat="41.0227883" lon="16.1865533"><ele>577.0</ele><time>2026-04-12T08:34:23.636Z</time></trkpt><trkpt lat="41.02291" lon="16.1867083"><ele>577.0</ele><time>2026-04-12T08:34:24.634Z</time></trkpt><trkpt lat="41.0230233" lon="16.186845"><ele>577.0</ele><time>2026-04-12T08:34:25.634Z</time></trkpt><trkpt lat="41.0231217" lon="16.1869633"><ele>577.0</ele><time>2026-04-12T08:34:26.635Z</time></trkpt><trkpt lat="41.0232233" lon="16.1870583"><ele>577.0</ele><time>2026-04-12T08:34:27.634Z</time></trkpt><trkpt lat="41.0233367" lon="16.1871333"><ele>577.0</ele><time>2026-04-12T08:34:28.633Z</time></trkpt><trkpt lat="41.0234717" lon="16.1871833"><ele>576.6666666666667</ele><time>2026-04-12T08:34:29.634Z</time></trkpt><trkpt lat="41.02363" lon="16.187205"><ele>576.3333333333334</ele><time>2026-04-12T08:34:30.634Z</time></trkpt><trkpt lat="41.0238067" lon="16.187205"><ele>576.0</ele><time>2026-04-12T08:34:31.637Z</time></trkpt><trkpt lat="41.0239983" lon="16.1872017"><ele>574.6666666666666</ele><time>2026-04-12T08:34:32.634Z</time></trkpt><trkpt lat="41.0241917" lon="16.1872033"><ele>573.3333333333333</ele><time>2026-04-12T08:34:33.633Z</time></trkpt><trkpt lat="41.0243567" lon="16.1872"><ele>572.0</ele><time>2026-04-12T08:34:34.635Z</time></trkpt><trkpt lat="41.02449" lon="16.1872033"><ele>572.0</ele><time>2026-04-12T08:34:35.635Z</time></trkpt><trkpt lat="41.0246017" lon="16.1872217"><ele>572.0</ele><time>2026-04-12T08:34:36.634Z</time></trkpt><trkpt lat="41.0246933" lon="16.1872683"><ele>572.0</ele><time>2026-04-12T08:34:37.635Z</time></trkpt><trkpt lat="41.0247733" lon="16.187345"><ele>572.0</ele><time>2026-04-12T08:34:38.635Z</time></trkpt><trkpt lat="41.0248717" lon="16.1876117"><ele>572.6666666666666</ele><time>2026-04-12T08:34:40.633Z</time></trkpt><trkpt lat="41.0249" lon="16.187795"><ele>573.3333333333334</ele><time>2026-04-12T08:34:41.635Z</time></trkpt><trkpt lat="41.0249217" lon="16.1879967"><ele>574.0</ele><time>2026-04-12T08:34:42.635Z</time></trkpt><trkpt lat="41.0249483" lon="16.1882083"><ele>574.0</ele><time>2026-04-12T08:34:43.634Z</time></trkpt><trkpt lat="41.024975" lon="16.1884283"><ele>574.0</ele><time>2026-04-12T08:34:44.634Z</time></trkpt><trkpt lat="41.0250083" lon="16.1886567"><ele>574.0</ele><time>2026-04-12T08:34:45.635Z</time></trkpt><trkpt lat="41.0250467" lon="16.1888867"><ele>574.6666666666667</ele><time>2026-04-12T08:34:46.634Z</time></trkpt><trkpt lat="41.025085" lon="16.189125"><ele>575.3333333333334</ele><time>2026-04-12T08:34:47.634Z</time></trkpt><trkpt lat="41.0251233" lon="16.189375"><ele>576.0</ele><time>2026-04-12T08:34:48.633Z</time></trkpt><trkpt lat="41.0251617" lon="16.1896333"><ele>576.3333333333334</ele><time>2026-04-12T08:34:49.634Z</time></trkpt><trkpt lat="41.0252017" lon="16.1898983"><ele>576.6666666666667</ele><time>2026-04-12T08:34:50.635Z</time></trkpt><trkpt lat="41.0252417" lon="16.190165"><ele>577.0</ele><time>2026-04-12T08:34:51.633Z</time></trkpt><trkpt lat="41.0252783" lon="16.1904333"><ele>577.5</ele><time>2026-04-12T08:34:52.634Z</time></trkpt><trkpt lat="41.0253583" lon="16.190975"><ele>578.0</ele><time>2026-04-12T08:34:54.635Z</time></trkpt><trkpt lat="41.0254" lon="16.1912433"><ele>578.0</ele><time>2026-04-12T08:34:55.634Z</time></trkpt><trkpt lat="41.0254383" lon="16.191495"><ele>578.0</ele><time>2026-04-12T08:34:56.634Z</time></trkpt><trkpt lat="41.02547" lon="16.1917283"><ele>578.0</ele><time>2026-04-12T08:34:57.634Z</time></trkpt><trkpt lat="41.0255033" lon="16.1919533"><ele>578.75</ele><time>2026-04-12T08:34:58.634Z</time></trkpt><trkpt lat="41.0255467" lon="16.1921567"><ele>579.5</ele><time>2026-04-12T08:34:59.634Z</time></trkpt><trkpt lat="41.0256033" lon="16.1923333"><ele>580.25</ele><time>2026-04-12T08:35:00.633Z</time></trkpt><trkpt lat="41.0256717" lon="16.192485"><ele>581.0</ele><time>2026-04-12T08:35:01.634Z</time></trkpt><trkpt lat="41.025755" lon="16.1926233"><ele>583.25</ele><time>2026-04-12T08:35:02.635Z</time></trkpt><trkpt lat="41.0258567" lon="16.1927517"><ele>585.5</ele><time>2026-04-12T08:35:03.633Z</time></trkpt><trkpt lat="41.025975" lon="16.1928667"><ele>587.75</ele><time>2026-04-12T08:35:04.635Z</time></trkpt><trkpt lat="41.0261067" lon="16.1929617"><ele>590.0</ele><time>2026-04-12T08:35:05.634Z</time></trkpt><trkpt lat="41.0262533" lon="16.1930417"><ele>590.0</ele><time>2026-04-12T08:35:06.633Z</time></trkpt><trkpt lat="41.0264067" lon="16.19311"><ele>590.0</ele><time>2026-04-12T08:35:07.634Z</time></trkpt><trkpt lat="41.02657" lon="16.19318"><ele>590.0</ele><time>2026-04-12T08:35:08.635Z</time></trkpt><trkpt lat="41.0267417" lon="16.193255"><ele>591.3333333333333</ele><time>2026-04-12T08:35:09.635Z</time></trkpt><trkpt lat="41.0269183" lon="16.193335"><ele>592.6666666666666</ele><time>2026-04-12T08:35:10.634Z</time></trkpt><trkpt lat="41.0270933" lon="16.1934183"><ele>594.0</ele><time>2026-04-12T08:35:11.634Z</time></trkpt><trkpt lat="41.0272717" lon="16.193505"><ele>594.0</ele><time>2026-04-12T08:35:12.633Z</time></trkpt><trkpt lat="41.0274483" lon="16.193595"><ele>594.0</ele><time>2026-04-12T08:35:13.635Z</time></trkpt><trkpt lat="41.0276233" lon="16.1936783"><ele>594.0</ele><time>2026-04-12T08:35:14.635Z</time></trkpt><trkpt lat="41.0277933" lon="16.193755"><ele>594.6666666666666</ele><time>2026-04-12T08:35:15.634Z</time></trkpt><trkpt lat="41.02796" lon="16.193825"><ele>595.3333333333333</ele><time>2026-04-12T08:35:16.634Z</time></trkpt><trkpt lat="41.02812" lon="16.1938933"><ele>596.0</ele><time>2026-04-12T08:35:17.635Z</time></trkpt><trkpt lat="41.028275" lon="16.1939617"><ele>594.3333333333333</ele><time>2026-04-12T08:35:18.634Z</time></trkpt><trkpt lat="41.028425" lon="16.1940333"><ele>592.6666666666666</ele><time>2026-04-12T08:35:19.635Z</time></trkpt><trkpt lat="41.0285717" lon="16.1941067"><ele>591.0</ele><time>2026-04-12T08:35:20.637Z</time></trkpt><trkpt lat="41.0287117" lon="16.194185"><ele>591.0</ele><time>2026-04-12T08:35:21.633Z</time></trkpt><trkpt lat="41.028845" lon="16.19427"><ele>591.0</ele><time>2026-04-12T08:35:22.633Z</time></trkpt><trkpt lat="41.028955" lon="16.1943533"><ele>591.0</ele><time>2026-04-12T08:35:23.635Z</time></trkpt><trkpt lat="41.02904" lon="16.1944283"><ele>591.0</ele><time>2026-04-12T08:35:24.634Z</time></trkpt><trkpt lat="41.0291067" lon="16.194495"><ele>590.1666666666666</ele><time>2026-04-12T08:35:25.635Z</time></trkpt><trkpt lat="41.0291633" lon="16.1945617"><ele>589.3333333333334</ele><time>2026-04-12T08:35:26.634Z</time></trkpt><trkpt lat="41.02924" lon="16.1946633"><ele>588.5</ele><time>2026-04-12T08:35:28.634Z</time></trkpt><trkpt lat="41.0293167" lon="16.194755"><ele>587.6666666666667</ele><time>2026-04-12T08:35:30.641Z</time></trkpt><trkpt lat="41.0293633" lon="16.1948183"><ele>586.8333333333334</ele><time>2026-04-12T08:35:31.633Z</time></trkpt><trkpt lat="41.02942" lon="16.1949033"><ele>586.0</ele><time>2026-04-12T08:35:32.634Z</time></trkpt><trkpt lat="41.029485" lon="16.19501"><ele>586.0</ele><time>2026-04-12T08:35:33.634Z</time></trkpt><trkpt lat="41.0295583" lon="16.1951367"><ele>586.0</ele><time>2026-04-12T08:35:34.635Z</time></trkpt><trkpt lat="41.0296367" lon="16.1952767"><ele>586.0</ele><time>2026-04-12T08:35:35.633Z</time></trkpt><trkpt lat="41.0297183" lon="16.19543"><ele>586.0</ele><time>2026-04-12T08:35:36.633Z</time></trkpt><trkpt lat="41.029805" lon="16.1955933"><ele>585.3333333333334</ele><time>2026-04-12T08:35:37.634Z</time></trkpt><trkpt lat="41.0298967" lon="16.1957617"><ele>584.6666666666666</ele><time>2026-04-12T08:35:38.634Z</time></trkpt><trkpt lat="41.0299967" lon="16.19594"><ele>584.0</ele><time>2026-04-12T08:35:39.634Z</time></trkpt><trkpt lat="41.0301083" lon="16.1961367"><ele>581.6666666666666</ele><time>2026-04-12T08:35:40.634Z</time></trkpt><trkpt lat="41.0302283" lon="16.1963467"><ele>579.3333333333334</ele><time>2026-04-12T08:35:41.633Z</time></trkpt><trkpt lat="41.0303517" lon="16.1965617"><ele>577.0</ele><time>2026-04-12T08:35:42.634Z</time></trkpt><trkpt lat="41.03048" lon="16.1967867"><ele>576.3333333333334</ele><time>2026-04-12T08:35:43.633Z</time></trkpt><trkpt lat="41.0306117" lon="16.1970167"><ele>575.6666666666666</ele><time>2026-04-12T08:35:44.634Z</time></trkpt><trkpt lat="41.0307467" lon="16.197255"><ele>575.0</ele><time>2026-04-12T08:35:45.633Z</time></trkpt><trkpt lat="41.0308867" lon="16.1975017"><ele>571.5</ele><time>2026-04-12T08:35:46.634Z</time></trkpt><trkpt lat="41.0310267" lon="16.1977533"><ele>568.0</ele><time>2026-04-12T08:35:47.635Z</time></trkpt><trkpt lat="41.0311683" lon="16.1980067"><ele>567.5</ele><time>2026-04-12T08:35:48.634Z</time></trkpt><trkpt lat="41.0313117" lon="16.1982633"><ele>567.0</ele><time>2026-04-12T08:35:49.634Z</time></trkpt><trkpt lat="41.03146" lon="16.19852"><ele>567.0</ele><time>2026-04-12T08:35:50.636Z</time></trkpt><trkpt lat="41.0316067" lon="16.1987783"><ele>567.0</ele><time>2026-04-12T08:35:51.633Z</time></trkpt><trkpt lat="41.031755" lon="16.1990383"><ele>568.5</ele><time>2026-04-12T08:35:52.634Z</time></trkpt><trkpt lat="41.0319017" lon="16.1992983"><ele>570.0</ele><time>2026-04-12T08:35:53.634Z</time></trkpt><trkpt lat="41.0320467" lon="16.19956"><ele>570.0</ele><time>2026-04-12T08:35:54.638Z</time></trkpt><trkpt lat="41.0321933" lon="16.1998217"><ele>570.0</ele><time>2026-04-12T08:35:55.633Z</time></trkpt><trkpt lat="41.0323433" lon="16.2000833"><ele>569.5</ele><time>2026-04-12T08:35:56.635Z</time></trkpt><trkpt lat="41.03249" lon="16.20034"><ele>569.0</ele><time>2026-04-12T08:35:57.634Z</time></trkpt><trkpt lat="41.0326367" lon="16.2005933"><ele>572.0</ele><time>2026-04-12T08:35:58.634Z</time></trkpt><trkpt lat="41.0329217" lon="16.2010983"><ele>572.0</ele><time>2026-04-12T08:36:00.634Z</time></trkpt><trkpt lat="41.03306" lon="16.2013467"><ele>572.0</ele><time>2026-04-12T08:36:01.633Z</time></trkpt><trkpt lat="41.0331883" lon="16.20158"><ele>572.3333333333333</ele><time>2026-04-12T08:36:02.634Z</time></trkpt><trkpt lat="41.03331" lon="16.2017967"><ele>572.6666666666666</ele><time>2026-04-12T08:36:03.635Z</time></trkpt><trkpt lat="41.033425" lon="16.2019983"><ele>573.0</ele><time>2026-04-12T08:36:04.633Z</time></trkpt><trkpt lat="41.0335333" lon="16.202185"><ele>574.3333333333334</ele><time>2026-04-12T08:36:05.636Z</time></trkpt><trkpt lat="41.033645" lon="16.2023533"><ele>575.6666666666667</ele><time>2026-04-12T08:36:06.634Z</time></trkpt><trkpt lat="41.0337667" lon="16.2025133"><ele>577.0</ele><time>2026-04-12T08:36:07.634Z</time></trkpt><trkpt lat="41.033905" lon="16.20267"><ele>577.0</ele><time>2026-04-12T08:36:08.636Z</time></trkpt><trkpt lat="41.0340467" lon="16.202825"><ele>577.0</ele><time>2026-04-12T08:36:09.633Z</time></trkpt><trkpt lat="41.034175" lon="16.2029717"><ele>577.0</ele><time>2026-04-12T08:36:10.633Z</time></trkpt><trkpt lat="41.0342817" lon="16.2030967"><ele>577.75</ele><time>2026-04-12T08:36:11.633Z</time></trkpt><trkpt lat="41.0343667" lon="16.2032"><ele>578.5</ele><time>2026-04-12T08:36:12.633Z</time></trkpt><trkpt lat="41.034435" lon="16.2033067"><ele>579.25</ele><time>2026-04-12T08:36:13.634Z</time></trkpt><trkpt lat="41.0344933" lon="16.2034367"><ele>580.0</ele><time>2026-04-12T08:36:14.635Z</time></trkpt><trkpt lat="41.0345417" lon="16.2035933"><ele>580.0</ele><time>2026-04-12T08:36:15.635Z</time></trkpt><trkpt lat="41.034585" lon="16.2037767"><ele>580.0</ele><time>2026-04-12T08:36:16.633Z</time></trkpt><trkpt lat="41.0346317" lon="16.2039833"><ele>580.0</ele><time>2026-04-12T08:36:17.634Z</time></trkpt><trkpt lat="41.0346833" lon="16.2042033"><ele>580.0</ele><time>2026-04-12T08:36:18.633Z</time></trkpt><trkpt lat="41.03474" lon="16.2044367"><ele>580.0</ele><time>2026-04-12T08:36:19.639Z</time></trkpt><trkpt lat="41.0348017" lon="16.2046783"><ele>580.0</ele><time>2026-04-12T08:36:20.634Z</time></trkpt><trkpt lat="41.03486" lon="16.2049183"><ele>580.0</ele><time>2026-04-12T08:36:21.633Z</time></trkpt><trkpt lat="41.0349133" lon="16.2051433"><ele>580.0</ele><time>2026-04-12T08:36:22.637Z</time></trkpt><trkpt lat="41.0349583" lon="16.205345"><ele>580.0</ele><time>2026-04-12T08:36:23.635Z</time></trkpt><trkpt lat="41.0350017" lon="16.2055217"><ele>577.5</ele><time>2026-04-12T08:36:24.635Z</time></trkpt><trkpt lat="41.0350483" lon="16.205675"><ele>575.0</ele><time>2026-04-12T08:36:25.638Z</time></trkpt><trkpt lat="41.035115" lon="16.205825"><ele>572.5</ele><time>2026-04-12T08:36:26.635Z</time></trkpt><trkpt lat="41.0352067" lon="16.2059733"><ele>570.0</ele><time>2026-04-12T08:36:27.633Z</time></trkpt><trkpt lat="41.0353217" lon="16.2061267"><ele>570.0</ele><time>2026-04-12T08:36:28.634Z</time></trkpt><trkpt lat="41.03545" lon="16.2062883"><ele>570.0</ele><time>2026-04-12T08:36:29.633Z</time></trkpt><trkpt lat="41.0355867" lon="16.2064683"><ele>570.0</ele><time>2026-04-12T08:36:30.634Z</time></trkpt><trkpt lat="41.0357267" lon="16.2066617"><ele>566.6666666666666</ele><time>2026-04-12T08:36:31.633Z</time></trkpt><trkpt lat="41.0358667" lon="16.2068617"><ele>563.3333333333333</ele><time>2026-04-12T08:36:32.634Z</time></trkpt><trkpt lat="41.0360067" lon="16.2070633"><ele>560.0</ele><time>2026-04-12T08:36:33.633Z</time></trkpt><trkpt lat="41.0361417" lon="16.2072633"><ele>557.6666666666666</ele><time>2026-04-12T08:36:34.634Z</time></trkpt><trkpt lat="41.03627" lon="16.207475"><ele>555.3333333333334</ele><time>2026-04-12T08:36:35.634Z</time></trkpt><trkpt lat="41.0363933" lon="16.2076983"><ele>553.0</ele><time>2026-04-12T08:36:36.634Z</time></trkpt><trkpt lat="41.036505" lon="16.20794"><ele>552.3333333333334</ele><time>2026-04-12T08:36:37.635Z</time></trkpt><trkpt lat="41.03661" lon="16.2081867"><ele>551.6666666666666</ele><time>2026-04-12T08:36:38.636Z</time></trkpt><trkpt lat="41.0367083" lon="16.2084383"><ele>551.0</ele><time>2026-04-12T08:36:39.633Z</time></trkpt><trkpt lat="41.0368017" lon="16.2086917"><ele>550.3333333333333</ele><time>2026-04-12T08:36:40.634Z</time></trkpt><trkpt lat="41.0368933" lon="16.2089433"><ele>549.6666666666666</ele><time>2026-04-12T08:36:41.633Z</time></trkpt><trkpt lat="41.0369833" lon="16.209195"><ele>549.0</ele><time>2026-04-12T08:36:42.633Z</time></trkpt><trkpt lat="41.037075" lon="16.2094467"><ele>548.0</ele><time>2026-04-12T08:36:43.634Z</time></trkpt><trkpt lat="41.0371717" lon="16.209695"><ele>547.0</ele><time>2026-04-12T08:36:44.634Z</time></trkpt><trkpt lat="41.0372683" lon="16.2099433"><ele>546.0</ele><time>2026-04-12T08:36:45.634Z</time></trkpt><trkpt lat="41.0373617" lon="16.21019"><ele>545.3333333333334</ele><time>2026-04-12T08:36:46.634Z</time></trkpt><trkpt lat="41.0374517" lon="16.2104383"><ele>544.6666666666667</ele><time>2026-04-12T08:36:47.633Z</time></trkpt><trkpt lat="41.0375467" lon="16.2106867"><ele>544.0</ele><time>2026-04-12T08:36:48.635Z</time></trkpt><trkpt lat="41.0376433" lon="16.2109317"><ele>542.6666666666667</ele><time>2026-04-12T08:36:49.634Z</time></trkpt><trkpt lat="41.0377467" lon="16.211175"><ele>541.3333333333334</ele><time>2026-04-12T08:36:50.634Z</time></trkpt><trkpt lat="41.0378517" lon="16.2114167"><ele>540.0</ele><time>2026-04-12T08:36:51.633Z</time></trkpt><trkpt lat="41.0379567" lon="16.21165"><ele>539.3333333333334</ele><time>2026-04-12T08:36:52.638Z</time></trkpt><trkpt lat="41.0380617" lon="16.211875"><ele>538.6666666666667</ele><time>2026-04-12T08:36:53.634Z</time></trkpt><trkpt lat="41.0381667" lon="16.2121"><ele>538.0</ele><time>2026-04-12T08:36:54.634Z</time></trkpt><trkpt lat="41.03827" lon="16.2123217"><ele>537.6666666666667</ele><time>2026-04-12T08:36:55.636Z</time></trkpt><trkpt lat="41.038375" lon="16.21255"><ele>537.3333333333334</ele><time>2026-04-12T08:36:56.635Z</time></trkpt><trkpt lat="41.03848" lon="16.21278"><ele>537.0</ele><time>2026-04-12T08:36:57.635Z</time></trkpt><trkpt lat="41.03859" lon="16.2130117"><ele>537.3333333333334</ele><time>2026-04-12T08:36:58.633Z</time></trkpt><trkpt lat="41.0387" lon="16.21324"><ele>537.6666666666667</ele><time>2026-04-12T08:36:59.633Z</time></trkpt><trkpt lat="41.0388067" lon="16.2134583"><ele>538.0</ele><time>2026-04-12T08:37:00.633Z</time></trkpt><trkpt lat="41.0389067" lon="16.21368"><ele>538.0</ele><time>2026-04-12T08:37:01.641Z</time></trkpt><trkpt lat="41.0390083" lon="16.213905"><ele>538.0</ele><time>2026-04-12T08:37:02.634Z</time></trkpt><trkpt lat="41.0391117" lon="16.214125"><ele>538.0</ele><time>2026-04-12T08:37:03.633Z</time></trkpt><trkpt lat="41.0392133" lon="16.2143367"><ele>537.3333333333334</ele><time>2026-04-12T08:37:04.633Z</time></trkpt><trkpt lat="41.0393133" lon="16.2145467"><ele>536.6666666666666</ele><time>2026-04-12T08:37:05.635Z</time></trkpt><trkpt lat="41.03941" lon="16.21475"><ele>536.0</ele><time>2026-04-12T08:37:06.634Z</time></trkpt><trkpt lat="41.0395017" lon="16.214945"><ele>536.0</ele><time>2026-04-12T08:37:07.634Z</time></trkpt><trkpt lat="41.03959" lon="16.2151317"><ele>536.0</ele><time>2026-04-12T08:37:08.633Z</time></trkpt><trkpt lat="41.0396767" lon="16.2153183"><ele>536.0</ele><time>2026-04-12T08:37:09.634Z</time></trkpt><trkpt lat="41.0397633" lon="16.2155033"><ele>535.6666666666666</ele><time>2026-04-12T08:37:10.634Z</time></trkpt><trkpt lat="41.0398483" lon="16.215685"><ele>535.3333333333334</ele><time>2026-04-12T08:37:11.635Z</time></trkpt><trkpt lat="41.039935" lon="16.2158667"><ele>535.0</ele><time>2026-04-12T08:37:12.635Z</time></trkpt><trkpt lat="41.0400183" lon="16.21605"><ele>535.0</ele><time>2026-04-12T08:37:13.634Z</time></trkpt><trkpt lat="41.0401" lon="16.216235"><ele>535.0</ele><time>2026-04-12T08:37:14.634Z</time></trkpt><trkpt lat="41.0401833" lon="16.2164217"><ele>535.0</ele><time>2026-04-12T08:37:15.633Z</time></trkpt><trkpt lat="41.040265" lon="16.2166017"><ele>536.5</ele><time>2026-04-12T08:37:16.635Z</time></trkpt><trkpt lat="41.040345" lon="16.2167717"><ele>538.0</ele><time>2026-04-12T08:37:17.633Z</time></trkpt><trkpt lat="41.0404183" lon="16.2169283"><ele>539.5</ele><time>2026-04-12T08:37:18.633Z</time></trkpt><trkpt lat="41.04049" lon="16.2170783"><ele>541.0</ele><time>2026-04-12T08:37:19.636Z</time></trkpt><trkpt lat="41.0405583" lon="16.2172183"><ele>541.0</ele><time>2026-04-12T08:37:20.635Z</time></trkpt><trkpt lat="41.0406267" lon="16.217355"><ele>541.0</ele><time>2026-04-12T08:37:21.634Z</time></trkpt><trkpt lat="41.0406867" lon="16.217485"><ele>541.0</ele><time>2026-04-12T08:37:22.634Z</time></trkpt><trkpt lat="41.0407383" lon="16.2175917"><ele>541.0</ele><time>2026-04-12T08:37:23.635Z</time></trkpt><trkpt lat="41.0407833" lon="16.217675"><ele>541.0</ele><time>2026-04-12T08:37:24.636Z</time></trkpt><trkpt lat="41.0408233" lon="16.2177433"><ele>540.4</ele><time>2026-04-12T08:37:25.635Z</time></trkpt><trkpt lat="41.040895" lon="16.2178633"><ele>539.8</ele><time>2026-04-12T08:37:27.633Z</time></trkpt><trkpt lat="41.040945" lon="16.2179817"><ele>539.1999999999999</ele><time>2026-04-12T08:37:29.634Z</time></trkpt><trkpt lat="41.0410183" lon="16.2181233"><ele>538.6</ele><time>2026-04-12T08:37:31.635Z</time></trkpt><trkpt lat="41.0410667" lon="16.21821"><ele>538.0</ele><time>2026-04-12T08:37:32.635Z</time></trkpt><trkpt lat="41.0411217" lon="16.2183017"><ele>537.8333333333334</ele><time>2026-04-12T08:37:33.634Z</time></trkpt><trkpt lat="41.0411717" lon="16.2183917"><ele>537.6666666666667</ele><time>2026-04-12T08:37:34.636Z</time></trkpt><trkpt lat="41.0412333" lon="16.2184733"><ele>537.5</ele><time>2026-04-12T08:37:35.635Z</time></trkpt><trkpt lat="41.041295" lon="16.2185367"><ele>537.3333333333334</ele><time>2026-04-12T08:37:36.635Z</time></trkpt><trkpt lat="41.0413483" lon="16.2185917"><ele>537.1666666666666</ele><time>2026-04-12T08:37:37.635Z</time></trkpt><trkpt lat="41.0413983" lon="16.2186467"><ele>537.0</ele><time>2026-04-12T08:37:38.635Z</time></trkpt><trkpt lat="41.0415033" lon="16.21875"><ele>537.0</ele><time>2026-04-12T08:37:40.635Z</time></trkpt><trkpt lat="41.04157" lon="16.21881"><ele>537.0</ele><time>2026-04-12T08:37:41.635Z</time></trkpt><trkpt lat="41.0416433" lon="16.2188783"><ele>537.0</ele><time>2026-04-12T08:37:42.634Z</time></trkpt><trkpt lat="41.0417283" lon="16.21896"><ele>537.0</ele><time>2026-04-12T08:37:43.634Z</time></trkpt><trkpt lat="41.0418217" lon="16.219055"><ele>537.0</ele><time>2026-04-12T08:37:44.635Z</time></trkpt><trkpt lat="41.04192" lon="16.2191583"><ele>537.3333333333334</ele><time>2026-04-12T08:37:45.635Z</time></trkpt><trkpt lat="41.0420283" lon="16.2192683"><ele>537.6666666666667</ele><time>2026-04-12T08:37:46.634Z</time></trkpt><trkpt lat="41.0421483" lon="16.2193967"><ele>538.0</ele><time>2026-04-12T08:37:47.634Z</time></trkpt><trkpt lat="41.04228" lon="16.2195333"><ele>538.0</ele><time>2026-04-12T08:37:48.634Z</time></trkpt><trkpt lat="41.0424183" lon="16.2196717"><ele>538.0</ele><time>2026-04-12T08:37:49.635Z</time></trkpt><trkpt lat="41.0425633" lon="16.219815"><ele>538.0</ele><time>2026-04-12T08:37:50.634Z</time></trkpt><trkpt lat="41.0427133" lon="16.2199667"><ele>538.3333333333334</ele><time>2026-04-12T08:37:51.634Z</time></trkpt><trkpt lat="41.04287" lon="16.22012"><ele>538.6666666666666</ele><time>2026-04-12T08:37:52.635Z</time></trkpt><trkpt lat="41.0430317" lon="16.22028"><ele>539.0</ele><time>2026-04-12T08:37:53.634Z</time></trkpt><trkpt lat="41.043195" lon="16.2204417"><ele>539.0</ele><time>2026-04-12T08:37:54.636Z</time></trkpt><trkpt lat="41.0433667" lon="16.22061"><ele>539.0</ele><time>2026-04-12T08:37:55.637Z</time></trkpt><trkpt lat="41.04354" lon="16.2207883"><ele>539.0</ele><time>2026-04-12T08:37:56.642Z</time></trkpt><trkpt lat="41.0437133" lon="16.2209667"><ele>539.0</ele><time>2026-04-12T08:37:57.636Z</time></trkpt><trkpt lat="41.0438833" lon="16.2211483"><ele>539.0</ele><time>2026-04-12T08:37:58.637Z</time></trkpt><trkpt lat="41.0440533" lon="16.22133"><ele>539.0</ele><time>2026-04-12T08:37:59.634Z</time></trkpt><trkpt lat="41.0442283" lon="16.221505"><ele>540.3333333333333</ele><time>2026-04-12T08:38:00.635Z</time></trkpt><trkpt lat="41.0444083" lon="16.2216817"><ele>541.6666666666666</ele><time>2026-04-12T08:38:01.634Z</time></trkpt><trkpt lat="41.0445817" lon="16.2218583"><ele>543.0</ele><time>2026-04-12T08:38:02.635Z</time></trkpt><trkpt lat="41.0447467" lon="16.2220283"><ele>543.0</ele><time>2026-04-12T08:38:03.635Z</time></trkpt><trkpt lat="41.0449017" lon="16.22219"><ele>543.0</ele><time>2026-04-12T08:38:04.638Z</time></trkpt><trkpt lat="41.0450433" lon="16.22235"><ele>543.0</ele><time>2026-04-12T08:38:05.634Z</time></trkpt><trkpt lat="41.0451767" lon="16.2225183"><ele>543.6666666666666</ele><time>2026-04-12T08:38:06.635Z</time></trkpt><trkpt lat="41.0453067" lon="16.2226983"><ele>544.3333333333333</ele><time>2026-04-12T08:38:07.634Z</time></trkpt><trkpt lat="41.0454367" lon="16.2228933"><ele>545.0</ele><time>2026-04-12T08:38:08.634Z</time></trkpt><trkpt lat="41.0455683" lon="16.2230967"><ele>544.0</ele><time>2026-04-12T08:38:09.634Z</time></trkpt><trkpt lat="41.04571" lon="16.2233067"><ele>543.0</ele><time>2026-04-12T08:38:10.635Z</time></trkpt><trkpt lat="41.0458567" lon="16.223525"><ele>542.0</ele><time>2026-04-12T08:38:11.634Z</time></trkpt><trkpt lat="41.0460083" lon="16.2237533"><ele>542.0</ele><time>2026-04-12T08:38:12.634Z</time></trkpt><trkpt lat="41.04616" lon="16.2239917"><ele>542.0</ele><time>2026-04-12T08:38:13.635Z</time></trkpt><trkpt lat="41.046305" lon="16.2242267"><ele>542.0</ele><time>2026-04-12T08:38:14.636Z</time></trkpt><trkpt lat="41.046445" lon="16.2244467"><ele>542.0</ele><time>2026-04-12T08:38:15.635Z</time></trkpt><trkpt lat="41.0465767" lon="16.2246567"><ele>542.0</ele><time>2026-04-12T08:38:16.635Z</time></trkpt><trkpt lat="41.0467067" lon="16.2248517"><ele>541.3333333333333</ele><time>2026-04-12T08:38:17.634Z</time></trkpt><trkpt lat="41.0468383" lon="16.225035"><ele>540.6666666666666</ele><time>2026-04-12T08:38:18.635Z</time></trkpt><trkpt lat="41.0469783" lon="16.2252033"><ele>540.0</ele><time>2026-04-12T08:38:19.634Z</time></trkpt><trkpt lat="41.0471333" lon="16.2253583"><ele>540.0</ele><time>2026-04-12T08:38:20.634Z</time></trkpt><trkpt lat="41.0473083" lon="16.2255033"><ele>540.0</ele><time>2026-04-12T08:38:21.634Z</time></trkpt><trkpt lat="41.0475017" lon="16.2256433"><ele>540.0</ele><time>2026-04-12T08:38:22.634Z</time></trkpt><trkpt lat="41.04771" lon="16.22578"><ele>538.0</ele><time>2026-04-12T08:38:23.636Z</time></trkpt><trkpt lat="41.0479317" lon="16.2259167"><ele>536.0</ele><time>2026-04-12T08:38:24.636Z</time></trkpt><trkpt lat="41.048155" lon="16.22605"><ele>534.0</ele><time>2026-04-12T08:38:25.634Z</time></trkpt><trkpt lat="41.0483717" lon="16.2261783"><ele>532.0</ele><time>2026-04-12T08:38:26.634Z</time></trkpt><trkpt lat="41.04858" lon="16.2263017"><ele>532.0</ele><time>2026-04-12T08:38:27.634Z</time></trkpt><trkpt lat="41.0487817" lon="16.2264183"><ele>532.0</ele><time>2026-04-12T08:38:28.635Z</time></trkpt><trkpt lat="41.0489767" lon="16.2265317"><ele>532.0</ele><time>2026-04-12T08:38:29.635Z</time></trkpt><trkpt lat="41.04917" lon="16.2266483"><ele>531.3333333333334</ele><time>2026-04-12T08:38:30.634Z</time></trkpt><trkpt lat="41.0493617" lon="16.2267683"><ele>530.6666666666666</ele><time>2026-04-12T08:38:31.635Z</time></trkpt><trkpt lat="41.0495483" lon="16.226885"><ele>530.0</ele><time>2026-04-12T08:38:32.635Z</time></trkpt><trkpt lat="41.0497283" lon="16.2269933"><ele>530.0</ele><time>2026-04-12T08:38:33.637Z</time></trkpt><trkpt lat="41.049905" lon="16.2270967"><ele>530.0</ele><time>2026-04-12T08:38:34.634Z</time></trkpt><trkpt lat="41.0500783" lon="16.2272033"><ele>530.0</ele><time>2026-04-12T08:38:35.634Z</time></trkpt><trkpt lat="41.050255" lon="16.2273283"><ele>528.6666666666666</ele><time>2026-04-12T08:38:36.635Z</time></trkpt><trkpt lat="41.050435" lon="16.227485"><ele>527.3333333333334</ele><time>2026-04-12T08:38:37.634Z</time></trkpt><trkpt lat="41.0506067" lon="16.2276683"><ele>526.0</ele><time>2026-04-12T08:38:38.635Z</time></trkpt><trkpt lat="41.05077" lon="16.2278733"><ele>524.5</ele><time>2026-04-12T08:38:39.635Z</time></trkpt><trkpt lat="41.0509183" lon="16.228095"><ele>523.0</ele><time>2026-04-12T08:38:40.635Z</time></trkpt><trkpt lat="41.0510533" lon="16.2283367"><ele>521.5</ele><time>2026-04-12T08:38:41.634Z</time></trkpt><trkpt lat="41.0511817" lon="16.2285917"><ele>520.0</ele><time>2026-04-12T08:38:42.636Z</time></trkpt><trkpt lat="41.0513117" lon="16.22885"><ele>519.5</ele><time>2026-04-12T08:38:43.635Z</time></trkpt><trkpt lat="41.0514433" lon="16.2291017"><ele>519.0</ele><time>2026-04-12T08:38:44.635Z</time></trkpt><trkpt lat="41.0515683" lon="16.22934"><ele>518.0</ele><time>2026-04-12T08:38:45.634Z</time></trkpt><trkpt lat="41.0516917" lon="16.22957"><ele>517.0</ele><time>2026-04-12T08:38:46.634Z</time></trkpt><trkpt lat="41.0518117" lon="16.2298033"><ele>516.0</ele><time>2026-04-12T08:38:47.635Z</time></trkpt><trkpt lat="41.0519317" lon="16.2300283"><ele>514.6666666666666</ele><time>2026-04-12T08:38:48.636Z</time></trkpt><trkpt lat="41.052045" lon="16.230245"><ele>513.3333333333333</ele><time>2026-04-12T08:38:49.635Z</time></trkpt><trkpt lat="41.052155" lon="16.2304567"><ele>512.0</ele><time>2026-04-12T08:38:50.634Z</time></trkpt><trkpt lat="41.052265" lon="16.230665"><ele>512.0</ele><time>2026-04-12T08:38:51.634Z</time></trkpt><trkpt lat="41.052375" lon="16.2308733"><ele>512.0</ele><time>2026-04-12T08:38:52.635Z</time></trkpt><trkpt lat="41.0524833" lon="16.231085"><ele>512.0</ele><time>2026-04-12T08:38:53.634Z</time></trkpt><trkpt lat="41.052595" lon="16.2312983"><ele>511.0</ele><time>2026-04-12T08:38:54.635Z</time></trkpt><trkpt lat="41.0527133" lon="16.23152"><ele>510.0</ele><time>2026-04-12T08:38:55.634Z</time></trkpt><trkpt lat="41.052835" lon="16.23175"><ele>509.0</ele><time>2026-04-12T08:38:56.635Z</time></trkpt><trkpt lat="41.0529633" lon="16.2319917"><ele>509.0</ele><time>2026-04-12T08:38:57.634Z</time></trkpt><trkpt lat="41.05309" lon="16.2322383"><ele>509.0</ele><time>2026-04-12T08:38:58.64Z</time></trkpt><trkpt lat="41.0532167" lon="16.23248"><ele>509.0</ele><time>2026-04-12T08:38:59.635Z</time></trkpt><trkpt lat="41.05334" lon="16.2327117"><ele>507.66666666666663</ele><time>2026-04-12T08:39:00.634Z</time></trkpt><trkpt lat="41.053465" lon="16.2329267"><ele>506.33333333333337</ele><time>2026-04-12T08:39:01.636Z</time></trkpt><trkpt lat="41.053595" lon="16.233125"><ele>505.0</ele><time>2026-04-12T08:39:02.635Z</time></trkpt><trkpt lat="41.0537367" lon="16.233315"><ele>505.0</ele><time>2026-04-12T08:39:03.634Z</time></trkpt><trkpt lat="41.05389" lon="16.2335"><ele>505.0</ele><time>2026-04-12T08:39:04.636Z</time></trkpt><trkpt lat="41.054045" lon="16.2336733"><ele>505.0</ele><time>2026-04-12T08:39:05.634Z</time></trkpt><trkpt lat="41.0541983" lon="16.2338417"><ele>504.6666666666667</ele><time>2026-04-12T08:39:06.635Z</time></trkpt><trkpt lat="41.0543517" lon="16.2340133"><ele>504.33333333333337</ele><time>2026-04-12T08:39:07.637Z</time></trkpt><trkpt lat="41.0545117" lon="16.2341883"><ele>504.0</ele><time>2026-04-12T08:39:08.635Z</time></trkpt><trkpt lat="41.0546733" lon="16.2343667"><ele>504.0</ele><time>2026-04-12T08:39:09.635Z</time></trkpt><trkpt lat="41.0548367" lon="16.2345467"><ele>504.0</ele><time>2026-04-12T08:39:10.634Z</time></trkpt><trkpt lat="41.0549983" lon="16.2347283"><ele>504.0</ele><time>2026-04-12T08:39:11.634Z</time></trkpt><trkpt lat="41.0551633" lon="16.2349133"><ele>503.5</ele><time>2026-04-12T08:39:12.634Z</time></trkpt><trkpt lat="41.055335" lon="16.2351017"><ele>503.0</ele><time>2026-04-12T08:39:13.634Z</time></trkpt><trkpt lat="41.0555083" lon="16.2352967"><ele>503.0</ele><time>2026-04-12T08:39:14.635Z</time></trkpt><trkpt lat="41.05568" lon="16.2354933"><ele>503.0</ele><time>2026-04-12T08:39:15.634Z</time></trkpt><trkpt lat="41.0558567" lon="16.2356883"><ele>502.0</ele><time>2026-04-12T08:39:16.635Z</time></trkpt><trkpt lat="41.0560333" lon="16.23588"><ele>501.0</ele><time>2026-04-12T08:39:17.635Z</time></trkpt><trkpt lat="41.0562083" lon="16.2360717"><ele>501.0</ele><time>2026-04-12T08:39:18.634Z</time></trkpt><trkpt lat="41.056385" lon="16.236265"><ele>501.0</ele><time>2026-04-12T08:39:19.635Z</time></trkpt><trkpt lat="41.0565633" lon="16.2364633"><ele>500.5</ele><time>2026-04-12T08:39:20.636Z</time></trkpt><trkpt lat="41.0567483" lon="16.236665"><ele>500.0</ele><time>2026-04-12T08:39:21.634Z</time></trkpt><trkpt lat="41.0569317" lon="16.236865"><ele>500.0</ele><time>2026-04-12T08:39:22.635Z</time></trkpt><trkpt lat="41.0571033" lon="16.237055"><ele>500.0</ele><time>2026-04-12T08:39:23.635Z</time></trkpt><trkpt lat="41.057265" lon="16.2372333"><ele>500.0</ele><time>2026-04-12T08:39:24.634Z</time></trkpt><trkpt lat="41.057415" lon="16.2373983"><ele>499.66666666666663</ele><time>2026-04-12T08:39:25.635Z</time></trkpt><trkpt lat="41.0575533" lon="16.2375533"><ele>499.33333333333337</ele><time>2026-04-12T08:39:26.635Z</time></trkpt><trkpt lat="41.0576833" lon="16.2376983"><ele>499.0</ele><time>2026-04-12T08:39:27.634Z</time></trkpt><trkpt lat="41.0578083" lon="16.2378383"><ele>499.0</ele><time>2026-04-12T08:39:28.636Z</time></trkpt><trkpt lat="41.057935" lon="16.2379767"><ele>499.0</ele><time>2026-04-12T08:39:29.635Z</time></trkpt><trkpt lat="41.0580683" lon="16.2381183"><ele>499.0</ele><time>2026-04-12T08:39:30.634Z</time></trkpt><trkpt lat="41.0582067" lon="16.2382683"><ele>499.0</ele><time>2026-04-12T08:39:31.634Z</time></trkpt><trkpt lat="41.0583567" lon="16.2384283"><ele>499.0</ele><time>2026-04-12T08:39:32.635Z</time></trkpt><trkpt lat="41.0585117" lon="16.2385967"><ele>499.0</ele><time>2026-04-12T08:39:33.635Z</time></trkpt><trkpt lat="41.0586683" lon="16.2387733"><ele>499.0</ele><time>2026-04-12T08:39:34.635Z</time></trkpt><trkpt lat="41.05883" lon="16.238955"><ele>499.0</ele><time>2026-04-12T08:39:35.634Z</time></trkpt><trkpt lat="41.059" lon="16.2391433"><ele>499.0</ele><time>2026-04-12T08:39:36.634Z</time></trkpt><trkpt lat="41.0591733" lon="16.239335"><ele>500.0</ele><time>2026-04-12T08:39:37.635Z</time></trkpt><trkpt lat="41.05935" lon="16.2395283"><ele>501.0</ele><time>2026-04-12T08:39:38.636Z</time></trkpt><trkpt lat="41.0595317" lon="16.23973"><ele>502.5</ele><time>2026-04-12T08:39:39.634Z</time></trkpt><trkpt lat="41.0597117" lon="16.23993"><ele>504.0</ele><time>2026-04-12T08:39:40.634Z</time></trkpt><trkpt lat="41.0598767" lon="16.2401183"><ele>504.0</ele><time>2026-04-12T08:39:41.634Z</time></trkpt><trkpt lat="41.060015" lon="16.2402867"><ele>504.0</ele><time>2026-04-12T08:39:42.635Z</time></trkpt><trkpt lat="41.0601283" lon="16.2404433"><ele>504.0</ele><time>2026-04-12T08:39:43.634Z</time></trkpt><trkpt lat="41.06022" lon="16.2406033"><ele>504.33333333333337</ele><time>2026-04-12T08:39:44.635Z</time></trkpt><trkpt lat="41.0602983" lon="16.2407767"><ele>504.6666666666667</ele><time>2026-04-12T08:39:45.634Z</time></trkpt><trkpt lat="41.0603633" lon="16.2409783"><ele>505.0</ele><time>2026-04-12T08:39:46.634Z</time></trkpt><trkpt lat="41.06042" lon="16.2412083"><ele>505.0</ele><time>2026-04-12T08:39:47.633Z</time></trkpt><trkpt lat="41.060465" lon="16.2414617"><ele>505.0</ele><time>2026-04-12T08:39:48.633Z</time></trkpt><trkpt lat="41.0605067" lon="16.24173"><ele>505.0</ele><time>2026-04-12T08:39:49.636Z</time></trkpt><trkpt lat="41.0605467" lon="16.2420117"><ele>502.5</ele><time>2026-04-12T08:39:50.634Z</time></trkpt><trkpt lat="41.06059" lon="16.242305"><ele>500.0</ele><time>2026-04-12T08:39:51.635Z</time></trkpt><trkpt lat="41.0606383" lon="16.2426017"><ele>500.0</ele><time>2026-04-12T08:39:52.636Z</time></trkpt><trkpt lat="41.06068" lon="16.2428883"><ele>500.0</ele><time>2026-04-12T08:39:53.635Z</time></trkpt><trkpt lat="41.0607167" lon="16.2431567"><ele>500.0</ele><time>2026-04-12T08:39:54.634Z</time></trkpt><trkpt lat="41.060755" lon="16.2434083"><ele>500.3333333333333</ele><time>2026-04-12T08:39:55.635Z</time></trkpt><trkpt lat="41.060795" lon="16.2436333"><ele>500.66666666666663</ele><time>2026-04-12T08:39:56.635Z</time></trkpt><trkpt lat="41.0608417" lon="16.2438383"><ele>501.0</ele><time>2026-04-12T08:39:57.634Z</time></trkpt><trkpt lat="41.0609067" lon="16.2440333"><ele>500.33333333333337</ele><time>2026-04-12T08:39:58.634Z</time></trkpt><trkpt lat="41.0609983" lon="16.2442233"><ele>499.6666666666667</ele><time>2026-04-12T08:39:59.634Z</time></trkpt><trkpt lat="41.061125" lon="16.2444033"><ele>499.0</ele><time>2026-04-12T08:40:00.634Z</time></trkpt><trkpt lat="41.06128" lon="16.2445783"><ele>499.0</ele><time>2026-04-12T08:40:01.634Z</time></trkpt><trkpt lat="41.0614583" lon="16.2447483"><ele>499.0</ele><time>2026-04-12T08:40:02.635Z</time></trkpt><trkpt lat="41.0616383" lon="16.2449117"><ele>499.0</ele><time>2026-04-12T08:40:03.633Z</time></trkpt><trkpt lat="41.0618" lon="16.2450667"><ele>498.6666666666667</ele><time>2026-04-12T08:40:04.635Z</time></trkpt><trkpt lat="41.0619533" lon="16.24521"><ele>498.33333333333337</ele><time>2026-04-12T08:40:05.634Z</time></trkpt><trkpt lat="41.0620917" lon="16.2453517"><ele>498.0</ele><time>2026-04-12T08:40:06.635Z</time></trkpt><trkpt lat="41.0622133" lon="16.24551"><ele>498.0</ele><time>2026-04-12T08:40:07.634Z</time></trkpt><trkpt lat="41.06232" lon="16.2456967"><ele>498.0</ele><time>2026-04-12T08:40:08.634Z</time></trkpt><trkpt lat="41.0624133" lon="16.2459083"><ele>498.0</ele><time>2026-04-12T08:40:09.636Z</time></trkpt><trkpt lat="41.0624867" lon="16.2461483"><ele>498.0</ele><time>2026-04-12T08:40:10.634Z</time></trkpt><trkpt lat="41.0625483" lon="16.2464117"><ele>498.0</ele><time>2026-04-12T08:40:11.635Z</time></trkpt><trkpt lat="41.0626" lon="16.24669"><ele>498.0</ele><time>2026-04-12T08:40:12.635Z</time></trkpt><trkpt lat="41.0626533" lon="16.24698"><ele>498.0</ele><time>2026-04-12T08:40:13.634Z</time></trkpt><trkpt lat="41.0627133" lon="16.247285"><ele>498.0</ele><time>2026-04-12T08:40:14.634Z</time></trkpt><trkpt lat="41.0627817" lon="16.2476033"><ele>498.0</ele><time>2026-04-12T08:40:15.635Z</time></trkpt><trkpt lat="41.06285" lon="16.247935"><ele>498.0</ele><time>2026-04-12T08:40:16.634Z</time></trkpt><trkpt lat="41.06292" lon="16.2482767"><ele>498.0</ele><time>2026-04-12T08:40:17.634Z</time></trkpt><trkpt lat="41.0629933" lon="16.248625"><ele>498.0</ele><time>2026-04-12T08:40:18.633Z</time></trkpt><trkpt lat="41.063065" lon="16.2489817"><ele>498.5</ele><time>2026-04-12T08:40:19.635Z</time></trkpt><trkpt lat="41.0631367" lon="16.2493417"><ele>499.0</ele><time>2026-04-12T08:40:20.642Z</time></trkpt><trkpt lat="41.0632083" lon="16.249705"><ele>500.0</ele><time>2026-04-12T08:40:21.637Z</time></trkpt><trkpt lat="41.0632817" lon="16.2500717"><ele>501.0</ele><time>2026-04-12T08:40:22.634Z</time></trkpt><trkpt lat="41.0633567" lon="16.2504467"><ele>501.5</ele><time>2026-04-12T08:40:23.635Z</time></trkpt><trkpt lat="41.0634317" lon="16.2508167"><ele>502.0</ele><time>2026-04-12T08:40:24.635Z</time></trkpt><trkpt lat="41.0635067" lon="16.25117"><ele>503.0</ele><time>2026-04-12T08:40:25.636Z</time></trkpt><trkpt lat="41.063575" lon="16.2514967"><ele>504.0</ele><time>2026-04-12T08:40:26.638Z</time></trkpt><trkpt lat="41.0636383" lon="16.2518133"><ele>504.0</ele><time>2026-04-12T08:40:27.634Z</time></trkpt><trkpt lat="41.0637" lon="16.2521233"><ele>504.0</ele><time>2026-04-12T08:40:28.635Z</time></trkpt><trkpt lat="41.06376" lon="16.2524233"><ele>504.33333333333337</ele><time>2026-04-12T08:40:29.634Z</time></trkpt><trkpt lat="41.06382" lon="16.2527117"><ele>504.6666666666667</ele><time>2026-04-12T08:40:30.634Z</time></trkpt><trkpt lat="41.06389" lon="16.2529917"><ele>505.0</ele><time>2026-04-12T08:40:31.634Z</time></trkpt><trkpt lat="41.0639717" lon="16.2532667"><ele>505.0</ele><time>2026-04-12T08:40:32.634Z</time></trkpt><trkpt lat="41.0640617" lon="16.25352"><ele>505.0</ele><time>2026-04-12T08:40:33.633Z</time></trkpt><trkpt lat="41.06416" lon="16.2537517"><ele>505.0</ele><time>2026-04-12T08:40:34.635Z</time></trkpt><trkpt lat="41.064275" lon="16.2539733"><ele>505.6666666666667</ele><time>2026-04-12T08:40:35.634Z</time></trkpt><trkpt lat="41.0644083" lon="16.2541933"><ele>506.33333333333337</ele><time>2026-04-12T08:40:36.635Z</time></trkpt><trkpt lat="41.0645633" lon="16.2544133"><ele>507.0</ele><time>2026-04-12T08:40:37.634Z</time></trkpt><trkpt lat="41.064735" lon="16.2546317"><ele>507.0</ele><time>2026-04-12T08:40:38.635Z</time></trkpt><trkpt lat="41.06492" lon="16.2548483"><ele>507.0</ele><time>2026-04-12T08:40:39.633Z</time></trkpt><trkpt lat="41.0651133" lon="16.2550667"><ele>505.5</ele><time>2026-04-12T08:40:40.635Z</time></trkpt><trkpt lat="41.06531" lon="16.2552817"><ele>504.0</ele><time>2026-04-12T08:40:41.635Z</time></trkpt><trkpt lat="41.0655" lon="16.2554917"><ele>504.0</ele><time>2026-04-12T08:40:42.633Z</time></trkpt><trkpt lat="41.0656767" lon="16.2556917"><ele>504.0</ele><time>2026-04-12T08:40:43.634Z</time></trkpt><trkpt lat="41.0658483" lon="16.25589"><ele>503.66666666666663</ele><time>2026-04-12T08:40:44.636Z</time></trkpt><trkpt lat="41.066015" lon="16.256085"><ele>503.3333333333333</ele><time>2026-04-12T08:40:45.635Z</time></trkpt><trkpt lat="41.0661817" lon="16.2562733"><ele>503.0</ele><time>2026-04-12T08:40:46.634Z</time></trkpt><trkpt lat="41.0663517" lon="16.2564667"><ele>503.0</ele><time>2026-04-12T08:40:47.634Z</time></trkpt><trkpt lat="41.06653" lon="16.256665"><ele>503.0</ele><time>2026-04-12T08:40:48.634Z</time></trkpt><trkpt lat="41.0667117" lon="16.2568633"><ele>503.0</ele><time>2026-04-12T08:40:49.635Z</time></trkpt><trkpt lat="41.066895" lon="16.257065"><ele>503.0</ele><time>2026-04-12T08:40:50.635Z</time></trkpt><trkpt lat="41.0670767" lon="16.2572667"><ele>503.3333333333333</ele><time>2026-04-12T08:40:51.635Z</time></trkpt><trkpt lat="41.06725" lon="16.2574633"><ele>503.66666666666663</ele><time>2026-04-12T08:40:52.634Z</time></trkpt><trkpt lat="41.0674133" lon="16.2576533"><ele>504.0</ele><time>2026-04-12T08:40:53.635Z</time></trkpt><trkpt lat="41.06757" lon="16.2578367"><ele>502.66666666666663</ele><time>2026-04-12T08:40:54.635Z</time></trkpt><trkpt lat="41.0677233" lon="16.25801"><ele>501.3333333333333</ele><time>2026-04-12T08:40:55.635Z</time></trkpt><trkpt lat="41.0678733" lon="16.2581767"><ele>500.0</ele><time>2026-04-12T08:40:56.635Z</time></trkpt><trkpt lat="41.0680183" lon="16.2583383"><ele>500.0</ele><time>2026-04-12T08:40:57.634Z</time></trkpt><trkpt lat="41.0681617" lon="16.2584933"><ele>500.0</ele><time>2026-04-12T08:40:58.637Z</time></trkpt><trkpt lat="41.068305" lon="16.2586533"><ele>500.0</ele><time>2026-04-12T08:40:59.635Z</time></trkpt><trkpt lat="41.068455" lon="16.2588183"><ele>498.66666666666663</ele><time>2026-04-12T08:41:00.634Z</time></trkpt><trkpt lat="41.0686033" lon="16.2589933"><ele>497.33333333333337</ele><time>2026-04-12T08:41:01.634Z</time></trkpt><trkpt lat="41.0687433" lon="16.259165"><ele>496.0</ele><time>2026-04-12T08:41:02.635Z</time></trkpt><trkpt lat="41.0688767" lon="16.259325"><ele>496.0</ele><time>2026-04-12T08:41:03.634Z</time></trkpt><trkpt lat="41.069005" lon="16.2594733"><ele>496.0</ele><time>2026-04-12T08:41:04.636Z</time></trkpt><trkpt lat="41.0691267" lon="16.2596167"><ele>496.0</ele><time>2026-04-12T08:41:05.638Z</time></trkpt><trkpt lat="41.069245" lon="16.25976"><ele>495.6666666666667</ele><time>2026-04-12T08:41:06.637Z</time></trkpt><trkpt lat="41.069365" lon="16.25992"><ele>495.33333333333337</ele><time>2026-04-12T08:41:07.633Z</time></trkpt><trkpt lat="41.0694867" lon="16.260115"><ele>495.0</ele><time>2026-04-12T08:41:08.635Z</time></trkpt><trkpt lat="41.0695967" lon="16.260315"><ele>495.0</ele><time>2026-04-12T08:41:09.634Z</time></trkpt><trkpt lat="41.0696883" lon="16.260515"><ele>495.0</ele><time>2026-04-12T08:41:10.634Z</time></trkpt><trkpt lat="41.069775" lon="16.2607117"><ele>495.0</ele><time>2026-04-12T08:41:11.634Z</time></trkpt><trkpt lat="41.0698567" lon="16.26092"><ele>495.66666666666663</ele><time>2026-04-12T08:41:12.634Z</time></trkpt><trkpt lat="41.0699367" lon="16.26114"><ele>496.3333333333333</ele><time>2026-04-12T08:41:13.633Z</time></trkpt><trkpt lat="41.070025" lon="16.2613717"><ele>497.0</ele><time>2026-04-12T08:41:14.634Z</time></trkpt><trkpt lat="41.070115" lon="16.2616067"><ele>495.0</ele><time>2026-04-12T08:41:15.634Z</time></trkpt><trkpt lat="41.0702033" lon="16.2618333"><ele>493.0</ele><time>2026-04-12T08:41:16.634Z</time></trkpt><trkpt lat="41.07029" lon="16.2620517"><ele>491.0</ele><time>2026-04-12T08:41:17.635Z</time></trkpt><trkpt lat="41.0703767" lon="16.2622633"><ele>490.66666666666663</ele><time>2026-04-12T08:41:18.633Z</time></trkpt><trkpt lat="41.0704583" lon="16.2624717"><ele>490.33333333333337</ele><time>2026-04-12T08:41:19.636Z</time></trkpt><trkpt lat="41.0705333" lon="16.2626733"><ele>490.0</ele><time>2026-04-12T08:41:20.634Z</time></trkpt><trkpt lat="41.070615" lon="16.2628717"><ele>490.0</ele><time>2026-04-12T08:41:21.634Z</time></trkpt><trkpt lat="41.070695" lon="16.2630717"><ele>490.0</ele><time>2026-04-12T08:41:22.635Z</time></trkpt><trkpt lat="41.070775" lon="16.2632767"><ele>490.0</ele><time>2026-04-12T08:41:23.634Z</time></trkpt><trkpt lat="41.0708533" lon="16.263475"><ele>489.33333333333337</ele><time>2026-04-12T08:41:24.638Z</time></trkpt><trkpt lat="41.0709283" lon="16.2636667"><ele>488.66666666666663</ele><time>2026-04-12T08:41:25.634Z</time></trkpt><trkpt lat="41.0710017" lon="16.263855"><ele>488.0</ele><time>2026-04-12T08:41:26.634Z</time></trkpt><trkpt lat="41.0710717" lon="16.264045"><ele>488.0</ele><time>2026-04-12T08:41:27.634Z</time></trkpt><trkpt lat="41.0711467" lon="16.26424"><ele>488.0</ele><time>2026-04-12T08:41:28.634Z</time></trkpt><trkpt lat="41.0712333" lon="16.2644517"><ele>488.0</ele><time>2026-04-12T08:41:29.633Z</time></trkpt><trkpt lat="41.0713317" lon="16.2646817"><ele>487.0</ele><time>2026-04-12T08:41:30.635Z</time></trkpt><trkpt lat="41.0714267" lon="16.2649183"><ele>486.0</ele><time>2026-04-12T08:41:31.635Z</time></trkpt><trkpt lat="41.0715117" lon="16.26515"><ele>485.0</ele><time>2026-04-12T08:41:32.634Z</time></trkpt><trkpt lat="41.07159" lon="16.265375"><ele>483.3333333333333</ele><time>2026-04-12T08:41:33.635Z</time></trkpt><trkpt lat="41.0716633" lon="16.2655933"><ele>481.66666666666663</ele><time>2026-04-12T08:41:34.635Z</time></trkpt><trkpt lat="41.0717317" lon="16.2658117"><ele>480.0</ele><time>2026-04-12T08:41:35.633Z</time></trkpt><trkpt lat="41.0718033" lon="16.2660283"><ele>479.0</ele><time>2026-04-12T08:41:36.634Z</time></trkpt><trkpt lat="41.0718733" lon="16.2662417"><ele>478.0</ele><time>2026-04-12T08:41:37.633Z</time></trkpt><trkpt lat="41.07194" lon="16.2664483"><ele>477.0</ele><time>2026-04-12T08:41:38.639Z</time></trkpt><trkpt lat="41.0720033" lon="16.266655"><ele>476.33333333333337</ele><time>2026-04-12T08:41:39.634Z</time></trkpt><trkpt lat="41.07207" lon="16.2668617"><ele>475.6666666666667</ele><time>2026-04-12T08:41:40.634Z</time></trkpt><trkpt lat="41.07214" lon="16.2670683"><ele>475.0</ele><time>2026-04-12T08:41:41.634Z</time></trkpt><trkpt lat="41.072215" lon="16.2672883"><ele>475.0</ele><time>2026-04-12T08:41:42.633Z</time></trkpt><trkpt lat="41.0722883" lon="16.2675233"><ele>475.0</ele><time>2026-04-12T08:41:43.634Z</time></trkpt><trkpt lat="41.072355" lon="16.26776"><ele>475.0</ele><time>2026-04-12T08:41:44.635Z</time></trkpt><trkpt lat="41.0724183" lon="16.2679817"><ele>475.0</ele><time>2026-04-12T08:41:45.634Z</time></trkpt><trkpt lat="41.0724833" lon="16.2681817"><ele>475.0</ele><time>2026-04-12T08:41:46.634Z</time></trkpt><trkpt lat="41.0725483" lon="16.2683767"><ele>475.0</ele><time>2026-04-12T08:41:47.634Z</time></trkpt><trkpt lat="41.0726133" lon="16.2685717"><ele>475.0</ele><time>2026-04-12T08:41:48.634Z</time></trkpt><trkpt lat="41.0726783" lon="16.2687667"><ele>475.0</ele><time>2026-04-12T08:41:49.634Z</time></trkpt><trkpt lat="41.07274" lon="16.2689567"><ele>475.0</ele><time>2026-04-12T08:41:50.635Z</time></trkpt><trkpt lat="41.0728017" lon="16.269145"><ele>475.25</ele><time>2026-04-12T08:41:51.635Z</time></trkpt><trkpt lat="41.0728617" lon="16.2693333"><ele>475.5</ele><time>2026-04-12T08:41:52.634Z</time></trkpt><trkpt lat="41.07292" lon="16.2695133"><ele>475.75</ele><time>2026-04-12T08:41:53.64Z</time></trkpt><trkpt lat="41.0729733" lon="16.269685"><ele>476.0</ele><time>2026-04-12T08:41:54.634Z</time></trkpt><trkpt lat="41.0730317" lon="16.2698567"><ele>476.25</ele><time>2026-04-12T08:41:55.635Z</time></trkpt><trkpt lat="41.0730917" lon="16.27003"><ele>476.5</ele><time>2026-04-12T08:41:56.635Z</time></trkpt><trkpt lat="41.0731517" lon="16.27021"><ele>476.75</ele><time>2026-04-12T08:41:57.634Z</time></trkpt><trkpt lat="41.0732133" lon="16.2703933"><ele>477.0</ele><time>2026-04-12T08:41:58.634Z</time></trkpt><trkpt lat="41.073275" lon="16.270575"><ele>476.25</ele><time>2026-04-12T08:41:59.634Z</time></trkpt><trkpt lat="41.0733317" lon="16.2707467"><ele>475.5</ele><time>2026-04-12T08:42:00.634Z</time></trkpt><trkpt lat="41.07339" lon="16.2709133"><ele>474.75</ele><time>2026-04-12T08:42:01.633Z</time></trkpt><trkpt lat="41.0734433" lon="16.27109"><ele>474.0</ele><time>2026-04-12T08:42:02.635Z</time></trkpt><trkpt lat="41.0735017" lon="16.271275"><ele>474.25</ele><time>2026-04-12T08:42:03.633Z</time></trkpt><trkpt lat="41.0735617" lon="16.271455"><ele>474.5</ele><time>2026-04-12T08:42:04.635Z</time></trkpt><trkpt lat="41.0736167" lon="16.2716283"><ele>474.75</ele><time>2026-04-12T08:42:05.634Z</time></trkpt><trkpt lat="41.0736733" lon="16.2717983"><ele>475.0</ele><time>2026-04-12T08:42:06.634Z</time></trkpt><trkpt lat="41.0737267" lon="16.2719583"><ele>475.0</ele><time>2026-04-12T08:42:07.635Z</time></trkpt><trkpt lat="41.073775" lon="16.272105"><ele>475.0</ele><time>2026-04-12T08:42:08.638Z</time></trkpt><trkpt lat="41.07382" lon="16.2722583"><ele>475.0</ele><time>2026-04-12T08:42:09.634Z</time></trkpt><trkpt lat="41.0738683" lon="16.2724067"><ele>475.0</ele><time>2026-04-12T08:42:10.633Z</time></trkpt><trkpt lat="41.0739217" lon="16.2725533"><ele>475.0</ele><time>2026-04-12T08:42:11.634Z</time></trkpt><trkpt lat="41.073975" lon="16.27271"><ele>475.0</ele><time>2026-04-12T08:42:12.634Z</time></trkpt><trkpt lat="41.0740267" lon="16.272875"><ele>475.0</ele><time>2026-04-12T08:42:13.634Z</time></trkpt><trkpt lat="41.0740833" lon="16.2730483"><ele>475.0</ele><time>2026-04-12T08:42:14.635Z</time></trkpt><trkpt lat="41.0741433" lon="16.27322"><ele>474.5</ele><time>2026-04-12T08:42:15.633Z</time></trkpt><trkpt lat="41.0742" lon="16.2733933"><ele>474.0</ele><time>2026-04-12T08:42:16.633Z</time></trkpt><trkpt lat="41.074255" lon="16.2735567"><ele>473.5</ele><time>2026-04-12T08:42:17.635Z</time></trkpt><trkpt lat="41.0743083" lon="16.2737133"><ele>473.0</ele><time>2026-04-12T08:42:18.634Z</time></trkpt><trkpt lat="41.0743633" lon="16.2738717"><ele>472.5</ele><time>2026-04-12T08:42:19.633Z</time></trkpt><trkpt lat="41.074415" lon="16.27403"><ele>472.0</ele><time>2026-04-12T08:42:20.634Z</time></trkpt><trkpt lat="41.0744667" lon="16.27418"><ele>471.5</ele><time>2026-04-12T08:42:21.633Z</time></trkpt><trkpt lat="41.074515" lon="16.2743233"><ele>471.0</ele><time>2026-04-12T08:42:22.635Z</time></trkpt><trkpt lat="41.0745567" lon="16.2744533"><ele>471.0</ele><time>2026-04-12T08:42:23.634Z</time></trkpt><trkpt lat="41.0745917" lon="16.2745617"><ele>471.0</ele><time>2026-04-12T08:42:24.633Z</time></trkpt><trkpt lat="41.0746233" lon="16.274655"><ele>471.0</ele><time>2026-04-12T08:42:25.633Z</time></trkpt><trkpt lat="41.0746483" lon="16.2747333"><ele>471.0</ele><time>2026-04-12T08:42:26.634Z</time></trkpt><trkpt lat="41.0747117" lon="16.2748567"><ele>471.0</ele><time>2026-04-12T08:42:28.634Z</time></trkpt><trkpt lat="41.074795" lon="16.2748983"><ele>471.0</ele><time>2026-04-12T08:42:30.635Z</time></trkpt><trkpt lat="41.074875" lon="16.2748733"><ele>471.25</ele><time>2026-04-12T08:42:31.633Z</time></trkpt><trkpt lat="41.074975" lon="16.27483"><ele>471.5</ele><time>2026-04-12T08:42:32.634Z</time></trkpt><trkpt lat="41.075095" lon="16.2747767"><ele>471.75</ele><time>2026-04-12T08:42:33.633Z</time></trkpt><trkpt lat="41.0752167" lon="16.2747417"><ele>472.0</ele><time>2026-04-12T08:42:34.633Z</time></trkpt><trkpt lat="41.075355" lon="16.2747217"><ele>472.0</ele><time>2026-04-12T08:42:35.633Z</time></trkpt><trkpt lat="41.0754983" lon="16.2747033"><ele>472.0</ele><time>2026-04-12T08:42:36.634Z</time></trkpt><trkpt lat="41.0756417" lon="16.2746817"><ele>472.0</ele><time>2026-04-12T08:42:37.633Z</time></trkpt><trkpt lat="41.0757817" lon="16.2746533"><ele>472.0</ele><time>2026-04-12T08:42:38.638Z</time></trkpt><trkpt lat="41.07591" lon="16.274625"><ele>472.0</ele><time>2026-04-12T08:42:39.633Z</time></trkpt><trkpt lat="41.0760483" lon="16.2746117"><ele>472.0</ele><time>2026-04-12T08:42:40.635Z</time></trkpt><trkpt lat="41.0761867" lon="16.2746017"><ele>472.0</ele><time>2026-04-12T08:42:41.634Z</time></trkpt><trkpt lat="41.07631" lon="16.2745917"><ele>472.0</ele><time>2026-04-12T08:42:42.635Z</time></trkpt><trkpt lat="41.076425" lon="16.274585"><ele>472.0</ele><time>2026-04-12T08:42:43.633Z</time></trkpt><trkpt lat="41.0765467" lon="16.2745717"><ele>472.0</ele><time>2026-04-12T08:42:44.634Z</time></trkpt><trkpt lat="41.0766633" lon="16.2745567"><ele>472.0</ele><time>2026-04-12T08:42:45.634Z</time></trkpt><trkpt lat="41.0767717" lon="16.2745483"><ele>472.0</ele><time>2026-04-12T08:42:46.635Z</time></trkpt><trkpt lat="41.0768783" lon="16.2745417"><ele>472.75</ele><time>2026-04-12T08:42:47.635Z</time></trkpt><trkpt lat="41.0769933" lon="16.2745283"><ele>473.5</ele><time>2026-04-12T08:42:48.634Z</time></trkpt><trkpt lat="41.07711" lon="16.2745133"><ele>474.25</ele><time>2026-04-12T08:42:49.634Z</time></trkpt><trkpt lat="41.0772333" lon="16.2745033"><ele>475.0</ele><time>2026-04-12T08:42:50.634Z</time></trkpt><trkpt lat="41.0773583" lon="16.2744883"><ele>476.0</ele><time>2026-04-12T08:42:51.633Z</time></trkpt><trkpt lat="41.07748" lon="16.2744767"><ele>477.0</ele><time>2026-04-12T08:42:52.633Z</time></trkpt><trkpt lat="41.07759" lon="16.2744633"><ele>478.0</ele><time>2026-04-12T08:42:53.637Z</time></trkpt><trkpt lat="41.0776983" lon="16.2744467"><ele>479.0</ele><time>2026-04-12T08:42:54.634Z</time></trkpt><trkpt lat="41.0778133" lon="16.2744333"><ele>479.0</ele><time>2026-04-12T08:42:55.634Z</time></trkpt><trkpt lat="41.0779267" lon="16.27442"><ele>479.0</ele><time>2026-04-12T08:42:56.634Z</time></trkpt><trkpt lat="41.07804" lon="16.2744083"><ele>479.0</ele><time>2026-04-12T08:42:57.634Z</time></trkpt><trkpt lat="41.0781533" lon="16.2743983"><ele>479.0</ele><time>2026-04-12T08:42:58.634Z</time></trkpt><trkpt lat="41.078265" lon="16.2743867"><ele>479.75</ele><time>2026-04-12T08:42:59.634Z</time></trkpt><trkpt lat="41.0783767" lon="16.2743767"><ele>480.5</ele><time>2026-04-12T08:43:00.633Z</time></trkpt><trkpt lat="41.078495" lon="16.2743633"><ele>481.25</ele><time>2026-04-12T08:43:01.634Z</time></trkpt><trkpt lat="41.0786233" lon="16.2743467"><ele>482.0</ele><time>2026-04-12T08:43:02.633Z</time></trkpt><trkpt lat="41.0787467" lon="16.2743317"><ele>482.0</ele><time>2026-04-12T08:43:03.633Z</time></trkpt><trkpt lat="41.0788667" lon="16.2743317"><ele>482.0</ele><time>2026-04-12T08:43:04.634Z</time></trkpt><trkpt lat="41.0789833" lon="16.2743467"><ele>482.0</ele><time>2026-04-12T08:43:05.633Z</time></trkpt><trkpt lat="41.0790983" lon="16.2743733"><ele>482.0</ele><time>2026-04-12T08:43:06.634Z</time></trkpt><trkpt lat="41.0792067" lon="16.274415"><ele>483.5</ele><time>2026-04-12T08:43:07.634Z</time></trkpt><trkpt lat="41.079315" lon="16.2744633"><ele>485.0</ele><time>2026-04-12T08:43:08.634Z</time></trkpt><trkpt lat="41.079425" lon="16.2745283"><ele>486.5</ele><time>2026-04-12T08:43:09.633Z</time></trkpt><trkpt lat="41.0795417" lon="16.2745983"><ele>488.0</ele><time>2026-04-12T08:43:10.633Z</time></trkpt><trkpt lat="41.0796617" lon="16.2746717"><ele>488.0</ele><time>2026-04-12T08:43:11.634Z</time></trkpt><trkpt lat="41.079785" lon="16.2747433"><ele>488.0</ele><time>2026-04-12T08:43:12.634Z</time></trkpt><trkpt lat="41.07992" lon="16.2747967"><ele>488.0</ele><time>2026-04-12T08:43:13.634Z</time></trkpt><trkpt lat="41.08007" lon="16.2748567"><ele>488.0</ele><time>2026-04-12T08:43:14.634Z</time></trkpt><trkpt lat="41.0802317" lon="16.274945"><ele>488.0</ele><time>2026-04-12T08:43:15.633Z</time></trkpt><trkpt lat="41.080405" lon="16.275055"><ele>488.0</ele><time>2026-04-12T08:43:16.633Z</time></trkpt><trkpt lat="41.0805833" lon="16.2751717"><ele>488.0</ele><time>2026-04-12T08:43:17.634Z</time></trkpt><trkpt lat="41.080765" lon="16.2752933"><ele>491.0</ele><time>2026-04-12T08:43:18.633Z</time></trkpt><trkpt lat="41.080955" lon="16.2754067"><ele>494.0</ele><time>2026-04-12T08:43:19.634Z</time></trkpt><trkpt lat="41.08114" lon="16.2755017"><ele>497.0</ele><time>2026-04-12T08:43:20.635Z</time></trkpt><trkpt lat="41.0813133" lon="16.2756"><ele>497.3333333333333</ele><time>2026-04-12T08:43:21.634Z</time></trkpt><trkpt lat="41.081485" lon="16.2756783"><ele>497.66666666666663</ele><time>2026-04-12T08:43:22.634Z</time></trkpt><trkpt lat="41.0816583" lon="16.27575"><ele>498.0</ele><time>2026-04-12T08:43:23.634Z</time></trkpt><trkpt lat="41.0818567" lon="16.2757983"><ele>498.0</ele><time>2026-04-12T08:43:24.634Z</time></trkpt><trkpt lat="41.082065" lon="16.27583"><ele>498.0</ele><time>2026-04-12T08:43:25.634Z</time></trkpt><trkpt lat="41.0822867" lon="16.2758633"><ele>498.0</ele><time>2026-04-12T08:43:26.634Z</time></trkpt><trkpt lat="41.082515" lon="16.2759"><ele>499.66666666666663</ele><time>2026-04-12T08:43:27.632Z</time></trkpt><trkpt lat="41.0827317" lon="16.2759367"><ele>501.3333333333333</ele><time>2026-04-12T08:43:28.634Z</time></trkpt><trkpt lat="41.0829333" lon="16.27597"><ele>503.0</ele><time>2026-04-12T08:43:29.634Z</time></trkpt><trkpt lat="41.08311" lon="16.275995"><ele>503.0</ele><time>2026-04-12T08:43:30.634Z</time></trkpt><trkpt lat="41.083265" lon="16.2760217"><ele>503.0</ele><time>2026-04-12T08:43:31.636Z</time></trkpt><trkpt lat="41.0834133" lon="16.2760433"><ele>503.0</ele><time>2026-04-12T08:43:32.635Z</time></trkpt><trkpt lat="41.083565" lon="16.2760617"><ele>503.0</ele><time>2026-04-12T08:43:33.633Z</time></trkpt><trkpt lat="41.0837233" lon="16.27608"><ele>503.0</ele><time>2026-04-12T08:43:34.633Z</time></trkpt><trkpt lat="41.0838833" lon="16.2760967"><ele>503.0</ele><time>2026-04-12T08:43:35.633Z</time></trkpt><trkpt lat="41.08406" lon="16.2760883"><ele>502.0</ele><time>2026-04-12T08:43:36.633Z</time></trkpt><trkpt lat="41.084255" lon="16.2760567"><ele>501.0</ele><time>2026-04-12T08:43:37.634Z</time></trkpt><trkpt lat="41.0844667" lon="16.27601"><ele>500.0</ele><time>2026-04-12T08:43:38.634Z</time></trkpt><trkpt lat="41.08468" lon="16.2759483"><ele>500.0</ele><time>2026-04-12T08:43:39.635Z</time></trkpt><trkpt lat="41.0848917" lon="16.27587"><ele>500.0</ele><time>2026-04-12T08:43:40.633Z</time></trkpt><trkpt lat="41.0851067" lon="16.275785"><ele>500.0</ele><time>2026-04-12T08:43:41.634Z</time></trkpt><trkpt lat="41.0853067" lon="16.2756917"><ele>501.0</ele><time>2026-04-12T08:43:42.633Z</time></trkpt><trkpt lat="41.0854983" lon="16.2756017"><ele>502.0</ele><time>2026-04-12T08:43:43.634Z</time></trkpt><trkpt lat="41.0856667" lon="16.2755117"><ele>503.0</ele><time>2026-04-12T08:43:44.643Z</time></trkpt><trkpt lat="41.0858167" lon="16.27542"><ele>499.66666666666663</ele><time>2026-04-12T08:43:45.633Z</time></trkpt><trkpt lat="41.08596" lon="16.2753183"><ele>496.33333333333337</ele><time>2026-04-12T08:43:46.633Z</time></trkpt><trkpt lat="41.0861083" lon="16.2752067"><ele>493.0</ele><time>2026-04-12T08:43:47.636Z</time></trkpt><trkpt lat="41.0862617" lon="16.2750967"><ele>493.0</ele><time>2026-04-12T08:43:48.633Z</time></trkpt><trkpt lat="41.0864217" lon="16.2749883"><ele>493.0</ele><time>2026-04-12T08:43:49.642Z</time></trkpt><trkpt lat="41.0865917" lon="16.2748833"><ele>493.0</ele><time>2026-04-12T08:43:50.634Z</time></trkpt><trkpt lat="41.08677" lon="16.2747733"><ele>489.33333333333337</ele><time>2026-04-12T08:43:51.633Z</time></trkpt><trkpt lat="41.0869533" lon="16.2746567"><ele>485.66666666666663</ele><time>2026-04-12T08:43:52.637Z</time></trkpt><trkpt lat="41.08714" lon="16.2745283"><ele>482.0</ele><time>2026-04-12T08:43:53.634Z</time></trkpt><trkpt lat="41.087325" lon="16.274395"><ele>479.0</ele><time>2026-04-12T08:43:54.634Z</time></trkpt><trkpt lat="41.087505" lon="16.2742683"><ele>476.0</ele><time>2026-04-12T08:43:55.634Z</time></trkpt><trkpt lat="41.0876767" lon="16.274145"><ele>473.0</ele><time>2026-04-12T08:43:56.634Z</time></trkpt><trkpt lat="41.087845" lon="16.2740117"><ele>471.0</ele><time>2026-04-12T08:43:57.635Z</time></trkpt><trkpt lat="41.088005" lon="16.273865"><ele>469.0</ele><time>2026-04-12T08:43:58.633Z</time></trkpt><trkpt lat="41.0883083" lon="16.2735483"><ele>469.0</ele><time>2026-04-12T08:44:00.633Z</time></trkpt><trkpt lat="41.0884367" lon="16.273415"><ele>469.0</ele><time>2026-04-12T08:44:01.634Z</time></trkpt><trkpt lat="41.0885533" lon="16.273295"><ele>469.0</ele><time>2026-04-12T08:44:02.634Z</time></trkpt><trkpt lat="41.0886633" lon="16.273195"><ele>469.0</ele><time>2026-04-12T08:44:03.633Z</time></trkpt><trkpt lat="41.0887667" lon="16.2731217"><ele>469.4</ele><time>2026-04-12T08:44:04.633Z</time></trkpt><trkpt lat="41.08887" lon="16.273075"><ele>469.79999999999995</ele><time>2026-04-12T08:44:05.634Z</time></trkpt><trkpt lat="41.0889783" lon="16.2730633"><ele>470.20000000000005</ele><time>2026-04-12T08:44:06.634Z</time></trkpt><trkpt lat="41.0890833" lon="16.273075"><ele>470.6</ele><time>2026-04-12T08:44:07.634Z</time></trkpt><trkpt lat="41.089185" lon="16.2731167"><ele>471.0</ele><time>2026-04-12T08:44:08.635Z</time></trkpt><trkpt lat="41.08929" lon="16.2731767"><ele>467.0</ele><time>2026-04-12T08:44:09.634Z</time></trkpt><trkpt lat="41.0894" lon="16.27328"><ele>463.0</ele><time>2026-04-12T08:44:10.633Z</time></trkpt><trkpt lat="41.089515" lon="16.2734267"><ele>459.0</ele><time>2026-04-12T08:44:11.634Z</time></trkpt><trkpt lat="41.08964" lon="16.2735917"><ele>459.0</ele><time>2026-04-12T08:44:12.633Z</time></trkpt><trkpt lat="41.0897783" lon="16.2737617"><ele>459.0</ele><time>2026-04-12T08:44:13.634Z</time></trkpt><trkpt lat="41.0899217" lon="16.27394"><ele>459.0</ele><time>2026-04-12T08:44:14.634Z</time></trkpt><trkpt lat="41.0900717" lon="16.2741233"><ele>457.0</ele><time>2026-04-12T08:44:15.634Z</time></trkpt><trkpt lat="41.0902183" lon="16.27431"><ele>455.0</ele><time>2026-04-12T08:44:16.633Z</time></trkpt><trkpt lat="41.09036" lon="16.27449"><ele>453.0</ele><time>2026-04-12T08:44:17.633Z</time></trkpt><trkpt lat="41.090495" lon="16.274655"><ele>451.66666666666663</ele><time>2026-04-12T08:44:18.635Z</time></trkpt><trkpt lat="41.0906167" lon="16.2747983"><ele>450.3333333333333</ele><time>2026-04-12T08:44:19.635Z</time></trkpt><trkpt lat="41.0907317" lon="16.2749183"><ele>449.0</ele><time>2026-04-12T08:44:20.635Z</time></trkpt><trkpt lat="41.0908567" lon="16.2750167"><ele>447.66666666666663</ele><time>2026-04-12T08:44:21.633Z</time></trkpt><trkpt lat="41.0909967" lon="16.2750833"><ele>446.33333333333337</ele><time>2026-04-12T08:44:22.634Z</time></trkpt><trkpt lat="41.0911567" lon="16.2751183"><ele>445.0</ele><time>2026-04-12T08:44:23.633Z</time></trkpt><trkpt lat="41.0913417" lon="16.2751183"><ele>445.0</ele><time>2026-04-12T08:44:24.634Z</time></trkpt><trkpt lat="41.091545" lon="16.27509"><ele>445.0</ele><time>2026-04-12T08:44:25.633Z</time></trkpt><trkpt lat="41.09176" lon="16.27505"><ele>445.0</ele><time>2026-04-12T08:44:26.634Z</time></trkpt><trkpt lat="41.091985" lon="16.2750067"><ele>443.0</ele><time>2026-04-12T08:44:27.634Z</time></trkpt><trkpt lat="41.0922167" lon="16.2749617"><ele>441.0</ele><time>2026-04-12T08:44:28.636Z</time></trkpt><trkpt lat="41.0924417" lon="16.274915"><ele>439.66666666666663</ele><time>2026-04-12T08:44:29.637Z</time></trkpt><trkpt lat="41.0926583" lon="16.2748717"><ele>438.3333333333333</ele><time>2026-04-12T08:44:30.634Z</time></trkpt><trkpt lat="41.0928567" lon="16.2748383"><ele>437.0</ele><time>2026-04-12T08:44:31.634Z</time></trkpt><trkpt lat="41.09304" lon="16.2748233"><ele>437.0</ele><time>2026-04-12T08:44:32.635Z</time></trkpt><trkpt lat="41.09321" lon="16.2748267"><ele>437.0</ele><time>2026-04-12T08:44:33.639Z</time></trkpt><trkpt lat="41.09338" lon="16.27485"><ele>437.0</ele><time>2026-04-12T08:44:34.634Z</time></trkpt><trkpt lat="41.09374" lon="16.2749783"><ele>435.0</ele><time>2026-04-12T08:44:36.634Z</time></trkpt><trkpt lat="41.0939333" lon="16.2750933"><ele>433.0</ele><time>2026-04-12T08:44:37.635Z</time></trkpt><trkpt lat="41.094135" lon="16.275225"><ele>431.0</ele><time>2026-04-12T08:44:38.635Z</time></trkpt><trkpt lat="41.0943467" lon="16.2753617"><ele>427.0</ele><time>2026-04-12T08:44:39.636Z</time></trkpt><trkpt lat="41.0945617" lon="16.2754983"><ele>423.0</ele><time>2026-04-12T08:44:40.635Z</time></trkpt><trkpt lat="41.0947767" lon="16.275635"><ele>419.5</ele><time>2026-04-12T08:44:41.634Z</time></trkpt><trkpt lat="41.09499" lon="16.275775"><ele>416.0</ele><time>2026-04-12T08:44:42.634Z</time></trkpt><trkpt lat="41.095205" lon="16.27592"><ele>416.0</ele><time>2026-04-12T08:44:43.637Z</time></trkpt><trkpt lat="41.095425" lon="16.276065"><ele>416.0</ele><time>2026-04-12T08:44:44.635Z</time></trkpt><trkpt lat="41.0956533" lon="16.2762117"><ele>415.0</ele><time>2026-04-12T08:44:45.633Z</time></trkpt><trkpt lat="41.0958867" lon="16.2763617"><ele>414.0</ele><time>2026-04-12T08:44:46.633Z</time></trkpt><trkpt lat="41.09613" lon="16.276515"><ele>414.0</ele><time>2026-04-12T08:44:47.634Z</time></trkpt><trkpt lat="41.096375" lon="16.2766733"><ele>414.0</ele><time>2026-04-12T08:44:48.633Z</time></trkpt><trkpt lat="41.096625" lon="16.276835"><ele>411.0</ele><time>2026-04-12T08:44:49.638Z</time></trkpt><trkpt lat="41.0968683" lon="16.276995"><ele>408.0</ele><time>2026-04-12T08:44:50.635Z</time></trkpt><trkpt lat="41.0971033" lon="16.2771483"><ele>409.0</ele><time>2026-04-12T08:44:51.633Z</time></trkpt><trkpt lat="41.0973317" lon="16.2772917"><ele>410.0</ele><time>2026-04-12T08:44:52.633Z</time></trkpt><trkpt lat="41.097555" lon="16.27743"><ele>407.0</ele><time>2026-04-12T08:44:53.635Z</time></trkpt><trkpt lat="41.0977733" lon="16.277555"><ele>404.0</ele><time>2026-04-12T08:44:54.633Z</time></trkpt><trkpt lat="41.0979933" lon="16.27766"><ele>404.0</ele><time>2026-04-12T08:44:55.633Z</time></trkpt><trkpt lat="41.0982133" lon="16.27775"><ele>404.0</ele><time>2026-04-12T08:44:56.634Z</time></trkpt><trkpt lat="41.0984267" lon="16.2778417"><ele>406.0</ele><time>2026-04-12T08:44:57.633Z</time></trkpt><trkpt lat="41.0986383" lon="16.2779517"><ele>408.0</ele><time>2026-04-12T08:44:58.634Z</time></trkpt><trkpt lat="41.0988467" lon="16.278075"><ele>406.66666666666663</ele><time>2026-04-12T08:44:59.634Z</time></trkpt><trkpt lat="41.0990483" lon="16.278185"><ele>405.3333333333333</ele><time>2026-04-12T08:45:00.633Z</time></trkpt><trkpt lat="41.0992567" lon="16.27828"><ele>404.0</ele><time>2026-04-12T08:45:01.661Z</time></trkpt><trkpt lat="41.0994683" lon="16.2783683"><ele>404.0</ele><time>2026-04-12T08:45:02.634Z</time></trkpt><trkpt lat="41.0996783" lon="16.278455"><ele>404.0</ele><time>2026-04-12T08:45:03.634Z</time></trkpt><trkpt lat="41.0998833" lon="16.278525"><ele>404.0</ele><time>2026-04-12T08:45:04.634Z</time></trkpt><trkpt lat="41.1000817" lon="16.2785933"><ele>403.3333333333333</ele><time>2026-04-12T08:45:05.634Z</time></trkpt><trkpt lat="41.10028" lon="16.278665"><ele>402.66666666666663</ele><time>2026-04-12T08:45:06.634Z</time></trkpt><trkpt lat="41.1004867" lon="16.27874"><ele>402.0</ele><time>2026-04-12T08:45:07.634Z</time></trkpt><trkpt lat="41.100695" lon="16.2788183"><ele>400.0</ele><time>2026-04-12T08:45:08.635Z</time></trkpt><trkpt lat="41.1009133" lon="16.278895"><ele>398.0</ele><time>2026-04-12T08:45:09.634Z</time></trkpt><trkpt lat="41.1011317" lon="16.278975"><ele>397.0</ele><time>2026-04-12T08:45:10.635Z</time></trkpt><trkpt lat="41.1013433" lon="16.27905"><ele>396.0</ele><time>2026-04-12T08:45:11.633Z</time></trkpt><trkpt lat="41.1015483" lon="16.2791233"><ele>395.0</ele><time>2026-04-12T08:45:12.633Z</time></trkpt><trkpt lat="41.1017467" lon="16.2791933"><ele>393.66666666666663</ele><time>2026-04-12T08:45:13.634Z</time></trkpt><trkpt lat="41.10194" lon="16.2792583"><ele>392.33333333333337</ele><time>2026-04-12T08:45:14.634Z</time></trkpt><trkpt lat="41.10213" lon="16.2793233"><ele>391.0</ele><time>2026-04-12T08:45:15.633Z</time></trkpt><trkpt lat="41.1023167" lon="16.2793883"><ele>388.33333333333337</ele><time>2026-04-12T08:45:16.634Z</time></trkpt><trkpt lat="41.1025" lon="16.2794467"><ele>385.6666666666667</ele><time>2026-04-12T08:45:17.635Z</time></trkpt><trkpt lat="41.1026817" lon="16.2795"><ele>383.0</ele><time>2026-04-12T08:45:18.634Z</time></trkpt><trkpt lat="41.102865" lon="16.27954"><ele>383.0</ele><time>2026-04-12T08:45:19.731Z</time></trkpt><trkpt lat="41.1030467" lon="16.279575"><ele>383.0</ele><time>2026-04-12T08:45:20.634Z</time></trkpt><trkpt lat="41.1032333" lon="16.2796067"><ele>383.0</ele><time>2026-04-12T08:45:21.633Z</time></trkpt><trkpt lat="41.1034233" lon="16.2796417"><ele>380.6666666666667</ele><time>2026-04-12T08:45:22.634Z</time></trkpt><trkpt lat="41.1036117" lon="16.279675"><ele>378.3333333333333</ele><time>2026-04-12T08:45:23.633Z</time></trkpt><trkpt lat="41.103795" lon="16.2797083"><ele>376.0</ele><time>2026-04-12T08:45:24.634Z</time></trkpt><trkpt lat="41.1039767" lon="16.2797417"><ele>373.0</ele><time>2026-04-12T08:45:25.634Z</time></trkpt><trkpt lat="41.1041533" lon="16.2797783"><ele>370.0</ele><time>2026-04-12T08:45:26.634Z</time></trkpt><trkpt lat="41.1043283" lon="16.27982"><ele>367.0</ele><time>2026-04-12T08:45:27.633Z</time></trkpt><trkpt lat="41.1045133" lon="16.27986"><ele>367.0</ele><time>2026-04-12T08:45:28.635Z</time></trkpt><trkpt lat="41.1047167" lon="16.279905"><ele>367.0</ele><time>2026-04-12T08:45:29.634Z</time></trkpt><trkpt lat="41.10493" lon="16.2799533"><ele>367.0</ele><time>2026-04-12T08:45:30.633Z</time></trkpt><trkpt lat="41.1051533" lon="16.2800017"><ele>364.0</ele><time>2026-04-12T08:45:31.633Z</time></trkpt><trkpt lat="41.10539" lon="16.2800583"><ele>361.0</ele><time>2026-04-12T08:45:32.634Z</time></trkpt><trkpt lat="41.1056317" lon="16.28012"><ele>356.5</ele><time>2026-04-12T08:45:33.634Z</time></trkpt><trkpt lat="41.10588" lon="16.280185"><ele>352.0</ele><time>2026-04-12T08:45:34.634Z</time></trkpt><trkpt lat="41.1061267" lon="16.2802483"><ele>352.0</ele><time>2026-04-12T08:45:35.636Z</time></trkpt><trkpt lat="41.1063783" lon="16.2803"><ele>352.0</ele><time>2026-04-12T08:45:36.635Z</time></trkpt><trkpt lat="41.106635" lon="16.28034"><ele>349.0</ele><time>2026-04-12T08:45:37.635Z</time></trkpt><trkpt lat="41.1068917" lon="16.2803783"><ele>346.0</ele><time>2026-04-12T08:45:38.636Z</time></trkpt><trkpt lat="41.1071467" lon="16.28041"><ele>346.0</ele><time>2026-04-12T08:45:39.635Z</time></trkpt><trkpt lat="41.1073933" lon="16.2804433"><ele>346.0</ele><time>2026-04-12T08:45:40.636Z</time></trkpt><trkpt lat="41.10763" lon="16.280475"><ele>343.5</ele><time>2026-04-12T08:45:41.634Z</time></trkpt><trkpt lat="41.1078583" lon="16.2805133"><ele>341.0</ele><time>2026-04-12T08:45:42.635Z</time></trkpt><trkpt lat="41.1083033" lon="16.2805717"><ele>338.5</ele><time>2026-04-12T08:45:44.636Z</time></trkpt><trkpt lat="41.1085317" lon="16.28059"><ele>336.0</ele><time>2026-04-12T08:45:45.634Z</time></trkpt><trkpt lat="41.108765" lon="16.2805983"><ele>337.0</ele><time>2026-04-12T08:45:46.635Z</time></trkpt><trkpt lat="41.1090117" lon="16.2806133"><ele>338.0</ele><time>2026-04-12T08:45:47.634Z</time></trkpt><trkpt lat="41.109265" lon="16.2806333"><ele>334.0</ele><time>2026-04-12T08:45:48.634Z</time></trkpt><trkpt lat="41.1095133" lon="16.2806483"><ele>330.0</ele><time>2026-04-12T08:45:49.634Z</time></trkpt><trkpt lat="41.1097617" lon="16.2806667"><ele>329.5</ele><time>2026-04-12T08:45:50.636Z</time></trkpt><trkpt lat="41.110005" lon="16.2806817"><ele>329.0</ele><time>2026-04-12T08:45:51.636Z</time></trkpt><trkpt lat="41.1102517" lon="16.280705"><ele>329.0</ele><time>2026-04-12T08:45:52.637Z</time></trkpt><trkpt lat="41.1104983" lon="16.2807333"><ele>329.0</ele><time>2026-04-12T08:45:53.729Z</time></trkpt><trkpt lat="41.1107533" lon="16.28077"><ele>328.0</ele><time>2026-04-12T08:45:54.635Z</time></trkpt><trkpt lat="41.111015" lon="16.280815"><ele>327.0</ele><time>2026-04-12T08:45:55.641Z</time></trkpt><trkpt lat="41.1112833" lon="16.2808667"><ele>327.0</ele><time>2026-04-12T08:45:56.636Z</time></trkpt><trkpt lat="41.111545" lon="16.2809133"><ele>327.0</ele><time>2026-04-12T08:45:57.635Z</time></trkpt><trkpt lat="41.111795" lon="16.2809517"><ele>326.5</ele><time>2026-04-12T08:45:58.634Z</time></trkpt><trkpt lat="41.1120367" lon="16.28099"><ele>326.0</ele><time>2026-04-12T08:45:59.634Z</time></trkpt><trkpt lat="41.112275" lon="16.2810317"><ele>323.0</ele><time>2026-04-12T08:46:00.634Z</time></trkpt><trkpt lat="41.1127533" lon="16.281115"><ele>323.0</ele><time>2026-04-12T08:46:02.635Z</time></trkpt><trkpt lat="41.1129733" lon="16.281155"><ele>323.0</ele><time>2026-04-12T08:46:03.635Z</time></trkpt><trkpt lat="41.11335" lon="16.2812333"><ele>322.6666666666667</ele><time>2026-04-12T08:46:05.636Z</time></trkpt><trkpt lat="41.113535" lon="16.2812933"><ele>322.3333333333333</ele><time>2026-04-12T08:46:06.635Z</time></trkpt><trkpt lat="41.1137283" lon="16.28137"><ele>322.0</ele><time>2026-04-12T08:46:07.634Z</time></trkpt><trkpt lat="41.1139333" lon="16.281465"><ele>321.5</ele><time>2026-04-12T08:46:08.636Z</time></trkpt><trkpt lat="41.114145" lon="16.28157"><ele>321.0</ele><time>2026-04-12T08:46:09.634Z</time></trkpt><trkpt lat="41.1143633" lon="16.2816767"><ele>321.0</ele><time>2026-04-12T08:46:10.634Z</time></trkpt><trkpt lat="41.114585" lon="16.2817867"><ele>321.0</ele><time>2026-04-12T08:46:11.636Z</time></trkpt><trkpt lat="41.1148033" lon="16.2818967"><ele>320.0</ele><time>2026-04-12T08:46:12.635Z</time></trkpt><trkpt lat="41.115025" lon="16.2820083"><ele>319.0</ele><time>2026-04-12T08:46:13.634Z</time></trkpt><trkpt lat="41.1152483" lon="16.2821217"><ele>319.0</ele><time>2026-04-12T08:46:14.636Z</time></trkpt><trkpt lat="41.1154717" lon="16.2822317"><ele>319.0</ele><time>2026-04-12T08:46:15.634Z</time></trkpt><trkpt lat="41.1156933" lon="16.2823417"><ele>318.5</ele><time>2026-04-12T08:46:16.634Z</time></trkpt><trkpt lat="41.1159117" lon="16.2824517"><ele>318.0</ele><time>2026-04-12T08:46:17.635Z</time></trkpt><trkpt lat="41.1161283" lon="16.2825633"><ele>318.0</ele><time>2026-04-12T08:46:18.635Z</time></trkpt><trkpt lat="41.1163417" lon="16.2826683"><ele>318.0</ele><time>2026-04-12T08:46:19.636Z</time></trkpt><trkpt lat="41.116545" lon="16.28277"><ele>318.0</ele><time>2026-04-12T08:46:20.635Z</time></trkpt><trkpt lat="41.1167333" lon="16.2828667"><ele>318.0</ele><time>2026-04-12T08:46:21.634Z</time></trkpt><trkpt lat="41.1169083" lon="16.2829517"><ele>318.0</ele><time>2026-04-12T08:46:22.635Z</time></trkpt><trkpt lat="41.1170567" lon="16.2830167"><ele>318.0</ele><time>2026-04-12T08:46:23.635Z</time></trkpt><trkpt lat="41.1171733" lon="16.2830683"><ele>318.1666666666667</ele><time>2026-04-12T08:46:24.635Z</time></trkpt><trkpt lat="41.1172667" lon="16.2831117"><ele>318.3333333333333</ele><time>2026-04-12T08:46:25.634Z</time></trkpt><trkpt lat="41.117335" lon="16.28315"><ele>318.5</ele><time>2026-04-12T08:46:26.637Z</time></trkpt><trkpt lat="41.1174017" lon="16.2832317"><ele>318.66666666666663</ele><time>2026-04-12T08:46:28.634Z</time></trkpt><trkpt lat="41.1173683" lon="16.2833567"><ele>318.8333333333333</ele><time>2026-04-12T08:46:30.634Z</time></trkpt><trkpt lat="41.1173317" lon="16.2834517"><ele>319.0</ele><time>2026-04-12T08:46:31.635Z</time></trkpt><trkpt lat="41.1172833" lon="16.2835783"><ele>319.0</ele><time>2026-04-12T08:46:32.635Z</time></trkpt><trkpt lat="41.1172367" lon="16.28372"><ele>319.0</ele><time>2026-04-12T08:46:33.634Z</time></trkpt><trkpt lat="41.1171833" lon="16.283875"><ele>319.0</ele><time>2026-04-12T08:46:34.637Z</time></trkpt><trkpt lat="41.1171183" lon="16.2840517"><ele>319.0</ele><time>2026-04-12T08:46:35.637Z</time></trkpt><trkpt lat="41.117045" lon="16.2842433"><ele>319.66666666666663</ele><time>2026-04-12T08:46:36.634Z</time></trkpt><trkpt lat="41.1169667" lon="16.284445"><ele>320.3333333333333</ele><time>2026-04-12T08:46:37.635Z</time></trkpt><trkpt lat="41.116885" lon="16.2846633"><ele>321.0</ele><time>2026-04-12T08:46:38.635Z</time></trkpt><trkpt lat="41.1168033" lon="16.284895"><ele>321.0</ele><time>2026-04-12T08:46:39.635Z</time></trkpt><trkpt lat="41.116725" lon="16.28513"><ele>321.0</ele><time>2026-04-12T08:46:40.635Z</time></trkpt><trkpt lat="41.1166433" lon="16.2853667"><ele>321.0</ele><time>2026-04-12T08:46:41.635Z</time></trkpt><trkpt lat="41.1165567" lon="16.28561"><ele>321.3333333333333</ele><time>2026-04-12T08:46:42.634Z</time></trkpt><trkpt lat="41.1164667" lon="16.2858667"><ele>321.66666666666663</ele><time>2026-04-12T08:46:43.635Z</time></trkpt><trkpt lat="41.1163717" lon="16.2861267"><ele>322.0</ele><time>2026-04-12T08:46:44.638Z</time></trkpt><trkpt lat="41.1162867" lon="16.2863833"><ele>322.3333333333333</ele><time>2026-04-12T08:46:45.634Z</time></trkpt><trkpt lat="41.1162067" lon="16.286645"><ele>322.6666666666667</ele><time>2026-04-12T08:46:46.634Z</time></trkpt><trkpt lat="41.116115" lon="16.2868983"><ele>323.0</ele><time>2026-04-12T08:46:47.635Z</time></trkpt><trkpt lat="41.1160283" lon="16.2871583"><ele>323.33333333333337</ele><time>2026-04-12T08:46:48.634Z</time></trkpt><trkpt lat="41.1159433" lon="16.28742"><ele>323.6666666666667</ele><time>2026-04-12T08:46:49.635Z</time></trkpt><trkpt lat="41.1158567" lon="16.2876633"><ele>324.0</ele><time>2026-04-12T08:46:50.636Z</time></trkpt><trkpt lat="41.1157767" lon="16.2878917"><ele>324.0</ele><time>2026-04-12T08:46:51.635Z</time></trkpt><trkpt lat="41.1157" lon="16.28811"><ele>324.0</ele><time>2026-04-12T08:46:52.636Z</time></trkpt><trkpt lat="41.1156167" lon="16.2883217"><ele>324.0</ele><time>2026-04-12T08:46:53.635Z</time></trkpt><trkpt lat="41.1155417" lon="16.2885167"><ele>324.0</ele><time>2026-04-12T08:46:54.634Z</time></trkpt><trkpt lat="41.11548" lon="16.2886933"><ele>324.0</ele><time>2026-04-12T08:46:55.635Z</time></trkpt><trkpt lat="41.1154267" lon="16.28885"><ele>324.0</ele><time>2026-04-12T08:46:56.637Z</time></trkpt><trkpt lat="41.115375" lon="16.2890083"><ele>324.0</ele><time>2026-04-12T08:46:57.634Z</time></trkpt><trkpt lat="41.115315" lon="16.2891783"><ele>324.3333333333333</ele><time>2026-04-12T08:46:58.634Z</time></trkpt><trkpt lat="41.11524" lon="16.2893633"><ele>324.66666666666663</ele><time>2026-04-12T08:46:59.638Z</time></trkpt><trkpt lat="41.1151567" lon="16.28956"><ele>325.0</ele><time>2026-04-12T08:47:00.636Z</time></trkpt><trkpt lat="41.1150617" lon="16.28977"><ele>325.3333333333333</ele><time>2026-04-12T08:47:01.634Z</time></trkpt><trkpt lat="41.114965" lon="16.289995"><ele>325.6666666666667</ele><time>2026-04-12T08:47:02.636Z</time></trkpt><trkpt lat="41.114865" lon="16.2902317"><ele>326.0</ele><time>2026-04-12T08:47:03.634Z</time></trkpt><trkpt lat="41.1147633" lon="16.2904767"><ele>326.0</ele><time>2026-04-12T08:47:04.636Z</time></trkpt><trkpt lat="41.1146583" lon="16.290725"><ele>326.0</ele><time>2026-04-12T08:47:05.634Z</time></trkpt><trkpt lat="41.1145483" lon="16.290975"><ele>326.0</ele><time>2026-04-12T08:47:06.634Z</time></trkpt><trkpt lat="41.1144367" lon="16.2912283"><ele>326.6666666666667</ele><time>2026-04-12T08:47:07.635Z</time></trkpt><trkpt lat="41.1143283" lon="16.2914833"><ele>327.3333333333333</ele><time>2026-04-12T08:47:08.635Z</time></trkpt><trkpt lat="41.1142217" lon="16.2917333"><ele>328.0</ele><time>2026-04-12T08:47:09.636Z</time></trkpt><trkpt lat="41.1141183" lon="16.291975"><ele>328.0</ele><time>2026-04-12T08:47:10.635Z</time></trkpt><trkpt lat="41.114015" lon="16.2922183"><ele>328.0</ele><time>2026-04-12T08:47:11.635Z</time></trkpt><trkpt lat="41.1139083" lon="16.2924567"><ele>328.0</ele><time>2026-04-12T08:47:12.635Z</time></trkpt><trkpt lat="41.1138067" lon="16.2927067"><ele>329.0</ele><time>2026-04-12T08:47:13.635Z</time></trkpt><trkpt lat="41.113595" lon="16.2932167"><ele>330.0</ele><time>2026-04-12T08:47:15.634Z</time></trkpt><trkpt lat="41.1135" lon="16.2934867"><ele>330.0</ele><time>2026-04-12T08:47:16.634Z</time></trkpt><trkpt lat="41.113415" lon="16.2937667"><ele>330.0</ele><time>2026-04-12T08:47:17.636Z</time></trkpt><trkpt lat="41.113335" lon="16.2940533"><ele>330.0</ele><time>2026-04-12T08:47:18.634Z</time></trkpt><trkpt lat="41.11325" lon="16.29434"><ele>330.0</ele><time>2026-04-12T08:47:19.636Z</time></trkpt><trkpt lat="41.1131667" lon="16.29463"><ele>330.5</ele><time>2026-04-12T08:47:20.635Z</time></trkpt><trkpt lat="41.1130883" lon="16.294925"><ele>331.0</ele><time>2026-04-12T08:47:21.634Z</time></trkpt><trkpt lat="41.1130067" lon="16.295225"><ele>331.0</ele><time>2026-04-12T08:47:22.635Z</time></trkpt><trkpt lat="41.1129233" lon="16.2955283"><ele>331.0</ele><time>2026-04-12T08:47:23.635Z</time></trkpt><trkpt lat="41.1128417" lon="16.29583"><ele>330.5</ele><time>2026-04-12T08:47:24.636Z</time></trkpt><trkpt lat="41.11276" lon="16.296135"><ele>330.0</ele><time>2026-04-12T08:47:25.634Z</time></trkpt><trkpt lat="41.1125967" lon="16.2967417"><ele>330.0</ele><time>2026-04-12T08:47:27.634Z</time></trkpt><trkpt lat="41.11251" lon="16.2970433"><ele>330.0</ele><time>2026-04-12T08:47:28.635Z</time></trkpt><trkpt lat="41.1123383" lon="16.297645"><ele>331.0</ele><time>2026-04-12T08:47:30.634Z</time></trkpt><trkpt lat="41.112255" lon="16.2979367"><ele>332.0</ele><time>2026-04-12T08:47:31.635Z</time></trkpt><trkpt lat="41.1121767" lon="16.2982133"><ele>332.0</ele><time>2026-04-12T08:47:32.636Z</time></trkpt><trkpt lat="41.11211" lon="16.2984733"><ele>332.0</ele><time>2026-04-12T08:47:33.634Z</time></trkpt><trkpt lat="41.112045" lon="16.2987183"><ele>332.0</ele><time>2026-04-12T08:47:34.634Z</time></trkpt><trkpt lat="41.1119817" lon="16.2989517"><ele>332.0</ele><time>2026-04-12T08:47:35.634Z</time></trkpt><trkpt lat="41.1119167" lon="16.2991767"><ele>332.0</ele><time>2026-04-12T08:47:36.634Z</time></trkpt><trkpt lat="41.1118533" lon="16.2993883"><ele>332.0</ele><time>2026-04-12T08:47:37.634Z</time></trkpt><trkpt lat="41.111795" lon="16.2995867"><ele>332.0</ele><time>2026-04-12T08:47:38.635Z</time></trkpt><trkpt lat="41.1117433" lon="16.2997717"><ele>332.0</ele><time>2026-04-12T08:47:39.634Z</time></trkpt><trkpt lat="41.1116833" lon="16.29996"><ele>332.0</ele><time>2026-04-12T08:47:40.634Z</time></trkpt><trkpt lat="41.1115217" lon="16.300365"><ele>332.33333333333337</ele><time>2026-04-12T08:47:42.634Z</time></trkpt><trkpt lat="41.1114067" lon="16.3005817"><ele>332.6666666666667</ele><time>2026-04-12T08:47:43.634Z</time></trkpt><trkpt lat="41.1112833" lon="16.3008033"><ele>333.0</ele><time>2026-04-12T08:47:44.635Z</time></trkpt><trkpt lat="41.1111583" lon="16.3010333"><ele>333.0</ele><time>2026-04-12T08:47:45.634Z</time></trkpt><trkpt lat="41.111035" lon="16.3012717"><ele>333.0</ele><time>2026-04-12T08:47:46.634Z</time></trkpt><trkpt lat="41.110915" lon="16.30151"><ele>333.0</ele><time>2026-04-12T08:47:47.637Z</time></trkpt><trkpt lat="41.1108" lon="16.30173"><ele>333.3333333333333</ele><time>2026-04-12T08:47:48.636Z</time></trkpt><trkpt lat="41.1106833" lon="16.3019233"><ele>333.66666666666663</ele><time>2026-04-12T08:47:49.637Z</time></trkpt><trkpt lat="41.1105533" lon="16.302105"><ele>334.0</ele><time>2026-04-12T08:47:50.636Z</time></trkpt><trkpt lat="41.1104017" lon="16.3022817"><ele>334.0</ele><time>2026-04-12T08:47:51.636Z</time></trkpt><trkpt lat="41.110235" lon="16.302455"><ele>334.0</ele><time>2026-04-12T08:47:52.637Z</time></trkpt><trkpt lat="41.1100583" lon="16.3026367"><ele>334.0</ele><time>2026-04-12T08:47:53.638Z</time></trkpt><trkpt lat="41.1098733" lon="16.3028267"><ele>334.5</ele><time>2026-04-12T08:47:54.634Z</time></trkpt><trkpt lat="41.109685" lon="16.3030267"><ele>335.0</ele><time>2026-04-12T08:47:55.638Z</time></trkpt><trkpt lat="41.109495" lon="16.30323"><ele>335.0</ele><time>2026-04-12T08:47:56.635Z</time></trkpt><trkpt lat="41.1093033" lon="16.30343"><ele>335.0</ele><time>2026-04-12T08:47:57.635Z</time></trkpt><trkpt lat="41.1091117" lon="16.3036317"><ele>335.0</ele><time>2026-04-12T08:47:58.635Z</time></trkpt><trkpt lat="41.1089167" lon="16.3038383"><ele>335.0</ele><time>2026-04-12T08:47:59.635Z</time></trkpt><trkpt lat="41.10872" lon="16.304045"><ele>335.5</ele><time>2026-04-12T08:48:00.634Z</time></trkpt><trkpt lat="41.108525" lon="16.304245"><ele>336.0</ele><time>2026-04-12T08:48:01.635Z</time></trkpt><trkpt lat="41.10834" lon="16.3044383"><ele>336.0</ele><time>2026-04-12T08:48:02.635Z</time></trkpt><trkpt lat="41.108155" lon="16.3046283"><ele>336.0</ele><time>2026-04-12T08:48:03.635Z</time></trkpt><trkpt lat="41.1079683" lon="16.3048283"><ele>336.0</ele><time>2026-04-12T08:48:04.634Z</time></trkpt><trkpt lat="41.10778" lon="16.305035"><ele>336.0</ele><time>2026-04-12T08:48:05.635Z</time></trkpt><trkpt lat="41.1075933" lon="16.3052533"><ele>336.5</ele><time>2026-04-12T08:48:06.635Z</time></trkpt><trkpt lat="41.10741" lon="16.3054867"><ele>337.0</ele><time>2026-04-12T08:48:07.634Z</time></trkpt><trkpt lat="41.107225" lon="16.305725"><ele>337.5</ele><time>2026-04-12T08:48:08.634Z</time></trkpt><trkpt lat="41.107035" lon="16.3059633"><ele>338.0</ele><time>2026-04-12T08:48:09.635Z</time></trkpt><trkpt lat="41.106845" lon="16.3062033"><ele>339.0</ele><time>2026-04-12T08:48:10.635Z</time></trkpt><trkpt lat="41.106655" lon="16.3064467"><ele>340.0</ele><time>2026-04-12T08:48:11.634Z</time></trkpt><trkpt lat="41.1064633" lon="16.3066883"><ele>340.0</ele><time>2026-04-12T08:48:12.635Z</time></trkpt><trkpt lat="41.1062717" lon="16.3069267"><ele>340.0</ele><time>2026-04-12T08:48:13.635Z</time></trkpt><trkpt lat="41.1060833" lon="16.3071617"><ele>341.0</ele><time>2026-04-12T08:48:14.635Z</time></trkpt><trkpt lat="41.1058967" lon="16.307395"><ele>342.0</ele><time>2026-04-12T08:48:15.634Z</time></trkpt><trkpt lat="41.1057117" lon="16.3076267"><ele>342.5</ele><time>2026-04-12T08:48:16.637Z</time></trkpt><trkpt lat="41.105525" lon="16.3078583"><ele>343.0</ele><time>2026-04-12T08:48:17.635Z</time></trkpt><trkpt lat="41.10534" lon="16.3080883"><ele>344.0</ele><time>2026-04-12T08:48:18.634Z</time></trkpt><trkpt lat="41.1051583" lon="16.3083167"><ele>345.0</ele><time>2026-04-12T08:48:19.635Z</time></trkpt><trkpt lat="41.1049783" lon="16.3085467"><ele>345.5</ele><time>2026-04-12T08:48:20.635Z</time></trkpt><trkpt lat="41.1047967" lon="16.308785"><ele>346.0</ele><time>2026-04-12T08:48:21.639Z</time></trkpt><trkpt lat="41.1046133" lon="16.30902"><ele>346.5</ele><time>2026-04-12T08:48:22.636Z</time></trkpt><trkpt lat="41.1044283" lon="16.3092533"><ele>347.0</ele><time>2026-04-12T08:48:23.636Z</time></trkpt><trkpt lat="41.1042433" lon="16.3094883"><ele>347.5</ele><time>2026-04-12T08:48:24.635Z</time></trkpt><trkpt lat="41.10406" lon="16.309725"><ele>348.0</ele><time>2026-04-12T08:48:25.634Z</time></trkpt><trkpt lat="41.1038717" lon="16.3099583"><ele>349.0</ele><time>2026-04-12T08:48:26.634Z</time></trkpt><trkpt lat="41.103685" lon="16.31019"><ele>350.0</ele><time>2026-04-12T08:48:27.636Z</time></trkpt><trkpt lat="41.1034967" lon="16.3104217"><ele>350.5</ele><time>2026-04-12T08:48:28.635Z</time></trkpt><trkpt lat="41.10331" lon="16.3106517"><ele>351.0</ele><time>2026-04-12T08:48:29.633Z</time></trkpt><trkpt lat="41.103135" lon="16.31087"><ele>352.3333333333333</ele><time>2026-04-12T08:48:30.634Z</time></trkpt><trkpt lat="41.1029717" lon="16.31108"><ele>353.66666666666663</ele><time>2026-04-12T08:48:31.635Z</time></trkpt><trkpt lat="41.1028117" lon="16.3112833"><ele>355.0</ele><time>2026-04-12T08:48:32.635Z</time></trkpt><trkpt lat="41.1026533" lon="16.3114833"><ele>355.66666666666663</ele><time>2026-04-12T08:48:33.636Z</time></trkpt><trkpt lat="41.1024933" lon="16.3116817"><ele>356.3333333333333</ele><time>2026-04-12T08:48:34.634Z</time></trkpt><trkpt lat="41.10234" lon="16.3118733"><ele>357.0</ele><time>2026-04-12T08:48:35.634Z</time></trkpt><trkpt lat="41.1021933" lon="16.3120533"><ele>357.0</ele><time>2026-04-12T08:48:36.634Z</time></trkpt><trkpt lat="41.102055" lon="16.3122233"><ele>357.0</ele><time>2026-04-12T08:48:37.637Z</time></trkpt><trkpt lat="41.1019267" lon="16.31238"><ele>357.0</ele><time>2026-04-12T08:48:38.634Z</time></trkpt><trkpt lat="41.1018083" lon="16.3125233"><ele>356.6666666666667</ele><time>2026-04-12T08:48:39.634Z</time></trkpt><trkpt lat="41.1017083" lon="16.3126667"><ele>356.33333333333337</ele><time>2026-04-12T08:48:40.634Z</time></trkpt><trkpt lat="41.1016217" lon="16.3128267"><ele>356.0</ele><time>2026-04-12T08:48:41.636Z</time></trkpt><trkpt lat="41.101545" lon="16.313035"><ele>354.6666666666667</ele><time>2026-04-12T08:48:42.635Z</time></trkpt><trkpt lat="41.101475" lon="16.3132817"><ele>353.3333333333333</ele><time>2026-04-12T08:48:43.635Z</time></trkpt><trkpt lat="41.1014017" lon="16.313555"><ele>352.0</ele><time>2026-04-12T08:48:44.636Z</time></trkpt><trkpt lat="41.101325" lon="16.31384"><ele>352.0</ele><time>2026-04-12T08:48:45.635Z</time></trkpt><trkpt lat="41.1012417" lon="16.3141417"><ele>352.0</ele><time>2026-04-12T08:48:46.635Z</time></trkpt><trkpt lat="41.10116" lon="16.3144467"><ele>351.0</ele><time>2026-04-12T08:48:47.635Z</time></trkpt><trkpt lat="41.101075" lon="16.3147533"><ele>350.0</ele><time>2026-04-12T08:48:48.634Z</time></trkpt><trkpt lat="41.1009867" lon="16.315075"><ele>350.0</ele><time>2026-04-12T08:48:49.637Z</time></trkpt><trkpt lat="41.1008933" lon="16.3154067"><ele>350.0</ele><time>2026-04-12T08:48:50.635Z</time></trkpt><trkpt lat="41.1008" lon="16.3157267"><ele>349.0</ele><time>2026-04-12T08:48:51.636Z</time></trkpt><trkpt lat="41.10071" lon="16.3160467"><ele>348.0</ele><time>2026-04-12T08:48:52.644Z</time></trkpt><trkpt lat="41.1006283" lon="16.316375"><ele>347.5</ele><time>2026-04-12T08:48:53.634Z</time></trkpt><trkpt lat="41.1005533" lon="16.3167133"><ele>347.0</ele><time>2026-04-12T08:48:54.635Z</time></trkpt><trkpt lat="41.1004833" lon="16.3170533"><ele>347.0</ele><time>2026-04-12T08:48:55.635Z</time></trkpt><trkpt lat="41.1004183" lon="16.3173883"><ele>347.0</ele><time>2026-04-12T08:48:56.635Z</time></trkpt><trkpt lat="41.10035" lon="16.3177267"><ele>346.0</ele><time>2026-04-12T08:48:57.634Z</time></trkpt><trkpt lat="41.1002783" lon="16.31807"><ele>345.0</ele><time>2026-04-12T08:48:58.634Z</time></trkpt><trkpt lat="41.1001983" lon="16.31841"><ele>345.0</ele><time>2026-04-12T08:48:59.634Z</time></trkpt><trkpt lat="41.1001167" lon="16.3187467"><ele>345.0</ele><time>2026-04-12T08:49:00.642Z</time></trkpt><trkpt lat="41.100035" lon="16.3190817"><ele>344.5</ele><time>2026-04-12T08:49:01.636Z</time></trkpt><trkpt lat="41.09996" lon="16.3194267"><ele>344.0</ele><time>2026-04-12T08:49:02.634Z</time></trkpt><trkpt lat="41.099895" lon="16.3197883"><ele>345.5</ele><time>2026-04-12T08:49:03.634Z</time></trkpt><trkpt lat="41.0998367" lon="16.3201433"><ele>347.0</ele><time>2026-04-12T08:49:04.634Z</time></trkpt><trkpt lat="41.0997833" lon="16.3204767"><ele>347.0</ele><time>2026-04-12T08:49:05.633Z</time></trkpt><trkpt lat="41.099735" lon="16.3207683"><ele>347.0</ele><time>2026-04-12T08:49:06.634Z</time></trkpt><trkpt lat="41.099695" lon="16.3210167"><ele>347.0</ele><time>2026-04-12T08:49:07.635Z</time></trkpt><trkpt lat="41.099655" lon="16.3212383"><ele>346.33333333333337</ele><time>2026-04-12T08:49:08.634Z</time></trkpt><trkpt lat="41.0996033" lon="16.32145"><ele>345.6666666666667</ele><time>2026-04-12T08:49:09.635Z</time></trkpt><trkpt lat="41.0995367" lon="16.3216733"><ele>345.0</ele><time>2026-04-12T08:49:10.634Z</time></trkpt><trkpt lat="41.09945" lon="16.3219017"><ele>345.0</ele><time>2026-04-12T08:49:11.636Z</time></trkpt><trkpt lat="41.0993517" lon="16.32214"><ele>345.0</ele><time>2026-04-12T08:49:12.634Z</time></trkpt><trkpt lat="41.0992417" lon="16.3223867"><ele>345.0</ele><time>2026-04-12T08:49:13.633Z</time></trkpt><trkpt lat="41.0991133" lon="16.322635"><ele>345.5</ele><time>2026-04-12T08:49:14.635Z</time></trkpt><trkpt lat="41.0989817" lon="16.3228967"><ele>346.0</ele><time>2026-04-12T08:49:15.633Z</time></trkpt><trkpt lat="41.09885" lon="16.3231667"><ele>346.0</ele><time>2026-04-12T08:49:16.635Z</time></trkpt><trkpt lat="41.09872" lon="16.3234433"><ele>346.0</ele><time>2026-04-12T08:49:17.634Z</time></trkpt><trkpt lat="41.0985917" lon="16.323725"><ele>346.5</ele><time>2026-04-12T08:49:18.634Z</time></trkpt><trkpt lat="41.0984667" lon="16.3240133"><ele>347.0</ele><time>2026-04-12T08:49:19.635Z</time></trkpt><trkpt lat="41.0983433" lon="16.3243033"><ele>348.5</ele><time>2026-04-12T08:49:20.635Z</time></trkpt><trkpt lat="41.098225" lon="16.3245983"><ele>350.0</ele><time>2026-04-12T08:49:21.634Z</time></trkpt><trkpt lat="41.0981117" lon="16.3248967"><ele>350.5</ele><time>2026-04-12T08:49:22.636Z</time></trkpt><trkpt lat="41.098" lon="16.325195"><ele>351.0</ele><time>2026-04-12T08:49:23.636Z</time></trkpt><trkpt lat="41.0978883" lon="16.32549"><ele>351.0</ele><time>2026-04-12T08:49:24.634Z</time></trkpt><trkpt lat="41.0977783" lon="16.3257783"><ele>351.0</ele><time>2026-04-12T08:49:25.635Z</time></trkpt><trkpt lat="41.0976767" lon="16.3260517"><ele>351.0</ele><time>2026-04-12T08:49:26.637Z</time></trkpt><trkpt lat="41.0975833" lon="16.3263067"><ele>351.0</ele><time>2026-04-12T08:49:27.633Z</time></trkpt><trkpt lat="41.0974983" lon="16.3265433"><ele>351.0</ele><time>2026-04-12T08:49:28.634Z</time></trkpt><trkpt lat="41.0974183" lon="16.3267633"><ele>352.6666666666667</ele><time>2026-04-12T08:49:29.634Z</time></trkpt><trkpt lat="41.0973433" lon="16.3269667"><ele>354.33333333333337</ele><time>2026-04-12T08:49:30.635Z</time></trkpt><trkpt lat="41.0972717" lon="16.3271533"><ele>356.0</ele><time>2026-04-12T08:49:31.634Z</time></trkpt><trkpt lat="41.0972067" lon="16.3273317"><ele>356.0</ele><time>2026-04-12T08:49:32.634Z</time></trkpt><trkpt lat="41.0971483" lon="16.32751"><ele>356.0</ele><time>2026-04-12T08:49:33.634Z</time></trkpt><trkpt lat="41.0971017" lon="16.3277067"><ele>356.0</ele><time>2026-04-12T08:49:34.634Z</time></trkpt><trkpt lat="41.0970617" lon="16.3279217"><ele>356.33333333333337</ele><time>2026-04-12T08:49:35.635Z</time></trkpt><trkpt lat="41.0970183" lon="16.3281533"><ele>356.6666666666667</ele><time>2026-04-12T08:49:36.633Z</time></trkpt><trkpt lat="41.0969683" lon="16.3284"><ele>357.0</ele><time>2026-04-12T08:49:37.634Z</time></trkpt><trkpt lat="41.0969083" lon="16.3286567"><ele>356.3333333333333</ele><time>2026-04-12T08:49:38.635Z</time></trkpt><trkpt lat="41.09685" lon="16.3289333"><ele>355.66666666666663</ele><time>2026-04-12T08:49:39.633Z</time></trkpt><trkpt lat="41.0967917" lon="16.3292233"><ele>355.0</ele><time>2026-04-12T08:49:40.634Z</time></trkpt><trkpt lat="41.0967367" lon="16.3295267"><ele>353.5</ele><time>2026-04-12T08:49:41.638Z</time></trkpt><trkpt lat="41.096675" lon="16.3298433"><ele>352.0</ele><time>2026-04-12T08:49:42.634Z</time></trkpt><trkpt lat="41.09661" lon="16.3301633"><ele>353.5</ele><time>2026-04-12T08:49:43.634Z</time></trkpt><trkpt lat="41.0965467" lon="16.3304867"><ele>355.0</ele><time>2026-04-12T08:49:44.635Z</time></trkpt><trkpt lat="41.09648" lon="16.3308133"><ele>355.0</ele><time>2026-04-12T08:49:45.636Z</time></trkpt><trkpt lat="41.0964117" lon="16.3311433"><ele>355.0</ele><time>2026-04-12T08:49:46.634Z</time></trkpt><trkpt lat="41.0963383" lon="16.3314767"><ele>353.0</ele><time>2026-04-12T08:49:47.634Z</time></trkpt><trkpt lat="41.0962683" lon="16.3318117"><ele>351.0</ele><time>2026-04-12T08:49:48.634Z</time></trkpt><trkpt lat="41.0961983" lon="16.3321517"><ele>351.0</ele><time>2026-04-12T08:49:49.634Z</time></trkpt><trkpt lat="41.0961283" lon="16.33249"><ele>351.0</ele><time>2026-04-12T08:49:50.636Z</time></trkpt><trkpt lat="41.0960567" lon="16.33283"><ele>350.5</ele><time>2026-04-12T08:49:51.634Z</time></trkpt><trkpt lat="41.0959867" lon="16.333155"><ele>350.0</ele><time>2026-04-12T08:49:52.634Z</time></trkpt><trkpt lat="41.0959233" lon="16.333465"><ele>350.0</ele><time>2026-04-12T08:49:53.633Z</time></trkpt><trkpt lat="41.0958633" lon="16.33376"><ele>350.0</ele><time>2026-04-12T08:49:54.634Z</time></trkpt><trkpt lat="41.095805" lon="16.334055"><ele>351.5</ele><time>2026-04-12T08:49:55.635Z</time></trkpt><trkpt lat="41.0957467" lon="16.3343533"><ele>353.0</ele><time>2026-04-12T08:49:56.634Z</time></trkpt><trkpt lat="41.0956933" lon="16.3346533"><ele>352.0</ele><time>2026-04-12T08:49:57.634Z</time></trkpt><trkpt lat="41.0956383" lon="16.33496"><ele>351.0</ele><time>2026-04-12T08:49:58.634Z</time></trkpt><trkpt lat="41.0955717" lon="16.3352717"><ele>351.5</ele><time>2026-04-12T08:49:59.635Z</time></trkpt><trkpt lat="41.09551" lon="16.3355917"><ele>352.0</ele><time>2026-04-12T08:50:00.634Z</time></trkpt><trkpt lat="41.0954517" lon="16.3359017"><ele>352.0</ele><time>2026-04-12T08:50:01.635Z</time></trkpt><trkpt lat="41.095395" lon="16.3361933"><ele>352.0</ele><time>2026-04-12T08:50:02.634Z</time></trkpt><trkpt lat="41.0953417" lon="16.336465"><ele>352.0</ele><time>2026-04-12T08:50:03.633Z</time></trkpt><trkpt lat="41.09529" lon="16.3367133"><ele>352.0</ele><time>2026-04-12T08:50:04.635Z</time></trkpt><trkpt lat="41.0952367" lon="16.3369333"><ele>352.0</ele><time>2026-04-12T08:50:05.634Z</time></trkpt><trkpt lat="41.0951867" lon="16.33712"><ele>352.0</ele><time>2026-04-12T08:50:06.634Z</time></trkpt><trkpt lat="41.0951333" lon="16.3372783"><ele>352.0</ele><time>2026-04-12T08:50:07.634Z</time></trkpt><trkpt lat="41.0950617" lon="16.337425"><ele>352.0</ele><time>2026-04-12T08:50:08.637Z</time></trkpt><trkpt lat="41.0949833" lon="16.3375567"><ele>352.0</ele><time>2026-04-12T08:50:09.636Z</time></trkpt><trkpt lat="41.0949233" lon="16.3376583"><ele>352.0</ele><time>2026-04-12T08:50:10.634Z</time></trkpt><trkpt lat="41.094875" lon="16.3377317"><ele>352.0</ele><time>2026-04-12T08:50:11.633Z</time></trkpt><trkpt lat="41.0948317" lon="16.3378067"><ele>352.0</ele><time>2026-04-12T08:50:14.635Z</time></trkpt><trkpt lat="41.0947783" lon="16.3378917"><ele>352.0</ele><time>2026-04-12T08:50:16.635Z</time></trkpt><trkpt lat="41.0947183" lon="16.338055"><ele>352.0</ele><time>2026-04-12T08:50:18.634Z</time></trkpt><trkpt lat="41.0946833" lon="16.3381533"><ele>352.0</ele><time>2026-04-12T08:50:19.636Z</time></trkpt><trkpt lat="41.0946283" lon="16.3382667"><ele>352.0</ele><time>2026-04-12T08:50:20.635Z</time></trkpt><trkpt lat="41.0945617" lon="16.3383933"><ele>352.0</ele><time>2026-04-12T08:50:21.634Z</time></trkpt><trkpt lat="41.09449" lon="16.3385383"><ele>352.0</ele><time>2026-04-12T08:50:22.635Z</time></trkpt><trkpt lat="41.09441" lon="16.338695"><ele>352.0</ele><time>2026-04-12T08:50:23.635Z</time></trkpt><trkpt lat="41.094325" lon="16.3388633"><ele>352.0</ele><time>2026-04-12T08:50:24.633Z</time></trkpt><trkpt lat="41.0942333" lon="16.3390467"><ele>351.66666666666663</ele><time>2026-04-12T08:50:25.633Z</time></trkpt><trkpt lat="41.0941383" lon="16.33924"><ele>351.3333333333333</ele><time>2026-04-12T08:50:26.635Z</time></trkpt><trkpt lat="41.09404" lon="16.33944"><ele>351.0</ele><time>2026-04-12T08:50:27.634Z</time></trkpt><trkpt lat="41.0939383" lon="16.339645"><ele>351.0</ele><time>2026-04-12T08:50:28.633Z</time></trkpt><trkpt lat="41.0938333" lon="16.339855"><ele>351.0</ele><time>2026-04-12T08:50:29.633Z</time></trkpt><trkpt lat="41.093715" lon="16.3400833"><ele>351.0</ele><time>2026-04-12T08:50:30.637Z</time></trkpt><trkpt lat="41.0935933" lon="16.3403233"><ele>351.0</ele><time>2026-04-12T08:50:31.633Z</time></trkpt><trkpt lat="41.0934717" lon="16.34057"><ele>351.0</ele><time>2026-04-12T08:50:32.634Z</time></trkpt><trkpt lat="41.0933483" lon="16.3408183"><ele>351.0</ele><time>2026-04-12T08:50:33.634Z</time></trkpt><trkpt lat="41.09323" lon="16.3410567"><ele>351.6666666666667</ele><time>2026-04-12T08:50:34.634Z</time></trkpt><trkpt lat="41.09312" lon="16.341275"><ele>352.33333333333337</ele><time>2026-04-12T08:50:35.635Z</time></trkpt><trkpt lat="41.093015" lon="16.3414817"><ele>353.0</ele><time>2026-04-12T08:50:36.633Z</time></trkpt><trkpt lat="41.0929183" lon="16.3416767"><ele>353.0</ele><time>2026-04-12T08:50:37.636Z</time></trkpt><trkpt lat="41.0928283" lon="16.3418583"><ele>353.0</ele><time>2026-04-12T08:50:38.634Z</time></trkpt><trkpt lat="41.0927433" lon="16.3420333"><ele>353.0</ele><time>2026-04-12T08:50:39.635Z</time></trkpt><trkpt lat="41.0926583" lon="16.3422"><ele>353.0</ele><time>2026-04-12T08:50:40.634Z</time></trkpt><trkpt lat="41.0925817" lon="16.34235"><ele>353.0</ele><time>2026-04-12T08:50:41.636Z</time></trkpt><trkpt lat="41.0925133" lon="16.3424833"><ele>353.0</ele><time>2026-04-12T08:50:42.634Z</time></trkpt><trkpt lat="41.0924583" lon="16.3425917"><ele>353.0</ele><time>2026-04-12T08:50:43.636Z</time></trkpt><trkpt lat="41.09242" lon="16.3426767"><ele>353.0</ele><time>2026-04-12T08:50:44.635Z</time></trkpt><trkpt lat="41.0923883" lon="16.3427617"><ele>352.83333333333337</ele><time>2026-04-12T08:50:46.634Z</time></trkpt><trkpt lat="41.0924017" lon="16.3428633"><ele>352.6666666666667</ele><time>2026-04-12T08:50:49.634Z</time></trkpt><trkpt lat="41.0924033" lon="16.3429517"><ele>352.5</ele><time>2026-04-12T08:50:51.634Z</time></trkpt><trkpt lat="41.092335" lon="16.3430667"><ele>352.3333333333333</ele><time>2026-04-12T08:50:53.634Z</time></trkpt><trkpt lat="41.092265" lon="16.3431267"><ele>352.16666666666663</ele><time>2026-04-12T08:50:54.634Z</time></trkpt><trkpt lat="41.092175" lon="16.3431867"><ele>352.0</ele><time>2026-04-12T08:50:55.633Z</time></trkpt><trkpt lat="41.0920733" lon="16.34325"><ele>352.66666666666663</ele><time>2026-04-12T08:50:56.634Z</time></trkpt><trkpt lat="41.0919617" lon="16.3433317"><ele>353.3333333333333</ele><time>2026-04-12T08:50:57.637Z</time></trkpt><trkpt lat="41.0918367" lon="16.3434417"><ele>354.0</ele><time>2026-04-12T08:50:58.634Z</time></trkpt><trkpt lat="41.0917017" lon="16.343585"><ele>353.5</ele><time>2026-04-12T08:50:59.635Z</time></trkpt><trkpt lat="41.091415" lon="16.3439217"><ele>353.0</ele><time>2026-04-12T08:51:01.634Z</time></trkpt><trkpt lat="41.0912683" lon="16.3440983"><ele>353.0</ele><time>2026-04-12T08:51:02.636Z</time></trkpt><trkpt lat="41.0911183" lon="16.3442767"><ele>353.0</ele><time>2026-04-12T08:51:03.637Z</time></trkpt><trkpt lat="41.0909733" lon="16.3444417"><ele>353.0</ele><time>2026-04-12T08:51:04.633Z</time></trkpt><trkpt lat="41.09084" lon="16.3446"><ele>353.0</ele><time>2026-04-12T08:51:05.635Z</time></trkpt><trkpt lat="41.0907133" lon="16.3447667"><ele>353.0</ele><time>2026-04-12T08:51:06.634Z</time></trkpt><trkpt lat="41.0905883" lon="16.34495"><ele>353.0</ele><time>2026-04-12T08:51:07.634Z</time></trkpt><trkpt lat="41.09046" lon="16.3451417"><ele>353.0</ele><time>2026-04-12T08:51:08.636Z</time></trkpt><trkpt lat="41.0903333" lon="16.345355"><ele>353.0</ele><time>2026-04-12T08:51:09.634Z</time></trkpt><trkpt lat="41.0901983" lon="16.3455733"><ele>353.0</ele><time>2026-04-12T08:51:10.634Z</time></trkpt><trkpt lat="41.089925" lon="16.3460217"><ele>353.0</ele><time>2026-04-12T08:51:12.634Z</time></trkpt><trkpt lat="41.0897867" lon="16.3462533"><ele>353.0</ele><time>2026-04-12T08:51:13.634Z</time></trkpt><trkpt lat="41.08965" lon="16.3464883"><ele>353.0</ele><time>2026-04-12T08:51:14.635Z</time></trkpt><trkpt lat="41.089515" lon="16.3467183"><ele>353.0</ele><time>2026-04-12T08:51:15.633Z</time></trkpt><trkpt lat="41.0893833" lon="16.34694"><ele>353.0</ele><time>2026-04-12T08:51:16.635Z</time></trkpt><trkpt lat="41.0892517" lon="16.3471583"><ele>353.0</ele><time>2026-04-12T08:51:17.633Z</time></trkpt><trkpt lat="41.089115" lon="16.34738"><ele>353.33333333333337</ele><time>2026-04-12T08:51:18.634Z</time></trkpt><trkpt lat="41.0889717" lon="16.3475983"><ele>353.6666666666667</ele><time>2026-04-12T08:51:19.636Z</time></trkpt><trkpt lat="41.08882" lon="16.34781"><ele>354.0</ele><time>2026-04-12T08:51:20.636Z</time></trkpt><trkpt lat="41.0886717" lon="16.3480133"><ele>353.3333333333333</ele><time>2026-04-12T08:51:21.635Z</time></trkpt><trkpt lat="41.0885317" lon="16.3482017"><ele>352.66666666666663</ele><time>2026-04-12T08:51:22.635Z</time></trkpt><trkpt lat="41.0884" lon="16.34838"><ele>352.0</ele><time>2026-04-12T08:51:23.634Z</time></trkpt><trkpt lat="41.0882717" lon="16.3485583"><ele>352.0</ele><time>2026-04-12T08:51:24.634Z</time></trkpt><trkpt lat="41.0881433" lon="16.3487383"><ele>352.0</ele><time>2026-04-12T08:51:25.635Z</time></trkpt><trkpt lat="41.0880233" lon="16.3489183"><ele>352.0</ele><time>2026-04-12T08:51:26.635Z</time></trkpt><trkpt lat="41.0879033" lon="16.3490967"><ele>352.3333333333333</ele><time>2026-04-12T08:51:27.635Z</time></trkpt><trkpt lat="41.0877817" lon="16.3492667"><ele>352.6666666666667</ele><time>2026-04-12T08:51:28.636Z</time></trkpt><trkpt lat="41.0876567" lon="16.3494217"><ele>353.0</ele><time>2026-04-12T08:51:29.635Z</time></trkpt><trkpt lat="41.087535" lon="16.3495783"><ele>351.6666666666667</ele><time>2026-04-12T08:51:30.634Z</time></trkpt><trkpt lat="41.0874217" lon="16.3497633"><ele>350.3333333333333</ele><time>2026-04-12T08:51:31.634Z</time></trkpt><trkpt lat="41.0873167" lon="16.3499733"><ele>349.0</ele><time>2026-04-12T08:51:32.636Z</time></trkpt><trkpt lat="41.087205" lon="16.350205"><ele>349.0</ele><time>2026-04-12T08:51:33.634Z</time></trkpt><trkpt lat="41.08709" lon="16.3504417"><ele>349.0</ele><time>2026-04-12T08:51:34.633Z</time></trkpt><trkpt lat="41.08697" lon="16.350675"><ele>349.0</ele><time>2026-04-12T08:51:35.635Z</time></trkpt><trkpt lat="41.0868467" lon="16.3509133"><ele>349.66666666666663</ele><time>2026-04-12T08:51:36.635Z</time></trkpt><trkpt lat="41.0867267" lon="16.3511583"><ele>350.3333333333333</ele><time>2026-04-12T08:51:37.635Z</time></trkpt><trkpt lat="41.0866" lon="16.351405"><ele>351.0</ele><time>2026-04-12T08:51:38.635Z</time></trkpt><trkpt lat="41.08647" lon="16.3516533"><ele>351.0</ele><time>2026-04-12T08:51:39.634Z</time></trkpt><trkpt lat="41.08634" lon="16.351905"><ele>351.0</ele><time>2026-04-12T08:51:40.633Z</time></trkpt><trkpt lat="41.086215" lon="16.352165"><ele>351.5</ele><time>2026-04-12T08:51:41.635Z</time></trkpt><trkpt lat="41.0860883" lon="16.3524283"><ele>352.0</ele><time>2026-04-12T08:51:42.635Z</time></trkpt><trkpt lat="41.0859567" lon="16.3526883"><ele>352.0</ele><time>2026-04-12T08:51:43.634Z</time></trkpt><trkpt lat="41.0858267" lon="16.35295"><ele>352.0</ele><time>2026-04-12T08:51:44.635Z</time></trkpt><trkpt lat="41.085695" lon="16.3532083"><ele>352.0</ele><time>2026-04-12T08:51:45.633Z</time></trkpt><trkpt lat="41.0855667" lon="16.3534617"><ele>352.0</ele><time>2026-04-12T08:51:46.634Z</time></trkpt><trkpt lat="41.0854417" lon="16.35371"><ele>351.0</ele><time>2026-04-12T08:51:47.635Z</time></trkpt><trkpt lat="41.0853167" lon="16.3539583"><ele>350.0</ele><time>2026-04-12T08:51:48.635Z</time></trkpt><trkpt lat="41.08519" lon="16.35421"><ele>350.0</ele><time>2026-04-12T08:51:49.636Z</time></trkpt><trkpt lat="41.0850617" lon="16.3544617"><ele>350.0</ele><time>2026-04-12T08:51:50.637Z</time></trkpt><trkpt lat="41.0849317" lon="16.3547133"><ele>350.0</ele><time>2026-04-12T08:51:51.636Z</time></trkpt><trkpt lat="41.0847983" lon="16.3549683"><ele>350.0</ele><time>2026-04-12T08:51:52.636Z</time></trkpt><trkpt lat="41.0846617" lon="16.355225"><ele>350.0</ele><time>2026-04-12T08:51:53.637Z</time></trkpt><trkpt lat="41.0845317" lon="16.3554817"><ele>350.0</ele><time>2026-04-12T08:51:54.635Z</time></trkpt><trkpt lat="41.0844083" lon="16.355725"><ele>350.0</ele><time>2026-04-12T08:51:55.637Z</time></trkpt><trkpt lat="41.0842933" lon="16.3559633"><ele>350.0</ele><time>2026-04-12T08:51:56.638Z</time></trkpt><trkpt lat="41.0841817" lon="16.3561933"><ele>350.0</ele><time>2026-04-12T08:51:57.635Z</time></trkpt><trkpt lat="41.08407" lon="16.3564117"><ele>350.0</ele><time>2026-04-12T08:51:58.636Z</time></trkpt><trkpt lat="41.08396" lon="16.356635"><ele>350.0</ele><time>2026-04-12T08:51:59.634Z</time></trkpt><trkpt lat="41.0838483" lon="16.3568633"><ele>350.0</ele><time>2026-04-12T08:52:00.633Z</time></trkpt><trkpt lat="41.0837383" lon="16.357085"><ele>349.6666666666667</ele><time>2026-04-12T08:52:01.634Z</time></trkpt><trkpt lat="41.0836317" lon="16.3572917"><ele>349.3333333333333</ele><time>2026-04-12T08:52:02.635Z</time></trkpt><trkpt lat="41.0835317" lon="16.357485"><ele>349.0</ele><time>2026-04-12T08:52:03.635Z</time></trkpt><trkpt lat="41.08344" lon="16.3576667"><ele>349.0</ele><time>2026-04-12T08:52:04.633Z</time></trkpt><trkpt lat="41.0833583" lon="16.3578417"><ele>349.0</ele><time>2026-04-12T08:52:05.636Z</time></trkpt><trkpt lat="41.0832883" lon="16.3580117"><ele>349.0</ele><time>2026-04-12T08:52:06.634Z</time></trkpt><trkpt lat="41.0832267" lon="16.35819"><ele>349.0</ele><time>2026-04-12T08:52:07.635Z</time></trkpt><trkpt lat="41.0831717" lon="16.358375"><ele>349.0</ele><time>2026-04-12T08:52:08.635Z</time></trkpt><trkpt lat="41.0831217" lon="16.35855"><ele>349.0</ele><time>2026-04-12T08:52:09.634Z</time></trkpt><trkpt lat="41.0830683" lon="16.358725"><ele>349.0</ele><time>2026-04-12T08:52:10.634Z</time></trkpt><trkpt lat="41.0830133" lon="16.358905"><ele>349.0</ele><time>2026-04-12T08:52:11.634Z</time></trkpt><trkpt lat="41.0829517" lon="16.359105"><ele>349.0</ele><time>2026-04-12T08:52:12.634Z</time></trkpt><trkpt lat="41.0828867" lon="16.3593167"><ele>349.0</ele><time>2026-04-12T08:52:13.634Z</time></trkpt><trkpt lat="41.082815" lon="16.3595467"><ele>349.0</ele><time>2026-04-12T08:52:14.634Z</time></trkpt><trkpt lat="41.0827383" lon="16.3597817"><ele>349.0</ele><time>2026-04-12T08:52:15.636Z</time></trkpt><trkpt lat="41.0826583" lon="16.360025"><ele>349.0</ele><time>2026-04-12T08:52:16.635Z</time></trkpt><trkpt lat="41.0825767" lon="16.3602767"><ele>349.0</ele><time>2026-04-12T08:52:17.634Z</time></trkpt><trkpt lat="41.0825" lon="16.36054"><ele>349.0</ele><time>2026-04-12T08:52:18.634Z</time></trkpt><trkpt lat="41.0824267" lon="16.360805"><ele>349.0</ele><time>2026-04-12T08:52:19.636Z</time></trkpt><trkpt lat="41.0823467" lon="16.3610667"><ele>349.0</ele><time>2026-04-12T08:52:20.637Z</time></trkpt><trkpt lat="41.0822583" lon="16.3613433"><ele>349.5</ele><time>2026-04-12T08:52:21.635Z</time></trkpt><trkpt lat="41.0821667" lon="16.36162"><ele>350.0</ele><time>2026-04-12T08:52:22.636Z</time></trkpt><trkpt lat="41.082075" lon="16.3618967"><ele>350.0</ele><time>2026-04-12T08:52:23.635Z</time></trkpt><trkpt lat="41.081985" lon="16.3621717"><ele>350.0</ele><time>2026-04-12T08:52:24.635Z</time></trkpt><trkpt lat="41.0818967" lon="16.3624467"><ele>350.33333333333337</ele><time>2026-04-12T08:52:25.636Z</time></trkpt><trkpt lat="41.081815" lon="16.3627117"><ele>350.6666666666667</ele><time>2026-04-12T08:52:26.635Z</time></trkpt><trkpt lat="41.0817383" lon="16.3629617"><ele>351.0</ele><time>2026-04-12T08:52:27.634Z</time></trkpt><trkpt lat="41.0816667" lon="16.3632"><ele>350.6666666666667</ele><time>2026-04-12T08:52:28.636Z</time></trkpt><trkpt lat="41.0815933" lon="16.3634283"><ele>350.33333333333337</ele><time>2026-04-12T08:52:29.634Z</time></trkpt><trkpt lat="41.0815233" lon="16.3636533"><ele>350.0</ele><time>2026-04-12T08:52:30.636Z</time></trkpt><trkpt lat="41.081465" lon="16.36387"><ele>350.0</ele><time>2026-04-12T08:52:31.634Z</time></trkpt><trkpt lat="41.0814133" lon="16.364085"><ele>350.0</ele><time>2026-04-12T08:52:32.636Z</time></trkpt><trkpt lat="41.0813667" lon="16.3643017"><ele>350.0</ele><time>2026-04-12T08:52:33.634Z</time></trkpt><trkpt lat="41.0813283" lon="16.36451"><ele>350.0</ele><time>2026-04-12T08:52:34.633Z</time></trkpt><trkpt lat="41.0812867" lon="16.3647167"><ele>350.0</ele><time>2026-04-12T08:52:35.634Z</time></trkpt><trkpt lat="41.0812467" lon="16.36493"><ele>350.0</ele><time>2026-04-12T08:52:36.633Z</time></trkpt><trkpt lat="41.0812083" lon="16.3651433"><ele>350.0</ele><time>2026-04-12T08:52:37.633Z</time></trkpt><trkpt lat="41.08117" lon="16.3653517"><ele>350.0</ele><time>2026-04-12T08:52:38.634Z</time></trkpt><trkpt lat="41.0811233" lon="16.3655567"><ele>350.0</ele><time>2026-04-12T08:52:39.634Z</time></trkpt><trkpt lat="41.0810717" lon="16.3657567"><ele>349.6666666666667</ele><time>2026-04-12T08:52:40.633Z</time></trkpt><trkpt lat="41.0810083" lon="16.3659467"><ele>349.3333333333333</ele><time>2026-04-12T08:52:41.634Z</time></trkpt><trkpt lat="41.08095" lon="16.3661417"><ele>349.0</ele><time>2026-04-12T08:52:42.633Z</time></trkpt><trkpt lat="41.0809083" lon="16.3663617"><ele>348.66666666666663</ele><time>2026-04-12T08:52:43.633Z</time></trkpt><trkpt lat="41.0808833" lon="16.3666083"><ele>348.3333333333333</ele><time>2026-04-12T08:52:44.635Z</time></trkpt><trkpt lat="41.080855" lon="16.3668683"><ele>348.0</ele><time>2026-04-12T08:52:45.636Z</time></trkpt><trkpt lat="41.0808183" lon="16.3671267"><ele>348.6666666666667</ele><time>2026-04-12T08:52:46.634Z</time></trkpt><trkpt lat="41.0807717" lon="16.3673717"><ele>349.33333333333337</ele><time>2026-04-12T08:52:47.636Z</time></trkpt><trkpt lat="41.0807167" lon="16.3676083"><ele>350.0</ele><time>2026-04-12T08:52:48.634Z</time></trkpt><trkpt lat="41.0806517" lon="16.36785"><ele>350.6666666666667</ele><time>2026-04-12T08:52:49.634Z</time></trkpt><trkpt lat="41.08058" lon="16.3680983"><ele>351.3333333333333</ele><time>2026-04-12T08:52:50.636Z</time></trkpt><trkpt lat="41.0805033" lon="16.368355"><ele>352.0</ele><time>2026-04-12T08:52:51.634Z</time></trkpt><trkpt lat="41.08043" lon="16.3686167"><ele>352.0</ele><time>2026-04-12T08:52:52.634Z</time></trkpt><trkpt lat="41.0803533" lon="16.3688833"><ele>352.0</ele><time>2026-04-12T08:52:53.634Z</time></trkpt><trkpt lat="41.080275" lon="16.3691483"><ele>352.0</ele><time>2026-04-12T08:52:54.634Z</time></trkpt><trkpt lat="41.0801983" lon="16.3694133"><ele>352.0</ele><time>2026-04-12T08:52:55.635Z</time></trkpt><trkpt lat="41.08012" lon="16.3696817"><ele>352.0</ele><time>2026-04-12T08:52:56.634Z</time></trkpt><trkpt lat="41.0800433" lon="16.36995"><ele>352.0</ele><time>2026-04-12T08:52:57.633Z</time></trkpt><trkpt lat="41.0799667" lon="16.3702233"><ele>351.3333333333333</ele><time>2026-04-12T08:52:58.639Z</time></trkpt><trkpt lat="41.0798883" lon="16.3705"><ele>350.6666666666667</ele><time>2026-04-12T08:52:59.634Z</time></trkpt><trkpt lat="41.0798067" lon="16.3707767"><ele>350.0</ele><time>2026-04-12T08:53:00.638Z</time></trkpt><trkpt lat="41.0797267" lon="16.3710483"><ele>349.6666666666667</ele><time>2026-04-12T08:53:01.635Z</time></trkpt><trkpt lat="41.07965" lon="16.3713133"><ele>349.3333333333333</ele><time>2026-04-12T08:53:02.634Z</time></trkpt><trkpt lat="41.079575" lon="16.37157"><ele>349.0</ele><time>2026-04-12T08:53:03.634Z</time></trkpt><trkpt lat="41.07951" lon="16.3718133"><ele>349.0</ele><time>2026-04-12T08:53:04.634Z</time></trkpt><trkpt lat="41.0794433" lon="16.3720417"><ele>349.0</ele><time>2026-04-12T08:53:05.634Z</time></trkpt><trkpt lat="41.0793783" lon="16.3722617"><ele>349.0</ele><time>2026-04-12T08:53:06.637Z</time></trkpt><trkpt lat="41.0793167" lon="16.3724733"><ele>349.0</ele><time>2026-04-12T08:53:07.634Z</time></trkpt><trkpt lat="41.0792583" lon="16.3726717"><ele>349.0</ele><time>2026-04-12T08:53:08.635Z</time></trkpt><trkpt lat="41.0792033" lon="16.3728583"><ele>349.0</ele><time>2026-04-12T08:53:09.635Z</time></trkpt><trkpt lat="41.0791567" lon="16.3730183"><ele>349.0</ele><time>2026-04-12T08:53:10.633Z</time></trkpt><trkpt lat="41.07912" lon="16.3731533"><ele>348.66666666666663</ele><time>2026-04-12T08:53:11.634Z</time></trkpt><trkpt lat="41.07909" lon="16.3732567"><ele>348.3333333333333</ele><time>2026-04-12T08:53:12.634Z</time></trkpt><trkpt lat="41.07907" lon="16.3733483"><ele>348.0</ele><time>2026-04-12T08:53:14.635Z</time></trkpt><trkpt lat="41.07903" lon="16.3734583"><ele>347.6666666666667</ele><time>2026-04-12T08:53:16.633Z</time></trkpt><trkpt lat="41.079005" lon="16.3735667"><ele>347.33333333333337</ele><time>2026-04-12T08:53:17.634Z</time></trkpt><trkpt lat="41.0789767" lon="16.3736967"><ele>347.0</ele><time>2026-04-12T08:53:18.635Z</time></trkpt><trkpt lat="41.0789417" lon="16.373845"><ele>347.5</ele><time>2026-04-12T08:53:19.637Z</time></trkpt><trkpt lat="41.0789033" lon="16.3740067"><ele>348.0</ele><time>2026-04-12T08:53:20.638Z</time></trkpt><trkpt lat="41.0788583" lon="16.3741833"><ele>348.5</ele><time>2026-04-12T08:53:21.636Z</time></trkpt><trkpt lat="41.0788117" lon="16.3743783"><ele>349.0</ele><time>2026-04-12T08:53:22.637Z</time></trkpt><trkpt lat="41.07876" lon="16.3745867"><ele>348.3333333333333</ele><time>2026-04-12T08:53:23.636Z</time></trkpt><trkpt lat="41.07871" lon="16.3747967"><ele>347.6666666666667</ele><time>2026-04-12T08:53:24.634Z</time></trkpt><trkpt lat="41.078655" lon="16.3750117"><ele>347.0</ele><time>2026-04-12T08:53:25.634Z</time></trkpt><trkpt lat="41.0785983" lon="16.3752317"><ele>347.0</ele><time>2026-04-12T08:53:26.634Z</time></trkpt><trkpt lat="41.0785383" lon="16.3754667"><ele>347.0</ele><time>2026-04-12T08:53:27.633Z</time></trkpt><trkpt lat="41.0784783" lon="16.3757067"><ele>347.0</ele><time>2026-04-12T08:53:28.634Z</time></trkpt><trkpt lat="41.078415" lon="16.3759533"><ele>347.6666666666667</ele><time>2026-04-12T08:53:29.634Z</time></trkpt><trkpt lat="41.07835" lon="16.3762017"><ele>348.3333333333333</ele><time>2026-04-12T08:53:30.634Z</time></trkpt><trkpt lat="41.0782833" lon="16.3764567"><ele>349.0</ele><time>2026-04-12T08:53:31.633Z</time></trkpt><trkpt lat="41.0782167" lon="16.37672"><ele>349.3333333333333</ele><time>2026-04-12T08:53:32.634Z</time></trkpt><trkpt lat="41.0781483" lon="16.3769883"><ele>349.6666666666667</ele><time>2026-04-12T08:53:33.635Z</time></trkpt><trkpt lat="41.0780817" lon="16.3772567"><ele>350.0</ele><time>2026-04-12T08:53:34.634Z</time></trkpt><trkpt lat="41.07801" lon="16.3775233"><ele>350.0</ele><time>2026-04-12T08:53:35.634Z</time></trkpt><trkpt lat="41.0779483" lon="16.3777833"><ele>350.0</ele><time>2026-04-12T08:53:36.633Z</time></trkpt><trkpt lat="41.0778817" lon="16.3780317"><ele>350.0</ele><time>2026-04-12T08:53:37.637Z</time></trkpt><trkpt lat="41.077815" lon="16.3782683"><ele>349.6666666666667</ele><time>2026-04-12T08:53:38.636Z</time></trkpt><trkpt lat="41.0777533" lon="16.3785017"><ele>349.3333333333333</ele><time>2026-04-12T08:53:39.634Z</time></trkpt><trkpt lat="41.07769" lon="16.3787417"><ele>349.0</ele><time>2026-04-12T08:53:40.635Z</time></trkpt><trkpt lat="41.0776267" lon="16.3789867"><ele>348.3333333333333</ele><time>2026-04-12T08:53:41.634Z</time></trkpt><trkpt lat="41.0775683" lon="16.3792233"><ele>347.6666666666667</ele><time>2026-04-12T08:53:42.633Z</time></trkpt><trkpt lat="41.0775133" lon="16.3794367"><ele>347.0</ele><time>2026-04-12T08:53:43.634Z</time></trkpt><trkpt lat="41.077465" lon="16.3796283"><ele>346.0</ele><time>2026-04-12T08:53:44.636Z</time></trkpt><trkpt lat="41.0774233" lon="16.3798117"><ele>345.0</ele><time>2026-04-12T08:53:45.634Z</time></trkpt><trkpt lat="41.0773767" lon="16.380005"><ele>344.0</ele><time>2026-04-12T08:53:46.636Z</time></trkpt><trkpt lat="41.077325" lon="16.38021"><ele>344.0</ele><time>2026-04-12T08:53:47.636Z</time></trkpt><trkpt lat="41.0772683" lon="16.38042"><ele>344.0</ele><time>2026-04-12T08:53:48.635Z</time></trkpt><trkpt lat="41.0772133" lon="16.380635"><ele>344.0</ele><time>2026-04-12T08:53:49.635Z</time></trkpt><trkpt lat="41.0771567" lon="16.38086"><ele>343.33333333333337</ele><time>2026-04-12T08:53:50.637Z</time></trkpt><trkpt lat="41.0770967" lon="16.3810983"><ele>342.6666666666667</ele><time>2026-04-12T08:53:51.635Z</time></trkpt><trkpt lat="41.0770333" lon="16.3813467"><ele>342.0</ele><time>2026-04-12T08:53:52.637Z</time></trkpt><trkpt lat="41.0769617" lon="16.3816067"><ele>342.0</ele><time>2026-04-12T08:53:53.635Z</time></trkpt><trkpt lat="41.0768883" lon="16.3818833"><ele>342.0</ele><time>2026-04-12T08:53:54.73Z</time></trkpt><trkpt lat="41.0768183" lon="16.38216"><ele>342.0</ele><time>2026-04-12T08:53:55.634Z</time></trkpt><trkpt lat="41.0767533" lon="16.38242"><ele>342.0</ele><time>2026-04-12T08:53:56.635Z</time></trkpt><trkpt lat="41.076695" lon="16.3826583"><ele>342.0</ele><time>2026-04-12T08:53:57.634Z</time></trkpt><trkpt lat="41.0766317" lon="16.3828833"><ele>342.0</ele><time>2026-04-12T08:53:58.637Z</time></trkpt><trkpt lat="41.076565" lon="16.3830917"><ele>341.8</ele><time>2026-04-12T08:53:59.635Z</time></trkpt><trkpt lat="41.0764983" lon="16.3832717"><ele>341.6</ele><time>2026-04-12T08:54:00.634Z</time></trkpt><trkpt lat="41.0764367" lon="16.383405"><ele>341.40000000000003</ele><time>2026-04-12T08:54:01.634Z</time></trkpt><trkpt lat="41.0763833" lon="16.3835"><ele>341.20000000000005</ele><time>2026-04-12T08:54:02.637Z</time></trkpt><trkpt lat="41.07634" lon="16.3835683"><ele>341.0</ele><time>2026-04-12T08:54:03.634Z</time></trkpt><trkpt lat="41.0762883" lon="16.3836767"><ele>341.0</ele><time>2026-04-12T08:54:05.633Z</time></trkpt><trkpt lat="41.07622" lon="16.3838067"><ele>341.0</ele><time>2026-04-12T08:54:07.634Z</time></trkpt><trkpt lat="41.07617" lon="16.3838933"><ele>341.0</ele><time>2026-04-12T08:54:08.637Z</time></trkpt><trkpt lat="41.0761083" lon="16.3839917"><ele>341.0</ele><time>2026-04-12T08:54:09.639Z</time></trkpt><trkpt lat="41.0760283" lon="16.384105"><ele>341.0</ele><time>2026-04-12T08:54:10.636Z</time></trkpt><trkpt lat="41.0759483" lon="16.3842267"><ele>341.0</ele><time>2026-04-12T08:54:11.634Z</time></trkpt><trkpt lat="41.0758633" lon="16.3843617"><ele>341.0</ele><time>2026-04-12T08:54:12.634Z</time></trkpt><trkpt lat="41.0757683" lon="16.3845133"><ele>341.0</ele><time>2026-04-12T08:54:13.635Z</time></trkpt><trkpt lat="41.075665" lon="16.384675"><ele>341.0</ele><time>2026-04-12T08:54:14.634Z</time></trkpt><trkpt lat="41.0755617" lon="16.3848483"><ele>341.0</ele><time>2026-04-12T08:54:15.635Z</time></trkpt><trkpt lat="41.075455" lon="16.3850283"><ele>341.0</ele><time>2026-04-12T08:54:16.634Z</time></trkpt><trkpt lat="41.0753433" lon="16.3852217"><ele>341.0</ele><time>2026-04-12T08:54:17.636Z</time></trkpt><trkpt lat="41.0752317" lon="16.3854167"><ele>340.75</ele><time>2026-04-12T08:54:18.636Z</time></trkpt><trkpt lat="41.0751283" lon="16.3855867"><ele>340.5</ele><time>2026-04-12T08:54:19.636Z</time></trkpt><trkpt lat="41.07504" lon="16.3857333"><ele>340.25</ele><time>2026-04-12T08:54:20.634Z</time></trkpt><trkpt lat="41.07496" lon="16.3858683"><ele>340.0</ele><time>2026-04-12T08:54:21.634Z</time></trkpt><trkpt lat="41.07488" lon="16.386015"><ele>340.0</ele><time>2026-04-12T08:54:22.634Z</time></trkpt><trkpt lat="41.0747933" lon="16.3861617"><ele>340.0</ele><time>2026-04-12T08:54:23.638Z</time></trkpt><trkpt lat="41.0746983" lon="16.3863067"><ele>340.0</ele><time>2026-04-12T08:54:24.637Z</time></trkpt><trkpt lat="41.0746017" lon="16.3864533"><ele>340.0</ele><time>2026-04-12T08:54:25.633Z</time></trkpt><trkpt lat="41.0745083" lon="16.3866117"><ele>340.0</ele><time>2026-04-12T08:54:26.637Z</time></trkpt><trkpt lat="41.0744167" lon="16.3867783"><ele>340.0</ele><time>2026-04-12T08:54:27.634Z</time></trkpt><trkpt lat="41.07432" lon="16.3869517"><ele>340.0</ele><time>2026-04-12T08:54:28.633Z</time></trkpt><trkpt lat="41.0742133" lon="16.3871333"><ele>340.66666666666663</ele><time>2026-04-12T08:54:29.634Z</time></trkpt><trkpt lat="41.0741" lon="16.387325"><ele>341.3333333333333</ele><time>2026-04-12T08:54:30.641Z</time></trkpt><trkpt lat="41.0739783" lon="16.38753"><ele>342.0</ele><time>2026-04-12T08:54:31.633Z</time></trkpt><trkpt lat="41.073855" lon="16.3877483"><ele>342.0</ele><time>2026-04-12T08:54:32.635Z</time></trkpt><trkpt lat="41.0737233" lon="16.3879733"><ele>342.0</ele><time>2026-04-12T08:54:33.636Z</time></trkpt><trkpt lat="41.07359" lon="16.3881933"><ele>342.0</ele><time>2026-04-12T08:54:34.633Z</time></trkpt><trkpt lat="41.07346" lon="16.3884017"><ele>342.0</ele><time>2026-04-12T08:54:35.633Z</time></trkpt><trkpt lat="41.0733467" lon="16.3885833"><ele>342.0</ele><time>2026-04-12T08:54:36.634Z</time></trkpt><trkpt lat="41.07325" lon="16.3887433"><ele>342.0</ele><time>2026-04-12T08:54:37.637Z</time></trkpt><trkpt lat="41.0731567" lon="16.3888983"><ele>342.0</ele><time>2026-04-12T08:54:38.634Z</time></trkpt><trkpt lat="41.0730583" lon="16.38906"><ele>342.0</ele><time>2026-04-12T08:54:39.633Z</time></trkpt><trkpt lat="41.072955" lon="16.389235"><ele>342.0</ele><time>2026-04-12T08:54:40.634Z</time></trkpt><trkpt lat="41.0728433" lon="16.3894283"><ele>342.0</ele><time>2026-04-12T08:54:41.634Z</time></trkpt><trkpt lat="41.07272" lon="16.3896317"><ele>342.0</ele><time>2026-04-12T08:54:42.635Z</time></trkpt><trkpt lat="41.07259" lon="16.3898467"><ele>342.0</ele><time>2026-04-12T08:54:43.635Z</time></trkpt><trkpt lat="41.072455" lon="16.3900633"><ele>342.0</ele><time>2026-04-12T08:54:44.635Z</time></trkpt><trkpt lat="41.0723267" lon="16.39027"><ele>342.0</ele><time>2026-04-12T08:54:45.634Z</time></trkpt><trkpt lat="41.0722117" lon="16.3904583"><ele>342.0</ele><time>2026-04-12T08:54:46.635Z</time></trkpt><trkpt lat="41.0721117" lon="16.3906233"><ele>342.0</ele><time>2026-04-12T08:54:47.634Z</time></trkpt><trkpt lat="41.0720317" lon="16.3907533"><ele>342.0</ele><time>2026-04-12T08:54:48.634Z</time></trkpt><trkpt lat="41.071975" lon="16.390855"><ele>342.0</ele><time>2026-04-12T08:54:49.634Z</time></trkpt><trkpt lat="41.07194" lon="16.3909483"><ele>342.0</ele><time>2026-04-12T08:54:50.635Z</time></trkpt><trkpt lat="41.0719383" lon="16.3910517"><ele>342.0</ele><time>2026-04-12T08:54:51.633Z</time></trkpt><trkpt lat="41.07196" lon="16.3911683"><ele>342.0</ele><time>2026-04-12T08:54:52.634Z</time></trkpt><trkpt lat="41.0719983" lon="16.391285"><ele>342.0</ele><time>2026-04-12T08:54:53.635Z</time></trkpt><trkpt lat="41.0720467" lon="16.3913733"><ele>342.0</ele><time>2026-04-12T08:54:54.634Z</time></trkpt><trkpt lat="41.0721017" lon="16.39143"><ele>342.0</ele><time>2026-04-12T08:54:55.633Z</time></trkpt><trkpt lat="41.072175" lon="16.391455"><ele>342.0</ele><time>2026-04-12T08:54:56.635Z</time></trkpt><trkpt lat="41.07227" lon="16.3914467"><ele>342.0</ele><time>2026-04-12T08:54:57.633Z</time></trkpt><trkpt lat="41.072525" lon="16.3913667"><ele>340.6666666666667</ele><time>2026-04-12T08:54:59.634Z</time></trkpt><trkpt lat="41.0726733" lon="16.39132"><ele>339.33333333333337</ele><time>2026-04-12T08:55:00.636Z</time></trkpt><trkpt lat="41.0728367" lon="16.3912717"><ele>338.0</ele><time>2026-04-12T08:55:01.635Z</time></trkpt><trkpt lat="41.07301" lon="16.39123"><ele>338.0</ele><time>2026-04-12T08:55:02.636Z</time></trkpt><trkpt lat="41.0731933" lon="16.39119"><ele>338.0</ele><time>2026-04-12T08:55:03.634Z</time></trkpt><trkpt lat="41.0733883" lon="16.3911583"><ele>338.0</ele><time>2026-04-12T08:55:04.634Z</time></trkpt><trkpt lat="41.0735933" lon="16.3911383"><ele>338.0</ele><time>2026-04-12T08:55:05.634Z</time></trkpt><trkpt lat="41.0738067" lon="16.3911183"><ele>338.0</ele><time>2026-04-12T08:55:06.635Z</time></trkpt><trkpt lat="41.07403" lon="16.391095"><ele>338.0</ele><time>2026-04-12T08:55:07.635Z</time></trkpt><trkpt lat="41.0742683" lon="16.3910733"><ele>338.0</ele><time>2026-04-12T08:55:08.634Z</time></trkpt><trkpt lat="41.0745067" lon="16.391055"><ele>338.0</ele><time>2026-04-12T08:55:09.633Z</time></trkpt><trkpt lat="41.07473" lon="16.3910383"><ele>338.33333333333337</ele><time>2026-04-12T08:55:10.633Z</time></trkpt><trkpt lat="41.074945" lon="16.391015"><ele>338.6666666666667</ele><time>2026-04-12T08:55:11.634Z</time></trkpt><trkpt lat="41.075145" lon="16.3909783"><ele>339.0</ele><time>2026-04-12T08:55:12.635Z</time></trkpt><trkpt lat="41.0753183" lon="16.3909383"><ele>339.0</ele><time>2026-04-12T08:55:13.635Z</time></trkpt><trkpt lat="41.0754617" lon="16.3909067"><ele>339.0</ele><time>2026-04-12T08:55:14.633Z</time></trkpt><trkpt lat="41.0755833" lon="16.3908867"><ele>339.0</ele><time>2026-04-12T08:55:15.635Z</time></trkpt><trkpt lat="41.0756933" lon="16.3908867"><ele>339.0</ele><time>2026-04-12T08:55:16.633Z</time></trkpt><trkpt lat="41.0758033" lon="16.3909067"><ele>339.75</ele><time>2026-04-12T08:55:17.634Z</time></trkpt><trkpt lat="41.0759283" lon="16.39094"><ele>340.5</ele><time>2026-04-12T08:55:18.634Z</time></trkpt><trkpt lat="41.0760717" lon="16.3909717"><ele>341.25</ele><time>2026-04-12T08:55:19.633Z</time></trkpt><trkpt lat="41.0762267" lon="16.390995"><ele>342.0</ele><time>2026-04-12T08:55:20.638Z</time></trkpt><trkpt lat="41.0763967" lon="16.3910283"><ele>342.0</ele><time>2026-04-12T08:55:21.634Z</time></trkpt><trkpt lat="41.076575" lon="16.391075"><ele>342.0</ele><time>2026-04-12T08:55:22.635Z</time></trkpt><trkpt lat="41.0767617" lon="16.3911283"><ele>342.0</ele><time>2026-04-12T08:55:23.635Z</time></trkpt><trkpt lat="41.076955" lon="16.3911967"><ele>342.0</ele><time>2026-04-12T08:55:24.634Z</time></trkpt><trkpt lat="41.077155" lon="16.3912717"><ele>342.0</ele><time>2026-04-12T08:55:25.638Z</time></trkpt><trkpt lat="41.0773617" lon="16.3913433"><ele>342.0</ele><time>2026-04-12T08:55:26.639Z</time></trkpt><trkpt lat="41.0775717" lon="16.3914133"><ele>342.6666666666667</ele><time>2026-04-12T08:55:27.635Z</time></trkpt><trkpt lat="41.0777867" lon="16.3914867"><ele>343.33333333333337</ele><time>2026-04-12T08:55:28.637Z</time></trkpt><trkpt lat="41.0780067" lon="16.3915633"><ele>344.0</ele><time>2026-04-12T08:55:29.641Z</time></trkpt><trkpt lat="41.0782333" lon="16.3916417"><ele>345.0</ele><time>2026-04-12T08:55:30.634Z</time></trkpt><trkpt lat="41.07846" lon="16.3917167"><ele>346.0</ele><time>2026-04-12T08:55:31.635Z</time></trkpt><trkpt lat="41.0786733" lon="16.3917883"><ele>346.0</ele><time>2026-04-12T08:55:32.635Z</time></trkpt><trkpt lat="41.07887" lon="16.3918533"><ele>346.0</ele><time>2026-04-12T08:55:33.634Z</time></trkpt><trkpt lat="41.0790533" lon="16.39191"><ele>346.0</ele><time>2026-04-12T08:55:34.635Z</time></trkpt><trkpt lat="41.0792317" lon="16.3919433"><ele>346.5</ele><time>2026-04-12T08:55:35.635Z</time></trkpt><trkpt lat="41.0794067" lon="16.39196"><ele>347.0</ele><time>2026-04-12T08:55:36.634Z</time></trkpt><trkpt lat="41.0795517" lon="16.3919667"><ele>347.5</ele><time>2026-04-12T08:55:37.634Z</time></trkpt><trkpt lat="41.0796633" lon="16.391975"><ele>348.0</ele><time>2026-04-12T08:55:38.635Z</time></trkpt><trkpt lat="41.0797483" lon="16.3919917"><ele>348.0</ele><time>2026-04-12T08:55:39.635Z</time></trkpt><trkpt lat="41.079825" lon="16.3920333"><ele>348.0</ele><time>2026-04-12T08:55:40.635Z</time></trkpt><trkpt lat="41.0799017" lon="16.3921033"><ele>348.0</ele><time>2026-04-12T08:55:41.634Z</time></trkpt><trkpt lat="41.0799833" lon="16.3922083"><ele>348.0</ele><time>2026-04-12T08:55:42.634Z</time></trkpt><trkpt lat="41.0800717" lon="16.39234"><ele>348.0</ele><time>2026-04-12T08:55:43.634Z</time></trkpt><trkpt lat="41.0801767" lon="16.3924817"><ele>348.0</ele><time>2026-04-12T08:55:44.638Z</time></trkpt><trkpt lat="41.080295" lon="16.392625"><ele>348.0</ele><time>2026-04-12T08:55:45.635Z</time></trkpt><trkpt lat="41.08042" lon="16.3927783"><ele>348.0</ele><time>2026-04-12T08:55:46.634Z</time></trkpt><trkpt lat="41.080545" lon="16.392935"><ele>347.3333333333333</ele><time>2026-04-12T08:55:47.635Z</time></trkpt><trkpt lat="41.08067" lon="16.3930883"><ele>346.66666666666663</ele><time>2026-04-12T08:55:48.634Z</time></trkpt><trkpt lat="41.0808017" lon="16.3932533"><ele>346.0</ele><time>2026-04-12T08:55:49.635Z</time></trkpt><trkpt lat="41.0809317" lon="16.3934267"><ele>346.0</ele><time>2026-04-12T08:55:50.638Z</time></trkpt><trkpt lat="41.0810583" lon="16.3936183"><ele>346.0</ele><time>2026-04-12T08:55:51.634Z</time></trkpt><trkpt lat="41.0811867" lon="16.3938167"><ele>346.0</ele><time>2026-04-12T08:55:52.634Z</time></trkpt><trkpt lat="41.0813183" lon="16.3940117"><ele>345.66666666666663</ele><time>2026-04-12T08:55:53.636Z</time></trkpt><trkpt lat="41.0814433" lon="16.394195"><ele>345.3333333333333</ele><time>2026-04-12T08:55:54.635Z</time></trkpt><trkpt lat="41.0815783" lon="16.3943733"><ele>345.0</ele><time>2026-04-12T08:55:55.636Z</time></trkpt><trkpt lat="41.0817267" lon="16.3945467"><ele>344.6666666666667</ele><time>2026-04-12T08:55:56.636Z</time></trkpt><trkpt lat="41.0818817" lon="16.39471"><ele>344.33333333333337</ele><time>2026-04-12T08:55:57.634Z</time></trkpt><trkpt lat="41.0820283" lon="16.3948583"><ele>344.0</ele><time>2026-04-12T08:55:58.636Z</time></trkpt><trkpt lat="41.082165" lon="16.3950117"><ele>344.0</ele><time>2026-04-12T08:55:59.636Z</time></trkpt><trkpt lat="41.0823033" lon="16.39517"><ele>344.0</ele><time>2026-04-12T08:56:00.635Z</time></trkpt><trkpt lat="41.08245" lon="16.39533"><ele>344.0</ele><time>2026-04-12T08:56:01.638Z</time></trkpt><trkpt lat="41.0826067" lon="16.3954867"><ele>345.0</ele><time>2026-04-12T08:56:02.637Z</time></trkpt><trkpt lat="41.0827683" lon="16.3956483"><ele>346.0</ele><time>2026-04-12T08:56:03.635Z</time></trkpt><trkpt lat="41.0829317" lon="16.395815"><ele>347.0</ele><time>2026-04-12T08:56:04.635Z</time></trkpt><trkpt lat="41.083085" lon="16.395985"><ele>347.0</ele><time>2026-04-12T08:56:05.636Z</time></trkpt><trkpt lat="41.08323" lon="16.3961367"><ele>347.0</ele><time>2026-04-12T08:56:06.635Z</time></trkpt><trkpt lat="41.0833617" lon="16.3962667"><ele>347.0</ele><time>2026-04-12T08:56:07.634Z</time></trkpt><trkpt lat="41.08348" lon="16.396385"><ele>346.25</ele><time>2026-04-12T08:56:08.639Z</time></trkpt><trkpt lat="41.0835883" lon="16.3964917"><ele>345.5</ele><time>2026-04-12T08:56:09.637Z</time></trkpt><trkpt lat="41.0836967" lon="16.3966"><ele>344.75</ele><time>2026-04-12T08:56:10.635Z</time></trkpt><trkpt lat="41.08381" lon="16.3967133"><ele>344.0</ele><time>2026-04-12T08:56:11.64Z</time></trkpt><trkpt lat="41.0839367" lon="16.3968267"><ele>344.0</ele><time>2026-04-12T08:56:12.634Z</time></trkpt><trkpt lat="41.0840783" lon="16.3969417"><ele>344.0</ele><time>2026-04-12T08:56:13.637Z</time></trkpt><trkpt lat="41.0842283" lon="16.3970617"><ele>344.0</ele><time>2026-04-12T08:56:14.635Z</time></trkpt><trkpt lat="41.084385" lon="16.397185"><ele>344.0</ele><time>2026-04-12T08:56:15.638Z</time></trkpt><trkpt lat="41.08453" lon="16.397315"><ele>344.0</ele><time>2026-04-12T08:56:16.635Z</time></trkpt><trkpt lat="41.0846633" lon="16.3974433"><ele>344.0</ele><time>2026-04-12T08:56:17.636Z</time></trkpt><trkpt lat="41.0847983" lon="16.39758"><ele>344.0</ele><time>2026-04-12T08:56:18.636Z</time></trkpt><trkpt lat="41.0849283" lon="16.3977133"><ele>344.0</ele><time>2026-04-12T08:56:19.635Z</time></trkpt><trkpt lat="41.085185" lon="16.3979983"><ele>344.33333333333337</ele><time>2026-04-12T08:56:21.634Z</time></trkpt><trkpt lat="41.0853083" lon="16.3981583"><ele>344.6666666666667</ele><time>2026-04-12T08:56:22.634Z</time></trkpt><trkpt lat="41.085425" lon="16.3983083"><ele>345.0</ele><time>2026-04-12T08:56:23.635Z</time></trkpt><trkpt lat="41.0855367" lon="16.3984567"><ele>345.0</ele><time>2026-04-12T08:56:24.636Z</time></trkpt><trkpt lat="41.0856533" lon="16.3986033"><ele>345.0</ele><time>2026-04-12T08:56:25.635Z</time></trkpt><trkpt lat="41.0857733" lon="16.3987517"><ele>345.0</ele><time>2026-04-12T08:56:26.636Z</time></trkpt><trkpt lat="41.0858983" lon="16.3989017"><ele>346.0</ele><time>2026-04-12T08:56:27.634Z</time></trkpt><trkpt lat="41.0860267" lon="16.3990517"><ele>347.0</ele><time>2026-04-12T08:56:28.634Z</time></trkpt><trkpt lat="41.0861567" lon="16.399205"><ele>348.0</ele><time>2026-04-12T08:56:29.635Z</time></trkpt><trkpt lat="41.0862867" lon="16.399335"><ele>348.0</ele><time>2026-04-12T08:56:30.634Z</time></trkpt><trkpt lat="41.08643" lon="16.3994517"><ele>348.0</ele><time>2026-04-12T08:56:31.634Z</time></trkpt><trkpt lat="41.08658" lon="16.3995633"><ele>348.0</ele><time>2026-04-12T08:56:32.637Z</time></trkpt><trkpt lat="41.086725" lon="16.3996717"><ele>348.0</ele><time>2026-04-12T08:56:33.637Z</time></trkpt><trkpt lat="41.0868633" lon="16.3997883"><ele>348.0</ele><time>2026-04-12T08:56:34.637Z</time></trkpt><trkpt lat="41.0870067" lon="16.3999067"><ele>348.0</ele><time>2026-04-12T08:56:35.637Z</time></trkpt><trkpt lat="41.0871533" lon="16.4000217"><ele>348.0</ele><time>2026-04-12T08:56:36.636Z</time></trkpt><trkpt lat="41.0872917" lon="16.40013"><ele>348.0</ele><time>2026-04-12T08:56:37.636Z</time></trkpt><trkpt lat="41.08743" lon="16.400245"><ele>348.0</ele><time>2026-04-12T08:56:38.637Z</time></trkpt><trkpt lat="41.08757" lon="16.4003667"><ele>347.3333333333333</ele><time>2026-04-12T08:56:39.636Z</time></trkpt><trkpt lat="41.0877067" lon="16.4004867"><ele>346.66666666666663</ele><time>2026-04-12T08:56:40.635Z</time></trkpt><trkpt lat="41.087835" lon="16.4006"><ele>346.0</ele><time>2026-04-12T08:56:41.634Z</time></trkpt><trkpt lat="41.0879567" lon="16.4007033"><ele>345.25</ele><time>2026-04-12T08:56:42.638Z</time></trkpt><trkpt lat="41.0880667" lon="16.4007967"><ele>344.5</ele><time>2026-04-12T08:56:43.635Z</time></trkpt><trkpt lat="41.0881633" lon="16.400885"><ele>343.75</ele><time>2026-04-12T08:56:44.636Z</time></trkpt><trkpt lat="41.0882533" lon="16.4009767"><ele>343.0</ele><time>2026-04-12T08:56:45.634Z</time></trkpt><trkpt lat="41.0883383" lon="16.4010733"><ele>342.79999999999995</ele><time>2026-04-12T08:56:46.636Z</time></trkpt><trkpt lat="41.0884183" lon="16.4011633"><ele>342.6</ele><time>2026-04-12T08:56:47.636Z</time></trkpt><trkpt lat="41.0884933" lon="16.4012433"><ele>342.4</ele><time>2026-04-12T08:56:48.636Z</time></trkpt><trkpt lat="41.0885683" lon="16.4013167"><ele>342.20000000000005</ele><time>2026-04-12T08:56:49.634Z</time></trkpt><trkpt lat="41.0886383" lon="16.4013867"><ele>342.0</ele><time>2026-04-12T08:56:50.635Z</time></trkpt><trkpt lat="41.0887067" lon="16.4014633"><ele>341.5</ele><time>2026-04-12T08:56:51.634Z</time></trkpt><trkpt lat="41.0887817" lon="16.4015517"><ele>341.0</ele><time>2026-04-12T08:56:52.638Z</time></trkpt><trkpt lat="41.0888667" lon="16.40165"><ele>340.5</ele><time>2026-04-12T08:56:53.635Z</time></trkpt><trkpt lat="41.088965" lon="16.4017567"><ele>340.0</ele><time>2026-04-12T08:56:54.635Z</time></trkpt><trkpt lat="41.0890767" lon="16.40188"><ele>339.66666666666663</ele><time>2026-04-12T08:56:55.637Z</time></trkpt><trkpt lat="41.0891983" lon="16.4020083"><ele>339.3333333333333</ele><time>2026-04-12T08:56:56.64Z</time></trkpt><trkpt lat="41.08933" lon="16.4021383"><ele>339.0</ele><time>2026-04-12T08:56:57.636Z</time></trkpt><trkpt lat="41.089475" lon="16.4022617"><ele>337.6666666666667</ele><time>2026-04-12T08:56:58.635Z</time></trkpt><trkpt lat="41.0896367" lon="16.402385"><ele>336.33333333333337</ele><time>2026-04-12T08:56:59.635Z</time></trkpt><trkpt lat="41.0898083" lon="16.4025117"><ele>335.0</ele><time>2026-04-12T08:57:00.634Z</time></trkpt><trkpt lat="41.0899833" lon="16.40264"><ele>335.0</ele><time>2026-04-12T08:57:01.634Z</time></trkpt><trkpt lat="41.09016" lon="16.4027733"><ele>335.0</ele><time>2026-04-12T08:57:02.636Z</time></trkpt><trkpt lat="41.0903417" lon="16.4029117"><ele>335.0</ele><time>2026-04-12T08:57:03.634Z</time></trkpt><trkpt lat="41.090525" lon="16.40305"><ele>334.6666666666667</ele><time>2026-04-12T08:57:04.636Z</time></trkpt><trkpt lat="41.09071" lon="16.40319"><ele>334.3333333333333</ele><time>2026-04-12T08:57:05.635Z</time></trkpt><trkpt lat="41.0908967" lon="16.4033333"><ele>334.0</ele><time>2026-04-12T08:57:06.635Z</time></trkpt><trkpt lat="41.091085" lon="16.4034783"><ele>334.0</ele><time>2026-04-12T08:57:07.635Z</time></trkpt><trkpt lat="41.0912733" lon="16.40362"><ele>334.0</ele><time>2026-04-12T08:57:08.636Z</time></trkpt><trkpt lat="41.0914567" lon="16.40376"><ele>334.0</ele><time>2026-04-12T08:57:09.634Z</time></trkpt><trkpt lat="41.0916367" lon="16.4038967"><ele>334.3333333333333</ele><time>2026-04-12T08:57:10.635Z</time></trkpt><trkpt lat="41.0918117" lon="16.4040317"><ele>334.6666666666667</ele><time>2026-04-12T08:57:11.635Z</time></trkpt><trkpt lat="41.0919817" lon="16.4041617"><ele>335.0</ele><time>2026-04-12T08:57:12.636Z</time></trkpt><trkpt lat="41.0921367" lon="16.40428"><ele>335.0</ele><time>2026-04-12T08:57:13.635Z</time></trkpt><trkpt lat="41.0922683" lon="16.4043783"><ele>335.0</ele><time>2026-04-12T08:57:14.635Z</time></trkpt><trkpt lat="41.0923867" lon="16.404465"><ele>335.0</ele><time>2026-04-12T08:57:15.635Z</time></trkpt><trkpt lat="41.0925033" lon="16.4045383"><ele>335.0</ele><time>2026-04-12T08:57:16.636Z</time></trkpt><trkpt lat="41.09263" lon="16.4045917"><ele>335.0</ele><time>2026-04-12T08:57:17.634Z</time></trkpt><trkpt lat="41.092765" lon="16.40462"><ele>335.0</ele><time>2026-04-12T08:57:18.634Z</time></trkpt><trkpt lat="41.0929133" lon="16.4046367"><ele>335.0</ele><time>2026-04-12T08:57:19.635Z</time></trkpt><trkpt lat="41.093075" lon="16.4046467"><ele>335.0</ele><time>2026-04-12T08:57:20.635Z</time></trkpt><trkpt lat="41.0932367" lon="16.4046567"><ele>335.0</ele><time>2026-04-12T08:57:21.634Z</time></trkpt><trkpt lat="41.0933883" lon="16.4046733"><ele>335.0</ele><time>2026-04-12T08:57:22.634Z</time></trkpt><trkpt lat="41.0935333" lon="16.4046967"><ele>335.0</ele><time>2026-04-12T08:57:23.648Z</time></trkpt><trkpt lat="41.0936817" lon="16.4047133"><ele>335.0</ele><time>2026-04-12T08:57:24.634Z</time></trkpt><trkpt lat="41.09384" lon="16.4047133"><ele>335.0</ele><time>2026-04-12T08:57:25.635Z</time></trkpt><trkpt lat="41.0940133" lon="16.4047017"><ele>335.0</ele><time>2026-04-12T08:57:26.636Z</time></trkpt><trkpt lat="41.094195" lon="16.4046833"><ele>335.0</ele><time>2026-04-12T08:57:27.634Z</time></trkpt><trkpt lat="41.0943833" lon="16.404665"><ele>335.0</ele><time>2026-04-12T08:57:28.637Z</time></trkpt><trkpt lat="41.0945783" lon="16.40465"><ele>335.0</ele><time>2026-04-12T08:57:29.635Z</time></trkpt><trkpt lat="41.0947783" lon="16.4046283"><ele>335.0</ele><time>2026-04-12T08:57:30.637Z</time></trkpt><trkpt lat="41.094985" lon="16.4046017"><ele>335.0</ele><time>2026-04-12T08:57:31.64Z</time></trkpt><trkpt lat="41.09519" lon="16.40457"><ele>335.0</ele><time>2026-04-12T08:57:32.637Z</time></trkpt><trkpt lat="41.095395" lon="16.4045383"><ele>335.0</ele><time>2026-04-12T08:57:33.635Z</time></trkpt><trkpt lat="41.0955967" lon="16.4045083"><ele>334.0</ele><time>2026-04-12T08:57:34.634Z</time></trkpt><trkpt lat="41.09579" lon="16.4044783"><ele>333.0</ele><time>2026-04-12T08:57:35.634Z</time></trkpt><trkpt lat="41.0959717" lon="16.4044467"><ele>332.0</ele><time>2026-04-12T08:57:36.635Z</time></trkpt><trkpt lat="41.0961467" lon="16.404415"><ele>332.0</ele><time>2026-04-12T08:57:37.637Z</time></trkpt><trkpt lat="41.0963233" lon="16.404385"><ele>332.0</ele><time>2026-04-12T08:57:38.637Z</time></trkpt><trkpt lat="41.0965067" lon="16.4043467"><ele>332.0</ele><time>2026-04-12T08:57:39.636Z</time></trkpt><trkpt lat="41.096705" lon="16.4043017"><ele>331.6666666666667</ele><time>2026-04-12T08:57:40.635Z</time></trkpt><trkpt lat="41.096915" lon="16.4042567"><ele>331.3333333333333</ele><time>2026-04-12T08:57:41.635Z</time></trkpt><trkpt lat="41.0971333" lon="16.4042067"><ele>331.0</ele><time>2026-04-12T08:57:42.634Z</time></trkpt><trkpt lat="41.0973433" lon="16.4041483"><ele>330.3333333333333</ele><time>2026-04-12T08:57:43.634Z</time></trkpt><trkpt lat="41.097545" lon="16.4040933"><ele>329.6666666666667</ele><time>2026-04-12T08:57:44.634Z</time></trkpt><trkpt lat="41.0977333" lon="16.4040433"><ele>329.0</ele><time>2026-04-12T08:57:45.636Z</time></trkpt><trkpt lat="41.0979117" lon="16.4039967"><ele>329.0</ele><time>2026-04-12T08:57:46.635Z</time></trkpt><trkpt lat="41.0980817" lon="16.4039533"><ele>329.0</ele><time>2026-04-12T08:57:47.635Z</time></trkpt><trkpt lat="41.0982367" lon="16.4039117"><ele>329.0</ele><time>2026-04-12T08:57:48.635Z</time></trkpt><trkpt lat="41.0983783" lon="16.4038717"><ele>329.33333333333337</ele><time>2026-04-12T08:57:49.635Z</time></trkpt><trkpt lat="41.0985183" lon="16.4038317"><ele>329.6666666666667</ele><time>2026-04-12T08:57:50.635Z</time></trkpt><trkpt lat="41.0986683" lon="16.40379"><ele>330.0</ele><time>2026-04-12T08:57:51.634Z</time></trkpt><trkpt lat="41.0988283" lon="16.403745"><ele>330.0</ele><time>2026-04-12T08:57:52.634Z</time></trkpt><trkpt lat="41.0989933" lon="16.403695"><ele>330.0</ele><time>2026-04-12T08:57:53.635Z</time></trkpt><trkpt lat="41.0991567" lon="16.403645"><ele>330.0</ele><time>2026-04-12T08:57:54.636Z</time></trkpt><trkpt lat="41.09931" lon="16.4035967"><ele>330.0</ele><time>2026-04-12T08:57:55.635Z</time></trkpt><trkpt lat="41.0994517" lon="16.40355"><ele>330.0</ele><time>2026-04-12T08:57:56.636Z</time></trkpt><trkpt lat="41.09958" lon="16.4035067"><ele>330.0</ele><time>2026-04-12T08:57:57.636Z</time></trkpt><trkpt lat="41.099685" lon="16.40347"><ele>330.0</ele><time>2026-04-12T08:57:58.634Z</time></trkpt><trkpt lat="41.0997633" lon="16.4034417"><ele>330.0</ele><time>2026-04-12T08:57:59.636Z</time></trkpt><trkpt lat="41.099855" lon="16.4034267"><ele>330.0</ele><time>2026-04-12T08:58:01.634Z</time></trkpt><trkpt lat="41.0999133" lon="16.4034967"><ele>330.0</ele><time>2026-04-12T08:58:04.641Z</time></trkpt><trkpt lat="41.09995" lon="16.403645"><ele>330.0</ele><time>2026-04-12T08:58:06.635Z</time></trkpt><trkpt lat="41.0999717" lon="16.4037483"><ele>330.0</ele><time>2026-04-12T08:58:07.637Z</time></trkpt><trkpt lat="41.0999983" lon="16.4038733"><ele>329.5</ele><time>2026-04-12T08:58:08.639Z</time></trkpt><trkpt lat="41.1000433" lon="16.404025"><ele>329.0</ele><time>2026-04-12T08:58:09.634Z</time></trkpt><trkpt lat="41.1001017" lon="16.4041933"><ele>328.5</ele><time>2026-04-12T08:58:10.635Z</time></trkpt><trkpt lat="41.1001667" lon="16.40439"><ele>328.0</ele><time>2026-04-12T08:58:11.636Z</time></trkpt><trkpt lat="41.1002333" lon="16.4046033"><ele>327.3333333333333</ele><time>2026-04-12T08:58:12.634Z</time></trkpt><trkpt lat="41.10031" lon="16.4048283"><ele>326.6666666666667</ele><time>2026-04-12T08:58:13.637Z</time></trkpt><trkpt lat="41.10039" lon="16.405065"><ele>326.0</ele><time>2026-04-12T08:58:14.636Z</time></trkpt><trkpt lat="41.1004717" lon="16.4053217"><ele>326.33333333333337</ele><time>2026-04-12T08:58:15.638Z</time></trkpt><trkpt lat="41.100555" lon="16.4055867"><ele>326.6666666666667</ele><time>2026-04-12T08:58:16.634Z</time></trkpt><trkpt lat="41.1006417" lon="16.4058567"><ele>327.0</ele><time>2026-04-12T08:58:17.635Z</time></trkpt><trkpt lat="41.1007267" lon="16.40613"><ele>328.5</ele><time>2026-04-12T08:58:18.635Z</time></trkpt><trkpt lat="41.100815" lon="16.406405"><ele>330.0</ele><time>2026-04-12T08:58:19.635Z</time></trkpt><trkpt lat="41.100905" lon="16.4066867"><ele>330.0</ele><time>2026-04-12T08:58:20.635Z</time></trkpt><trkpt lat="41.1009967" lon="16.406975"><ele>330.0</ele><time>2026-04-12T08:58:21.635Z</time></trkpt><trkpt lat="41.1010917" lon="16.4072717"><ele>330.0</ele><time>2026-04-12T08:58:22.635Z</time></trkpt><trkpt lat="41.10119" lon="16.4075717"><ele>330.0</ele><time>2026-04-12T08:58:23.635Z</time></trkpt><trkpt lat="41.1012917" lon="16.407875"><ele>330.0</ele><time>2026-04-12T08:58:24.638Z</time></trkpt><trkpt lat="41.1013917" lon="16.408175"><ele>330.0</ele><time>2026-04-12T08:58:25.635Z</time></trkpt><trkpt lat="41.1014833" lon="16.4084517"><ele>330.0</ele><time>2026-04-12T08:58:26.636Z</time></trkpt><trkpt lat="41.1015617" lon="16.40869"><ele>330.0</ele><time>2026-04-12T08:58:27.636Z</time></trkpt><trkpt lat="41.1016317" lon="16.4088967"><ele>330.0</ele><time>2026-04-12T08:58:28.635Z</time></trkpt><trkpt lat="41.1016933" lon="16.4090783"><ele>330.0</ele><time>2026-04-12T08:58:29.636Z</time></trkpt><trkpt lat="41.1017433" lon="16.4092367"><ele>330.0</ele><time>2026-04-12T08:58:30.635Z</time></trkpt><trkpt lat="41.1017817" lon="16.409385"><ele>330.0</ele><time>2026-04-12T08:58:31.635Z</time></trkpt><trkpt lat="41.10181" lon="16.4095233"><ele>330.0</ele><time>2026-04-12T08:58:32.643Z</time></trkpt><trkpt lat="41.1018333" lon="16.4096767"><ele>330.0</ele><time>2026-04-12T08:58:33.634Z</time></trkpt><trkpt lat="41.1018533" lon="16.4098417"><ele>330.0</ele><time>2026-04-12T08:58:34.635Z</time></trkpt><trkpt lat="41.1018583" lon="16.4099667"><ele>330.0</ele><time>2026-04-12T08:58:35.637Z</time></trkpt><trkpt lat="41.1018767" lon="16.4100883"><ele>330.0</ele><time>2026-04-12T08:58:36.634Z</time></trkpt><trkpt lat="41.1019267" lon="16.4102083"><ele>330.0</ele><time>2026-04-12T08:58:37.635Z</time></trkpt><trkpt lat="41.1019783" lon="16.41036"><ele>329.0</ele><time>2026-04-12T08:58:38.635Z</time></trkpt><trkpt lat="41.1020183" lon="16.41054"><ele>328.0</ele><time>2026-04-12T08:58:39.634Z</time></trkpt><trkpt lat="41.102055" lon="16.4107483"><ele>327.0</ele><time>2026-04-12T08:58:40.635Z</time></trkpt><trkpt lat="41.10208" lon="16.4109683"><ele>327.0</ele><time>2026-04-12T08:58:41.635Z</time></trkpt><trkpt lat="41.102115" lon="16.4112033"><ele>327.0</ele><time>2026-04-12T08:58:42.634Z</time></trkpt><trkpt lat="41.10215" lon="16.4114683"><ele>327.0</ele><time>2026-04-12T08:58:43.635Z</time></trkpt><trkpt lat="41.1021867" lon="16.411745"><ele>326.5</ele><time>2026-04-12T08:58:44.637Z</time></trkpt><trkpt lat="41.1022217" lon="16.4120383"><ele>326.0</ele><time>2026-04-12T08:58:45.634Z</time></trkpt><trkpt lat="41.1022567" lon="16.4123417"><ele>326.0</ele><time>2026-04-12T08:58:46.636Z</time></trkpt><trkpt lat="41.102295" lon="16.4126517"><ele>326.0</ele><time>2026-04-12T08:58:47.636Z</time></trkpt><trkpt lat="41.102335" lon="16.4129717"><ele>324.5</ele><time>2026-04-12T08:58:48.634Z</time></trkpt><trkpt lat="41.1023767" lon="16.4132983"><ele>323.0</ele><time>2026-04-12T08:58:49.635Z</time></trkpt><trkpt lat="41.1024217" lon="16.4136283"><ele>317.5</ele><time>2026-04-12T08:58:50.635Z</time></trkpt><trkpt lat="41.102465" lon="16.41396"><ele>312.0</ele><time>2026-04-12T08:58:51.636Z</time></trkpt><trkpt lat="41.1025133" lon="16.4142833"><ele>312.0</ele><time>2026-04-12T08:58:52.634Z</time></trkpt><trkpt lat="41.1025617" lon="16.4145983"><ele>312.0</ele><time>2026-04-12T08:58:53.635Z</time></trkpt><trkpt lat="41.1026217" lon="16.4149117"><ele>312.0</ele><time>2026-04-12T08:58:54.637Z</time></trkpt><trkpt lat="41.10269" lon="16.415225"><ele>312.0</ele><time>2026-04-12T08:58:55.635Z</time></trkpt><trkpt lat="41.1027683" lon="16.4155433"><ele>311.5</ele><time>2026-04-12T08:58:56.635Z</time></trkpt><trkpt lat="41.10285" lon="16.4158633"><ele>311.0</ele><time>2026-04-12T08:58:57.634Z</time></trkpt><trkpt lat="41.1029317" lon="16.4161883"><ele>309.5</ele><time>2026-04-12T08:58:58.635Z</time></trkpt><trkpt lat="41.10301" lon="16.4165183"><ele>308.0</ele><time>2026-04-12T08:58:59.636Z</time></trkpt><trkpt lat="41.10309" lon="16.4168483"><ele>306.0</ele><time>2026-04-12T08:59:00.635Z</time></trkpt><trkpt lat="41.1031733" lon="16.4171817"><ele>304.0</ele><time>2026-04-12T08:59:01.636Z</time></trkpt><trkpt lat="41.1032533" lon="16.4175183"><ele>303.5</ele><time>2026-04-12T08:59:02.636Z</time></trkpt><trkpt lat="41.1033333" lon="16.4178583"><ele>303.0</ele><time>2026-04-12T08:59:03.635Z</time></trkpt><trkpt lat="41.1034167" lon="16.4181967"><ele>302.5</ele><time>2026-04-12T08:59:04.635Z</time></trkpt><trkpt lat="41.1034983" lon="16.418535"><ele>302.0</ele><time>2026-04-12T08:59:05.638Z</time></trkpt><trkpt lat="41.1035817" lon="16.4188767"><ele>302.0</ele><time>2026-04-12T08:59:06.636Z</time></trkpt><trkpt lat="41.1036667" lon="16.4192233"><ele>302.0</ele><time>2026-04-12T08:59:07.637Z</time></trkpt><trkpt lat="41.1037483" lon="16.4195667"><ele>303.0</ele><time>2026-04-12T08:59:08.636Z</time></trkpt><trkpt lat="41.10383" lon="16.4199017"><ele>304.0</ele><time>2026-04-12T08:59:09.636Z</time></trkpt><trkpt lat="41.10391" lon="16.4202283"><ele>304.5</ele><time>2026-04-12T08:59:10.636Z</time></trkpt><trkpt lat="41.1039917" lon="16.4205517"><ele>305.0</ele><time>2026-04-12T08:59:11.637Z</time></trkpt><trkpt lat="41.1040717" lon="16.4208733"><ele>303.5</ele><time>2026-04-12T08:59:12.635Z</time></trkpt><trkpt lat="41.1041517" lon="16.4211917"><ele>302.0</ele><time>2026-04-12T08:59:13.636Z</time></trkpt><trkpt lat="41.1042283" lon="16.42151"><ele>302.0</ele><time>2026-04-12T08:59:14.636Z</time></trkpt><trkpt lat="41.104305" lon="16.421825"><ele>302.0</ele><time>2026-04-12T08:59:15.635Z</time></trkpt><trkpt lat="41.10438" lon="16.4221367"><ele>302.0</ele><time>2026-04-12T08:59:16.634Z</time></trkpt><trkpt lat="41.1044533" lon="16.4224433"><ele>302.0</ele><time>2026-04-12T08:59:17.636Z</time></trkpt><trkpt lat="41.1045333" lon="16.422755"><ele>302.5</ele><time>2026-04-12T08:59:18.639Z</time></trkpt><trkpt lat="41.1046133" lon="16.4230733"><ele>303.0</ele><time>2026-04-12T08:59:19.636Z</time></trkpt><trkpt lat="41.104695" lon="16.4233983"><ele>303.0</ele><time>2026-04-12T08:59:20.637Z</time></trkpt><trkpt lat="41.10478" lon="16.42373"><ele>303.0</ele><time>2026-04-12T08:59:21.634Z</time></trkpt><trkpt lat="41.1048633" lon="16.4240683"><ele>303.0</ele><time>2026-04-12T08:59:22.636Z</time></trkpt><trkpt lat="41.1049483" lon="16.4244117"><ele>303.0</ele><time>2026-04-12T08:59:23.636Z</time></trkpt><trkpt lat="41.1050333" lon="16.4247583"><ele>303.0</ele><time>2026-04-12T08:59:24.638Z</time></trkpt><trkpt lat="41.1051217" lon="16.4251133"><ele>303.0</ele><time>2026-04-12T08:59:25.635Z</time></trkpt><trkpt lat="41.10521" lon="16.4254717"><ele>304.5</ele><time>2026-04-12T08:59:26.635Z</time></trkpt><trkpt lat="41.1052967" lon="16.425825"><ele>306.0</ele><time>2026-04-12T08:59:27.636Z</time></trkpt><trkpt lat="41.10538" lon="16.4261567"><ele>307.5</ele><time>2026-04-12T08:59:28.634Z</time></trkpt><trkpt lat="41.1054583" lon="16.4264683"><ele>309.0</ele><time>2026-04-12T08:59:29.637Z</time></trkpt><trkpt lat="41.10553" lon="16.4267633"><ele>309.0</ele><time>2026-04-12T08:59:30.634Z</time></trkpt><trkpt lat="41.1055983" lon="16.4270383"><ele>309.0</ele><time>2026-04-12T08:59:31.635Z</time></trkpt><trkpt lat="41.1056617" lon="16.4273"><ele>309.0</ele><time>2026-04-12T08:59:32.635Z</time></trkpt><trkpt lat="41.1057117" lon="16.4275467"><ele>309.3333333333333</ele><time>2026-04-12T08:59:33.634Z</time></trkpt><trkpt lat="41.1057433" lon="16.42779"><ele>309.66666666666663</ele><time>2026-04-12T08:59:34.635Z</time></trkpt><trkpt lat="41.1057617" lon="16.4280367"><ele>310.0</ele><time>2026-04-12T08:59:35.635Z</time></trkpt><trkpt lat="41.1057617" lon="16.4283"><ele>310.3333333333333</ele><time>2026-04-12T08:59:36.634Z</time></trkpt><trkpt lat="41.105735" lon="16.4285833"><ele>310.6666666666667</ele><time>2026-04-12T08:59:37.636Z</time></trkpt><trkpt lat="41.10569" lon="16.4288867"><ele>311.0</ele><time>2026-04-12T08:59:38.636Z</time></trkpt><trkpt lat="41.1056333" lon="16.4292067"><ele>308.5</ele><time>2026-04-12T08:59:39.635Z</time></trkpt><trkpt lat="41.1055717" lon="16.42953"><ele>306.0</ele><time>2026-04-12T08:59:40.635Z</time></trkpt><trkpt lat="41.105515" lon="16.4298433"><ele>304.6666666666667</ele><time>2026-04-12T08:59:41.634Z</time></trkpt><trkpt lat="41.105465" lon="16.43014"><ele>303.33333333333337</ele><time>2026-04-12T08:59:42.634Z</time></trkpt><trkpt lat="41.1054167" lon="16.4304183"><ele>302.0</ele><time>2026-04-12T08:59:43.636Z</time></trkpt><trkpt lat="41.1053667" lon="16.430695"><ele>300.0</ele><time>2026-04-12T08:59:44.636Z</time></trkpt><trkpt lat="41.1053183" lon="16.4309817"><ele>298.0</ele><time>2026-04-12T08:59:45.635Z</time></trkpt><trkpt lat="41.1052767" lon="16.431285"><ele>296.5</ele><time>2026-04-12T08:59:46.635Z</time></trkpt><trkpt lat="41.1052467" lon="16.4316083"><ele>295.0</ele><time>2026-04-12T08:59:47.635Z</time></trkpt><trkpt lat="41.1052333" lon="16.4319467"><ele>294.0</ele><time>2026-04-12T08:59:48.635Z</time></trkpt><trkpt lat="41.10523" lon="16.4322983"><ele>293.0</ele><time>2026-04-12T08:59:49.636Z</time></trkpt><trkpt lat="41.1052367" lon="16.4326583"><ele>292.0</ele><time>2026-04-12T08:59:50.637Z</time></trkpt><trkpt lat="41.1052433" lon="16.43302"><ele>291.0</ele><time>2026-04-12T08:59:51.636Z</time></trkpt><trkpt lat="41.10525" lon="16.4333717"><ele>291.0</ele><time>2026-04-12T08:59:52.636Z</time></trkpt><trkpt lat="41.1052583" lon="16.4337083"><ele>291.0</ele><time>2026-04-12T08:59:53.637Z</time></trkpt><trkpt lat="41.105265" lon="16.4340217"><ele>290.3333333333333</ele><time>2026-04-12T08:59:54.636Z</time></trkpt><trkpt lat="41.1052717" lon="16.4343083"><ele>289.66666666666663</ele><time>2026-04-12T08:59:55.637Z</time></trkpt><trkpt lat="41.1052783" lon="16.434575"><ele>289.0</ele><time>2026-04-12T08:59:56.637Z</time></trkpt><trkpt lat="41.105285" lon="16.4348267"><ele>289.0</ele><time>2026-04-12T08:59:57.641Z</time></trkpt><trkpt lat="41.1052917" lon="16.4350717"><ele>289.0</ele><time>2026-04-12T08:59:58.636Z</time></trkpt><trkpt lat="41.1053" lon="16.4353183"><ele>289.0</ele><time>2026-04-12T08:59:59.637Z</time></trkpt><trkpt lat="41.1053067" lon="16.4355717"><ele>288.66666666666663</ele><time>2026-04-12T09:00:00.637Z</time></trkpt><trkpt lat="41.1053133" lon="16.43583"><ele>288.3333333333333</ele><time>2026-04-12T09:00:01.638Z</time></trkpt><trkpt lat="41.1053217" lon="16.43611"><ele>288.0</ele><time>2026-04-12T09:00:02.637Z</time></trkpt><trkpt lat="41.105335" lon="16.4364083"><ele>287.0</ele><time>2026-04-12T09:00:03.637Z</time></trkpt><trkpt lat="41.1053467" lon="16.4367217"><ele>286.0</ele><time>2026-04-12T09:00:04.64Z</time></trkpt><trkpt lat="41.1053567" lon="16.4370567"><ele>286.0</ele><time>2026-04-12T09:00:05.636Z</time></trkpt><trkpt lat="41.10536" lon="16.4374033"><ele>286.0</ele><time>2026-04-12T09:00:06.637Z</time></trkpt><trkpt lat="41.1053667" lon="16.4377517"><ele>285.5</ele><time>2026-04-12T09:00:07.637Z</time></trkpt><trkpt lat="41.1053733" lon="16.43811"><ele>285.0</ele><time>2026-04-12T09:00:08.638Z</time></trkpt><trkpt lat="41.1053833" lon="16.438475"><ele>284.5</ele><time>2026-04-12T09:00:09.637Z</time></trkpt><trkpt lat="41.1053967" lon="16.43885"><ele>284.0</ele><time>2026-04-12T09:00:10.638Z</time></trkpt><trkpt lat="41.105405" lon="16.439235"><ele>284.0</ele><time>2026-04-12T09:00:11.639Z</time></trkpt><trkpt lat="41.1054133" lon="16.4396267"><ele>284.0</ele><time>2026-04-12T09:00:12.638Z</time></trkpt><trkpt lat="41.105425" lon="16.4400233"><ele>282.5</ele><time>2026-04-12T09:00:13.634Z</time></trkpt><trkpt lat="41.1054367" lon="16.44043"><ele>281.0</ele><time>2026-04-12T09:00:14.636Z</time></trkpt><trkpt lat="41.1054467" lon="16.4408467"><ele>280.5</ele><time>2026-04-12T09:00:15.637Z</time></trkpt><trkpt lat="41.1054517" lon="16.4412667"><ele>280.0</ele><time>2026-04-12T09:00:16.637Z</time></trkpt><trkpt lat="41.1054567" lon="16.4416883"><ele>280.0</ele><time>2026-04-12T09:00:17.635Z</time></trkpt><trkpt lat="41.1054617" lon="16.4421133"><ele>280.0</ele><time>2026-04-12T09:00:18.634Z</time></trkpt><trkpt lat="41.1054683" lon="16.4425367"><ele>280.0</ele><time>2026-04-12T09:00:19.636Z</time></trkpt><trkpt lat="41.1054783" lon="16.4429617"><ele>280.0</ele><time>2026-04-12T09:00:20.635Z</time></trkpt><trkpt lat="41.1054867" lon="16.443385"><ele>281.0</ele><time>2026-04-12T09:00:21.634Z</time></trkpt><trkpt lat="41.105495" lon="16.4438067"><ele>282.0</ele><time>2026-04-12T09:00:22.635Z</time></trkpt><trkpt lat="41.1055017" lon="16.4442233"><ele>283.5</ele><time>2026-04-12T09:00:23.635Z</time></trkpt><trkpt lat="41.10551" lon="16.4446417"><ele>285.0</ele><time>2026-04-12T09:00:24.634Z</time></trkpt><trkpt lat="41.1055167" lon="16.4450567"><ele>285.0</ele><time>2026-04-12T09:00:25.636Z</time></trkpt><trkpt lat="41.1055283" lon="16.44546"><ele>285.0</ele><time>2026-04-12T09:00:26.642Z</time></trkpt><trkpt lat="41.1055367" lon="16.4458383"><ele>285.0</ele><time>2026-04-12T09:00:27.634Z</time></trkpt><trkpt lat="41.10554" lon="16.4461967"><ele>285.0</ele><time>2026-04-12T09:00:28.638Z</time></trkpt><trkpt lat="41.105555" lon="16.4465617"><ele>285.0</ele><time>2026-04-12T09:00:29.634Z</time></trkpt><trkpt lat="41.105565" lon="16.4469333"><ele>285.0</ele><time>2026-04-12T09:00:30.634Z</time></trkpt><trkpt lat="41.1055767" lon="16.4472917"><ele>285.0</ele><time>2026-04-12T09:00:31.635Z</time></trkpt><trkpt lat="41.1055833" lon="16.4476417"><ele>285.0</ele><time>2026-04-12T09:00:32.635Z</time></trkpt><trkpt lat="41.10559" lon="16.44799"><ele>284.0</ele><time>2026-04-12T09:00:33.634Z</time></trkpt><trkpt lat="41.1055967" lon="16.44834"><ele>283.0</ele><time>2026-04-12T09:00:34.634Z</time></trkpt><trkpt lat="41.1056067" lon="16.448695"><ele>282.5</ele><time>2026-04-12T09:00:35.635Z</time></trkpt><trkpt lat="41.1056167" lon="16.4490567"><ele>282.0</ele><time>2026-04-12T09:00:36.634Z</time></trkpt><trkpt lat="41.105625" lon="16.449425"><ele>281.5</ele><time>2026-04-12T09:00:37.636Z</time></trkpt><trkpt lat="41.10563" lon="16.4497983"><ele>281.0</ele><time>2026-04-12T09:00:38.635Z</time></trkpt><trkpt lat="41.1056367" lon="16.450175"><ele>280.5</ele><time>2026-04-12T09:00:39.636Z</time></trkpt><trkpt lat="41.105645" lon="16.450555"><ele>280.0</ele><time>2026-04-12T09:00:40.635Z</time></trkpt><trkpt lat="41.1056517" lon="16.45093"><ele>280.0</ele><time>2026-04-12T09:00:41.634Z</time></trkpt><trkpt lat="41.1056583" lon="16.45129"><ele>280.0</ele><time>2026-04-12T09:00:42.634Z</time></trkpt><trkpt lat="41.105665" lon="16.4516333"><ele>277.5</ele><time>2026-04-12T09:00:43.635Z</time></trkpt><trkpt lat="41.1056717" lon="16.4519617"><ele>275.0</ele><time>2026-04-12T09:00:44.638Z</time></trkpt><trkpt lat="41.1056767" lon="16.4522733"><ele>274.0</ele><time>2026-04-12T09:00:45.636Z</time></trkpt><trkpt lat="41.1056833" lon="16.4525733"><ele>273.0</ele><time>2026-04-12T09:00:46.635Z</time></trkpt><trkpt lat="41.10569" lon="16.45286"><ele>272.0</ele><time>2026-04-12T09:00:47.635Z</time></trkpt><trkpt lat="41.1056967" lon="16.4531417"><ele>271.0</ele><time>2026-04-12T09:00:48.634Z</time></trkpt><trkpt lat="41.1057017" lon="16.4534133"><ele>270.0</ele><time>2026-04-12T09:00:49.636Z</time></trkpt><trkpt lat="41.1057067" lon="16.4536733"><ele>269.0</ele><time>2026-04-12T09:00:50.635Z</time></trkpt><trkpt lat="41.10571" lon="16.45393"><ele>267.6666666666667</ele><time>2026-04-12T09:00:51.635Z</time></trkpt><trkpt lat="41.1057133" lon="16.454185"><ele>266.3333333333333</ele><time>2026-04-12T09:00:52.635Z</time></trkpt><trkpt lat="41.1057183" lon="16.4544433"><ele>265.0</ele><time>2026-04-12T09:00:53.635Z</time></trkpt><trkpt lat="41.1057267" lon="16.4547067"><ele>264.66666666666663</ele><time>2026-04-12T09:00:54.634Z</time></trkpt><trkpt lat="41.105735" lon="16.4549717"><ele>264.3333333333333</ele><time>2026-04-12T09:00:55.635Z</time></trkpt><trkpt lat="41.10575" lon="16.4552483"><ele>264.0</ele><time>2026-04-12T09:00:56.635Z</time></trkpt><trkpt lat="41.105775" lon="16.4555367"><ele>264.0</ele><time>2026-04-12T09:00:57.635Z</time></trkpt><trkpt lat="41.1058117" lon="16.4558367"><ele>264.0</ele><time>2026-04-12T09:00:58.635Z</time></trkpt><trkpt lat="41.1058583" lon="16.456145"><ele>262.0</ele><time>2026-04-12T09:00:59.635Z</time></trkpt><trkpt lat="41.1059117" lon="16.4564583"><ele>260.0</ele><time>2026-04-12T09:01:00.636Z</time></trkpt><trkpt lat="41.1059783" lon="16.4567767"><ele>260.0</ele><time>2026-04-12T09:01:01.634Z</time></trkpt><trkpt lat="41.1060617" lon="16.4571017"><ele>260.0</ele><time>2026-04-12T09:01:02.636Z</time></trkpt><trkpt lat="41.1061583" lon="16.4574333"><ele>260.5</ele><time>2026-04-12T09:01:03.634Z</time></trkpt><trkpt lat="41.1062583" lon="16.45777"><ele>261.0</ele><time>2026-04-12T09:01:04.636Z</time></trkpt><trkpt lat="41.1063583" lon="16.4581117"><ele>259.5</ele><time>2026-04-12T09:01:05.639Z</time></trkpt><trkpt lat="41.1064617" lon="16.458455"><ele>258.0</ele><time>2026-04-12T09:01:06.634Z</time></trkpt><trkpt lat="41.1065667" lon="16.4587933"><ele>257.0</ele><time>2026-04-12T09:01:07.635Z</time></trkpt><trkpt lat="41.1066783" lon="16.45912"><ele>256.0</ele><time>2026-04-12T09:01:08.635Z</time></trkpt><trkpt lat="41.1067933" lon="16.459435"><ele>256.0</ele><time>2026-04-12T09:01:09.634Z</time></trkpt><trkpt lat="41.1069067" lon="16.45973"><ele>256.0</ele><time>2026-04-12T09:01:10.636Z</time></trkpt><trkpt lat="41.1070183" lon="16.4600083"><ele>256.0</ele><time>2026-04-12T09:01:11.636Z</time></trkpt><trkpt lat="41.107135" lon="16.4602867"><ele>256.0</ele><time>2026-04-12T09:01:12.636Z</time></trkpt><trkpt lat="41.107255" lon="16.46056"><ele>255.0</ele><time>2026-04-12T09:01:13.635Z</time></trkpt><trkpt lat="41.1073667" lon="16.4608267"><ele>254.0</ele><time>2026-04-12T09:01:14.636Z</time></trkpt><trkpt lat="41.1074767" lon="16.4610933"><ele>252.5</ele><time>2026-04-12T09:01:15.637Z</time></trkpt><trkpt lat="41.1075883" lon="16.46136"><ele>251.0</ele><time>2026-04-12T09:01:16.635Z</time></trkpt><trkpt lat="41.1077017" lon="16.461615"><ele>251.0</ele><time>2026-04-12T09:01:17.635Z</time></trkpt><trkpt lat="41.10781" lon="16.461865"><ele>251.0</ele><time>2026-04-12T09:01:18.635Z</time></trkpt><trkpt lat="41.107915" lon="16.462115"><ele>251.0</ele><time>2026-04-12T09:01:19.636Z</time></trkpt><trkpt lat="41.1080083" lon="16.4623633"><ele>251.0</ele><time>2026-04-12T09:01:20.637Z</time></trkpt><trkpt lat="41.1080933" lon="16.4626"><ele>251.0</ele><time>2026-04-12T09:01:21.635Z</time></trkpt><trkpt lat="41.10817" lon="16.4628267"><ele>251.0</ele><time>2026-04-12T09:01:22.637Z</time></trkpt><trkpt lat="41.1082333" lon="16.46304"><ele>250.25</ele><time>2026-04-12T09:01:23.636Z</time></trkpt><trkpt lat="41.10828" lon="16.463235"><ele>249.5</ele><time>2026-04-12T09:01:24.636Z</time></trkpt><trkpt lat="41.1083083" lon="16.46341"><ele>248.75</ele><time>2026-04-12T09:01:25.637Z</time></trkpt><trkpt lat="41.108325" lon="16.4635667"><ele>248.0</ele><time>2026-04-12T09:01:26.635Z</time></trkpt><trkpt lat="41.10833" lon="16.46372"><ele>247.8</ele><time>2026-04-12T09:01:27.634Z</time></trkpt><trkpt lat="41.10832" lon="16.4638667"><ele>247.60000000000002</ele><time>2026-04-12T09:01:28.635Z</time></trkpt><trkpt lat="41.1082967" lon="16.4640017"><ele>247.39999999999998</ele><time>2026-04-12T09:01:29.637Z</time></trkpt><trkpt lat="41.1082767" lon="16.46413"><ele>247.2</ele><time>2026-04-12T09:01:30.635Z</time></trkpt><trkpt lat="41.1082767" lon="16.464245"><ele>247.0</ele><time>2026-04-12T09:01:31.637Z</time></trkpt><trkpt lat="41.1082967" lon="16.4643383"><ele>247.0</ele><time>2026-04-12T09:01:32.637Z</time></trkpt><trkpt lat="41.1083417" lon="16.464405"><ele>247.0</ele><time>2026-04-12T09:01:33.636Z</time></trkpt><trkpt lat="41.1084033" lon="16.4644417"><ele>247.0</ele><time>2026-04-12T09:01:34.638Z</time></trkpt><trkpt lat="41.10849" lon="16.46445"><ele>247.0</ele><time>2026-04-12T09:01:35.636Z</time></trkpt><trkpt lat="41.1086067" lon="16.4644333"><ele>247.0</ele><time>2026-04-12T09:01:36.636Z</time></trkpt><trkpt lat="41.1087383" lon="16.4644167"><ele>247.0</ele><time>2026-04-12T09:01:37.636Z</time></trkpt><trkpt lat="41.1088683" lon="16.464415"><ele>247.0</ele><time>2026-04-12T09:01:38.638Z</time></trkpt><trkpt lat="41.1089883" lon="16.4644267"><ele>247.0</ele><time>2026-04-12T09:01:39.635Z</time></trkpt><trkpt lat="41.109105" lon="16.4644533"><ele>247.0</ele><time>2026-04-12T09:01:40.636Z</time></trkpt><trkpt lat="41.1092267" lon="16.4644983"><ele>247.0</ele><time>2026-04-12T09:01:41.638Z</time></trkpt><trkpt lat="41.1093567" lon="16.464565"><ele>247.0</ele><time>2026-04-12T09:01:42.636Z</time></trkpt><trkpt lat="41.1095" lon="16.464645"><ele>247.0</ele><time>2026-04-12T09:01:43.637Z</time></trkpt><trkpt lat="41.109665" lon="16.4647267"><ele>246.33333333333331</ele><time>2026-04-12T09:01:44.636Z</time></trkpt><trkpt lat="41.1098383" lon="16.46481"><ele>245.66666666666669</ele><time>2026-04-12T09:01:45.634Z</time></trkpt><trkpt lat="41.1100217" lon="16.464895"><ele>245.0</ele><time>2026-04-12T09:01:46.635Z</time></trkpt><trkpt lat="41.1102017" lon="16.4649817"><ele>245.0</ele><time>2026-04-12T09:01:47.634Z</time></trkpt><trkpt lat="41.110375" lon="16.4650583"><ele>245.0</ele><time>2026-04-12T09:01:48.637Z</time></trkpt><trkpt lat="41.11054" lon="16.465135"><ele>245.0</ele><time>2026-04-12T09:01:49.635Z</time></trkpt><trkpt lat="41.1107033" lon="16.4652283"><ele>245.0</ele><time>2026-04-12T09:01:50.635Z</time></trkpt><trkpt lat="41.110865" lon="16.4653583"><ele>245.0</ele><time>2026-04-12T09:01:51.636Z</time></trkpt><trkpt lat="41.1110283" lon="16.46552"><ele>245.0</ele><time>2026-04-12T09:01:52.634Z</time></trkpt><trkpt lat="41.1111967" lon="16.4657033"><ele>244.66666666666669</ele><time>2026-04-12T09:01:53.634Z</time></trkpt><trkpt lat="41.1113667" lon="16.4658983"><ele>244.33333333333331</ele><time>2026-04-12T09:01:54.635Z</time></trkpt><trkpt lat="41.1115333" lon="16.46609"><ele>244.0</ele><time>2026-04-12T09:01:55.634Z</time></trkpt><trkpt lat="41.1116933" lon="16.4662717"><ele>243.33333333333331</ele><time>2026-04-12T09:01:56.637Z</time></trkpt><trkpt lat="41.1118433" lon="16.46645"><ele>242.66666666666669</ele><time>2026-04-12T09:01:57.634Z</time></trkpt><trkpt lat="41.1119767" lon="16.4666367"><ele>242.0</ele><time>2026-04-12T09:01:58.634Z</time></trkpt><trkpt lat="41.1120917" lon="16.466835"><ele>242.0</ele><time>2026-04-12T09:01:59.635Z</time></trkpt><trkpt lat="41.1121883" lon="16.4670367"><ele>242.0</ele><time>2026-04-12T09:02:00.635Z</time></trkpt><trkpt lat="41.112265" lon="16.4672417"><ele>242.0</ele><time>2026-04-12T09:02:01.635Z</time></trkpt><trkpt lat="41.1123217" lon="16.4674583"><ele>241.33333333333334</ele><time>2026-04-12T09:02:02.637Z</time></trkpt><trkpt lat="41.11236" lon="16.4676933"><ele>240.66666666666669</ele><time>2026-04-12T09:02:03.633Z</time></trkpt><trkpt lat="41.112375" lon="16.4679483"><ele>240.0</ele><time>2026-04-12T09:02:04.636Z</time></trkpt><trkpt lat="41.1123733" lon="16.46822"><ele>240.0</ele><time>2026-04-12T09:02:05.635Z</time></trkpt><trkpt lat="41.1123633" lon="16.468505"><ele>240.0</ele><time>2026-04-12T09:02:06.634Z</time></trkpt><trkpt lat="41.1123483" lon="16.468795"><ele>240.0</ele><time>2026-04-12T09:02:07.637Z</time></trkpt><trkpt lat="41.112335" lon="16.469075"><ele>239.33333333333331</ele><time>2026-04-12T09:02:08.636Z</time></trkpt><trkpt lat="41.11232" lon="16.4693483"><ele>238.66666666666666</ele><time>2026-04-12T09:02:09.633Z</time></trkpt><trkpt lat="41.1123017" lon="16.4696183"><ele>238.0</ele><time>2026-04-12T09:02:10.637Z</time></trkpt><trkpt lat="41.1122717" lon="16.46989"><ele>237.33333333333331</ele><time>2026-04-12T09:02:11.634Z</time></trkpt><trkpt lat="41.1122283" lon="16.470165"><ele>236.66666666666669</ele><time>2026-04-12T09:02:12.634Z</time></trkpt><trkpt lat="41.11217" lon="16.4704483"><ele>236.0</ele><time>2026-04-12T09:02:13.639Z</time></trkpt><trkpt lat="41.112115" lon="16.4707367"><ele>235.0</ele><time>2026-04-12T09:02:14.635Z</time></trkpt><trkpt lat="41.1120583" lon="16.4710333"><ele>234.0</ele><time>2026-04-12T09:02:15.634Z</time></trkpt><trkpt lat="41.111995" lon="16.471335"><ele>234.0</ele><time>2026-04-12T09:02:16.633Z</time></trkpt><trkpt lat="41.111935" lon="16.4716383"><ele>234.0</ele><time>2026-04-12T09:02:17.633Z</time></trkpt><trkpt lat="41.1118783" lon="16.4719217"><ele>234.0</ele><time>2026-04-12T09:02:18.633Z</time></trkpt><trkpt lat="41.1118233" lon="16.472185"><ele>234.0</ele><time>2026-04-12T09:02:19.635Z</time></trkpt><trkpt lat="41.111775" lon="16.4724367"><ele>234.0</ele><time>2026-04-12T09:02:20.636Z</time></trkpt><trkpt lat="41.111735" lon="16.47268"><ele>234.0</ele><time>2026-04-12T09:02:21.634Z</time></trkpt><trkpt lat="41.1117133" lon="16.4729317"><ele>234.0</ele><time>2026-04-12T09:02:22.634Z</time></trkpt><trkpt lat="41.1117033" lon="16.4731967"><ele>234.0</ele><time>2026-04-12T09:02:23.634Z</time></trkpt><trkpt lat="41.1117067" lon="16.4734733"><ele>234.0</ele><time>2026-04-12T09:02:24.634Z</time></trkpt><trkpt lat="41.1117183" lon="16.4737667"><ele>234.0</ele><time>2026-04-12T09:02:25.634Z</time></trkpt><trkpt lat="41.1117267" lon="16.4740633"><ele>234.0</ele><time>2026-04-12T09:02:26.634Z</time></trkpt><trkpt lat="41.111735" lon="16.4743517"><ele>233.33333333333331</ele><time>2026-04-12T09:02:27.635Z</time></trkpt><trkpt lat="41.1117417" lon="16.4746233"><ele>232.66666666666666</ele><time>2026-04-12T09:02:28.639Z</time></trkpt><trkpt lat="41.1117483" lon="16.47488"><ele>232.0</ele><time>2026-04-12T09:02:29.638Z</time></trkpt><trkpt lat="41.11176" lon="16.4751267"><ele>232.0</ele><time>2026-04-12T09:02:30.634Z</time></trkpt><trkpt lat="41.1117683" lon="16.4753517"><ele>232.0</ele><time>2026-04-12T09:02:31.634Z</time></trkpt><trkpt lat="41.1117717" lon="16.4755383"><ele>232.0</ele><time>2026-04-12T09:02:32.635Z</time></trkpt><trkpt lat="41.11177" lon="16.475695"><ele>232.0</ele><time>2026-04-12T09:02:33.636Z</time></trkpt><trkpt lat="41.1117633" lon="16.475825"><ele>231.99999999999997</ele><time>2026-04-12T09:02:34.636Z</time></trkpt><trkpt lat="41.1117483" lon="16.4759383"><ele>232.0</ele><time>2026-04-12T09:02:35.634Z</time></trkpt><trkpt lat="41.11173" lon="16.4760517"><ele>232.0</ele><time>2026-04-12T09:02:36.635Z</time></trkpt><trkpt lat="41.1117133" lon="16.4761533"><ele>232.0</ele><time>2026-04-12T09:02:37.635Z</time></trkpt><trkpt lat="41.111725" lon="16.4763067"><ele>231.99999999999997</ele><time>2026-04-12T09:02:39.636Z</time></trkpt><trkpt lat="41.11175" lon="16.4764033"><ele>232.0</ele><time>2026-04-12T09:02:40.634Z</time></trkpt><trkpt lat="41.1117967" lon="16.4765"><ele>232.0</ele><time>2026-04-12T09:02:41.635Z</time></trkpt><trkpt lat="41.1118783" lon="16.4766133"><ele>232.0</ele><time>2026-04-12T09:02:42.634Z</time></trkpt><trkpt lat="41.111975" lon="16.4767467"><ele>232.0</ele><time>2026-04-12T09:02:43.634Z</time></trkpt><trkpt lat="41.1120717" lon="16.4769133"><ele>232.0</ele><time>2026-04-12T09:02:44.636Z</time></trkpt><trkpt lat="41.11217" lon="16.4771017"><ele>232.0</ele><time>2026-04-12T09:02:45.634Z</time></trkpt><trkpt lat="41.1122783" lon="16.4773083"><ele>232.0</ele><time>2026-04-12T09:02:46.635Z</time></trkpt><trkpt lat="41.1123967" lon="16.4775283"><ele>232.0</ele><time>2026-04-12T09:02:47.634Z</time></trkpt><trkpt lat="41.1125183" lon="16.4777567"><ele>232.0</ele><time>2026-04-12T09:02:48.634Z</time></trkpt><trkpt lat="41.112645" lon="16.4779933"><ele>232.0</ele><time>2026-04-12T09:02:49.634Z</time></trkpt><trkpt lat="41.11277" lon="16.4782267"><ele>232.0</ele><time>2026-04-12T09:02:50.634Z</time></trkpt><trkpt lat="41.1128917" lon="16.478445"><ele>232.0</ele><time>2026-04-12T09:02:51.634Z</time></trkpt><trkpt lat="41.11301" lon="16.478665"><ele>232.0</ele><time>2026-04-12T09:02:52.638Z</time></trkpt><trkpt lat="41.1131267" lon="16.4788933"><ele>232.0</ele><time>2026-04-12T09:02:53.634Z</time></trkpt><trkpt lat="41.1132383" lon="16.4791233"><ele>232.0</ele><time>2026-04-12T09:02:54.634Z</time></trkpt><trkpt lat="41.1133367" lon="16.479345"><ele>232.0</ele><time>2026-04-12T09:02:55.633Z</time></trkpt><trkpt lat="41.1134183" lon="16.4795583"><ele>232.0</ele><time>2026-04-12T09:02:56.634Z</time></trkpt><trkpt lat="41.1134933" lon="16.4797583"><ele>232.5</ele><time>2026-04-12T09:02:57.637Z</time></trkpt><trkpt lat="41.1135633" lon="16.479945"><ele>233.0</ele><time>2026-04-12T09:02:58.637Z</time></trkpt><trkpt lat="41.11363" lon="16.4801067"><ele>233.5</ele><time>2026-04-12T09:02:59.635Z</time></trkpt><trkpt lat="41.1137017" lon="16.4802367"><ele>234.0</ele><time>2026-04-12T09:03:00.635Z</time></trkpt><trkpt lat="41.1137717" lon="16.480335"><ele>234.0</ele><time>2026-04-12T09:03:01.634Z</time></trkpt><trkpt lat="41.11384" lon="16.4804117"><ele>234.0</ele><time>2026-04-12T09:03:02.634Z</time></trkpt><trkpt lat="41.1138933" lon="16.4804683"><ele>234.0</ele><time>2026-04-12T09:03:03.635Z</time></trkpt><trkpt lat="41.1139533" lon="16.4805367"><ele>234.0</ele><time>2026-04-12T09:03:05.633Z</time></trkpt><trkpt lat="41.114005" lon="16.4806083"><ele>234.0</ele><time>2026-04-12T09:03:08.638Z</time></trkpt><trkpt lat="41.1140917" lon="16.4807183"><ele>234.0</ele><time>2026-04-12T09:03:11.634Z</time></trkpt><trkpt lat="41.114145" lon="16.48077"><ele>235.5</ele><time>2026-04-12T09:03:12.637Z</time></trkpt><trkpt lat="41.1142267" lon="16.4808683"><ele>237.0</ele><time>2026-04-12T09:03:14.635Z</time></trkpt><trkpt lat="41.1142383" lon="16.480955"><ele>238.5</ele><time>2026-04-12T09:03:16.633Z</time></trkpt><trkpt lat="41.11422" lon="16.4810517"><ele>240.0</ele><time>2026-04-12T09:03:18.634Z</time></trkpt><trkpt lat="41.11418" lon="16.48113"><ele>241.5</ele><time>2026-04-12T09:03:19.634Z</time></trkpt><trkpt lat="41.1141217" lon="16.481205"><ele>243.0</ele><time>2026-04-12T09:03:20.635Z</time></trkpt><trkpt lat="41.1140617" lon="16.481275"><ele>243.16666666666666</ele><time>2026-04-12T09:03:21.633Z</time></trkpt><trkpt lat="41.1140117" lon="16.4813433"><ele>243.33333333333331</ele><time>2026-04-12T09:03:22.634Z</time></trkpt><trkpt lat="41.1139633" lon="16.4814133"><ele>243.5</ele><time>2026-04-12T09:03:23.634Z</time></trkpt><trkpt lat="41.113915" lon="16.48148"><ele>243.66666666666666</ele><time>2026-04-12T09:03:24.633Z</time></trkpt><trkpt lat="41.1138733" lon="16.4815433"><ele>243.83333333333331</ele><time>2026-04-12T09:03:25.635Z</time></trkpt><trkpt lat="41.1137967" lon="16.481655"><ele>244.0</ele><time>2026-04-12T09:03:27.633Z</time></trkpt><trkpt lat="41.1137317" lon="16.4817483"><ele>244.0</ele><time>2026-04-12T09:03:29.634Z</time></trkpt><trkpt lat="41.1136717" lon="16.48183"><ele>243.99999999999997</ele><time>2026-04-12T09:03:31.636Z</time></trkpt><trkpt lat="41.113615" lon="16.4819117"><ele>243.99999999999997</ele><time>2026-04-12T09:03:33.635Z</time></trkpt><trkpt lat="41.11354" lon="16.4820317"><ele>244.0</ele><time>2026-04-12T09:03:35.636Z</time></trkpt><trkpt lat="41.1134917" lon="16.482115"><ele>244.0</ele><time>2026-04-12T09:03:36.635Z</time></trkpt><trkpt lat="41.11343" lon="16.4822083"><ele>243.6</ele><time>2026-04-12T09:03:37.637Z</time></trkpt><trkpt lat="41.1133583" lon="16.4823117"><ele>243.2</ele><time>2026-04-12T09:03:38.634Z</time></trkpt><trkpt lat="41.1132833" lon="16.4824117"><ele>242.79999999999998</ele><time>2026-04-12T09:03:39.635Z</time></trkpt><trkpt lat="41.113215" lon="16.4825017"><ele>242.39999999999998</ele><time>2026-04-12T09:03:40.635Z</time></trkpt><trkpt lat="41.1131467" lon="16.482605"><ele>242.0</ele><time>2026-04-12T09:03:41.634Z</time></trkpt><trkpt lat="41.11307" lon="16.4827267"><ele>242.0</ele><time>2026-04-12T09:03:42.635Z</time></trkpt><trkpt lat="41.1129817" lon="16.4828483"><ele>242.0</ele><time>2026-04-12T09:03:43.634Z</time></trkpt><trkpt lat="41.1128917" lon="16.482955"><ele>242.0</ele><time>2026-04-12T09:03:44.636Z</time></trkpt><trkpt lat="41.1128133" lon="16.483055"><ele>242.0</ele><time>2026-04-12T09:03:45.634Z</time></trkpt><trkpt lat="41.1127467" lon="16.4831517"><ele>242.33333333333334</ele><time>2026-04-12T09:03:46.633Z</time></trkpt><trkpt lat="41.1126867" lon="16.48324"><ele>242.66666666666669</ele><time>2026-04-12T09:03:47.634Z</time></trkpt><trkpt lat="41.1126317" lon="16.4833183"><ele>243.0</ele><time>2026-04-12T09:03:48.633Z</time></trkpt><trkpt lat="41.1125833" lon="16.4833817"><ele>243.33333333333331</ele><time>2026-04-12T09:03:49.634Z</time></trkpt><trkpt lat="41.1125367" lon="16.4834417"><ele>243.66666666666666</ele><time>2026-04-12T09:03:50.634Z</time></trkpt><trkpt lat="41.112485" lon="16.4835083"><ele>244.0</ele><time>2026-04-12T09:03:51.634Z</time></trkpt><trkpt lat="41.112425" lon="16.48359"><ele>243.49999999999997</ele><time>2026-04-12T09:03:52.635Z</time></trkpt><trkpt lat="41.1123567" lon="16.483685"><ele>243.0</ele><time>2026-04-12T09:03:53.634Z</time></trkpt><trkpt lat="41.112285" lon="16.4837783"><ele>242.5</ele><time>2026-04-12T09:03:54.634Z</time></trkpt><trkpt lat="41.11222" lon="16.4838617"><ele>242.0</ele><time>2026-04-12T09:03:55.635Z</time></trkpt><trkpt lat="41.1121667" lon="16.4839383"><ele>241.49999999999997</ele><time>2026-04-12T09:03:56.634Z</time></trkpt><trkpt lat="41.1121317" lon="16.484015"><ele>241.0</ele><time>2026-04-12T09:03:57.633Z</time></trkpt><trkpt lat="41.112085" lon="16.4841417"><ele>240.99999999999997</ele><time>2026-04-12T09:03:59.636Z</time></trkpt><trkpt lat="41.1120433" lon="16.48426"><ele>241.0</ele><time>2026-04-12T09:04:01.634Z</time></trkpt><trkpt lat="41.11201" lon="16.484375"><ele>241.0</ele><time>2026-04-12T09:04:03.633Z</time></trkpt><trkpt lat="41.1119733" lon="16.4844783"><ele>241.0</ele><time>2026-04-12T09:04:05.636Z</time></trkpt><trkpt lat="41.11195" lon="16.4845567"><ele>240.99999999999997</ele><time>2026-04-12T09:04:07.634Z</time></trkpt><trkpt lat="41.1119117" lon="16.4846383"><ele>241.0</ele><time>2026-04-12T09:04:15.633Z</time></trkpt><trkpt lat="41.1118633" lon="16.4847867"><ele>241.16666666666666</ele><time>2026-04-12T09:04:17.634Z</time></trkpt><trkpt lat="41.11184" lon="16.4848783"><ele>241.33333333333331</ele><time>2026-04-12T09:04:18.633Z</time></trkpt><trkpt lat="41.11182" lon="16.4849683"><ele>241.5</ele><time>2026-04-12T09:04:19.634Z</time></trkpt><trkpt lat="41.1118017" lon="16.48506"><ele>241.66666666666669</ele><time>2026-04-12T09:04:20.634Z</time></trkpt><trkpt lat="41.1117817" lon="16.4852167"><ele>241.83333333333334</ele><time>2026-04-12T09:04:22.634Z</time></trkpt><trkpt lat="41.11176" lon="16.4853367"><ele>242.0</ele><time>2026-04-12T09:04:24.633Z</time></trkpt><trkpt lat="41.111725" lon="16.4854517"><ele>241.6</ele><time>2026-04-12T09:04:27.633Z</time></trkpt><trkpt lat="41.111695" lon="16.4855667"><ele>241.2</ele><time>2026-04-12T09:04:29.634Z</time></trkpt><trkpt lat="41.11166" lon="16.48572"><ele>240.8</ele><time>2026-04-12T09:04:31.634Z</time></trkpt><trkpt lat="41.1116233" lon="16.485865"><ele>240.4</ele><time>2026-04-12T09:04:33.636Z</time></trkpt><trkpt lat="41.111595" lon="16.4859983"><ele>240.0</ele><time>2026-04-12T09:04:35.637Z</time></trkpt><trkpt lat="41.1115633" lon="16.486165"><ele>240.16666666666666</ele><time>2026-04-12T09:04:37.635Z</time></trkpt><trkpt lat="41.1115417" lon="16.4862617"><ele>240.33333333333331</ele><time>2026-04-12T09:04:38.635Z</time></trkpt><trkpt lat="41.1115183" lon="16.486365"><ele>240.5</ele><time>2026-04-12T09:04:39.634Z</time></trkpt><trkpt lat="41.1114933" lon="16.48647"><ele>240.66666666666666</ele><time>2026-04-12T09:04:40.636Z</time></trkpt><trkpt lat="41.11147" lon="16.4865667"><ele>240.83333333333331</ele><time>2026-04-12T09:04:41.636Z</time></trkpt><trkpt lat="41.1114533" lon="16.4866517"><ele>241.0</ele><time>2026-04-12T09:04:42.635Z</time></trkpt><trkpt lat="41.111425" lon="16.4867967"><ele>241.0</ele><time>2026-04-12T09:04:44.635Z</time></trkpt><trkpt lat="41.11139" lon="16.486975"><ele>241.00000000000003</ele><time>2026-04-12T09:04:46.634Z</time></trkpt><trkpt lat="41.111365" lon="16.4870867"><ele>241.00000000000003</ele><time>2026-04-12T09:04:47.635Z</time></trkpt><trkpt lat="41.11134" lon="16.4872033"><ele>241.0</ele><time>2026-04-12T09:04:48.635Z</time></trkpt><trkpt lat="41.111315" lon="16.48732"><ele>241.0</ele><time>2026-04-12T09:04:49.635Z</time></trkpt><trkpt lat="41.1112883" lon="16.4874483"><ele>241.0</ele><time>2026-04-12T09:04:50.635Z</time></trkpt><trkpt lat="41.111265" lon="16.48759"><ele>241.00000000000003</ele><time>2026-04-12T09:04:51.635Z</time></trkpt><trkpt lat="41.1112483" lon="16.4877417"><ele>241.00000000000003</ele><time>2026-04-12T09:04:52.635Z</time></trkpt><trkpt lat="41.1112433" lon="16.48789"><ele>241.0</ele><time>2026-04-12T09:04:53.635Z</time></trkpt><trkpt lat="41.1112517" lon="16.4880333"><ele>241.0</ele><time>2026-04-12T09:04:54.636Z</time></trkpt><trkpt lat="41.1112717" lon="16.4881783"><ele>240.5</ele><time>2026-04-12T09:04:55.638Z</time></trkpt><trkpt lat="41.1113017" lon="16.488325"><ele>240.0</ele><time>2026-04-12T09:04:56.636Z</time></trkpt><trkpt lat="41.11134" lon="16.48847"><ele>239.5</ele><time>2026-04-12T09:04:57.635Z</time></trkpt><trkpt lat="41.111395" lon="16.4886117"><ele>239.0</ele><time>2026-04-12T09:04:58.636Z</time></trkpt><trkpt lat="41.1114583" lon="16.488745"><ele>239.39999999999998</ele><time>2026-04-12T09:04:59.636Z</time></trkpt><trkpt lat="41.111525" lon="16.4888617"><ele>239.79999999999998</ele><time>2026-04-12T09:05:00.635Z</time></trkpt><trkpt lat="41.1116" lon="16.4889617"><ele>240.20000000000002</ele><time>2026-04-12T09:05:01.634Z</time></trkpt><trkpt lat="41.111675" lon="16.4890467"><ele>240.60000000000002</ele><time>2026-04-12T09:05:02.635Z</time></trkpt><trkpt lat="41.11175" lon="16.4891283"><ele>241.0</ele><time>2026-04-12T09:05:03.635Z</time></trkpt><trkpt lat="41.1118217" lon="16.4892067"><ele>240.99999999999997</ele><time>2026-04-12T09:05:04.635Z</time></trkpt><trkpt lat="41.1118883" lon="16.4892767"><ele>241.0</ele><time>2026-04-12T09:05:05.638Z</time></trkpt><trkpt lat="41.111955" lon="16.4893433"><ele>241.0</ele><time>2026-04-12T09:05:06.633Z</time></trkpt><trkpt lat="41.1120233" lon="16.4894067"><ele>241.0</ele><time>2026-04-12T09:05:07.634Z</time></trkpt><trkpt lat="41.1120983" lon="16.4894717"><ele>240.99999999999997</ele><time>2026-04-12T09:05:08.635Z</time></trkpt><trkpt lat="41.1121767" lon="16.4895433"><ele>241.0</ele><time>2026-04-12T09:05:09.635Z</time></trkpt><trkpt lat="41.1122517" lon="16.489615"><ele>240.83333333333331</ele><time>2026-04-12T09:05:10.635Z</time></trkpt><trkpt lat="41.1123133" lon="16.4896767"><ele>240.66666666666666</ele><time>2026-04-12T09:05:11.634Z</time></trkpt><trkpt lat="41.1123667" lon="16.4897317"><ele>240.5</ele><time>2026-04-12T09:05:12.634Z</time></trkpt><trkpt lat="41.11246" lon="16.4898317"><ele>240.33333333333331</ele><time>2026-04-12T09:05:14.634Z</time></trkpt><trkpt lat="41.1125383" lon="16.489915"><ele>240.16666666666666</ele><time>2026-04-12T09:05:16.634Z</time></trkpt><trkpt lat="41.1126" lon="16.48995"><ele>240.0</ele><time>2026-04-12T09:05:33.633Z</time></trkpt><trkpt lat="41.112635" lon="16.49004"><ele>239.6</ele><time>2026-04-12T09:05:35.634Z</time></trkpt><trkpt lat="41.1126217" lon="16.4901783"><ele>239.2</ele><time>2026-04-12T09:05:37.638Z</time></trkpt><trkpt lat="41.1125883" lon="16.4902717"><ele>238.8</ele><time>2026-04-12T09:05:38.635Z</time></trkpt><trkpt lat="41.1125533" lon="16.4903767"><ele>238.4</ele><time>2026-04-12T09:05:39.633Z</time></trkpt><trkpt lat="41.1125017" lon="16.490515"><ele>238.0</ele><time>2026-04-12T09:05:40.633Z</time></trkpt><trkpt lat="41.1124383" lon="16.4906817"><ele>238.0</ele><time>2026-04-12T09:05:41.633Z</time></trkpt><trkpt lat="41.1123633" lon="16.4908683"><ele>238.0</ele><time>2026-04-12T09:05:42.633Z</time></trkpt><trkpt lat="41.11228" lon="16.491065"><ele>238.0</ele><time>2026-04-12T09:05:43.633Z</time></trkpt><trkpt lat="41.1122017" lon="16.49126"><ele>237.75</ele><time>2026-04-12T09:05:44.634Z</time></trkpt><trkpt lat="41.1121283" lon="16.49144"><ele>237.5</ele><time>2026-04-12T09:05:45.633Z</time></trkpt><trkpt lat="41.11206" lon="16.4916"><ele>237.25</ele><time>2026-04-12T09:05:46.634Z</time></trkpt><trkpt lat="41.1119917" lon="16.491755"><ele>237.0</ele><time>2026-04-12T09:05:47.634Z</time></trkpt><trkpt lat="41.111925" lon="16.4919117"><ele>237.0</ele><time>2026-04-12T09:05:48.633Z</time></trkpt><trkpt lat="41.111855" lon="16.4920633"><ele>237.0</ele><time>2026-04-12T09:05:49.634Z</time></trkpt><trkpt lat="41.111795" lon="16.492205"><ele>237.0</ele><time>2026-04-12T09:05:50.634Z</time></trkpt><trkpt lat="41.1117333" lon="16.4923483"><ele>237.0</ele><time>2026-04-12T09:05:51.633Z</time></trkpt><trkpt lat="41.1116667" lon="16.4925083"><ele>237.0</ele><time>2026-04-12T09:05:52.637Z</time></trkpt><trkpt lat="41.1116" lon="16.4926717"><ele>237.0</ele><time>2026-04-12T09:05:53.634Z</time></trkpt><trkpt lat="41.111535" lon="16.4928467"><ele>237.0</ele><time>2026-04-12T09:05:54.633Z</time></trkpt><trkpt lat="41.1114683" lon="16.4930217"><ele>237.0</ele><time>2026-04-12T09:05:55.634Z</time></trkpt><trkpt lat="41.1114017" lon="16.4931917"><ele>236.75</ele><time>2026-04-12T09:05:56.635Z</time></trkpt><trkpt lat="41.1113367" lon="16.49336"><ele>236.5</ele><time>2026-04-12T09:05:57.634Z</time></trkpt><trkpt lat="41.1112717" lon="16.493535"><ele>236.25</ele><time>2026-04-12T09:05:58.633Z</time></trkpt><trkpt lat="41.1112033" lon="16.4937233"><ele>236.0</ele><time>2026-04-12T09:05:59.633Z</time></trkpt><trkpt lat="41.11113" lon="16.4939183"><ele>235.66666666666669</ele><time>2026-04-12T09:06:00.633Z</time></trkpt><trkpt lat="41.1110533" lon="16.4941183"><ele>235.33333333333331</ele><time>2026-04-12T09:06:01.634Z</time></trkpt><trkpt lat="41.1109783" lon="16.4943117"><ele>235.0</ele><time>2026-04-12T09:06:02.636Z</time></trkpt><trkpt lat="41.1109033" lon="16.4944867"><ele>234.75</ele><time>2026-04-12T09:06:03.633Z</time></trkpt><trkpt lat="41.11084" lon="16.4946433"><ele>234.5</ele><time>2026-04-12T09:06:04.634Z</time></trkpt><trkpt lat="41.1107883" lon="16.4947817"><ele>234.25</ele><time>2026-04-12T09:06:05.634Z</time></trkpt><trkpt lat="41.110735" lon="16.4949083"><ele>234.0</ele><time>2026-04-12T09:06:06.635Z</time></trkpt><trkpt lat="41.1106833" lon="16.49503"><ele>234.0</ele><time>2026-04-12T09:06:07.634Z</time></trkpt><trkpt lat="41.1106383" lon="16.4951517"><ele>233.99999999999997</ele><time>2026-04-12T09:06:08.634Z</time></trkpt><trkpt lat="41.1105967" lon="16.4952883"><ele>233.99999999999997</ele><time>2026-04-12T09:06:09.633Z</time></trkpt><trkpt lat="41.1105467" lon="16.495425"><ele>234.0</ele><time>2026-04-12T09:06:10.634Z</time></trkpt><trkpt lat="41.11049" lon="16.4955483"><ele>234.0</ele><time>2026-04-12T09:06:11.634Z</time></trkpt><trkpt lat="41.110415" lon="16.495655"><ele>234.25</ele><time>2026-04-12T09:06:12.634Z</time></trkpt><trkpt lat="41.1103267" lon="16.4957533"><ele>234.5</ele><time>2026-04-12T09:06:13.635Z</time></trkpt><trkpt lat="41.1102283" lon="16.4958533"><ele>234.75</ele><time>2026-04-12T09:06:14.635Z</time></trkpt><trkpt lat="41.1101217" lon="16.4959617"><ele>235.0</ele><time>2026-04-12T09:06:15.633Z</time></trkpt><trkpt lat="41.1100083" lon="16.4960717"><ele>234.0</ele><time>2026-04-12T09:06:16.634Z</time></trkpt><trkpt lat="41.1098833" lon="16.4961833"><ele>233.0</ele><time>2026-04-12T09:06:17.634Z</time></trkpt><trkpt lat="41.1097467" lon="16.4962933"><ele>232.0</ele><time>2026-04-12T09:06:18.634Z</time></trkpt><trkpt lat="41.1095983" lon="16.4964033"><ele>232.0</ele><time>2026-04-12T09:06:19.634Z</time></trkpt><trkpt lat="41.1094417" lon="16.4965267"><ele>232.0</ele><time>2026-04-12T09:06:20.636Z</time></trkpt><trkpt lat="41.109285" lon="16.4966583"><ele>232.0</ele><time>2026-04-12T09:06:21.633Z</time></trkpt><trkpt lat="41.1091333" lon="16.49681"><ele>231.33333333333331</ele><time>2026-04-12T09:06:22.633Z</time></trkpt><trkpt lat="41.108975" lon="16.4969733"><ele>230.66666666666669</ele><time>2026-04-12T09:06:23.634Z</time></trkpt><trkpt lat="41.1088167" lon="16.497155"><ele>230.0</ele><time>2026-04-12T09:06:24.634Z</time></trkpt><trkpt lat="41.108655" lon="16.4973533"><ele>230.0</ele><time>2026-04-12T09:06:25.633Z</time></trkpt><trkpt lat="41.1084983" lon="16.4975567"><ele>230.0</ele><time>2026-04-12T09:06:26.636Z</time></trkpt><trkpt lat="41.10834" lon="16.4977533"><ele>230.0</ele><time>2026-04-12T09:06:27.633Z</time></trkpt><trkpt lat="41.1081783" lon="16.497945"><ele>229.0</ele><time>2026-04-12T09:06:28.633Z</time></trkpt><trkpt lat="41.1080267" lon="16.49813"><ele>228.0</ele><time>2026-04-12T09:06:29.635Z</time></trkpt><trkpt lat="41.10788" lon="16.4983233"><ele>227.0</ele><time>2026-04-12T09:06:30.633Z</time></trkpt><trkpt lat="41.1077333" lon="16.49852"><ele>227.0</ele><time>2026-04-12T09:06:31.637Z</time></trkpt><trkpt lat="41.1075833" lon="16.498715"><ele>227.0</ele><time>2026-04-12T09:06:32.634Z</time></trkpt><trkpt lat="41.1074417" lon="16.4989083"><ele>227.0</ele><time>2026-04-12T09:06:33.633Z</time></trkpt><trkpt lat="41.1073067" lon="16.4990933"><ele>226.33333333333334</ele><time>2026-04-12T09:06:34.634Z</time></trkpt><trkpt lat="41.1071733" lon="16.4992717"><ele>225.66666666666669</ele><time>2026-04-12T09:06:35.637Z</time></trkpt><trkpt lat="41.1070533" lon="16.4994383"><ele>225.0</ele><time>2026-04-12T09:06:36.634Z</time></trkpt><trkpt lat="41.1069417" lon="16.4995817"><ele>225.2</ele><time>2026-04-12T09:06:37.635Z</time></trkpt><trkpt lat="41.1068367" lon="16.499705"><ele>225.4</ele><time>2026-04-12T09:06:38.635Z</time></trkpt><trkpt lat="41.1067433" lon="16.4998067"><ele>225.60000000000002</ele><time>2026-04-12T09:06:39.635Z</time></trkpt><trkpt lat="41.1066733" lon="16.49989"><ele>225.8</ele><time>2026-04-12T09:06:40.635Z</time></trkpt><trkpt lat="41.1066267" lon="16.4999633"><ele>226.0</ele><time>2026-04-12T09:06:41.635Z</time></trkpt><trkpt lat="41.1066333" lon="16.5000867"><ele>226.0</ele><time>2026-04-12T09:06:43.634Z</time></trkpt><trkpt lat="41.10673" lon="16.50022"><ele>226.0</ele><time>2026-04-12T09:06:45.633Z</time></trkpt><trkpt lat="41.10682" lon="16.500295"><ele>226.0</ele><time>2026-04-12T09:06:46.634Z</time></trkpt><trkpt lat="41.1069233" lon="16.5003717"><ele>226.0</ele><time>2026-04-12T09:06:47.633Z</time></trkpt><trkpt lat="41.107045" lon="16.5004633"><ele>226.33333333333331</ele><time>2026-04-12T09:06:48.638Z</time></trkpt><trkpt lat="41.1071733" lon="16.5005633"><ele>226.66666666666669</ele><time>2026-04-12T09:06:49.633Z</time></trkpt><trkpt lat="41.107315" lon="16.50067"><ele>227.0</ele><time>2026-04-12T09:06:50.636Z</time></trkpt><trkpt lat="41.10747" lon="16.5007883"><ele>227.0</ele><time>2026-04-12T09:06:51.634Z</time></trkpt><trkpt lat="41.107635" lon="16.50092"><ele>227.0</ele><time>2026-04-12T09:06:52.634Z</time></trkpt><trkpt lat="41.1078067" lon="16.5010567"><ele>227.0</ele><time>2026-04-12T09:06:53.634Z</time></trkpt><trkpt lat="41.1079733" lon="16.50119"><ele>227.33333333333334</ele><time>2026-04-12T09:06:54.634Z</time></trkpt><trkpt lat="41.1081283" lon="16.5013067"><ele>227.66666666666669</ele><time>2026-04-12T09:06:55.638Z</time></trkpt><trkpt lat="41.1082767" lon="16.501405"><ele>228.0</ele><time>2026-04-12T09:06:56.635Z</time></trkpt><trkpt lat="41.1084167" lon="16.5014867"><ele>228.25</ele><time>2026-04-12T09:06:57.634Z</time></trkpt><trkpt lat="41.108545" lon="16.5015717"><ele>228.5</ele><time>2026-04-12T09:06:58.634Z</time></trkpt><trkpt lat="41.1086567" lon="16.501675"><ele>228.75</ele><time>2026-04-12T09:06:59.638Z</time></trkpt><trkpt lat="41.10875" lon="16.5017983"><ele>229.0</ele><time>2026-04-12T09:07:00.637Z</time></trkpt><trkpt lat="41.108815" lon="16.50192"><ele>229.0</ele><time>2026-04-12T09:07:01.635Z</time></trkpt><trkpt lat="41.10885" lon="16.50204"><ele>228.99999999999997</ele><time>2026-04-12T09:07:02.634Z</time></trkpt><trkpt lat="41.1088767" lon="16.502175"><ele>228.99999999999997</ele><time>2026-04-12T09:07:03.633Z</time></trkpt><trkpt lat="41.1088917" lon="16.5023267"><ele>229.0</ele><time>2026-04-12T09:07:04.635Z</time></trkpt><trkpt lat="41.108905" lon="16.502495"><ele>229.0</ele><time>2026-04-12T09:07:05.635Z</time></trkpt><trkpt lat="41.10892" lon="16.5026733"><ele>229.25</ele><time>2026-04-12T09:07:06.634Z</time></trkpt><trkpt lat="41.108935" lon="16.502855"><ele>229.5</ele><time>2026-04-12T09:07:07.633Z</time></trkpt><trkpt lat="41.1089467" lon="16.50305"><ele>229.75</ele><time>2026-04-12T09:07:08.634Z</time></trkpt><trkpt lat="41.1089483" lon="16.5032417"><ele>230.0</ele><time>2026-04-12T09:07:09.635Z</time></trkpt><trkpt lat="41.1089333" lon="16.5034183"><ele>230.5</ele><time>2026-04-12T09:07:10.636Z</time></trkpt><trkpt lat="41.108905" lon="16.5035833"><ele>231.0</ele><time>2026-04-12T09:07:11.634Z</time></trkpt><trkpt lat="41.1088683" lon="16.503735"><ele>231.5</ele><time>2026-04-12T09:07:12.633Z</time></trkpt><trkpt lat="41.1088267" lon="16.5038767"><ele>232.0</ele><time>2026-04-12T09:07:13.634Z</time></trkpt><trkpt lat="41.1087883" lon="16.504015"><ele>231.99999999999997</ele><time>2026-04-12T09:07:14.634Z</time></trkpt><trkpt lat="41.1087583" lon="16.504125"><ele>232.0</ele><time>2026-04-12T09:07:15.633Z</time></trkpt><trkpt lat="41.10872" lon="16.50424"><ele>232.0</ele><time>2026-04-12T09:07:17.633Z</time></trkpt><trkpt lat="41.108675" lon="16.50434"><ele>232.0</ele><time>2026-04-12T09:07:27.635Z</time></trkpt><trkpt lat="41.108645" lon="16.5044533"><ele>231.99999999999997</ele><time>2026-04-12T09:07:31.633Z</time></trkpt><trkpt lat="41.108615" lon="16.5045483"><ele>232.0</ele><time>2026-04-12T09:07:33.634Z</time></trkpt><trkpt lat="41.1085817" lon="16.5046433"><ele>232.0</ele><time>2026-04-12T09:07:35.633Z</time></trkpt><trkpt lat="41.1085467" lon="16.5047967"><ele>232.0</ele><time>2026-04-12T09:07:37.633Z</time></trkpt><trkpt lat="41.1085267" lon="16.5048817"><ele>232.0</ele><time>2026-04-12T09:07:38.635Z</time></trkpt><trkpt lat="41.1084933" lon="16.5050317"><ele>232.0</ele><time>2026-04-12T09:07:40.634Z</time></trkpt><trkpt lat="41.10846" lon="16.5051733"><ele>232.0</ele><time>2026-04-12T09:07:42.633Z</time></trkpt><trkpt lat="41.1084367" lon="16.5052533"><ele>231.99999999999997</ele><time>2026-04-12T09:07:43.634Z</time></trkpt><trkpt lat="41.1084117" lon="16.5053317"><ele>232.0</ele><time>2026-04-12T09:07:44.634Z</time></trkpt><trkpt lat="41.108365" lon="16.5054717"><ele>232.0</ele><time>2026-04-12T09:07:46.635Z</time></trkpt><trkpt lat="41.1083317" lon="16.5055633"><ele>232.0</ele><time>2026-04-12T09:07:48.632Z</time></trkpt><trkpt lat="41.1083017" lon="16.5056817"><ele>231.99999999999997</ele><time>2026-04-12T09:07:51.633Z</time></trkpt><trkpt lat="41.1082767" lon="16.505775"><ele>232.0</ele><time>2026-04-12T09:07:53.634Z</time></trkpt><trkpt lat="41.1082533" lon="16.5058783"><ele>231.99999999999997</ele><time>2026-04-12T09:07:55.634Z</time></trkpt><trkpt lat="41.1082367" lon="16.50597"><ele>232.0</ele><time>2026-04-12T09:07:57.633Z</time></trkpt><trkpt lat="41.108225" lon="16.5060733"><ele>232.0</ele><time>2026-04-12T09:07:59.633Z</time></trkpt><trkpt lat="41.1082067" lon="16.5061783"><ele>232.0</ele><time>2026-04-12T09:08:01.634Z</time></trkpt><trkpt lat="41.1081817" lon="16.5062717"><ele>231.99999999999997</ele><time>2026-04-12T09:08:03.633Z</time></trkpt><trkpt lat="41.1081433" lon="16.5063767"><ele>232.0</ele><time>2026-04-12T09:08:05.633Z</time></trkpt><trkpt lat="41.1081017" lon="16.5065017"><ele>231.99999999999997</ele><time>2026-04-12T09:08:07.634Z</time></trkpt><trkpt lat="41.1080633" lon="16.50662"><ele>232.0</ele><time>2026-04-12T09:08:09.636Z</time></trkpt><trkpt lat="41.108035" lon="16.506715"><ele>232.0</ele><time>2026-04-12T09:08:11.633Z</time></trkpt><trkpt lat="41.1080683" lon="16.5066133"><ele>232.0</ele><time>2026-04-12T09:08:47.635Z</time></trkpt><trkpt lat="41.1080833" lon="16.5065117"><ele>231.99999999999997</ele><time>2026-04-12T09:08:49.633Z</time></trkpt><trkpt lat="41.10811" lon="16.5064083"><ele>232.0</ele><time>2026-04-12T09:08:51.634Z</time></trkpt><trkpt lat="41.1081433" lon="16.50632"><ele>231.99999999999997</ele><time>2026-04-12T09:08:53.634Z</time></trkpt><trkpt lat="41.108185" lon="16.5062333"><ele>232.0</ele><time>2026-04-12T09:08:55.634Z</time></trkpt><trkpt lat="41.108205" lon="16.5061267"><ele>232.0</ele><time>2026-04-12T09:08:58.634Z</time></trkpt><trkpt lat="41.1082133" lon="16.5060217"><ele>232.0</ele><time>2026-04-12T09:09:00.635Z</time></trkpt><trkpt lat="41.1082367" lon="16.5059083"><ele>231.99999999999997</ele><time>2026-04-12T09:09:02.635Z</time></trkpt><trkpt lat="41.108265" lon="16.5058333"><ele>232.0</ele><time>2026-04-12T09:09:04.633Z</time></trkpt><trkpt lat="41.108285" lon="16.5057533"><ele>232.0</ele><time>2026-04-12T09:09:06.634Z</time></trkpt><trkpt lat="41.1083317" lon="16.5056767"><ele>232.0</ele><time>2026-04-12T09:09:09.633Z</time></trkpt><trkpt lat="41.1083583" lon="16.505585"><ele>232.0</ele><time>2026-04-12T09:09:13.636Z</time></trkpt><trkpt lat="41.1084017" lon="16.50546"><ele>232.0</ele><time>2026-04-12T09:09:16.635Z</time></trkpt><trkpt lat="41.1084267" lon="16.5053433"><ele>232.0</ele><time>2026-04-12T09:09:18.635Z</time></trkpt><trkpt lat="41.1084583" lon="16.5051933"><ele>232.0</ele><time>2026-04-12T09:09:20.639Z</time></trkpt><trkpt lat="41.108495" lon="16.5050517"><ele>232.0</ele><time>2026-04-12T09:09:22.636Z</time></trkpt><trkpt lat="41.1085383" lon="16.5049117"><ele>232.0</ele><time>2026-04-12T09:09:24.635Z</time></trkpt><trkpt lat="41.1085633" lon="16.5048333"><ele>232.0</ele><time>2026-04-12T09:09:25.635Z</time></trkpt><trkpt lat="41.1086" lon="16.504675"><ele>232.0</ele><time>2026-04-12T09:09:27.634Z</time></trkpt><trkpt lat="41.108645" lon="16.50453"><ele>232.0</ele><time>2026-04-12T09:09:29.635Z</time></trkpt><trkpt lat="41.1086783" lon="16.50438"><ele>232.0</ele><time>2026-04-12T09:09:31.635Z</time></trkpt><trkpt lat="41.108705" lon="16.5042583"><ele>232.0</ele><time>2026-04-12T09:09:33.635Z</time></trkpt><trkpt lat="41.10874" lon="16.5041683"><ele>232.0</ele><time>2026-04-12T09:09:36.635Z</time></trkpt><trkpt lat="41.1087717" lon="16.5040517"><ele>232.0</ele><time>2026-04-12T09:09:39.634Z</time></trkpt><trkpt lat="41.1088033" lon="16.5039267"><ele>232.0</ele><time>2026-04-12T09:09:41.638Z</time></trkpt><trkpt lat="41.10887" lon="16.5038417"><ele>232.0</ele><time>2026-04-12T09:09:43.636Z</time></trkpt><trkpt lat="41.108945" lon="16.5038517"><ele>232.0</ele><time>2026-04-12T09:09:45.635Z</time></trkpt><trkpt lat="41.1090033" lon="16.5039483"><ele>232.0</ele><time>2026-04-12T09:09:47.635Z</time></trkpt><trkpt lat="41.1090317" lon="16.5041333"><ele>232.0</ele><time>2026-04-12T09:09:49.637Z</time></trkpt><trkpt lat="41.10904" lon="16.5042867"><ele>232.0</ele><time>2026-04-12T09:09:50.643Z</time></trkpt><trkpt lat="41.1090517" lon="16.504455"><ele>232.0</ele><time>2026-04-12T09:09:51.635Z</time></trkpt><trkpt lat="41.1090683" lon="16.5046483"><ele>232.0</ele><time>2026-04-12T09:09:52.635Z</time></trkpt><trkpt lat="41.1090867" lon="16.5048567"><ele>232.0</ele><time>2026-04-12T09:09:53.635Z</time></trkpt><trkpt lat="41.109105" lon="16.5050767"><ele>232.33333333333331</ele><time>2026-04-12T09:09:54.635Z</time></trkpt><trkpt lat="41.1091233" lon="16.5053117"><ele>232.66666666666669</ele><time>2026-04-12T09:09:55.637Z</time></trkpt><trkpt lat="41.10914" lon="16.5055617"><ele>233.0</ele><time>2026-04-12T09:09:56.635Z</time></trkpt><trkpt lat="41.1091567" lon="16.50581"><ele>233.0</ele><time>2026-04-12T09:09:57.635Z</time></trkpt><trkpt lat="41.1091717" lon="16.5060667"><ele>233.0</ele><time>2026-04-12T09:09:58.635Z</time></trkpt><trkpt lat="41.1091883" lon="16.506335"><ele>233.0</ele><time>2026-04-12T09:09:59.638Z</time></trkpt><trkpt lat="41.1092117" lon="16.5066033"><ele>232.0</ele><time>2026-04-12T09:10:00.64Z</time></trkpt><trkpt lat="41.1092367" lon="16.50689"><ele>231.0</ele><time>2026-04-12T09:10:01.635Z</time></trkpt><trkpt lat="41.1092583" lon="16.5071967"><ele>230.0</ele><time>2026-04-12T09:10:02.635Z</time></trkpt><trkpt lat="41.109285" lon="16.5075083"><ele>229.0</ele><time>2026-04-12T09:10:03.634Z</time></trkpt><trkpt lat="41.1093117" lon="16.5078217"><ele>229.0</ele><time>2026-04-12T09:10:04.635Z</time></trkpt><trkpt lat="41.1093367" lon="16.5081333"><ele>229.0</ele><time>2026-04-12T09:10:05.636Z</time></trkpt><trkpt lat="41.10936" lon="16.508445"><ele>229.0</ele><time>2026-04-12T09:10:06.635Z</time></trkpt><trkpt lat="41.1093817" lon="16.50875"><ele>229.0</ele><time>2026-04-12T09:10:07.634Z</time></trkpt><trkpt lat="41.109405" lon="16.5090533"><ele>229.0</ele><time>2026-04-12T09:10:08.636Z</time></trkpt><trkpt lat="41.10943" lon="16.5093583"><ele>229.0</ele><time>2026-04-12T09:10:09.634Z</time></trkpt><trkpt lat="41.1094533" lon="16.5096683"><ele>229.0</ele><time>2026-04-12T09:10:10.635Z</time></trkpt><trkpt lat="41.109475" lon="16.50999"><ele>229.0</ele><time>2026-04-12T09:10:11.636Z</time></trkpt><trkpt lat="41.1094983" lon="16.5103183"><ele>228.0</ele><time>2026-04-12T09:10:12.636Z</time></trkpt><trkpt lat="41.1095217" lon="16.510655"><ele>227.0</ele><time>2026-04-12T09:10:13.636Z</time></trkpt><trkpt lat="41.1095467" lon="16.5110033"><ele>227.5</ele><time>2026-04-12T09:10:14.636Z</time></trkpt><trkpt lat="41.1095733" lon="16.511365"><ele>228.0</ele><time>2026-04-12T09:10:15.634Z</time></trkpt><trkpt lat="41.1095967" lon="16.5117317"><ele>228.0</ele><time>2026-04-12T09:10:16.635Z</time></trkpt><trkpt lat="41.10962" lon="16.512095"><ele>228.0</ele><time>2026-04-12T09:10:17.638Z</time></trkpt><trkpt lat="41.109645" lon="16.5124433"><ele>228.0</ele><time>2026-04-12T09:10:18.635Z</time></trkpt><trkpt lat="41.1096667" lon="16.51276"><ele>228.0</ele><time>2026-04-12T09:10:19.636Z</time></trkpt><trkpt lat="41.1096867" lon="16.5130317"><ele>228.0</ele><time>2026-04-12T09:10:20.636Z</time></trkpt><trkpt lat="41.109705" lon="16.5132717"><ele>228.0</ele><time>2026-04-12T09:10:21.634Z</time></trkpt><trkpt lat="41.1097233" lon="16.513495"><ele>228.0</ele><time>2026-04-12T09:10:22.635Z</time></trkpt><trkpt lat="41.1097367" lon="16.51371"><ele>228.0</ele><time>2026-04-12T09:10:23.636Z</time></trkpt><trkpt lat="41.109755" lon="16.5139317"><ele>227.66666666666669</ele><time>2026-04-12T09:10:24.635Z</time></trkpt><trkpt lat="41.109775" lon="16.5141633"><ele>227.33333333333334</ele><time>2026-04-12T09:10:25.638Z</time></trkpt><trkpt lat="41.1097967" lon="16.5144083"><ele>227.0</ele><time>2026-04-12T09:10:26.635Z</time></trkpt><trkpt lat="41.1098183" lon="16.5146667"><ele>227.0</ele><time>2026-04-12T09:10:27.635Z</time></trkpt><trkpt lat="41.10984" lon="16.51494"><ele>227.0</ele><time>2026-04-12T09:10:28.634Z</time></trkpt><trkpt lat="41.1098617" lon="16.5152283"><ele>227.0</ele><time>2026-04-12T09:10:29.637Z</time></trkpt><trkpt lat="41.10988" lon="16.5155333"><ele>226.5</ele><time>2026-04-12T09:10:30.635Z</time></trkpt><trkpt lat="41.1098933" lon="16.5158483"><ele>226.0</ele><time>2026-04-12T09:10:31.636Z</time></trkpt><trkpt lat="41.1099083" lon="16.5161733"><ele>225.5</ele><time>2026-04-12T09:10:32.635Z</time></trkpt><trkpt lat="41.10993" lon="16.5165"><ele>225.0</ele><time>2026-04-12T09:10:33.634Z</time></trkpt><trkpt lat="41.109955" lon="16.5168367"><ele>224.5</ele><time>2026-04-12T09:10:34.636Z</time></trkpt><trkpt lat="41.10998" lon="16.5171817"><ele>224.0</ele><time>2026-04-12T09:10:35.635Z</time></trkpt><trkpt lat="41.1100033" lon="16.5175317"><ele>224.0</ele><time>2026-04-12T09:10:36.635Z</time></trkpt><trkpt lat="41.110025" lon="16.51788"><ele>224.0</ele><time>2026-04-12T09:10:37.634Z</time></trkpt><trkpt lat="41.1100483" lon="16.5182117"><ele>224.0</ele><time>2026-04-12T09:10:38.635Z</time></trkpt><trkpt lat="41.1100683" lon="16.5185233"><ele>224.0</ele><time>2026-04-12T09:10:39.635Z</time></trkpt><trkpt lat="41.11009" lon="16.51882"><ele>224.33333333333334</ele><time>2026-04-12T09:10:40.635Z</time></trkpt><trkpt lat="41.11011" lon="16.5191"><ele>224.66666666666669</ele><time>2026-04-12T09:10:41.635Z</time></trkpt><trkpt lat="41.1101283" lon="16.5193667"><ele>225.0</ele><time>2026-04-12T09:10:42.635Z</time></trkpt><trkpt lat="41.1101433" lon="16.519625"><ele>224.0</ele><time>2026-04-12T09:10:43.64Z</time></trkpt><trkpt lat="41.11016" lon="16.5198833"><ele>223.0</ele><time>2026-04-12T09:10:44.635Z</time></trkpt><trkpt lat="41.1101783" lon="16.5201417"><ele>222.0</ele><time>2026-04-12T09:10:45.634Z</time></trkpt><trkpt lat="41.1101967" lon="16.5204033"><ele>221.66666666666669</ele><time>2026-04-12T09:10:46.634Z</time></trkpt><trkpt lat="41.1102133" lon="16.5206617"><ele>221.33333333333334</ele><time>2026-04-12T09:10:47.635Z</time></trkpt><trkpt lat="41.1102317" lon="16.5209067"><ele>221.0</ele><time>2026-04-12T09:10:48.634Z</time></trkpt><trkpt lat="41.1102483" lon="16.5211317"><ele>220.66666666666669</ele><time>2026-04-12T09:10:49.636Z</time></trkpt><trkpt lat="41.1102633" lon="16.5213467"><ele>220.33333333333331</ele><time>2026-04-12T09:10:50.636Z</time></trkpt><trkpt lat="41.1102767" lon="16.5215467"><ele>220.0</ele><time>2026-04-12T09:10:51.634Z</time></trkpt><trkpt lat="41.110285" lon="16.5217367"><ele>220.0</ele><time>2026-04-12T09:10:52.635Z</time></trkpt><trkpt lat="41.1102833" lon="16.5219133"><ele>220.0</ele><time>2026-04-12T09:10:53.635Z</time></trkpt><trkpt lat="41.110275" lon="16.52207"><ele>220.0</ele><time>2026-04-12T09:10:54.636Z</time></trkpt><trkpt lat="41.11026" lon="16.522205"><ele>220.0</ele><time>2026-04-12T09:10:55.635Z</time></trkpt><trkpt lat="41.1102383" lon="16.5223233"><ele>220.0</ele><time>2026-04-12T09:10:56.635Z</time></trkpt><trkpt lat="41.1102033" lon="16.5224283"><ele>220.0</ele><time>2026-04-12T09:10:57.634Z</time></trkpt><trkpt lat="41.1101567" lon="16.522525"><ele>220.0</ele><time>2026-04-12T09:10:58.635Z</time></trkpt><trkpt lat="41.1101033" lon="16.52263"><ele>220.0</ele><time>2026-04-12T09:10:59.635Z</time></trkpt><trkpt lat="41.110045" lon="16.522745"><ele>220.0</ele><time>2026-04-12T09:11:00.635Z</time></trkpt><trkpt lat="41.109995" lon="16.522855"><ele>220.0</ele><time>2026-04-12T09:11:01.635Z</time></trkpt><trkpt lat="41.1099567" lon="16.522965"><ele>219.99999999999997</ele><time>2026-04-12T09:11:02.637Z</time></trkpt><trkpt lat="41.10993" lon="16.523075"><ele>220.0</ele><time>2026-04-12T09:11:03.634Z</time></trkpt><trkpt lat="41.10991" lon="16.5231717"><ele>220.0</ele><time>2026-04-12T09:11:04.635Z</time></trkpt><trkpt lat="41.1098883" lon="16.52326"><ele>220.0</ele><time>2026-04-12T09:11:05.636Z</time></trkpt><trkpt lat="41.10986" lon="16.52334"><ele>219.99999999999997</ele><time>2026-04-12T09:11:06.635Z</time></trkpt><trkpt lat="41.1098433" lon="16.5234217"><ele>220.0</ele><time>2026-04-12T09:11:07.641Z</time></trkpt><trkpt lat="41.109865" lon="16.523555"><ele>219.83333333333331</ele><time>2026-04-12T09:11:09.635Z</time></trkpt><trkpt lat="41.109945" lon="16.5235933"><ele>219.66666666666666</ele><time>2026-04-12T09:11:11.636Z</time></trkpt><trkpt lat="41.1100517" lon="16.5235167"><ele>219.5</ele><time>2026-04-12T09:11:13.635Z</time></trkpt><trkpt lat="41.11012" lon="16.5234567"><ele>219.33333333333331</ele><time>2026-04-12T09:11:14.636Z</time></trkpt><trkpt lat="41.1101967" lon="16.523415"><ele>219.16666666666666</ele><time>2026-04-12T09:11:15.635Z</time></trkpt><trkpt lat="41.1102717" lon="16.5234017"><ele>219.0</ele><time>2026-04-12T09:11:16.634Z</time></trkpt><trkpt lat="41.1103433" lon="16.5234167"><ele>219.0</ele><time>2026-04-12T09:11:17.635Z</time></trkpt><trkpt lat="41.1104133" lon="16.5234583"><ele>218.99999999999997</ele><time>2026-04-12T09:11:18.635Z</time></trkpt><trkpt lat="41.1104683" lon="16.52353"><ele>218.99999999999997</ele><time>2026-04-12T09:11:19.635Z</time></trkpt><trkpt lat="41.1104983" lon="16.52364"><ele>219.0</ele><time>2026-04-12T09:11:20.636Z</time></trkpt><trkpt lat="41.11051" lon="16.523795"><ele>219.0</ele><time>2026-04-12T09:11:21.634Z</time></trkpt><trkpt lat="41.1105267" lon="16.5239783"><ele>218.33333333333331</ele><time>2026-04-12T09:11:22.635Z</time></trkpt><trkpt lat="41.110545" lon="16.5241767"><ele>217.66666666666666</ele><time>2026-04-12T09:11:23.635Z</time></trkpt><trkpt lat="41.1105667" lon="16.5244"><ele>217.0</ele><time>2026-04-12T09:11:24.634Z</time></trkpt><trkpt lat="41.110585" lon="16.5246417"><ele>216.33333333333331</ele><time>2026-04-12T09:11:25.635Z</time></trkpt><trkpt lat="41.110605" lon="16.5249"><ele>215.66666666666669</ele><time>2026-04-12T09:11:26.636Z</time></trkpt><trkpt lat="41.1106233" lon="16.525175"><ele>215.0</ele><time>2026-04-12T09:11:27.635Z</time></trkpt><trkpt lat="41.11064" lon="16.5254683"><ele>214.5</ele><time>2026-04-12T09:11:28.635Z</time></trkpt><trkpt lat="41.1106633" lon="16.5257817"><ele>214.0</ele><time>2026-04-12T09:11:29.635Z</time></trkpt><trkpt lat="41.11069" lon="16.5261067"><ele>213.0</ele><time>2026-04-12T09:11:30.634Z</time></trkpt><trkpt lat="41.1107133" lon="16.5264567"><ele>212.0</ele><time>2026-04-12T09:11:31.637Z</time></trkpt><trkpt lat="41.1107383" lon="16.5268167"><ele>211.0</ele><time>2026-04-12T09:11:32.637Z</time></trkpt><trkpt lat="41.110765" lon="16.5271833"><ele>210.0</ele><time>2026-04-12T09:11:33.635Z</time></trkpt><trkpt lat="41.1107917" lon="16.5275567"><ele>209.5</ele><time>2026-04-12T09:11:34.635Z</time></trkpt><trkpt lat="41.1108183" lon="16.5279367"><ele>209.0</ele><time>2026-04-12T09:11:35.635Z</time></trkpt><trkpt lat="41.110845" lon="16.5283233"><ele>209.0</ele><time>2026-04-12T09:11:36.634Z</time></trkpt><trkpt lat="41.1108717" lon="16.5287167"><ele>209.0</ele><time>2026-04-12T09:11:37.638Z</time></trkpt><trkpt lat="41.1109017" lon="16.5291117"><ele>210.0</ele><time>2026-04-12T09:11:38.635Z</time></trkpt><trkpt lat="41.1109333" lon="16.5295083"><ele>211.0</ele><time>2026-04-12T09:11:39.635Z</time></trkpt><trkpt lat="41.1109617" lon="16.5299067"><ele>211.5</ele><time>2026-04-12T09:11:40.635Z</time></trkpt><trkpt lat="41.1109883" lon="16.530305"><ele>212.0</ele><time>2026-04-12T09:11:41.635Z</time></trkpt><trkpt lat="41.1110167" lon="16.530705"><ele>212.0</ele><time>2026-04-12T09:11:42.634Z</time></trkpt><trkpt lat="41.111045" lon="16.5311083"><ele>212.0</ele><time>2026-04-12T09:11:43.635Z</time></trkpt><trkpt lat="41.1110733" lon="16.5315133"><ele>211.5</ele><time>2026-04-12T09:11:44.635Z</time></trkpt><trkpt lat="41.1111033" lon="16.5319167"><ele>211.0</ele><time>2026-04-12T09:11:45.634Z</time></trkpt><trkpt lat="41.1111367" lon="16.53232"><ele>211.0</ele><time>2026-04-12T09:11:46.635Z</time></trkpt><trkpt lat="41.1111683" lon="16.5327233"><ele>211.0</ele><time>2026-04-12T09:11:47.635Z</time></trkpt><trkpt lat="41.1111983" lon="16.5331233"><ele>211.0</ele><time>2026-04-12T09:11:48.634Z</time></trkpt><trkpt lat="41.11123" lon="16.5335167"><ele>211.0</ele><time>2026-04-12T09:11:49.635Z</time></trkpt><trkpt lat="41.11126" lon="16.5339033"><ele>210.0</ele><time>2026-04-12T09:11:50.635Z</time></trkpt><trkpt lat="41.1112883" lon="16.5342883"><ele>209.0</ele><time>2026-04-12T09:11:51.639Z</time></trkpt><trkpt lat="41.11132" lon="16.5346683"><ele>208.0</ele><time>2026-04-12T09:11:52.638Z</time></trkpt><trkpt lat="41.1113533" lon="16.5350467"><ele>207.0</ele><time>2026-04-12T09:11:53.637Z</time></trkpt><trkpt lat="41.1113867" lon="16.53543"><ele>205.5</ele><time>2026-04-12T09:11:54.634Z</time></trkpt><trkpt lat="41.1114183" lon="16.5358133"><ele>204.0</ele><time>2026-04-12T09:11:55.634Z</time></trkpt><trkpt lat="41.1114483" lon="16.5362017"><ele>204.5</ele><time>2026-04-12T09:11:56.635Z</time></trkpt><trkpt lat="41.1114733" lon="16.5365933"><ele>205.0</ele><time>2026-04-12T09:11:57.634Z</time></trkpt><trkpt lat="41.111495" lon="16.5369917"><ele>204.0</ele><time>2026-04-12T09:11:58.635Z</time></trkpt><trkpt lat="41.1115183" lon="16.53739"><ele>203.0</ele><time>2026-04-12T09:11:59.635Z</time></trkpt><trkpt lat="41.1115433" lon="16.53779"><ele>203.0</ele><time>2026-04-12T09:12:00.634Z</time></trkpt><trkpt lat="41.1115733" lon="16.5381917"><ele>203.0</ele><time>2026-04-12T09:12:01.634Z</time></trkpt><trkpt lat="41.111605" lon="16.5385967"><ele>203.5</ele><time>2026-04-12T09:12:02.635Z</time></trkpt><trkpt lat="41.1116367" lon="16.5390017"><ele>204.0</ele><time>2026-04-12T09:12:03.634Z</time></trkpt><trkpt lat="41.1116717" lon="16.5394083"><ele>204.0</ele><time>2026-04-12T09:12:04.634Z</time></trkpt><trkpt lat="41.1117017" lon="16.5398183"><ele>204.0</ele><time>2026-04-12T09:12:05.635Z</time></trkpt><trkpt lat="41.1117317" lon="16.5402283"><ele>204.5</ele><time>2026-04-12T09:12:06.637Z</time></trkpt><trkpt lat="41.1117617" lon="16.5406383"><ele>205.0</ele><time>2026-04-12T09:12:07.635Z</time></trkpt><trkpt lat="41.11179" lon="16.5410483"><ele>205.5</ele><time>2026-04-12T09:12:08.635Z</time></trkpt><trkpt lat="41.11182" lon="16.5414567"><ele>206.0</ele><time>2026-04-12T09:12:09.634Z</time></trkpt><trkpt lat="41.11185" lon="16.5418667"><ele>206.5</ele><time>2026-04-12T09:12:10.635Z</time></trkpt><trkpt lat="41.11188" lon="16.5422733"><ele>207.0</ele><time>2026-04-12T09:12:11.635Z</time></trkpt><trkpt lat="41.1119133" lon="16.5426817"><ele>207.0</ele><time>2026-04-12T09:12:12.634Z</time></trkpt><trkpt lat="41.1119467" lon="16.54309"><ele>207.0</ele><time>2026-04-12T09:12:13.636Z</time></trkpt><trkpt lat="41.1119783" lon="16.5435"><ele>206.5</ele><time>2026-04-12T09:12:14.635Z</time></trkpt><trkpt lat="41.11201" lon="16.5439083"><ele>206.0</ele><time>2026-04-12T09:12:15.636Z</time></trkpt><trkpt lat="41.1120417" lon="16.54432"><ele>205.0</ele><time>2026-04-12T09:12:16.637Z</time></trkpt><trkpt lat="41.112075" lon="16.5447367"><ele>204.0</ele><time>2026-04-12T09:12:17.634Z</time></trkpt><trkpt lat="41.1121067" lon="16.5451517"><ele>204.0</ele><time>2026-04-12T09:12:18.634Z</time></trkpt><trkpt lat="41.11214" lon="16.5455483"><ele>204.0</ele><time>2026-04-12T09:12:19.635Z</time></trkpt><trkpt lat="41.1121717" lon="16.545935"><ele>204.0</ele><time>2026-04-12T09:12:20.635Z</time></trkpt><trkpt lat="41.1122017" lon="16.5463133"><ele>204.0</ele><time>2026-04-12T09:12:21.635Z</time></trkpt><trkpt lat="41.1122317" lon="16.54669"><ele>204.5</ele><time>2026-04-12T09:12:22.634Z</time></trkpt><trkpt lat="41.1122567" lon="16.547065"><ele>205.0</ele><time>2026-04-12T09:12:23.635Z</time></trkpt><trkpt lat="41.1122817" lon="16.54744"><ele>205.0</ele><time>2026-04-12T09:12:24.635Z</time></trkpt><trkpt lat="41.1123067" lon="16.5478133"><ele>205.0</ele><time>2026-04-12T09:12:25.636Z</time></trkpt><trkpt lat="41.1123333" lon="16.5481883"><ele>205.5</ele><time>2026-04-12T09:12:26.635Z</time></trkpt><trkpt lat="41.1123617" lon="16.5485617"><ele>206.0</ele><time>2026-04-12T09:12:27.634Z</time></trkpt><trkpt lat="41.1123933" lon="16.548935"><ele>204.5</ele><time>2026-04-12T09:12:28.634Z</time></trkpt><trkpt lat="41.11242" lon="16.5493117"><ele>203.0</ele><time>2026-04-12T09:12:29.639Z</time></trkpt><trkpt lat="41.1124467" lon="16.5496933"><ele>202.5</ele><time>2026-04-12T09:12:30.634Z</time></trkpt><trkpt lat="41.1124783" lon="16.55008"><ele>202.0</ele><time>2026-04-12T09:12:31.635Z</time></trkpt><trkpt lat="41.11251" lon="16.550475"><ele>201.5</ele><time>2026-04-12T09:12:32.636Z</time></trkpt><trkpt lat="41.1125433" lon="16.5508783"><ele>201.0</ele><time>2026-04-12T09:12:33.635Z</time></trkpt><trkpt lat="41.112575" lon="16.5512867"><ele>201.0</ele><time>2026-04-12T09:12:34.634Z</time></trkpt><trkpt lat="41.1126083" lon="16.5517"><ele>201.0</ele><time>2026-04-12T09:12:35.636Z</time></trkpt><trkpt lat="41.1126467" lon="16.5521167"><ele>201.0</ele><time>2026-04-12T09:12:36.635Z</time></trkpt><trkpt lat="41.1126867" lon="16.5525367"><ele>201.0</ele><time>2026-04-12T09:12:37.635Z</time></trkpt><trkpt lat="41.1127233" lon="16.5529583"><ele>201.0</ele><time>2026-04-12T09:12:38.635Z</time></trkpt><trkpt lat="41.1127567" lon="16.5533867"><ele>201.0</ele><time>2026-04-12T09:12:39.634Z</time></trkpt><trkpt lat="41.1127883" lon="16.553815"><ele>201.0</ele><time>2026-04-12T09:12:40.635Z</time></trkpt><trkpt lat="41.11282" lon="16.5542467"><ele>201.0</ele><time>2026-04-12T09:12:41.635Z</time></trkpt><trkpt lat="41.1128533" lon="16.55468"><ele>201.5</ele><time>2026-04-12T09:12:42.634Z</time></trkpt><trkpt lat="41.112885" lon="16.5551117"><ele>202.0</ele><time>2026-04-12T09:12:43.635Z</time></trkpt><trkpt lat="41.1129217" lon="16.5555433"><ele>202.0</ele><time>2026-04-12T09:12:44.637Z</time></trkpt><trkpt lat="41.1129533" lon="16.555975"><ele>202.0</ele><time>2026-04-12T09:12:45.634Z</time></trkpt><trkpt lat="41.1129833" lon="16.5564017"><ele>201.5</ele><time>2026-04-12T09:12:46.634Z</time></trkpt><trkpt lat="41.113015" lon="16.556825"><ele>201.0</ele><time>2026-04-12T09:12:47.636Z</time></trkpt><trkpt lat="41.1130467" lon="16.5572467"><ele>200.5</ele><time>2026-04-12T09:12:48.634Z</time></trkpt><trkpt lat="41.1130817" lon="16.557665"><ele>200.0</ele><time>2026-04-12T09:12:49.637Z</time></trkpt><trkpt lat="41.11311" lon="16.5580833"><ele>200.0</ele><time>2026-04-12T09:12:50.635Z</time></trkpt><trkpt lat="41.113135" lon="16.5585033"><ele>200.0</ele><time>2026-04-12T09:12:51.634Z</time></trkpt><trkpt lat="41.1131617" lon="16.5589233"><ele>200.0</ele><time>2026-04-12T09:12:52.635Z</time></trkpt><trkpt lat="41.1131817" lon="16.5593483"><ele>200.0</ele><time>2026-04-12T09:12:53.635Z</time></trkpt><trkpt lat="41.1131933" lon="16.5597667"><ele>200.0</ele><time>2026-04-12T09:12:54.634Z</time></trkpt><trkpt lat="41.1132233" lon="16.560185"><ele>200.0</ele><time>2026-04-12T09:12:55.636Z</time></trkpt><trkpt lat="41.1132683" lon="16.560615"><ele>199.0</ele><time>2026-04-12T09:12:56.635Z</time></trkpt><trkpt lat="41.1133067" lon="16.5610417"><ele>198.0</ele><time>2026-04-12T09:12:57.634Z</time></trkpt><trkpt lat="41.11335" lon="16.5614683"><ele>198.0</ele><time>2026-04-12T09:12:58.642Z</time></trkpt><trkpt lat="41.1133833" lon="16.5618883"><ele>198.0</ele><time>2026-04-12T09:12:59.635Z</time></trkpt><trkpt lat="41.113415" lon="16.5622983"><ele>197.0</ele><time>2026-04-12T09:13:00.634Z</time></trkpt><trkpt lat="41.1134583" lon="16.56271"><ele>196.0</ele><time>2026-04-12T09:13:01.636Z</time></trkpt><trkpt lat="41.1135117" lon="16.563115"><ele>196.0</ele><time>2026-04-12T09:13:02.636Z</time></trkpt><trkpt lat="41.11356" lon="16.5635133"><ele>196.0</ele><time>2026-04-12T09:13:03.634Z</time></trkpt><trkpt lat="41.1136017" lon="16.5639033"><ele>195.5</ele><time>2026-04-12T09:13:04.635Z</time></trkpt><trkpt lat="41.1136433" lon="16.5642783"><ele>195.0</ele><time>2026-04-12T09:13:05.636Z</time></trkpt><trkpt lat="41.1136833" lon="16.5646417"><ele>194.0</ele><time>2026-04-12T09:13:06.634Z</time></trkpt><trkpt lat="41.11372" lon="16.565"><ele>193.0</ele><time>2026-04-12T09:13:07.635Z</time></trkpt><trkpt lat="41.1137533" lon="16.5653467"><ele>193.0</ele><time>2026-04-12T09:13:08.635Z</time></trkpt><trkpt lat="41.1137867" lon="16.5656817"><ele>193.0</ele><time>2026-04-12T09:13:09.634Z</time></trkpt><trkpt lat="41.1138183" lon="16.566005"><ele>192.0</ele><time>2026-04-12T09:13:10.635Z</time></trkpt><trkpt lat="41.1138483" lon="16.5663233"><ele>191.0</ele><time>2026-04-12T09:13:11.634Z</time></trkpt><trkpt lat="41.11388" lon="16.5666333"><ele>191.0</ele><time>2026-04-12T09:13:12.634Z</time></trkpt><trkpt lat="41.11391" lon="16.5669333"><ele>191.0</ele><time>2026-04-12T09:13:13.635Z</time></trkpt><trkpt lat="41.1139383" lon="16.5672183"><ele>191.0</ele><time>2026-04-12T09:13:14.636Z</time></trkpt><trkpt lat="41.1139617" lon="16.567495"><ele>190.66666666666666</ele><time>2026-04-12T09:13:15.634Z</time></trkpt><trkpt lat="41.1139833" lon="16.567755"><ele>190.33333333333334</ele><time>2026-04-12T09:13:16.636Z</time></trkpt><trkpt lat="41.114005" lon="16.5679933"><ele>190.0</ele><time>2026-04-12T09:13:17.635Z</time></trkpt><trkpt lat="41.114025" lon="16.5682067"><ele>189.4</ele><time>2026-04-12T09:13:18.634Z</time></trkpt><trkpt lat="41.1140367" lon="16.568385"><ele>188.8</ele><time>2026-04-12T09:13:19.638Z</time></trkpt><trkpt lat="41.1140483" lon="16.5685317"><ele>188.2</ele><time>2026-04-12T09:13:20.634Z</time></trkpt><trkpt lat="41.11405" lon="16.5686567"><ele>187.6</ele><time>2026-04-12T09:13:21.634Z</time></trkpt><trkpt lat="41.1140317" lon="16.5687717"><ele>187.0</ele><time>2026-04-12T09:13:22.635Z</time></trkpt><trkpt lat="41.1139933" lon="16.5688783"><ele>186.75</ele><time>2026-04-12T09:13:23.637Z</time></trkpt><trkpt lat="41.1139283" lon="16.5689817"><ele>186.5</ele><time>2026-04-12T09:13:24.637Z</time></trkpt><trkpt lat="41.1138417" lon="16.5690767"><ele>186.25</ele><time>2026-04-12T09:13:25.635Z</time></trkpt><trkpt lat="41.1137317" lon="16.5691533"><ele>186.0</ele><time>2026-04-12T09:13:26.635Z</time></trkpt><trkpt lat="41.1136067" lon="16.569225"><ele>186.0</ele><time>2026-04-12T09:13:27.635Z</time></trkpt><trkpt lat="41.1134867" lon="16.5693233"><ele>186.0</ele><time>2026-04-12T09:13:28.637Z</time></trkpt><trkpt lat="41.1133783" lon="16.5694533"><ele>186.0</ele><time>2026-04-12T09:13:29.634Z</time></trkpt><trkpt lat="41.1132917" lon="16.5696117"><ele>186.0</ele><time>2026-04-12T09:13:30.634Z</time></trkpt><trkpt lat="41.1132367" lon="16.569785"><ele>186.25</ele><time>2026-04-12T09:13:31.636Z</time></trkpt><trkpt lat="41.11321" lon="16.56997"><ele>186.5</ele><time>2026-04-12T09:13:32.635Z</time></trkpt><trkpt lat="41.113205" lon="16.5701533"><ele>186.75</ele><time>2026-04-12T09:13:33.635Z</time></trkpt><trkpt lat="41.1132333" lon="16.5703267"><ele>187.0</ele><time>2026-04-12T09:13:34.635Z</time></trkpt><trkpt lat="41.11329" lon="16.5704833"><ele>185.75</ele><time>2026-04-12T09:13:35.636Z</time></trkpt><trkpt lat="41.1133783" lon="16.57062"><ele>184.5</ele><time>2026-04-12T09:13:36.635Z</time></trkpt><trkpt lat="41.11349" lon="16.5707283"><ele>183.25</ele><time>2026-04-12T09:13:37.635Z</time></trkpt><trkpt lat="41.11362" lon="16.5708033"><ele>182.0</ele><time>2026-04-12T09:13:38.635Z</time></trkpt><trkpt lat="41.1137667" lon="16.57083"><ele>182.0</ele><time>2026-04-12T09:13:39.634Z</time></trkpt><trkpt lat="41.1139333" lon="16.5708217"><ele>182.0</ele><time>2026-04-12T09:13:40.635Z</time></trkpt><trkpt lat="41.1141067" lon="16.5707967"><ele>182.0</ele><time>2026-04-12T09:13:41.637Z</time></trkpt><trkpt lat="41.1142917" lon="16.57076"><ele>182.33333333333331</ele><time>2026-04-12T09:13:42.635Z</time></trkpt><trkpt lat="41.11449" lon="16.5707217"><ele>182.66666666666666</ele><time>2026-04-12T09:13:43.635Z</time></trkpt><trkpt lat="41.1146983" lon="16.5706883"><ele>183.0</ele><time>2026-04-12T09:13:44.635Z</time></trkpt><trkpt lat="41.1149133" lon="16.570655"><ele>183.0</ele><time>2026-04-12T09:13:45.635Z</time></trkpt><trkpt lat="41.1151233" lon="16.57062"><ele>183.0</ele><time>2026-04-12T09:13:46.636Z</time></trkpt><trkpt lat="41.11533" lon="16.5705817"><ele>183.0</ele><time>2026-04-12T09:13:47.636Z</time></trkpt><trkpt lat="41.1155367" lon="16.57054"><ele>182.0</ele><time>2026-04-12T09:13:48.636Z</time></trkpt><trkpt lat="41.11574" lon="16.5705067"><ele>181.0</ele><time>2026-04-12T09:13:49.635Z</time></trkpt><trkpt lat="41.1159433" lon="16.57049"><ele>180.0</ele><time>2026-04-12T09:13:50.634Z</time></trkpt><trkpt lat="41.1161617" lon="16.570495"><ele>180.0</ele><time>2026-04-12T09:13:51.635Z</time></trkpt><trkpt lat="41.1163883" lon="16.5705267"><ele>180.0</ele><time>2026-04-12T09:13:52.635Z</time></trkpt><trkpt lat="41.1166267" lon="16.570585"><ele>178.5</ele><time>2026-04-12T09:13:53.638Z</time></trkpt><trkpt lat="41.11687" lon="16.5706733"><ele>177.0</ele><time>2026-04-12T09:13:54.635Z</time></trkpt><trkpt lat="41.1171067" lon="16.5707833"><ele>177.0</ele><time>2026-04-12T09:13:55.635Z</time></trkpt><trkpt lat="41.1173433" lon="16.5709117"><ele>177.0</ele><time>2026-04-12T09:13:56.636Z</time></trkpt><trkpt lat="41.11758" lon="16.571055"><ele>176.5</ele><time>2026-04-12T09:13:57.634Z</time></trkpt><trkpt lat="41.1178283" lon="16.5712033"><ele>176.0</ele><time>2026-04-12T09:13:58.636Z</time></trkpt><trkpt lat="41.1180817" lon="16.5713533"><ele>175.5</ele><time>2026-04-12T09:13:59.635Z</time></trkpt><trkpt lat="41.1183333" lon="16.5714983"><ele>175.0</ele><time>2026-04-12T09:14:00.634Z</time></trkpt><trkpt lat="41.1185783" lon="16.5716417"><ele>175.0</ele><time>2026-04-12T09:14:01.635Z</time></trkpt><trkpt lat="41.118795" lon="16.5717567"><ele>175.0</ele><time>2026-04-12T09:14:02.635Z</time></trkpt><trkpt lat="41.1189917" lon="16.5718633"><ele>175.0</ele><time>2026-04-12T09:14:03.635Z</time></trkpt><trkpt lat="41.1191783" lon="16.5719717"><ele>174.33333333333334</ele><time>2026-04-12T09:14:04.634Z</time></trkpt><trkpt lat="41.11936" lon="16.5720767"><ele>173.66666666666666</ele><time>2026-04-12T09:14:05.635Z</time></trkpt><trkpt lat="41.119535" lon="16.5721767"><ele>173.0</ele><time>2026-04-12T09:14:06.635Z</time></trkpt><trkpt lat="41.119705" lon="16.5722767"><ele>173.0</ele><time>2026-04-12T09:14:07.641Z</time></trkpt><trkpt lat="41.119865" lon="16.5723733"><ele>173.0</ele><time>2026-04-12T09:14:08.636Z</time></trkpt><trkpt lat="41.1200083" lon="16.5724567"><ele>173.0</ele><time>2026-04-12T09:14:09.634Z</time></trkpt><trkpt lat="41.1201267" lon="16.5725267"><ele>172.8</ele><time>2026-04-12T09:14:10.635Z</time></trkpt><trkpt lat="41.1202217" lon="16.5725867"><ele>172.60000000000002</ele><time>2026-04-12T09:14:11.635Z</time></trkpt><trkpt lat="41.1202933" lon="16.57263"><ele>172.39999999999998</ele><time>2026-04-12T09:14:12.634Z</time></trkpt><trkpt lat="41.1203933" lon="16.5726867"><ele>172.2</ele><time>2026-04-12T09:14:14.636Z</time></trkpt><trkpt lat="41.1204683" lon="16.5726633"><ele>172.0</ele><time>2026-04-12T09:14:17.637Z</time></trkpt><trkpt lat="41.1205367" lon="16.57253"><ele>172.0</ele><time>2026-04-12T09:14:19.636Z</time></trkpt><trkpt lat="41.1205783" lon="16.5724333"><ele>172.0</ele><time>2026-04-12T09:14:20.636Z</time></trkpt><trkpt lat="41.1206367" lon="16.5723067"><ele>172.0</ele><time>2026-04-12T09:14:21.634Z</time></trkpt><trkpt lat="41.1207" lon="16.5721667"><ele>172.0</ele><time>2026-04-12T09:14:22.634Z</time></trkpt><trkpt lat="41.1207633" lon="16.5720383"><ele>172.0</ele><time>2026-04-12T09:14:23.634Z</time></trkpt><trkpt lat="41.1208217" lon="16.5719183"><ele>171.5</ele><time>2026-04-12T09:14:24.634Z</time></trkpt><trkpt lat="41.120885" lon="16.5717917"><ele>171.0</ele><time>2026-04-12T09:14:25.634Z</time></trkpt><trkpt lat="41.1209583" lon="16.5716433"><ele>170.5</ele><time>2026-04-12T09:14:26.635Z</time></trkpt><trkpt lat="41.12104" lon="16.5714767"><ele>170.0</ele><time>2026-04-12T09:14:27.636Z</time></trkpt><trkpt lat="41.1211267" lon="16.571295"><ele>169.66666666666666</ele><time>2026-04-12T09:14:28.634Z</time></trkpt><trkpt lat="41.12122" lon="16.5710967"><ele>169.33333333333334</ele><time>2026-04-12T09:14:29.636Z</time></trkpt><trkpt lat="41.12132" lon="16.5708933"><ele>169.0</ele><time>2026-04-12T09:14:30.635Z</time></trkpt><trkpt lat="41.12142" lon="16.5706833"><ele>169.0</ele><time>2026-04-12T09:14:31.636Z</time></trkpt><trkpt lat="41.12152" lon="16.57046"><ele>169.0</ele><time>2026-04-12T09:14:32.636Z</time></trkpt><trkpt lat="41.12163" lon="16.57023"><ele>169.0</ele><time>2026-04-12T09:14:33.635Z</time></trkpt><trkpt lat="41.12174" lon="16.5699933"><ele>169.0</ele><time>2026-04-12T09:14:34.634Z</time></trkpt><trkpt lat="41.1218567" lon="16.56975"><ele>169.0</ele><time>2026-04-12T09:14:35.634Z</time></trkpt><trkpt lat="41.12197" lon="16.56952"><ele>169.0</ele><time>2026-04-12T09:14:36.635Z</time></trkpt><trkpt lat="41.1220783" lon="16.5693033"><ele>168.33333333333334</ele><time>2026-04-12T09:14:37.634Z</time></trkpt><trkpt lat="41.1221817" lon="16.5690983"><ele>167.66666666666666</ele><time>2026-04-12T09:14:38.634Z</time></trkpt><trkpt lat="41.1222767" lon="16.5689033"><ele>167.0</ele><time>2026-04-12T09:14:39.634Z</time></trkpt><trkpt lat="41.122365" lon="16.5687183"><ele>166.5</ele><time>2026-04-12T09:14:40.635Z</time></trkpt><trkpt lat="41.122445" lon="16.5685417"><ele>166.0</ele><time>2026-04-12T09:14:41.634Z</time></trkpt><trkpt lat="41.1225217" lon="16.5683767"><ele>165.5</ele><time>2026-04-12T09:14:42.634Z</time></trkpt><trkpt lat="41.1225967" lon="16.5682117"><ele>165.0</ele><time>2026-04-12T09:14:43.635Z</time></trkpt><trkpt lat="41.1226617" lon="16.5680567"><ele>165.0</ele><time>2026-04-12T09:14:44.636Z</time></trkpt><trkpt lat="41.1227167" lon="16.5679133"><ele>165.0</ele><time>2026-04-12T09:14:45.634Z</time></trkpt><trkpt lat="41.122775" lon="16.5677667"><ele>165.0</ele><time>2026-04-12T09:14:46.635Z</time></trkpt><trkpt lat="41.122845" lon="16.5676067"><ele>165.0</ele><time>2026-04-12T09:14:47.634Z</time></trkpt><trkpt lat="41.1229317" lon="16.5674417"><ele>165.0</ele><time>2026-04-12T09:14:48.634Z</time></trkpt><trkpt lat="41.1230283" lon="16.567265"><ele>165.0</ele><time>2026-04-12T09:14:49.635Z</time></trkpt><trkpt lat="41.1231217" lon="16.56708"><ele>165.0</ele><time>2026-04-12T09:14:50.635Z</time></trkpt><trkpt lat="41.1232083" lon="16.5668933"><ele>165.0</ele><time>2026-04-12T09:14:51.634Z</time></trkpt><trkpt lat="41.12329" lon="16.5667267"><ele>165.0</ele><time>2026-04-12T09:14:52.635Z</time></trkpt><trkpt lat="41.12337" lon="16.5665667"><ele>165.0</ele><time>2026-04-12T09:14:53.633Z</time></trkpt><trkpt lat="41.1234467" lon="16.5664117"><ele>165.0</ele><time>2026-04-12T09:14:54.634Z</time></trkpt><trkpt lat="41.1235183" lon="16.566265"><ele>165.0</ele><time>2026-04-12T09:14:55.634Z</time></trkpt><trkpt lat="41.1235817" lon="16.566125"><ele>165.0</ele><time>2026-04-12T09:14:56.635Z</time></trkpt><trkpt lat="41.12364" lon="16.5659933"><ele>165.0</ele><time>2026-04-12T09:14:57.634Z</time></trkpt><trkpt lat="41.1236933" lon="16.5658717"><ele>165.0</ele><time>2026-04-12T09:14:58.634Z</time></trkpt><trkpt lat="41.12375" lon="16.565735"><ele>165.0</ele><time>2026-04-12T09:14:59.638Z</time></trkpt><trkpt lat="41.1238167" lon="16.5655817"><ele>165.0</ele><time>2026-04-12T09:15:00.636Z</time></trkpt><trkpt lat="41.1238817" lon="16.565435"><ele>165.0</ele><time>2026-04-12T09:15:01.637Z</time></trkpt><trkpt lat="41.12394" lon="16.5653067"><ele>165.0</ele><time>2026-04-12T09:15:02.637Z</time></trkpt><trkpt lat="41.1239917" lon="16.565205"><ele>165.8</ele><time>2026-04-12T09:15:03.635Z</time></trkpt><trkpt lat="41.124035" lon="16.56512"><ele>166.6</ele><time>2026-04-12T09:15:04.635Z</time></trkpt><trkpt lat="41.1240733" lon="16.5650467"><ele>167.39999999999998</ele><time>2026-04-12T09:15:05.636Z</time></trkpt><trkpt lat="41.1241467" lon="16.5649083"><ele>168.2</ele><time>2026-04-12T09:15:07.634Z</time></trkpt><trkpt lat="41.12419" lon="16.5648183"><ele>169.0</ele><time>2026-04-12T09:15:08.635Z</time></trkpt><trkpt lat="41.1243667" lon="16.5644117"><ele>169.66666666666669</ele><time>2026-04-12T09:15:11.635Z</time></trkpt><trkpt lat="41.1244517" lon="16.5642367"><ele>170.33333333333334</ele><time>2026-04-12T09:15:12.634Z</time></trkpt><trkpt lat="41.1245517" lon="16.564055"><ele>171.0</ele><time>2026-04-12T09:15:13.634Z</time></trkpt><trkpt lat="41.12466" lon="16.5638483"><ele>171.66666666666666</ele><time>2026-04-12T09:15:14.635Z</time></trkpt><trkpt lat="41.1247717" lon="16.5636217"><ele>172.33333333333331</ele><time>2026-04-12T09:15:15.634Z</time></trkpt><trkpt lat="41.1248833" lon="16.5633917"><ele>173.0</ele><time>2026-04-12T09:15:16.634Z</time></trkpt><trkpt lat="41.12499" lon="16.56316"><ele>173.33333333333331</ele><time>2026-04-12T09:15:17.635Z</time></trkpt><trkpt lat="41.1251033" lon="16.5629283"><ele>173.66666666666666</ele><time>2026-04-12T09:15:18.633Z</time></trkpt><trkpt lat="41.1252217" lon="16.562685"><ele>174.0</ele><time>2026-04-12T09:15:19.635Z</time></trkpt><trkpt lat="41.12534" lon="16.5624333"><ele>175.0</ele><time>2026-04-12T09:15:20.635Z</time></trkpt><trkpt lat="41.1254633" lon="16.5621733"><ele>176.0</ele><time>2026-04-12T09:15:21.634Z</time></trkpt><trkpt lat="41.1255833" lon="16.5619233"><ele>176.0</ele><time>2026-04-12T09:15:22.634Z</time></trkpt><trkpt lat="41.1256917" lon="16.5616933"><ele>176.0</ele><time>2026-04-12T09:15:23.635Z</time></trkpt><trkpt lat="41.1257917" lon="16.5614833"><ele>176.0</ele><time>2026-04-12T09:15:24.634Z</time></trkpt><trkpt lat="41.1258783" lon="16.561285"><ele>176.75</ele><time>2026-04-12T09:15:25.638Z</time></trkpt><trkpt lat="41.1259583" lon="16.5611167"><ele>177.5</ele><time>2026-04-12T09:15:26.635Z</time></trkpt><trkpt lat="41.1260283" lon="16.5609667"><ele>178.25</ele><time>2026-04-12T09:15:27.635Z</time></trkpt><trkpt lat="41.12609" lon="16.5608383"><ele>179.0</ele><time>2026-04-12T09:15:28.635Z</time></trkpt><trkpt lat="41.1261517" lon="16.5607083"><ele>179.0</ele><time>2026-04-12T09:15:29.634Z</time></trkpt><trkpt lat="41.1262167" lon="16.56057"><ele>179.0</ele><time>2026-04-12T09:15:30.634Z</time></trkpt><trkpt lat="41.1262883" lon="16.5604217"><ele>179.0</ele><time>2026-04-12T09:15:31.733Z</time></trkpt><trkpt lat="41.1263633" lon="16.5602683"><ele>179.0</ele><time>2026-04-12T09:15:32.636Z</time></trkpt><trkpt lat="41.126445" lon="16.5600983"><ele>179.33333333333331</ele><time>2026-04-12T09:15:33.634Z</time></trkpt><trkpt lat="41.1265333" lon="16.5599117"><ele>179.66666666666666</ele><time>2026-04-12T09:15:34.634Z</time></trkpt><trkpt lat="41.1266267" lon="16.55971"><ele>180.0</ele><time>2026-04-12T09:15:35.636Z</time></trkpt><trkpt lat="41.126725" lon="16.559505"><ele>180.33333333333334</ele><time>2026-04-12T09:15:36.635Z</time></trkpt><trkpt lat="41.126825" lon="16.5593017"><ele>180.66666666666669</ele><time>2026-04-12T09:15:37.634Z</time></trkpt><trkpt lat="41.1269267" lon="16.5591017"><ele>181.0</ele><time>2026-04-12T09:15:38.635Z</time></trkpt><trkpt lat="41.1270167" lon="16.558915"><ele>181.0</ele><time>2026-04-12T09:15:39.634Z</time></trkpt><trkpt lat="41.1270983" lon="16.558735"><ele>181.0</ele><time>2026-04-12T09:15:40.634Z</time></trkpt><trkpt lat="41.1271783" lon="16.55856"><ele>181.0</ele><time>2026-04-12T09:15:41.634Z</time></trkpt><trkpt lat="41.127265" lon="16.5583767"><ele>181.0</ele><time>2026-04-12T09:15:42.634Z</time></trkpt><trkpt lat="41.1273517" lon="16.5581883"><ele>181.0</ele><time>2026-04-12T09:15:43.635Z</time></trkpt><trkpt lat="41.1274433" lon="16.5579933"><ele>181.0</ele><time>2026-04-12T09:15:44.635Z</time></trkpt><trkpt lat="41.1275333" lon="16.5578"><ele>181.66666666666669</ele><time>2026-04-12T09:15:45.638Z</time></trkpt><trkpt lat="41.1276183" lon="16.5576217"><ele>182.33333333333334</ele><time>2026-04-12T09:15:46.634Z</time></trkpt><trkpt lat="41.1277" lon="16.5574533"><ele>183.0</ele><time>2026-04-12T09:15:47.634Z</time></trkpt><trkpt lat="41.1277817" lon="16.5572833"><ele>183.0</ele><time>2026-04-12T09:15:48.634Z</time></trkpt><trkpt lat="41.1278633" lon="16.5571133"><ele>183.0</ele><time>2026-04-12T09:15:49.636Z</time></trkpt><trkpt lat="41.1279383" lon="16.556955"><ele>183.0</ele><time>2026-04-12T09:15:50.635Z</time></trkpt><trkpt lat="41.128015" lon="16.5567983"><ele>183.0</ele><time>2026-04-12T09:15:51.634Z</time></trkpt><trkpt lat="41.128085" lon="16.5566367"><ele>182.8</ele><time>2026-04-12T09:15:52.635Z</time></trkpt><trkpt lat="41.1281467" lon="16.5565"><ele>182.60000000000002</ele><time>2026-04-12T09:15:53.635Z</time></trkpt><trkpt lat="41.1281933" lon="16.5563933"><ele>182.39999999999998</ele><time>2026-04-12T09:15:54.636Z</time></trkpt><trkpt lat="41.128235" lon="16.5563083"><ele>182.2</ele><time>2026-04-12T09:15:55.635Z</time></trkpt><trkpt lat="41.1283167" lon="16.5562117"><ele>182.0</ele><time>2026-04-12T09:15:57.634Z</time></trkpt><trkpt lat="41.1284483" lon="16.5562467"><ele>182.0</ele><time>2026-04-12T09:15:59.635Z</time></trkpt><trkpt lat="41.12853" lon="16.5563467"><ele>182.0</ele><time>2026-04-12T09:16:00.634Z</time></trkpt><trkpt lat="41.1286233" lon="16.5564483"><ele>182.0</ele><time>2026-04-12T09:16:01.634Z</time></trkpt><trkpt lat="41.1287417" lon="16.556555"><ele>182.0</ele><time>2026-04-12T09:16:02.635Z</time></trkpt><trkpt lat="41.1290433" lon="16.5567267"><ele>180.66666666666666</ele><time>2026-04-12T09:16:04.634Z</time></trkpt><trkpt lat="41.1291933" lon="16.5567917"><ele>179.33333333333334</ele><time>2026-04-12T09:16:05.635Z</time></trkpt><trkpt lat="41.129335" lon="16.5568433"><ele>178.0</ele><time>2026-04-12T09:16:06.634Z</time></trkpt><trkpt lat="41.1294817" lon="16.5568717"><ele>178.0</ele><time>2026-04-12T09:16:07.635Z</time></trkpt><trkpt lat="41.1296383" lon="16.5568717"><ele>178.0</ele><time>2026-04-12T09:16:08.635Z</time></trkpt><trkpt lat="41.1298083" lon="16.5568483"><ele>178.0</ele><time>2026-04-12T09:16:09.639Z</time></trkpt><trkpt lat="41.1299833" lon="16.556815"><ele>177.66666666666669</ele><time>2026-04-12T09:16:10.635Z</time></trkpt><trkpt lat="41.1301517" lon="16.5567767"><ele>177.33333333333334</ele><time>2026-04-12T09:16:11.634Z</time></trkpt><trkpt lat="41.130305" lon="16.556745"><ele>177.0</ele><time>2026-04-12T09:16:12.634Z</time></trkpt><trkpt lat="41.1304367" lon="16.5567117"><ele>177.0</ele><time>2026-04-12T09:16:13.637Z</time></trkpt><trkpt lat="41.1305483" lon="16.556685"><ele>177.0</ele><time>2026-04-12T09:16:14.635Z</time></trkpt><trkpt lat="41.1306333" lon="16.5566733"><ele>177.0</ele><time>2026-04-12T09:16:15.634Z</time></trkpt><trkpt lat="41.1307017" lon="16.55668"><ele>177.0</ele><time>2026-04-12T09:16:16.636Z</time></trkpt><trkpt lat="41.1308033" lon="16.5567583"><ele>177.0</ele><time>2026-04-12T09:16:18.637Z</time></trkpt><trkpt lat="41.1308483" lon="16.5568367"><ele>177.0</ele><time>2026-04-12T09:16:19.637Z</time></trkpt><trkpt lat="41.1308883" lon="16.55694"><ele>177.0</ele><time>2026-04-12T09:16:20.637Z</time></trkpt><trkpt lat="41.1309183" lon="16.5570833"><ele>177.0</ele><time>2026-04-12T09:16:21.636Z</time></trkpt><trkpt lat="41.1309417" lon="16.5572583"><ele>177.0</ele><time>2026-04-12T09:16:22.638Z</time></trkpt><trkpt lat="41.1309667" lon="16.55746"><ele>177.0</ele><time>2026-04-12T09:16:23.639Z</time></trkpt><trkpt lat="41.1310033" lon="16.55768"><ele>177.0</ele><time>2026-04-12T09:16:24.637Z</time></trkpt><trkpt lat="41.1310567" lon="16.5579167"><ele>177.0</ele><time>2026-04-12T09:16:25.636Z</time></trkpt><trkpt lat="41.1311233" lon="16.55817"><ele>176.0</ele><time>2026-04-12T09:16:26.637Z</time></trkpt><trkpt lat="41.1311983" lon="16.558445"><ele>175.0</ele><time>2026-04-12T09:16:27.636Z</time></trkpt><trkpt lat="41.13128" lon="16.558735"><ele>174.0</ele><time>2026-04-12T09:16:28.636Z</time></trkpt><trkpt lat="41.1313683" lon="16.55904"><ele>173.0</ele><time>2026-04-12T09:16:29.637Z</time></trkpt><trkpt lat="41.1314617" lon="16.5593533"><ele>173.0</ele><time>2026-04-12T09:16:30.636Z</time></trkpt><trkpt lat="41.1315533" lon="16.5596617"><ele>173.0</ele><time>2026-04-12T09:16:31.634Z</time></trkpt><trkpt lat="41.1316433" lon="16.5599417"><ele>173.0</ele><time>2026-04-12T09:16:32.636Z</time></trkpt><trkpt lat="41.1317333" lon="16.5602033"><ele>173.0</ele><time>2026-04-12T09:16:33.634Z</time></trkpt><trkpt lat="41.13182" lon="16.5604483"><ele>173.0</ele><time>2026-04-12T09:16:34.636Z</time></trkpt><trkpt lat="41.1319033" lon="16.5606733"><ele>172.66666666666666</ele><time>2026-04-12T09:16:35.636Z</time></trkpt><trkpt lat="41.1319783" lon="16.5608717"><ele>172.33333333333334</ele><time>2026-04-12T09:16:36.634Z</time></trkpt><trkpt lat="41.1320483" lon="16.5610567"><ele>172.0</ele><time>2026-04-12T09:16:37.634Z</time></trkpt><trkpt lat="41.1321033" lon="16.5612667"><ele>171.33333333333334</ele><time>2026-04-12T09:16:38.635Z</time></trkpt><trkpt lat="41.1321517" lon="16.5615"><ele>170.66666666666666</ele><time>2026-04-12T09:16:39.638Z</time></trkpt><trkpt lat="41.1321983" lon="16.561755"><ele>170.0</ele><time>2026-04-12T09:16:40.635Z</time></trkpt><trkpt lat="41.1322433" lon="16.5620217"><ele>169.33333333333331</ele><time>2026-04-12T09:16:41.635Z</time></trkpt><trkpt lat="41.1322917" lon="16.5623"><ele>168.66666666666666</ele><time>2026-04-12T09:16:42.638Z</time></trkpt><trkpt lat="41.1323417" lon="16.562565"><ele>168.0</ele><time>2026-04-12T09:16:43.635Z</time></trkpt><trkpt lat="41.1323833" lon="16.562795"><ele>167.0</ele><time>2026-04-12T09:16:44.635Z</time></trkpt><trkpt lat="41.1324183" lon="16.563005"><ele>166.0</ele><time>2026-04-12T09:16:45.634Z</time></trkpt><trkpt lat="41.1324533" lon="16.5632083"><ele>165.0</ele><time>2026-04-12T09:16:46.635Z</time></trkpt><trkpt lat="41.1324917" lon="16.56343"><ele>165.0</ele><time>2026-04-12T09:16:47.637Z</time></trkpt><trkpt lat="41.1325483" lon="16.5636667"><ele>165.0</ele><time>2026-04-12T09:16:48.634Z</time></trkpt><trkpt lat="41.132625" lon="16.5639183"><ele>165.0</ele><time>2026-04-12T09:16:49.635Z</time></trkpt><trkpt lat="41.1327283" lon="16.564175"><ele>164.0</ele><time>2026-04-12T09:16:50.636Z</time></trkpt><trkpt lat="41.1328517" lon="16.5644317"><ele>163.0</ele><time>2026-04-12T09:16:51.635Z</time></trkpt><trkpt lat="41.1329783" lon="16.5646783"><ele>162.66666666666669</ele><time>2026-04-12T09:16:52.635Z</time></trkpt><trkpt lat="41.1330967" lon="16.564915"><ele>162.33333333333334</ele><time>2026-04-12T09:16:53.636Z</time></trkpt><trkpt lat="41.1332067" lon="16.5651433"><ele>162.0</ele><time>2026-04-12T09:16:54.634Z</time></trkpt><trkpt lat="41.1333117" lon="16.5653633"><ele>161.0</ele><time>2026-04-12T09:16:55.635Z</time></trkpt><trkpt lat="41.133415" lon="16.5655833"><ele>160.0</ele><time>2026-04-12T09:16:56.635Z</time></trkpt><trkpt lat="41.13351" lon="16.5658"><ele>159.0</ele><time>2026-04-12T09:16:57.634Z</time></trkpt><trkpt lat="41.1335967" lon="16.5660117"><ele>159.0</ele><time>2026-04-12T09:16:58.635Z</time></trkpt><trkpt lat="41.1336767" lon="16.56623"><ele>159.0</ele><time>2026-04-12T09:16:59.635Z</time></trkpt><trkpt lat="41.133755" lon="16.5664567"><ele>159.0</ele><time>2026-04-12T09:17:00.634Z</time></trkpt><trkpt lat="41.133825" lon="16.5666817"><ele>159.0</ele><time>2026-04-12T09:17:01.635Z</time></trkpt><trkpt lat="41.133885" lon="16.566895"><ele>159.0</ele><time>2026-04-12T09:17:02.642Z</time></trkpt><trkpt lat="41.1339367" lon="16.5671017"><ele>159.0</ele><time>2026-04-12T09:17:03.634Z</time></trkpt><trkpt lat="41.1339883" lon="16.5673067"><ele>159.0</ele><time>2026-04-12T09:17:04.635Z</time></trkpt><trkpt lat="41.1340417" lon="16.5675033"><ele>159.0</ele><time>2026-04-12T09:17:05.635Z</time></trkpt><trkpt lat="41.1340967" lon="16.5676983"><ele>159.0</ele><time>2026-04-12T09:17:06.635Z</time></trkpt><trkpt lat="41.13415" lon="16.5679033"><ele>158.33333333333334</ele><time>2026-04-12T09:17:07.635Z</time></trkpt><trkpt lat="41.1342067" lon="16.56812"><ele>157.66666666666669</ele><time>2026-04-12T09:17:08.635Z</time></trkpt><trkpt lat="41.134265" lon="16.5683367"><ele>157.0</ele><time>2026-04-12T09:17:09.634Z</time></trkpt><trkpt lat="41.13432" lon="16.5685417"><ele>156.66666666666669</ele><time>2026-04-12T09:17:10.634Z</time></trkpt><trkpt lat="41.13437" lon="16.56873"><ele>156.33333333333334</ele><time>2026-04-12T09:17:11.637Z</time></trkpt><trkpt lat="41.1344233" lon="16.5689133"><ele>156.0</ele><time>2026-04-12T09:17:12.634Z</time></trkpt><trkpt lat="41.1344883" lon="16.56912"><ele>156.0</ele><time>2026-04-12T09:17:13.637Z</time></trkpt><trkpt lat="41.1345583" lon="16.5693533"><ele>156.0</ele><time>2026-04-12T09:17:14.635Z</time></trkpt><trkpt lat="41.134635" lon="16.5696033"><ele>156.0</ele><time>2026-04-12T09:17:15.634Z</time></trkpt><trkpt lat="41.1347233" lon="16.5698633"><ele>155.0</ele><time>2026-04-12T09:17:16.634Z</time></trkpt><trkpt lat="41.1348267" lon="16.5701283"><ele>154.0</ele><time>2026-04-12T09:17:17.635Z</time></trkpt><trkpt lat="41.1349333" lon="16.570385"><ele>153.0</ele><time>2026-04-12T09:17:18.634Z</time></trkpt><trkpt lat="41.13503" lon="16.57063"><ele>152.66666666666666</ele><time>2026-04-12T09:17:19.635Z</time></trkpt><trkpt lat="41.13511" lon="16.57088"><ele>152.33333333333331</ele><time>2026-04-12T09:17:20.636Z</time></trkpt><trkpt lat="41.13517" lon="16.571155"><ele>152.0</ele><time>2026-04-12T09:17:21.635Z</time></trkpt><trkpt lat="41.1352133" lon="16.5714233"><ele>152.0</ele><time>2026-04-12T09:17:22.635Z</time></trkpt><trkpt lat="41.1352383" lon="16.571685"><ele>152.0</ele><time>2026-04-12T09:17:23.635Z</time></trkpt><trkpt lat="41.1352467" lon="16.5719467"><ele>152.0</ele><time>2026-04-12T09:17:24.635Z</time></trkpt><trkpt lat="41.1352367" lon="16.5722217"><ele>151.33333333333331</ele><time>2026-04-12T09:17:25.634Z</time></trkpt><trkpt lat="41.1352083" lon="16.5725083"><ele>150.66666666666666</ele><time>2026-04-12T09:17:26.636Z</time></trkpt><trkpt lat="41.13518" lon="16.5727967"><ele>150.0</ele><time>2026-04-12T09:17:27.634Z</time></trkpt><trkpt lat="41.13516" lon="16.573075"><ele>150.0</ele><time>2026-04-12T09:17:28.635Z</time></trkpt><trkpt lat="41.1351333" lon="16.5733483"><ele>150.0</ele><time>2026-04-12T09:17:29.635Z</time></trkpt><trkpt lat="41.13509" lon="16.5736183"><ele>150.0</ele><time>2026-04-12T09:17:30.634Z</time></trkpt><trkpt lat="41.1350267" lon="16.5738967"><ele>150.0</ele><time>2026-04-12T09:17:31.635Z</time></trkpt><trkpt lat="41.13496" lon="16.5741733"><ele>150.0</ele><time>2026-04-12T09:17:32.639Z</time></trkpt><trkpt lat="41.1348967" lon="16.5744483"><ele>150.0</ele><time>2026-04-12T09:17:33.634Z</time></trkpt><trkpt lat="41.1348283" lon="16.57474"><ele>148.5</ele><time>2026-04-12T09:17:34.634Z</time></trkpt><trkpt lat="41.134745" lon="16.5750467"><ele>147.0</ele><time>2026-04-12T09:17:35.634Z</time></trkpt><trkpt lat="41.134655" lon="16.5753617"><ele>147.0</ele><time>2026-04-12T09:17:36.636Z</time></trkpt><trkpt lat="41.134555" lon="16.575685"><ele>147.0</ele><time>2026-04-12T09:17:37.636Z</time></trkpt><trkpt lat="41.1344583" lon="16.5760117"><ele>146.0</ele><time>2026-04-12T09:17:38.635Z</time></trkpt><trkpt lat="41.1343683" lon="16.5763317"><ele>145.0</ele><time>2026-04-12T09:17:39.634Z</time></trkpt><trkpt lat="41.1342833" lon="16.5766383"><ele>145.0</ele><time>2026-04-12T09:17:40.636Z</time></trkpt><trkpt lat="41.1341933" lon="16.576945"><ele>145.0</ele><time>2026-04-12T09:17:41.635Z</time></trkpt><trkpt lat="41.1341" lon="16.577265"><ele>144.5</ele><time>2026-04-12T09:17:42.634Z</time></trkpt><trkpt lat="41.1340033" lon="16.5776"><ele>144.0</ele><time>2026-04-12T09:17:43.634Z</time></trkpt><trkpt lat="41.1339083" lon="16.5779517"><ele>144.0</ele><time>2026-04-12T09:17:44.635Z</time></trkpt><trkpt lat="41.1338083" lon="16.5783033"><ele>144.0</ele><time>2026-04-12T09:17:45.636Z</time></trkpt><trkpt lat="41.13371" lon="16.578655"><ele>143.5</ele><time>2026-04-12T09:17:46.634Z</time></trkpt><trkpt lat="41.13361" lon="16.5790117"><ele>143.0</ele><time>2026-04-12T09:17:47.635Z</time></trkpt><trkpt lat="41.1335083" lon="16.5793517"><ele>142.0</ele><time>2026-04-12T09:17:48.636Z</time></trkpt><trkpt lat="41.1334133" lon="16.5796733"><ele>141.0</ele><time>2026-04-12T09:17:49.635Z</time></trkpt><trkpt lat="41.1333217" lon="16.5799833"><ele>141.0</ele><time>2026-04-12T09:17:50.636Z</time></trkpt><trkpt lat="41.133235" lon="16.5802817"><ele>141.0</ele><time>2026-04-12T09:17:51.635Z</time></trkpt><trkpt lat="41.1331533" lon="16.580565"><ele>141.0</ele><time>2026-04-12T09:17:52.637Z</time></trkpt><trkpt lat="41.1330833" lon="16.5808433"><ele>141.0</ele><time>2026-04-12T09:17:53.635Z</time></trkpt><trkpt lat="41.1330217" lon="16.581105"><ele>141.0</ele><time>2026-04-12T09:17:54.635Z</time></trkpt><trkpt lat="41.1329667" lon="16.5813533"><ele>141.0</ele><time>2026-04-12T09:17:55.634Z</time></trkpt><trkpt lat="41.1329317" lon="16.5816083"><ele>141.0</ele><time>2026-04-12T09:17:56.635Z</time></trkpt><trkpt lat="41.13291" lon="16.58187"><ele>141.0</ele><time>2026-04-12T09:17:57.635Z</time></trkpt><trkpt lat="41.1328917" lon="16.5821517"><ele>141.33333333333334</ele><time>2026-04-12T09:17:58.634Z</time></trkpt><trkpt lat="41.1328717" lon="16.582445"><ele>141.66666666666669</ele><time>2026-04-12T09:17:59.634Z</time></trkpt><trkpt lat="41.13285" lon="16.582735"><ele>142.0</ele><time>2026-04-12T09:18:00.635Z</time></trkpt><trkpt lat="41.1328133" lon="16.583025"><ele>141.0</ele><time>2026-04-12T09:18:01.634Z</time></trkpt><trkpt lat="41.13275" lon="16.5833217"><ele>140.0</ele><time>2026-04-12T09:18:02.634Z</time></trkpt><trkpt lat="41.1326667" lon="16.58362"><ele>140.0</ele><time>2026-04-12T09:18:03.634Z</time></trkpt><trkpt lat="41.1325617" lon="16.58392"><ele>140.0</ele><time>2026-04-12T09:18:04.635Z</time></trkpt><trkpt lat="41.1324467" lon="16.5842267"><ele>140.5</ele><time>2026-04-12T09:18:05.637Z</time></trkpt><trkpt lat="41.1323317" lon="16.5845417"><ele>141.0</ele><time>2026-04-12T09:18:06.635Z</time></trkpt><trkpt lat="41.1322133" lon="16.5848633"><ele>141.0</ele><time>2026-04-12T09:18:07.636Z</time></trkpt><trkpt lat="41.1320883" lon="16.5851933"><ele>141.0</ele><time>2026-04-12T09:18:08.635Z</time></trkpt><trkpt lat="41.13195" lon="16.585515"><ele>141.5</ele><time>2026-04-12T09:18:09.635Z</time></trkpt><trkpt lat="41.131815" lon="16.5858133"><ele>142.0</ele><time>2026-04-12T09:18:10.635Z</time></trkpt><trkpt lat="41.13169" lon="16.5860933"><ele>142.66666666666669</ele><time>2026-04-12T09:18:11.634Z</time></trkpt><trkpt lat="41.131575" lon="16.586355"><ele>143.33333333333334</ele><time>2026-04-12T09:18:12.634Z</time></trkpt><trkpt lat="41.13147" lon="16.5866033"><ele>144.0</ele><time>2026-04-12T09:18:13.634Z</time></trkpt><trkpt lat="41.1313767" lon="16.5868417"><ele>144.66666666666666</ele><time>2026-04-12T09:18:14.637Z</time></trkpt><trkpt lat="41.1313017" lon="16.587075"><ele>145.33333333333331</ele><time>2026-04-12T09:18:15.635Z</time></trkpt><trkpt lat="41.1312417" lon="16.5873283"><ele>146.0</ele><time>2026-04-12T09:18:16.634Z</time></trkpt><trkpt lat="41.1312067" lon="16.5876083"><ele>145.5</ele><time>2026-04-12T09:18:17.634Z</time></trkpt><trkpt lat="41.13119" lon="16.5879117"><ele>145.0</ele><time>2026-04-12T09:18:18.634Z</time></trkpt><trkpt lat="41.1311967" lon="16.5882367"><ele>145.0</ele><time>2026-04-12T09:18:19.636Z</time></trkpt><trkpt lat="41.1312117" lon="16.5885733"><ele>145.0</ele><time>2026-04-12T09:18:20.636Z</time></trkpt><trkpt lat="41.1312267" lon="16.5889283"><ele>144.5</ele><time>2026-04-12T09:18:21.634Z</time></trkpt><trkpt lat="41.131245" lon="16.589295"><ele>144.0</ele><time>2026-04-12T09:18:22.636Z</time></trkpt><trkpt lat="41.1312733" lon="16.58967"><ele>144.0</ele><time>2026-04-12T09:18:23.634Z</time></trkpt><trkpt lat="41.1313033" lon="16.5900383"><ele>144.0</ele><time>2026-04-12T09:18:24.635Z</time></trkpt><trkpt lat="41.13133" lon="16.5903817"><ele>144.0</ele><time>2026-04-12T09:18:25.635Z</time></trkpt><trkpt lat="41.1313533" lon="16.5910383"><ele>143.5</ele><time>2026-04-12T09:18:27.634Z</time></trkpt><trkpt lat="41.1313467" lon="16.5913783"><ele>143.0</ele><time>2026-04-12T09:18:28.634Z</time></trkpt><trkpt lat="41.131325" lon="16.591725"><ele>142.0</ele><time>2026-04-12T09:18:29.637Z</time></trkpt><trkpt lat="41.1312867" lon="16.59208"><ele>141.0</ele><time>2026-04-12T09:18:30.635Z</time></trkpt><trkpt lat="41.1312383" lon="16.5924433"><ele>141.0</ele><time>2026-04-12T09:18:31.634Z</time></trkpt><trkpt lat="41.131195" lon="16.5928133"><ele>141.0</ele><time>2026-04-12T09:18:32.634Z</time></trkpt><trkpt lat="41.1311617" lon="16.59318"><ele>141.5</ele><time>2026-04-12T09:18:33.636Z</time></trkpt><trkpt lat="41.13114" lon="16.5935483"><ele>142.0</ele><time>2026-04-12T09:18:34.634Z</time></trkpt><trkpt lat="41.1311283" lon="16.5939283"><ele>142.5</ele><time>2026-04-12T09:18:35.634Z</time></trkpt><trkpt lat="41.13114" lon="16.594315"><ele>143.0</ele><time>2026-04-12T09:18:36.635Z</time></trkpt><trkpt lat="41.1311667" lon="16.5947083"><ele>143.0</ele><time>2026-04-12T09:18:37.636Z</time></trkpt><trkpt lat="41.131195" lon="16.5950933"><ele>143.0</ele><time>2026-04-12T09:18:38.635Z</time></trkpt><trkpt lat="41.1312133" lon="16.59546"><ele>142.0</ele><time>2026-04-12T09:18:39.634Z</time></trkpt><trkpt lat="41.1312217" lon="16.5957983"><ele>141.0</ele><time>2026-04-12T09:18:40.634Z</time></trkpt><trkpt lat="41.1312233" lon="16.5960983"><ele>141.33333333333334</ele><time>2026-04-12T09:18:41.634Z</time></trkpt><trkpt lat="41.1312133" lon="16.59638"><ele>141.66666666666669</ele><time>2026-04-12T09:18:42.634Z</time></trkpt><trkpt lat="41.1311833" lon="16.596655"><ele>142.0</ele><time>2026-04-12T09:18:43.635Z</time></trkpt><trkpt lat="41.1311417" lon="16.596935"><ele>142.5</ele><time>2026-04-12T09:18:44.636Z</time></trkpt><trkpt lat="41.1310783" lon="16.5972317"><ele>143.0</ele><time>2026-04-12T09:18:45.634Z</time></trkpt><trkpt lat="41.1310017" lon="16.5975317"><ele>142.5</ele><time>2026-04-12T09:18:46.634Z</time></trkpt><trkpt lat="41.1309367" lon="16.5978533"><ele>142.0</ele><time>2026-04-12T09:18:47.639Z</time></trkpt><trkpt lat="41.130885" lon="16.59819"><ele>142.0</ele><time>2026-04-12T09:18:48.634Z</time></trkpt><trkpt lat="41.13085" lon="16.5985267"><ele>142.0</ele><time>2026-04-12T09:18:49.635Z</time></trkpt><trkpt lat="41.130825" lon="16.598855"><ele>142.5</ele><time>2026-04-12T09:18:50.635Z</time></trkpt><trkpt lat="41.1307967" lon="16.5991733"><ele>143.0</ele><time>2026-04-12T09:18:51.634Z</time></trkpt><trkpt lat="41.13076" lon="16.59949"><ele>142.5</ele><time>2026-04-12T09:18:52.634Z</time></trkpt><trkpt lat="41.1307267" lon="16.5997983"><ele>142.0</ele><time>2026-04-12T09:18:53.634Z</time></trkpt><trkpt lat="41.1306867" lon="16.60011"><ele>142.0</ele><time>2026-04-12T09:18:54.635Z</time></trkpt><trkpt lat="41.1306367" lon="16.60043"><ele>142.0</ele><time>2026-04-12T09:18:55.637Z</time></trkpt><trkpt lat="41.1305817" lon="16.600735"><ele>142.0</ele><time>2026-04-12T09:18:56.634Z</time></trkpt><trkpt lat="41.130525" lon="16.6010267"><ele>142.0</ele><time>2026-04-12T09:18:57.634Z</time></trkpt><trkpt lat="41.130475" lon="16.6012933"><ele>142.0</ele><time>2026-04-12T09:18:58.636Z</time></trkpt><trkpt lat="41.13043" lon="16.6015467"><ele>142.0</ele><time>2026-04-12T09:18:59.634Z</time></trkpt><trkpt lat="41.1303917" lon="16.60179"><ele>142.0</ele><time>2026-04-12T09:19:00.634Z</time></trkpt><trkpt lat="41.1303533" lon="16.60202"><ele>142.0</ele><time>2026-04-12T09:19:01.634Z</time></trkpt><trkpt lat="41.13031" lon="16.6022517"><ele>141.66666666666669</ele><time>2026-04-12T09:19:02.635Z</time></trkpt><trkpt lat="41.130265" lon="16.6024917"><ele>141.33333333333334</ele><time>2026-04-12T09:19:03.635Z</time></trkpt><trkpt lat="41.1302167" lon="16.6027417"><ele>141.0</ele><time>2026-04-12T09:19:04.635Z</time></trkpt><trkpt lat="41.130165" lon="16.6030017"><ele>141.66666666666666</ele><time>2026-04-12T09:19:05.634Z</time></trkpt><trkpt lat="41.1301083" lon="16.6032733"><ele>142.33333333333331</ele><time>2026-04-12T09:19:06.634Z</time></trkpt><trkpt lat="41.1300417" lon="16.603555"><ele>143.0</ele><time>2026-04-12T09:19:07.634Z</time></trkpt><trkpt lat="41.129965" lon="16.6038433"><ele>143.5</ele><time>2026-04-12T09:19:08.635Z</time></trkpt><trkpt lat="41.1298733" lon="16.6041367"><ele>144.0</ele><time>2026-04-12T09:19:09.635Z</time></trkpt><trkpt lat="41.1297867" lon="16.6044367"><ele>144.5</ele><time>2026-04-12T09:19:10.634Z</time></trkpt><trkpt lat="41.1297133" lon="16.6047533"><ele>145.0</ele><time>2026-04-12T09:19:11.634Z</time></trkpt><trkpt lat="41.12965" lon="16.6050717"><ele>144.66666666666669</ele><time>2026-04-12T09:19:12.635Z</time></trkpt><trkpt lat="41.1295917" lon="16.6053633"><ele>144.33333333333334</ele><time>2026-04-12T09:19:13.634Z</time></trkpt><trkpt lat="41.1295383" lon="16.60563"><ele>144.0</ele><time>2026-04-12T09:19:14.638Z</time></trkpt><trkpt lat="41.1294883" lon="16.60588"><ele>144.0</ele><time>2026-04-12T09:19:15.636Z</time></trkpt><trkpt lat="41.1294367" lon="16.6061283"><ele>144.0</ele><time>2026-04-12T09:19:16.635Z</time></trkpt><trkpt lat="41.129385" lon="16.6063833"><ele>144.0</ele><time>2026-04-12T09:19:17.635Z</time></trkpt><trkpt lat="41.1293333" lon="16.6066383"><ele>143.66666666666666</ele><time>2026-04-12T09:19:18.634Z</time></trkpt><trkpt lat="41.12928" lon="16.6068833"><ele>143.33333333333331</ele><time>2026-04-12T09:19:19.635Z</time></trkpt><trkpt lat="41.1292317" lon="16.6071117"><ele>143.0</ele><time>2026-04-12T09:19:20.634Z</time></trkpt><trkpt lat="41.1291783" lon="16.60734"><ele>142.66666666666666</ele><time>2026-04-12T09:19:21.635Z</time></trkpt><trkpt lat="41.1291217" lon="16.6075683"><ele>142.33333333333334</ele><time>2026-04-12T09:19:22.634Z</time></trkpt><trkpt lat="41.129065" lon="16.6078033"><ele>142.0</ele><time>2026-04-12T09:19:23.637Z</time></trkpt><trkpt lat="41.12901" lon="16.6080517"><ele>142.0</ele><time>2026-04-12T09:19:24.636Z</time></trkpt><trkpt lat="41.1289467" lon="16.6083117"><ele>142.0</ele><time>2026-04-12T09:19:25.636Z</time></trkpt><trkpt lat="41.12887" lon="16.60859"><ele>142.0</ele><time>2026-04-12T09:19:26.636Z</time></trkpt><trkpt lat="41.1287917" lon="16.6088733"><ele>142.0</ele><time>2026-04-12T09:19:27.634Z</time></trkpt><trkpt lat="41.1287233" lon="16.6091583"><ele>142.0</ele><time>2026-04-12T09:19:28.634Z</time></trkpt><trkpt lat="41.1286633" lon="16.609455"><ele>140.5</ele><time>2026-04-12T09:19:29.636Z</time></trkpt><trkpt lat="41.1286133" lon="16.609765"><ele>139.0</ele><time>2026-04-12T09:19:30.635Z</time></trkpt><trkpt lat="41.1285683" lon="16.61008"><ele>138.5</ele><time>2026-04-12T09:19:31.635Z</time></trkpt><trkpt lat="41.1285317" lon="16.6103983"><ele>138.0</ele><time>2026-04-12T09:19:32.634Z</time></trkpt><trkpt lat="41.1284933" lon="16.6107017"><ele>138.0</ele><time>2026-04-12T09:19:33.634Z</time></trkpt><trkpt lat="41.1284583" lon="16.611005"><ele>138.0</ele><time>2026-04-12T09:19:34.636Z</time></trkpt><trkpt lat="41.12843" lon="16.6113017"><ele>138.0</ele><time>2026-04-12T09:19:35.634Z</time></trkpt><trkpt lat="41.1284033" lon="16.6115933"><ele>138.0</ele><time>2026-04-12T09:19:36.634Z</time></trkpt><trkpt lat="41.1283767" lon="16.61187"><ele>138.0</ele><time>2026-04-12T09:19:37.634Z</time></trkpt><trkpt lat="41.1283117" lon="16.6123917"><ele>138.0</ele><time>2026-04-12T09:19:39.634Z</time></trkpt><trkpt lat="41.1282867" lon="16.6126583"><ele>138.0</ele><time>2026-04-12T09:19:40.634Z</time></trkpt><trkpt lat="41.1282667" lon="16.612935"><ele>138.0</ele><time>2026-04-12T09:19:41.634Z</time></trkpt><trkpt lat="41.1282483" lon="16.61322"><ele>138.33333333333334</ele><time>2026-04-12T09:19:42.634Z</time></trkpt><trkpt lat="41.1282283" lon="16.6135067"><ele>138.66666666666669</ele><time>2026-04-12T09:19:43.636Z</time></trkpt><trkpt lat="41.128205" lon="16.6137933"><ele>139.0</ele><time>2026-04-12T09:19:44.635Z</time></trkpt><trkpt lat="41.128185" lon="16.614075"><ele>138.33333333333334</ele><time>2026-04-12T09:19:45.634Z</time></trkpt><trkpt lat="41.1281667" lon="16.614345"><ele>137.66666666666666</ele><time>2026-04-12T09:19:46.635Z</time></trkpt><trkpt lat="41.1281567" lon="16.6146083"><ele>137.0</ele><time>2026-04-12T09:19:47.634Z</time></trkpt><trkpt lat="41.12816" lon="16.6148833"><ele>137.0</ele><time>2026-04-12T09:19:48.639Z</time></trkpt><trkpt lat="41.128185" lon="16.6151783"><ele>137.0</ele><time>2026-04-12T09:19:49.634Z</time></trkpt><trkpt lat="41.1282283" lon="16.6154867"><ele>138.0</ele><time>2026-04-12T09:19:50.635Z</time></trkpt><trkpt lat="41.1282733" lon="16.615795"><ele>139.0</ele><time>2026-04-12T09:19:51.634Z</time></trkpt><trkpt lat="41.1283133" lon="16.6160833"><ele>139.33333333333334</ele><time>2026-04-12T09:19:52.634Z</time></trkpt><trkpt lat="41.1283433" lon="16.616355"><ele>139.66666666666666</ele><time>2026-04-12T09:19:53.634Z</time></trkpt><trkpt lat="41.12837" lon="16.61661"><ele>140.0</ele><time>2026-04-12T09:19:54.634Z</time></trkpt><trkpt lat="41.1284" lon="16.616855"><ele>140.66666666666666</ele><time>2026-04-12T09:19:55.634Z</time></trkpt><trkpt lat="41.12843" lon="16.6170917"><ele>141.33333333333334</ele><time>2026-04-12T09:19:56.636Z</time></trkpt><trkpt lat="41.1284667" lon="16.6173333"><ele>142.0</ele><time>2026-04-12T09:19:57.634Z</time></trkpt><trkpt lat="41.1285183" lon="16.617585"><ele>142.0</ele><time>2026-04-12T09:19:58.634Z</time></trkpt><trkpt lat="41.128585" lon="16.6178467"><ele>142.0</ele><time>2026-04-12T09:19:59.634Z</time></trkpt><trkpt lat="41.1287033" lon="16.618125"><ele>142.0</ele><time>2026-04-12T09:20:00.634Z</time></trkpt><trkpt lat="41.12883" lon="16.6183833"><ele>142.0</ele><time>2026-04-12T09:20:01.636Z</time></trkpt><trkpt lat="41.1289333" lon="16.61862"><ele>142.0</ele><time>2026-04-12T09:20:02.636Z</time></trkpt><trkpt lat="41.129035" lon="16.6188517"><ele>142.0</ele><time>2026-04-12T09:20:03.635Z</time></trkpt><trkpt lat="41.1291267" lon="16.619065"><ele>141.33333333333334</ele><time>2026-04-12T09:20:04.634Z</time></trkpt><trkpt lat="41.1292133" lon="16.619275"><ele>140.66666666666666</ele><time>2026-04-12T09:20:05.635Z</time></trkpt><trkpt lat="41.1293" lon="16.61947"><ele>140.0</ele><time>2026-04-12T09:20:06.634Z</time></trkpt><trkpt lat="41.1293867" lon="16.61965"><ele>140.0</ele><time>2026-04-12T09:20:07.634Z</time></trkpt><trkpt lat="41.1294883" lon="16.6198267"><ele>140.0</ele><time>2026-04-12T09:20:08.635Z</time></trkpt><trkpt lat="41.1296083" lon="16.620005"><ele>140.0</ele><time>2026-04-12T09:20:09.636Z</time></trkpt><trkpt lat="41.129745" lon="16.6201683"><ele>140.0</ele><time>2026-04-12T09:20:10.634Z</time></trkpt><trkpt lat="41.1298917" lon="16.620315"><ele>140.0</ele><time>2026-04-12T09:20:11.635Z</time></trkpt><trkpt lat="41.13006" lon="16.6204333"><ele>140.0</ele><time>2026-04-12T09:20:12.635Z</time></trkpt><trkpt lat="41.1302583" lon="16.6205183"><ele>139.0</ele><time>2026-04-12T09:20:13.636Z</time></trkpt><trkpt lat="41.13048" lon="16.6205867"><ele>138.0</ele><time>2026-04-12T09:20:14.636Z</time></trkpt><trkpt lat="41.1307167" lon="16.620635"><ele>137.5</ele><time>2026-04-12T09:20:15.634Z</time></trkpt><trkpt lat="41.1309683" lon="16.6206833"><ele>137.0</ele><time>2026-04-12T09:20:16.634Z</time></trkpt><trkpt lat="41.1312283" lon="16.6207417"><ele>137.0</ele><time>2026-04-12T09:20:17.635Z</time></trkpt><trkpt lat="41.1314817" lon="16.6208117"><ele>137.0</ele><time>2026-04-12T09:20:18.635Z</time></trkpt><trkpt lat="41.131725" lon="16.6208783"><ele>136.0</ele><time>2026-04-12T09:20:19.635Z</time></trkpt><trkpt lat="41.1319517" lon="16.6209483"><ele>135.0</ele><time>2026-04-12T09:20:20.635Z</time></trkpt><trkpt lat="41.1321733" lon="16.6210217"><ele>133.5</ele><time>2026-04-12T09:20:21.635Z</time></trkpt><trkpt lat="41.132395" lon="16.62109"><ele>132.0</ele><time>2026-04-12T09:20:22.636Z</time></trkpt><trkpt lat="41.132625" lon="16.6211467"><ele>130.5</ele><time>2026-04-12T09:20:23.634Z</time></trkpt><trkpt lat="41.1328567" lon="16.6212"><ele>129.0</ele><time>2026-04-12T09:20:24.635Z</time></trkpt><trkpt lat="41.13308" lon="16.6212583"><ele>128.33333333333334</ele><time>2026-04-12T09:20:25.635Z</time></trkpt><trkpt lat="41.1332933" lon="16.621315"><ele>127.66666666666667</ele><time>2026-04-12T09:20:26.636Z</time></trkpt><trkpt lat="41.1335" lon="16.6213667"><ele>127.0</ele><time>2026-04-12T09:20:27.635Z</time></trkpt><trkpt lat="41.1337033" lon="16.6214133"><ele>127.0</ele><time>2026-04-12T09:20:28.634Z</time></trkpt><trkpt lat="41.1339117" lon="16.6214567"><ele>127.0</ele><time>2026-04-12T09:20:29.635Z</time></trkpt><trkpt lat="41.1341217" lon="16.6214967"><ele>127.0</ele><time>2026-04-12T09:20:30.634Z</time></trkpt><trkpt lat="41.1343267" lon="16.62153"><ele>126.66666666666667</ele><time>2026-04-12T09:20:31.635Z</time></trkpt><trkpt lat="41.134535" lon="16.6215583"><ele>126.33333333333334</ele><time>2026-04-12T09:20:32.636Z</time></trkpt><trkpt lat="41.1347383" lon="16.6215833"><ele>126.0</ele><time>2026-04-12T09:20:33.635Z</time></trkpt><trkpt lat="41.1349333" lon="16.621605"><ele>124.66666666666666</ele><time>2026-04-12T09:20:34.634Z</time></trkpt><trkpt lat="41.1351317" lon="16.6216283"><ele>123.33333333333333</ele><time>2026-04-12T09:20:35.634Z</time></trkpt><trkpt lat="41.1353283" lon="16.6216617"><ele>122.0</ele><time>2026-04-12T09:20:36.634Z</time></trkpt><trkpt lat="41.1355183" lon="16.62171"><ele>122.0</ele><time>2026-04-12T09:20:37.635Z</time></trkpt><trkpt lat="41.1357033" lon="16.6217667"><ele>122.0</ele><time>2026-04-12T09:20:38.634Z</time></trkpt><trkpt lat="41.1358817" lon="16.621825"><ele>122.0</ele><time>2026-04-12T09:20:39.634Z</time></trkpt><trkpt lat="41.1360483" lon="16.62188"><ele>122.0</ele><time>2026-04-12T09:20:40.636Z</time></trkpt><trkpt lat="41.1362117" lon="16.6219367"><ele>122.0</ele><time>2026-04-12T09:20:41.634Z</time></trkpt><trkpt lat="41.1363717" lon="16.622005"><ele>122.0</ele><time>2026-04-12T09:20:42.634Z</time></trkpt><trkpt lat="41.1365317" lon="16.6220683"><ele>122.33333333333333</ele><time>2026-04-12T09:20:43.635Z</time></trkpt><trkpt lat="41.1366833" lon="16.62213"><ele>122.66666666666666</ele><time>2026-04-12T09:20:44.636Z</time></trkpt><trkpt lat="41.1368283" lon="16.6221933"><ele>123.0</ele><time>2026-04-12T09:20:45.634Z</time></trkpt><trkpt lat="41.13697" lon="16.622255"><ele>123.0</ele><time>2026-04-12T09:20:46.637Z</time></trkpt><trkpt lat="41.1371033" lon="16.6223133"><ele>123.0</ele><time>2026-04-12T09:20:47.639Z</time></trkpt><trkpt lat="41.1372283" lon="16.62237"><ele>123.0</ele><time>2026-04-12T09:20:48.634Z</time></trkpt><trkpt lat="41.1373483" lon="16.6224233"><ele>123.0</ele><time>2026-04-12T09:20:49.636Z</time></trkpt><trkpt lat="41.137465" lon="16.622475"><ele>123.25</ele><time>2026-04-12T09:20:50.635Z</time></trkpt><trkpt lat="41.1375817" lon="16.62255"><ele>123.5</ele><time>2026-04-12T09:20:51.636Z</time></trkpt><trkpt lat="41.137695" lon="16.62266"><ele>123.75</ele><time>2026-04-12T09:20:52.634Z</time></trkpt><trkpt lat="41.1378017" lon="16.6228067"><ele>124.0</ele><time>2026-04-12T09:20:53.635Z</time></trkpt><trkpt lat="41.1379133" lon="16.6229783"><ele>123.33333333333334</ele><time>2026-04-12T09:20:54.634Z</time></trkpt><trkpt lat="41.1380333" lon="16.6231683"><ele>122.66666666666666</ele><time>2026-04-12T09:20:55.635Z</time></trkpt><trkpt lat="41.13816" lon="16.6233817"><ele>122.0</ele><time>2026-04-12T09:20:56.635Z</time></trkpt><trkpt lat="41.1382867" lon="16.623615"><ele>121.33333333333333</ele><time>2026-04-12T09:20:57.634Z</time></trkpt><trkpt lat="41.1384067" lon="16.6238567"><ele>120.66666666666666</ele><time>2026-04-12T09:20:58.634Z</time></trkpt><trkpt lat="41.1385217" lon="16.6240967"><ele>120.0</ele><time>2026-04-12T09:20:59.634Z</time></trkpt><trkpt lat="41.1386317" lon="16.62432"><ele>119.33333333333334</ele><time>2026-04-12T09:21:00.636Z</time></trkpt><trkpt lat="41.1387367" lon="16.6245183"><ele>118.66666666666667</ele><time>2026-04-12T09:21:01.634Z</time></trkpt><trkpt lat="41.13884" lon="16.6247017"><ele>118.0</ele><time>2026-04-12T09:21:02.635Z</time></trkpt><trkpt lat="41.138935" lon="16.6248767"><ele>118.0</ele><time>2026-04-12T09:21:03.634Z</time></trkpt><trkpt lat="41.13902" lon="16.6250467"><ele>118.0</ele><time>2026-04-12T09:21:04.634Z</time></trkpt><trkpt lat="41.13911" lon="16.62522"><ele>118.0</ele><time>2026-04-12T09:21:05.635Z</time></trkpt><trkpt lat="41.1392067" lon="16.6253967"><ele>117.66666666666667</ele><time>2026-04-12T09:21:06.635Z</time></trkpt><trkpt lat="41.139305" lon="16.62558"><ele>117.33333333333334</ele><time>2026-04-12T09:21:07.634Z</time></trkpt><trkpt lat="41.1393967" lon="16.62576"><ele>117.0</ele><time>2026-04-12T09:21:08.634Z</time></trkpt><trkpt lat="41.1394833" lon="16.625935"><ele>117.0</ele><time>2026-04-12T09:21:09.634Z</time></trkpt><trkpt lat="41.139575" lon="16.6261117"><ele>117.0</ele><time>2026-04-12T09:21:10.636Z</time></trkpt><trkpt lat="41.1396833" lon="16.6263067"><ele>117.0</ele><time>2026-04-12T09:21:11.637Z</time></trkpt><trkpt lat="41.1398117" lon="16.6265283"><ele>115.0</ele><time>2026-04-12T09:21:12.634Z</time></trkpt><trkpt lat="41.1399483" lon="16.6267717"><ele>113.0</ele><time>2026-04-12T09:21:13.634Z</time></trkpt><trkpt lat="41.14009" lon="16.6270267"><ele>112.5</ele><time>2026-04-12T09:21:14.635Z</time></trkpt><trkpt lat="41.1402317" lon="16.6272983"><ele>112.0</ele><time>2026-04-12T09:21:15.633Z</time></trkpt><trkpt lat="41.14037" lon="16.6275667"><ele>111.0</ele><time>2026-04-12T09:21:16.635Z</time></trkpt><trkpt lat="41.140505" lon="16.62782"><ele>110.0</ele><time>2026-04-12T09:21:17.635Z</time></trkpt><trkpt lat="41.1406383" lon="16.6280567"><ele>110.0</ele><time>2026-04-12T09:21:18.634Z</time></trkpt><trkpt lat="41.1407683" lon="16.6282867"><ele>110.0</ele><time>2026-04-12T09:21:19.634Z</time></trkpt><trkpt lat="41.14089" lon="16.628515"><ele>110.0</ele><time>2026-04-12T09:21:20.634Z</time></trkpt><trkpt lat="41.141005" lon="16.628735"><ele>109.66666666666666</ele><time>2026-04-12T09:21:21.634Z</time></trkpt><trkpt lat="41.1411133" lon="16.62894"><ele>109.33333333333334</ele><time>2026-04-12T09:21:22.634Z</time></trkpt><trkpt lat="41.141215" lon="16.6291217"><ele>109.0</ele><time>2026-04-12T09:21:23.634Z</time></trkpt><trkpt lat="41.1413" lon="16.6292767"><ele>109.00000000000001</ele><time>2026-04-12T09:21:24.634Z</time></trkpt><trkpt lat="41.14137" lon="16.629405"><ele>109.0</ele><time>2026-04-12T09:21:25.634Z</time></trkpt><trkpt lat="41.1414233" lon="16.6295033"><ele>109.0</ele><time>2026-04-12T09:21:26.635Z</time></trkpt><trkpt lat="41.1414633" lon="16.6295767"><ele>109.0</ele><time>2026-04-12T09:21:27.634Z</time></trkpt><trkpt lat="41.1415067" lon="16.6296383"><ele>109.00000000000001</ele><time>2026-04-12T09:21:29.634Z</time></trkpt><trkpt lat="41.14158" lon="16.6297"><ele>109.0</ele><time>2026-04-12T09:21:31.634Z</time></trkpt><trkpt lat="41.1416483" lon="16.62974"><ele>109.0</ele><time>2026-04-12T09:21:32.635Z</time></trkpt><trkpt lat="41.1417433" lon="16.62977"><ele>109.0</ele><time>2026-04-12T09:21:33.634Z</time></trkpt><trkpt lat="41.142035" lon="16.62978"><ele>109.0</ele><time>2026-04-12T09:21:35.638Z</time></trkpt><trkpt lat="41.1422083" lon="16.6297917"><ele>108.0</ele><time>2026-04-12T09:21:36.635Z</time></trkpt><trkpt lat="41.1423967" lon="16.6298133"><ele>107.0</ele><time>2026-04-12T09:21:37.633Z</time></trkpt><trkpt lat="41.1425933" lon="16.6298417"><ele>106.0</ele><time>2026-04-12T09:21:38.722Z</time></trkpt><trkpt lat="41.14279" lon="16.6298767"><ele>106.0</ele><time>2026-04-12T09:21:39.634Z</time></trkpt><trkpt lat="41.1429883" lon="16.629925"><ele>106.0</ele><time>2026-04-12T09:21:40.636Z</time></trkpt><trkpt lat="41.14318" lon="16.6299883"><ele>106.0</ele><time>2026-04-12T09:21:41.634Z</time></trkpt><trkpt lat="41.1433483" lon="16.6300517"><ele>106.0</ele><time>2026-04-12T09:21:42.634Z</time></trkpt><trkpt lat="41.1434967" lon="16.6301033"><ele>106.0</ele><time>2026-04-12T09:21:43.634Z</time></trkpt><trkpt lat="41.14365" lon="16.6301567"><ele>106.0</ele><time>2026-04-12T09:21:44.635Z</time></trkpt><trkpt lat="41.1438217" lon="16.6302117"><ele>106.0</ele><time>2026-04-12T09:21:45.634Z</time></trkpt><trkpt lat="41.1440067" lon="16.6302817"><ele>106.0</ele><time>2026-04-12T09:21:46.634Z</time></trkpt><trkpt lat="41.1441983" lon="16.6303633"><ele>106.0</ele><time>2026-04-12T09:21:47.636Z</time></trkpt><trkpt lat="41.144405" lon="16.6304483"><ele>105.33333333333334</ele><time>2026-04-12T09:21:48.634Z</time></trkpt><trkpt lat="41.144615" lon="16.6305317"><ele>104.66666666666666</ele><time>2026-04-12T09:21:49.635Z</time></trkpt><trkpt lat="41.1448267" lon="16.6306133"><ele>104.0</ele><time>2026-04-12T09:21:50.636Z</time></trkpt><trkpt lat="41.1450417" lon="16.6306917"><ele>103.5</ele><time>2026-04-12T09:21:51.634Z</time></trkpt><trkpt lat="41.1452617" lon="16.6307717"><ele>103.0</ele><time>2026-04-12T09:21:52.637Z</time></trkpt><trkpt lat="41.1454883" lon="16.6308633"><ele>101.0</ele><time>2026-04-12T09:21:53.637Z</time></trkpt><trkpt lat="41.14572" lon="16.63096"><ele>99.0</ele><time>2026-04-12T09:21:54.637Z</time></trkpt><trkpt lat="41.1459517" lon="16.631065"><ele>99.5</ele><time>2026-04-12T09:21:55.636Z</time></trkpt><trkpt lat="41.1461767" lon="16.6311717"><ele>100.0</ele><time>2026-04-12T09:21:56.636Z</time></trkpt><trkpt lat="41.1463883" lon="16.631275"><ele>98.66666666666667</ele><time>2026-04-12T09:21:57.636Z</time></trkpt><trkpt lat="41.1465983" lon="16.6313733"><ele>97.33333333333334</ele><time>2026-04-12T09:21:58.634Z</time></trkpt><trkpt lat="41.1468067" lon="16.63147"><ele>96.0</ele><time>2026-04-12T09:21:59.635Z</time></trkpt><trkpt lat="41.1470167" lon="16.63157"><ele>96.0</ele><time>2026-04-12T09:22:00.633Z</time></trkpt><trkpt lat="41.14723" lon="16.6316767"><ele>96.0</ele><time>2026-04-12T09:22:01.634Z</time></trkpt><trkpt lat="41.1474467" lon="16.6317917"><ele>95.0</ele><time>2026-04-12T09:22:02.636Z</time></trkpt><trkpt lat="41.1476717" lon="16.6319217"><ele>94.0</ele><time>2026-04-12T09:22:03.635Z</time></trkpt><trkpt lat="41.1479033" lon="16.6320667"><ele>94.0</ele><time>2026-04-12T09:22:04.634Z</time></trkpt><trkpt lat="41.1481383" lon="16.6322233"><ele>94.0</ele><time>2026-04-12T09:22:05.635Z</time></trkpt><trkpt lat="41.1483817" lon="16.6323883"><ele>92.5</ele><time>2026-04-12T09:22:06.633Z</time></trkpt><trkpt lat="41.1486267" lon="16.632555"><ele>91.0</ele><time>2026-04-12T09:22:07.634Z</time></trkpt><trkpt lat="41.1488733" lon="16.6327167"><ele>89.5</ele><time>2026-04-12T09:22:08.634Z</time></trkpt><trkpt lat="41.14911" lon="16.6328717"><ele>88.0</ele><time>2026-04-12T09:22:09.634Z</time></trkpt><trkpt lat="41.1493383" lon="16.6330233"><ele>88.0</ele><time>2026-04-12T09:22:10.636Z</time></trkpt><trkpt lat="41.1495583" lon="16.6331717"><ele>88.0</ele><time>2026-04-12T09:22:11.635Z</time></trkpt><trkpt lat="41.14996" lon="16.633445"><ele>87.33333333333333</ele><time>2026-04-12T09:22:13.635Z</time></trkpt><trkpt lat="41.15014" lon="16.6335767"><ele>86.66666666666667</ele><time>2026-04-12T09:22:14.636Z</time></trkpt><trkpt lat="41.1503083" lon="16.6337167"><ele>86.0</ele><time>2026-04-12T09:22:15.637Z</time></trkpt><trkpt lat="41.1504733" lon="16.63389"><ele>85.5</ele><time>2026-04-12T09:22:16.634Z</time></trkpt><trkpt lat="41.15063" lon="16.6341"><ele>85.0</ele><time>2026-04-12T09:22:17.634Z</time></trkpt><trkpt lat="41.1507817" lon="16.634335"><ele>84.5</ele><time>2026-04-12T09:22:18.634Z</time></trkpt><trkpt lat="41.1509283" lon="16.6345733"><ele>84.0</ele><time>2026-04-12T09:22:19.635Z</time></trkpt><trkpt lat="41.1510733" lon="16.6348"><ele>84.0</ele><time>2026-04-12T09:22:20.636Z</time></trkpt><trkpt lat="41.151205" lon="16.6350033"><ele>84.0</ele><time>2026-04-12T09:22:21.634Z</time></trkpt><trkpt lat="41.1513233" lon="16.6351867"><ele>84.0</ele><time>2026-04-12T09:22:22.634Z</time></trkpt><trkpt lat="41.15143" lon="16.6353617"><ele>83.75</ele><time>2026-04-12T09:22:23.635Z</time></trkpt><trkpt lat="41.1515267" lon="16.635525"><ele>83.5</ele><time>2026-04-12T09:22:24.634Z</time></trkpt><trkpt lat="41.1516133" lon="16.63567"><ele>83.25</ele><time>2026-04-12T09:22:25.634Z</time></trkpt><trkpt lat="41.1516967" lon="16.6358067"><ele>83.0</ele><time>2026-04-12T09:22:26.634Z</time></trkpt><trkpt lat="41.1517783" lon="16.6359467"><ele>82.75</ele><time>2026-04-12T09:22:27.634Z</time></trkpt><trkpt lat="41.1518583" lon="16.636085"><ele>82.5</ele><time>2026-04-12T09:22:28.636Z</time></trkpt><trkpt lat="41.15193" lon="16.6362083"><ele>82.25</ele><time>2026-04-12T09:22:29.634Z</time></trkpt><trkpt lat="41.1520017" lon="16.63632"><ele>82.0</ele><time>2026-04-12T09:22:30.634Z</time></trkpt><trkpt lat="41.1520817" lon="16.63644"><ele>81.33333333333333</ele><time>2026-04-12T09:22:31.635Z</time></trkpt><trkpt lat="41.152185" lon="16.6365733"><ele>80.66666666666667</ele><time>2026-04-12T09:22:32.635Z</time></trkpt><trkpt lat="41.15231" lon="16.6367117"><ele>80.0</ele><time>2026-04-12T09:22:33.634Z</time></trkpt><trkpt lat="41.152455" lon="16.6368483"><ele>79.66666666666667</ele><time>2026-04-12T09:22:34.634Z</time></trkpt><trkpt lat="41.1526217" lon="16.63699"><ele>79.33333333333333</ele><time>2026-04-12T09:22:35.634Z</time></trkpt><trkpt lat="41.15281" lon="16.637135"><ele>79.0</ele><time>2026-04-12T09:22:36.634Z</time></trkpt><trkpt lat="41.1530117" lon="16.6372883"><ele>78.0</ele><time>2026-04-12T09:22:37.635Z</time></trkpt><trkpt lat="41.153225" lon="16.6374533"><ele>77.0</ele><time>2026-04-12T09:22:38.634Z</time></trkpt><trkpt lat="41.1534467" lon="16.6376333"><ele>76.0</ele><time>2026-04-12T09:22:39.634Z</time></trkpt><trkpt lat="41.1536783" lon="16.6378167"><ele>75.0</ele><time>2026-04-12T09:22:40.635Z</time></trkpt><trkpt lat="41.1539183" lon="16.6380083"><ele>74.5</ele><time>2026-04-12T09:22:41.633Z</time></trkpt><trkpt lat="41.154165" lon="16.638205"><ele>74.0</ele><time>2026-04-12T09:22:42.634Z</time></trkpt><trkpt lat="41.1544217" lon="16.6384033"><ele>74.0</ele><time>2026-04-12T09:22:43.647Z</time></trkpt><trkpt lat="41.1546767" lon="16.6386017"><ele>74.0</ele><time>2026-04-12T09:22:44.634Z</time></trkpt><trkpt lat="41.1549383" lon="16.638795"><ele>73.5</ele><time>2026-04-12T09:22:45.634Z</time></trkpt><trkpt lat="41.1552083" lon="16.6389783"><ele>73.0</ele><time>2026-04-12T09:22:46.634Z</time></trkpt><trkpt lat="41.1554717" lon="16.639145"><ele>72.5</ele><time>2026-04-12T09:22:47.635Z</time></trkpt><trkpt lat="41.1557117" lon="16.6392967"><ele>72.0</ele><time>2026-04-12T09:22:48.634Z</time></trkpt><trkpt lat="41.1559333" lon="16.6394367"><ele>72.0</ele><time>2026-04-12T09:22:49.637Z</time></trkpt><trkpt lat="41.1561417" lon="16.6395683"><ele>72.0</ele><time>2026-04-12T09:22:50.634Z</time></trkpt><trkpt lat="41.15634" lon="16.6396883"><ele>72.0</ele><time>2026-04-12T09:22:51.634Z</time></trkpt><trkpt lat="41.15654" lon="16.6397933"><ele>71.33333333333333</ele><time>2026-04-12T09:22:52.636Z</time></trkpt><trkpt lat="41.156745" lon="16.6398767"><ele>70.66666666666666</ele><time>2026-04-12T09:22:53.635Z</time></trkpt><trkpt lat="41.15695" lon="16.63994"><ele>70.0</ele><time>2026-04-12T09:22:54.634Z</time></trkpt><trkpt lat="41.1571533" lon="16.6399967"><ele>70.0</ele><time>2026-04-12T09:22:55.634Z</time></trkpt><trkpt lat="41.1573617" lon="16.6400667"><ele>70.0</ele><time>2026-04-12T09:22:56.634Z</time></trkpt><trkpt lat="41.15757" lon="16.6401683"><ele>70.0</ele><time>2026-04-12T09:22:57.634Z</time></trkpt><trkpt lat="41.1577817" lon="16.6402867"><ele>69.66666666666666</ele><time>2026-04-12T09:22:58.637Z</time></trkpt><trkpt lat="41.15798" lon="16.6404083"><ele>69.33333333333333</ele><time>2026-04-12T09:22:59.634Z</time></trkpt><trkpt lat="41.1581617" lon="16.6405217"><ele>69.0</ele><time>2026-04-12T09:23:00.634Z</time></trkpt><trkpt lat="41.15834" lon="16.64063"><ele>69.0</ele><time>2026-04-12T09:23:01.634Z</time></trkpt><trkpt lat="41.1585233" lon="16.6407383"><ele>69.0</ele><time>2026-04-12T09:23:02.635Z</time></trkpt><trkpt lat="41.158715" lon="16.6408633"><ele>69.0</ele><time>2026-04-12T09:23:03.635Z</time></trkpt><trkpt lat="41.1589017" lon="16.64101"><ele>68.0</ele><time>2026-04-12T09:23:04.633Z</time></trkpt><trkpt lat="41.1590717" lon="16.6411667"><ele>67.0</ele><time>2026-04-12T09:23:05.633Z</time></trkpt><trkpt lat="41.1592233" lon="16.641325"><ele>66.0</ele><time>2026-04-12T09:23:06.634Z</time></trkpt><trkpt lat="41.1593617" lon="16.6414717"><ele>66.0</ele><time>2026-04-12T09:23:07.636Z</time></trkpt><trkpt lat="41.159485" lon="16.6416183"><ele>66.0</ele><time>2026-04-12T09:23:08.636Z</time></trkpt><trkpt lat="41.1595833" lon="16.641785"><ele>66.0</ele><time>2026-04-12T09:23:09.634Z</time></trkpt><trkpt lat="41.159655" lon="16.6419583"><ele>66.0</ele><time>2026-04-12T09:23:10.635Z</time></trkpt><trkpt lat="41.15971" lon="16.642125"><ele>66.0</ele><time>2026-04-12T09:23:11.633Z</time></trkpt><trkpt lat="41.1597767" lon="16.642285"><ele>66.0</ele><time>2026-04-12T09:23:12.634Z</time></trkpt><trkpt lat="41.1600183" lon="16.642575"><ele>66.0</ele><time>2026-04-12T09:23:14.634Z</time></trkpt><trkpt lat="41.1601933" lon="16.642715"><ele>66.0</ele><time>2026-04-12T09:23:15.635Z</time></trkpt><trkpt lat="41.160385" lon="16.6428483"><ele>66.0</ele><time>2026-04-12T09:23:16.634Z</time></trkpt><trkpt lat="41.1605833" lon="16.642985"><ele>65.0</ele><time>2026-04-12T09:23:17.634Z</time></trkpt><trkpt lat="41.1607883" lon="16.643135"><ele>64.0</ele><time>2026-04-12T09:23:18.634Z</time></trkpt><trkpt lat="41.1609983" lon="16.6432983"><ele>64.0</ele><time>2026-04-12T09:23:19.634Z</time></trkpt><trkpt lat="41.1612083" lon="16.6434617"><ele>64.0</ele><time>2026-04-12T09:23:20.634Z</time></trkpt><trkpt lat="41.1614083" lon="16.6436167"><ele>63.33333333333333</ele><time>2026-04-12T09:23:21.634Z</time></trkpt><trkpt lat="41.1615967" lon="16.6437717"><ele>62.66666666666667</ele><time>2026-04-12T09:23:22.634Z</time></trkpt><trkpt lat="41.161765" lon="16.643935"><ele>62.0</ele><time>2026-04-12T09:23:23.635Z</time></trkpt><trkpt lat="41.16192" lon="16.6441167"><ele>62.0</ele><time>2026-04-12T09:23:24.634Z</time></trkpt><trkpt lat="41.1620717" lon="16.6443233"><ele>62.0</ele><time>2026-04-12T09:23:25.634Z</time></trkpt><trkpt lat="41.1622167" lon="16.6445617"><ele>62.0</ele><time>2026-04-12T09:23:26.635Z</time></trkpt><trkpt lat="41.1623633" lon="16.6448167"><ele>61.5</ele><time>2026-04-12T09:23:27.634Z</time></trkpt><trkpt lat="41.1625017" lon="16.6450667"><ele>61.0</ele><time>2026-04-12T09:23:28.634Z</time></trkpt><trkpt lat="41.16264" lon="16.6452983"><ele>61.666666666666664</ele><time>2026-04-12T09:23:29.634Z</time></trkpt><trkpt lat="41.162785" lon="16.645525"><ele>62.33333333333333</ele><time>2026-04-12T09:23:30.634Z</time></trkpt><trkpt lat="41.1629383" lon="16.6457417"><ele>63.0</ele><time>2026-04-12T09:23:31.634Z</time></trkpt><trkpt lat="41.1631117" lon="16.6459433"><ele>61.5</ele><time>2026-04-12T09:23:32.634Z</time></trkpt><trkpt lat="41.1633067" lon="16.6461333"><ele>60.0</ele><time>2026-04-12T09:23:33.635Z</time></trkpt><trkpt lat="41.1635267" lon="16.6463083"><ele>60.0</ele><time>2026-04-12T09:23:34.634Z</time></trkpt><trkpt lat="41.16375" lon="16.64648"><ele>60.0</ele><time>2026-04-12T09:23:35.635Z</time></trkpt><trkpt lat="41.16396" lon="16.646645"><ele>59.0</ele><time>2026-04-12T09:23:36.634Z</time></trkpt><trkpt lat="41.1641583" lon="16.6468133"><ele>58.0</ele><time>2026-04-12T09:23:37.635Z</time></trkpt><trkpt lat="41.1643533" lon="16.6470083"><ele>57.0</ele><time>2026-04-12T09:23:38.634Z</time></trkpt><trkpt lat="41.1645467" lon="16.6472333"><ele>56.0</ele><time>2026-04-12T09:23:39.633Z</time></trkpt><trkpt lat="41.1647383" lon="16.647475"><ele>55.0</ele><time>2026-04-12T09:23:40.634Z</time></trkpt><trkpt lat="41.1649333" lon="16.6477217"><ele>54.0</ele><time>2026-04-12T09:23:41.635Z</time></trkpt><trkpt lat="41.1651317" lon="16.6479733"><ele>54.0</ele><time>2026-04-12T09:23:42.633Z</time></trkpt><trkpt lat="41.165325" lon="16.64822"><ele>54.0</ele><time>2026-04-12T09:23:43.637Z</time></trkpt><trkpt lat="41.1655083" lon="16.6484533"><ele>53.5</ele><time>2026-04-12T09:23:44.634Z</time></trkpt><trkpt lat="41.16568" lon="16.648675"><ele>53.0</ele><time>2026-04-12T09:23:45.633Z</time></trkpt><trkpt lat="41.1658367" lon="16.6488883"><ele>53.0</ele><time>2026-04-12T09:23:46.634Z</time></trkpt><trkpt lat="41.165985" lon="16.6491083"><ele>53.0</ele><time>2026-04-12T09:23:47.634Z</time></trkpt><trkpt lat="41.1661233" lon="16.64935"><ele>52.5</ele><time>2026-04-12T09:23:48.634Z</time></trkpt><trkpt lat="41.1662533" lon="16.6496167"><ele>52.0</ele><time>2026-04-12T09:23:49.634Z</time></trkpt><trkpt lat="41.16638" lon="16.6499033"><ele>52.0</ele><time>2026-04-12T09:23:50.635Z</time></trkpt><trkpt lat="41.1665067" lon="16.6501883"><ele>52.0</ele><time>2026-04-12T09:23:51.634Z</time></trkpt><trkpt lat="41.1666283" lon="16.6504617"><ele>51.0</ele><time>2026-04-12T09:23:52.634Z</time></trkpt><trkpt lat="41.1667467" lon="16.65072"><ele>50.0</ele><time>2026-04-12T09:23:53.635Z</time></trkpt><trkpt lat="41.1668667" lon="16.65097"><ele>49.5</ele><time>2026-04-12T09:23:54.635Z</time></trkpt><trkpt lat="41.1669967" lon="16.6512117"><ele>49.0</ele><time>2026-04-12T09:23:55.633Z</time></trkpt><trkpt lat="41.16715" lon="16.6514483"><ele>49.0</ele><time>2026-04-12T09:23:56.636Z</time></trkpt><trkpt lat="41.167325" lon="16.6516833"><ele>49.0</ele><time>2026-04-12T09:23:57.633Z</time></trkpt><trkpt lat="41.167505" lon="16.6519217"><ele>48.5</ele><time>2026-04-12T09:23:58.634Z</time></trkpt><trkpt lat="41.1676717" lon="16.6521567"><ele>48.0</ele><time>2026-04-12T09:23:59.634Z</time></trkpt><trkpt lat="41.16783" lon="16.6523767"><ele>48.0</ele><time>2026-04-12T09:24:00.635Z</time></trkpt><trkpt lat="41.1679833" lon="16.6525817"><ele>48.0</ele><time>2026-04-12T09:24:01.634Z</time></trkpt><trkpt lat="41.16813" lon="16.6527767"><ele>48.0</ele><time>2026-04-12T09:24:02.636Z</time></trkpt><trkpt lat="41.16828" lon="16.652965"><ele>47.666666666666664</ele><time>2026-04-12T09:24:03.633Z</time></trkpt><trkpt lat="41.1684317" lon="16.6531483"><ele>47.33333333333333</ele><time>2026-04-12T09:24:04.634Z</time></trkpt><trkpt lat="41.1685883" lon="16.65332"><ele>47.0</ele><time>2026-04-12T09:24:05.634Z</time></trkpt><trkpt lat="41.1687633" lon="16.653475"><ele>47.0</ele><time>2026-04-12T09:24:06.636Z</time></trkpt><trkpt lat="41.1689633" lon="16.6536217"><ele>47.0</ele><time>2026-04-12T09:24:07.634Z</time></trkpt><trkpt lat="41.169175" lon="16.6537733"><ele>46.5</ele><time>2026-04-12T09:24:08.634Z</time></trkpt><trkpt lat="41.1693883" lon="16.6539317"><ele>46.0</ele><time>2026-04-12T09:24:09.635Z</time></trkpt><trkpt lat="41.169595" lon="16.6540917"><ele>46.0</ele><time>2026-04-12T09:24:10.634Z</time></trkpt><trkpt lat="41.1698" lon="16.6542467"><ele>46.0</ele><time>2026-04-12T09:24:11.634Z</time></trkpt><trkpt lat="41.1700083" lon="16.654385"><ele>45.333333333333336</ele><time>2026-04-12T09:24:12.634Z</time></trkpt><trkpt lat="41.170215" lon="16.6545033"><ele>44.666666666666664</ele><time>2026-04-12T09:24:13.634Z</time></trkpt><trkpt lat="41.1704233" lon="16.6546033"><ele>44.0</ele><time>2026-04-12T09:24:14.634Z</time></trkpt><trkpt lat="41.17063" lon="16.6546867"><ele>44.0</ele><time>2026-04-12T09:24:15.634Z</time></trkpt><trkpt lat="41.1708433" lon="16.654755"><ele>44.0</ele><time>2026-04-12T09:24:16.633Z</time></trkpt><trkpt lat="41.17107" lon="16.6548283"><ele>44.0</ele><time>2026-04-12T09:24:17.636Z</time></trkpt><trkpt lat="41.171305" lon="16.6549117"><ele>44.0</ele><time>2026-04-12T09:24:18.635Z</time></trkpt><trkpt lat="41.171545" lon="16.6549967"><ele>42.5</ele><time>2026-04-12T09:24:19.635Z</time></trkpt><trkpt lat="41.1717867" lon="16.65508"><ele>41.0</ele><time>2026-04-12T09:24:20.635Z</time></trkpt><trkpt lat="41.1720183" lon="16.6551583"><ele>40.0</ele><time>2026-04-12T09:24:21.634Z</time></trkpt><trkpt lat="41.17244" lon="16.6553117"><ele>39.0</ele><time>2026-04-12T09:24:23.635Z</time></trkpt><trkpt lat="41.17262" lon="16.655385"><ele>39.0</ele><time>2026-04-12T09:24:24.636Z</time></trkpt><trkpt lat="41.17278" lon="16.655455"><ele>39.0</ele><time>2026-04-12T09:24:25.634Z</time></trkpt><trkpt lat="41.1729167" lon="16.65553"><ele>39.0</ele><time>2026-04-12T09:24:26.637Z</time></trkpt><trkpt lat="41.1730283" lon="16.6556"><ele>39.0</ele><time>2026-04-12T09:24:27.633Z</time></trkpt><trkpt lat="41.173115" lon="16.65566"><ele>39.0</ele><time>2026-04-12T09:24:28.634Z</time></trkpt><trkpt lat="41.1731867" lon="16.6557083"><ele>39.0</ele><time>2026-04-12T09:24:29.635Z</time></trkpt><trkpt lat="41.1732517" lon="16.6557333"><ele>39.0</ele><time>2026-04-12T09:24:30.633Z</time></trkpt><trkpt lat="41.1733217" lon="16.6557333"><ele>39.0</ele><time>2026-04-12T09:24:31.635Z</time></trkpt><trkpt lat="41.1733967" lon="16.6557183"><ele>39.0</ele><time>2026-04-12T09:24:32.634Z</time></trkpt><trkpt lat="41.17347" lon="16.655715"><ele>39.0</ele><time>2026-04-12T09:24:33.636Z</time></trkpt><trkpt lat="41.1735367" lon="16.6557383"><ele>39.0</ele><time>2026-04-12T09:24:34.635Z</time></trkpt><trkpt lat="41.1736067" lon="16.655785"><ele>38.6</ele><time>2026-04-12T09:24:35.633Z</time></trkpt><trkpt lat="41.1736883" lon="16.6558283"><ele>38.2</ele><time>2026-04-12T09:24:36.635Z</time></trkpt><trkpt lat="41.1737867" lon="16.6558467"><ele>37.800000000000004</ele><time>2026-04-12T09:24:37.634Z</time></trkpt><trkpt lat="41.1739" lon="16.655805"><ele>37.4</ele><time>2026-04-12T09:24:38.634Z</time></trkpt><trkpt lat="41.1740117" lon="16.6557267"><ele>37.0</ele><time>2026-04-12T09:24:39.634Z</time></trkpt><trkpt lat="41.1741167" lon="16.6555983"><ele>36.66666666666667</ele><time>2026-04-12T09:24:40.635Z</time></trkpt><trkpt lat="41.1742217" lon="16.65543"><ele>36.333333333333336</ele><time>2026-04-12T09:24:41.636Z</time></trkpt><trkpt lat="41.1743217" lon="16.6552583"><ele>36.0</ele><time>2026-04-12T09:24:42.635Z</time></trkpt><trkpt lat="41.1744183" lon="16.655105"><ele>36.4</ele><time>2026-04-12T09:24:43.636Z</time></trkpt><trkpt lat="41.1745067" lon="16.65497"><ele>36.8</ele><time>2026-04-12T09:24:44.635Z</time></trkpt><trkpt lat="41.1745867" lon="16.6548683"><ele>37.199999999999996</ele><time>2026-04-12T09:24:45.637Z</time></trkpt><trkpt lat="41.17466" lon="16.6548067"><ele>37.6</ele><time>2026-04-12T09:24:46.633Z</time></trkpt><trkpt lat="41.1747333" lon="16.6547767"><ele>38.0</ele><time>2026-04-12T09:24:47.634Z</time></trkpt><trkpt lat="41.1748167" lon="16.6547633"><ele>37.75</ele><time>2026-04-12T09:24:48.634Z</time></trkpt><trkpt lat="41.1749133" lon="16.6547683"><ele>37.5</ele><time>2026-04-12T09:24:49.634Z</time></trkpt><trkpt lat="41.1750283" lon="16.65481"><ele>37.25</ele><time>2026-04-12T09:24:50.635Z</time></trkpt><trkpt lat="41.175145" lon="16.6548967"><ele>37.0</ele><time>2026-04-12T09:24:51.634Z</time></trkpt><trkpt lat="41.1752583" lon="16.6550233"><ele>37.0</ele><time>2026-04-12T09:24:52.634Z</time></trkpt><trkpt lat="41.1753633" lon="16.6551533"><ele>37.0</ele><time>2026-04-12T09:24:53.634Z</time></trkpt><trkpt lat="41.1754617" lon="16.6552717"><ele>37.0</ele><time>2026-04-12T09:24:54.638Z</time></trkpt><trkpt lat="41.1755633" lon="16.6553633"><ele>37.0</ele><time>2026-04-12T09:24:55.634Z</time></trkpt><trkpt lat="41.1756633" lon="16.65542"><ele>36.6</ele><time>2026-04-12T09:24:56.635Z</time></trkpt><trkpt lat="41.175755" lon="16.6554367"><ele>36.2</ele><time>2026-04-12T09:24:57.634Z</time></trkpt><trkpt lat="41.17585" lon="16.65541"><ele>35.8</ele><time>2026-04-12T09:24:58.634Z</time></trkpt><trkpt lat="41.1759467" lon="16.6553333"><ele>35.4</ele><time>2026-04-12T09:24:59.635Z</time></trkpt><trkpt lat="41.1760417" lon="16.655205"><ele>35.0</ele><time>2026-04-12T09:25:00.633Z</time></trkpt><trkpt lat="41.17614" lon="16.6550283"><ele>34.666666666666664</ele><time>2026-04-12T09:25:01.634Z</time></trkpt><trkpt lat="41.1762383" lon="16.6548283"><ele>34.333333333333336</ele><time>2026-04-12T09:25:02.635Z</time></trkpt><trkpt lat="41.1763517" lon="16.6546133"><ele>34.0</ele><time>2026-04-12T09:25:03.634Z</time></trkpt><trkpt lat="41.176475" lon="16.654385"><ele>33.333333333333336</ele><time>2026-04-12T09:25:04.634Z</time></trkpt><trkpt lat="41.1766017" lon="16.65414"><ele>32.666666666666664</ele><time>2026-04-12T09:25:05.635Z</time></trkpt><trkpt lat="41.17672" lon="16.6538967"><ele>32.0</ele><time>2026-04-12T09:25:06.635Z</time></trkpt><trkpt lat="41.1768333" lon="16.6536617"><ele>32.666666666666664</ele><time>2026-04-12T09:25:07.636Z</time></trkpt><trkpt lat="41.1769433" lon="16.6534333"><ele>33.333333333333336</ele><time>2026-04-12T09:25:08.635Z</time></trkpt><trkpt lat="41.17705" lon="16.6532133"><ele>34.0</ele><time>2026-04-12T09:25:09.635Z</time></trkpt><trkpt lat="41.1772667" lon="16.65277"><ele>33.0</ele><time>2026-04-12T09:25:11.635Z</time></trkpt><trkpt lat="41.1773767" lon="16.6525533"><ele>32.0</ele><time>2026-04-12T09:25:12.634Z</time></trkpt><trkpt lat="41.17748" lon="16.65235"><ele>31.0</ele><time>2026-04-12T09:25:13.634Z</time></trkpt><trkpt lat="41.1775783" lon="16.6521533"><ele>30.666666666666668</ele><time>2026-04-12T09:25:14.634Z</time></trkpt><trkpt lat="41.17768" lon="16.651955"><ele>30.333333333333336</ele><time>2026-04-12T09:25:15.633Z</time></trkpt><trkpt lat="41.1777833" lon="16.6517467"><ele>30.0</ele><time>2026-04-12T09:25:16.634Z</time></trkpt><trkpt lat="41.17789" lon="16.6515283"><ele>30.0</ele><time>2026-04-12T09:25:17.635Z</time></trkpt><trkpt lat="41.178" lon="16.651305"><ele>30.0</ele><time>2026-04-12T09:25:18.634Z</time></trkpt><trkpt lat="41.1781133" lon="16.6510767"><ele>30.0</ele><time>2026-04-12T09:25:19.636Z</time></trkpt><trkpt lat="41.1782233" lon="16.6508583"><ele>30.333333333333336</ele><time>2026-04-12T09:25:20.635Z</time></trkpt><trkpt lat="41.1783283" lon="16.65065"><ele>30.666666666666668</ele><time>2026-04-12T09:25:21.633Z</time></trkpt><trkpt lat="41.1784233" lon="16.6504583"><ele>31.0</ele><time>2026-04-12T09:25:22.634Z</time></trkpt><trkpt lat="41.1785083" lon="16.6502883"><ele>31.5</ele><time>2026-04-12T09:25:23.637Z</time></trkpt><trkpt lat="41.178585" lon="16.650135"><ele>32.0</ele><time>2026-04-12T09:25:24.634Z</time></trkpt><trkpt lat="41.1786633" lon="16.6499783"><ele>32.5</ele><time>2026-04-12T09:25:25.634Z</time></trkpt><trkpt lat="41.1787417" lon="16.6498067"><ele>33.0</ele><time>2026-04-12T09:25:26.634Z</time></trkpt><trkpt lat="41.17883" lon="16.6496133"><ele>33.0</ele><time>2026-04-12T09:25:27.634Z</time></trkpt><trkpt lat="41.178925" lon="16.6494083"><ele>33.0</ele><time>2026-04-12T09:25:28.633Z</time></trkpt><trkpt lat="41.1790167" lon="16.6492117"><ele>33.0</ele><time>2026-04-12T09:25:29.635Z</time></trkpt><trkpt lat="41.1791" lon="16.6490333"><ele>32.5</ele><time>2026-04-12T09:25:30.633Z</time></trkpt><trkpt lat="41.179175" lon="16.6488767"><ele>32.0</ele><time>2026-04-12T09:25:31.633Z</time></trkpt><trkpt lat="41.1792433" lon="16.64873"><ele>31.5</ele><time>2026-04-12T09:25:32.635Z</time></trkpt><trkpt lat="41.1793233" lon="16.6485583"><ele>31.0</ele><time>2026-04-12T09:25:33.633Z</time></trkpt><trkpt lat="41.179415" lon="16.64837"><ele>31.0</ele><time>2026-04-12T09:25:34.635Z</time></trkpt><trkpt lat="41.1795183" lon="16.6481667"><ele>31.0</ele><time>2026-04-12T09:25:35.634Z</time></trkpt><trkpt lat="41.1796233" lon="16.64795"><ele>31.0</ele><time>2026-04-12T09:25:36.634Z</time></trkpt><trkpt lat="41.17972" lon="16.6477333"><ele>30.666666666666668</ele><time>2026-04-12T09:25:37.634Z</time></trkpt><trkpt lat="41.179815" lon="16.647535"><ele>30.333333333333336</ele><time>2026-04-12T09:25:38.634Z</time></trkpt><trkpt lat="41.1798967" lon="16.6473617"><ele>30.0</ele><time>2026-04-12T09:25:39.634Z</time></trkpt><trkpt lat="41.1799633" lon="16.64722"><ele>30.0</ele><time>2026-04-12T09:25:40.634Z</time></trkpt><trkpt lat="41.1800167" lon="16.6471017"><ele>30.0</ele><time>2026-04-12T09:25:41.634Z</time></trkpt><trkpt lat="41.1800633" lon="16.6470033"><ele>30.0</ele><time>2026-04-12T09:25:42.635Z</time></trkpt><trkpt lat="41.1801083" lon="16.6469233"><ele>30.0</ele><time>2026-04-12T09:25:43.637Z</time></trkpt><trkpt lat="41.1801583" lon="16.6468567"><ele>30.0</ele><time>2026-04-12T09:25:44.634Z</time></trkpt><trkpt lat="41.180215" lon="16.6468083"><ele>30.0</ele><time>2026-04-12T09:25:45.633Z</time></trkpt><trkpt lat="41.1803283" lon="16.64678"><ele>30.0</ele><time>2026-04-12T09:25:47.634Z</time></trkpt><trkpt lat="41.1804017" lon="16.6468183"><ele>30.0</ele><time>2026-04-12T09:25:48.633Z</time></trkpt><trkpt lat="41.1805" lon="16.6469283"><ele>30.0</ele><time>2026-04-12T09:25:49.634Z</time></trkpt><trkpt lat="41.18059" lon="16.6470217"><ele>30.0</ele><time>2026-04-12T09:25:50.634Z</time></trkpt><trkpt lat="41.1806883" lon="16.647125"><ele>30.0</ele><time>2026-04-12T09:25:51.639Z</time></trkpt><trkpt lat="41.1808033" lon="16.64722"><ele>29.0</ele><time>2026-04-12T09:25:52.633Z</time></trkpt><trkpt lat="41.18094" lon="16.647305"><ele>28.0</ele><time>2026-04-12T09:25:53.634Z</time></trkpt><trkpt lat="41.181085" lon="16.6473717"><ele>27.0</ele><time>2026-04-12T09:25:54.633Z</time></trkpt><trkpt lat="41.1812417" lon="16.64742"><ele>27.0</ele><time>2026-04-12T09:25:55.634Z</time></trkpt><trkpt lat="41.1814067" lon="16.6474617"><ele>27.0</ele><time>2026-04-12T09:25:56.634Z</time></trkpt><trkpt lat="41.181585" lon="16.6474967"><ele>27.0</ele><time>2026-04-12T09:25:57.634Z</time></trkpt><trkpt lat="41.181775" lon="16.647525"><ele>26.666666666666664</ele><time>2026-04-12T09:25:58.634Z</time></trkpt><trkpt lat="41.18198" lon="16.64755"><ele>26.333333333333332</ele><time>2026-04-12T09:25:59.634Z</time></trkpt><trkpt lat="41.1821967" lon="16.6475767"><ele>26.0</ele><time>2026-04-12T09:26:00.633Z</time></trkpt><trkpt lat="41.1824283" lon="16.64761"><ele>24.5</ele><time>2026-04-12T09:26:01.634Z</time></trkpt><trkpt lat="41.18267" lon="16.6476417"><ele>23.0</ele><time>2026-04-12T09:26:02.634Z</time></trkpt><trkpt lat="41.182925" lon="16.64767"><ele>22.0</ele><time>2026-04-12T09:26:03.634Z</time></trkpt><trkpt lat="41.1831883" lon="16.647695"><ele>21.0</ele><time>2026-04-12T09:26:04.634Z</time></trkpt><trkpt lat="41.1834583" lon="16.6477233"><ele>21.0</ele><time>2026-04-12T09:26:05.634Z</time></trkpt><trkpt lat="41.183735" lon="16.647755"><ele>21.0</ele><time>2026-04-12T09:26:06.635Z</time></trkpt><trkpt lat="41.1840133" lon="16.6477867"><ele>21.0</ele><time>2026-04-12T09:26:07.634Z</time></trkpt><trkpt lat="41.1842767" lon="16.6478183"><ele>21.0</ele><time>2026-04-12T09:26:08.635Z</time></trkpt><trkpt lat="41.1845267" lon="16.6478483"><ele>21.0</ele><time>2026-04-12T09:26:09.633Z</time></trkpt><trkpt lat="41.1847683" lon="16.6478783"><ele>21.0</ele><time>2026-04-12T09:26:10.635Z</time></trkpt><trkpt lat="41.1850167" lon="16.64791"><ele>20.5</ele><time>2026-04-12T09:26:11.635Z</time></trkpt><trkpt lat="41.1852717" lon="16.6479433"><ele>20.0</ele><time>2026-04-12T09:26:12.634Z</time></trkpt><trkpt lat="41.1855367" lon="16.6479783"><ele>18.5</ele><time>2026-04-12T09:26:13.634Z</time></trkpt><trkpt lat="41.18581" lon="16.6480183"><ele>17.0</ele><time>2026-04-12T09:26:14.635Z</time></trkpt><trkpt lat="41.1860917" lon="16.648065"><ele>17.0</ele><time>2026-04-12T09:26:15.635Z</time></trkpt><trkpt lat="41.18638" lon="16.6481133"><ele>17.0</ele><time>2026-04-12T09:26:16.635Z</time></trkpt><trkpt lat="41.1866667" lon="16.6481667"><ele>15.5</ele><time>2026-04-12T09:26:17.634Z</time></trkpt><trkpt lat="41.18694" lon="16.648215"><ele>14.0</ele><time>2026-04-12T09:26:18.635Z</time></trkpt><trkpt lat="41.1872033" lon="16.648255"><ele>13.5</ele><time>2026-04-12T09:26:19.635Z</time></trkpt><trkpt lat="41.1874567" lon="16.64829"><ele>13.0</ele><time>2026-04-12T09:26:20.634Z</time></trkpt><trkpt lat="41.1877033" lon="16.6483217"><ele>13.0</ele><time>2026-04-12T09:26:21.637Z</time></trkpt><trkpt lat="41.187945" lon="16.6483417"><ele>13.0</ele><time>2026-04-12T09:26:22.634Z</time></trkpt><trkpt lat="41.1881867" lon="16.6483517"><ele>11.5</ele><time>2026-04-12T09:26:23.633Z</time></trkpt><trkpt lat="41.1884333" lon="16.64834"><ele>10.0</ele><time>2026-04-12T09:26:24.634Z</time></trkpt><trkpt lat="41.18868" lon="16.64833"><ele>10.0</ele><time>2026-04-12T09:26:25.635Z</time></trkpt><trkpt lat="41.188925" lon="16.6483217"><ele>10.0</ele><time>2026-04-12T09:26:26.634Z</time></trkpt><trkpt lat="41.1891533" lon="16.64832"><ele>9.0</ele><time>2026-04-12T09:26:27.633Z</time></trkpt><trkpt lat="41.1893717" lon="16.648315"><ele>8.0</ele><time>2026-04-12T09:26:28.636Z</time></trkpt><trkpt lat="41.18957" lon="16.64831"><ele>7.0</ele><time>2026-04-12T09:26:29.634Z</time></trkpt><trkpt lat="41.1897417" lon="16.6483033"><ele>6.5</ele><time>2026-04-12T09:26:30.636Z</time></trkpt><trkpt lat="41.1898883" lon="16.6483"><ele>6.0</ele><time>2026-04-12T09:26:31.636Z</time></trkpt><trkpt lat="41.1900183" lon="16.6482967"><ele>5.5</ele><time>2026-04-12T09:26:32.635Z</time></trkpt><trkpt lat="41.1901267" lon="16.6483"><ele>5.0</ele><time>2026-04-12T09:26:33.641Z</time></trkpt><trkpt lat="41.1902133" lon="16.6483167"><ele>5.0</ele><time>2026-04-12T09:26:34.635Z</time></trkpt><trkpt lat="41.190285" lon="16.6483483"><ele>5.0</ele><time>2026-04-12T09:26:35.635Z</time></trkpt><trkpt lat="41.1903483" lon="16.6484"><ele>5.0</ele><time>2026-04-12T09:26:36.633Z</time></trkpt><trkpt lat="41.190405" lon="16.648485"><ele>5.0</ele><time>2026-04-12T09:26:37.633Z</time></trkpt><trkpt lat="41.1904533" lon="16.6485817"><ele>5.0</ele><time>2026-04-12T09:26:38.634Z</time></trkpt><trkpt lat="41.190485" lon="16.648695"><ele>5.0</ele><time>2026-04-12T09:26:39.633Z</time></trkpt><trkpt lat="41.1904933" lon="16.64882"><ele>5.166666666666667</ele><time>2026-04-12T09:26:40.635Z</time></trkpt><trkpt lat="41.190485" lon="16.6489433"><ele>5.333333333333334</ele><time>2026-04-12T09:26:41.634Z</time></trkpt><trkpt lat="41.1904683" lon="16.649055"><ele>5.5</ele><time>2026-04-12T09:26:42.634Z</time></trkpt><trkpt lat="41.190455" lon="16.6491517"><ele>5.666666666666667</ele><time>2026-04-12T09:26:43.634Z</time></trkpt><trkpt lat="41.19044" lon="16.6492567"><ele>5.833333333333333</ele><time>2026-04-12T09:26:44.634Z</time></trkpt><trkpt lat="41.1904233" lon="16.64937"><ele>6.0</ele><time>2026-04-12T09:26:45.633Z</time></trkpt><trkpt lat="41.190405" lon="16.64949"><ele>6.0</ele><time>2026-04-12T09:26:46.634Z</time></trkpt><trkpt lat="41.1903867" lon="16.6496233"><ele>6.0</ele><time>2026-04-12T09:26:47.633Z</time></trkpt><trkpt lat="41.1903683" lon="16.6497633"><ele>6.0</ele><time>2026-04-12T09:26:48.633Z</time></trkpt><trkpt lat="41.1903533" lon="16.64991"><ele>6.0</ele><time>2026-04-12T09:26:49.635Z</time></trkpt><trkpt lat="41.1903333" lon="16.6500467"><ele>6.0</ele><time>2026-04-12T09:26:50.634Z</time></trkpt><trkpt lat="41.1903133" lon="16.6501783"><ele>6.0</ele><time>2026-04-12T09:26:51.634Z</time></trkpt><trkpt lat="41.1902933" lon="16.6503133"><ele>6.0</ele><time>2026-04-12T09:26:52.634Z</time></trkpt><trkpt lat="41.1902767" lon="16.6504583"><ele>6.0</ele><time>2026-04-12T09:26:53.634Z</time></trkpt><trkpt lat="41.19026" lon="16.6506083"><ele>6.0</ele><time>2026-04-12T09:26:54.634Z</time></trkpt><trkpt lat="41.19024" lon="16.6507683"><ele>6.0</ele><time>2026-04-12T09:26:55.635Z</time></trkpt><trkpt lat="41.1902167" lon="16.6509383"><ele>6.0</ele><time>2026-04-12T09:26:56.635Z</time></trkpt><trkpt lat="41.190195" lon="16.6511167"><ele>6.0</ele><time>2026-04-12T09:26:57.633Z</time></trkpt><trkpt lat="41.1901767" lon="16.6512867"><ele>6.0</ele><time>2026-04-12T09:26:58.635Z</time></trkpt><trkpt lat="41.1901567" lon="16.6514417"><ele>6.199999999999999</ele><time>2026-04-12T09:26:59.633Z</time></trkpt><trkpt lat="41.1901367" lon="16.6515867"><ele>6.3999999999999995</ele><time>2026-04-12T09:27:00.634Z</time></trkpt><trkpt lat="41.1901183" lon="16.6517333"><ele>6.6</ele><time>2026-04-12T09:27:01.635Z</time></trkpt><trkpt lat="41.1901033" lon="16.6518767"><ele>6.8</ele><time>2026-04-12T09:27:02.635Z</time></trkpt><trkpt lat="41.190085" lon="16.65202"><ele>7.0</ele><time>2026-04-12T09:27:03.637Z</time></trkpt><trkpt lat="41.1900667" lon="16.6521683"><ele>6.5</ele><time>2026-04-12T09:27:04.633Z</time></trkpt><trkpt lat="41.190045" lon="16.65233"><ele>6.0</ele><time>2026-04-12T09:27:05.636Z</time></trkpt><trkpt lat="41.19002" lon="16.6525117"><ele>5.5</ele><time>2026-04-12T09:27:06.633Z</time></trkpt><trkpt lat="41.1899933" lon="16.6527133"><ele>5.0</ele><time>2026-04-12T09:27:07.634Z</time></trkpt><trkpt lat="41.1899667" lon="16.6529167"><ele>5.0</ele><time>2026-04-12T09:27:08.634Z</time></trkpt><trkpt lat="41.1899417" lon="16.6531217"><ele>5.0</ele><time>2026-04-12T09:27:09.633Z</time></trkpt><trkpt lat="41.1899183" lon="16.65333"><ele>5.0</ele><time>2026-04-12T09:27:10.634Z</time></trkpt><trkpt lat="41.189895" lon="16.653545"><ele>5.0</ele><time>2026-04-12T09:27:11.634Z</time></trkpt><trkpt lat="41.1898667" lon="16.6537483"><ele>5.0</ele><time>2026-04-12T09:27:12.634Z</time></trkpt><trkpt lat="41.1898417" lon="16.653935"><ele>5.0</ele><time>2026-04-12T09:27:13.633Z</time></trkpt><trkpt lat="41.18982" lon="16.6541067"><ele>5.0</ele><time>2026-04-12T09:27:14.634Z</time></trkpt><trkpt lat="41.1898033" lon="16.6542667"><ele>5.8</ele><time>2026-04-12T09:27:15.633Z</time></trkpt><trkpt lat="41.1897867" lon="16.654415"><ele>6.6</ele><time>2026-04-12T09:27:16.634Z</time></trkpt><trkpt lat="41.1897683" lon="16.6545583"><ele>7.4</ele><time>2026-04-12T09:27:17.634Z</time></trkpt><trkpt lat="41.18975" lon="16.6547067"><ele>8.2</ele><time>2026-04-12T09:27:18.634Z</time></trkpt><trkpt lat="41.189735" lon="16.6548567"><ele>9.0</ele><time>2026-04-12T09:27:19.635Z</time></trkpt><trkpt lat="41.18972" lon="16.6550117"><ele>9.0</ele><time>2026-04-12T09:27:20.636Z</time></trkpt><trkpt lat="41.1896983" lon="16.65518"><ele>9.0</ele><time>2026-04-12T09:27:21.634Z</time></trkpt><trkpt lat="41.189675" lon="16.6553583"><ele>9.0</ele><time>2026-04-12T09:27:22.634Z</time></trkpt><trkpt lat="41.1896483" lon="16.655555"><ele>9.0</ele><time>2026-04-12T09:27:23.635Z</time></trkpt><trkpt lat="41.1896167" lon="16.655765"><ele>8.666666666666666</ele><time>2026-04-12T09:27:24.634Z</time></trkpt><trkpt lat="41.1895883" lon="16.65597"><ele>8.333333333333332</ele><time>2026-04-12T09:27:25.634Z</time></trkpt><trkpt lat="41.1895617" lon="16.6561633"><ele>8.0</ele><time>2026-04-12T09:27:26.635Z</time></trkpt><trkpt lat="41.1895333" lon="16.656355"><ele>8.0</ele><time>2026-04-12T09:27:27.633Z</time></trkpt><trkpt lat="41.189505" lon="16.65656"><ele>8.0</ele><time>2026-04-12T09:27:28.634Z</time></trkpt><trkpt lat="41.1894767" lon="16.6567867"><ele>8.0</ele><time>2026-04-12T09:27:29.633Z</time></trkpt><trkpt lat="41.1894483" lon="16.6570283"><ele>8.0</ele><time>2026-04-12T09:27:30.633Z</time></trkpt><trkpt lat="41.1894217" lon="16.6572533"><ele>8.0</ele><time>2026-04-12T09:27:31.634Z</time></trkpt><trkpt lat="41.189395" lon="16.6574633"><ele>8.0</ele><time>2026-04-12T09:27:32.634Z</time></trkpt><trkpt lat="41.1893683" lon="16.65766"><ele>8.4</ele><time>2026-04-12T09:27:33.633Z</time></trkpt><trkpt lat="41.189345" lon="16.6578383"><ele>8.8</ele><time>2026-04-12T09:27:34.635Z</time></trkpt><trkpt lat="41.1893267" lon="16.657995"><ele>9.2</ele><time>2026-04-12T09:27:35.634Z</time></trkpt><trkpt lat="41.1893033" lon="16.6581217"><ele>9.6</ele><time>2026-04-12T09:27:36.634Z</time></trkpt><trkpt lat="41.189265" lon="16.6582217"><ele>10.0</ele><time>2026-04-12T09:27:37.634Z</time></trkpt><trkpt lat="41.18923" lon="16.65831"><ele>10.0</ele><time>2026-04-12T09:27:38.634Z</time></trkpt><trkpt lat="41.189205" lon="16.6584017"><ele>10.0</ele><time>2026-04-12T09:27:39.634Z</time></trkpt><trkpt lat="41.1892083" lon="16.6585017"><ele>10.0</ele><time>2026-04-12T09:27:40.633Z</time></trkpt><trkpt lat="41.1892183" lon="16.658615"><ele>10.0</ele><time>2026-04-12T09:27:41.636Z</time></trkpt><trkpt lat="41.18922" lon="16.6587283"><ele>10.0</ele><time>2026-04-12T09:27:42.633Z</time></trkpt><trkpt lat="41.1892133" lon="16.6588317"><ele>10.0</ele><time>2026-04-12T09:27:43.634Z</time></trkpt><trkpt lat="41.1892033" lon="16.6589233"><ele>10.0</ele><time>2026-04-12T09:27:44.634Z</time></trkpt><trkpt lat="41.1891967" lon="16.6590167"><ele>10.0</ele><time>2026-04-12T09:27:45.635Z</time></trkpt><trkpt lat="41.1891867" lon="16.65913"><ele>10.0</ele><time>2026-04-12T09:27:46.633Z</time></trkpt><trkpt lat="41.1891733" lon="16.6592633"><ele>10.0</ele><time>2026-04-12T09:27:47.634Z</time></trkpt><trkpt lat="41.1891567" lon="16.6593983"><ele>10.0</ele><time>2026-04-12T09:27:48.633Z</time></trkpt><trkpt lat="41.1891383" lon="16.6595267"><ele>10.0</ele><time>2026-04-12T09:27:49.635Z</time></trkpt><trkpt lat="41.1891217" lon="16.6596533"><ele>10.0</ele><time>2026-04-12T09:27:50.635Z</time></trkpt><trkpt lat="41.189105" lon="16.6597733"><ele>10.0</ele><time>2026-04-12T09:27:51.633Z</time></trkpt><trkpt lat="41.1890917" lon="16.659885"><ele>10.0</ele><time>2026-04-12T09:27:52.635Z</time></trkpt><trkpt lat="41.1890817" lon="16.6599867"><ele>10.0</ele><time>2026-04-12T09:27:53.634Z</time></trkpt><trkpt lat="41.1890683" lon="16.660085"><ele>10.0</ele><time>2026-04-12T09:27:54.634Z</time></trkpt><trkpt lat="41.189055" lon="16.66019"><ele>10.285714285714285</ele><time>2026-04-12T09:27:55.634Z</time></trkpt><trkpt lat="41.1890433" lon="16.6602983"><ele>10.571428571428571</ele><time>2026-04-12T09:27:56.634Z</time></trkpt><trkpt lat="41.18903" lon="16.6604017"><ele>10.857142857142858</ele><time>2026-04-12T09:27:57.633Z</time></trkpt><trkpt lat="41.1890183" lon="16.6605"><ele>11.142857142857142</ele><time>2026-04-12T09:27:58.634Z</time></trkpt><trkpt lat="41.1890067" lon="16.6605983"><ele>11.428571428571429</ele><time>2026-04-12T09:27:59.633Z</time></trkpt><trkpt lat="41.1889967" lon="16.6606917"><ele>11.714285714285714</ele><time>2026-04-12T09:28:00.633Z</time></trkpt><trkpt lat="41.188985" lon="16.66078"><ele>12.0</ele><time>2026-04-12T09:28:01.634Z</time></trkpt><trkpt lat="41.1889733" lon="16.660875"><ele>12.0</ele><time>2026-04-12T09:28:02.634Z</time></trkpt><trkpt lat="41.1889633" lon="16.6609717"><ele>12.0</ele><time>2026-04-12T09:28:03.635Z</time></trkpt><trkpt lat="41.1889533" lon="16.6610567"><ele>12.0</ele><time>2026-04-12T09:28:04.633Z</time></trkpt><trkpt lat="41.1889217" lon="16.6612067"><ele>12.0</ele><time>2026-04-12T09:28:06.634Z</time></trkpt><trkpt lat="41.18887" lon="16.6613333"><ele>12.0</ele><time>2026-04-12T09:28:08.634Z</time></trkpt><trkpt lat="41.18882" lon="16.661455"><ele>12.0</ele><time>2026-04-12T09:28:10.634Z</time></trkpt><trkpt lat="41.1888033" lon="16.6616017"><ele>12.0</ele><time>2026-04-12T09:28:12.634Z</time></trkpt><trkpt lat="41.1888283" lon="16.661745"><ele>12.0</ele><time>2026-04-12T09:28:14.634Z</time></trkpt><trkpt lat="41.188835" lon="16.6618933"><ele>12.0</ele><time>2026-04-12T09:28:16.633Z</time></trkpt><trkpt lat="41.1888317" lon="16.66198"><ele>12.0</ele><time>2026-04-12T09:28:17.634Z</time></trkpt><trkpt lat="41.1888217" lon="16.6620883"><ele>11.8</ele><time>2026-04-12T09:28:18.634Z</time></trkpt><trkpt lat="41.1888117" lon="16.6622"><ele>11.6</ele><time>2026-04-12T09:28:19.637Z</time></trkpt><trkpt lat="41.1888" lon="16.66232"><ele>11.4</ele><time>2026-04-12T09:28:20.635Z</time></trkpt><trkpt lat="41.1887867" lon="16.6624683"><ele>11.200000000000001</ele><time>2026-04-12T09:28:21.633Z</time></trkpt><trkpt lat="41.18877" lon="16.66265"><ele>11.0</ele><time>2026-04-12T09:28:22.635Z</time></trkpt><trkpt lat="41.188745" lon="16.6628533"><ele>10.666666666666666</ele><time>2026-04-12T09:28:23.634Z</time></trkpt><trkpt lat="41.1887217" lon="16.6630517"><ele>10.333333333333334</ele><time>2026-04-12T09:28:24.634Z</time></trkpt><trkpt lat="41.188695" lon="16.663255"><ele>10.0</ele><time>2026-04-12T09:28:25.634Z</time></trkpt><trkpt lat="41.1886667" lon="16.6634733"><ele>10.333333333333334</ele><time>2026-04-12T09:28:26.635Z</time></trkpt><trkpt lat="41.1886367" lon="16.6636933"><ele>10.666666666666666</ele><time>2026-04-12T09:28:27.634Z</time></trkpt><trkpt lat="41.1886067" lon="16.6638983"><ele>11.0</ele><time>2026-04-12T09:28:28.634Z</time></trkpt><trkpt lat="41.1885817" lon="16.6640867"><ele>11.0</ele><time>2026-04-12T09:28:29.634Z</time></trkpt><trkpt lat="41.18856" lon="16.66426"><ele>11.0</ele><time>2026-04-12T09:28:30.633Z</time></trkpt><trkpt lat="41.18854" lon="16.6644217"><ele>11.0</ele><time>2026-04-12T09:28:31.633Z</time></trkpt><trkpt lat="41.1885217" lon="16.664575"><ele>11.0</ele><time>2026-04-12T09:28:32.634Z</time></trkpt><trkpt lat="41.188505" lon="16.6647183"><ele>11.333333333333332</ele><time>2026-04-12T09:28:33.634Z</time></trkpt><trkpt lat="41.1884867" lon="16.66485"><ele>11.666666666666666</ele><time>2026-04-12T09:28:34.634Z</time></trkpt><trkpt lat="41.1884733" lon="16.6649717"><ele>12.0</ele><time>2026-04-12T09:28:35.634Z</time></trkpt><trkpt lat="41.18846" lon="16.6650867"><ele>12.333333333333332</ele><time>2026-04-12T09:28:36.633Z</time></trkpt><trkpt lat="41.1884483" lon="16.6651933"><ele>12.666666666666666</ele><time>2026-04-12T09:28:37.633Z</time></trkpt><trkpt lat="41.1884367" lon="16.6652917"><ele>13.0</ele><time>2026-04-12T09:28:38.635Z</time></trkpt><trkpt lat="41.1884267" lon="16.665385"><ele>13.666666666666666</ele><time>2026-04-12T09:28:39.635Z</time></trkpt><trkpt lat="41.1884167" lon="16.6654733"><ele>14.333333333333332</ele><time>2026-04-12T09:28:40.633Z</time></trkpt><trkpt lat="41.188395" lon="16.6656083"><ele>15.0</ele><time>2026-04-12T09:28:42.633Z</time></trkpt><trkpt lat="41.18839" lon="16.6656917"><ele>15.666666666666668</ele><time>2026-04-12T09:29:11.633Z</time></trkpt><trkpt lat="41.188365" lon="16.6658133"><ele>16.333333333333336</ele><time>2026-04-12T09:29:13.634Z</time></trkpt><trkpt lat="41.1883533" lon="16.6659367"><ele>17.0</ele><time>2026-04-12T09:29:14.634Z</time></trkpt><trkpt lat="41.1883417" lon="16.6660717"><ele>16.75</ele><time>2026-04-12T09:29:15.634Z</time></trkpt><trkpt lat="41.1883267" lon="16.6662333"><ele>16.5</ele><time>2026-04-12T09:29:16.634Z</time></trkpt><trkpt lat="41.1883083" lon="16.666395"><ele>16.25</ele><time>2026-04-12T09:29:17.635Z</time></trkpt><trkpt lat="41.1882883" lon="16.6665583"><ele>16.0</ele><time>2026-04-12T09:29:18.633Z</time></trkpt><trkpt lat="41.1882583" lon="16.6667167"><ele>16.0</ele><time>2026-04-12T09:29:19.635Z</time></trkpt><trkpt lat="41.1882333" lon="16.6668633"><ele>16.0</ele><time>2026-04-12T09:29:20.634Z</time></trkpt><trkpt lat="41.1882133" lon="16.6670183"><ele>16.0</ele><time>2026-04-12T09:29:21.739Z</time></trkpt><trkpt lat="41.1881617" lon="16.6673767"><ele>16.25</ele><time>2026-04-12T09:29:23.637Z</time></trkpt><trkpt lat="41.1881483" lon="16.6675483"><ele>16.5</ele><time>2026-04-12T09:29:24.633Z</time></trkpt><trkpt lat="41.1881317" lon="16.667705"><ele>16.75</ele><time>2026-04-12T09:29:25.634Z</time></trkpt><trkpt lat="41.18812" lon="16.6678467"><ele>17.0</ele><time>2026-04-12T09:29:26.635Z</time></trkpt><trkpt lat="41.1881067" lon="16.667985"><ele>16.6</ele><time>2026-04-12T09:29:27.634Z</time></trkpt><trkpt lat="41.1880917" lon="16.6681267"><ele>16.2</ele><time>2026-04-12T09:29:28.633Z</time></trkpt><trkpt lat="41.1880767" lon="16.6682567"><ele>15.8</ele><time>2026-04-12T09:29:29.634Z</time></trkpt><trkpt lat="41.18806" lon="16.6683667"><ele>15.4</ele><time>2026-04-12T09:29:30.634Z</time></trkpt><trkpt lat="41.1880433" lon="16.66847"><ele>15.0</ele><time>2026-04-12T09:29:31.638Z</time></trkpt><trkpt lat="41.18803" lon="16.6685767"><ele>14.833333333333334</ele><time>2026-04-12T09:29:32.639Z</time></trkpt><trkpt lat="41.1880167" lon="16.6686817"><ele>14.666666666666668</ele><time>2026-04-12T09:29:33.636Z</time></trkpt><trkpt lat="41.188005" lon="16.668785"><ele>14.5</ele><time>2026-04-12T09:29:34.636Z</time></trkpt><trkpt lat="41.1879917" lon="16.6688783"><ele>14.333333333333334</ele><time>2026-04-12T09:29:35.638Z</time></trkpt><trkpt lat="41.18798" lon="16.6689733"><ele>14.166666666666668</ele><time>2026-04-12T09:29:36.636Z</time></trkpt><trkpt lat="41.187965" lon="16.6690733"><ele>14.0</ele><time>2026-04-12T09:29:37.637Z</time></trkpt><trkpt lat="41.1879483" lon="16.6691833"><ele>14.0</ele><time>2026-04-12T09:29:38.636Z</time></trkpt><trkpt lat="41.1879333" lon="16.6692883"><ele>13.999999999999998</ele><time>2026-04-12T09:29:39.634Z</time></trkpt><trkpt lat="41.1879217" lon="16.6693833"><ele>13.999999999999998</ele><time>2026-04-12T09:29:40.636Z</time></trkpt><trkpt lat="41.1879117" lon="16.6694683"><ele>14.0</ele><time>2026-04-12T09:29:41.635Z</time></trkpt><trkpt lat="41.1878983" lon="16.66962"><ele>14.0</ele><time>2026-04-12T09:29:43.637Z</time></trkpt><trkpt lat="41.1878767" lon="16.6697767"><ele>13.500000000000002</ele><time>2026-04-12T09:29:45.634Z</time></trkpt><trkpt lat="41.187865" lon="16.669865"><ele>13.0</ele><time>2026-04-12T09:29:46.638Z</time></trkpt><trkpt lat="41.1878483" lon="16.66995"><ele>12.5</ele><time>2026-04-12T09:29:47.637Z</time></trkpt><trkpt lat="41.187805" lon="16.670105"><ele>12.0</ele><time>2026-04-12T09:29:49.639Z</time></trkpt><trkpt lat="41.1877733" lon="16.6701817"><ele>11.5</ele><time>2026-04-12T09:29:50.637Z</time></trkpt><trkpt lat="41.1877367" lon="16.6702517"><ele>11.0</ele><time>2026-04-12T09:29:51.641Z</time></trkpt><trkpt lat="41.1876983" lon="16.6703183"><ele>10.666666666666666</ele><time>2026-04-12T09:29:52.637Z</time></trkpt><trkpt lat="41.1876283" lon="16.670445"><ele>10.333333333333332</ele><time>2026-04-12T09:29:54.635Z</time></trkpt><trkpt lat="41.1875833" lon="16.67057"><ele>10.0</ele><time>2026-04-12T09:29:56.636Z</time></trkpt><trkpt lat="41.1875483" lon="16.6706533"><ele>9.666666666666666</ele><time>2026-04-12T09:29:58.635Z</time></trkpt><trkpt lat="41.18752" lon="16.6707317"><ele>9.333333333333334</ele><time>2026-04-12T09:30:00.635Z</time></trkpt><trkpt lat="41.18749" lon="16.67084"><ele>9.0</ele><time>2026-04-12T09:30:02.636Z</time></trkpt><trkpt lat="41.1874383" lon="16.6709517"><ele>9.0</ele><time>2026-04-12T09:30:04.635Z</time></trkpt><trkpt lat="41.18741" lon="16.6710767"><ele>9.0</ele><time>2026-04-12T09:30:06.635Z</time></trkpt><trkpt lat="41.187395" lon="16.671195"><ele>9.0</ele><time>2026-04-12T09:30:08.635Z</time></trkpt><trkpt lat="41.1873833" lon="16.6713217"><ele>9.0</ele><time>2026-04-12T09:30:10.637Z</time></trkpt><trkpt lat="41.1873767" lon="16.6714917"><ele>9.0</ele><time>2026-04-12T09:30:12.635Z</time></trkpt><trkpt lat="41.187365" lon="16.671645"><ele>9.0</ele><time>2026-04-12T09:30:14.638Z</time></trkpt><trkpt lat="41.1873483" lon="16.671775"><ele>9.0</ele><time>2026-04-12T09:30:16.635Z</time></trkpt><trkpt lat="41.1873383" lon="16.6718933"><ele>9.0</ele><time>2026-04-12T09:30:18.634Z</time></trkpt><trkpt lat="41.187325" lon="16.6719817"><ele>9.0</ele><time>2026-04-12T09:30:20.636Z</time></trkpt><trkpt lat="41.1873183" lon="16.6721167"><ele>9.0</ele><time>2026-04-12T09:30:29.635Z</time></trkpt><trkpt lat="41.1873033" lon="16.6722317"><ele>9.0</ele><time>2026-04-12T09:30:31.637Z</time></trkpt><trkpt lat="41.18729" lon="16.6723267"><ele>9.166666666666666</ele><time>2026-04-12T09:30:33.635Z</time></trkpt><trkpt lat="41.1872683" lon="16.67246"><ele>9.333333333333334</ele><time>2026-04-12T09:30:42.635Z</time></trkpt><trkpt lat="41.18726" lon="16.6725483"><ele>9.5</ele><time>2026-04-12T09:30:44.635Z</time></trkpt><trkpt lat="41.187245" lon="16.6726783"><ele>9.666666666666668</ele><time>2026-04-12T09:30:47.634Z</time></trkpt><trkpt lat="41.1872333" lon="16.672785"><ele>9.833333333333334</ele><time>2026-04-12T09:30:49.635Z</time></trkpt><trkpt lat="41.1872083" lon="16.6729133"><ele>10.0</ele><time>2026-04-12T09:30:51.636Z</time></trkpt><trkpt lat="41.1871717" lon="16.6730333"><ele>10.4</ele><time>2026-04-12T09:30:53.636Z</time></trkpt><trkpt lat="41.1871283" lon="16.6731867"><ele>10.8</ele><time>2026-04-12T09:30:55.634Z</time></trkpt><trkpt lat="41.18707" lon="16.6733183"><ele>11.2</ele><time>2026-04-12T09:30:57.634Z</time></trkpt><trkpt lat="41.1869933" lon="16.6734217"><ele>11.6</ele><time>2026-04-12T09:30:59.635Z</time></trkpt><trkpt lat="41.1869233" lon="16.6734867"><ele>12.0</ele><time>2026-04-12T09:31:01.635Z</time></trkpt><trkpt lat="41.18685" lon="16.67351"><ele>12.0</ele><time>2026-04-12T09:31:03.635Z</time></trkpt><trkpt lat="41.1867567" lon="16.6735033"><ele>12.0</ele><time>2026-04-12T09:31:05.635Z</time></trkpt><trkpt lat="41.186645" lon="16.6734783"><ele>12.0</ele><time>2026-04-12T09:31:07.636Z</time></trkpt><trkpt lat="41.1865317" lon="16.673465"><ele>12.0</ele><time>2026-04-12T09:31:09.637Z</time></trkpt><trkpt lat="41.1864683" lon="16.6734567"><ele>12.0</ele><time>2026-04-12T09:31:10.634Z</time></trkpt><trkpt lat="41.186355" lon="16.673445"><ele>12.0</ele><time>2026-04-12T09:31:12.636Z</time></trkpt><trkpt lat="41.186225" lon="16.6734367"><ele>12.0</ele><time>2026-04-12T09:31:14.637Z</time></trkpt><trkpt lat="41.1861617" lon="16.6734317"><ele>12.0</ele><time>2026-04-12T09:31:15.634Z</time></trkpt><trkpt lat="41.1860483" lon="16.6734267"><ele>12.0</ele><time>2026-04-12T09:31:17.635Z</time></trkpt><trkpt lat="41.1859567" lon="16.67343"><ele>12.0</ele><time>2026-04-12T09:31:19.635Z</time></trkpt><trkpt lat="41.185865" lon="16.67344"><ele>12.0</ele><time>2026-04-12T09:31:21.634Z</time></trkpt><trkpt lat="41.185755" lon="16.6734867"><ele>12.0</ele><time>2026-04-12T09:31:23.634Z</time></trkpt><trkpt lat="41.1856383" lon="16.673515"><ele>12.0</ele><time>2026-04-12T09:31:25.634Z</time></trkpt><trkpt lat="41.18553" lon="16.6735483"><ele>12.0</ele><time>2026-04-12T09:31:27.634Z</time></trkpt><trkpt lat="41.1854283" lon="16.6735817"><ele>12.8</ele><time>2026-04-12T09:31:29.635Z</time></trkpt><trkpt lat="41.1853183" lon="16.67361"><ele>13.6</ele><time>2026-04-12T09:31:31.634Z</time></trkpt><trkpt lat="41.1852117" lon="16.6736317"><ele>14.400000000000002</ele><time>2026-04-12T09:31:33.633Z</time></trkpt><trkpt lat="41.1851167" lon="16.6736383"><ele>15.200000000000001</ele><time>2026-04-12T09:31:35.636Z</time></trkpt><trkpt lat="41.185015" lon="16.67365"><ele>16.0</ele><time>2026-04-12T09:31:37.635Z</time></trkpt><trkpt lat="41.1848983" lon="16.6736767"><ele>16.333333333333332</ele><time>2026-04-12T09:31:39.633Z</time></trkpt><trkpt lat="41.1848333" lon="16.67369"><ele>16.666666666666664</ele><time>2026-04-12T09:31:40.636Z</time></trkpt><trkpt lat="41.184715" lon="16.673725"><ele>17.0</ele><time>2026-04-12T09:31:42.634Z</time></trkpt><trkpt lat="41.184595" lon="16.6737733"><ele>17.333333333333332</ele><time>2026-04-12T09:31:44.635Z</time></trkpt><trkpt lat="41.18453" lon="16.6737933"><ele>17.666666666666668</ele><time>2026-04-12T09:31:45.633Z</time></trkpt><trkpt lat="41.1844617" lon="16.673805"><ele>18.0</ele><time>2026-04-12T09:31:46.634Z</time></trkpt><trkpt lat="41.18435" lon="16.6738183"><ele>18.0</ele><time>2026-04-12T09:31:48.634Z</time></trkpt><trkpt lat="41.18426" lon="16.6738433"><ele>18.0</ele><time>2026-04-12T09:31:50.635Z</time></trkpt><trkpt lat="41.18417" lon="16.6738683"><ele>18.0</ele><time>2026-04-12T09:31:52.636Z</time></trkpt><trkpt lat="41.184085" lon="16.6739"><ele>18.0</ele><time>2026-04-12T09:31:54.633Z</time></trkpt><trkpt lat="41.184" lon="16.6739217"><ele>18.0</ele><time>2026-04-12T09:31:56.635Z</time></trkpt><trkpt lat="41.1839267" lon="16.6739333"><ele>18.0</ele><time>2026-04-12T09:31:58.634Z</time></trkpt><trkpt lat="41.183845" lon="16.67394"><ele>18.0</ele><time>2026-04-12T09:32:01.635Z</time></trkpt><trkpt lat="41.1837517" lon="16.6739667"><ele>18.0</ele><time>2026-04-12T09:32:03.633Z</time></trkpt><trkpt lat="41.1836783" lon="16.6739733"><ele>18.0</ele><time>2026-04-12T09:32:04.635Z</time></trkpt><trkpt lat="41.1836033" lon="16.6739767"><ele>18.0</ele><time>2026-04-12T09:32:05.635Z</time></trkpt><trkpt lat="41.1835283" lon="16.6739783"><ele>18.0</ele><time>2026-04-12T09:32:06.633Z</time></trkpt><trkpt lat="41.1834483" lon="16.6739767"><ele>18.0</ele><time>2026-04-12T09:32:07.634Z</time></trkpt><trkpt lat="41.1833617" lon="16.6739617"><ele>18.0</ele><time>2026-04-12T09:32:08.637Z</time></trkpt><trkpt lat="41.1832717" lon="16.6739333"><ele>18.0</ele><time>2026-04-12T09:32:09.633Z</time></trkpt><trkpt lat="41.1831833" lon="16.6739033"><ele>18.0</ele><time>2026-04-12T09:32:10.634Z</time></trkpt><trkpt lat="41.1831117" lon="16.6738717"><ele>18.0</ele><time>2026-04-12T09:32:11.635Z</time></trkpt><trkpt lat="41.1830367" lon="16.673845"><ele>18.0</ele><time>2026-04-12T09:32:12.634Z</time></trkpt><trkpt lat="41.182955" lon="16.6738083"><ele>18.0</ele><time>2026-04-12T09:32:13.634Z</time></trkpt><trkpt lat="41.1828667" lon="16.67377"><ele>17.833333333333332</ele><time>2026-04-12T09:32:14.634Z</time></trkpt><trkpt lat="41.182785" lon="16.6737433"><ele>17.666666666666668</ele><time>2026-04-12T09:32:15.634Z</time></trkpt><trkpt lat="41.182705" lon="16.6737317"><ele>17.5</ele><time>2026-04-12T09:32:16.634Z</time></trkpt><trkpt lat="41.18263" lon="16.6737233"><ele>17.333333333333336</ele><time>2026-04-12T09:32:17.636Z</time></trkpt><trkpt lat="41.1825633" lon="16.6737233"><ele>17.166666666666668</ele><time>2026-04-12T09:32:18.635Z</time></trkpt><trkpt lat="41.18244" lon="16.6737233"><ele>17.0</ele><time>2026-04-12T09:32:20.635Z</time></trkpt><trkpt lat="41.1823267" lon="16.67372"><ele>17.0</ele><time>2026-04-12T09:32:22.635Z</time></trkpt><trkpt lat="41.1822183" lon="16.6737167"><ele>17.0</ele><time>2026-04-12T09:32:24.635Z</time></trkpt><trkpt lat="41.18214" lon="16.6737033"><ele>17.0</ele><time>2026-04-12T09:32:26.635Z</time></trkpt><trkpt lat="41.18208" lon="16.6736683"><ele>17.0</ele><time>2026-04-12T09:32:28.634Z</time></trkpt><trkpt lat="41.1820283" lon="16.673605"><ele>17.0</ele><time>2026-04-12T09:32:30.634Z</time></trkpt><trkpt lat="41.1819817" lon="16.6734783"><ele>17.0</ele><time>2026-04-12T09:32:32.639Z</time></trkpt><trkpt lat="41.18197" lon="16.67339"><ele>17.5</ele><time>2026-04-12T09:32:33.634Z</time></trkpt><trkpt lat="41.1819733" lon="16.6733"><ele>18.0</ele><time>2026-04-12T09:32:34.634Z</time></trkpt><trkpt lat="41.18198" lon="16.6732083"><ele>18.5</ele><time>2026-04-12T09:32:35.635Z</time></trkpt><trkpt lat="41.18199" lon="16.6731017"><ele>19.0</ele><time>2026-04-12T09:32:36.633Z</time></trkpt><trkpt lat="41.182" lon="16.6729767"><ele>19.5</ele><time>2026-04-12T09:32:37.634Z</time></trkpt><trkpt lat="41.182005" lon="16.6728383"><ele>20.0</ele><time>2026-04-12T09:32:38.635Z</time></trkpt><trkpt lat="41.1820083" lon="16.6727183"><ele>20.0</ele><time>2026-04-12T09:32:39.635Z</time></trkpt><trkpt lat="41.182015" lon="16.6725983"><ele>20.0</ele><time>2026-04-12T09:32:40.635Z</time></trkpt><trkpt lat="41.1820183" lon="16.67248"><ele>20.0</ele><time>2026-04-12T09:32:41.635Z</time></trkpt><trkpt lat="41.1820217" lon="16.6723733"><ele>20.0</ele><time>2026-04-12T09:32:42.633Z</time></trkpt><trkpt lat="41.1820267" lon="16.6722817"><ele>20.0</ele><time>2026-04-12T09:32:43.638Z</time></trkpt><trkpt lat="41.182035" lon="16.6721783"><ele>20.0</ele><time>2026-04-12T09:32:55.633Z</time></trkpt><trkpt lat="41.18205" lon="16.6720517"><ele>19.6</ele><time>2026-04-12T09:32:57.636Z</time></trkpt><trkpt lat="41.1820717" lon="16.67192"><ele>19.2</ele><time>2026-04-12T09:32:59.634Z</time></trkpt><trkpt lat="41.1820933" lon="16.6718383"><ele>18.8</ele><time>2026-04-12T09:33:01.635Z</time></trkpt><trkpt lat="41.1821817" lon="16.6718467"><ele>18.4</ele><time>2026-04-12T09:33:04.636Z</time></trkpt><trkpt lat="41.182285" lon="16.6719167"><ele>18.0</ele><time>2026-04-12T09:33:06.635Z</time></trkpt><trkpt lat="41.1823617" lon="16.671975"><ele>22.0</ele><time>2026-04-12T09:33:08.636Z</time></trkpt><trkpt lat="41.1824333" lon="16.6720117"><ele>22.0</ele><time>2026-04-12T09:33:11.635Z</time></trkpt><trkpt lat="41.1825067" lon="16.67204"><ele>22.0</ele><time>2026-04-12T09:33:15.634Z</time></trkpt></trkseg></trk></gpx>